<?xml version='1.0' encoding='UTF-8'?><gpx version="1.1" creator="JPX - https://github.com/jenetics/jpx" xmlns="http://www.topografix.com/GPX/1/1"><trk><trkseg><trkpt lat="45.81584317544405" lon="8.936085304443472"><ele>420.0</ele><time>2026-04-19T07:48:14Z</time></trkpt><trkpt lat="45.81576616724445" lon="8.93611883703289"><ele>420.0</ele><time>2026-04-19T07:48:16Z</time></trkpt><trkpt lat="45.81568968888485" lon="8.936103093453953"><ele>420.0</ele><time>2026-04-19T07:48:19Z</time></trkpt><trkpt lat="45.81562365829228" lon="8.936103728612117"><ele>420.0</ele><time>2026-04-19T07:48:22.999Z</time></trkpt><trkpt lat="45.81555743784001" lon="8.936116316526713"><ele>420.0</ele><time>2026-04-19T07:48:29.999Z</time></trkpt><trkpt lat="45.81548312268924" lon="8.936118692500182"><ele>420.0</ele><time>2026-04-19T07:48:33.999Z</time></trkpt><trkpt lat="45.81541007191858" lon="8.936101498557864"><ele>420.0</ele><time>2026-04-19T07:48:35.999Z</time></trkpt><trkpt lat="45.815336776628264" lon="8.93607809966292"><ele>420.0</ele><time>2026-04-19T07:49:20Z</time></trkpt><trkpt lat="45.81526486010967" lon="8.936075527223585"><ele>420.0</ele><time>2026-04-19T07:49:22Z</time></trkpt><trkpt lat="45.81518248182317" lon="8.936054814823207"><ele>420.0</ele><time>2026-04-19T07:49:25Z</time></trkpt><trkpt lat="45.815146018539814" lon="8.936332380026752"><ele>420.0</ele><time>2026-04-19T07:49:43Z</time></trkpt><trkpt lat="45.815170002725154" lon="8.93643203909644"><ele>420.0</ele><time>2026-04-19T07:49:44Z</time></trkpt><trkpt lat="45.815202291304715" lon="8.936535863030889"><ele>420.0</ele><time>2026-04-19T07:49:45Z</time></trkpt><trkpt lat="45.81523610977298" lon="8.936638121743725"><ele>420.0</ele><time>2026-04-19T07:49:46Z</time></trkpt><trkpt lat="45.81527963957054" lon="8.93674840344976"><ele>420.0</ele><time>2026-04-19T07:49:47Z</time></trkpt><trkpt lat="45.815314602430995" lon="8.936853760966445"><ele>420.0</ele><time>2026-04-19T07:49:48Z</time></trkpt><trkpt lat="45.81534652843648" lon="8.936978297151905"><ele>420.0</ele><time>2026-04-19T07:49:49Z</time></trkpt><trkpt lat="45.815379204164465" lon="8.937092584002983"><ele>420.0</ele><time>2026-04-19T07:49:50Z</time></trkpt><trkpt lat="45.81540464705377" lon="8.937209518768144"><ele>420.5</ele><time>2026-04-19T07:49:51Z</time></trkpt><trkpt lat="45.81543673074343" lon="8.93731849392018"><ele>421.0</ele><time>2026-04-19T07:49:52Z</time></trkpt><trkpt lat="45.81549333451766" lon="8.937463214035324"><ele>421.5</ele><time>2026-04-19T07:49:53Z</time></trkpt><trkpt lat="45.815543291450595" lon="8.937639380957377"><ele>422.0</ele><time>2026-04-19T07:49:54Z</time></trkpt><trkpt lat="45.81559803132088" lon="8.937841119053777"><ele>422.0</ele><time>2026-04-19T07:49:55Z</time></trkpt><trkpt lat="45.815660620452256" lon="8.93805406809812"><ele>422.0</ele><time>2026-04-19T07:49:56Z</time></trkpt><trkpt lat="45.8157303134238" lon="8.938279976901196"><ele>422.0</ele><time>2026-04-19T07:49:57Z</time></trkpt><trkpt lat="45.81579468161934" lon="8.93849962214217"><ele>421.0</ele><time>2026-04-19T07:49:58Z</time></trkpt><trkpt lat="45.81585432732642" lon="8.938712692960689"><ele>420.0</ele><time>2026-04-19T07:49:59Z</time></trkpt><trkpt lat="45.815919753353036" lon="8.938921494243592"><ele>419.0</ele><time>2026-04-19T07:50:00Z</time></trkpt><trkpt lat="45.8159957693517" lon="8.939129222543812"><ele>421.66666666666663</ele><time>2026-04-19T07:50:01Z</time></trkpt><trkpt lat="45.816088444570134" lon="8.93932103380103"><ele>424.33333333333337</ele><time>2026-04-19T07:50:02Z</time></trkpt><trkpt lat="45.81618752522701" lon="8.939505806421945"><ele>427.0</ele><time>2026-04-19T07:50:03Z</time></trkpt><trkpt lat="45.81629166615905" lon="8.939699247612644"><ele>427.0</ele><time>2026-04-19T07:50:04Z</time></trkpt><trkpt lat="45.81639387784238" lon="8.93989714775579"><ele>427.0</ele><time>2026-04-19T07:50:05Z</time></trkpt><trkpt lat="45.81649514137303" lon="8.940099211126636"><ele>427.0</ele><time>2026-04-19T07:50:06Z</time></trkpt><trkpt lat="45.81659807714301" lon="8.940302401461864"><ele>424.6666666666667</ele><time>2026-04-19T07:50:07Z</time></trkpt><trkpt lat="45.81670673226816" lon="8.940507969012126"><ele>422.33333333333337</ele><time>2026-04-19T07:50:08Z</time></trkpt><trkpt lat="45.81680891214625" lon="8.940711219273034"><ele>420.0</ele><time>2026-04-19T07:50:09Z</time></trkpt><trkpt lat="45.81691402873224" lon="8.940921367249482"><ele>415.66666666666663</ele><time>2026-04-19T07:50:10Z</time></trkpt><trkpt lat="45.81701562400945" lon="8.941119655594543"><ele>411.3333333333333</ele><time>2026-04-19T07:50:11Z</time></trkpt><trkpt lat="45.817109395955086" lon="8.941318336599428"><ele>407.0</ele><time>2026-04-19T07:50:12Z</time></trkpt><trkpt lat="45.81719870397051" lon="8.941521374402516"><ele>404.66666666666663</ele><time>2026-04-19T07:50:13Z</time></trkpt><trkpt lat="45.81727313605169" lon="8.94171782675128"><ele>402.33333333333337</ele><time>2026-04-19T07:50:14Z</time></trkpt><trkpt lat="45.81734232319803" lon="8.941918616073512"><ele>400.0</ele><time>2026-04-19T07:50:15Z</time></trkpt><trkpt lat="45.817404977150154" lon="8.94211948938084"><ele>400.0</ele><time>2026-04-19T07:50:16Z</time></trkpt><trkpt lat="45.817482563016455" lon="8.94231653333283"><ele>400.0</ele><time>2026-04-19T07:50:17Z</time></trkpt><trkpt lat="45.817556996158906" lon="8.942517575475726"><ele>400.0</ele><time>2026-04-19T07:50:18Z</time></trkpt><trkpt lat="45.81762959888945" lon="8.942716855947323"><ele>399.33333333333337</ele><time>2026-04-19T07:50:19Z</time></trkpt><trkpt lat="45.81769266577525" lon="8.94292179858288"><ele>398.66666666666663</ele><time>2026-04-19T07:50:20Z</time></trkpt><trkpt lat="45.81772479947867" lon="8.943141787100757"><ele>398.0</ele><time>2026-04-19T07:50:20.999Z</time></trkpt><trkpt lat="45.81774806362635" lon="8.943374888603"><ele>398.0</ele><time>2026-04-19T07:50:21.999Z</time></trkpt><trkpt lat="45.81777349556137" lon="8.94364659181431"><ele>398.0</ele><time>2026-04-19T07:50:22.999Z</time></trkpt><trkpt lat="45.817776884578215" lon="8.943941525466833"><ele>398.0</ele><time>2026-04-19T07:50:23.999Z</time></trkpt><trkpt lat="45.81778961144354" lon="8.9442288762686"><ele>398.0</ele><time>2026-04-19T07:50:24.999Z</time></trkpt><trkpt lat="45.81779962373384" lon="8.944479609023304"><ele>398.0</ele><time>2026-04-19T07:50:25.999Z</time></trkpt><trkpt lat="45.817806205559584" lon="8.94472214180001"><ele>398.0</ele><time>2026-04-19T07:50:26.999Z</time></trkpt><trkpt lat="45.81783481380423" lon="8.944972176086239"><ele>397.66666666666663</ele><time>2026-04-19T07:50:27.999Z</time></trkpt><trkpt lat="45.817866884099665" lon="8.945201444627054"><ele>397.33333333333337</ele><time>2026-04-19T07:50:28.999Z</time></trkpt><trkpt lat="45.81792196093917" lon="8.94543147950934"><ele>397.0</ele><time>2026-04-19T07:50:29.999Z</time></trkpt><trkpt lat="45.818001651224314" lon="8.945663900608855"><ele>396.33333333333337</ele><time>2026-04-19T07:50:30.999Z</time></trkpt><trkpt lat="45.818107918212306" lon="8.945892109618761"><ele>395.66666666666663</ele><time>2026-04-19T07:50:31.999Z</time></trkpt><trkpt lat="45.81820127207034" lon="8.946151216542129"><ele>395.0</ele><time>2026-04-19T07:50:32.999Z</time></trkpt><trkpt lat="45.8183044936966" lon="8.946405130065424"><ele>395.0</ele><time>2026-04-19T07:50:33.999Z</time></trkpt><trkpt lat="45.818424341481226" lon="8.946661590546512"><ele>395.0</ele><time>2026-04-19T07:50:34.999Z</time></trkpt><trkpt lat="45.81853218660718" lon="8.946938650832434"><ele>395.0</ele><time>2026-04-19T07:50:35.999Z</time></trkpt><trkpt lat="45.81864625400061" lon="8.947216903319372"><ele>396.0</ele><time>2026-04-19T07:50:36.999Z</time></trkpt><trkpt lat="45.818746985968" lon="8.947448268359501"><ele>397.0</ele><time>2026-04-19T07:50:37.999Z</time></trkpt><trkpt lat="45.81884129741863" lon="8.947665301774062"><ele>398.0</ele><time>2026-04-19T07:50:38.999Z</time></trkpt><trkpt lat="45.81893256123234" lon="8.947865546092476"><ele>398.0</ele><time>2026-04-19T07:50:39.999Z</time></trkpt><trkpt lat="45.81901783564692" lon="8.948045539625616"><ele>398.0</ele><time>2026-04-19T07:50:40.999Z</time></trkpt><trkpt lat="45.819098571654536" lon="8.948217737378682"><ele>398.0</ele><time>2026-04-19T07:50:41.999Z</time></trkpt><trkpt lat="45.81917754830837" lon="8.948401272042352"><ele>398.0</ele><time>2026-04-19T07:50:42.999Z</time></trkpt><trkpt lat="45.81924933905661" lon="8.948592941277266"><ele>398.0</ele><time>2026-04-19T07:50:43.999Z</time></trkpt><trkpt lat="45.819299358328344" lon="8.948790023666534"><ele>398.0</ele><time>2026-04-19T07:50:44.999Z</time></trkpt><trkpt lat="45.81931302207217" lon="8.949000548828987"><ele>398.0</ele><time>2026-04-19T07:50:45.999Z</time></trkpt><trkpt lat="45.81935037364067" lon="8.94921334862575"><ele>398.0</ele><time>2026-04-19T07:50:46.999Z</time></trkpt><trkpt lat="45.81937002816422" lon="8.949418991518408"><ele>398.66666666666663</ele><time>2026-04-19T07:50:47.999Z</time></trkpt><trkpt lat="45.819398803581365" lon="8.949651568942429"><ele>399.33333333333337</ele><time>2026-04-19T07:50:48.999Z</time></trkpt><trkpt lat="45.81945652614534" lon="8.949865319981422"><ele>400.0</ele><time>2026-04-19T07:50:49.999Z</time></trkpt><trkpt lat="45.81952586824522" lon="8.95005471253682"><ele>400.0</ele><time>2026-04-19T07:50:50.999Z</time></trkpt><trkpt lat="45.81958601123032" lon="8.950225223431037"><ele>400.0</ele><time>2026-04-19T07:50:51.999Z</time></trkpt><trkpt lat="45.81963789427222" lon="8.950398298645657"><ele>400.0</ele><time>2026-04-19T07:50:52.999Z</time></trkpt><trkpt lat="45.819662215730865" lon="8.950568179006133"><ele>400.0</ele><time>2026-04-19T07:50:53.999Z</time></trkpt><trkpt lat="45.819678954295625" lon="8.950719126665993"><ele>400.00000000000006</ele><time>2026-04-19T07:50:54.999Z</time></trkpt><trkpt lat="45.819689436326755" lon="8.95086941630874"><ele>400.0</ele><time>2026-04-19T07:50:55.999Z</time></trkpt><trkpt lat="45.81970396982806" lon="8.951011597801003"><ele>400.0</ele><time>2026-04-19T07:50:56.999Z</time></trkpt><trkpt lat="45.8197091287915" lon="8.951137996810514"><ele>400.0</ele><time>2026-04-19T07:50:57.999Z</time></trkpt><trkpt lat="45.81970456743997" lon="8.95123044874579"><ele>400.00000000000006</ele><time>2026-04-19T07:50:58.999Z</time></trkpt><trkpt lat="45.81968243111229" lon="8.951331497788464"><ele>400.0</ele><time>2026-04-19T07:51:00.999Z</time></trkpt><trkpt lat="45.819613056817666" lon="8.951454543585765"><ele>399.2</ele><time>2026-04-19T07:51:04.999Z</time></trkpt><trkpt lat="45.819549048412796" lon="8.951479029328036"><ele>398.4</ele><time>2026-04-19T07:51:05.999Z</time></trkpt><trkpt lat="45.81947130233706" lon="8.95150329117989"><ele>397.6</ele><time>2026-04-19T07:51:06.999Z</time></trkpt><trkpt lat="45.81938053890665" lon="8.95149872795436"><ele>396.8</ele><time>2026-04-19T07:51:07.999Z</time></trkpt><trkpt lat="45.81927676293229" lon="8.951506822532584"><ele>396.0</ele><time>2026-04-19T07:51:08.999Z</time></trkpt><trkpt lat="45.81916042676851" lon="8.951504379657079"><ele>396.0</ele><time>2026-04-19T07:51:09.999Z</time></trkpt><trkpt lat="45.81903243860883" lon="8.951507796892813"><ele>396.0</ele><time>2026-04-19T07:51:10.999Z</time></trkpt><trkpt lat="45.81888505365153" lon="8.951524172638127"><ele>396.0</ele><time>2026-04-19T07:51:11.999Z</time></trkpt><trkpt lat="45.81871261806145" lon="8.951526970353187"><ele>396.0</ele><time>2026-04-19T07:51:12.999Z</time></trkpt><trkpt lat="45.81853941793226" lon="8.951526008786178"><ele>396.33333333333337</ele><time>2026-04-19T07:51:13.999Z</time></trkpt><trkpt lat="45.818355347687415" lon="8.95153100870619"><ele>396.6666666666667</ele><time>2026-04-19T07:51:14.999Z</time></trkpt><trkpt lat="45.818171989103654" lon="8.951539525078688"><ele>397.0</ele><time>2026-04-19T07:51:15.999Z</time></trkpt><trkpt lat="45.81798355156038" lon="8.951537987999654"><ele>397.0</ele><time>2026-04-19T07:51:16.999Z</time></trkpt><trkpt lat="45.817781522890826" lon="8.9515181930789"><ele>397.0</ele><time>2026-04-19T07:51:17.999Z</time></trkpt><trkpt lat="45.81756935723272" lon="8.951519128506153"><ele>397.0</ele><time>2026-04-19T07:51:18.999Z</time></trkpt><trkpt lat="45.81734706812009" lon="8.951520455795189"><ele>397.5</ele><time>2026-04-19T07:51:19.999Z</time></trkpt><trkpt lat="45.81711841302561" lon="8.951543926720225"><ele>398.0</ele><time>2026-04-19T07:51:20.999Z</time></trkpt><trkpt lat="45.81686865968849" lon="8.95153495778478"><ele>398.5</ele><time>2026-04-19T07:51:21.999Z</time></trkpt><trkpt lat="45.81659990389366" lon="8.951516063844357"><ele>399.0</ele><time>2026-04-19T07:51:23Z</time></trkpt><trkpt lat="45.81636653678731" lon="8.951481526220126"><ele>399.0</ele><time>2026-04-19T07:51:24Z</time></trkpt><trkpt lat="45.81616137879052" lon="8.9514653944539"><ele>399.0</ele><time>2026-04-19T07:51:25Z</time></trkpt><trkpt lat="45.815960801718234" lon="8.951462516704062"><ele>399.0</ele><time>2026-04-19T07:51:26Z</time></trkpt><trkpt lat="45.81576766103857" lon="8.951476557439118"><ele>398.0</ele><time>2026-04-19T07:51:27Z</time></trkpt><trkpt lat="45.81558404609409" lon="8.951490417317618"><ele>397.0</ele><time>2026-04-19T07:51:28Z</time></trkpt><trkpt lat="45.81540549010285" lon="8.951505980508594"><ele>396.0</ele><time>2026-04-19T07:51:29Z</time></trkpt><trkpt lat="45.81522353860643" lon="8.951512886235063"><ele>396.66666666666663</ele><time>2026-04-19T07:51:30Z</time></trkpt><trkpt lat="45.815038238599094" lon="8.951518238315694"><ele>397.3333333333333</ele><time>2026-04-19T07:51:31Z</time></trkpt><trkpt lat="45.814840149869596" lon="8.951527209194962"><ele>398.0</ele><time>2026-04-19T07:51:32Z</time></trkpt><trkpt lat="45.81463864983259" lon="8.951565523357308"><ele>398.0</ele><time>2026-04-19T07:51:33Z</time></trkpt><trkpt lat="45.81444771369492" lon="8.9516335693052"><ele>398.0</ele><time>2026-04-19T07:51:34Z</time></trkpt><trkpt lat="45.81425047857964" lon="8.95171573986387"><ele>398.0</ele><time>2026-04-19T07:51:35Z</time></trkpt><trkpt lat="45.814063691254944" lon="8.951798089877416"><ele>397.0</ele><time>2026-04-19T07:51:36Z</time></trkpt><trkpt lat="45.81388089160669" lon="8.951906044091919"><ele>396.0</ele><time>2026-04-19T07:51:37Z</time></trkpt><trkpt lat="45.81370751216195" lon="8.951998758855211"><ele>395.0</ele><time>2026-04-19T07:51:38Z</time></trkpt><trkpt lat="45.81353460519993" lon="8.95208887757538"><ele>395.3333333333333</ele><time>2026-04-19T07:51:39Z</time></trkpt><trkpt lat="45.81335525047648" lon="8.952186388446153"><ele>395.66666666666663</ele><time>2026-04-19T07:51:40Z</time></trkpt><trkpt lat="45.81318047215469" lon="8.9522786038609"><ele>396.0</ele><time>2026-04-19T07:51:41Z</time></trkpt><trkpt lat="45.81300637233131" lon="8.952370704130333"><ele>396.0</ele><time>2026-04-19T07:51:42Z</time></trkpt><trkpt lat="45.81282346304639" lon="8.952470002554321"><ele>396.0</ele><time>2026-04-19T07:51:43Z</time></trkpt><trkpt lat="45.812643609828164" lon="8.95257191005358"><ele>396.0</ele><time>2026-04-19T07:51:44Z</time></trkpt><trkpt lat="45.81246137270028" lon="8.952667313208078"><ele>395.66666666666663</ele><time>2026-04-19T07:51:45Z</time></trkpt><trkpt lat="45.81228015841706" lon="8.95276503287713"><ele>395.3333333333333</ele><time>2026-04-19T07:51:46Z</time></trkpt><trkpt lat="45.81209210750625" lon="8.952864373447962"><ele>395.0</ele><time>2026-04-19T07:51:47Z</time></trkpt><trkpt lat="45.81190842332365" lon="8.952959180571886"><ele>394.3333333333333</ele><time>2026-04-19T07:51:48Z</time></trkpt><trkpt lat="45.81172742587168" lon="8.953063151277373"><ele>393.66666666666663</ele><time>2026-04-19T07:51:49Z</time></trkpt><trkpt lat="45.81154543724561" lon="8.953167980870937"><ele>393.0</ele><time>2026-04-19T07:51:50Z</time></trkpt><trkpt lat="45.81135299215004" lon="8.953245540477674"><ele>393.0</ele><time>2026-04-19T07:51:51Z</time></trkpt><trkpt lat="45.81116981350305" lon="8.953342850284535"><ele>393.0</ele><time>2026-04-19T07:51:52Z</time></trkpt><trkpt lat="45.810990772449244" lon="8.953438222795453"><ele>393.0</ele><time>2026-04-19T07:51:53Z</time></trkpt><trkpt lat="45.81081698286229" lon="8.953530797929199"><ele>393.0</ele><time>2026-04-19T07:51:54Z</time></trkpt><trkpt lat="45.810639795143445" lon="8.953624822943663"><ele>393.0</ele><time>2026-04-19T07:51:55Z</time></trkpt><trkpt lat="45.810474053186525" lon="8.95371266521959"><ele>393.0</ele><time>2026-04-19T07:51:56Z</time></trkpt><trkpt lat="45.81031579858239" lon="8.95379659081294"><ele>392.33333333333337</ele><time>2026-04-19T07:51:57Z</time></trkpt><trkpt lat="45.81015621166305" lon="8.953881241492295"><ele>391.6666666666667</ele><time>2026-04-19T07:51:58Z</time></trkpt><trkpt lat="45.81000171160727" lon="8.953984606484232"><ele>391.0</ele><time>2026-04-19T07:51:59Z</time></trkpt><trkpt lat="45.809835610602825" lon="8.954072060935163"><ele>391.0</ele><time>2026-04-19T07:52:00Z</time></trkpt><trkpt lat="45.809669022676175" lon="8.954150208904657"><ele>391.0</ele><time>2026-04-19T07:52:01Z</time></trkpt><trkpt lat="45.809500712964336" lon="8.954231525043406"><ele>391.0</ele><time>2026-04-19T07:52:02Z</time></trkpt><trkpt lat="45.80933057320193" lon="8.954307220111206"><ele>390.6666666666667</ele><time>2026-04-19T07:52:03Z</time></trkpt><trkpt lat="45.809157481412164" lon="8.95435889997344"><ele>390.33333333333337</ele><time>2026-04-19T07:52:04Z</time></trkpt><trkpt lat="45.808981044456694" lon="8.954395924853412"><ele>390.0</ele><time>2026-04-19T07:52:05Z</time></trkpt><trkpt lat="45.80880471319473" lon="8.954416621937835"><ele>390.0</ele><time>2026-04-19T07:52:06Z</time></trkpt><trkpt lat="45.80862423679732" lon="8.954420216247838"><ele>390.0</ele><time>2026-04-19T07:52:07Z</time></trkpt><trkpt lat="45.80844352076486" lon="8.954410922457397"><ele>390.0</ele><time>2026-04-19T07:52:08Z</time></trkpt><trkpt lat="45.80826821946791" lon="8.954395798190028"><ele>390.0</ele><time>2026-04-19T07:52:09Z</time></trkpt><trkpt lat="45.80809585054236" lon="8.954374032382853"><ele>390.0</ele><time>2026-04-19T07:52:10Z</time></trkpt><trkpt lat="45.80793277514191" lon="8.954324607928406"><ele>390.0</ele><time>2026-04-19T07:52:11Z</time></trkpt><trkpt lat="45.807784638705506" lon="8.95429381368802"><ele>391.0</ele><time>2026-04-19T07:52:12Z</time></trkpt><trkpt lat="45.80760973349679" lon="8.954257454809454"><ele>392.0</ele><time>2026-04-19T07:52:13Z</time></trkpt><trkpt lat="45.807423301752735" lon="8.95421869982812"><ele>393.0</ele><time>2026-04-19T07:52:14Z</time></trkpt><trkpt lat="45.807234081204626" lon="8.954179365110482"><ele>393.0</ele><time>2026-04-19T07:52:14.999Z</time></trkpt><trkpt lat="45.80703217385749" lon="8.95413739310906"><ele>393.0</ele><time>2026-04-19T07:52:15.999Z</time></trkpt><trkpt lat="45.80685055271599" lon="8.95409963814235"><ele>393.0</ele><time>2026-04-19T07:52:16.999Z</time></trkpt><trkpt lat="45.806474336884335" lon="8.95402049244173"><ele>393.33333333333337</ele><time>2026-04-19T07:52:17.999Z</time></trkpt><trkpt lat="45.806246313497134" lon="8.953991756101118"><ele>393.6666666666667</ele><time>2026-04-19T07:52:18.999Z</time></trkpt><trkpt lat="45.80604358903434" lon="8.953947146418415"><ele>394.0</ele><time>2026-04-19T07:52:19.999Z</time></trkpt><trkpt lat="45.80584610977136" lon="8.953886677962597"><ele>394.0</ele><time>2026-04-19T07:52:20.999Z</time></trkpt><trkpt lat="45.80564139221053" lon="8.953844170592403"><ele>394.0</ele><time>2026-04-19T07:52:21.999Z</time></trkpt><trkpt lat="45.80541708077286" lon="8.95379725121942"><ele>394.0</ele><time>2026-04-19T07:52:22.999Z</time></trkpt><trkpt lat="45.805195364917026" lon="8.953750754596776"><ele>394.6666666666667</ele><time>2026-04-19T07:52:23.999Z</time></trkpt><trkpt lat="45.80499142801423" lon="8.953729282742247"><ele>395.33333333333337</ele><time>2026-04-19T07:52:24.999Z</time></trkpt><trkpt lat="45.80480534673252" lon="8.953683175090758"><ele>396.0</ele><time>2026-04-19T07:52:25.999Z</time></trkpt><trkpt lat="45.80462847267744" lon="8.953646380979306"><ele>396.0</ele><time>2026-04-19T07:52:26.999Z</time></trkpt><trkpt lat="45.804459665633956" lon="8.953610601235864"><ele>396.0</ele><time>2026-04-19T07:52:27.999Z</time></trkpt><trkpt lat="45.80428789595099" lon="8.953577877656393"><ele>396.0</ele><time>2026-04-19T07:52:28.999Z</time></trkpt><trkpt lat="45.804131391225035" lon="8.953537555842662"><ele>396.0</ele><time>2026-04-19T07:52:29.999Z</time></trkpt><trkpt lat="45.80398246010803" lon="8.953486284390884"><ele>396.0</ele><time>2026-04-19T07:52:30.999Z</time></trkpt><trkpt lat="45.80382963032066" lon="8.953424469425745"><ele>396.0</ele><time>2026-04-19T07:52:31.999Z</time></trkpt><trkpt lat="45.80369150945738" lon="8.953344119702852"><ele>395.25</ele><time>2026-04-19T07:52:32.999Z</time></trkpt><trkpt lat="45.80355677113076" lon="8.953280497854113"><ele>394.5</ele><time>2026-04-19T07:52:33.999Z</time></trkpt><trkpt lat="45.80342094597412" lon="8.953212005782502"><ele>393.75</ele><time>2026-04-19T07:52:34.999Z</time></trkpt><trkpt lat="45.803287184583695" lon="8.953167288563913"><ele>393.0</ele><time>2026-04-19T07:52:35.999Z</time></trkpt><trkpt lat="45.803140163171165" lon="8.95314443161692"><ele>392.33333333333337</ele><time>2026-04-19T07:52:36.999Z</time></trkpt><trkpt lat="45.802988030411996" lon="8.953137233474198"><ele>391.6666666666667</ele><time>2026-04-19T07:52:37.999Z</time></trkpt><trkpt lat="45.80283249376509" lon="8.953143867596225"><ele>391.0</ele><time>2026-04-19T07:52:38.999Z</time></trkpt><trkpt lat="45.802667728344794" lon="8.953173777213236"><ele>391.75</ele><time>2026-04-19T07:52:39.999Z</time></trkpt><trkpt lat="45.80251815108077" lon="8.953176498645597"><ele>392.5</ele><time>2026-04-19T07:52:40.999Z</time></trkpt><trkpt lat="45.80237815862438" lon="8.953164749778503"><ele>393.25</ele><time>2026-04-19T07:52:41.999Z</time></trkpt><trkpt lat="45.802249198964525" lon="8.953124040580406"><ele>394.0</ele><time>2026-04-19T07:52:42.999Z</time></trkpt><trkpt lat="45.80212327214522" lon="8.953098626081736"><ele>394.0</ele><time>2026-04-19T07:52:43.999Z</time></trkpt><trkpt lat="45.801990830185176" lon="8.953080396790181"><ele>394.0</ele><time>2026-04-19T07:52:44.999Z</time></trkpt><trkpt lat="45.8018572587704" lon="8.953055764684338"><ele>394.0</ele><time>2026-04-19T07:52:45.999Z</time></trkpt><trkpt lat="45.801729002309386" lon="8.953050003224732"><ele>394.0</ele><time>2026-04-19T07:52:46.999Z</time></trkpt><trkpt lat="45.80159758210427" lon="8.953036243581277"><ele>394.5</ele><time>2026-04-19T07:52:47.999Z</time></trkpt><trkpt lat="45.80147639078732" lon="8.953044187682663"><ele>395.0</ele><time>2026-04-19T07:52:48.999Z</time></trkpt><trkpt lat="45.80136018141132" lon="8.953065443896087"><ele>395.5</ele><time>2026-04-19T07:52:49.999Z</time></trkpt><trkpt lat="45.801244870545155" lon="8.953094528231127"><ele>396.0</ele><time>2026-04-19T07:52:50.999Z</time></trkpt><trkpt lat="45.80113196620428" lon="8.953124068873656"><ele>396.0</ele><time>2026-04-19T07:52:51.999Z</time></trkpt><trkpt lat="45.80101994390837" lon="8.95315758143789"><ele>396.0</ele><time>2026-04-19T07:52:52.999Z</time></trkpt><trkpt lat="45.800909203593044" lon="8.953199182889051"><ele>396.0</ele><time>2026-04-19T07:52:53.999Z</time></trkpt><trkpt lat="45.800802758140996" lon="8.95325193691966"><ele>396.0</ele><time>2026-04-19T07:52:54.999Z</time></trkpt><trkpt lat="45.80070811380644" lon="8.953294095622194"><ele>396.0</ele><time>2026-04-19T07:52:55.999Z</time></trkpt><trkpt lat="45.80061751976307" lon="8.953334146098294"><ele>396.5</ele><time>2026-04-19T07:52:56.999Z</time></trkpt><trkpt lat="45.80053512124555" lon="8.953354881062214"><ele>397.0</ele><time>2026-04-19T07:52:57.999Z</time></trkpt><trkpt lat="45.80044201736296" lon="8.953361314003782"><ele>397.5</ele><time>2026-04-19T07:52:58.999Z</time></trkpt><trkpt lat="45.8003600192504" lon="8.953358261799446"><ele>398.0</ele><time>2026-04-19T07:52:59.999Z</time></trkpt><trkpt lat="45.80027262837516" lon="8.953379620285824"><ele>398.5</ele><time>2026-04-19T07:53:00.999Z</time></trkpt><trkpt lat="45.80021479179596" lon="8.953426519535501"><ele>399.0</ele><time>2026-04-19T07:53:01.999Z</time></trkpt><trkpt lat="45.800183476215956" lon="8.953515730497063"><ele>399.0</ele><time>2026-04-19T07:53:02.999Z</time></trkpt><trkpt lat="45.80017341366332" lon="8.953635823867668"><ele>399.0</ele><time>2026-04-19T07:53:03.999Z</time></trkpt><trkpt lat="45.80020056232563" lon="8.953776853328455"><ele>399.0</ele><time>2026-04-19T07:53:04.999Z</time></trkpt><trkpt lat="45.80025424155447" lon="8.953921902378374"><ele>399.0</ele><time>2026-04-19T07:53:05.999Z</time></trkpt><trkpt lat="45.80029633989" lon="8.95408706991977"><ele>399.0</ele><time>2026-04-19T07:53:06.999Z</time></trkpt><trkpt lat="45.80036720424181" lon="8.954255589859134"><ele>399.66666666666663</ele><time>2026-04-19T07:53:07.999Z</time></trkpt><trkpt lat="45.80031397557809" lon="8.954523194630287"><ele>400.3333333333333</ele><time>2026-04-19T07:53:08.999Z</time></trkpt><trkpt lat="45.80030858959343" lon="8.95475795956541"><ele>401.0</ele><time>2026-04-19T07:53:09.999Z</time></trkpt><trkpt lat="45.800306210793956" lon="8.955008760698002"><ele>400.0</ele><time>2026-04-19T07:53:10.999Z</time></trkpt><trkpt lat="45.80030121251875" lon="8.955283680957072"><ele>399.0</ele><time>2026-04-19T07:53:11.999Z</time></trkpt><trkpt lat="45.80028649409469" lon="8.955581020968502"><ele>398.0</ele><time>2026-04-19T07:53:12.999Z</time></trkpt><trkpt lat="45.800273814272906" lon="8.955899916780588"><ele>396.5</ele><time>2026-04-19T07:53:13.999Z</time></trkpt><trkpt lat="45.800270801532854" lon="8.956228672306151"><ele>395.0</ele><time>2026-04-19T07:53:14.999Z</time></trkpt><trkpt lat="45.80026976405886" lon="8.95656591649949"><ele>393.5</ele><time>2026-04-19T07:53:15.999Z</time></trkpt><trkpt lat="45.800256787152456" lon="8.956913471757163"><ele>392.0</ele><time>2026-04-19T07:53:16.999Z</time></trkpt><trkpt lat="45.80023778651016" lon="8.957250630807199"><ele>391.0</ele><time>2026-04-19T07:53:17.999Z</time></trkpt><trkpt lat="45.800200300772836" lon="8.957559496661366"><ele>390.0</ele><time>2026-04-19T07:53:18.999Z</time></trkpt><trkpt lat="45.80014776976251" lon="8.95785202618213"><ele>389.0</ele><time>2026-04-19T07:53:19.999Z</time></trkpt><trkpt lat="45.80006191173262" lon="8.958126647914415"><ele>386.66666666666663</ele><time>2026-04-19T07:53:20.999Z</time></trkpt><trkpt lat="45.79997979940037" lon="8.958386448880686"><ele>384.3333333333333</ele><time>2026-04-19T07:53:21.999Z</time></trkpt><trkpt lat="45.799877582051664" lon="8.958655801368497"><ele>382.0</ele><time>2026-04-19T07:53:22.999Z</time></trkpt><trkpt lat="45.79974931594799" lon="8.958943000964299"><ele>380.5</ele><time>2026-04-19T07:53:23.999Z</time></trkpt><trkpt lat="45.79962372425882" lon="8.959252444996332"><ele>379.0</ele><time>2026-04-19T07:53:24.999Z</time></trkpt><trkpt lat="45.79946902641089" lon="8.95956362153675"><ele>378.5</ele><time>2026-04-19T07:53:25.999Z</time></trkpt><trkpt lat="45.799312112333304" lon="8.95988198768928"><ele>378.0</ele><time>2026-04-19T07:53:26.999Z</time></trkpt><trkpt lat="45.79915285783286" lon="8.960215359020445"><ele>377.5</ele><time>2026-04-19T07:53:27.999Z</time></trkpt><trkpt lat="45.79898973648956" lon="8.960553638655039"><ele>377.0</ele><time>2026-04-19T07:53:29Z</time></trkpt><trkpt lat="45.79883417314791" lon="8.960901352550227"><ele>377.0</ele><time>2026-04-19T07:53:30Z</time></trkpt><trkpt lat="45.79868520774763" lon="8.9612696275341"><ele>377.0</ele><time>2026-04-19T07:53:31Z</time></trkpt><trkpt lat="45.79856266409431" lon="8.961651604225779"><ele>381.5</ele><time>2026-04-19T07:53:32Z</time></trkpt><trkpt lat="45.79847219583007" lon="8.962057332769847"><ele>386.0</ele><time>2026-04-19T07:53:33Z</time></trkpt><trkpt lat="45.79838977711549" lon="8.962476164276287"><ele>385.5</ele><time>2026-04-19T07:53:34Z</time></trkpt><trkpt lat="45.79832158416473" lon="8.962887115337482"><ele>385.0</ele><time>2026-04-19T07:53:35Z</time></trkpt><trkpt lat="45.79826599523482" lon="8.963261657986271"><ele>383.5</ele><time>2026-04-19T07:53:36Z</time></trkpt><trkpt lat="45.79820197304241" lon="8.963609060185599"><ele>382.0</ele><time>2026-04-19T07:53:37Z</time></trkpt><trkpt lat="45.79814407493286" lon="8.963922108985535"><ele>382.3333333333333</ele><time>2026-04-19T07:53:38Z</time></trkpt><trkpt lat="45.79808531461925" lon="8.96423374008891"><ele>382.6666666666667</ele><time>2026-04-19T07:53:39Z</time></trkpt><trkpt lat="45.79803209290715" lon="8.964530647839824"><ele>383.0</ele><time>2026-04-19T07:53:40Z</time></trkpt><trkpt lat="45.797978743215644" lon="8.964825410571807"><ele>381.6666666666667</ele><time>2026-04-19T07:53:41Z</time></trkpt><trkpt lat="45.79792022424965" lon="8.965120324314272"><ele>380.3333333333333</ele><time>2026-04-19T07:53:42Z</time></trkpt><trkpt lat="45.79785321317258" lon="8.96541013404904"><ele>379.0</ele><time>2026-04-19T07:53:43Z</time></trkpt><trkpt lat="45.79775202545472" lon="8.965680703453799"><ele>379.3333333333333</ele><time>2026-04-19T07:53:44Z</time></trkpt><trkpt lat="45.797634910651624" lon="8.965933579572301"><ele>379.6666666666667</ele><time>2026-04-19T07:53:45Z</time></trkpt><trkpt lat="45.797505026626666" lon="8.966171954663789"><ele>380.0</ele><time>2026-04-19T07:53:46Z</time></trkpt><trkpt lat="45.7973706904947" lon="8.966426084857273"><ele>380.0</ele><time>2026-04-19T07:53:47Z</time></trkpt><trkpt lat="45.797241519146475" lon="8.966647233575847"><ele>380.0</ele><time>2026-04-19T07:53:48Z</time></trkpt><trkpt lat="45.79711053221459" lon="8.966874082950483"><ele>380.0</ele><time>2026-04-19T07:53:49Z</time></trkpt><trkpt lat="45.79698312476404" lon="8.967090512992042"><ele>380.6666666666667</ele><time>2026-04-19T07:53:50Z</time></trkpt><trkpt lat="45.796873715101725" lon="8.967296275131277"><ele>381.3333333333333</ele><time>2026-04-19T07:53:51Z</time></trkpt><trkpt lat="45.79676549687088" lon="8.967490777212943"><ele>382.0</ele><time>2026-04-19T07:53:52Z</time></trkpt><trkpt lat="45.79667054775676" lon="8.967699668192566"><ele>382.0</ele><time>2026-04-19T07:53:53Z</time></trkpt><trkpt lat="45.796595076433036" lon="8.96792534510619"><ele>382.0</ele><time>2026-04-19T07:53:54Z</time></trkpt><trkpt lat="45.79654819655338" lon="8.968177925583442"><ele>382.0</ele><time>2026-04-19T07:53:55Z</time></trkpt><trkpt lat="45.79652037171161" lon="8.968410673201632"><ele>380.0</ele><time>2026-04-19T07:53:56Z</time></trkpt><trkpt lat="45.79651334737802" lon="8.968647143700547"><ele>378.0</ele><time>2026-04-19T07:53:57Z</time></trkpt><trkpt lat="45.79652730639675" lon="8.968866027595832"><ele>376.0</ele><time>2026-04-19T07:53:58Z</time></trkpt><trkpt lat="45.796544020656164" lon="8.969077822489977"><ele>376.4</ele><time>2026-04-19T07:53:59Z</time></trkpt><trkpt lat="45.79658526691479" lon="8.969245372382632"><ele>376.8</ele><time>2026-04-19T07:54:00Z</time></trkpt><trkpt lat="45.796622874812535" lon="8.969394484344033"><ele>377.2</ele><time>2026-04-19T07:54:01Z</time></trkpt><trkpt lat="45.796654285809524" lon="8.969513450426742"><ele>377.59999999999997</ele><time>2026-04-19T07:54:02Z</time></trkpt><trkpt lat="45.79667341940068" lon="8.969631708205522"><ele>378.0</ele><time>2026-04-19T07:54:03Z</time></trkpt><trkpt lat="45.796646712190906" lon="8.969737439238566"><ele>378.0</ele><time>2026-04-19T07:54:04Z</time></trkpt><trkpt lat="45.796591940050355" lon="8.969824907425334"><ele>378.0</ele><time>2026-04-19T07:54:05Z</time></trkpt><trkpt lat="45.79650822851877" lon="8.969873129159085"><ele>378.0</ele><time>2026-04-19T07:54:06Z</time></trkpt><trkpt lat="45.79639097582678" lon="8.969883483396746"><ele>378.0</ele><time>2026-04-19T07:54:07Z</time></trkpt><trkpt lat="45.796259458478566" lon="8.9698827935729"><ele>378.0</ele><time>2026-04-19T07:54:08Z</time></trkpt><trkpt lat="45.7961031363225" lon="8.969893762104247"><ele>379.6666666666667</ele><time>2026-04-19T07:54:09Z</time></trkpt><trkpt lat="45.795954526063916" lon="8.969926107793052"><ele>381.33333333333337</ele><time>2026-04-19T07:54:10Z</time></trkpt><trkpt lat="45.79578889599101" lon="8.969978503610184"><ele>383.0</ele><time>2026-04-19T07:54:11Z</time></trkpt><trkpt lat="45.7956102037242" lon="8.970030068107768"><ele>383.33333333333337</ele><time>2026-04-19T07:54:12Z</time></trkpt><trkpt lat="45.79543111540159" lon="8.970074989110973"><ele>383.6666666666667</ele><time>2026-04-19T07:54:13Z</time></trkpt><trkpt lat="45.79524346463805" lon="8.970122103821073"><ele>384.0</ele><time>2026-04-19T07:54:14Z</time></trkpt><trkpt lat="45.79504160532358" lon="8.970170905305192"><ele>388.0</ele><time>2026-04-19T07:54:15Z</time></trkpt><trkpt lat="45.79484045688039" lon="8.970200576580735"><ele>392.0</ele><time>2026-04-19T07:54:16Z</time></trkpt><trkpt lat="45.794655427125385" lon="8.970205640987162"><ele>396.0</ele><time>2026-04-19T07:54:17Z</time></trkpt><trkpt lat="45.79449336829383" lon="8.970219921888571"><ele>394.33333333333337</ele><time>2026-04-19T07:54:18Z</time></trkpt><trkpt lat="45.79433429312181" lon="8.970234581277175"><ele>392.6666666666667</ele><time>2026-04-19T07:54:19Z</time></trkpt><trkpt lat="45.79418146458735" lon="8.970206113313601"><ele>391.0</ele><time>2026-04-19T07:54:20Z</time></trkpt><trkpt lat="45.79403210309715" lon="8.970125755640044"><ele>391.0</ele><time>2026-04-19T07:54:21Z</time></trkpt><trkpt lat="45.793897348336195" lon="8.970008605928948"><ele>391.0</ele><time>2026-04-19T07:54:22Z</time></trkpt><trkpt lat="45.79378617801022" lon="8.969887662333116"><ele>391.0</ele><time>2026-04-19T07:54:23Z</time></trkpt><trkpt lat="45.79369189014774" lon="8.969785180176002"><ele>391.0</ele><time>2026-04-19T07:54:24Z</time></trkpt><trkpt lat="45.7936086395332" lon="8.969691170169236"><ele>391.0</ele><time>2026-04-19T07:54:25Z</time></trkpt><trkpt lat="45.79353787371125" lon="8.969624487796963"><ele>391.0</ele><time>2026-04-19T07:54:26Z</time></trkpt><trkpt lat="45.793460258992276" lon="8.969545956867464"><ele>391.0</ele><time>2026-04-19T07:54:28Z</time></trkpt><trkpt lat="45.793351856811526" lon="8.969456324945455"><ele>391.0</ele><time>2026-04-19T07:54:29.999Z</time></trkpt><trkpt lat="45.79328211813159" lon="8.969387218195992"><ele>391.0</ele><time>2026-04-19T07:54:30.999Z</time></trkpt><trkpt lat="45.793210388752286" lon="8.969313881286626"><ele>391.20000000000005</ele><time>2026-04-19T07:54:31.999Z</time></trkpt><trkpt lat="45.79313532971574" lon="8.969233764404688"><ele>391.40000000000003</ele><time>2026-04-19T07:54:32.999Z</time></trkpt><trkpt lat="45.793050153434166" lon="8.96914950916077"><ele>391.6</ele><time>2026-04-19T07:54:33.999Z</time></trkpt><trkpt lat="45.792950641991524" lon="8.969050439575765"><ele>391.8</ele><time>2026-04-19T07:54:34.999Z</time></trkpt><trkpt lat="45.79284711333964" lon="8.968951304882887"><ele>392.0</ele><time>2026-04-19T07:54:35.999Z</time></trkpt><trkpt lat="45.7927405953927" lon="8.968850958038502"><ele>391.75</ele><time>2026-04-19T07:54:36.999Z</time></trkpt><trkpt lat="45.79263417417275" lon="8.968745790415399"><ele>391.5</ele><time>2026-04-19T07:54:37.999Z</time></trkpt><trkpt lat="45.79252905077193" lon="8.968636847412961"><ele>391.25</ele><time>2026-04-19T07:54:38.999Z</time></trkpt><trkpt lat="45.79241592231576" lon="8.96852021758561"><ele>391.0</ele><time>2026-04-19T07:54:39.999Z</time></trkpt><trkpt lat="45.79229367745265" lon="8.968404255053409"><ele>391.0</ele><time>2026-04-19T07:54:40.999Z</time></trkpt><trkpt lat="45.79216913151178" lon="8.968283387655159"><ele>391.0</ele><time>2026-04-19T07:54:41.999Z</time></trkpt><trkpt lat="45.79204193206975" lon="8.968164957554881"><ele>391.0</ele><time>2026-04-19T07:54:42.999Z</time></trkpt><trkpt lat="45.79191518155043" lon="8.968035884447868"><ele>391.0</ele><time>2026-04-19T07:54:43.999Z</time></trkpt><trkpt lat="45.7917898211079" lon="8.967909430677734"><ele>391.0</ele><time>2026-04-19T07:54:44.999Z</time></trkpt><trkpt lat="45.79167046987421" lon="8.967790775400426"><ele>391.0</ele><time>2026-04-19T07:54:45.999Z</time></trkpt><trkpt lat="45.79155303099491" lon="8.967682492505105"><ele>391.0</ele><time>2026-04-19T07:54:46.999Z</time></trkpt><trkpt lat="45.791435337704485" lon="8.9675658280039"><ele>391.0</ele><time>2026-04-19T07:54:47.999Z</time></trkpt><trkpt lat="45.791312921810956" lon="8.96745568815113"><ele>391.0</ele><time>2026-04-19T07:54:48.999Z</time></trkpt><trkpt lat="45.79118858303942" lon="8.967349055531397"><ele>391.0</ele><time>2026-04-19T07:54:49.999Z</time></trkpt><trkpt lat="45.79106833847447" lon="8.967242178693322"><ele>391.0</ele><time>2026-04-19T07:54:50.999Z</time></trkpt><trkpt lat="45.79094984455224" lon="8.967131564204562"><ele>391.0</ele><time>2026-04-19T07:54:51.999Z</time></trkpt><trkpt lat="45.790811310246454" lon="8.967087721272149"><ele>391.0</ele><time>2026-04-19T07:54:52.999Z</time></trkpt><trkpt lat="45.790673543725326" lon="8.967082849685845"><ele>391.0</ele><time>2026-04-19T07:54:53.999Z</time></trkpt><trkpt lat="45.790531952189205" lon="8.967119150262214"><ele>391.0</ele><time>2026-04-19T07:54:54.999Z</time></trkpt><trkpt lat="45.79038868069246" lon="8.96718396841476"><ele>391.0</ele><time>2026-04-19T07:54:55.999Z</time></trkpt><trkpt lat="45.79024980266671" lon="8.967250655319443"><ele>391.0</ele><time>2026-04-19T07:54:56.999Z</time></trkpt><trkpt lat="45.79011204228992" lon="8.967312153632085"><ele>391.0</ele><time>2026-04-19T07:54:57.999Z</time></trkpt><trkpt lat="45.78997175437251" lon="8.967354782464705"><ele>391.0</ele><time>2026-04-19T07:54:58.999Z</time></trkpt><trkpt lat="45.78984170826458" lon="8.96743545021675"><ele>391.75</ele><time>2026-04-19T07:54:59.999Z</time></trkpt><trkpt lat="45.789704309303126" lon="8.967490833814194"><ele>392.5</ele><time>2026-04-19T07:55:00.999Z</time></trkpt><trkpt lat="45.78957396902328" lon="8.967550768455974"><ele>393.25</ele><time>2026-04-19T07:55:01.999Z</time></trkpt><trkpt lat="45.78943877867694" lon="8.967613676743541"><ele>394.0</ele><time>2026-04-19T07:55:02.999Z</time></trkpt><trkpt lat="45.78930648759137" lon="8.967671868534458"><ele>395.75</ele><time>2026-04-19T07:55:03.999Z</time></trkpt><trkpt lat="45.78917400299081" lon="8.967726864771933"><ele>397.5</ele><time>2026-04-19T07:55:04.999Z</time></trkpt><trkpt lat="45.78904807928285" lon="8.967785922874745"><ele>399.25</ele><time>2026-04-19T07:55:05.999Z</time></trkpt><trkpt lat="45.78892392541554" lon="8.967846863851365"><ele>401.0</ele><time>2026-04-19T07:55:06.999Z</time></trkpt><trkpt lat="45.788801212212576" lon="8.96788916155683"><ele>401.0</ele><time>2026-04-19T07:55:07.999Z</time></trkpt><trkpt lat="45.78866892490119" lon="8.967917208399038"><ele>401.0</ele><time>2026-04-19T07:55:08.999Z</time></trkpt><trkpt lat="45.788534332327025" lon="8.967917963395474"><ele>401.0</ele><time>2026-04-19T07:55:09.999Z</time></trkpt><trkpt lat="45.78840889544337" lon="8.967867265053844"><ele>401.0</ele><time>2026-04-19T07:55:10.999Z</time></trkpt><trkpt lat="45.78829766608851" lon="8.96785608699983"><ele>402.4</ele><time>2026-04-19T07:55:11.999Z</time></trkpt><trkpt lat="45.78819077868045" lon="8.967810178749385"><ele>403.8</ele><time>2026-04-19T07:55:12.999Z</time></trkpt><trkpt lat="45.78808514114278" lon="8.96778371428651"><ele>405.2</ele><time>2026-04-19T07:55:13.999Z</time></trkpt><trkpt lat="45.78797787967319" lon="8.967753436148854"><ele>406.59999999999997</ele><time>2026-04-19T07:55:14.999Z</time></trkpt><trkpt lat="45.78786471548984" lon="8.967699801925063"><ele>408.0</ele><time>2026-04-19T07:55:15.999Z</time></trkpt><trkpt lat="45.78775095831709" lon="8.967664650470246"><ele>408.5</ele><time>2026-04-19T07:55:16.999Z</time></trkpt><trkpt lat="45.78766253608005" lon="8.96763776874594"><ele>409.0</ele><time>2026-04-19T07:55:17.999Z</time></trkpt><trkpt lat="45.787585541096526" lon="8.967614360998212"><ele>409.5</ele><time>2026-04-19T07:55:18.999Z</time></trkpt><trkpt lat="45.787509172663" lon="8.96759114377114"><ele>410.0</ele><time>2026-04-19T07:55:19.999Z</time></trkpt><trkpt lat="45.78738944238122" lon="8.967554470017616"><ele>410.5</ele><time>2026-04-19T07:55:21.999Z</time></trkpt><trkpt lat="45.787325073027105" lon="8.967534426279752"><ele>411.0</ele><time>2026-04-19T07:55:22.999Z</time></trkpt><trkpt lat="45.78725502938312" lon="8.967532344109529"><ele>411.1666666666667</ele><time>2026-04-19T07:55:23.999Z</time></trkpt><trkpt lat="45.78718381887813" lon="8.96750092678082"><ele>411.33333333333337</ele><time>2026-04-19T07:55:24.999Z</time></trkpt><trkpt lat="45.78711385637883" lon="8.967474496905105"><ele>411.5</ele><time>2026-04-19T07:55:25.999Z</time></trkpt><trkpt lat="45.787039260879986" lon="8.967447985291912"><ele>411.6666666666667</ele><time>2026-04-19T07:55:26.999Z</time></trkpt><trkpt lat="45.786953972104776" lon="8.96742546490484"><ele>411.83333333333337</ele><time>2026-04-19T07:55:27.999Z</time></trkpt><trkpt lat="45.78686518996728" lon="8.96740490574135"><ele>412.0</ele><time>2026-04-19T07:55:28.999Z</time></trkpt><trkpt lat="45.78677068043037" lon="8.967378363832124"><ele>412.00000000000006</ele><time>2026-04-19T07:55:29.999Z</time></trkpt><trkpt lat="45.78668630966208" lon="8.967348291227493"><ele>412.0</ele><time>2026-04-19T07:55:30.999Z</time></trkpt><trkpt lat="45.786613092101526" lon="8.967333822378306"><ele>412.0</ele><time>2026-04-19T07:55:31.999Z</time></trkpt><trkpt lat="45.78653444094594" lon="8.967313428183347"><ele>412.0</ele><time>2026-04-19T07:55:32.999Z</time></trkpt><trkpt lat="45.78644846354798" lon="8.967269039149214"><ele>412.00000000000006</ele><time>2026-04-19T07:55:33.999Z</time></trkpt><trkpt lat="45.786352119605354" lon="8.967245559499595"><ele>412.0</ele><time>2026-04-19T07:55:35Z</time></trkpt><trkpt lat="45.786273455022595" lon="8.967218669231361"><ele>412.0</ele><time>2026-04-19T07:55:36Z</time></trkpt><trkpt lat="45.786193782016966" lon="8.96720993362525"><ele>412.0</ele><time>2026-04-19T07:55:37Z</time></trkpt><trkpt lat="45.78612758537584" lon="8.967177172125076"><ele>412.0</ele><time>2026-04-19T07:55:38Z</time></trkpt><trkpt lat="45.786033899358436" lon="8.967082581081272"><ele>412.0</ele><time>2026-04-19T07:55:40Z</time></trkpt><trkpt lat="45.78595736139915" lon="8.967015773133104"><ele>412.0</ele><time>2026-04-19T07:55:42Z</time></trkpt><trkpt lat="45.78584093560541" lon="8.96713118686367"><ele>411.6666666666667</ele><time>2026-04-19T07:55:44Z</time></trkpt><trkpt lat="45.78575666614325" lon="8.967125778955124"><ele>411.33333333333337</ele><time>2026-04-19T07:55:45Z</time></trkpt><trkpt lat="45.785674206908496" lon="8.967131568108117"><ele>411.0</ele><time>2026-04-19T07:55:46Z</time></trkpt><trkpt lat="45.78560651622872" lon="8.96713130890327"><ele>410.66666666666663</ele><time>2026-04-19T07:55:47Z</time></trkpt><trkpt lat="45.78552864225177" lon="8.967130319881841"><ele>410.3333333333333</ele><time>2026-04-19T07:55:48Z</time></trkpt><trkpt lat="45.785409397789294" lon="8.967115955819645"><ele>410.0</ele><time>2026-04-19T07:55:50Z</time></trkpt><trkpt lat="45.785346170151094" lon="8.96709422668258"><ele>409.99999999999994</ele><time>2026-04-19T07:55:51Z</time></trkpt><trkpt lat="45.785283045672884" lon="8.967085107453999"><ele>410.0</ele><time>2026-04-19T07:55:52Z</time></trkpt><trkpt lat="45.78520081675491" lon="8.967070253607574"><ele>410.0</ele><time>2026-04-19T07:55:53Z</time></trkpt><trkpt lat="45.785108407733205" lon="8.967053669936384"><ele>410.0</ele><time>2026-04-19T07:55:54Z</time></trkpt><trkpt lat="45.78503680902174" lon="8.96698452589394"><ele>409.99999999999994</ele><time>2026-04-19T07:55:55Z</time></trkpt><trkpt lat="45.78494258033689" lon="8.96700545739808"><ele>410.0</ele><time>2026-04-19T07:55:56Z</time></trkpt><trkpt lat="45.78486283440044" lon="8.966993257024798"><ele>409.8</ele><time>2026-04-19T07:55:57Z</time></trkpt><trkpt lat="45.78477240695509" lon="8.966985915082768"><ele>409.6</ele><time>2026-04-19T07:55:58Z</time></trkpt><trkpt lat="45.78468415901396" lon="8.966962955089006"><ele>409.4</ele><time>2026-04-19T07:55:59Z</time></trkpt><trkpt lat="45.78458159271205" lon="8.966947637819912"><ele>409.2</ele><time>2026-04-19T07:56:00Z</time></trkpt><trkpt lat="45.784480864788044" lon="8.966929080210225"><ele>409.0</ele><time>2026-04-19T07:56:01Z</time></trkpt><trkpt lat="45.78439129618642" lon="8.96690328219642"><ele>408.50000000000006</ele><time>2026-04-19T07:56:02Z</time></trkpt><trkpt lat="45.784311364561866" lon="8.966890530108325"><ele>408.0</ele><time>2026-04-19T07:56:03Z</time></trkpt><trkpt lat="45.78424702385486" lon="8.966884525226842"><ele>407.5</ele><time>2026-04-19T07:56:04Z</time></trkpt><trkpt lat="45.78416070329522" lon="8.966872460470398"><ele>407.0</ele><time>2026-04-19T07:56:06Z</time></trkpt><trkpt lat="45.78409458427566" lon="8.966868100618244"><ele>406.50000000000006</ele><time>2026-04-19T07:56:10Z</time></trkpt><trkpt lat="45.78399843993448" lon="8.966829677149224"><ele>406.0</ele><time>2026-04-19T07:56:36.999Z</time></trkpt><trkpt lat="45.78388938280926" lon="8.966803992045289"><ele>406.0</ele><time>2026-04-19T07:56:38.999Z</time></trkpt><trkpt lat="45.78378147189917" lon="8.966777692019033"><ele>406.0</ele><time>2026-04-19T07:56:40.999Z</time></trkpt><trkpt lat="45.783686909031715" lon="8.966754644050527"><ele>406.0</ele><time>2026-04-19T07:56:42.999Z</time></trkpt><trkpt lat="45.78363997793812" lon="8.967046272038306"><ele>406.0</ele><time>2026-04-19T07:56:43.999Z</time></trkpt><trkpt lat="45.783632058972664" lon="8.96716757084882"><ele>406.0</ele><time>2026-04-19T07:56:44.999Z</time></trkpt><trkpt lat="45.78361719049646" lon="8.967325278775292"><ele>406.0</ele><time>2026-04-19T07:56:45.999Z</time></trkpt><trkpt lat="45.783596604579" lon="8.967456904979949"><ele>406.0</ele><time>2026-04-19T07:56:46.999Z</time></trkpt><trkpt lat="45.783569550556365" lon="8.96759156723011"><ele>406.0</ele><time>2026-04-19T07:56:47.999Z</time></trkpt><trkpt lat="45.78355276193606" lon="8.967720997101566"><ele>406.0</ele><time>2026-04-19T07:56:48.999Z</time></trkpt><trkpt lat="45.783532489676" lon="8.967850802325444"><ele>406.2857142857143</ele><time>2026-04-19T07:56:49.999Z</time></trkpt><trkpt lat="45.78350352295755" lon="8.967969335439827"><ele>406.57142857142856</ele><time>2026-04-19T07:56:50.999Z</time></trkpt><trkpt lat="45.78349231058494" lon="8.968077744096448"><ele>406.8571428571429</ele><time>2026-04-19T07:56:51.999Z</time></trkpt><trkpt lat="45.783482553894785" lon="8.968179230071502"><ele>407.1428571428571</ele><time>2026-04-19T07:56:52.999Z</time></trkpt><trkpt lat="45.78346863850832" lon="8.968277214527161"><ele>407.42857142857144</ele><time>2026-04-19T07:56:53.999Z</time></trkpt><trkpt lat="45.783436638789716" lon="8.968366176735058"><ele>407.7142857142857</ele><time>2026-04-19T07:56:54.999Z</time></trkpt><trkpt lat="45.78339566238575" lon="8.968450357033486"><ele>408.0</ele><time>2026-04-19T07:56:55.999Z</time></trkpt><trkpt lat="45.783388803615146" lon="8.968566800608423"><ele>408.0</ele><time>2026-04-19T07:56:56.999Z</time></trkpt><trkpt lat="45.783385231902564" lon="8.968680374776481"><ele>408.0</ele><time>2026-04-19T07:56:57.999Z</time></trkpt><trkpt lat="45.78336773066452" lon="8.968782804675165"><ele>408.0</ele><time>2026-04-19T07:56:59.999Z</time></trkpt><trkpt lat="45.783346698664396" lon="8.968905896573808"><ele>408.0</ele><time>2026-04-19T07:57:02.999Z</time></trkpt><trkpt lat="45.783333251722645" lon="8.969009021530336"><ele>408.0</ele><time>2026-04-19T07:57:04.999Z</time></trkpt><trkpt lat="45.78332334765064" lon="8.969147929919206"><ele>408.0</ele><time>2026-04-19T07:57:07.999Z</time></trkpt><trkpt lat="45.78332011649443" lon="8.969267971043879"><ele>408.0</ele><time>2026-04-19T07:57:09.999Z</time></trkpt><trkpt lat="45.78331721916056" lon="8.969417495770365"><ele>408.0</ele><time>2026-04-19T07:57:11.999Z</time></trkpt><trkpt lat="45.78331486733877" lon="8.969569324496122"><ele>408.0</ele><time>2026-04-19T07:57:13.999Z</time></trkpt><trkpt lat="45.78331133334784" lon="8.969745866966383"><ele>408.0</ele><time>2026-04-19T07:57:15.999Z</time></trkpt><trkpt lat="45.78330700898002" lon="8.969896700780186"><ele>408.0</ele><time>2026-04-19T07:57:17.999Z</time></trkpt><trkpt lat="45.78330229561759" lon="8.970023819518184"><ele>407.3333333333333</ele><time>2026-04-19T07:57:19.999Z</time></trkpt><trkpt lat="45.783298404050605" lon="8.970129380903668"><ele>406.66666666666663</ele><time>2026-04-19T07:57:21.999Z</time></trkpt><trkpt lat="45.78328744999885" lon="8.970249940755386"><ele>406.0</ele><time>2026-04-19T07:57:24.999Z</time></trkpt><trkpt lat="45.78327182302426" lon="8.970338978310032"><ele>405.3333333333333</ele><time>2026-04-19T07:57:26.999Z</time></trkpt><trkpt lat="45.78325225957232" lon="8.970433506373244"><ele>404.66666666666663</ele><time>2026-04-19T07:57:28.999Z</time></trkpt><trkpt lat="45.783231476648936" lon="8.97056165251395"><ele>404.0</ele><time>2026-04-19T07:57:30.999Z</time></trkpt><trkpt lat="45.78321815584661" lon="8.970682469751456"><ele>403.99999999999994</ele><time>2026-04-19T07:57:32.999Z</time></trkpt><trkpt lat="45.783209775226034" lon="8.970815881993785"><ele>404.0</ele><time>2026-04-19T07:57:34.999Z</time></trkpt><trkpt lat="45.7832105564553" lon="8.970907155879402"><ele>404.0</ele><time>2026-04-19T07:57:36.999Z</time></trkpt><trkpt lat="45.78321173904476" lon="8.971017044000922"><ele>404.0</ele><time>2026-04-19T07:57:39.999Z</time></trkpt><trkpt lat="45.78321489481678" lon="8.971133849752963"><ele>403.99999999999994</ele><time>2026-04-19T07:57:44Z</time></trkpt><trkpt lat="45.78321599545593" lon="8.9712652798615"><ele>404.0</ele><time>2026-04-19T07:57:46Z</time></trkpt><trkpt lat="45.78319003140819" lon="8.971433819171795"><ele>403.8333333333333</ele><time>2026-04-19T07:57:48Z</time></trkpt><trkpt lat="45.78316983660043" lon="8.971522259742253"><ele>403.66666666666663</ele><time>2026-04-19T07:57:49Z</time></trkpt><trkpt lat="45.78314313006386" lon="8.971614015213488"><ele>403.5</ele><time>2026-04-19T07:57:50Z</time></trkpt><trkpt lat="45.78310870392873" lon="8.971736075129614"><ele>403.33333333333337</ele><time>2026-04-19T07:57:51Z</time></trkpt><trkpt lat="45.78307978388819" lon="8.97186571900464"><ele>403.1666666666667</ele><time>2026-04-19T07:57:52Z</time></trkpt><trkpt lat="45.78302860684723" lon="8.9719967108077"><ele>403.0</ele><time>2026-04-19T07:57:53Z</time></trkpt><trkpt lat="45.78300016447155" lon="8.972113663427395"><ele>403.0</ele><time>2026-04-19T07:57:54Z</time></trkpt><trkpt lat="45.782973433660246" lon="8.972220798000865"><ele>403.0</ele><time>2026-04-19T07:57:55Z</time></trkpt><trkpt lat="45.78293730337034" lon="8.972340259963053"><ele>403.0</ele><time>2026-04-19T07:57:56Z</time></trkpt><trkpt lat="45.78289948644884" lon="8.972462503906247"><ele>403.0</ele><time>2026-04-19T07:57:57Z</time></trkpt><trkpt lat="45.782828608242696" lon="8.972547976682876"><ele>403.0</ele><time>2026-04-19T07:57:58Z</time></trkpt><trkpt lat="45.78274796199185" lon="8.972632182306514"><ele>403.75</ele><time>2026-04-19T07:57:59Z</time></trkpt><trkpt lat="45.78265393567787" lon="8.972695366495621"><ele>404.5</ele><time>2026-04-19T07:58:00Z</time></trkpt><trkpt lat="45.78254529790889" lon="8.972736410267334"><ele>405.25</ele><time>2026-04-19T07:58:01Z</time></trkpt><trkpt lat="45.78243619413873" lon="8.97281780372962"><ele>406.0</ele><time>2026-04-19T07:58:02Z</time></trkpt><trkpt lat="45.78232392391422" lon="8.972838066211457"><ele>406.0</ele><time>2026-04-19T07:58:03Z</time></trkpt><trkpt lat="45.78219943506583" lon="8.97291740837083"><ele>406.0</ele><time>2026-04-19T07:58:04Z</time></trkpt><trkpt lat="45.78206252037222" lon="8.973007235431414"><ele>406.0</ele><time>2026-04-19T07:58:05Z</time></trkpt><trkpt lat="45.78192013231321" lon="8.973098044772543"><ele>406.0</ele><time>2026-04-19T07:58:06Z</time></trkpt><trkpt lat="45.7817613174971" lon="8.973185250004203"><ele>406.25</ele><time>2026-04-19T07:58:07Z</time></trkpt><trkpt lat="45.781615064942095" lon="8.973258768034958"><ele>406.5</ele><time>2026-04-19T07:58:08Z</time></trkpt><trkpt lat="45.78148803154905" lon="8.973334686343444"><ele>406.75</ele><time>2026-04-19T07:58:09Z</time></trkpt><trkpt lat="45.7813664937288" lon="8.973406901478134"><ele>407.0</ele><time>2026-04-19T07:58:10Z</time></trkpt><trkpt lat="45.78124116084475" lon="8.97348747169908"><ele>407.25</ele><time>2026-04-19T07:58:11Z</time></trkpt><trkpt lat="45.78112554357099" lon="8.973562188063156"><ele>407.5</ele><time>2026-04-19T07:58:12Z</time></trkpt><trkpt lat="45.78101034620053" lon="8.97362221285528"><ele>407.75</ele><time>2026-04-19T07:58:13Z</time></trkpt><trkpt lat="45.78088879568369" lon="8.973674052267558"><ele>408.0</ele><time>2026-04-19T07:58:14Z</time></trkpt><trkpt lat="45.78076900930593" lon="8.97374212959794"><ele>408.0</ele><time>2026-04-19T07:58:15Z</time></trkpt><trkpt lat="45.78065413387076" lon="8.973807295991431"><ele>408.0</ele><time>2026-04-19T07:58:16Z</time></trkpt><trkpt lat="45.78053780319501" lon="8.973873287898474"><ele>408.0</ele><time>2026-04-19T07:58:17Z</time></trkpt><trkpt lat="45.780422775737655" lon="8.973938459906254"><ele>408.0</ele><time>2026-04-19T07:58:18Z</time></trkpt><trkpt lat="45.78030521191131" lon="8.9740052437789"><ele>408.0</ele><time>2026-04-19T07:58:19Z</time></trkpt><trkpt lat="45.7801878847821" lon="8.97407215207093"><ele>408.0</ele><time>2026-04-19T07:58:20Z</time></trkpt><trkpt lat="45.78008035807729" lon="8.974157603565246"><ele>408.0</ele><time>2026-04-19T07:58:21Z</time></trkpt><trkpt lat="45.77996826420382" lon="8.974229395886509"><ele>408.0</ele><time>2026-04-19T07:58:22Z</time></trkpt><trkpt lat="45.779858267439565" lon="8.974292685915344"><ele>408.2</ele><time>2026-04-19T07:58:23Z</time></trkpt><trkpt lat="45.77975185437864" lon="8.97435306645123"><ele>408.4</ele><time>2026-04-19T07:58:24Z</time></trkpt><trkpt lat="45.77963946366791" lon="8.974414307818035"><ele>408.59999999999997</ele><time>2026-04-19T07:58:25Z</time></trkpt><trkpt lat="45.779541741355565" lon="8.974475083030454"><ele>408.79999999999995</ele><time>2026-04-19T07:58:26Z</time></trkpt><trkpt lat="45.7794439241612" lon="8.974525104809716"><ele>409.0</ele><time>2026-04-19T07:58:27Z</time></trkpt><trkpt lat="45.779344452183494" lon="8.974577991788316"><ele>409.2</ele><time>2026-04-19T07:58:28Z</time></trkpt><trkpt lat="45.77924809005428" lon="8.974633172159082"><ele>409.4</ele><time>2026-04-19T07:58:29Z</time></trkpt><trkpt lat="45.77915510785651" lon="8.974692397223906"><ele>409.6</ele><time>2026-04-19T07:58:30Z</time></trkpt><trkpt lat="45.779039099647285" lon="8.974765132201295"><ele>409.8</ele><time>2026-04-19T07:58:31Z</time></trkpt><trkpt lat="45.778954613365684" lon="8.974793413327601"><ele>410.0</ele><time>2026-04-19T07:58:32Z</time></trkpt><trkpt lat="45.77886078617421" lon="8.97483789798598"><ele>410.0</ele><time>2026-04-19T07:58:33Z</time></trkpt><trkpt lat="45.778760994189525" lon="8.974883985594126"><ele>410.0</ele><time>2026-04-19T07:58:34Z</time></trkpt><trkpt lat="45.77865767669799" lon="8.974945177766054"><ele>410.0</ele><time>2026-04-19T07:58:35Z</time></trkpt><trkpt lat="45.778567524651805" lon="8.975042845318605"><ele>410.0</ele><time>2026-04-19T07:58:36Z</time></trkpt><trkpt lat="45.7784828883846" lon="8.975179352596063"><ele>409.6</ele><time>2026-04-19T07:58:37Z</time></trkpt><trkpt lat="45.77840835310796" lon="8.975252652422594"><ele>409.2</ele><time>2026-04-19T07:58:38Z</time></trkpt><trkpt lat="45.778337208122046" lon="8.97527241311573"><ele>408.79999999999995</ele><time>2026-04-19T07:58:40Z</time></trkpt><trkpt lat="45.77827368751531" lon="8.975356887999537"><ele>408.4</ele><time>2026-04-19T07:59:08.999Z</time></trkpt><trkpt lat="45.77817630846316" lon="8.975486390831758"><ele>408.0</ele><time>2026-04-19T07:59:10.999Z</time></trkpt><trkpt lat="45.778116763203386" lon="8.975566780744616"><ele>408.0</ele><time>2026-04-19T07:59:11.999Z</time></trkpt><trkpt lat="45.77805316539071" lon="8.97565246476293"><ele>408.0</ele><time>2026-04-19T07:59:12.999Z</time></trkpt><trkpt lat="45.77798298952559" lon="8.97574997315947"><ele>408.0</ele><time>2026-04-19T07:59:13.999Z</time></trkpt><trkpt lat="45.77791018546853" lon="8.975849841735018"><ele>408.0</ele><time>2026-04-19T07:59:14.999Z</time></trkpt><trkpt lat="45.777838445549236" lon="8.975975530445076"><ele>408.0</ele><time>2026-04-19T07:59:15.999Z</time></trkpt><trkpt lat="45.777749739186" lon="8.976065137002566"><ele>407.5</ele><time>2026-04-19T07:59:16.999Z</time></trkpt><trkpt lat="45.77765597290843" lon="8.97615728354599"><ele>407.0</ele><time>2026-04-19T07:59:17.999Z</time></trkpt><trkpt lat="45.777555385606135" lon="8.97625341902052"><ele>406.5</ele><time>2026-04-19T07:59:18.999Z</time></trkpt><trkpt lat="45.77746300016911" lon="8.976393580994607"><ele>406.0</ele><time>2026-04-19T07:59:19.999Z</time></trkpt><trkpt lat="45.77739397808506" lon="8.976525552924922"><ele>406.0</ele><time>2026-04-19T07:59:20.999Z</time></trkpt><trkpt lat="45.777316795681" lon="8.976660532642633"><ele>406.0</ele><time>2026-04-19T07:59:21.999Z</time></trkpt><trkpt lat="45.777218559851825" lon="8.976797225036018"><ele>406.0</ele><time>2026-04-19T07:59:22.999Z</time></trkpt><trkpt lat="45.77712682396889" lon="8.976928229335714"><ele>406.0</ele><time>2026-04-19T07:59:23.999Z</time></trkpt><trkpt lat="45.77703407149117" lon="8.977047089779093"><ele>406.0</ele><time>2026-04-19T07:59:24.999Z</time></trkpt><trkpt lat="45.776936339084195" lon="8.977163699244826"><ele>406.0</ele><time>2026-04-19T07:59:25.999Z</time></trkpt><trkpt lat="45.77685402193263" lon="8.977280746125437"><ele>406.0</ele><time>2026-04-19T07:59:26.999Z</time></trkpt><trkpt lat="45.77676204123841" lon="8.97741022747762"><ele>406.0</ele><time>2026-04-19T07:59:27.999Z</time></trkpt><trkpt lat="45.77667994574714" lon="8.977529785528207"><ele>405.75</ele><time>2026-04-19T07:59:28.999Z</time></trkpt><trkpt lat="45.77658661610777" lon="8.977650364748072"><ele>405.5</ele><time>2026-04-19T07:59:29.999Z</time></trkpt><trkpt lat="45.77648803778855" lon="8.977781796215647"><ele>405.25</ele><time>2026-04-19T07:59:30.999Z</time></trkpt><trkpt lat="45.776388666228364" lon="8.977909333849112"><ele>405.0</ele><time>2026-04-19T07:59:31.999Z</time></trkpt><trkpt lat="45.776289661733784" lon="8.978040238889301"><ele>405.0</ele><time>2026-04-19T07:59:32.999Z</time></trkpt><trkpt lat="45.77618896680572" lon="8.978176714029402"><ele>405.0</ele><time>2026-04-19T07:59:33.999Z</time></trkpt><trkpt lat="45.77609335704202" lon="8.978307238373171"><ele>405.0</ele><time>2026-04-19T07:59:34.999Z</time></trkpt><trkpt lat="45.77599974826734" lon="8.978437102983232"><ele>405.0</ele><time>2026-04-19T07:59:35.999Z</time></trkpt><trkpt lat="45.775906032187784" lon="8.978570531866142"><ele>403.5</ele><time>2026-04-19T07:59:36.999Z</time></trkpt><trkpt lat="45.77580454914016" lon="8.978704002013549"><ele>402.0</ele><time>2026-04-19T07:59:37.999Z</time></trkpt><trkpt lat="45.77570093333591" lon="8.97884010102147"><ele>400.5</ele><time>2026-04-19T07:59:38.999Z</time></trkpt><trkpt lat="45.77559431760265" lon="8.97897455292165"><ele>399.0</ele><time>2026-04-19T07:59:39.999Z</time></trkpt><trkpt lat="45.77548518603527" lon="8.979112677221975"><ele>398.5</ele><time>2026-04-19T07:59:40.999Z</time></trkpt><trkpt lat="45.775374926599106" lon="8.979250129915663"><ele>398.0</ele><time>2026-04-19T07:59:41.999Z</time></trkpt><trkpt lat="45.77526877982531" lon="8.979376342306548"><ele>397.5</ele><time>2026-04-19T07:59:42.999Z</time></trkpt><trkpt lat="45.77516815222215" lon="8.979502023390657"><ele>397.0</ele><time>2026-04-19T07:59:43.999Z</time></trkpt><trkpt lat="45.7750677123004" lon="8.97962874591628"><ele>396.75</ele><time>2026-04-19T07:59:44.999Z</time></trkpt><trkpt lat="45.77494863388343" lon="8.979746964819489"><ele>396.5</ele><time>2026-04-19T07:59:45.999Z</time></trkpt><trkpt lat="45.774843144176025" lon="8.979876414087768"><ele>396.25</ele><time>2026-04-19T07:59:47Z</time></trkpt><trkpt lat="45.77474383222598" lon="8.980028256149682"><ele>396.0</ele><time>2026-04-19T07:59:48Z</time></trkpt><trkpt lat="45.774631719917686" lon="8.980159648906298"><ele>395.0</ele><time>2026-04-19T07:59:49Z</time></trkpt><trkpt lat="45.77452599727342" lon="8.980293645026078"><ele>394.0</ele><time>2026-04-19T07:59:50Z</time></trkpt><trkpt lat="45.77441185929463" lon="8.980402550994285"><ele>393.0</ele><time>2026-04-19T07:59:51Z</time></trkpt><trkpt lat="45.774307598459956" lon="8.98052907117975"><ele>392.0</ele><time>2026-04-19T07:59:52Z</time></trkpt><trkpt lat="45.774208796050736" lon="8.9806757668316"><ele>391.25</ele><time>2026-04-19T07:59:53Z</time></trkpt><trkpt lat="45.774099219809465" lon="8.980782197254749"><ele>390.5</ele><time>2026-04-19T07:59:54Z</time></trkpt><trkpt lat="45.77400055503004" lon="8.98090300705155"><ele>389.75</ele><time>2026-04-19T07:59:55Z</time></trkpt><trkpt lat="45.77390694710606" lon="8.98103336732057"><ele>389.0</ele><time>2026-04-19T07:59:56Z</time></trkpt><trkpt lat="45.77380483768524" lon="8.981150021582106"><ele>388.25</ele><time>2026-04-19T07:59:57Z</time></trkpt><trkpt lat="45.77369275839667" lon="8.981285523461176"><ele>387.5</ele><time>2026-04-19T07:59:58Z</time></trkpt><trkpt lat="45.773592332894964" lon="8.981402401548651"><ele>386.75</ele><time>2026-04-19T07:59:59Z</time></trkpt><trkpt lat="45.773493331961845" lon="8.981525830503074"><ele>386.0</ele><time>2026-04-19T08:00:00Z</time></trkpt><trkpt lat="45.7733901201535" lon="8.981656674671717"><ele>383.75</ele><time>2026-04-19T08:00:01Z</time></trkpt><trkpt lat="45.773279212948694" lon="8.981792665773996"><ele>381.5</ele><time>2026-04-19T08:00:02Z</time></trkpt><trkpt lat="45.77316267492789" lon="8.981931561337923"><ele>379.25</ele><time>2026-04-19T08:00:03Z</time></trkpt><trkpt lat="45.77305516147872" lon="8.982071648607455"><ele>377.0</ele><time>2026-04-19T08:00:04Z</time></trkpt><trkpt lat="45.77295104639008" lon="8.982205071036658"><ele>377.0</ele><time>2026-04-19T08:00:05Z</time></trkpt><trkpt lat="45.77283912970493" lon="8.98233309437516"><ele>377.0</ele><time>2026-04-19T08:00:06Z</time></trkpt><trkpt lat="45.772729706326935" lon="8.982466531302792"><ele>377.0</ele><time>2026-04-19T08:00:07Z</time></trkpt><trkpt lat="45.77262422321322" lon="8.982596338130406"><ele>377.0</ele><time>2026-04-19T08:00:08Z</time></trkpt><trkpt lat="45.77252194130236" lon="8.98272638630062"><ele>375.75</ele><time>2026-04-19T08:00:09Z</time></trkpt><trkpt lat="45.77241954451716" lon="8.982851604702011"><ele>374.5</ele><time>2026-04-19T08:00:10Z</time></trkpt><trkpt lat="45.77231599614074" lon="8.98297636396551"><ele>373.25</ele><time>2026-04-19T08:00:11Z</time></trkpt><trkpt lat="45.77220776004824" lon="8.983110860614824"><ele>372.0</ele><time>2026-04-19T08:00:12Z</time></trkpt><trkpt lat="45.77210423211357" lon="8.983229552435475"><ele>372.25</ele><time>2026-04-19T08:00:13Z</time></trkpt><trkpt lat="45.772008148243124" lon="8.983359829722392"><ele>372.5</ele><time>2026-04-19T08:00:14Z</time></trkpt><trkpt lat="45.77190660743864" lon="8.983475359987624"><ele>372.75</ele><time>2026-04-19T08:00:15Z</time></trkpt><trkpt lat="45.77180406545654" lon="8.983603635415552"><ele>373.0</ele><time>2026-04-19T08:00:16Z</time></trkpt><trkpt lat="45.77169851955327" lon="8.983723715004482"><ele>371.5</ele><time>2026-04-19T08:00:17Z</time></trkpt><trkpt lat="45.77159190541183" lon="8.983825277836988"><ele>370.0</ele><time>2026-04-19T08:00:18Z</time></trkpt><trkpt lat="45.771477512967195" lon="8.98390598788315"><ele>368.5</ele><time>2026-04-19T08:00:19Z</time></trkpt><trkpt lat="45.7713725587568" lon="8.98397575348028"><ele>367.0</ele><time>2026-04-19T08:00:20Z</time></trkpt><trkpt lat="45.7712787487868" lon="8.98402907496017"><ele>367.0</ele><time>2026-04-19T08:00:21Z</time></trkpt><trkpt lat="45.77120023007663" lon="8.984055475155007"><ele>367.0</ele><time>2026-04-19T08:00:22Z</time></trkpt><trkpt lat="45.77112438181016" lon="8.984070504258726"><ele>367.0</ele><time>2026-04-19T08:00:23Z</time></trkpt><trkpt lat="45.771052060023855" lon="8.984056591203979"><ele>367.0</ele><time>2026-04-19T08:00:24Z</time></trkpt><trkpt lat="45.770981508846354" lon="8.984012853505618"><ele>367.0</ele><time>2026-04-19T08:00:25Z</time></trkpt><trkpt lat="45.77090779388003" lon="8.983950155770108"><ele>367.0</ele><time>2026-04-19T08:00:26Z</time></trkpt><trkpt lat="45.77083795227694" lon="8.983881732848358"><ele>366.8333333333333</ele><time>2026-04-19T08:00:27Z</time></trkpt><trkpt lat="45.77074487596112" lon="8.983871216651972"><ele>366.66666666666663</ele><time>2026-04-19T08:00:28Z</time></trkpt><trkpt lat="45.770656803869485" lon="8.983912392911025"><ele>366.5</ele><time>2026-04-19T08:00:29Z</time></trkpt><trkpt lat="45.77059468034161" lon="8.9839933176642"><ele>366.3333333333333</ele><time>2026-04-19T08:00:30Z</time></trkpt><trkpt lat="45.77056386671139" lon="8.984093009261818"><ele>366.1666666666667</ele><time>2026-04-19T08:00:31Z</time></trkpt><trkpt lat="45.77055577292219" lon="8.984210223497273"><ele>366.0</ele><time>2026-04-19T08:00:32Z</time></trkpt><trkpt lat="45.7705734881328" lon="8.984325896244892"><ele>366.0</ele><time>2026-04-19T08:00:33Z</time></trkpt><trkpt lat="45.770605851608515" lon="8.984420912539488"><ele>366.0</ele><time>2026-04-19T08:00:34Z</time></trkpt><trkpt lat="45.770634473197646" lon="8.984520631174961"><ele>366.0</ele><time>2026-04-19T08:00:35Z</time></trkpt><trkpt lat="45.77065858633207" lon="8.984629792843721"><ele>366.0</ele><time>2026-04-19T08:00:36Z</time></trkpt><trkpt lat="45.77066916333689" lon="8.984768297876302"><ele>366.0</ele><time>2026-04-19T08:00:37Z</time></trkpt><trkpt lat="45.770654471017124" lon="8.98490320414314"><ele>366.0</ele><time>2026-04-19T08:00:38Z</time></trkpt><trkpt lat="45.77062792211089" lon="8.985046551156234"><ele>364.75</ele><time>2026-04-19T08:00:39Z</time></trkpt><trkpt lat="45.77059837708891" lon="8.98519579476301"><ele>363.5</ele><time>2026-04-19T08:00:40Z</time></trkpt><trkpt lat="45.77056566302344" lon="8.985359833909968"><ele>362.25</ele><time>2026-04-19T08:00:40.999Z</time></trkpt><trkpt lat="45.77054638985609" lon="8.985547930651505"><ele>361.0</ele><time>2026-04-19T08:00:41.999Z</time></trkpt><trkpt lat="45.770539143357915" lon="8.98576445442653"><ele>358.0</ele><time>2026-04-19T08:00:42.999Z</time></trkpt><trkpt lat="45.77054035500879" lon="8.986000360618801"><ele>355.0</ele><time>2026-04-19T08:00:43.999Z</time></trkpt><trkpt lat="45.770558186315725" lon="8.98626107203631"><ele>352.0</ele><time>2026-04-19T08:00:44.999Z</time></trkpt><trkpt lat="45.77055248502468" lon="8.986538244610433"><ele>349.66666666666663</ele><time>2026-04-19T08:00:45.999Z</time></trkpt><trkpt lat="45.77056274428395" lon="8.986786852190056"><ele>347.3333333333333</ele><time>2026-04-19T08:00:46.999Z</time></trkpt><trkpt lat="45.77056994375668" lon="8.987035713620482"><ele>345.0</ele><time>2026-04-19T08:00:47.999Z</time></trkpt><trkpt lat="45.77057291648908" lon="8.98726945674359"><ele>345.0</ele><time>2026-04-19T08:00:48.999Z</time></trkpt><trkpt lat="45.770573215948914" lon="8.987492946362515"><ele>345.0</ele><time>2026-04-19T08:00:49.999Z</time></trkpt><trkpt lat="45.770571472374066" lon="8.98770913756252"><ele>345.0</ele><time>2026-04-19T08:00:50.999Z</time></trkpt><trkpt lat="45.7705686832675" lon="8.987908336601942"><ele>345.0</ele><time>2026-04-19T08:00:51.999Z</time></trkpt><trkpt lat="45.77057894871298" lon="8.988089914480181"><ele>345.0</ele><time>2026-04-19T08:00:52.999Z</time></trkpt><trkpt lat="45.770582353237096" lon="8.9882556995358"><ele>345.0</ele><time>2026-04-19T08:00:53.999Z</time></trkpt><trkpt lat="45.7705677883163" lon="8.988397784197986"><ele>345.0</ele><time>2026-04-19T08:00:54.999Z</time></trkpt><trkpt lat="45.77052915655615" lon="8.98851833503394"><ele>345.0</ele><time>2026-04-19T08:00:55.999Z</time></trkpt><trkpt lat="45.770497432212764" lon="8.988652379031215"><ele>345.0</ele><time>2026-04-19T08:00:56.999Z</time></trkpt><trkpt lat="45.770502021313824" lon="8.988792351981203"><ele>345.5</ele><time>2026-04-19T08:00:57.999Z</time></trkpt><trkpt lat="45.77055534224217" lon="8.988949271594779"><ele>346.0</ele><time>2026-04-19T08:00:58.999Z</time></trkpt><trkpt lat="45.77061329519158" lon="8.989129625820633"><ele>346.5</ele><time>2026-04-19T08:00:59.999Z</time></trkpt><trkpt lat="45.77060756647515" lon="8.989352028640315"><ele>347.0</ele><time>2026-04-19T08:01:00.999Z</time></trkpt><trkpt lat="45.77061849666022" lon="8.989610292862823"><ele>347.33333333333337</ele><time>2026-04-19T08:01:01.999Z</time></trkpt><trkpt lat="45.77061699366299" lon="8.989871693326643"><ele>347.6666666666667</ele><time>2026-04-19T08:01:02.999Z</time></trkpt><trkpt lat="45.77062253920809" lon="8.990153169099441"><ele>348.0</ele><time>2026-04-19T08:01:03.999Z</time></trkpt><trkpt lat="45.770628101532" lon="8.990439985933243"><ele>348.0</ele><time>2026-04-19T08:01:04.999Z</time></trkpt><trkpt lat="45.770629466164046" lon="8.990720591311083"><ele>348.0</ele><time>2026-04-19T08:01:05.999Z</time></trkpt><trkpt lat="45.770637759416616" lon="8.990997691104488"><ele>348.0</ele><time>2026-04-19T08:01:06.999Z</time></trkpt><trkpt lat="45.7706462736206" lon="8.991266104124346"><ele>348.0</ele><time>2026-04-19T08:01:07.999Z</time></trkpt><trkpt lat="45.77064906730864" lon="8.991533444695454"><ele>348.0</ele><time>2026-04-19T08:01:08.999Z</time></trkpt><trkpt lat="45.77065500087612" lon="8.991797621159302"><ele>348.0</ele><time>2026-04-19T08:01:09.999Z</time></trkpt><trkpt lat="45.77066182741468" lon="8.992055807913703"><ele>348.0</ele><time>2026-04-19T08:01:10.999Z</time></trkpt><trkpt lat="45.77067076220941" lon="8.992305229968265"><ele>348.0</ele><time>2026-04-19T08:01:11.999Z</time></trkpt><trkpt lat="45.77068645750383" lon="8.992561510130734"><ele>348.0</ele><time>2026-04-19T08:01:12.999Z</time></trkpt><trkpt lat="45.77070335173172" lon="8.99279617049225"><ele>347.79999999999995</ele><time>2026-04-19T08:01:13.999Z</time></trkpt><trkpt lat="45.77071854453263" lon="8.9929718342693"><ele>347.6</ele><time>2026-04-19T08:01:14.999Z</time></trkpt><trkpt lat="45.77073773932482" lon="8.993127510276468"><ele>347.4</ele><time>2026-04-19T08:01:15.999Z</time></trkpt><trkpt lat="45.77074488170428" lon="8.993264474463134"><ele>347.20000000000005</ele><time>2026-04-19T08:01:16.999Z</time></trkpt><trkpt lat="45.77075984998208" lon="8.993396379463318"><ele>347.0</ele><time>2026-04-19T08:01:17.999Z</time></trkpt><trkpt lat="45.77077306201854" lon="8.993494825487193"><ele>346.83333333333337</ele><time>2026-04-19T08:01:18.999Z</time></trkpt><trkpt lat="45.77078242970949" lon="8.993584347851227"><ele>346.6666666666667</ele><time>2026-04-19T08:01:19.999Z</time></trkpt><trkpt lat="45.77079638776641" lon="8.993719604245864"><ele>346.5</ele><time>2026-04-19T08:01:21.999Z</time></trkpt><trkpt lat="45.77080918120106" lon="8.993821671134251"><ele>346.3333333333333</ele><time>2026-04-19T08:01:23.999Z</time></trkpt><trkpt lat="45.770823452052674" lon="8.99392272809766"><ele>346.16666666666663</ele><time>2026-04-19T08:01:26.999Z</time></trkpt><trkpt lat="45.770843904172" lon="8.994075152706241"><ele>346.0</ele><time>2026-04-19T08:01:35.999Z</time></trkpt><trkpt lat="45.77086668809053" lon="8.99427321531102"><ele>345.6</ele><time>2026-04-19T08:01:37.999Z</time></trkpt><trkpt lat="45.77086709607719" lon="8.99440140957436"><ele>345.20000000000005</ele><time>2026-04-19T08:01:38.999Z</time></trkpt><trkpt lat="45.770876050277614" lon="8.994557348137258"><ele>344.79999999999995</ele><time>2026-04-19T08:01:39.999Z</time></trkpt><trkpt lat="45.770880312157054" lon="8.994715151982021"><ele>344.4</ele><time>2026-04-19T08:01:40.999Z</time></trkpt><trkpt lat="45.77089980201109" lon="8.994883028011385"><ele>344.0</ele><time>2026-04-19T08:01:41.999Z</time></trkpt><trkpt lat="45.77091732801189" lon="8.995066611873405"><ele>344.0</ele><time>2026-04-19T08:01:42.999Z</time></trkpt><trkpt lat="45.77096160973376" lon="8.995252375293141"><ele>344.0</ele><time>2026-04-19T08:01:43.999Z</time></trkpt><trkpt lat="45.770986687698034" lon="8.995469040654482"><ele>344.0</ele><time>2026-04-19T08:01:44.999Z</time></trkpt><trkpt lat="45.771014242893294" lon="8.995683693289743"><ele>344.0</ele><time>2026-04-19T08:01:45.999Z</time></trkpt><trkpt lat="45.77104675223181" lon="8.995915653750233"><ele>343.6666666666667</ele><time>2026-04-19T08:01:46.999Z</time></trkpt><trkpt lat="45.77107641295162" lon="8.996153393654055"><ele>343.3333333333333</ele><time>2026-04-19T08:01:47.999Z</time></trkpt><trkpt lat="45.77110240562692" lon="8.996399830031386"><ele>343.0</ele><time>2026-04-19T08:01:48.999Z</time></trkpt><trkpt lat="45.771126237694915" lon="8.996647643497358"><ele>342.66666666666663</ele><time>2026-04-19T08:01:49.998Z</time></trkpt><trkpt lat="45.77115716503192" lon="8.99689792767399"><ele>342.3333333333333</ele><time>2026-04-19T08:01:50.998Z</time></trkpt><trkpt lat="45.77118759875531" lon="8.997143925823535"><ele>342.0</ele><time>2026-04-19T08:01:51.998Z</time></trkpt><trkpt lat="45.77121685851217" lon="8.997397130999534"><ele>340.3333333333333</ele><time>2026-04-19T08:01:53Z</time></trkpt><trkpt lat="45.771238624035156" lon="8.997656050711367"><ele>338.66666666666663</ele><time>2026-04-19T08:01:54Z</time></trkpt><trkpt lat="45.771261510200944" lon="8.99789961082548"><ele>337.0</ele><time>2026-04-19T08:01:55Z</time></trkpt><trkpt lat="45.77129273811841" lon="8.998140342589709"><ele>336.3333333333333</ele><time>2026-04-19T08:01:56Z</time></trkpt><trkpt lat="45.77132095840116" lon="8.99836142983822"><ele>335.6666666666667</ele><time>2026-04-19T08:01:57Z</time></trkpt><trkpt lat="45.77133148414714" lon="8.998595839425588"><ele>335.0</ele><time>2026-04-19T08:01:58Z</time></trkpt><trkpt lat="45.7713572413851" lon="8.998831479903032"><ele>335.0</ele><time>2026-04-19T08:01:59Z</time></trkpt><trkpt lat="45.77138482342374" lon="8.999079766881009"><ele>335.0</ele><time>2026-04-19T08:02:00Z</time></trkpt><trkpt lat="45.771411917376646" lon="8.999320165197021"><ele>335.0</ele><time>2026-04-19T08:02:01Z</time></trkpt><trkpt lat="45.77143865451786" lon="8.999562190879836"><ele>335.0</ele><time>2026-04-19T08:02:02Z</time></trkpt><trkpt lat="45.771464800336204" lon="8.99979852923089"><ele>335.0</ele><time>2026-04-19T08:02:03Z</time></trkpt><trkpt lat="45.771491093071255" lon="9.000037948204925"><ele>335.0</ele><time>2026-04-19T08:02:04Z</time></trkpt><trkpt lat="45.771514859976506" lon="9.000258459511139"><ele>335.0</ele><time>2026-04-19T08:02:05Z</time></trkpt><trkpt lat="45.77153652221584" lon="9.000459443561152"><ele>335.0</ele><time>2026-04-19T08:02:06Z</time></trkpt><trkpt lat="45.77155859197775" lon="9.000664248172104"><ele>335.0</ele><time>2026-04-19T08:02:07Z</time></trkpt><trkpt lat="45.77159004233059" lon="9.000863361958846"><ele>335.0</ele><time>2026-04-19T08:02:08Z</time></trkpt><trkpt lat="45.77161112431083" lon="9.00106671712035"><ele>334.25</ele><time>2026-04-19T08:02:09Z</time></trkpt><trkpt lat="45.771631464233096" lon="9.001274532133689"><ele>333.5</ele><time>2026-04-19T08:02:10Z</time></trkpt><trkpt lat="45.77165743276555" lon="9.001478199839593"><ele>332.75</ele><time>2026-04-19T08:02:11Z</time></trkpt><trkpt lat="45.77167960403212" lon="9.001672763856257"><ele>332.0</ele><time>2026-04-19T08:02:12Z</time></trkpt><trkpt lat="45.77169953866612" lon="9.00186812152701"><ele>332.0</ele><time>2026-04-19T08:02:13Z</time></trkpt><trkpt lat="45.77171526283228" lon="9.002099287777385"><ele>332.0</ele><time>2026-04-19T08:02:14Z</time></trkpt><trkpt lat="45.77172973843603" lon="9.002301857383445"><ele>332.0</ele><time>2026-04-19T08:02:15Z</time></trkpt><trkpt lat="45.771747019918784" lon="9.002492070325744"><ele>332.0</ele><time>2026-04-19T08:02:16Z</time></trkpt><trkpt lat="45.77177728266546" lon="9.00266489689941"><ele>332.20000000000005</ele><time>2026-04-19T08:02:17Z</time></trkpt><trkpt lat="45.77180254782206" lon="9.00284175721705"><ele>332.4</ele><time>2026-04-19T08:02:18Z</time></trkpt><trkpt lat="45.77182649651339" lon="9.00301173473536"><ele>332.6</ele><time>2026-04-19T08:02:19Z</time></trkpt><trkpt lat="45.77182787893577" lon="9.003158558661887"><ele>332.79999999999995</ele><time>2026-04-19T08:02:20Z</time></trkpt><trkpt lat="45.77184206449934" lon="9.003289188314163"><ele>333.0</ele><time>2026-04-19T08:02:21Z</time></trkpt><trkpt lat="45.77187066115083" lon="9.003412225454236"><ele>333.0</ele><time>2026-04-19T08:02:22Z</time></trkpt><trkpt lat="45.77187480737854" lon="9.003526444318416"><ele>333.0</ele><time>2026-04-19T08:02:23Z</time></trkpt><trkpt lat="45.77188599154155" lon="9.003635530784887"><ele>333.0</ele><time>2026-04-19T08:02:24Z</time></trkpt><trkpt lat="45.77189604120344" lon="9.003731660977342"><ele>333.0</ele><time>2026-04-19T08:02:25Z</time></trkpt><trkpt lat="45.77191456717564" lon="9.003881071025612"><ele>333.0</ele><time>2026-04-19T08:02:27Z</time></trkpt><trkpt lat="45.77192694667848" lon="9.003986562528688"><ele>333.0</ele><time>2026-04-19T08:02:29Z</time></trkpt><trkpt lat="45.772217560179946" lon="9.004146634583915"><ele>332.75</ele><time>2026-04-19T08:02:37Z</time></trkpt><trkpt lat="45.77205084816681" lon="9.004394981521996"><ele>332.5</ele><time>2026-04-19T08:03:12.999Z</time></trkpt><trkpt lat="45.77206523596925" lon="9.00451056247539"><ele>332.25</ele><time>2026-04-19T08:03:13.999Z</time></trkpt><trkpt lat="45.772080450421" lon="9.004656869872662"><ele>332.0</ele><time>2026-04-19T08:03:14.999Z</time></trkpt><trkpt lat="45.772093424315905" lon="9.00482705013462"><ele>331.6666666666667</ele><time>2026-04-19T08:03:15.999Z</time></trkpt><trkpt lat="45.77200193201717" lon="9.005015232891497"><ele>331.3333333333333</ele><time>2026-04-19T08:03:16.999Z</time></trkpt><trkpt lat="45.771991601663444" lon="9.005231923024624"><ele>331.0</ele><time>2026-04-19T08:03:17.999Z</time></trkpt><trkpt lat="45.77198040667335" lon="9.005463186398865"><ele>331.0</ele><time>2026-04-19T08:03:18.999Z</time></trkpt><trkpt lat="45.771968450601015" lon="9.005686978560119"><ele>331.0</ele><time>2026-04-19T08:03:19.999Z</time></trkpt><trkpt lat="45.771955287370304" lon="9.005928523786377"><ele>331.0</ele><time>2026-04-19T08:03:20.999Z</time></trkpt><trkpt lat="45.77194227109674" lon="9.006167372365413"><ele>331.0</ele><time>2026-04-19T08:03:21.999Z</time></trkpt><trkpt lat="45.77192987253255" lon="9.00639766780491"><ele>331.0</ele><time>2026-04-19T08:03:22.999Z</time></trkpt><trkpt lat="45.77191805401278" lon="9.006621634727209"><ele>331.0</ele><time>2026-04-19T08:03:23.999Z</time></trkpt><trkpt lat="45.77190624846758" lon="9.00684535579696"><ele>331.3333333333333</ele><time>2026-04-19T08:03:24.999Z</time></trkpt><trkpt lat="45.77189445941332" lon="9.007068764341385"><ele>331.6666666666667</ele><time>2026-04-19T08:03:25.999Z</time></trkpt><trkpt lat="45.77188320873231" lon="9.007281970435496"><ele>332.0</ele><time>2026-04-19T08:03:26.999Z</time></trkpt><trkpt lat="45.771872176047225" lon="9.007491045411992"><ele>331.75</ele><time>2026-04-19T08:03:27.999Z</time></trkpt><trkpt lat="45.771860951218294" lon="9.00770376160274"><ele>331.5</ele><time>2026-04-19T08:03:28.999Z</time></trkpt><trkpt lat="45.77184989669752" lon="9.007913250365332"><ele>331.25</ele><time>2026-04-19T08:03:29.999Z</time></trkpt><trkpt lat="45.77183901298307" lon="9.008119500842245"><ele>331.0</ele><time>2026-04-19T08:03:30.999Z</time></trkpt><trkpt lat="45.771828115047626" lon="9.008319651248838"><ele>331.0</ele><time>2026-04-19T08:03:31.999Z</time></trkpt><trkpt lat="45.77181754038925" lon="9.00852646140502"><ele>331.0</ele><time>2026-04-19T08:03:32.999Z</time></trkpt><trkpt lat="45.77180661990181" lon="9.008728524104454"><ele>331.0</ele><time>2026-04-19T08:03:33.999Z</time></trkpt><trkpt lat="45.77182462268917" lon="9.008934415548953"><ele>331.0</ele><time>2026-04-19T08:03:34.999Z</time></trkpt><trkpt lat="45.77181075291813" lon="9.00913506557476"><ele>330.5</ele><time>2026-04-19T08:03:35.999Z</time></trkpt><trkpt lat="45.771802904289345" lon="9.009338315448847"><ele>330.0</ele><time>2026-04-19T08:03:36.999Z</time></trkpt><trkpt lat="45.77179339326531" lon="9.00955158851653"><ele>329.5</ele><time>2026-04-19T08:03:37.999Z</time></trkpt><trkpt lat="45.77178295468254" lon="9.00975344781182"><ele>329.0</ele><time>2026-04-19T08:03:38.999Z</time></trkpt><trkpt lat="45.77177153174619" lon="9.009962602998689"><ele>329.25</ele><time>2026-04-19T08:03:39.999Z</time></trkpt><trkpt lat="45.77175835771309" lon="9.010174138436398"><ele>329.5</ele><time>2026-04-19T08:03:40.999Z</time></trkpt><trkpt lat="45.771746746854355" lon="9.010382374023477"><ele>329.75</ele><time>2026-04-19T08:03:41.999Z</time></trkpt><trkpt lat="45.77174835735829" lon="9.010593327074538"><ele>330.0</ele><time>2026-04-19T08:03:42.999Z</time></trkpt><trkpt lat="45.77173559493132" lon="9.010803115097152"><ele>330.5</ele><time>2026-04-19T08:03:43.999Z</time></trkpt><trkpt lat="45.77171937419275" lon="9.011006355755242"><ele>331.0</ele><time>2026-04-19T08:03:44.999Z</time></trkpt><trkpt lat="45.771708066996005" lon="9.0111978780721"><ele>331.5</ele><time>2026-04-19T08:03:45.999Z</time></trkpt><trkpt lat="45.771694895082" lon="9.011371660752966"><ele>332.0</ele><time>2026-04-19T08:03:46.998Z</time></trkpt><trkpt lat="45.77166702871416" lon="9.011531366272797"><ele>332.40000000000003</ele><time>2026-04-19T08:03:47.998Z</time></trkpt><trkpt lat="45.77166293097286" lon="9.01168926004724"><ele>332.8</ele><time>2026-04-19T08:03:48.998Z</time></trkpt><trkpt lat="45.77167530754881" lon="9.011831922462356"><ele>333.2</ele><time>2026-04-19T08:03:49.998Z</time></trkpt><trkpt lat="45.7716694694253" lon="9.011949991025125"><ele>333.6</ele><time>2026-04-19T08:03:50.998Z</time></trkpt><trkpt lat="45.77163245472435" lon="9.012055314761716"><ele>334.0</ele><time>2026-04-19T08:03:51.998Z</time></trkpt><trkpt lat="45.77157413145029" lon="9.012143145823396"><ele>334.0</ele><time>2026-04-19T08:03:52.998Z</time></trkpt><trkpt lat="45.77153735093606" lon="9.012241535946774"><ele>334.0</ele><time>2026-04-19T08:03:53.998Z</time></trkpt><trkpt lat="45.771553824800506" lon="9.012361449468905"><ele>334.0</ele><time>2026-04-19T08:03:54.998Z</time></trkpt><trkpt lat="45.77161734463748" lon="9.012458119508958"><ele>334.0</ele><time>2026-04-19T08:03:55.998Z</time></trkpt><trkpt lat="45.77170643369326" lon="9.012544980097482"><ele>334.0</ele><time>2026-04-19T08:03:56.998Z</time></trkpt><trkpt lat="45.77177832701095" lon="9.01266800422293"><ele>334.5</ele><time>2026-04-19T08:03:57.998Z</time></trkpt><trkpt lat="45.77180940106691" lon="9.012855553201675"><ele>335.0</ele><time>2026-04-19T08:03:59Z</time></trkpt><trkpt lat="45.771827908798954" lon="9.013063909395852"><ele>335.5</ele><time>2026-04-19T08:04:00Z</time></trkpt><trkpt lat="45.77185687194624" lon="9.01327356882894"><ele>336.0</ele><time>2026-04-19T08:04:01Z</time></trkpt><trkpt lat="45.77189172545399" lon="9.013489347359826"><ele>337.5</ele><time>2026-04-19T08:04:02Z</time></trkpt><trkpt lat="45.77192301984798" lon="9.013710590844008"><ele>339.0</ele><time>2026-04-19T08:04:03Z</time></trkpt><trkpt lat="45.77195055338868" lon="9.013911543633242"><ele>340.5</ele><time>2026-04-19T08:04:04Z</time></trkpt><trkpt lat="45.77197626355974" lon="9.014104392424771"><ele>342.0</ele><time>2026-04-19T08:04:05Z</time></trkpt><trkpt lat="45.77200495034512" lon="9.014294741426655"><ele>342.0</ele><time>2026-04-19T08:04:06Z</time></trkpt><trkpt lat="45.77203476415834" lon="9.014489427567925"><ele>342.0</ele><time>2026-04-19T08:04:07Z</time></trkpt><trkpt lat="45.77205160311167" lon="9.014669300499024"><ele>342.0</ele><time>2026-04-19T08:04:08Z</time></trkpt><trkpt lat="45.77207182461017" lon="9.014834959234152"><ele>342.0</ele><time>2026-04-19T08:04:09Z</time></trkpt><trkpt lat="45.772095570425904" lon="9.015009819382266"><ele>342.20000000000005</ele><time>2026-04-19T08:04:10Z</time></trkpt><trkpt lat="45.77211266350113" lon="9.015175086784623"><ele>342.4</ele><time>2026-04-19T08:04:11Z</time></trkpt><trkpt lat="45.77213678027451" lon="9.015330273152992"><ele>342.6</ele><time>2026-04-19T08:04:12Z</time></trkpt><trkpt lat="45.772160224350024" lon="9.015468537190655"><ele>342.79999999999995</ele><time>2026-04-19T08:04:13Z</time></trkpt><trkpt lat="45.77217822227225" lon="9.015606100736896"><ele>343.0</ele><time>2026-04-19T08:04:14Z</time></trkpt><trkpt lat="45.77219819535724" lon="9.015748819660104"><ele>342.5</ele><time>2026-04-19T08:04:15Z</time></trkpt><trkpt lat="45.77222088253707" lon="9.01589197062204"><ele>342.0</ele><time>2026-04-19T08:04:16Z</time></trkpt><trkpt lat="45.77224171043963" lon="9.016017826984285"><ele>341.5</ele><time>2026-04-19T08:04:17Z</time></trkpt><trkpt lat="45.772260937893" lon="9.016130731698631"><ele>341.0</ele><time>2026-04-19T08:04:18Z</time></trkpt><trkpt lat="45.77228217034309" lon="9.01624428339419"><ele>340.5</ele><time>2026-04-19T08:04:19Z</time></trkpt><trkpt lat="45.77230011918135" lon="9.0163749922099"><ele>340.0</ele><time>2026-04-19T08:04:20Z</time></trkpt><trkpt lat="45.77232126472785" lon="9.016505419936257"><ele>340.0</ele><time>2026-04-19T08:04:21Z</time></trkpt><trkpt lat="45.772328692436105" lon="9.016627595365778"><ele>340.0</ele><time>2026-04-19T08:04:22Z</time></trkpt><trkpt lat="45.772343418238016" lon="9.016728446529996"><ele>340.0</ele><time>2026-04-19T08:04:23Z</time></trkpt><trkpt lat="45.772356256969104" lon="9.016818907748892"><ele>340.0</ele><time>2026-04-19T08:04:24Z</time></trkpt><trkpt lat="45.77237413430013" lon="9.016912543324686"><ele>340.0</ele><time>2026-04-19T08:04:25Z</time></trkpt><trkpt lat="45.77239560056783" lon="9.017025135378676"><ele>340.0</ele><time>2026-04-19T08:04:26Z</time></trkpt><trkpt lat="45.77241953756386" lon="9.01716897684226"><ele>340.0</ele><time>2026-04-19T08:04:27Z</time></trkpt><trkpt lat="45.7724419516043" lon="9.017353646929518"><ele>340.0</ele><time>2026-04-19T08:04:28Z</time></trkpt><trkpt lat="45.772462038980876" lon="9.017543826300153"><ele>340.0</ele><time>2026-04-19T08:04:29Z</time></trkpt><trkpt lat="45.772488292236034" lon="9.017716930104182"><ele>340.0</ele><time>2026-04-19T08:04:30Z</time></trkpt><trkpt lat="45.772514677858595" lon="9.017870138812606"><ele>340.2</ele><time>2026-04-19T08:04:31Z</time></trkpt><trkpt lat="45.772536163354026" lon="9.018009086691217"><ele>340.4</ele><time>2026-04-19T08:04:32Z</time></trkpt><trkpt lat="45.77255279896443" lon="9.018133762860783"><ele>340.6</ele><time>2026-04-19T08:04:33Z</time></trkpt><trkpt lat="45.7725604993703" lon="9.018240898865228"><ele>340.8</ele><time>2026-04-19T08:04:34Z</time></trkpt><trkpt lat="45.772529571864304" lon="9.018409695448067"><ele>341.0</ele><time>2026-04-19T08:04:36Z</time></trkpt><trkpt lat="45.772489844268996" lon="9.018484009439504"><ele>341.33333333333337</ele><time>2026-04-19T08:04:37Z</time></trkpt><trkpt lat="45.772440375174284" lon="9.018564092169088"><ele>341.6666666666667</ele><time>2026-04-19T08:04:38Z</time></trkpt><trkpt lat="45.77239972858308" lon="9.01865654388192"><ele>342.0</ele><time>2026-04-19T08:04:39Z</time></trkpt><trkpt lat="45.77240695040325" lon="9.018773579295015"><ele>342.3333333333333</ele><time>2026-04-19T08:04:40Z</time></trkpt><trkpt lat="45.772452520018824" lon="9.018886990249808"><ele>342.66666666666663</ele><time>2026-04-19T08:04:41Z</time></trkpt><trkpt lat="45.77253770160527" lon="9.018988293609086"><ele>343.0</ele><time>2026-04-19T08:04:42Z</time></trkpt><trkpt lat="45.772631870434736" lon="9.01907325017421"><ele>343.5</ele><time>2026-04-19T08:04:43Z</time></trkpt><trkpt lat="45.772712112972684" lon="9.019209308498185"><ele>344.0</ele><time>2026-04-19T08:04:44Z</time></trkpt><trkpt lat="45.77275139078075" lon="9.01940533815396"><ele>344.5</ele><time>2026-04-19T08:04:45Z</time></trkpt><trkpt lat="45.7727793083195" lon="9.019629923486356"><ele>345.0</ele><time>2026-04-19T08:04:46Z</time></trkpt><trkpt lat="45.77280764184942" lon="9.019874916161891"><ele>345.0</ele><time>2026-04-19T08:04:47Z</time></trkpt><trkpt lat="45.77284289505454" lon="9.020136966380367"><ele>345.0</ele><time>2026-04-19T08:04:47.999Z</time></trkpt><trkpt lat="45.77288125034595" lon="9.020424422171178"><ele>345.0</ele><time>2026-04-19T08:04:48.999Z</time></trkpt><trkpt lat="45.77291928123168" lon="9.020731878880198"><ele>345.6666666666667</ele><time>2026-04-19T08:04:49.999Z</time></trkpt><trkpt lat="45.77295963604548" lon="9.021028666556411"><ele>346.33333333333337</ele><time>2026-04-19T08:04:50.999Z</time></trkpt><trkpt lat="45.77299623782812" lon="9.021279825938338"><ele>347.0</ele><time>2026-04-19T08:04:51.999Z</time></trkpt><trkpt lat="45.77302468017037" lon="9.021513192013396"><ele>348.6666666666667</ele><time>2026-04-19T08:04:52.999Z</time></trkpt><trkpt lat="45.77305419905271" lon="9.021729742098419"><ele>350.3333333333333</ele><time>2026-04-19T08:04:53.999Z</time></trkpt><trkpt lat="45.7730784803897" lon="9.02193828129157"><ele>352.0</ele><time>2026-04-19T08:04:54.999Z</time></trkpt><trkpt lat="45.77311744869477" lon="9.022148803968683"><ele>352.0</ele><time>2026-04-19T08:04:55.999Z</time></trkpt><trkpt lat="45.7731441714917" lon="9.022335262320732"><ele>352.0</ele><time>2026-04-19T08:04:56.999Z</time></trkpt><trkpt lat="45.77317237336073" lon="9.022521961709948"><ele>352.0</ele><time>2026-04-19T08:04:57.999Z</time></trkpt><trkpt lat="45.773197838950324" lon="9.022698511225407"><ele>352.0</ele><time>2026-04-19T08:04:58.999Z</time></trkpt><trkpt lat="45.77323408987574" lon="9.022863581313626"><ele>352.6</ele><time>2026-04-19T08:04:59.999Z</time></trkpt><trkpt lat="45.773255823561186" lon="9.023017172148197"><ele>353.20000000000005</ele><time>2026-04-19T08:05:00.999Z</time></trkpt><trkpt lat="45.77330639298041" lon="9.02314298102288"><ele>353.8</ele><time>2026-04-19T08:05:01.999Z</time></trkpt><trkpt lat="45.77335158949893" lon="9.023272419586103"><ele>354.4</ele><time>2026-04-19T08:05:02.999Z</time></trkpt><trkpt lat="45.77341178791142" lon="9.023403284341711"><ele>355.0</ele><time>2026-04-19T08:05:03.999Z</time></trkpt><trkpt lat="45.773484567091586" lon="9.023512385304464"><ele>354.8</ele><time>2026-04-19T08:05:04.999Z</time></trkpt><trkpt lat="45.77355184962821" lon="9.023637134812246"><ele>354.6</ele><time>2026-04-19T08:05:05.999Z</time></trkpt><trkpt lat="45.77361779218653" lon="9.023757986373736"><ele>354.4</ele><time>2026-04-19T08:05:06.999Z</time></trkpt><trkpt lat="45.77369212685497" lon="9.023868185040953"><ele>354.2</ele><time>2026-04-19T08:05:07.999Z</time></trkpt><trkpt lat="45.77374633418987" lon="9.023999659768108"><ele>354.0</ele><time>2026-04-19T08:05:08.999Z</time></trkpt><trkpt lat="45.773818774119924" lon="9.024126775507527"><ele>354.25</ele><time>2026-04-19T08:05:09.999Z</time></trkpt><trkpt lat="45.773894588912" lon="9.024247640306472"><ele>354.5</ele><time>2026-04-19T08:05:10.999Z</time></trkpt><trkpt lat="45.77397269265759" lon="9.024373276033431"><ele>354.75</ele><time>2026-04-19T08:05:11.999Z</time></trkpt><trkpt lat="45.77404382945748" lon="9.024511732213233"><ele>355.0</ele><time>2026-04-19T08:05:12.999Z</time></trkpt><trkpt lat="45.774118268868804" lon="9.02464861940176"><ele>355.0</ele><time>2026-04-19T08:05:13.999Z</time></trkpt><trkpt lat="45.774192188990135" lon="9.024785882241801"><ele>355.0</ele><time>2026-04-19T08:05:14.999Z</time></trkpt><trkpt lat="45.774262602155474" lon="9.024926881244935"><ele>355.0</ele><time>2026-04-19T08:05:15.999Z</time></trkpt><trkpt lat="45.77434329808546" lon="9.025075744457018"><ele>355.0</ele><time>2026-04-19T08:05:16.999Z</time></trkpt><trkpt lat="45.77442937430537" lon="9.025225251808932"><ele>355.5</ele><time>2026-04-19T08:05:17.999Z</time></trkpt><trkpt lat="45.774498892389715" lon="9.025382242430119"><ele>356.0</ele><time>2026-04-19T08:05:18.999Z</time></trkpt><trkpt lat="45.77460915284175" lon="9.025537186898415"><ele>356.5</ele><time>2026-04-19T08:05:19.999Z</time></trkpt><trkpt lat="45.774693721654884" lon="9.02570438751289"><ele>357.0</ele><time>2026-04-19T08:05:20.999Z</time></trkpt><trkpt lat="45.774789129053886" lon="9.02588847306855"><ele>355.3333333333333</ele><time>2026-04-19T08:05:21.999Z</time></trkpt><trkpt lat="45.774894506137585" lon="9.026083201615236"><ele>353.66666666666663</ele><time>2026-04-19T08:05:22.999Z</time></trkpt><trkpt lat="45.774995610456024" lon="9.026286199202064"><ele>352.0</ele><time>2026-04-19T08:05:23.999Z</time></trkpt><trkpt lat="45.77509035485256" lon="9.026435951631681"><ele>352.0</ele><time>2026-04-19T08:05:24.999Z</time></trkpt><trkpt lat="45.775177928803565" lon="9.026601712669338"><ele>352.0</ele><time>2026-04-19T08:05:25.999Z</time></trkpt><trkpt lat="45.77526775691268" lon="9.026760068749148"><ele>352.0</ele><time>2026-04-19T08:05:26.999Z</time></trkpt><trkpt lat="45.775345299443735" lon="9.026926589684805"><ele>352.0</ele><time>2026-04-19T08:05:27.999Z</time></trkpt><trkpt lat="45.77542583529157" lon="9.027076351198643"><ele>351.0</ele><time>2026-04-19T08:05:28.999Z</time></trkpt><trkpt lat="45.77550432268127" lon="9.027223481900846"><ele>350.0</ele><time>2026-04-19T08:05:29.999Z</time></trkpt><trkpt lat="45.775574522254466" lon="9.0273547900844"><ele>349.0</ele><time>2026-04-19T08:05:30.999Z</time></trkpt><trkpt lat="45.77564661159877" lon="9.027489633049102"><ele>348.0</ele><time>2026-04-19T08:05:31.999Z</time></trkpt><trkpt lat="45.775714401297144" lon="9.027598158960721"><ele>347.2</ele><time>2026-04-19T08:05:32.999Z</time></trkpt><trkpt lat="45.775784453955" lon="9.027720001720983"><ele>346.4</ele><time>2026-04-19T08:05:33.999Z</time></trkpt><trkpt lat="45.77584357446833" lon="9.02783976349703"><ele>345.59999999999997</ele><time>2026-04-19T08:05:34.999Z</time></trkpt><trkpt lat="45.77590938655826" lon="9.027959392485926"><ele>344.79999999999995</ele><time>2026-04-19T08:05:35.999Z</time></trkpt><trkpt lat="45.77596345702252" lon="9.028064705680897"><ele>344.0</ele><time>2026-04-19T08:05:36.999Z</time></trkpt><trkpt lat="45.77601762051806" lon="9.028164378667942"><ele>344.0</ele><time>2026-04-19T08:05:37.999Z</time></trkpt><trkpt lat="45.776065408749794" lon="9.028246159971408"><ele>344.0</ele><time>2026-04-19T08:05:38.999Z</time></trkpt><trkpt lat="45.77609328926003" lon="9.02837021962522"><ele>344.0</ele><time>2026-04-19T08:05:40.999Z</time></trkpt><trkpt lat="45.776081446796326" lon="9.028515937117815"><ele>344.0</ele><time>2026-04-19T08:05:42.999Z</time></trkpt><trkpt lat="45.77608060640024" lon="9.028624473498303"><ele>344.0</ele><time>2026-04-19T08:05:43.999Z</time></trkpt><trkpt lat="45.77607330438934" lon="9.028716833267245"><ele>344.0</ele><time>2026-04-19T08:05:44.999Z</time></trkpt><trkpt lat="45.77614949600263" lon="9.02877422563917"><ele>344.0</ele><time>2026-04-19T08:05:47.999Z</time></trkpt><trkpt lat="45.776211197198656" lon="9.028816034398032"><ele>344.0</ele><time>2026-04-19T08:05:49.999Z</time></trkpt><trkpt lat="45.776300891167836" lon="9.028807560125504"><ele>344.0</ele><time>2026-04-19T08:05:51.999Z</time></trkpt><trkpt lat="45.776369783408654" lon="9.028873170535165"><ele>344.0</ele><time>2026-04-19T08:05:52.999Z</time></trkpt><trkpt lat="45.77640867671078" lon="9.028946860133948"><ele>344.0</ele><time>2026-04-19T08:05:53.999Z</time></trkpt><trkpt lat="45.77648127210974" lon="9.029095208549176"><ele>344.0</ele><time>2026-04-19T08:05:55.998Z</time></trkpt><trkpt lat="45.776509597053476" lon="9.02918818899355"><ele>344.0</ele><time>2026-04-19T08:05:56.998Z</time></trkpt><trkpt lat="45.77655628891558" lon="9.02927273719154"><ele>344.0</ele><time>2026-04-19T08:05:57.998Z</time></trkpt><trkpt lat="45.776584255493106" lon="9.029367726619586"><ele>344.0</ele><time>2026-04-19T08:05:58.998Z</time></trkpt><trkpt lat="45.77661314132659" lon="9.02946797536628"><ele>344.0</ele><time>2026-04-19T08:05:59.998Z</time></trkpt><trkpt lat="45.77661708984896" lon="9.029580279183024"><ele>344.0</ele><time>2026-04-19T08:06:00.998Z</time></trkpt><trkpt lat="45.776634559389926" lon="9.029696692895678"><ele>344.0</ele><time>2026-04-19T08:06:01.998Z</time></trkpt><trkpt lat="45.7766513755041" lon="9.029808752309133"><ele>344.0</ele><time>2026-04-19T08:06:02.998Z</time></trkpt><trkpt lat="45.77667492229654" lon="9.029940152462553"><ele>344.0</ele><time>2026-04-19T08:06:03.998Z</time></trkpt><trkpt lat="45.77670075367547" lon="9.030065978918778"><ele>344.0</ele><time>2026-04-19T08:06:05Z</time></trkpt><trkpt lat="45.77672696356611" lon="9.03019364909111"><ele>344.0</ele><time>2026-04-19T08:06:06Z</time></trkpt><trkpt lat="45.776753733213326" lon="9.030323934674275"><ele>344.0</ele><time>2026-04-19T08:06:07Z</time></trkpt><trkpt lat="45.776780690396166" lon="9.030455133302263"><ele>344.2</ele><time>2026-04-19T08:06:08Z</time></trkpt><trkpt lat="45.77685874332305" lon="9.030562558215895"><ele>344.4</ele><time>2026-04-19T08:06:09Z</time></trkpt><trkpt lat="45.77688589770152" lon="9.030699543897178"><ele>344.6</ele><time>2026-04-19T08:06:10Z</time></trkpt><trkpt lat="45.77690874978235" lon="9.030850413529821"><ele>344.8</ele><time>2026-04-19T08:06:11Z</time></trkpt><trkpt lat="45.776944470433676" lon="9.030996739774356"><ele>345.0</ele><time>2026-04-19T08:06:12Z</time></trkpt><trkpt lat="45.77699481596685" lon="9.031176880529948"><ele>345.5</ele><time>2026-04-19T08:06:13Z</time></trkpt><trkpt lat="45.776964728241246" lon="9.031352582748143"><ele>346.0</ele><time>2026-04-19T08:06:14Z</time></trkpt><trkpt lat="45.77700235336184" lon="9.031538433097701"><ele>346.5</ele><time>2026-04-19T08:06:15Z</time></trkpt><trkpt lat="45.777037776867715" lon="9.03171601887679"><ele>347.0</ele><time>2026-04-19T08:06:16Z</time></trkpt><trkpt lat="45.77708317865489" lon="9.031871559753666"><ele>347.25</ele><time>2026-04-19T08:06:17Z</time></trkpt><trkpt lat="45.77711620846775" lon="9.032046490342207"><ele>347.5</ele><time>2026-04-19T08:06:18Z</time></trkpt><trkpt lat="45.77715567733865" lon="9.032226933602608"><ele>347.75</ele><time>2026-04-19T08:06:19Z</time></trkpt><trkpt lat="45.777211358075505" lon="9.032388478611674"><ele>348.0</ele><time>2026-04-19T08:06:20Z</time></trkpt><trkpt lat="45.777269654613" lon="9.032535154637825"><ele>347.4</ele><time>2026-04-19T08:06:21Z</time></trkpt><trkpt lat="45.77733788505627" lon="9.03266693872839"><ele>346.79999999999995</ele><time>2026-04-19T08:06:22Z</time></trkpt><trkpt lat="45.77740760279298" lon="9.032787905851016"><ele>346.2</ele><time>2026-04-19T08:06:23Z</time></trkpt><trkpt lat="45.77748366551065" lon="9.032887784640858"><ele>345.6</ele><time>2026-04-19T08:06:24Z</time></trkpt><trkpt lat="45.77757308511326" lon="9.032991549793847"><ele>345.0</ele><time>2026-04-19T08:06:25Z</time></trkpt><trkpt lat="45.77767714230267" lon="9.03310434174302"><ele>344.75</ele><time>2026-04-19T08:06:26Z</time></trkpt><trkpt lat="45.777788007896454" lon="9.033218605208884"><ele>344.5</ele><time>2026-04-19T08:06:27Z</time></trkpt><trkpt lat="45.77788048877015" lon="9.033348509591733"><ele>344.25</ele><time>2026-04-19T08:06:28Z</time></trkpt><trkpt lat="45.77797371695816" lon="9.033454561160223"><ele>344.0</ele><time>2026-04-19T08:06:29Z</time></trkpt><trkpt lat="45.77805940856525" lon="9.033551458446903"><ele>344.0</ele><time>2026-04-19T08:06:30Z</time></trkpt><trkpt lat="45.77814983461515" lon="9.033637521483941"><ele>344.0</ele><time>2026-04-19T08:06:31Z</time></trkpt><trkpt lat="45.778237781984025" lon="9.033732642367072"><ele>344.0</ele><time>2026-04-19T08:06:32Z</time></trkpt><trkpt lat="45.77831879219911" lon="9.03382739801374"><ele>344.0</ele><time>2026-04-19T08:06:33Z</time></trkpt><trkpt lat="45.77840113611768" lon="9.033915037349933"><ele>344.0</ele><time>2026-04-19T08:06:34Z</time></trkpt><trkpt lat="45.77849448445563" lon="9.034015016058706"><ele>346.75</ele><time>2026-04-19T08:06:35Z</time></trkpt><trkpt lat="45.77859461271672" lon="9.034122609413998"><ele>349.5</ele><time>2026-04-19T08:06:36Z</time></trkpt><trkpt lat="45.77870424277662" lon="9.034239177936454"><ele>352.25</ele><time>2026-04-19T08:06:37Z</time></trkpt><trkpt lat="45.77879919540726" lon="9.034378708854973"><ele>355.0</ele><time>2026-04-19T08:06:38Z</time></trkpt><trkpt lat="45.77892584400732" lon="9.034514541853206"><ele>355.0</ele><time>2026-04-19T08:06:39Z</time></trkpt><trkpt lat="45.77901961978136" lon="9.034639092258196"><ele>355.0</ele><time>2026-04-19T08:06:40Z</time></trkpt><trkpt lat="45.779117791796764" lon="9.034804957789788"><ele>355.0</ele><time>2026-04-19T08:06:41Z</time></trkpt><trkpt lat="45.77921697374838" lon="9.034977940894079"><ele>355.0</ele><time>2026-04-19T08:06:42Z</time></trkpt><trkpt lat="45.779310660705356" lon="9.03518957427079"><ele>356.66666666666663</ele><time>2026-04-19T08:06:43Z</time></trkpt><trkpt lat="45.77939853172535" lon="9.035446961836826"><ele>358.3333333333333</ele><time>2026-04-19T08:06:44Z</time></trkpt><trkpt lat="45.77947208460142" lon="9.035722207012585"><ele>360.0</ele><time>2026-04-19T08:06:45Z</time></trkpt><trkpt lat="45.77953283322208" lon="9.036013510825372"><ele>350.0</ele><time>2026-04-19T08:06:46Z</time></trkpt><trkpt lat="45.779593869177" lon="9.036336892547286"><ele>340.0</ele><time>2026-04-19T08:06:47Z</time></trkpt><trkpt lat="45.77965682571581" lon="9.03665613110872"><ele>335.66666666666663</ele><time>2026-04-19T08:06:47.999Z</time></trkpt><trkpt lat="45.779712699846264" lon="9.036941752150318"><ele>331.3333333333333</ele><time>2026-04-19T08:06:48.999Z</time></trkpt><trkpt lat="45.77976464970095" lon="9.03720579244008"><ele>327.0</ele><time>2026-04-19T08:06:49.999Z</time></trkpt><trkpt lat="45.7798171641329" lon="9.037407074337334"><ele>325.25</ele><time>2026-04-19T08:06:50.999Z</time></trkpt><trkpt lat="45.77984332785155" lon="9.037604064324142"><ele>323.5</ele><time>2026-04-19T08:06:51.999Z</time></trkpt><trkpt lat="45.77988015415828" lon="9.037789340041458"><ele>321.75</ele><time>2026-04-19T08:06:52.999Z</time></trkpt><trkpt lat="45.77992218938162" lon="9.038001437814899"><ele>320.0</ele><time>2026-04-19T08:06:53.999Z</time></trkpt><trkpt lat="45.77995054583495" lon="9.0381522329806"><ele>319.0</ele><time>2026-04-19T08:06:54.999Z</time></trkpt><trkpt lat="45.77997191605881" lon="9.038349789429708"><ele>318.0</ele><time>2026-04-19T08:06:55.999Z</time></trkpt><trkpt lat="45.779975992274736" lon="9.038528197894152"><ele>317.0</ele><time>2026-04-19T08:06:56.999Z</time></trkpt><trkpt lat="45.77996312419885" lon="9.038701332730874"><ele>316.0</ele><time>2026-04-19T08:06:57.999Z</time></trkpt><trkpt lat="45.779951902919876" lon="9.038864083468846"><ele>316.0</ele><time>2026-04-19T08:06:58.999Z</time></trkpt><trkpt lat="45.77994179875854" lon="9.039017423839741"><ele>316.0</ele><time>2026-04-19T08:06:59.999Z</time></trkpt><trkpt lat="45.7799260165483" lon="9.039157234562579"><ele>316.0</ele><time>2026-04-19T08:07:00.999Z</time></trkpt><trkpt lat="45.77990316297581" lon="9.039282978635098"><ele>316.0</ele><time>2026-04-19T08:07:01.999Z</time></trkpt><trkpt lat="45.779881506474084" lon="9.039393077318772"><ele>316.0</ele><time>2026-04-19T08:07:02.999Z</time></trkpt><trkpt lat="45.77984573655169" lon="9.039517163915097"><ele>315.40000000000003</ele><time>2026-04-19T08:07:03.999Z</time></trkpt><trkpt lat="45.779816263980024" lon="9.039644879204891"><ele>314.8</ele><time>2026-04-19T08:07:04.999Z</time></trkpt><trkpt lat="45.77981408267141" lon="9.039775783201657"><ele>314.20000000000005</ele><time>2026-04-19T08:07:05.999Z</time></trkpt><trkpt lat="45.77987883944745" lon="9.039869229220416"><ele>313.6</ele><time>2026-04-19T08:07:06.999Z</time></trkpt><trkpt lat="45.779966493916234" lon="9.039958935813956"><ele>313.0</ele><time>2026-04-19T08:07:07.999Z</time></trkpt><trkpt lat="45.780061187358484" lon="9.039986507325205"><ele>313.0</ele><time>2026-04-19T08:07:08.999Z</time></trkpt><trkpt lat="45.780156684290965" lon="9.039955984430222"><ele>313.0</ele><time>2026-04-19T08:07:09.999Z</time></trkpt><trkpt lat="45.78025895708333" lon="9.039982371470376"><ele>313.0</ele><time>2026-04-19T08:07:11.999Z</time></trkpt><trkpt lat="45.7803415453568" lon="9.040203558270514"><ele>313.0</ele><time>2026-04-19T08:07:12.999Z</time></trkpt><trkpt lat="45.780429191849834" lon="9.040340778904406"><ele>314.4</ele><time>2026-04-19T08:07:13.999Z</time></trkpt><trkpt lat="45.780518813606676" lon="9.040500287910701"><ele>315.8</ele><time>2026-04-19T08:07:14.999Z</time></trkpt><trkpt lat="45.78058794224159" lon="9.040598048399044"><ele>317.2</ele><time>2026-04-19T08:07:15.999Z</time></trkpt><trkpt lat="45.780653281073356" lon="9.0406957823242"><ele>318.6</ele><time>2026-04-19T08:07:16.999Z</time></trkpt><trkpt lat="45.78072784188883" lon="9.040786297204345"><ele>320.0</ele><time>2026-04-19T08:07:17.999Z</time></trkpt><trkpt lat="45.78081905712049" lon="9.04087814111314"><ele>320.0</ele><time>2026-04-19T08:07:18.999Z</time></trkpt><trkpt lat="45.78093386236218" lon="9.040953311025689"><ele>320.0</ele><time>2026-04-19T08:07:19.999Z</time></trkpt><trkpt lat="45.78107890297485" lon="9.04101808919344"><ele>320.0</ele><time>2026-04-19T08:07:20.999Z</time></trkpt><trkpt lat="45.78124028809474" lon="9.041111618780496"><ele>321.33333333333337</ele><time>2026-04-19T08:07:21.999Z</time></trkpt><trkpt lat="45.781423020910985" lon="9.041189169110996"><ele>322.6666666666667</ele><time>2026-04-19T08:07:22.999Z</time></trkpt><trkpt lat="45.78161664919224" lon="9.04127163255494"><ele>324.0</ele><time>2026-04-19T08:07:23.999Z</time></trkpt><trkpt lat="45.781789377534" lon="9.041344342195849"><ele>323.6666666666667</ele><time>2026-04-19T08:07:24.999Z</time></trkpt><trkpt lat="45.781950964268546" lon="9.041411932213412"><ele>323.33333333333337</ele><time>2026-04-19T08:07:25.999Z</time></trkpt><trkpt lat="45.782101288331624" lon="9.041474116687827"><ele>323.0</ele><time>2026-04-19T08:07:26.999Z</time></trkpt><trkpt lat="45.78223648780866" lon="9.041529733274743"><ele>323.0</ele><time>2026-04-19T08:07:27.999Z</time></trkpt><trkpt lat="45.78236534698177" lon="9.04158274226352"><ele>323.0</ele><time>2026-04-19T08:07:28.999Z</time></trkpt><trkpt lat="45.78248291260533" lon="9.041631207066944"><ele>323.0</ele><time>2026-04-19T08:07:29.999Z</time></trkpt><trkpt lat="45.78259513337884" lon="9.041677640832402"><ele>323.0</ele><time>2026-04-19T08:07:30.999Z</time></trkpt><trkpt lat="45.78270227398944" lon="9.041721456547632"><ele>320.79999999999995</ele><time>2026-04-19T08:07:31.999Z</time></trkpt><trkpt lat="45.78280251243489" lon="9.04176240928323"><ele>318.59999999999997</ele><time>2026-04-19T08:07:32.999Z</time></trkpt><trkpt lat="45.78289916056896" lon="9.041787514822328"><ele>316.4</ele><time>2026-04-19T08:07:33.999Z</time></trkpt><trkpt lat="45.78299215798921" lon="9.04183001865899"><ele>314.2</ele><time>2026-04-19T08:07:34.999Z</time></trkpt><trkpt lat="45.78307849050413" lon="9.0418664046058"><ele>312.0</ele><time>2026-04-19T08:07:35.999Z</time></trkpt><trkpt lat="45.78314457128524" lon="9.041905611066055"><ele>312.0</ele><time>2026-04-19T08:07:36.999Z</time></trkpt><trkpt lat="45.78322886875917" lon="9.041925447173847"><ele>312.0</ele><time>2026-04-19T08:07:37.999Z</time></trkpt><trkpt lat="45.78330319694949" lon="9.04195007923778"><ele>312.0</ele><time>2026-04-19T08:07:38.999Z</time></trkpt><trkpt lat="45.78337256374834" lon="9.041977868837979"><ele>312.0</ele><time>2026-04-19T08:07:39.999Z</time></trkpt><trkpt lat="45.78343138437175" lon="9.042021312854603"><ele>312.0</ele><time>2026-04-19T08:07:40.999Z</time></trkpt><trkpt lat="45.7835430909206" lon="9.042067303954218"><ele>312.0</ele><time>2026-04-19T08:07:42.999Z</time></trkpt><trkpt lat="45.783609572459014" lon="9.042077904255375"><ele>312.2</ele><time>2026-04-19T08:07:44.999Z</time></trkpt><trkpt lat="45.78367692782612" lon="9.042112920617333"><ele>312.4</ele><time>2026-04-19T08:07:48.999Z</time></trkpt><trkpt lat="45.78375768000933" lon="9.042155653164873"><ele>312.6</ele><time>2026-04-19T08:08:19Z</time></trkpt><trkpt lat="45.78387525066055" lon="9.04220405858112"><ele>312.8</ele><time>2026-04-19T08:08:21Z</time></trkpt><trkpt lat="45.78395464802085" lon="9.042236838618827"><ele>313.0</ele><time>2026-04-19T08:08:22Z</time></trkpt><trkpt lat="45.78405285003688" lon="9.042277382702663"><ele>313.0</ele><time>2026-04-19T08:08:23Z</time></trkpt><trkpt lat="45.784156218693695" lon="9.042320059935935"><ele>313.0</ele><time>2026-04-19T08:08:24Z</time></trkpt><trkpt lat="45.78426697236478" lon="9.042365684062988"><ele>313.0</ele><time>2026-04-19T08:08:25Z</time></trkpt><trkpt lat="45.78438559259293" lon="9.042414220493413"><ele>313.0</ele><time>2026-04-19T08:08:26Z</time></trkpt><trkpt lat="45.78450694682904" lon="9.042463875569293"><ele>313.75</ele><time>2026-04-19T08:08:27Z</time></trkpt><trkpt lat="45.784638232710094" lon="9.042496182285118"><ele>314.5</ele><time>2026-04-19T08:08:28Z</time></trkpt><trkpt lat="45.78477016469512" lon="9.042557163216784"><ele>315.25</ele><time>2026-04-19T08:08:29Z</time></trkpt><trkpt lat="45.78490508612292" lon="9.042610737679194"><ele>316.0</ele><time>2026-04-19T08:08:30Z</time></trkpt><trkpt lat="45.78503608350844" lon="9.042669404848196"><ele>316.0</ele><time>2026-04-19T08:08:31Z</time></trkpt><trkpt lat="45.78517740885479" lon="9.042718808687336"><ele>316.0</ele><time>2026-04-19T08:08:32Z</time></trkpt><trkpt lat="45.78531686543588" lon="9.042776050822415"><ele>316.0</ele><time>2026-04-19T08:08:33Z</time></trkpt><trkpt lat="45.78544990293651" lon="9.04282809656762"><ele>316.0</ele><time>2026-04-19T08:08:34Z</time></trkpt><trkpt lat="45.78557777592853" lon="9.042902024797403"><ele>316.25</ele><time>2026-04-19T08:08:35Z</time></trkpt><trkpt lat="45.785711719125224" lon="9.042956732181379"><ele>316.5</ele><time>2026-04-19T08:08:36Z</time></trkpt><trkpt lat="45.78585199367525" lon="9.042989464271509"><ele>316.75</ele><time>2026-04-19T08:08:37Z</time></trkpt><trkpt lat="45.78598057662022" lon="9.043052026456486"><ele>317.0</ele><time>2026-04-19T08:08:38Z</time></trkpt><trkpt lat="45.786109138252016" lon="9.04310828860818"><ele>317.75</ele><time>2026-04-19T08:08:39Z</time></trkpt><trkpt lat="45.786224822958275" lon="9.043154992837414"><ele>318.5</ele><time>2026-04-19T08:08:40Z</time></trkpt><trkpt lat="45.786350944174615" lon="9.043206360373837"><ele>319.25</ele><time>2026-04-19T08:08:41Z</time></trkpt><trkpt lat="45.78647279562257" lon="9.04327331883451"><ele>320.0</ele><time>2026-04-19T08:08:42Z</time></trkpt><trkpt lat="45.78659981875832" lon="9.043326686313222"><ele>320.0</ele><time>2026-04-19T08:08:43Z</time></trkpt><trkpt lat="45.78673575896483" lon="9.043367388569811"><ele>320.0</ele><time>2026-04-19T08:08:44Z</time></trkpt><trkpt lat="45.78683235989303" lon="9.043423142968535"><ele>320.0</ele><time>2026-04-19T08:08:45Z</time></trkpt><trkpt lat="45.78694519697747" lon="9.043503940451119"><ele>320.0</ele><time>2026-04-19T08:08:46Z</time></trkpt><trkpt lat="45.78701561634634" lon="9.043679816447709"><ele>321.0</ele><time>2026-04-19T08:08:47Z</time></trkpt><trkpt lat="45.78706054729159" lon="9.04386539170596"><ele>322.0</ele><time>2026-04-19T08:08:48Z</time></trkpt><trkpt lat="45.78706920226391" lon="9.04410186040719"><ele>323.0</ele><time>2026-04-19T08:08:49Z</time></trkpt><trkpt lat="45.78706733486446" lon="9.044337406247337"><ele>323.0</ele><time>2026-04-19T08:08:50Z</time></trkpt><trkpt lat="45.78708581649305" lon="9.044583808661447"><ele>323.0</ele><time>2026-04-19T08:08:51Z</time></trkpt><trkpt lat="45.787114567562355" lon="9.04484967233945"><ele>323.0</ele><time>2026-04-19T08:08:52Z</time></trkpt><trkpt lat="45.7871403923487" lon="9.045139688721557"><ele>321.0</ele><time>2026-04-19T08:08:53Z</time></trkpt><trkpt lat="45.78716273081423" lon="9.045427556565013"><ele>319.0</ele><time>2026-04-19T08:08:54Z</time></trkpt><trkpt lat="45.78718045645735" lon="9.04569697519165"><ele>317.0</ele><time>2026-04-19T08:08:55Z</time></trkpt><trkpt lat="45.787200098134335" lon="9.045950503811822"><ele>316.0</ele><time>2026-04-19T08:08:56Z</time></trkpt><trkpt lat="45.7872149398568" lon="9.046190714381623"><ele>315.0</ele><time>2026-04-19T08:08:57Z</time></trkpt><trkpt lat="45.78723380649294" lon="9.046420234466604"><ele>314.0</ele><time>2026-04-19T08:08:58Z</time></trkpt><trkpt lat="45.787249939719786" lon="9.04665461279646"><ele>313.6666666666667</ele><time>2026-04-19T08:08:58.999Z</time></trkpt><trkpt lat="45.787266420109326" lon="9.046890152307887"><ele>313.3333333333333</ele><time>2026-04-19T08:08:59.999Z</time></trkpt><trkpt lat="45.78728242685305" lon="9.04709359713703"><ele>313.0</ele><time>2026-04-19T08:09:00.999Z</time></trkpt><trkpt lat="45.7873091091241" lon="9.047302842031453"><ele>313.4</ele><time>2026-04-19T08:09:01.999Z</time></trkpt><trkpt lat="45.78732075887294" lon="9.047479285355912"><ele>313.8</ele><time>2026-04-19T08:09:02.999Z</time></trkpt><trkpt lat="45.78732957528218" lon="9.047625366848806"><ele>314.2</ele><time>2026-04-19T08:09:03.999Z</time></trkpt><trkpt lat="45.787338213703435" lon="9.047751610507902"><ele>314.6</ele><time>2026-04-19T08:09:04.999Z</time></trkpt><trkpt lat="45.787335637168724" lon="9.047896349233783"><ele>315.0</ele><time>2026-04-19T08:09:06.999Z</time></trkpt><trkpt lat="45.78731018865968" lon="9.048083791786986"><ele>315.0</ele><time>2026-04-19T08:09:08.999Z</time></trkpt><trkpt lat="45.7872875457983" lon="9.048188561122263"><ele>315.0</ele><time>2026-04-19T08:09:09.999Z</time></trkpt><trkpt lat="45.78728945278064" lon="9.048319808039862"><ele>315.0</ele><time>2026-04-19T08:09:10.999Z</time></trkpt><trkpt lat="45.78731664528295" lon="9.048452946582554"><ele>315.0</ele><time>2026-04-19T08:09:11.999Z</time></trkpt><trkpt lat="45.78736649179575" lon="9.0486136145779"><ele>315.0</ele><time>2026-04-19T08:09:12.999Z</time></trkpt><trkpt lat="45.78741381024834" lon="9.04877299332951"><ele>315.6666666666667</ele><time>2026-04-19T08:09:13.999Z</time></trkpt><trkpt lat="45.78744387064205" lon="9.048972144729278"><ele>316.33333333333337</ele><time>2026-04-19T08:09:14.999Z</time></trkpt><trkpt lat="45.78746146540909" lon="9.049208770284533"><ele>317.0</ele><time>2026-04-19T08:09:15.999Z</time></trkpt><trkpt lat="45.78747331736601" lon="9.049471492324091"><ele>318.33333333333337</ele><time>2026-04-19T08:09:16.999Z</time></trkpt><trkpt lat="45.78749532622499" lon="9.049740422329343"><ele>319.6666666666667</ele><time>2026-04-19T08:09:17.999Z</time></trkpt><trkpt lat="45.787518328326314" lon="9.049993529395971"><ele>321.0</ele><time>2026-04-19T08:09:18.999Z</time></trkpt><trkpt lat="45.78754415148249" lon="9.050241191973058"><ele>321.0</ele><time>2026-04-19T08:09:19.999Z</time></trkpt><trkpt lat="45.78756323528348" lon="9.05049860197373"><ele>321.0</ele><time>2026-04-19T08:09:20.999Z</time></trkpt><trkpt lat="45.78758520760192" lon="9.050723091928585"><ele>321.0</ele><time>2026-04-19T08:09:21.999Z</time></trkpt><trkpt lat="45.787589171977665" lon="9.050950706492843"><ele>320.3333333333333</ele><time>2026-04-19T08:09:22.999Z</time></trkpt><trkpt lat="45.78763579687258" lon="9.051186699908053"><ele>319.66666666666663</ele><time>2026-04-19T08:09:23.999Z</time></trkpt><trkpt lat="45.78765236439817" lon="9.051433666267206"><ele>319.0</ele><time>2026-04-19T08:09:24.999Z</time></trkpt><trkpt lat="45.78767060496895" lon="9.051687689082632"><ele>318.66666666666663</ele><time>2026-04-19T08:09:25.999Z</time></trkpt><trkpt lat="45.78769043833412" lon="9.051949055116893"><ele>318.3333333333333</ele><time>2026-04-19T08:09:26.999Z</time></trkpt><trkpt lat="45.7876882295816" lon="9.052218981584083"><ele>318.0</ele><time>2026-04-19T08:09:27.999Z</time></trkpt><trkpt lat="45.78770783190815" lon="9.05246803009118"><ele>318.0</ele><time>2026-04-19T08:09:28.999Z</time></trkpt><trkpt lat="45.78772728105503" lon="9.052712620422605"><ele>318.0</ele><time>2026-04-19T08:09:29.999Z</time></trkpt><trkpt lat="45.7877466528743" lon="9.052958224834565"><ele>318.0</ele><time>2026-04-19T08:09:30.999Z</time></trkpt><trkpt lat="45.787766512629936" lon="9.053210352426126"><ele>318.0</ele><time>2026-04-19T08:09:31.999Z</time></trkpt><trkpt lat="45.78778649206134" lon="9.053463425249966"><ele>318.0</ele><time>2026-04-19T08:09:32.999Z</time></trkpt><trkpt lat="45.78780675183155" lon="9.053720048374789"><ele>318.0</ele><time>2026-04-19T08:09:33.999Z</time></trkpt><trkpt lat="45.78784801382511" lon="9.05397046511122"><ele>318.0</ele><time>2026-04-19T08:09:34.999Z</time></trkpt><trkpt lat="45.78784992721304" lon="9.05423401554432"><ele>318.0</ele><time>2026-04-19T08:09:35.999Z</time></trkpt><trkpt lat="45.78787106633539" lon="9.054502029252914"><ele>318.0</ele><time>2026-04-19T08:09:36.999Z</time></trkpt><trkpt lat="45.78789226118094" lon="9.054758985499017"><ele>319.0</ele><time>2026-04-19T08:09:37.999Z</time></trkpt><trkpt lat="45.787914888762074" lon="9.055021271513825"><ele>320.0</ele><time>2026-04-19T08:09:38.999Z</time></trkpt><trkpt lat="45.78793762556654" lon="9.05528465507624"><ele>321.0</ele><time>2026-04-19T08:09:39.999Z</time></trkpt><trkpt lat="45.78796099991898" lon="9.055555423914978"><ele>320.3333333333333</ele><time>2026-04-19T08:09:40.999Z</time></trkpt><trkpt lat="45.78798439119151" lon="9.055828360749961"><ele>319.66666666666663</ele><time>2026-04-19T08:09:41.999Z</time></trkpt><trkpt lat="45.788007393656144" lon="9.056101024023267"><ele>319.0</ele><time>2026-04-19T08:09:42.999Z</time></trkpt><trkpt lat="45.78804714666048" lon="9.056378604318242"><ele>317.66666666666663</ele><time>2026-04-19T08:09:43.999Z</time></trkpt><trkpt lat="45.78805242069663" lon="9.056660320633735"><ele>316.3333333333333</ele><time>2026-04-19T08:09:44.999Z</time></trkpt><trkpt lat="45.78807399522263" lon="9.056943500599845"><ele>315.0</ele><time>2026-04-19T08:09:45.999Z</time></trkpt><trkpt lat="45.78809450755974" lon="9.057229197818458"><ele>315.3333333333333</ele><time>2026-04-19T08:09:46.999Z</time></trkpt><trkpt lat="45.78811069427062" lon="9.057509495712235"><ele>315.66666666666663</ele><time>2026-04-19T08:09:47.999Z</time></trkpt><trkpt lat="45.78814183224864" lon="9.05778950883907"><ele>316.0</ele><time>2026-04-19T08:09:48.999Z</time></trkpt><trkpt lat="45.78814245046575" lon="9.05807442994857"><ele>317.0</ele><time>2026-04-19T08:09:49.999Z</time></trkpt><trkpt lat="45.78812803674508" lon="9.058363743746197"><ele>318.0</ele><time>2026-04-19T08:09:50.999Z</time></trkpt><trkpt lat="45.78809584360163" lon="9.05865175040938"><ele>319.0</ele><time>2026-04-19T08:09:51.999Z</time></trkpt><trkpt lat="45.78805055445603" lon="9.058946241903891"><ele>319.0</ele><time>2026-04-19T08:09:52.999Z</time></trkpt><trkpt lat="45.78799346470764" lon="9.05923761496396"><ele>319.0</ele><time>2026-04-19T08:09:53.999Z</time></trkpt><trkpt lat="45.78792495925952" lon="9.05952111423472"><ele>319.0</ele><time>2026-04-19T08:09:54.999Z</time></trkpt><trkpt lat="45.787899790683014" lon="9.059801656247032"><ele>318.0</ele><time>2026-04-19T08:09:55.999Z</time></trkpt><trkpt lat="45.787890990837795" lon="9.06006977740663"><ele>317.0</ele><time>2026-04-19T08:09:56.999Z</time></trkpt><trkpt lat="45.787920722712116" lon="9.060307027265841"><ele>316.0</ele><time>2026-04-19T08:09:57.999Z</time></trkpt><trkpt lat="45.78796223283338" lon="9.060556793687276"><ele>316.3333333333333</ele><time>2026-04-19T08:09:58.999Z</time></trkpt><trkpt lat="45.788029381169345" lon="9.060801757635884"><ele>316.6666666666667</ele><time>2026-04-19T08:09:59.999Z</time></trkpt><trkpt lat="45.78810886083237" lon="9.061054618493824"><ele>317.0</ele><time>2026-04-19T08:10:00.999Z</time></trkpt><trkpt lat="45.78824003887129" lon="9.06126856567268"><ele>317.0</ele><time>2026-04-19T08:10:01.999Z</time></trkpt><trkpt lat="45.78836110640509" lon="9.06148277113362"><ele>317.0</ele><time>2026-04-19T08:10:02.999Z</time></trkpt><trkpt lat="45.788474377180734" lon="9.061661200435337"><ele>317.0</ele><time>2026-04-19T08:10:03.999Z</time></trkpt><trkpt lat="45.7885883904577" lon="9.061835854301819"><ele>318.6666666666667</ele><time>2026-04-19T08:10:04.999Z</time></trkpt><trkpt lat="45.78871511926231" lon="9.061997504090273"><ele>320.3333333333333</ele><time>2026-04-19T08:10:05.999Z</time></trkpt><trkpt lat="45.788815756845786" lon="9.06218737165873"><ele>322.0</ele><time>2026-04-19T08:10:06.998Z</time></trkpt><trkpt lat="45.78892576565978" lon="9.062353250774045"><ele>321.3333333333333</ele><time>2026-04-19T08:10:07.998Z</time></trkpt><trkpt lat="45.78904877588976" lon="9.062493687816394"><ele>320.6666666666667</ele><time>2026-04-19T08:10:08.998Z</time></trkpt><trkpt lat="45.789155596690435" lon="9.06264396452271"><ele>320.0</ele><time>2026-04-19T08:10:09.998Z</time></trkpt><trkpt lat="45.78926367205527" lon="9.062798990875347"><ele>320.25</ele><time>2026-04-19T08:10:10.998Z</time></trkpt><trkpt lat="45.78937163736623" lon="9.062949408047853"><ele>320.5</ele><time>2026-04-19T08:10:11.998Z</time></trkpt><trkpt lat="45.7894793015498" lon="9.063096779957442"><ele>320.75</ele><time>2026-04-19T08:10:12.998Z</time></trkpt><trkpt lat="45.78957817487582" lon="9.063245270729691"><ele>321.0</ele><time>2026-04-19T08:10:13.998Z</time></trkpt><trkpt lat="45.78967098029406" lon="9.06339078793288"><ele>320.5</ele><time>2026-04-19T08:10:14.998Z</time></trkpt><trkpt lat="45.78975423556709" lon="9.063527078836012"><ele>320.0</ele><time>2026-04-19T08:10:15.998Z</time></trkpt><trkpt lat="45.789827879026724" lon="9.063659481973284"><ele>319.5</ele><time>2026-04-19T08:10:17Z</time></trkpt><trkpt lat="45.78990847525961" lon="9.063779331273116"><ele>319.0</ele><time>2026-04-19T08:10:18Z</time></trkpt><trkpt lat="45.78998176622277" lon="9.063892817749402"><ele>319.0</ele><time>2026-04-19T08:10:19Z</time></trkpt><trkpt lat="45.79004455405892" lon="9.064002379843481"><ele>319.0</ele><time>2026-04-19T08:10:20Z</time></trkpt><trkpt lat="45.79010610510351" lon="9.064094612368699"><ele>319.0</ele><time>2026-04-19T08:10:21Z</time></trkpt><trkpt lat="45.79014899025125" lon="9.06416565856343"><ele>319.0</ele><time>2026-04-19T08:10:22Z</time></trkpt><trkpt lat="45.79019895866533" lon="9.064241461405429"><ele>319.0</ele><time>2026-04-19T08:10:23Z</time></trkpt><trkpt lat="45.79027580133558" lon="9.064343056802732"><ele>319.0</ele><time>2026-04-19T08:10:25Z</time></trkpt><trkpt lat="45.790316544793555" lon="9.064415495877926"><ele>319.8333333333333</ele><time>2026-04-19T08:10:27Z</time></trkpt><trkpt lat="45.790365864162126" lon="9.064488510576343"><ele>320.66666666666663</ele><time>2026-04-19T08:10:29Z</time></trkpt><trkpt lat="45.79041654995006" lon="9.064602180485231"><ele>321.5</ele><time>2026-04-19T08:10:32Z</time></trkpt><trkpt lat="45.790468130020024" lon="9.064681390914254"><ele>322.3333333333333</ele><time>2026-04-19T08:10:35Z</time></trkpt><trkpt lat="45.790517459007205" lon="9.064761886688826"><ele>323.1666666666667</ele><time>2026-04-19T08:10:48Z</time></trkpt><trkpt lat="45.79058875846112" lon="9.064871898171775"><ele>324.0</ele><time>2026-04-19T08:10:50Z</time></trkpt><trkpt lat="45.790642262029216" lon="9.064954450562858"><ele>324.0</ele><time>2026-04-19T08:10:51Z</time></trkpt><trkpt lat="45.790706157532064" lon="9.065053618814723"><ele>324.0</ele><time>2026-04-19T08:10:52Z</time></trkpt><trkpt lat="45.79077544262638" lon="9.065165900299956"><ele>324.0</ele><time>2026-04-19T08:10:53Z</time></trkpt><trkpt lat="45.79084299758128" lon="9.065275990836554"><ele>324.0</ele><time>2026-04-19T08:10:54Z</time></trkpt><trkpt lat="45.79091190193049" lon="9.065388280676839"><ele>324.0</ele><time>2026-04-19T08:10:55Z</time></trkpt><trkpt lat="45.79098090850879" lon="9.065499300494615"><ele>324.2</ele><time>2026-04-19T08:10:56Z</time></trkpt><trkpt lat="45.79105688165271" lon="9.06561913253544"><ele>324.4</ele><time>2026-04-19T08:10:57Z</time></trkpt><trkpt lat="45.79112822866106" lon="9.06573166776364"><ele>324.6</ele><time>2026-04-19T08:10:58Z</time></trkpt><trkpt lat="45.791200776076735" lon="9.065846441372607"><ele>324.8</ele><time>2026-04-19T08:10:59Z</time></trkpt><trkpt lat="45.79127741121046" lon="9.065967848746238"><ele>325.0</ele><time>2026-04-19T08:11:00Z</time></trkpt><trkpt lat="45.791363141239955" lon="9.066106540705597"><ele>324.5</ele><time>2026-04-19T08:11:01Z</time></trkpt><trkpt lat="45.79145669770337" lon="9.066259739154878"><ele>324.0</ele><time>2026-04-19T08:11:02Z</time></trkpt><trkpt lat="45.79155345639959" lon="9.06642056996812"><ele>323.5</ele><time>2026-04-19T08:11:03Z</time></trkpt><trkpt lat="45.79164296038728" lon="9.066569347081312"><ele>323.0</ele><time>2026-04-19T08:11:03.999Z</time></trkpt><trkpt lat="45.791732024574706" lon="9.06670973359837"><ele>323.5</ele><time>2026-04-19T08:11:04.999Z</time></trkpt><trkpt lat="45.79188084727952" lon="9.066775656263012"><ele>324.0</ele><time>2026-04-19T08:11:05.999Z</time></trkpt><trkpt lat="45.79194535163515" lon="9.06695452800768"><ele>324.5</ele><time>2026-04-19T08:11:06.999Z</time></trkpt><trkpt lat="45.792014035995585" lon="9.0671361018132"><ele>325.0</ele><time>2026-04-19T08:11:07.999Z</time></trkpt><trkpt lat="45.79207605668821" lon="9.06731571735141"><ele>326.0</ele><time>2026-04-19T08:11:08.999Z</time></trkpt><trkpt lat="45.79212991838492" lon="9.067518641319198"><ele>327.0</ele><time>2026-04-19T08:11:09.999Z</time></trkpt><trkpt lat="45.792116257845436" lon="9.067736971033133"><ele>328.0</ele><time>2026-04-19T08:11:10.999Z</time></trkpt><trkpt lat="45.79213829710907" lon="9.06794781073442"><ele>328.0</ele><time>2026-04-19T08:11:11.999Z</time></trkpt><trkpt lat="45.79214485000807" lon="9.068160860421672"><ele>328.0</ele><time>2026-04-19T08:11:12.999Z</time></trkpt><trkpt lat="45.79213449394375" lon="9.06839041088473"><ele>328.0</ele><time>2026-04-19T08:11:13.999Z</time></trkpt><trkpt lat="45.792103713444945" lon="9.068621680635223"><ele>327.0</ele><time>2026-04-19T08:11:14.999Z</time></trkpt><trkpt lat="45.79206670323582" lon="9.068874074335573"><ele>326.0</ele><time>2026-04-19T08:11:15.999Z</time></trkpt><trkpt lat="45.792026219306756" lon="9.069121073538982"><ele>325.0</ele><time>2026-04-19T08:11:16.999Z</time></trkpt><trkpt lat="45.79200187801072" lon="9.069370822104409"><ele>325.0</ele><time>2026-04-19T08:11:17.999Z</time></trkpt><trkpt lat="45.79195797172267" lon="9.06961516515989"><ele>325.0</ele><time>2026-04-19T08:11:18.999Z</time></trkpt><trkpt lat="45.791917894365156" lon="9.069856543875579"><ele>325.0</ele><time>2026-04-19T08:11:19.999Z</time></trkpt><trkpt lat="45.79187521997771" lon="9.070095685998957"><ele>322.0</ele><time>2026-04-19T08:11:20.999Z</time></trkpt><trkpt lat="45.79182930183007" lon="9.070345265661262"><ele>319.0</ele><time>2026-04-19T08:11:21.999Z</time></trkpt><trkpt lat="45.79178563355025" lon="9.07058839447462"><ele>316.0</ele><time>2026-04-19T08:11:22.999Z</time></trkpt><trkpt lat="45.791749242752616" lon="9.070824338598584"><ele>315.66666666666663</ele><time>2026-04-19T08:11:23.999Z</time></trkpt><trkpt lat="45.791706792718514" lon="9.071066614265616"><ele>315.3333333333333</ele><time>2026-04-19T08:11:24.999Z</time></trkpt><trkpt lat="45.79167064398893" lon="9.071301379025284"><ele>315.0</ele><time>2026-04-19T08:11:25.999Z</time></trkpt><trkpt lat="45.7916288948654" lon="9.071526665125484"><ele>314.3333333333333</ele><time>2026-04-19T08:11:26.999Z</time></trkpt><trkpt lat="45.79159252210068" lon="9.071745836575145"><ele>313.66666666666663</ele><time>2026-04-19T08:11:27.999Z</time></trkpt><trkpt lat="45.79156934557355" lon="9.071967336687582"><ele>313.0</ele><time>2026-04-19T08:11:28.999Z</time></trkpt><trkpt lat="45.79151527815086" lon="9.072175203074828"><ele>313.0</ele><time>2026-04-19T08:11:29.999Z</time></trkpt><trkpt lat="45.79147514271618" lon="9.072401613247852"><ele>313.0</ele><time>2026-04-19T08:11:30.999Z</time></trkpt><trkpt lat="45.79144812319291" lon="9.072626908433367"><ele>313.0</ele><time>2026-04-19T08:11:31.999Z</time></trkpt><trkpt lat="45.791412521039675" lon="9.072845925725112"><ele>313.0</ele><time>2026-04-19T08:11:32.999Z</time></trkpt><trkpt lat="45.79140099299893" lon="9.07307260470664"><ele>313.0</ele><time>2026-04-19T08:11:33.999Z</time></trkpt><trkpt lat="45.79139444732441" lon="9.073293043438435"><ele>313.0</ele><time>2026-04-19T08:11:34.999Z</time></trkpt><trkpt lat="45.79138854368293" lon="9.07349966486205"><ele>312.5</ele><time>2026-04-19T08:11:35.999Z</time></trkpt><trkpt lat="45.79138672546178" lon="9.073684765339676"><ele>312.0</ele><time>2026-04-19T08:11:36.999Z</time></trkpt><trkpt lat="45.791371378992" lon="9.073854931307388"><ele>311.5</ele><time>2026-04-19T08:11:37.999Z</time></trkpt><trkpt lat="45.79137022177819" lon="9.07400520815892"><ele>311.0</ele><time>2026-04-19T08:11:38.999Z</time></trkpt><trkpt lat="45.79135809010821" lon="9.074143476498902"><ele>310.8</ele><time>2026-04-19T08:11:39.999Z</time></trkpt><trkpt lat="45.791319774032175" lon="9.074252307697828"><ele>310.6</ele><time>2026-04-19T08:11:40.999Z</time></trkpt><trkpt lat="45.79130971637472" lon="9.074365622325852"><ele>310.4</ele><time>2026-04-19T08:11:41.999Z</time></trkpt><trkpt lat="45.79133319797242" lon="9.074485460962661"><ele>310.2</ele><time>2026-04-19T08:11:42.999Z</time></trkpt><trkpt lat="45.791372831132676" lon="9.074611231312124"><ele>310.0</ele><time>2026-04-19T08:11:43.999Z</time></trkpt><trkpt lat="45.791357513108224" lon="9.074760342808402"><ele>310.0</ele><time>2026-04-19T08:11:44.999Z</time></trkpt><trkpt lat="45.79135390516827" lon="9.074915193918507"><ele>310.0</ele><time>2026-04-19T08:11:45.999Z</time></trkpt><trkpt lat="45.79134708923833" lon="9.075075601437204"><ele>310.0</ele><time>2026-04-19T08:11:46.999Z</time></trkpt><trkpt lat="45.79134002108466" lon="9.075231100610052"><ele>310.0</ele><time>2026-04-19T08:11:47.999Z</time></trkpt><trkpt lat="45.79133448927191" lon="9.075370248660187"><ele>310.0</ele><time>2026-04-19T08:11:48.999Z</time></trkpt><trkpt lat="45.79132945982756" lon="9.075511214685934"><ele>310.0</ele><time>2026-04-19T08:11:49.999Z</time></trkpt><trkpt lat="45.79132376533583" lon="9.075670819780296"><ele>310.0</ele><time>2026-04-19T08:11:50.999Z</time></trkpt><trkpt lat="45.79131918933925" lon="9.075799077742909"><ele>310.0</ele><time>2026-04-19T08:11:51.999Z</time></trkpt><trkpt lat="45.791314492803004" lon="9.075905746766386"><ele>310.0</ele><time>2026-04-19T08:11:52.999Z</time></trkpt><trkpt lat="45.7913086059785" lon="9.076014754422014"><ele>310.0</ele><time>2026-04-19T08:11:53.999Z</time></trkpt><trkpt lat="45.79130169033608" lon="9.076133096565671"><ele>310.0</ele><time>2026-04-19T08:11:54.999Z</time></trkpt><trkpt lat="45.79129426239455" lon="9.076270233899773"><ele>310.0</ele><time>2026-04-19T08:11:55.999Z</time></trkpt><trkpt lat="45.791284611652" lon="9.07641768262463"><ele>310.0</ele><time>2026-04-19T08:11:56.999Z</time></trkpt><trkpt lat="45.791276185974596" lon="9.076540499828464"><ele>310.0</ele><time>2026-04-19T08:11:57.999Z</time></trkpt><trkpt lat="45.791268268114315" lon="9.076665195326138"><ele>310.0</ele><time>2026-04-19T08:11:58.999Z</time></trkpt><trkpt lat="45.791261550675884" lon="9.076776495629257"><ele>310.0</ele><time>2026-04-19T08:11:59.999Z</time></trkpt><trkpt lat="45.79125428604644" lon="9.076896862614394"><ele>310.0</ele><time>2026-04-19T08:12:00.999Z</time></trkpt><trkpt lat="45.791247837146855" lon="9.077003716243725"><ele>310.0</ele><time>2026-04-19T08:12:01.999Z</time></trkpt><trkpt lat="45.79124180256519" lon="9.077111741529508"><ele>310.0</ele><time>2026-04-19T08:12:02.999Z</time></trkpt><trkpt lat="45.79123583877779" lon="9.077216123791208"><ele>310.0</ele><time>2026-04-19T08:12:03.999Z</time></trkpt><trkpt lat="45.7912296895809" lon="9.0773237534637"><ele>310.0</ele><time>2026-04-19T08:12:04.999Z</time></trkpt><trkpt lat="45.79122368071809" lon="9.077423651491264"><ele>310.0</ele><time>2026-04-19T08:12:05.999Z</time></trkpt><trkpt lat="45.79121771950714" lon="9.07752407703909"><ele>310.0</ele><time>2026-04-19T08:12:06.999Z</time></trkpt><trkpt lat="45.79120810892714" lon="9.077682610129623"><ele>309.66666666666663</ele><time>2026-04-19T08:12:08.999Z</time></trkpt><trkpt lat="45.79119339311235" lon="9.077790202638306"><ele>309.3333333333333</ele><time>2026-04-19T08:12:11.999Z</time></trkpt><trkpt lat="45.791194743198965" lon="9.077886448660095"><ele>309.0</ele><time>2026-04-19T08:12:36Z</time></trkpt><trkpt lat="45.7911879839898" lon="9.077989532216971"><ele>308.6666666666667</ele><time>2026-04-19T08:12:39Z</time></trkpt><trkpt lat="45.79119126425837" lon="9.078122730970595"><ele>308.33333333333337</ele><time>2026-04-19T08:12:42Z</time></trkpt><trkpt lat="45.79117638725901" lon="9.07826649192467"><ele>308.0</ele><time>2026-04-19T08:12:44Z</time></trkpt><trkpt lat="45.7911593495129" lon="9.078371136341548"><ele>307.33333333333337</ele><time>2026-04-19T08:12:45Z</time></trkpt><trkpt lat="45.79114190002165" lon="9.078477351956513"><ele>306.6666666666667</ele><time>2026-04-19T08:12:46Z</time></trkpt><trkpt lat="45.791127975728415" lon="9.078589808549443"><ele>306.0</ele><time>2026-04-19T08:12:47Z</time></trkpt><trkpt lat="45.79113036203208" lon="9.078695169273882"><ele>305.3333333333333</ele><time>2026-04-19T08:12:48Z</time></trkpt><trkpt lat="45.79112899887852" lon="9.078806486572557"><ele>304.66666666666663</ele><time>2026-04-19T08:12:49Z</time></trkpt><trkpt lat="45.79112262891972" lon="9.078925716027241"><ele>304.0</ele><time>2026-04-19T08:12:50Z</time></trkpt><trkpt lat="45.79111840004089" lon="9.079040827825086"><ele>304.5</ele><time>2026-04-19T08:12:51Z</time></trkpt><trkpt lat="45.79111351887061" lon="9.07914651539092"><ele>305.0</ele><time>2026-04-19T08:12:52Z</time></trkpt><trkpt lat="45.79110777315464" lon="9.079252104925748"><ele>305.5</ele><time>2026-04-19T08:12:53Z</time></trkpt><trkpt lat="45.79110027746565" lon="9.079358948408691"><ele>306.0</ele><time>2026-04-19T08:12:54Z</time></trkpt><trkpt lat="45.79109602226171" lon="9.079476211737905"><ele>306.5</ele><time>2026-04-19T08:12:55Z</time></trkpt><trkpt lat="45.79108915768005" lon="9.079589853442586"><ele>307.0</ele><time>2026-04-19T08:12:56Z</time></trkpt><trkpt lat="45.79107961360364" lon="9.079699629647624"><ele>307.0</ele><time>2026-04-19T08:12:57Z</time></trkpt><trkpt lat="45.79108029459121" lon="9.079808771638811"><ele>307.0</ele><time>2026-04-19T08:12:58Z</time></trkpt><trkpt lat="45.791078131834354" lon="9.07992111261833"><ele>307.0</ele><time>2026-04-19T08:12:59Z</time></trkpt><trkpt lat="45.79106979023909" lon="9.080023811671724"><ele>307.0</ele><time>2026-04-19T08:13:00Z</time></trkpt><trkpt lat="45.79105895502829" lon="9.08013038806067"><ele>307.0</ele><time>2026-04-19T08:13:01Z</time></trkpt><trkpt lat="45.79105603170361" lon="9.080237210888052"><ele>307.0</ele><time>2026-04-19T08:13:02Z</time></trkpt><trkpt lat="45.7910470088227" lon="9.080409114785953"><ele>304.5</ele><time>2026-04-19T08:13:04Z</time></trkpt><trkpt lat="45.79096625807072" lon="9.080551771848354"><ele>302.0</ele><time>2026-04-19T08:13:06Z</time></trkpt><trkpt lat="45.79078912672268" lon="9.080609505427896"><ele>299.5</ele><time>2026-04-19T08:13:08Z</time></trkpt><trkpt lat="45.79068562863536" lon="9.080680885374534"><ele>297.0</ele><time>2026-04-19T08:13:09Z</time></trkpt><trkpt lat="45.79055904250247" lon="9.080731113765815"><ele>296.75</ele><time>2026-04-19T08:13:10Z</time></trkpt><trkpt lat="45.79042554492248" lon="9.080823514493522"><ele>296.5</ele><time>2026-04-19T08:13:11Z</time></trkpt><trkpt lat="45.7903056909373" lon="9.080923150044132"><ele>296.25</ele><time>2026-04-19T08:13:12Z</time></trkpt><trkpt lat="45.79017752927498" lon="9.081019262352713"><ele>296.0</ele><time>2026-04-19T08:13:13Z</time></trkpt><trkpt lat="45.7900558521723" lon="9.081094595203675"><ele>294.25</ele><time>2026-04-19T08:13:13.999Z</time></trkpt><trkpt lat="45.78992811185791" lon="9.081146439453844"><ele>292.5</ele><time>2026-04-19T08:13:14.999Z</time></trkpt><trkpt lat="45.78979807597398" lon="9.081201443265002"><ele>290.75</ele><time>2026-04-19T08:13:15.999Z</time></trkpt><trkpt lat="45.789678257461965" lon="9.081270229172555"><ele>289.0</ele><time>2026-04-19T08:13:16.999Z</time></trkpt><trkpt lat="45.78957467849389" lon="9.081287498109715"><ele>289.0</ele><time>2026-04-19T08:13:17.999Z</time></trkpt><trkpt lat="45.789455530113784" lon="9.08133078354742"><ele>289.0</ele><time>2026-04-19T08:13:18.999Z</time></trkpt><trkpt lat="45.78936693304452" lon="9.081380524395916"><ele>289.0</ele><time>2026-04-19T08:13:19.999Z</time></trkpt><trkpt lat="45.78929101742888" lon="9.081461031497398"><ele>289.0</ele><time>2026-04-19T08:13:20.999Z</time></trkpt><trkpt lat="45.78923410006093" lon="9.081584553330067"><ele>289.0</ele><time>2026-04-19T08:13:21.999Z</time></trkpt><trkpt lat="45.78922690203462" lon="9.081724767848765"><ele>289.0</ele><time>2026-04-19T08:13:22.999Z</time></trkpt><trkpt lat="45.78928511104304" lon="9.081850233548238"><ele>289.0</ele><time>2026-04-19T08:13:23.999Z</time></trkpt><trkpt lat="45.789365968031376" lon="9.08198909270434"><ele>289.0</ele><time>2026-04-19T08:13:24.999Z</time></trkpt><trkpt lat="45.78944267059432" lon="9.08213677454912"><ele>289.0</ele><time>2026-04-19T08:13:25.999Z</time></trkpt><trkpt lat="45.78951486952285" lon="9.08229947348038"><ele>288.25</ele><time>2026-04-19T08:13:26.999Z</time></trkpt><trkpt lat="45.78958737184823" lon="9.082467131682485"><ele>287.5</ele><time>2026-04-19T08:13:27.999Z</time></trkpt><trkpt lat="45.78965335166746" lon="9.08261672060909"><ele>286.75</ele><time>2026-04-19T08:13:28.999Z</time></trkpt><trkpt lat="45.78971775857043" lon="9.082763773432244"><ele>286.0</ele><time>2026-04-19T08:13:29.999Z</time></trkpt><trkpt lat="45.789780982686224" lon="9.082895680920359"><ele>286.0</ele><time>2026-04-19T08:13:30.999Z</time></trkpt><trkpt lat="45.789831209759036" lon="9.08302738557517"><ele>286.0</ele><time>2026-04-19T08:13:31.999Z</time></trkpt><trkpt lat="45.78987167839645" lon="9.083137316204313"><ele>286.0</ele><time>2026-04-19T08:13:32.999Z</time></trkpt><trkpt lat="45.78992575951957" lon="9.083244111852663"><ele>286.0</ele><time>2026-04-19T08:13:33.999Z</time></trkpt><trkpt lat="45.78997180192707" lon="9.0833414836502"><ele>286.0</ele><time>2026-04-19T08:13:34.999Z</time></trkpt><trkpt lat="45.79003345955093" lon="9.083506188383234"><ele>286.2</ele><time>2026-04-19T08:13:36.999Z</time></trkpt><trkpt lat="45.79006568361425" lon="9.08358479883505"><ele>286.40000000000003</ele><time>2026-04-19T08:13:37.999Z</time></trkpt><trkpt lat="45.790126748592655" lon="9.083689779440414"><ele>286.6</ele><time>2026-04-19T08:13:39.999Z</time></trkpt><trkpt lat="45.79016200078189" lon="9.083767465977363"><ele>286.8</ele><time>2026-04-19T08:13:41.999Z</time></trkpt><trkpt lat="45.790225003249915" lon="9.083871860372554"><ele>287.0</ele><time>2026-04-19T08:13:47.999Z</time></trkpt><trkpt lat="45.790300349178565" lon="9.084024961737384"><ele>287.4</ele><time>2026-04-19T08:13:49.999Z</time></trkpt><trkpt lat="45.79030599515132" lon="9.08413678870168"><ele>287.79999999999995</ele><time>2026-04-19T08:13:50.999Z</time></trkpt><trkpt lat="45.79029637942664" lon="9.084259608688413"><ele>288.2</ele><time>2026-04-19T08:13:51.999Z</time></trkpt><trkpt lat="45.790286703227174" lon="9.084418545367814"><ele>288.59999999999997</ele><time>2026-04-19T08:13:52.999Z</time></trkpt><trkpt lat="45.79026163502963" lon="9.0845731935689"><ele>289.0</ele><time>2026-04-19T08:13:53.999Z</time></trkpt><trkpt lat="45.790221620822116" lon="9.084751669419985"><ele>289.0</ele><time>2026-04-19T08:13:54.999Z</time></trkpt><trkpt lat="45.79018535684506" lon="9.084928661907814"><ele>289.0</ele><time>2026-04-19T08:13:55.999Z</time></trkpt><trkpt lat="45.79014358553913" lon="9.085114684240175"><ele>289.0</ele><time>2026-04-19T08:13:56.999Z</time></trkpt><trkpt lat="45.790104998166115" lon="9.085305044605917"><ele>289.0</ele><time>2026-04-19T08:13:57.999Z</time></trkpt><trkpt lat="45.79006655404329" lon="9.085502981467393"><ele>287.66666666666663</ele><time>2026-04-19T08:13:58.999Z</time></trkpt><trkpt lat="45.79002711993187" lon="9.085710814572943"><ele>286.3333333333333</ele><time>2026-04-19T08:13:59.999Z</time></trkpt><trkpt lat="45.78998429377735" lon="9.085916139466539"><ele>285.0</ele><time>2026-04-19T08:14:00.999Z</time></trkpt><trkpt lat="45.78994655937723" lon="9.0861302786658"><ele>284.6666666666667</ele><time>2026-04-19T08:14:01.999Z</time></trkpt><trkpt lat="45.78990257359905" lon="9.086350316182388"><ele>284.33333333333337</ele><time>2026-04-19T08:14:02.999Z</time></trkpt><trkpt lat="45.78985485763042" lon="9.086576721754954"><ele>284.0</ele><time>2026-04-19T08:14:03.999Z</time></trkpt><trkpt lat="45.78980634115562" lon="9.08680550591915"><ele>284.0</ele><time>2026-04-19T08:14:04.999Z</time></trkpt><trkpt lat="45.78976560507497" lon="9.087041362476178"><ele>284.0</ele><time>2026-04-19T08:14:05.999Z</time></trkpt><trkpt lat="45.789725009915394" lon="9.087271339781154"><ele>284.0</ele><time>2026-04-19T08:14:06.999Z</time></trkpt><trkpt lat="45.78968386207876" lon="9.08749542939588"><ele>283.6666666666667</ele><time>2026-04-19T08:14:07.999Z</time></trkpt><trkpt lat="45.78965226037976" lon="9.08771906033131"><ele>283.3333333333333</ele><time>2026-04-19T08:14:08.999Z</time></trkpt><trkpt lat="45.78964149426076" lon="9.087935601321464"><ele>283.0</ele><time>2026-04-19T08:14:09.999Z</time></trkpt><trkpt lat="45.78963971867312" lon="9.088145893132657"><ele>282.25</ele><time>2026-04-19T08:14:10.999Z</time></trkpt><trkpt lat="45.78965064450055" lon="9.088358005809871"><ele>281.5</ele><time>2026-04-19T08:14:11.999Z</time></trkpt><trkpt lat="45.78967212821464" lon="9.088562763095002"><ele>280.75</ele><time>2026-04-19T08:14:12.999Z</time></trkpt><trkpt lat="45.78969692443142" lon="9.088770004327278"><ele>280.0</ele><time>2026-04-19T08:14:13.999Z</time></trkpt><trkpt lat="45.78972694449757" lon="9.088976130683449"><ele>279.0</ele><time>2026-04-19T08:14:14.999Z</time></trkpt><trkpt lat="45.78976228588864" lon="9.089189014710364"><ele>278.0</ele><time>2026-04-19T08:14:15.999Z</time></trkpt><trkpt lat="45.789802186085815" lon="9.089392481202168"><ele>277.0</ele><time>2026-04-19T08:14:16.999Z</time></trkpt><trkpt lat="45.7898589310402" lon="9.089595773930858"><ele>277.0</ele><time>2026-04-19T08:14:17.999Z</time></trkpt><trkpt lat="45.789926611537524" lon="9.089785619422397"><ele>277.0</ele><time>2026-04-19T08:14:18.999Z</time></trkpt><trkpt lat="45.78999952894665" lon="9.089957232439495"><ele>277.0</ele><time>2026-04-19T08:14:19.999Z</time></trkpt><trkpt lat="45.790089224163424" lon="9.090136016695348"><ele>277.0</ele><time>2026-04-19T08:14:20.999Z</time></trkpt><trkpt lat="45.79018820312593" lon="9.090322278839633"><ele>276.0</ele><time>2026-04-19T08:14:21.999Z</time></trkpt><trkpt lat="45.7903039089032" lon="9.090512763421396"><ele>275.0</ele><time>2026-04-19T08:14:22.998Z</time></trkpt><trkpt lat="45.79043097064118" lon="9.090697673814313"><ele>274.0</ele><time>2026-04-19T08:14:23.998Z</time></trkpt><trkpt lat="45.79057024417313" lon="9.090879920297706"><ele>274.0</ele><time>2026-04-19T08:14:24.998Z</time></trkpt><trkpt lat="45.79072185526685" lon="9.091024870799131"><ele>274.0</ele><time>2026-04-19T08:14:25.998Z</time></trkpt><trkpt lat="45.79089305490623" lon="9.091169681151547"><ele>274.0</ele><time>2026-04-19T08:14:26.998Z</time></trkpt><trkpt lat="45.79107875005851" lon="9.091252569630837"><ele>276.3333333333333</ele><time>2026-04-19T08:14:27.998Z</time></trkpt><trkpt lat="45.791254879660755" lon="9.091335126662157"><ele>278.6666666666667</ele><time>2026-04-19T08:14:29Z</time></trkpt><trkpt lat="45.791432577352474" lon="9.091423268807022"><ele>281.0</ele><time>2026-04-19T08:14:30Z</time></trkpt><trkpt lat="45.7916051161965" lon="9.091513472344186"><ele>277.33333333333337</ele><time>2026-04-19T08:14:31Z</time></trkpt><trkpt lat="45.79178003157622" lon="9.091611323588651"><ele>273.6666666666667</ele><time>2026-04-19T08:14:32Z</time></trkpt><trkpt lat="45.791951782059336" lon="9.091712936203844"><ele>270.0</ele><time>2026-04-19T08:14:33Z</time></trkpt><trkpt lat="45.79212619877776" lon="9.091823290688994"><ele>270.0</ele><time>2026-04-19T08:14:34Z</time></trkpt><trkpt lat="45.79230595867444" lon="9.0919319436691"><ele>270.0</ele><time>2026-04-19T08:14:35Z</time></trkpt><trkpt lat="45.79248732638371" lon="9.092041733058176"><ele>270.0</ele><time>2026-04-19T08:14:36Z</time></trkpt><trkpt lat="45.79265971561459" lon="9.092134888710927"><ele>270.0</ele><time>2026-04-19T08:14:37Z</time></trkpt><trkpt lat="45.792821572666654" lon="9.09221725284984"><ele>270.0</ele><time>2026-04-19T08:14:38Z</time></trkpt><trkpt lat="45.7929883880046" lon="9.092306240274942"><ele>270.0</ele><time>2026-04-19T08:14:39Z</time></trkpt><trkpt lat="45.793154847866916" lon="9.09239588219846"><ele>265.0</ele><time>2026-04-19T08:14:40Z</time></trkpt><trkpt lat="45.793318916653405" lon="9.09248684663608"><ele>260.0</ele><time>2026-04-19T08:14:41Z</time></trkpt><trkpt lat="45.793487403979064" lon="9.092573064427373"><ele>255.0</ele><time>2026-04-19T08:14:42Z</time></trkpt><trkpt lat="45.79364894329792" lon="9.09265901383595"><ele>254.33333333333331</ele><time>2026-04-19T08:14:43Z</time></trkpt><trkpt lat="45.79380185380727" lon="9.092751963071052"><ele>253.66666666666666</ele><time>2026-04-19T08:14:44Z</time></trkpt><trkpt lat="45.79395001826589" lon="9.092830043474274"><ele>253.0</ele><time>2026-04-19T08:14:45Z</time></trkpt><trkpt lat="45.794096959430604" lon="9.09289736083954"><ele>253.0</ele><time>2026-04-19T08:14:46Z</time></trkpt><trkpt lat="45.794245234071006" lon="9.09294070212178"><ele>253.0</ele><time>2026-04-19T08:14:47Z</time></trkpt><trkpt lat="45.79439785086391" lon="9.092922546258839"><ele>253.0</ele><time>2026-04-19T08:14:48Z</time></trkpt><trkpt lat="45.79454261895186" lon="9.092866924352688"><ele>249.0</ele><time>2026-04-19T08:14:49Z</time></trkpt><trkpt lat="45.79469172039875" lon="9.092779735447488"><ele>245.0</ele><time>2026-04-19T08:14:50Z</time></trkpt><trkpt lat="45.7948215857398" lon="9.09266546358105"><ele>241.0</ele><time>2026-04-19T08:14:51Z</time></trkpt><trkpt lat="45.79494402135207" lon="9.09251601254216"><ele>239.33333333333331</ele><time>2026-04-19T08:14:52Z</time></trkpt><trkpt lat="45.79504563175427" lon="9.092344942074567"><ele>237.66666666666669</ele><time>2026-04-19T08:14:53Z</time></trkpt><trkpt lat="45.795143689676976" lon="9.092157376077992"><ele>236.0</ele><time>2026-04-19T08:14:54Z</time></trkpt><trkpt lat="45.79526454189825" lon="9.091990461465269"><ele>236.0</ele><time>2026-04-19T08:14:55Z</time></trkpt><trkpt lat="45.795377204699726" lon="9.091811393544864"><ele>236.0</ele><time>2026-04-19T08:14:56Z</time></trkpt><trkpt lat="45.795490675375895" lon="9.09163104155154"><ele>236.0</ele><time>2026-04-19T08:14:57Z</time></trkpt><trkpt lat="45.79560257811342" lon="9.091453181760166"><ele>237.0</ele><time>2026-04-19T08:14:58Z</time></trkpt><trkpt lat="45.795704632990024" lon="9.091256548005136"><ele>238.0</ele><time>2026-04-19T08:14:59Z</time></trkpt><trkpt lat="45.795832823824384" lon="9.091090626525574"><ele>239.0</ele><time>2026-04-19T08:15:00Z</time></trkpt><trkpt lat="45.79594556230767" lon="9.090913089508282"><ele>236.0</ele><time>2026-04-19T08:15:01Z</time></trkpt><trkpt lat="45.79605846708051" lon="9.090735493804454"><ele>233.0</ele><time>2026-04-19T08:15:02Z</time></trkpt><trkpt lat="45.79617318479806" lon="9.090555550504895"><ele>230.0</ele><time>2026-04-19T08:15:03Z</time></trkpt><trkpt lat="45.79628672454523" lon="9.090377455117016"><ele>230.0</ele><time>2026-04-19T08:15:04Z</time></trkpt><trkpt lat="45.79639546286311" lon="9.09020689118552"><ele>230.0</ele><time>2026-04-19T08:15:05Z</time></trkpt><trkpt lat="45.79650060578045" lon="9.090041682823117"><ele>230.0</ele><time>2026-04-19T08:15:06Z</time></trkpt><trkpt lat="45.79660971607221" lon="9.089869862388381"><ele>229.0</ele><time>2026-04-19T08:15:07Z</time></trkpt><trkpt lat="45.79672164075085" lon="9.089693609800301"><ele>228.0</ele><time>2026-04-19T08:15:08Z</time></trkpt><trkpt lat="45.79683128806768" lon="9.089520943405079"><ele>227.0</ele><time>2026-04-19T08:15:09Z</time></trkpt><trkpt lat="45.79693614404549" lon="9.089355822379414"><ele>227.0</ele><time>2026-04-19T08:15:10Z</time></trkpt><trkpt lat="45.79704415827543" lon="9.089185556709216"><ele>227.0</ele><time>2026-04-19T08:15:11Z</time></trkpt><trkpt lat="45.79715027223343" lon="9.089018261389164"><ele>227.0</ele><time>2026-04-19T08:15:12Z</time></trkpt><trkpt lat="45.797247257223226" lon="9.088865358359655"><ele>226.75</ele><time>2026-04-19T08:15:13Z</time></trkpt><trkpt lat="45.79734567356123" lon="9.088710198801593"><ele>226.5</ele><time>2026-04-19T08:15:14Z</time></trkpt><trkpt lat="45.797436449519225" lon="9.088567084526527"><ele>226.25</ele><time>2026-04-19T08:15:15Z</time></trkpt><trkpt lat="45.79752180213519" lon="9.088414220653453"><ele>226.0</ele><time>2026-04-19T08:15:16Z</time></trkpt><trkpt lat="45.79761422263202" lon="9.088274789187667"><ele>225.5</ele><time>2026-04-19T08:15:17Z</time></trkpt><trkpt lat="45.79770620327394" lon="9.088135796797099"><ele>225.0</ele><time>2026-04-19T08:15:18Z</time></trkpt><trkpt lat="45.79780245430112" lon="9.087977315314008"><ele>224.5</ele><time>2026-04-19T08:15:19Z</time></trkpt><trkpt lat="45.797893134137006" lon="9.087837400308267"><ele>224.0</ele><time>2026-04-19T08:15:20Z</time></trkpt><trkpt lat="45.79797402765115" lon="9.087700600237557"><ele>224.0</ele><time>2026-04-19T08:15:20.999Z</time></trkpt><trkpt lat="45.79805157245416" lon="9.087569903811707"><ele>223.99999999999997</ele><time>2026-04-19T08:15:21.999Z</time></trkpt><trkpt lat="45.79812450923512" lon="9.087451837166627"><ele>223.99999999999997</ele><time>2026-04-19T08:15:22.999Z</time></trkpt><trkpt lat="45.79820038301886" lon="9.08735139648267"><ele>224.0</ele><time>2026-04-19T08:15:23.999Z</time></trkpt><trkpt lat="45.798263787598025" lon="9.087254979796084"><ele>224.0</ele><time>2026-04-19T08:15:24.999Z</time></trkpt><trkpt lat="45.798332519878" lon="9.087176781208685"><ele>223.83333333333334</ele><time>2026-04-19T08:15:25.999Z</time></trkpt><trkpt lat="45.7984001046679" lon="9.087102935716532"><ele>223.66666666666669</ele><time>2026-04-19T08:15:26.999Z</time></trkpt><trkpt lat="45.79846778289614" lon="9.08703935409155"><ele>223.5</ele><time>2026-04-19T08:15:27.999Z</time></trkpt><trkpt lat="45.798532443998006" lon="9.086983071730915"><ele>223.33333333333331</ele><time>2026-04-19T08:15:28.999Z</time></trkpt><trkpt lat="45.79859231708207" lon="9.086940516450364"><ele>223.16666666666666</ele><time>2026-04-19T08:15:29.999Z</time></trkpt><trkpt lat="45.79866421054971" lon="9.086898390802244"><ele>223.0</ele><time>2026-04-19T08:15:31.999Z</time></trkpt><trkpt lat="45.79874356679876" lon="9.086858162082342"><ele>222.99999999999997</ele><time>2026-04-19T08:15:34.999Z</time></trkpt><trkpt lat="45.798838463254086" lon="9.086821288431702"><ele>223.0</ele><time>2026-04-19T08:15:37.999Z</time></trkpt><trkpt lat="45.79895425272957" lon="9.086784276185725"><ele>223.0</ele><time>2026-04-19T08:15:39.999Z</time></trkpt><trkpt lat="45.79901479350136" lon="9.086755811396294"><ele>223.0</ele><time>2026-04-19T08:15:40.999Z</time></trkpt><trkpt lat="45.79908055430657" lon="9.086722390909165"><ele>222.99999999999997</ele><time>2026-04-19T08:15:41.999Z</time></trkpt><trkpt lat="45.799147295352086" lon="9.086734835428011"><ele>223.0</ele><time>2026-04-19T08:15:42.999Z</time></trkpt><trkpt lat="45.79924485099022" lon="9.086723983110364"><ele>223.0</ele><time>2026-04-19T08:15:44.999Z</time></trkpt><trkpt lat="45.799329347809106" lon="9.086709746040148"><ele>223.0</ele><time>2026-04-19T08:15:46.999Z</time></trkpt><trkpt lat="45.7994005067522" lon="9.08670368292149"><ele>223.0</ele><time>2026-04-19T08:15:55.999Z</time></trkpt><trkpt lat="45.79951691172562" lon="9.086694952159112"><ele>223.0</ele><time>2026-04-19T08:15:58.999Z</time></trkpt><trkpt lat="45.799631614675896" lon="9.086658597121138"><ele>223.0</ele><time>2026-04-19T08:16:00.999Z</time></trkpt><trkpt lat="45.79976116289389" lon="9.086656663489974"><ele>222.60000000000002</ele><time>2026-04-19T08:16:02.999Z</time></trkpt><trkpt lat="45.79985639878237" lon="9.086643797473123"><ele>222.20000000000002</ele><time>2026-04-19T08:16:03.999Z</time></trkpt><trkpt lat="45.799978609932886" lon="9.086627105456797"><ele>221.8</ele><time>2026-04-19T08:16:05.999Z</time></trkpt><trkpt lat="45.80010336921235" lon="9.086609722648689"><ele>221.4</ele><time>2026-04-19T08:16:07.999Z</time></trkpt><trkpt lat="45.80020625074345" lon="9.086585051231014"><ele>221.0</ele><time>2026-04-19T08:16:09.999Z</time></trkpt><trkpt lat="45.80029325504061" lon="9.086574174802111"><ele>220.50000000000003</ele><time>2026-04-19T08:16:11.999Z</time></trkpt><trkpt lat="45.80036053842159" lon="9.086571338692075"><ele>220.0</ele><time>2026-04-19T08:16:13.999Z</time></trkpt><trkpt lat="45.80046807734783" lon="9.08655940203154"><ele>219.5</ele><time>2026-04-19T08:16:15.999Z</time></trkpt><trkpt lat="45.80059425286448" lon="9.086540648190953"><ele>219.0</ele><time>2026-04-19T08:16:17.999Z</time></trkpt><trkpt lat="45.800659177244526" lon="9.086537744003625"><ele>218.50000000000003</ele><time>2026-04-19T08:16:18.999Z</time></trkpt><trkpt lat="45.800737032513226" lon="9.08651718055614"><ele>218.0</ele><time>2026-04-19T08:16:19.999Z</time></trkpt><trkpt lat="45.800812258159475" lon="9.08651005412437"><ele>218.0</ele><time>2026-04-19T08:16:20.999Z</time></trkpt><trkpt lat="45.80088774873868" lon="9.086494693993693"><ele>218.0</ele><time>2026-04-19T08:16:21.999Z</time></trkpt><trkpt lat="45.80095856721955" lon="9.08648610739184"><ele>218.0</ele><time>2026-04-19T08:16:22.999Z</time></trkpt><trkpt lat="45.8010260917863" lon="9.086486121322345"><ele>218.0</ele><time>2026-04-19T08:16:23.999Z</time></trkpt><trkpt lat="45.801172694782686" lon="9.086458200226335"><ele>218.0</ele><time>2026-04-19T08:16:25.999Z</time></trkpt><trkpt lat="45.801259899278136" lon="9.08644948384963"><ele>218.00000000000003</ele><time>2026-04-19T08:16:26.999Z</time></trkpt><trkpt lat="45.8013438276369" lon="9.086441921190605"><ele>218.0</ele><time>2026-04-19T08:16:27.999Z</time></trkpt><trkpt lat="45.80142860785941" lon="9.086424934569513"><ele>218.0</ele><time>2026-04-19T08:16:28.999Z</time></trkpt><trkpt lat="45.801517717387334" lon="9.086435397010007"><ele>218.0</ele><time>2026-04-19T08:16:29.998Z</time></trkpt><trkpt lat="45.80158981509596" lon="9.0864193321626"><ele>218.00000000000003</ele><time>2026-04-19T08:16:30.998Z</time></trkpt><trkpt lat="45.8017018597603" lon="9.08643590323854"><ele>218.0</ele><time>2026-04-19T08:16:32.998Z</time></trkpt><trkpt lat="45.80178337143629" lon="9.086432678685194"><ele>218.16666666666669</ele><time>2026-04-19T08:16:35Z</time></trkpt><trkpt lat="45.8018525708632" lon="9.086429313352784"><ele>218.33333333333334</ele><time>2026-04-19T08:16:41Z</time></trkpt><trkpt lat="45.80192718770261" lon="9.086425350797644"><ele>218.5</ele><time>2026-04-19T08:16:43Z</time></trkpt><trkpt lat="45.802021278384544" lon="9.08641923756977"><ele>218.66666666666669</ele><time>2026-04-19T08:16:45Z</time></trkpt><trkpt lat="45.802092693365644" lon="9.086414597609286"><ele>218.83333333333334</ele><time>2026-04-19T08:16:46Z</time></trkpt><trkpt lat="45.80217019573141" lon="9.086409553411597"><ele>219.0</ele><time>2026-04-19T08:16:47Z</time></trkpt><trkpt lat="45.80223955819465" lon="9.086405007630036"><ele>219.0</ele><time>2026-04-19T08:16:48Z</time></trkpt><trkpt lat="45.802307296982676" lon="9.086396248804883"><ele>219.0</ele><time>2026-04-19T08:16:49Z</time></trkpt><trkpt lat="45.80238148685627" lon="9.086386969989057"><ele>219.0</ele><time>2026-04-19T08:16:50Z</time></trkpt><trkpt lat="45.80245578224079" lon="9.086377677966299"><ele>219.0</ele><time>2026-04-19T08:16:51Z</time></trkpt><trkpt lat="45.80252816188412" lon="9.086371101015223"><ele>219.0</ele><time>2026-04-19T08:16:52Z</time></trkpt><trkpt lat="45.802601930109105" lon="9.086369678086353"><ele>219.0</ele><time>2026-04-19T08:16:53Z</time></trkpt><trkpt lat="45.80267922780075" lon="9.086374987205886"><ele>219.0</ele><time>2026-04-19T08:16:54Z</time></trkpt><trkpt lat="45.80275747279319" lon="9.086381747648"><ele>218.66666666666666</ele><time>2026-04-19T08:16:55Z</time></trkpt><trkpt lat="45.802837967259165" lon="9.086387396293134"><ele>218.33333333333331</ele><time>2026-04-19T08:16:56Z</time></trkpt><trkpt lat="45.802908501507105" lon="9.08638442961693"><ele>218.0</ele><time>2026-04-19T08:16:57Z</time></trkpt><trkpt lat="45.80298417075686" lon="9.086382681910038"><ele>217.66666666666666</ele><time>2026-04-19T08:16:58Z</time></trkpt><trkpt lat="45.80306457915794" lon="9.086379188751241"><ele>217.33333333333331</ele><time>2026-04-19T08:16:59Z</time></trkpt><trkpt lat="45.8031317638084" lon="9.086375113587899"><ele>217.0</ele><time>2026-04-19T08:17:00Z</time></trkpt><trkpt lat="45.80320940100211" lon="9.086368318890683"><ele>216.99999999999997</ele><time>2026-04-19T08:17:01Z</time></trkpt><trkpt lat="45.803286989578496" lon="9.086356625441711"><ele>217.0</ele><time>2026-04-19T08:17:02Z</time></trkpt><trkpt lat="45.80336269454629" lon="9.086342552245982"><ele>217.0</ele><time>2026-04-19T08:17:03Z</time></trkpt><trkpt lat="45.80344418311625" lon="9.086322556636608"><ele>217.0</ele><time>2026-04-19T08:17:04Z</time></trkpt><trkpt lat="45.803515545453514" lon="9.086301824463124"><ele>216.99999999999997</ele><time>2026-04-19T08:17:05Z</time></trkpt><trkpt lat="45.80358957417911" lon="9.08626998053934"><ele>217.0</ele><time>2026-04-19T08:17:06Z</time></trkpt><trkpt lat="45.80365751566434" lon="9.086248847160913"><ele>216.83333333333331</ele><time>2026-04-19T08:17:07Z</time></trkpt><trkpt lat="45.80372091496054" lon="9.08622189344287"><ele>216.66666666666666</ele><time>2026-04-19T08:17:08Z</time></trkpt><trkpt lat="45.80378895338226" lon="9.086188900803256"><ele>216.5</ele><time>2026-04-19T08:17:09Z</time></trkpt><trkpt lat="45.80385225398866" lon="9.086178579898188"><ele>216.33333333333331</ele><time>2026-04-19T08:17:10Z</time></trkpt><trkpt lat="45.8039735666507" lon="9.08612072854041"><ele>216.16666666666666</ele><time>2026-04-19T08:17:12Z</time></trkpt><trkpt lat="45.804042992358" lon="9.086110818129605"><ele>216.0</ele><time>2026-04-19T08:17:13Z</time></trkpt><trkpt lat="45.80412843441596" lon="9.086077739053854"><ele>216.0</ele><time>2026-04-19T08:17:14Z</time></trkpt><trkpt lat="45.804193839411724" lon="9.08605241738434"><ele>216.0</ele><time>2026-04-19T08:17:15Z</time></trkpt><trkpt lat="45.804253365657395" lon="9.08602068264074"><ele>216.0</ele><time>2026-04-19T08:17:16Z</time></trkpt><trkpt lat="45.80431636346919" lon="9.08598749624208"><ele>216.0</ele><time>2026-04-19T08:17:17Z</time></trkpt><trkpt lat="45.804387237841546" lon="9.085958320228691"><ele>216.0</ele><time>2026-04-19T08:17:18Z</time></trkpt><trkpt lat="45.80445916180737" lon="9.085928916755158"><ele>216.0</ele><time>2026-04-19T08:17:19Z</time></trkpt><trkpt lat="45.80454596520281" lon="9.085910984710782"><ele>216.0</ele><time>2026-04-19T08:17:20Z</time></trkpt><trkpt lat="45.80462604757133" lon="9.08587899413642"><ele>216.0</ele><time>2026-04-19T08:17:21Z</time></trkpt><trkpt lat="45.80469514611598" lon="9.085855516254245"><ele>216.0</ele><time>2026-04-19T08:17:22Z</time></trkpt><trkpt lat="45.804769231555476" lon="9.08583204251147"><ele>216.0</ele><time>2026-04-19T08:17:23Z</time></trkpt><trkpt lat="45.80483641830762" lon="9.085810545569684"><ele>216.0</ele><time>2026-04-19T08:17:24Z</time></trkpt><trkpt lat="45.804903728521055" lon="9.085781495130933"><ele>216.0</ele><time>2026-04-19T08:17:24.999Z</time></trkpt><trkpt lat="45.80497482958746" lon="9.085752128599712"><ele>216.0</ele><time>2026-04-19T08:17:25.999Z</time></trkpt><trkpt lat="45.805045829311275" lon="9.085731592642412"><ele>216.0</ele><time>2026-04-19T08:17:26.999Z</time></trkpt><trkpt lat="45.80512196472419" lon="9.085712474413814"><ele>215.8</ele><time>2026-04-19T08:17:27.999Z</time></trkpt><trkpt lat="45.805197052853316" lon="9.085672624192789"><ele>215.60000000000002</ele><time>2026-04-19T08:17:28.999Z</time></trkpt><trkpt lat="45.80528368764936" lon="9.08563865707279"><ele>215.4</ele><time>2026-04-19T08:17:29.999Z</time></trkpt><trkpt lat="45.80538379898331" lon="9.085621431444537"><ele>215.2</ele><time>2026-04-19T08:17:30.999Z</time></trkpt><trkpt lat="45.80547127144548" lon="9.085591078624464"><ele>215.0</ele><time>2026-04-19T08:17:31.999Z</time></trkpt><trkpt lat="45.805562098629494" lon="9.08555956189985"><ele>215.0</ele><time>2026-04-19T08:17:32.999Z</time></trkpt><trkpt lat="45.805624257802634" lon="9.085513671481104"><ele>215.0</ele><time>2026-04-19T08:17:33.999Z</time></trkpt><trkpt lat="45.805698138628955" lon="9.085500482494451"><ele>215.0</ele><time>2026-04-19T08:17:34.999Z</time></trkpt><trkpt lat="45.805767407097804" lon="9.085475673625988"><ele>215.0</ele><time>2026-04-19T08:17:35.999Z</time></trkpt><trkpt lat="45.80584108478258" lon="9.085455907205652"><ele>215.0</ele><time>2026-04-19T08:17:36.999Z</time></trkpt><trkpt lat="45.80590655146597" lon="9.085440297558737"><ele>215.0</ele><time>2026-04-19T08:17:37.999Z</time></trkpt><trkpt lat="45.805982667270676" lon="9.085421464236552"><ele>215.0</ele><time>2026-04-19T08:17:38.999Z</time></trkpt><trkpt lat="45.806090274786" lon="9.085386340486446"><ele>215.0</ele><time>2026-04-19T08:17:40.999Z</time></trkpt><trkpt lat="45.80618402030589" lon="9.085358368032601"><ele>215.0</ele><time>2026-04-19T08:17:42.999Z</time></trkpt><trkpt lat="45.80616844940823" lon="9.085658315820602"><ele>215.0</ele><time>2026-04-19T08:17:50.999Z</time></trkpt><trkpt lat="45.806091516570184" lon="9.085761167717376"><ele>215.0</ele><time>2026-04-19T08:17:51.999Z</time></trkpt><trkpt lat="45.80599821609244" lon="9.08585241436822"><ele>215.25</ele><time>2026-04-19T08:17:52.999Z</time></trkpt><trkpt lat="45.80589042027564" lon="9.085940971244286"><ele>215.5</ele><time>2026-04-19T08:17:53.999Z</time></trkpt><trkpt lat="45.8057769605799" lon="9.086044950055278"><ele>215.75</ele><time>2026-04-19T08:17:54.999Z</time></trkpt><trkpt lat="45.805627716953616" lon="9.08616501314887"><ele>216.0</ele><time>2026-04-19T08:17:55.999Z</time></trkpt><trkpt lat="45.80676820384504" lon="9.085853346850904"><ele>215.60000000000002</ele><time>2026-04-19T08:17:56.999Z</time></trkpt><trkpt lat="45.80678846162169" lon="9.086002054729176"><ele>215.20000000000002</ele><time>2026-04-19T08:17:57.999Z</time></trkpt><trkpt lat="45.80684620933914" lon="9.086118815500583"><ele>214.79999999999998</ele><time>2026-04-19T08:17:58.999Z</time></trkpt><trkpt lat="45.80690372909644" lon="9.086235115037342"><ele>214.39999999999998</ele><time>2026-04-19T08:17:59.999Z</time></trkpt><trkpt lat="45.80696219436695" lon="9.086353326755779"><ele>214.0</ele><time>2026-04-19T08:18:00.999Z</time></trkpt><trkpt lat="45.80702667423654" lon="9.086483913885811"><ele>214.2</ele><time>2026-04-19T08:18:01.999Z</time></trkpt><trkpt lat="45.8070918672592" lon="9.086616004981787"><ele>214.39999999999998</ele><time>2026-04-19T08:18:02.999Z</time></trkpt><trkpt lat="45.80715451061281" lon="9.086742929989795"><ele>214.6</ele><time>2026-04-19T08:18:03.999Z</time></trkpt><trkpt lat="45.807217345143506" lon="9.086870242130233"><ele>214.8</ele><time>2026-04-19T08:18:04.999Z</time></trkpt><trkpt lat="45.807281745099175" lon="9.087000559853976"><ele>215.0</ele><time>2026-04-19T08:18:05.999Z</time></trkpt><trkpt lat="45.80734359055095" lon="9.087125660475676"><ele>215.0</ele><time>2026-04-19T08:18:06.999Z</time></trkpt><trkpt lat="45.807406936356756" lon="9.087253771450978"><ele>215.0</ele><time>2026-04-19T08:18:07.999Z</time></trkpt><trkpt lat="45.80747004448192" lon="9.08738100011097"><ele>215.0</ele><time>2026-04-19T08:18:08.999Z</time></trkpt><trkpt lat="45.80752818960745" lon="9.087498364211264"><ele>215.0</ele><time>2026-04-19T08:18:09.999Z</time></trkpt><trkpt lat="45.8075793494638" lon="9.08759887707007"><ele>215.0</ele><time>2026-04-19T08:18:10.999Z</time></trkpt><trkpt lat="45.8076232255441" lon="9.087682365953615"><ele>214.2</ele><time>2026-04-19T08:18:11.999Z</time></trkpt><trkpt lat="45.80768880983724" lon="9.0878191700758"><ele>213.4</ele><time>2026-04-19T08:18:13.999Z</time></trkpt><trkpt lat="45.80775276237179" lon="9.08796067275133"><ele>212.60000000000002</ele><time>2026-04-19T08:18:15.999Z</time></trkpt><trkpt lat="45.80780608652072" lon="9.088063856860565"><ele>211.8</ele><time>2026-04-19T08:18:17.999Z</time></trkpt><trkpt lat="45.80784358651544" lon="9.088149886741647"><ele>211.0</ele><time>2026-04-19T08:18:21.999Z</time></trkpt><trkpt lat="45.80789050307535" lon="9.088221589703904"><ele>211.33333333333331</ele><time>2026-04-19T08:18:26.999Z</time></trkpt><trkpt lat="45.807932456895934" lon="9.08832686761983"><ele>211.66666666666666</ele><time>2026-04-19T08:19:32.999Z</time></trkpt><trkpt lat="45.80797390108341" lon="9.088439081864111"><ele>212.0</ele><time>2026-04-19T08:19:34.999Z</time></trkpt><trkpt lat="45.80804049718853" lon="9.088560741208363"><ele>212.33333333333331</ele><time>2026-04-19T08:19:36.999Z</time></trkpt><trkpt lat="45.808082258599214" lon="9.088638371877906"><ele>212.66666666666666</ele><time>2026-04-19T08:19:37.999Z</time></trkpt><trkpt lat="45.80812409207292" lon="9.088717033830694"><ele>213.0</ele><time>2026-04-19T08:19:38.999Z</time></trkpt><trkpt lat="45.80818049322694" lon="9.088823231549014"><ele>213.0</ele><time>2026-04-19T08:19:39.999Z</time></trkpt><trkpt lat="45.80825338236218" lon="9.088959145001965"><ele>213.0</ele><time>2026-04-19T08:19:40.999Z</time></trkpt><trkpt lat="45.80832531884519" lon="9.089120955613822"><ele>213.0</ele><time>2026-04-19T08:19:41.999Z</time></trkpt><trkpt lat="45.80840079332417" lon="9.089255922094384"><ele>213.0</ele><time>2026-04-19T08:19:42.999Z</time></trkpt><trkpt lat="45.80847155530135" lon="9.089380204976532"><ele>214.25</ele><time>2026-04-19T08:19:43.999Z</time></trkpt><trkpt lat="45.80854083875878" lon="9.08950174631818"><ele>215.5</ele><time>2026-04-19T08:19:44.999Z</time></trkpt><trkpt lat="45.80862037523444" lon="9.089616353180329"><ele>216.75</ele><time>2026-04-19T08:19:45.999Z</time></trkpt><trkpt lat="45.80867352836511" lon="9.089754936525345"><ele>218.0</ele><time>2026-04-19T08:19:46.999Z</time></trkpt><trkpt lat="45.80874398292647" lon="9.089894060502603"><ele>218.0</ele><time>2026-04-19T08:19:47.999Z</time></trkpt><trkpt lat="45.808816271226014" lon="9.090037362621864"><ele>218.0</ele><time>2026-04-19T08:19:48.999Z</time></trkpt><trkpt lat="45.808890287551606" lon="9.090179472912045"><ele>218.0</ele><time>2026-04-19T08:19:49.999Z</time></trkpt><trkpt lat="45.808971628143084" lon="9.090317958145498"><ele>218.0</ele><time>2026-04-19T08:19:50.999Z</time></trkpt><trkpt lat="45.80906396203178" lon="9.090454069605983"><ele>218.0</ele><time>2026-04-19T08:19:51.999Z</time></trkpt><trkpt lat="45.809153945847726" lon="9.090593491435259"><ele>218.0</ele><time>2026-04-19T08:19:52.999Z</time></trkpt><trkpt lat="45.80922508500322" lon="9.090763359430214"><ele>218.0</ele><time>2026-04-19T08:19:53.999Z</time></trkpt><trkpt lat="45.809306372125235" lon="9.090917863796598"><ele>218.0</ele><time>2026-04-19T08:19:54.999Z</time></trkpt><trkpt lat="45.80938251372977" lon="9.09106261045132"><ele>219.0</ele><time>2026-04-19T08:19:55.999Z</time></trkpt><trkpt lat="45.80946336282318" lon="9.09121543553008"><ele>220.0</ele><time>2026-04-19T08:19:56.999Z</time></trkpt><trkpt lat="45.80954385636522" lon="9.091364317391228"><ele>221.0</ele><time>2026-04-19T08:19:57.999Z</time></trkpt><trkpt lat="45.80961929408142" lon="9.091502003666031"><ele>222.0</ele><time>2026-04-19T08:19:58.999Z</time></trkpt><trkpt lat="45.809696101420414" lon="9.091634295696656"><ele>223.5</ele><time>2026-04-19T08:19:59.999Z</time></trkpt><trkpt lat="45.8097731263889" lon="9.091776453293287"><ele>225.0</ele><time>2026-04-19T08:20:00.999Z</time></trkpt><trkpt lat="45.80983870426509" lon="9.091932884602338"><ele>226.5</ele><time>2026-04-19T08:20:01.999Z</time></trkpt><trkpt lat="45.80991988188538" lon="9.092053150856684"><ele>228.0</ele><time>2026-04-19T08:20:02.999Z</time></trkpt><trkpt lat="45.80999744944227" lon="9.092179210243897"><ele>228.0</ele><time>2026-04-19T08:20:03.999Z</time></trkpt><trkpt lat="45.810065510516715" lon="9.092296546580135"><ele>228.0</ele><time>2026-04-19T08:20:04.999Z</time></trkpt><trkpt lat="45.810114225483446" lon="9.092430978341312"><ele>228.0</ele><time>2026-04-19T08:20:05.999Z</time></trkpt><trkpt lat="45.81016946371377" lon="9.092539060228766"><ele>228.0</ele><time>2026-04-19T08:20:06.999Z</time></trkpt><trkpt lat="45.81022607951402" lon="9.092643164247038"><ele>228.0</ele><time>2026-04-19T08:20:07.999Z</time></trkpt><trkpt lat="45.81026451749661" lon="9.092721485127022"><ele>229.2</ele><time>2026-04-19T08:20:08.999Z</time></trkpt><trkpt lat="45.81031029486504" lon="9.09283927536234"><ele>230.4</ele><time>2026-04-19T08:20:10.999Z</time></trkpt><trkpt lat="45.810350689889276" lon="9.092944824400167"><ele>231.59999999999997</ele><time>2026-04-19T08:20:13.999Z</time></trkpt><trkpt lat="45.81041555810521" lon="9.093019619371491"><ele>232.79999999999998</ele><time>2026-04-19T08:20:17.999Z</time></trkpt><trkpt lat="45.810485850220786" lon="9.093153518693054"><ele>234.0</ele><time>2026-04-19T08:20:19.999Z</time></trkpt><trkpt lat="45.810537091449156" lon="9.093245370591257"><ele>235.2</ele><time>2026-04-19T08:20:20.999Z</time></trkpt><trkpt lat="45.810587539831836" lon="9.093371406355326"><ele>236.39999999999998</ele><time>2026-04-19T08:20:21.999Z</time></trkpt><trkpt lat="45.81064305482792" lon="9.093478544752813"><ele>237.6</ele><time>2026-04-19T08:20:22.999Z</time></trkpt><trkpt lat="45.81069951039597" lon="9.0935665936248"><ele>238.8</ele><time>2026-04-19T08:20:23.999Z</time></trkpt><trkpt lat="45.81075341950971" lon="9.093673479668828"><ele>240.0</ele><time>2026-04-19T08:20:24.999Z</time></trkpt><trkpt lat="45.81079998666197" lon="9.093783893958527"><ele>240.0</ele><time>2026-04-19T08:20:25.999Z</time></trkpt><trkpt lat="45.81084546439505" lon="9.093886445564246"><ele>240.0</ele><time>2026-04-19T08:20:26.999Z</time></trkpt><trkpt lat="45.81088528262579" lon="9.093994235503306"><ele>240.0</ele><time>2026-04-19T08:20:27.999Z</time></trkpt><trkpt lat="45.81092628254693" lon="9.09409779827604"><ele>240.0</ele><time>2026-04-19T08:20:28.999Z</time></trkpt><trkpt lat="45.81096879461063" lon="9.094205258430403"><ele>240.0</ele><time>2026-04-19T08:20:29.999Z</time></trkpt><trkpt lat="45.81101383622269" lon="9.09430661221216"><ele>240.0</ele><time>2026-04-19T08:20:30.999Z</time></trkpt><trkpt lat="45.81104792843701" lon="9.094393434170742"><ele>243.33333333333334</ele><time>2026-04-19T08:20:31.998Z</time></trkpt><trkpt lat="45.811076822781196" lon="9.094487500411924"><ele>246.66666666666669</ele><time>2026-04-19T08:20:32.998Z</time></trkpt><trkpt lat="45.81110456732475" lon="9.094575093748457"><ele>250.0</ele><time>2026-04-19T08:20:33.998Z</time></trkpt><trkpt lat="45.81113634537757" lon="9.094676392731623"><ele>253.33333333333334</ele><time>2026-04-19T08:20:34.998Z</time></trkpt><trkpt lat="45.81118405509636" lon="9.09478229050879"><ele>256.6666666666667</ele><time>2026-04-19T08:20:35.998Z</time></trkpt><trkpt lat="45.81121199975878" lon="9.0948857496264"><ele>260.0</ele><time>2026-04-19T08:20:36.998Z</time></trkpt><trkpt lat="45.81125184253466" lon="9.094985033759643"><ele>262.83333333333337</ele><time>2026-04-19T08:20:37.998Z</time></trkpt><trkpt lat="45.811269666494056" lon="9.095089784511307"><ele>265.6666666666667</ele><time>2026-04-19T08:20:38.998Z</time></trkpt><trkpt lat="45.81125415614787" lon="9.095193291304192"><ele>268.5</ele><time>2026-04-19T08:20:39.998Z</time></trkpt><trkpt lat="45.81122744374426" lon="9.095293881340863"><ele>271.3333333333333</ele><time>2026-04-19T08:20:40.998Z</time></trkpt><trkpt lat="45.811192469120776" lon="9.095408706547653"><ele>274.16666666666663</ele><time>2026-04-19T08:20:41.998Z</time></trkpt><trkpt lat="45.811113485388105" lon="9.095479154615619"><ele>277.0</ele><time>2026-04-19T08:20:42.998Z</time></trkpt><trkpt lat="45.81104749482705" lon="9.09558239593156"><ele>275.4</ele><time>2026-04-19T08:20:43.998Z</time></trkpt><trkpt lat="45.81095959669929" lon="9.095647757338217"><ele>273.79999999999995</ele><time>2026-04-19T08:20:44.998Z</time></trkpt><trkpt lat="45.810854303035555" lon="9.09566283314376"><ele>272.2</ele><time>2026-04-19T08:20:45.998Z</time></trkpt><trkpt lat="45.81076860416122" lon="9.095706594272425"><ele>270.59999999999997</ele><time>2026-04-19T08:20:47Z</time></trkpt><trkpt lat="45.810657105032824" lon="9.095737343933918"><ele>269.0</ele><time>2026-04-19T08:20:48Z</time></trkpt><trkpt lat="45.81055925924627" lon="9.095801101316043"><ele>269.0</ele><time>2026-04-19T08:20:49Z</time></trkpt><trkpt lat="45.81047609119017" lon="9.095871179796687"><ele>269.0</ele><time>2026-04-19T08:20:50Z</time></trkpt><trkpt lat="45.8104238845845" lon="9.095930025960891"><ele>269.0</ele><time>2026-04-19T08:20:51Z</time></trkpt><trkpt lat="45.81031581634437" lon="9.096066886848236"><ele>269.0</ele><time>2026-04-19T08:20:52Z</time></trkpt><trkpt lat="45.810219253296715" lon="9.096200957738445"><ele>269.0</ele><time>2026-04-19T08:20:53Z</time></trkpt><trkpt lat="45.81014292996279" lon="9.096310652096612"><ele>270.4</ele><time>2026-04-19T08:20:54Z</time></trkpt><trkpt lat="45.81006361132579" lon="9.096417055948931"><ele>271.79999999999995</ele><time>2026-04-19T08:20:55Z</time></trkpt><trkpt lat="45.80998506311364" lon="9.09652260886696"><ele>273.20000000000005</ele><time>2026-04-19T08:20:56Z</time></trkpt><trkpt lat="45.80990407604339" lon="9.096613689559376"><ele>274.6</ele><time>2026-04-19T08:20:57Z</time></trkpt><trkpt lat="45.8098244887159" lon="9.096709335966038"><ele>276.0</ele><time>2026-04-19T08:20:58Z</time></trkpt><trkpt lat="45.809748372033845" lon="9.096803338916887"><ele>276.0</ele><time>2026-04-19T08:20:59Z</time></trkpt><trkpt lat="45.809667621286415" lon="9.09689918119712"><ele>276.0</ele><time>2026-04-19T08:21:00Z</time></trkpt><trkpt lat="45.809573456127204" lon="9.096994106942349"><ele>276.0</ele><time>2026-04-19T08:21:01Z</time></trkpt><trkpt lat="45.80951567428487" lon="9.097148832943383"><ele>276.0</ele><time>2026-04-19T08:21:02Z</time></trkpt><trkpt lat="45.80944645929349" lon="9.097267165798227"><ele>276.0</ele><time>2026-04-19T08:21:03Z</time></trkpt><trkpt lat="45.80937026358093" lon="9.097352733771476"><ele>276.0</ele><time>2026-04-19T08:21:04Z</time></trkpt><trkpt lat="45.8092614862731" lon="9.097393342676995"><ele>276.0</ele><time>2026-04-19T08:21:05Z</time></trkpt><trkpt lat="45.80914635185553" lon="9.097452674767686"><ele>276.0</ele><time>2026-04-19T08:21:06Z</time></trkpt><trkpt lat="45.809019651325" lon="9.097511091441858"><ele>278.5</ele><time>2026-04-19T08:21:07Z</time></trkpt><trkpt lat="45.80888806441882" lon="9.097592076755468"><ele>281.0</ele><time>2026-04-19T08:21:08Z</time></trkpt><trkpt lat="45.80876267317728" lon="9.097688867583795"><ele>283.5</ele><time>2026-04-19T08:21:09Z</time></trkpt><trkpt lat="45.80862323158073" lon="9.097795779763493"><ele>286.0</ele><time>2026-04-19T08:21:10Z</time></trkpt><trkpt lat="45.808471191392094" lon="9.097907196384847"><ele>280.25</ele><time>2026-04-19T08:21:11Z</time></trkpt><trkpt lat="45.80835006512582" lon="9.098000495972887"><ele>274.5</ele><time>2026-04-19T08:21:12Z</time></trkpt><trkpt lat="45.808239228720566" lon="9.09807423258367"><ele>268.75</ele><time>2026-04-19T08:21:13Z</time></trkpt><trkpt lat="45.808144335076776" lon="9.09817158986825"><ele>263.0</ele><time>2026-04-19T08:21:14Z</time></trkpt><trkpt lat="45.808047107165976" lon="9.098246570141814"><ele>270.8</ele><time>2026-04-19T08:21:15Z</time></trkpt><trkpt lat="45.807954198866625" lon="9.098295912378802"><ele>278.6</ele><time>2026-04-19T08:21:16Z</time></trkpt><trkpt lat="45.80786909307258" lon="9.098377907991631"><ele>286.4</ele><time>2026-04-19T08:21:17Z</time></trkpt><trkpt lat="45.80782016632137" lon="9.098479284152972"><ele>294.2</ele><time>2026-04-19T08:21:18Z</time></trkpt><trkpt lat="45.80776418435157" lon="9.098585402406524"><ele>302.0</ele><time>2026-04-19T08:21:19Z</time></trkpt><trkpt lat="45.80768011592653" lon="9.098711519003915"><ele>302.2</ele><time>2026-04-19T08:21:20Z</time></trkpt><trkpt lat="45.80762209830527" lon="9.098841061852687"><ele>302.4</ele><time>2026-04-19T08:21:21Z</time></trkpt><trkpt lat="45.807577047607495" lon="9.098982518533552"><ele>302.6</ele><time>2026-04-19T08:21:22Z</time></trkpt><trkpt lat="45.8075423503981" lon="9.099118995153422"><ele>302.8</ele><time>2026-04-19T08:21:23Z</time></trkpt><trkpt lat="45.80751079116417" lon="9.099277126308424"><ele>303.0</ele><time>2026-04-19T08:21:24Z</time></trkpt><trkpt lat="45.80747890075191" lon="9.09944369041329"><ele>303.0</ele><time>2026-04-19T08:21:25Z</time></trkpt><trkpt lat="45.807429446583704" lon="9.09958477048568"><ele>303.0</ele><time>2026-04-19T08:21:26Z</time></trkpt><trkpt lat="45.80739739029523" lon="9.099735928945309"><ele>303.0</ele><time>2026-04-19T08:21:27Z</time></trkpt><trkpt lat="45.807369422466024" lon="9.09986506718304"><ele>303.0</ele><time>2026-04-19T08:21:28Z</time></trkpt><trkpt lat="45.80733659556375" lon="9.099976666364206"><ele>303.0</ele><time>2026-04-19T08:21:29Z</time></trkpt><trkpt lat="45.80731506858096" lon="9.100065018151085"><ele>305.5</ele><time>2026-04-19T08:21:30Z</time></trkpt><trkpt lat="45.80730772312589" lon="9.100159117988383"><ele>308.0</ele><time>2026-04-19T08:21:31Z</time></trkpt><trkpt lat="45.80729232288578" lon="9.100253734906437"><ele>310.5</ele><time>2026-04-19T08:21:32Z</time></trkpt><trkpt lat="45.80729584202761" lon="9.100347038769895"><ele>313.0</ele><time>2026-04-19T08:21:33Z</time></trkpt><trkpt lat="45.8073504017873" lon="9.100468253524985"><ele>315.5</ele><time>2026-04-19T08:21:34Z</time></trkpt><trkpt lat="45.80739907071698" lon="9.100563994261034"><ele>318.0</ele><time>2026-04-19T08:21:35Z</time></trkpt><trkpt lat="45.807466548177935" lon="9.100645353269915"><ele>318.0</ele><time>2026-04-19T08:21:36Z</time></trkpt><trkpt lat="45.80753045888526" lon="9.100707467751443"><ele>318.0</ele><time>2026-04-19T08:21:37Z</time></trkpt><trkpt lat="45.807580593522886" lon="9.10078913012775"><ele>318.0</ele><time>2026-04-19T08:21:37.999Z</time></trkpt><trkpt lat="45.807659280636614" lon="9.100869855187039"><ele>318.0</ele><time>2026-04-19T08:21:39.999Z</time></trkpt><trkpt lat="45.807756059450234" lon="9.100757355954011"><ele>318.0</ele><time>2026-04-19T08:21:41.999Z</time></trkpt><trkpt lat="45.80772584826619" lon="9.10063137472736"><ele>318.0</ele><time>2026-04-19T08:21:42.999Z</time></trkpt><trkpt lat="45.80768757754295" lon="9.100517507882822"><ele>318.0</ele><time>2026-04-19T08:21:43.999Z</time></trkpt><trkpt lat="45.80765573258904" lon="9.100393083355621"><ele>318.0</ele><time>2026-04-19T08:21:44.999Z</time></trkpt><trkpt lat="45.80766656407429" lon="9.100275021244776"><ele>318.0</ele><time>2026-04-19T08:21:45.999Z</time></trkpt><trkpt lat="45.807736303835284" lon="9.100178819257582"><ele>318.0</ele><time>2026-04-19T08:21:46.999Z</time></trkpt><trkpt lat="45.80780102022688" lon="9.10006179516825"><ele>321.0</ele><time>2026-04-19T08:21:47.999Z</time></trkpt><trkpt lat="45.807877140076165" lon="9.099954221608373"><ele>324.0</ele><time>2026-04-19T08:21:48.999Z</time></trkpt><trkpt lat="45.80794523003377" lon="9.099834524171403"><ele>327.0</ele><time>2026-04-19T08:21:49.999Z</time></trkpt><trkpt lat="45.80802093456203" lon="9.09972715054749"><ele>330.0</ele><time>2026-04-19T08:21:50.999Z</time></trkpt><trkpt lat="45.808083388871005" lon="9.09962615633763"><ele>333.0</ele><time>2026-04-19T08:21:51.999Z</time></trkpt><trkpt lat="45.80815610772475" lon="9.099536265159516"><ele>333.0</ele><time>2026-04-19T08:21:52.999Z</time></trkpt><trkpt lat="45.80824725078088" lon="9.099490174899989"><ele>333.0</ele><time>2026-04-19T08:21:53.999Z</time></trkpt><trkpt lat="45.80833420646531" lon="9.099430900798382"><ele>333.0</ele><time>2026-04-19T08:21:54.999Z</time></trkpt><trkpt lat="45.808415978556745" lon="9.099360050598662"><ele>333.0</ele><time>2026-04-19T08:21:55.999Z</time></trkpt><trkpt lat="45.80850109471073" lon="9.099325430899743"><ele>333.0</ele><time>2026-04-19T08:21:56.999Z</time></trkpt><trkpt lat="45.80859362535763" lon="9.09933624176311"><ele>336.2</ele><time>2026-04-19T08:21:57.999Z</time></trkpt><trkpt lat="45.80869736839155" lon="9.099311489720545"><ele>339.4</ele><time>2026-04-19T08:21:58.999Z</time></trkpt><trkpt lat="45.808786694837515" lon="9.099298813580413"><ele>342.59999999999997</ele><time>2026-04-19T08:21:59.999Z</time></trkpt><trkpt lat="45.808858970004266" lon="9.099292609943593"><ele>345.79999999999995</ele><time>2026-04-19T08:22:00.999Z</time></trkpt><trkpt lat="45.808953877303026" lon="9.099388369894864"><ele>349.0</ele><time>2026-04-19T08:22:02.999Z</time></trkpt><trkpt lat="45.80895857727723" lon="9.099508475256068"><ele>349.0</ele><time>2026-04-19T08:22:03.999Z</time></trkpt><trkpt lat="45.80894361496886" lon="9.099618845182444"><ele>349.0</ele><time>2026-04-19T08:22:04.999Z</time></trkpt><trkpt lat="45.80888680933219" lon="9.099707908805001"><ele>349.0</ele><time>2026-04-19T08:22:05.999Z</time></trkpt><trkpt lat="45.808838355478436" lon="9.099825237024323"><ele>349.0</ele><time>2026-04-19T08:22:06.999Z</time></trkpt><trkpt lat="45.808782620250085" lon="9.099955921803398"><ele>349.0</ele><time>2026-04-19T08:22:07.999Z</time></trkpt><trkpt lat="45.80873383221062" lon="9.10007721578566"><ele>354.75</ele><time>2026-04-19T08:22:08.999Z</time></trkpt><trkpt lat="45.80869654469774" lon="9.10021929956355"><ele>360.5</ele><time>2026-04-19T08:22:09.999Z</time></trkpt><trkpt lat="45.80864236634835" lon="9.10035533634195"><ele>366.25</ele><time>2026-04-19T08:22:10.999Z</time></trkpt><trkpt lat="45.808575675906916" lon="9.10050412913638"><ele>372.0</ele><time>2026-04-19T08:22:11.999Z</time></trkpt><trkpt lat="45.808521353123815" lon="9.100672456532466"><ele>367.75</ele><time>2026-04-19T08:22:12.999Z</time></trkpt><trkpt lat="45.808460189257985" lon="9.100830373719667"><ele>363.5</ele><time>2026-04-19T08:22:13.999Z</time></trkpt><trkpt lat="45.80839937380012" lon="9.100986052545785"><ele>359.25</ele><time>2026-04-19T08:22:14.999Z</time></trkpt><trkpt lat="45.80833298227328" lon="9.10115346250895"><ele>355.0</ele><time>2026-04-19T08:22:15.999Z</time></trkpt><trkpt lat="45.80826763224607" lon="9.101323920739361"><ele>355.0</ele><time>2026-04-19T08:22:16.999Z</time></trkpt><trkpt lat="45.80820600020164" lon="9.101505701257475"><ele>355.0</ele><time>2026-04-19T08:22:17.999Z</time></trkpt><trkpt lat="45.808154984963174" lon="9.101686617323558"><ele>355.0</ele><time>2026-04-19T08:22:18.999Z</time></trkpt><trkpt lat="45.80808417017261" lon="9.101871349370496"><ele>355.0</ele><time>2026-04-19T08:22:19.999Z</time></trkpt><trkpt lat="45.80806251186597" lon="9.102050197241544"><ele>357.8</ele><time>2026-04-19T08:22:20.999Z</time></trkpt><trkpt lat="45.80801750024042" lon="9.102220362198032"><ele>360.6</ele><time>2026-04-19T08:22:21.999Z</time></trkpt><trkpt lat="45.80798722801975" lon="9.102393818818886"><ele>363.4</ele><time>2026-04-19T08:22:22.999Z</time></trkpt><trkpt lat="45.807979102807515" lon="9.102537505926453"><ele>366.2</ele><time>2026-04-19T08:22:23.999Z</time></trkpt><trkpt lat="45.80795687902232" lon="9.102648022533371"><ele>369.0</ele><time>2026-04-19T08:22:24.999Z</time></trkpt><trkpt lat="45.80793705644553" lon="9.102752354459243"><ele>371.4</ele><time>2026-04-19T08:22:25.999Z</time></trkpt><trkpt lat="45.80795461610585" lon="9.10287116286532"><ele>373.79999999999995</ele><time>2026-04-19T08:22:26.999Z</time></trkpt><trkpt lat="45.80798909760912" lon="9.102998164964104"><ele>376.20000000000005</ele><time>2026-04-19T08:22:27.999Z</time></trkpt><trkpt lat="45.80803354948702" lon="9.10311979883716"><ele>378.6</ele><time>2026-04-19T08:22:28.999Z</time></trkpt><trkpt lat="45.8080749531261" lon="9.103245311660903"><ele>381.0</ele><time>2026-04-19T08:22:29.999Z</time></trkpt><trkpt lat="45.808122122809294" lon="9.103365917395303"><ele>382.0</ele><time>2026-04-19T08:22:30.999Z</time></trkpt><trkpt lat="45.80815945901416" lon="9.103474284784678"><ele>383.0</ele><time>2026-04-19T08:22:31.999Z</time></trkpt><trkpt lat="45.80818496878466" lon="9.103558011984806"><ele>384.0</ele><time>2026-04-19T08:22:32.999Z</time></trkpt><trkpt lat="45.80819381943409" lon="9.103652567613212"><ele>385.0</ele><time>2026-04-19T08:22:33.999Z</time></trkpt><trkpt lat="45.80823798565461" lon="9.103776677187977"><ele>386.0</ele><time>2026-04-19T08:22:35.999Z</time></trkpt><trkpt lat="45.80834251715459" lon="9.10375860808478"><ele>387.0</ele><time>2026-04-19T08:22:37.999Z</time></trkpt><trkpt lat="45.80838268738184" lon="9.103639203473252"><ele>387.0</ele><time>2026-04-19T08:22:38.999Z</time></trkpt><trkpt lat="45.80840627248781" lon="9.103532752853525"><ele>387.0</ele><time>2026-04-19T08:22:39.999Z</time></trkpt><trkpt lat="45.80844477613129" lon="9.103436835353525"><ele>387.0</ele><time>2026-04-19T08:22:40.999Z</time></trkpt><trkpt lat="45.80848746336658" lon="9.103327351621807"><ele>387.0</ele><time>2026-04-19T08:22:41.999Z</time></trkpt><trkpt lat="45.808542611486814" lon="9.10323055151299"><ele>387.0</ele><time>2026-04-19T08:22:42.999Z</time></trkpt><trkpt lat="45.80863127626314" lon="9.103145242835803"><ele>387.0</ele><time>2026-04-19T08:22:43.999Z</time></trkpt><trkpt lat="45.80872897368817" lon="9.10306004416608"><ele>391.20000000000005</ele><time>2026-04-19T08:22:44.999Z</time></trkpt><trkpt lat="45.808809487924506" lon="9.102952716108318"><ele>395.4</ele><time>2026-04-19T08:22:45.998Z</time></trkpt><trkpt lat="45.80888119788885" lon="9.102829852840562"><ele>399.6</ele><time>2026-04-19T08:22:46.998Z</time></trkpt><trkpt lat="45.808953513861034" lon="9.102708122367728"><ele>403.79999999999995</ele><time>2026-04-19T08:22:47.998Z</time></trkpt><trkpt lat="45.80902350723578" lon="9.102585284913546"><ele>408.0</ele><time>2026-04-19T08:22:48.998Z</time></trkpt><trkpt lat="45.80909413280153" lon="9.102461070736979"><ele>406.2</ele><time>2026-04-19T08:22:49.998Z</time></trkpt><trkpt lat="45.80916460895987" lon="9.10234740197868"><ele>404.4</ele><time>2026-04-19T08:22:50.998Z</time></trkpt><trkpt lat="45.80923764720699" lon="9.102238657160449"><ele>402.59999999999997</ele><time>2026-04-19T08:22:51.998Z</time></trkpt><trkpt lat="45.80929985088137" lon="9.102122114805688"><ele>400.79999999999995</ele><time>2026-04-19T08:22:53Z</time></trkpt><trkpt lat="45.809347385177794" lon="9.101998504503038"><ele>399.0</ele><time>2026-04-19T08:22:54Z</time></trkpt><trkpt lat="45.809382946173116" lon="9.101874277183764"><ele>402.25</ele><time>2026-04-19T08:22:55Z</time></trkpt><trkpt lat="45.809444607708805" lon="9.101752828821791"><ele>405.5</ele><time>2026-04-19T08:22:56Z</time></trkpt><trkpt lat="45.80954539014122" lon="9.101660423051436"><ele>408.75</ele><time>2026-04-19T08:22:57Z</time></trkpt><trkpt lat="45.809658987712204" lon="9.101562694322899"><ele>412.0</ele><time>2026-04-19T08:22:58Z</time></trkpt><trkpt lat="45.80979446983324" lon="9.10146821559938"><ele>412.0</ele><time>2026-04-19T08:22:59Z</time></trkpt><trkpt lat="45.80992249032029" lon="9.101398882804293"><ele>412.0</ele><time>2026-04-19T08:23:00Z</time></trkpt><trkpt lat="45.81004805603963" lon="9.101325337933233"><ele>412.0</ele><time>2026-04-19T08:23:01Z</time></trkpt><trkpt lat="45.80993311448896" lon="9.101341686394896"><ele>412.0</ele><time>2026-04-19T08:23:02Z</time></trkpt><trkpt lat="45.810020198572104" lon="9.10128789027101"><ele>412.0</ele><time>2026-04-19T08:23:03Z</time></trkpt><trkpt lat="45.810097771210884" lon="9.101205863293618"><ele>412.0</ele><time>2026-04-19T08:23:04Z</time></trkpt><trkpt lat="45.81015042018715" lon="9.101082243171147"><ele>412.0</ele><time>2026-04-19T08:23:05Z</time></trkpt><trkpt lat="45.810181510194056" lon="9.100930367968298"><ele>412.0</ele><time>2026-04-19T08:23:06Z</time></trkpt><trkpt lat="45.810208528191104" lon="9.100793837917333"><ele>412.0</ele><time>2026-04-19T08:23:07Z</time></trkpt><trkpt lat="45.810240567982525" lon="9.100668994360136"><ele>413.00000000000006</ele><time>2026-04-19T08:23:08Z</time></trkpt><trkpt lat="45.81027273984225" lon="9.100568605993038"><ele>414.0</ele><time>2026-04-19T08:23:09Z</time></trkpt><trkpt lat="45.81038675681027" lon="9.100510146642547"><ele>415.0</ele><time>2026-04-19T08:23:11Z</time></trkpt><trkpt lat="45.810436170766934" lon="9.100599681781123"><ele>416.0</ele><time>2026-04-19T08:23:12Z</time></trkpt><trkpt lat="45.81046649567601" lon="9.100687515341056"><ele>417.00000000000006</ele><time>2026-04-19T08:23:13Z</time></trkpt><trkpt lat="45.8104953598931" lon="9.100780540596011"><ele>418.0</ele><time>2026-04-19T08:23:14Z</time></trkpt><trkpt lat="45.810440947439226" lon="9.10090880405561"><ele>420.2</ele><time>2026-04-19T08:23:15Z</time></trkpt><trkpt lat="45.810398003176246" lon="9.10104687450376"><ele>422.4</ele><time>2026-04-19T08:23:16Z</time></trkpt><trkpt lat="45.81035504524535" lon="9.101189170787825"><ele>424.59999999999997</ele><time>2026-04-19T08:23:17Z</time></trkpt><trkpt lat="45.810310295242694" lon="9.101333559498578"><ele>426.79999999999995</ele><time>2026-04-19T08:23:18Z</time></trkpt><trkpt lat="45.810253256123445" lon="9.101484604747249"><ele>429.0</ele><time>2026-04-19T08:23:19Z</time></trkpt><trkpt lat="45.81016732660648" lon="9.101594303439997"><ele>427.5</ele><time>2026-04-19T08:23:20Z</time></trkpt><trkpt lat="45.81007440824569" lon="9.101706834021146"><ele>426.0</ele><time>2026-04-19T08:23:21Z</time></trkpt><trkpt lat="45.80998102894777" lon="9.101819412306538"><ele>424.5</ele><time>2026-04-19T08:23:22Z</time></trkpt><trkpt lat="45.80991001519959" lon="9.101965702323612"><ele>423.0</ele><time>2026-04-19T08:23:23Z</time></trkpt><trkpt lat="45.80985360849754" lon="9.102100596345732"><ele>423.0</ele><time>2026-04-19T08:23:24Z</time></trkpt><trkpt lat="45.809819337560306" lon="9.102251071809725"><ele>423.0</ele><time>2026-04-19T08:23:25Z</time></trkpt><trkpt lat="45.809791107693016" lon="9.102401194302203"><ele>423.0</ele><time>2026-04-19T08:23:26Z</time></trkpt><trkpt lat="45.80976022266469" lon="9.102559207782312"><ele>423.0</ele><time>2026-04-19T08:23:27Z</time></trkpt><trkpt lat="45.80973208242824" lon="9.102693806526196"><ele>423.0</ele><time>2026-04-19T08:23:28Z</time></trkpt><trkpt lat="45.80970248483666" lon="9.102838966913948"><ele>427.75</ele><time>2026-04-19T08:23:29Z</time></trkpt><trkpt lat="45.80967082326632" lon="9.102998669900872"><ele>432.5</ele><time>2026-04-19T08:23:30Z</time></trkpt><trkpt lat="45.80963828130828" lon="9.103158617561682"><ele>437.25</ele><time>2026-04-19T08:23:31Z</time></trkpt><trkpt lat="45.809622574489495" lon="9.103316353749143"><ele>442.0</ele><time>2026-04-19T08:23:32Z</time></trkpt><trkpt lat="45.80958708670644" lon="9.10346438450044"><ele>446.0</ele><time>2026-04-19T08:23:33Z</time></trkpt><trkpt lat="45.80955359530652" lon="9.103626565786538"><ele>450.00000000000006</ele><time>2026-04-19T08:23:34Z</time></trkpt><trkpt lat="45.80952108724364" lon="9.103788423529638"><ele>454.00000000000006</ele><time>2026-04-19T08:23:35Z</time></trkpt><trkpt lat="45.80949099248165" lon="9.103930826665916"><ele>458.0</ele><time>2026-04-19T08:23:36Z</time></trkpt><trkpt lat="45.80946631198067" lon="9.104066418673785"><ele>462.0</ele><time>2026-04-19T08:23:37Z</time></trkpt><trkpt lat="45.80944542636996" lon="9.104194419884724"><ele>464.0</ele><time>2026-04-19T08:23:38Z</time></trkpt><trkpt lat="45.809423535065484" lon="9.104285850491358"><ele>466.0</ele><time>2026-04-19T08:23:39Z</time></trkpt><trkpt lat="45.8093831573859" lon="9.104429305824484"><ele>468.0</ele><time>2026-04-19T08:23:41Z</time></trkpt><trkpt lat="45.80939587831054" lon="9.104549821850332"><ele>470.0</ele><time>2026-04-19T08:23:42.999Z</time></trkpt><trkpt lat="45.8094714321307" lon="9.10456857328874"><ele>472.0</ele><time>2026-04-19T08:23:43.999Z</time></trkpt><trkpt lat="45.809538420306474" lon="9.104524810299214"><ele>474.0</ele><time>2026-04-19T08:23:44.999Z</time></trkpt><trkpt lat="45.80956239271609" lon="9.104395601918966"><ele>474.0</ele><time>2026-04-19T08:23:45.999Z</time></trkpt><trkpt lat="45.809585664195964" lon="9.104275801222279"><ele>474.0</ele><time>2026-04-19T08:23:46.999Z</time></trkpt><trkpt lat="45.80962771027557" lon="9.104180187842784"><ele>474.0</ele><time>2026-04-19T08:23:47.999Z</time></trkpt><trkpt lat="45.80968518465173" lon="9.10408823889732"><ele>474.0</ele><time>2026-04-19T08:23:48.999Z</time></trkpt><trkpt lat="45.809745976376476" lon="9.10399783659175"><ele>474.0</ele><time>2026-04-19T08:23:49.999Z</time></trkpt><trkpt lat="45.80980299622984" lon="9.103886565658373"><ele>474.0</ele><time>2026-04-19T08:23:50.999Z</time></trkpt><trkpt lat="45.80985195710567" lon="9.103783836813463"><ele>472.0</ele><time>2026-04-19T08:23:51.999Z</time></trkpt><trkpt lat="45.809915994642914" lon="9.103650515104299"><ele>470.0</ele><time>2026-04-19T08:23:53.999Z</time></trkpt><trkpt lat="45.8099493059601" lon="9.103567097018743"><ele>468.0</ele><time>2026-04-19T08:23:58.999Z</time></trkpt><trkpt lat="45.80998495358327" lon="9.103487778302382"><ele>466.0</ele><time>2026-04-19T08:24:00.999Z</time></trkpt><trkpt lat="45.810049399779956" lon="9.103370299217788"><ele>464.0</ele><time>2026-04-19T08:24:02.999Z</time></trkpt><trkpt lat="45.810134703197924" lon="9.1033213428309"><ele>462.0</ele><time>2026-04-19T08:24:04.999Z</time></trkpt><trkpt lat="45.810215508009826" lon="9.103262239511377"><ele>463.20000000000005</ele><time>2026-04-19T08:24:06.999Z</time></trkpt><trkpt lat="45.81027893050999" lon="9.103202537184533"><ele>464.40000000000003</ele><time>2026-04-19T08:24:08.999Z</time></trkpt><trkpt lat="45.81037369284092" lon="9.103163667012389"><ele>465.59999999999997</ele><time>2026-04-19T08:24:18.999Z</time></trkpt><trkpt lat="45.81047548453345" lon="9.103116814689786"><ele>466.79999999999995</ele><time>2026-04-19T08:24:20.999Z</time></trkpt><trkpt lat="45.81060018377699" lon="9.10306717212027"><ele>468.0</ele><time>2026-04-19T08:24:22.999Z</time></trkpt><trkpt lat="45.810662651982256" lon="9.103039282842685"><ele>468.0</ele><time>2026-04-19T08:24:23.999Z</time></trkpt><trkpt lat="45.81074927740318" lon="9.10295061951293"><ele>467.99999999999994</ele><time>2026-04-19T08:24:25.999Z</time></trkpt><trkpt lat="45.81081465932081" lon="9.102942946563347"><ele>467.99999999999994</ele><time>2026-04-19T08:24:27.999Z</time></trkpt><trkpt lat="45.81076065365441" lon="9.103084117069228"><ele>468.0</ele><time>2026-04-19T08:24:31.999Z</time></trkpt><trkpt lat="45.81069425933333" lon="9.103112036363967"><ele>468.0</ele><time>2026-04-19T08:24:32.999Z</time></trkpt><trkpt lat="45.810594968180126" lon="9.103224961953766"><ele>474.2</ele><time>2026-04-19T08:24:34.999Z</time></trkpt><trkpt lat="45.81054612330746" lon="9.103282389488664"><ele>480.4</ele><time>2026-04-19T08:24:35.999Z</time></trkpt><trkpt lat="45.81046160092645" lon="9.103401891491966"><ele>486.59999999999997</ele><time>2026-04-19T08:24:37.999Z</time></trkpt><trkpt lat="45.81037276842767" lon="9.103544139122672"><ele>492.79999999999995</ele><time>2026-04-19T08:24:39.999Z</time></trkpt><trkpt lat="45.81034415422994" lon="9.103628719568093"><ele>499.0</ele><time>2026-04-19T08:24:40.999Z</time></trkpt><trkpt lat="45.81030888448991" lon="9.103734961888371"><ele>499.00000000000006</ele><time>2026-04-19T08:24:41.999Z</time></trkpt><trkpt lat="45.81029195669231" lon="9.103863103504024"><ele>499.0</ele><time>2026-04-19T08:24:42.999Z</time></trkpt><trkpt lat="45.81026315325843" lon="9.103980477759535"><ele>499.0</ele><time>2026-04-19T08:24:43.999Z</time></trkpt><trkpt lat="45.810258788650806" lon="9.104096558407235"><ele>499.0</ele><time>2026-04-19T08:24:44.999Z</time></trkpt><trkpt lat="45.81025151646305" lon="9.104187919135638"><ele>499.00000000000006</ele><time>2026-04-19T08:24:45.999Z</time></trkpt><trkpt lat="45.81024931689364" lon="9.10432918231746"><ele>499.0</ele><time>2026-04-19T08:24:47.999Z</time></trkpt><trkpt lat="45.81035781948657" lon="9.104377302551226"><ele>499.00000000000006</ele><time>2026-04-19T08:24:49.999Z</time></trkpt><trkpt lat="45.810417172114946" lon="9.104317817995815"><ele>499.0</ele><time>2026-04-19T08:24:50.998Z</time></trkpt><trkpt lat="45.81041920017615" lon="9.104196507879914"><ele>499.0</ele><time>2026-04-19T08:24:51.998Z</time></trkpt><trkpt lat="45.81045609327874" lon="9.104092454668578"><ele>499.0</ele><time>2026-04-19T08:24:52.998Z</time></trkpt><trkpt lat="45.810495968364194" lon="9.10398326256133"><ele>499.00000000000006</ele><time>2026-04-19T08:24:53.998Z</time></trkpt><trkpt lat="45.81055160598925" lon="9.103884737617946"><ele>499.0</ele><time>2026-04-19T08:24:54.998Z</time></trkpt><trkpt lat="45.81062019285907" lon="9.103795117431991"><ele>499.00000000000006</ele><time>2026-04-19T08:24:55.998Z</time></trkpt><trkpt lat="45.81069458548768" lon="9.103720603335683"><ele>499.0</ele><time>2026-04-19T08:24:56.998Z</time></trkpt><trkpt lat="45.81075579048827" lon="9.103679855404918"><ele>499.0</ele><time>2026-04-19T08:24:57.998Z</time></trkpt><trkpt lat="45.81083115924246" lon="9.10362165217225"><ele>499.0</ele><time>2026-04-19T08:24:59Z</time></trkpt><trkpt lat="45.81090434553207" lon="9.103572503051355"><ele>499.00000000000006</ele><time>2026-04-19T08:25:00Z</time></trkpt><trkpt lat="45.81096338478117" lon="9.103518999392326"><ele>499.0</ele><time>2026-04-19T08:25:01Z</time></trkpt><trkpt lat="45.81102305168551" lon="9.103445778632867"><ele>501.28571428571433</ele><time>2026-04-19T08:25:02Z</time></trkpt><trkpt lat="45.81106797600233" lon="9.103374327937706"><ele>503.57142857142856</ele><time>2026-04-19T08:25:03Z</time></trkpt><trkpt lat="45.81112616395281" lon="9.103307310122757"><ele>505.8571428571429</ele><time>2026-04-19T08:25:04Z</time></trkpt><trkpt lat="45.81117970977066" lon="9.103240017390739"><ele>508.14285714285717</ele><time>2026-04-19T08:25:05Z</time></trkpt><trkpt lat="45.81122980499709" lon="9.103179741028415"><ele>510.42857142857144</ele><time>2026-04-19T08:25:06Z</time></trkpt><trkpt lat="45.81129745653952" lon="9.10309477124312"><ele>512.7142857142858</ele><time>2026-04-19T08:25:08Z</time></trkpt><trkpt lat="45.811350768788515" lon="9.103011410501956"><ele>515.0</ele><time>2026-04-19T08:25:10Z</time></trkpt><trkpt lat="45.811397175459554" lon="9.102918013694506"><ele>515.0</ele><time>2026-04-19T08:25:12Z</time></trkpt><trkpt lat="45.811468036361084" lon="9.10289668946514"><ele>515.0</ele><time>2026-04-19T08:25:16Z</time></trkpt><trkpt lat="45.81140507270139" lon="9.103034695559362"><ele>515.0</ele><time>2026-04-19T08:25:18Z</time></trkpt><trkpt lat="45.8113615461027" lon="9.103115251956016"><ele>515.0</ele><time>2026-04-19T08:25:19Z</time></trkpt><trkpt lat="45.81133370553474" lon="9.103205658416528"><ele>515.0</ele><time>2026-04-19T08:25:20Z</time></trkpt><trkpt lat="45.811285520669934" lon="9.103307436378389"><ele>515.0</ele><time>2026-04-19T08:25:21Z</time></trkpt><trkpt lat="45.811227467784" lon="9.103404540239021"><ele>519.0</ele><time>2026-04-19T08:25:22Z</time></trkpt><trkpt lat="45.81119515276828" lon="9.103501949806747"><ele>523.0</ele><time>2026-04-19T08:25:23Z</time></trkpt><trkpt lat="45.81115243893842" lon="9.10359769853391"><ele>527.0</ele><time>2026-04-19T08:25:24Z</time></trkpt><trkpt lat="45.81111744902461" lon="9.103695849644314"><ele>531.0</ele><time>2026-04-19T08:25:25Z</time></trkpt><trkpt lat="45.8110693868972" lon="9.103800721567893"><ele>535.0</ele><time>2026-04-19T08:25:26Z</time></trkpt><trkpt lat="45.81103194177243" lon="9.103885871366815"><ele>539.0</ele><time>2026-04-19T08:25:27Z</time></trkpt><trkpt lat="45.81100416886527" lon="9.10400342060637"><ele>535.8333333333333</ele><time>2026-04-19T08:25:28Z</time></trkpt><trkpt lat="45.81097033145487" lon="9.104087752446459"><ele>532.6666666666666</ele><time>2026-04-19T08:25:29Z</time></trkpt><trkpt lat="45.81093283304416" lon="9.104164984698107"><ele>529.5</ele><time>2026-04-19T08:25:30Z</time></trkpt><trkpt lat="45.81089572526524" lon="9.104252580593746"><ele>526.3333333333334</ele><time>2026-04-19T08:25:31Z</time></trkpt><trkpt lat="45.810880015215226" lon="9.104434714562114"><ele>523.1666666666667</ele><time>2026-04-19T08:25:33Z</time></trkpt><trkpt lat="45.81090074967919" lon="9.104563167753794"><ele>520.0</ele><time>2026-04-19T08:25:34Z</time></trkpt><trkpt lat="45.81092362503105" lon="9.10466209748814"><ele>520.0</ele><time>2026-04-19T08:25:35Z</time></trkpt><trkpt lat="45.810964168186885" lon="9.104770329897686"><ele>520.0</ele><time>2026-04-19T08:25:36Z</time></trkpt><trkpt lat="45.81100888012631" lon="9.104864598946937"><ele>520.0</ele><time>2026-04-19T08:25:37Z</time></trkpt><trkpt lat="45.81104760975956" lon="9.104956037940482"><ele>520.0</ele><time>2026-04-19T08:25:38Z</time></trkpt><trkpt lat="45.8110793142071" lon="9.105047889000797"><ele>520.0</ele><time>2026-04-19T08:25:39Z</time></trkpt><trkpt lat="45.811114018395195" lon="9.105215672453435"><ele>520.0</ele><time>2026-04-19T08:25:41Z</time></trkpt><trkpt lat="45.811123088634105" lon="9.105388539948477"><ele>528.8</ele><time>2026-04-19T08:25:43Z</time></trkpt><trkpt lat="45.81112790903765" lon="9.105564833107177"><ele>537.6</ele><time>2026-04-19T08:25:44.999Z</time></trkpt><trkpt lat="45.81116464011426" lon="9.105733154324472"><ele>546.4</ele><time>2026-04-19T08:25:46.999Z</time></trkpt><trkpt lat="45.81122154199511" lon="9.105792284372095"><ele>555.2</ele><time>2026-04-19T08:25:48.999Z</time></trkpt><trkpt lat="45.81131903486853" lon="9.10571912308599"><ele>564.0</ele><time>2026-04-19T08:25:49.999Z</time></trkpt><trkpt lat="45.81131394301433" lon="9.105581760992024"><ele>563.5</ele><time>2026-04-19T08:25:50.999Z</time></trkpt><trkpt lat="45.811298155507764" lon="9.105433070537936"><ele>563.0</ele><time>2026-04-19T08:25:53.999Z</time></trkpt><trkpt lat="45.81129474474684" lon="9.105339482177538"><ele>562.5</ele><time>2026-04-19T08:25:54.999Z</time></trkpt><trkpt lat="45.81129091723234" lon="9.105247225350404"><ele>562.0</ele><time>2026-04-19T08:25:55.999Z</time></trkpt><trkpt lat="45.81128636085323" lon="9.105126188222112"><ele>561.5</ele><time>2026-04-19T08:25:56.999Z</time></trkpt><trkpt lat="45.81128786000144" lon="9.105012147682553"><ele>561.0</ele><time>2026-04-19T08:25:57.999Z</time></trkpt><trkpt lat="45.811290648795804" lon="9.104885470936615"><ele>561.0</ele><time>2026-04-19T08:25:58.999Z</time></trkpt><trkpt lat="45.811289422770216" lon="9.104755110074679"><ele>561.0</ele><time>2026-04-19T08:25:59.999Z</time></trkpt><trkpt lat="45.811287248151366" lon="9.104630902939132"><ele>561.0</ele><time>2026-04-19T08:26:00.999Z</time></trkpt><trkpt lat="45.811293397886814" lon="9.104511893880499"><ele>561.0</ele><time>2026-04-19T08:26:01.999Z</time></trkpt><trkpt lat="45.81130973664904" lon="9.10439708105531"><ele>561.0</ele><time>2026-04-19T08:26:02.999Z</time></trkpt><trkpt lat="45.811343394471926" lon="9.10429474348573"><ele>561.0</ele><time>2026-04-19T08:26:03.999Z</time></trkpt><trkpt lat="45.81137850393164" lon="9.10421289893101"><ele>561.0</ele><time>2026-04-19T08:26:04.999Z</time></trkpt><trkpt lat="45.81141996304676" lon="9.104125607418725"><ele>561.0</ele><time>2026-04-19T08:26:05.999Z</time></trkpt><trkpt lat="45.8114968933515" lon="9.104070645061102"><ele>561.0</ele><time>2026-04-19T08:26:06.999Z</time></trkpt><trkpt lat="45.81157231709743" lon="9.103978287556098"><ele>561.0</ele><time>2026-04-19T08:26:07.999Z</time></trkpt><trkpt lat="45.81166867566068" lon="9.103883809645563"><ele>561.0</ele><time>2026-04-19T08:26:08.999Z</time></trkpt><trkpt lat="45.81176346986804" lon="9.103779124100065"><ele>562.0</ele><time>2026-04-19T08:26:09.999Z</time></trkpt><trkpt lat="45.81183933078095" lon="9.10366756165806"><ele>563.0</ele><time>2026-04-19T08:26:10.999Z</time></trkpt><trkpt lat="45.81191399263663" lon="9.103532294643525"><ele>564.0</ele><time>2026-04-19T08:26:11.999Z</time></trkpt><trkpt lat="45.81198731058453" lon="9.103381506461579"><ele>565.0</ele><time>2026-04-19T08:26:12.999Z</time></trkpt><trkpt lat="45.81205578304135" lon="9.103231248148901"><ele>565.0</ele><time>2026-04-19T08:26:13.999Z</time></trkpt><trkpt lat="45.81210947516984" lon="9.103103221663948"><ele>565.0</ele><time>2026-04-19T08:26:14.999Z</time></trkpt><trkpt lat="45.812164682725346" lon="9.102985636803556"><ele>565.0</ele><time>2026-04-19T08:26:15.999Z</time></trkpt><trkpt lat="45.81222984596066" lon="9.102874004586148"><ele>565.0</ele><time>2026-04-19T08:26:16.999Z</time></trkpt><trkpt lat="45.81230656788326" lon="9.102761828686035"><ele>565.0</ele><time>2026-04-19T08:26:17.999Z</time></trkpt><trkpt lat="45.81239154100956" lon="9.102663872113027"><ele>565.0</ele><time>2026-04-19T08:26:18.999Z</time></trkpt><trkpt lat="45.81246959181466" lon="9.102560071212407"><ele>565.0</ele><time>2026-04-19T08:26:19.999Z</time></trkpt><trkpt lat="45.81255621804768" lon="9.102455285545908"><ele>565.0</ele><time>2026-04-19T08:26:20.999Z</time></trkpt><trkpt lat="45.812653719328026" lon="9.102353202236475"><ele>565.0</ele><time>2026-04-19T08:26:21.999Z</time></trkpt><trkpt lat="45.81271700015378" lon="9.102245694278599"><ele>565.0</ele><time>2026-04-19T08:26:22.999Z</time></trkpt><trkpt lat="45.8127717730625" lon="9.10211826181848"><ele>568.2</ele><time>2026-04-19T08:26:23.999Z</time></trkpt><trkpt lat="45.81282159050184" lon="9.102002538724593"><ele>571.4</ele><time>2026-04-19T08:26:24.999Z</time></trkpt><trkpt lat="45.81286934216668" lon="9.101895246512786"><ele>574.6</ele><time>2026-04-19T08:26:25.999Z</time></trkpt><trkpt lat="45.81297208542521" lon="9.101793592188296"><ele>577.8</ele><time>2026-04-19T08:26:27.999Z</time></trkpt><trkpt lat="45.81304960258319" lon="9.101762865141684"><ele>581.0</ele><time>2026-04-19T08:26:28.999Z</time></trkpt><trkpt lat="45.8131393268563" lon="9.101719348685137"><ele>581.0</ele><time>2026-04-19T08:26:29.999Z</time></trkpt><trkpt lat="45.81322834147065" lon="9.101643414474431"><ele>581.0</ele><time>2026-04-19T08:26:30.999Z</time></trkpt><trkpt lat="45.813318341190175" lon="9.101597334184198"><ele>581.0</ele><time>2026-04-19T08:26:31.999Z</time></trkpt><trkpt lat="45.81340369489725" lon="9.101541787477425"><ele>581.0</ele><time>2026-04-19T08:26:32.999Z</time></trkpt><trkpt lat="45.81349647959802" lon="9.101495178578277"><ele>581.0</ele><time>2026-04-19T08:26:33.999Z</time></trkpt><trkpt lat="45.81357638413085" lon="9.101465234344664"><ele>583.8333333333333</ele><time>2026-04-19T08:26:34.999Z</time></trkpt><trkpt lat="45.8136632651246" lon="9.10142179158448"><ele>586.6666666666666</ele><time>2026-04-19T08:26:35.999Z</time></trkpt><trkpt lat="45.813721167314235" lon="9.10136725705161"><ele>589.5</ele><time>2026-04-19T08:26:36.999Z</time></trkpt><trkpt lat="45.813769804639584" lon="9.101288034831821"><ele>592.3333333333334</ele><time>2026-04-19T08:26:37.999Z</time></trkpt><trkpt lat="45.81379825369708" lon="9.101197456886508"><ele>595.1666666666667</ele><time>2026-04-19T08:26:38.999Z</time></trkpt><trkpt lat="45.813836824928636" lon="9.10110007553255"><ele>598.0</ele><time>2026-04-19T08:26:39.999Z</time></trkpt><trkpt lat="45.81389616693993" lon="9.101013323736968"><ele>598.0</ele><time>2026-04-19T08:26:40.999Z</time></trkpt><trkpt lat="45.81395501406461" lon="9.100910742216536"><ele>598.0</ele><time>2026-04-19T08:26:41.999Z</time></trkpt><trkpt lat="45.8140192253905" lon="9.100792008395661"><ele>598.0</ele><time>2026-04-19T08:26:42.999Z</time></trkpt><trkpt lat="45.814077587564405" lon="9.100672302342048"><ele>598.0</ele><time>2026-04-19T08:26:43.999Z</time></trkpt><trkpt lat="45.814140567180054" lon="9.100563877609297"><ele>598.0</ele><time>2026-04-19T08:26:44.999Z</time></trkpt><trkpt lat="45.81419986098092" lon="9.100462333299436"><ele>597.3333333333334</ele><time>2026-04-19T08:26:45.999Z</time></trkpt><trkpt lat="45.81426094819025" lon="9.10038339051299"><ele>596.6666666666667</ele><time>2026-04-19T08:26:46.999Z</time></trkpt><trkpt lat="45.81433986488313" lon="9.100319377809551"><ele>596.0</ele><time>2026-04-19T08:26:47.999Z</time></trkpt><trkpt lat="45.81443212862105" lon="9.100287025502189"><ele>595.3333333333334</ele><time>2026-04-19T08:26:48.999Z</time></trkpt><trkpt lat="45.81452234870947" lon="9.100247043867986"><ele>594.6666666666666</ele><time>2026-04-19T08:26:49.999Z</time></trkpt><trkpt lat="45.81460755036558" lon="9.100224719316673"><ele>594.0</ele><time>2026-04-19T08:26:50.998Z</time></trkpt><trkpt lat="45.81471126963561" lon="9.10023305109538"><ele>594.0</ele><time>2026-04-19T08:26:51.998Z</time></trkpt><trkpt lat="45.81480689637989" lon="9.100207780288411"><ele>594.0</ele><time>2026-04-19T08:26:52.998Z</time></trkpt><trkpt lat="45.814892985171696" lon="9.100204003717527"><ele>594.0</ele><time>2026-04-19T08:26:53.998Z</time></trkpt><trkpt lat="45.814995249355356" lon="9.100209293285934"><ele>594.0</ele><time>2026-04-19T08:26:54.998Z</time></trkpt><trkpt lat="45.81509293528695" lon="9.100196154549893"><ele>594.0</ele><time>2026-04-19T08:26:55.998Z</time></trkpt><trkpt lat="45.815175968063166" lon="9.100173455704999"><ele>594.0</ele><time>2026-04-19T08:26:56.998Z</time></trkpt><trkpt lat="45.81523980820132" lon="9.100167320991963"><ele>594.0</ele><time>2026-04-19T08:26:57.998Z</time></trkpt><trkpt lat="45.81533118853795" lon="9.100148362089865"><ele>594.0</ele><time>2026-04-19T08:26:59.998Z</time></trkpt><trkpt lat="45.815368866126654" lon="9.100245128601305"><ele>594.0</ele><time>2026-04-19T08:27:02.998Z</time></trkpt><trkpt lat="45.815251886436414" lon="9.100233545453252"><ele>594.0</ele><time>2026-04-19T08:27:05Z</time></trkpt><trkpt lat="45.81518123810156" lon="9.1002619376751"><ele>594.0</ele><time>2026-04-19T08:27:06Z</time></trkpt><trkpt lat="45.81511561815942" lon="9.100279324109911"><ele>594.0</ele><time>2026-04-19T08:27:07Z</time></trkpt><trkpt lat="45.81504156299785" lon="9.100299563395373"><ele>594.0</ele><time>2026-04-19T08:27:08Z</time></trkpt><trkpt lat="45.814959045777634" lon="9.100340764971772"><ele>594.0</ele><time>2026-04-19T08:27:09Z</time></trkpt><trkpt lat="45.81488464537225" lon="9.100369597795222"><ele>594.0</ele><time>2026-04-19T08:27:10Z</time></trkpt><trkpt lat="45.814812726414324" lon="9.100412003482763"><ele>594.0</ele><time>2026-04-19T08:27:11Z</time></trkpt><trkpt lat="45.81473866583886" lon="9.100452983369301"><ele>594.0</ele><time>2026-04-19T08:27:12Z</time></trkpt><trkpt lat="45.81463054983602" lon="9.100502012217914"><ele>594.0</ele><time>2026-04-19T08:27:14Z</time></trkpt><trkpt lat="45.81457497734735" lon="9.100607715463843"><ele>594.0</ele><time>2026-04-19T08:27:16Z</time></trkpt><trkpt lat="45.81468525491667" lon="9.100668358061917"><ele>594.0</ele><time>2026-04-19T08:27:18Z</time></trkpt><trkpt lat="45.814756172499806" lon="9.100606528242803"><ele>594.0</ele><time>2026-04-19T08:27:19Z</time></trkpt><trkpt lat="45.814824890713055" lon="9.100548896401842"><ele>594.0</ele><time>2026-04-19T08:27:20Z</time></trkpt><trkpt lat="45.81490592494206" lon="9.100549821734505"><ele>594.0</ele><time>2026-04-19T08:27:21Z</time></trkpt><trkpt lat="45.8149783090477" lon="9.100542507248859"><ele>594.0</ele><time>2026-04-19T08:27:22Z</time></trkpt><trkpt lat="45.81506214889511" lon="9.100526351023777"><ele>594.0</ele><time>2026-04-19T08:27:23Z</time></trkpt><trkpt lat="45.815148861280576" lon="9.100519118334393"><ele>594.0</ele><time>2026-04-19T08:27:24Z</time></trkpt><trkpt lat="45.81523924044451" lon="9.100510979743019"><ele>594.0</ele><time>2026-04-19T08:27:25Z</time></trkpt><trkpt lat="45.81532664531433" lon="9.100498160736313"><ele>594.0</ele><time>2026-04-19T08:27:26Z</time></trkpt><trkpt lat="45.815416111079344" lon="9.100512823625952"><ele>594.5</ele><time>2026-04-19T08:27:27Z</time></trkpt><trkpt lat="45.81550248043806" lon="9.10051016406004"><ele>595.0</ele><time>2026-04-19T08:27:28Z</time></trkpt><trkpt lat="45.815587122642924" lon="9.100488163875369"><ele>595.5</ele><time>2026-04-19T08:27:29Z</time></trkpt><trkpt lat="45.81567529231032" lon="9.10051916056818"><ele>596.0</ele><time>2026-04-19T08:27:30Z</time></trkpt><trkpt lat="45.81575318566441" lon="9.10053414203187"><ele>596.5</ele><time>2026-04-19T08:27:31Z</time></trkpt><trkpt lat="45.815815531685686" lon="9.100645433643715"><ele>597.0</ele><time>2026-04-19T08:27:32Z</time></trkpt><trkpt lat="45.81585551108644" lon="9.100762714604233"><ele>602.5</ele><time>2026-04-19T08:27:33Z</time></trkpt><trkpt lat="45.815906545807614" lon="9.100875862984173"><ele>608.0</ele><time>2026-04-19T08:27:34Z</time></trkpt><trkpt lat="45.81595614673826" lon="9.100978614493888"><ele>613.5</ele><time>2026-04-19T08:27:35Z</time></trkpt><trkpt lat="45.81601505719287" lon="9.10106701832724"><ele>619.0</ele><time>2026-04-19T08:27:36Z</time></trkpt><trkpt lat="45.81610335257959" lon="9.101081806173655"><ele>624.5</ele><time>2026-04-19T08:27:37Z</time></trkpt><trkpt lat="45.816184705608585" lon="9.101041648279777"><ele>630.0</ele><time>2026-04-19T08:27:38Z</time></trkpt><trkpt lat="45.816273031965814" lon="9.101020240717638"><ele>630.0</ele><time>2026-04-19T08:27:39Z</time></trkpt><trkpt lat="45.816364143372034" lon="9.100998881695313"><ele>630.0</ele><time>2026-04-19T08:27:40Z</time></trkpt><trkpt lat="45.816464513522504" lon="9.100987412136092"><ele>630.0</ele><time>2026-04-19T08:27:41Z</time></trkpt><trkpt lat="45.816574740571696" lon="9.100983500850639"><ele>630.0</ele><time>2026-04-19T08:27:42Z</time></trkpt><trkpt lat="45.81669600374382" lon="9.10096899398749"><ele>630.0</ele><time>2026-04-19T08:27:43Z</time></trkpt><trkpt lat="45.81681815535739" lon="9.10098943814911"><ele>631.25</ele><time>2026-04-19T08:27:44Z</time></trkpt><trkpt lat="45.81693850095626" lon="9.101012703917814"><ele>632.5</ele><time>2026-04-19T08:27:45Z</time></trkpt><trkpt lat="45.8170505658093" lon="9.101017502578998"><ele>633.75</ele><time>2026-04-19T08:27:46Z</time></trkpt><trkpt lat="45.81714890519115" lon="9.101009441803303"><ele>635.0</ele><time>2026-04-19T08:27:47Z</time></trkpt><trkpt lat="45.81728431004293" lon="9.101041095637848"><ele>635.0</ele><time>2026-04-19T08:27:48Z</time></trkpt><trkpt lat="45.8173865588275" lon="9.101084262839533"><ele>635.0</ele><time>2026-04-19T08:27:49Z</time></trkpt><trkpt lat="45.81747628049417" lon="9.101129183107986"><ele>635.0</ele><time>2026-04-19T08:27:50Z</time></trkpt><trkpt lat="45.817609269856774" lon="9.10119879831714"><ele>635.0</ele><time>2026-04-19T08:27:51Z</time></trkpt><trkpt lat="45.81770059813094" lon="9.101245540864346"><ele>635.0</ele><time>2026-04-19T08:27:52Z</time></trkpt><trkpt lat="45.817800010484866" lon="9.101294177238888"><ele>636.3333333333333</ele><time>2026-04-19T08:27:53Z</time></trkpt><trkpt lat="45.81789133849075" lon="9.101344494421701"><ele>637.6666666666666</ele><time>2026-04-19T08:27:53.999Z</time></trkpt><trkpt lat="45.81795059121476" lon="9.101384600503797"><ele>639.0</ele><time>2026-04-19T08:27:54.999Z</time></trkpt><trkpt lat="45.81803279674219" lon="9.101449743421382"><ele>640.3333333333334</ele><time>2026-04-19T08:27:55.999Z</time></trkpt><trkpt lat="45.81810300781396" lon="9.101505123629257"><ele>641.6666666666667</ele><time>2026-04-19T08:27:56.999Z</time></trkpt><trkpt lat="45.81820209476003" lon="9.101563546060897"><ele>643.0</ele><time>2026-04-19T08:27:57.999Z</time></trkpt><trkpt lat="45.81832246651983" lon="9.101558553337739"><ele>643.0</ele><time>2026-04-19T08:27:58.999Z</time></trkpt><trkpt lat="45.81842000342813" lon="9.101506441128537"><ele>643.0</ele><time>2026-04-19T08:27:59.999Z</time></trkpt><trkpt lat="45.81854812333529" lon="9.101442317254808"><ele>643.0</ele><time>2026-04-19T08:28:00.999Z</time></trkpt><trkpt lat="45.81866517949441" lon="9.101334412202043"><ele>643.0</ele><time>2026-04-19T08:28:01.999Z</time></trkpt><trkpt lat="45.818787907400285" lon="9.101249740881988"><ele>648.0</ele><time>2026-04-19T08:28:02.999Z</time></trkpt><trkpt lat="45.8189089143724" lon="9.101157543554002"><ele>653.0</ele><time>2026-04-19T08:28:03.999Z</time></trkpt><trkpt lat="45.81900988134787" lon="9.10107688860627"><ele>658.0</ele><time>2026-04-19T08:28:04.999Z</time></trkpt><trkpt lat="45.81910154236262" lon="9.100965866287362"><ele>663.0</ele><time>2026-04-19T08:28:05.999Z</time></trkpt><trkpt lat="45.81918632612939" lon="9.100869920508563"><ele>663.0</ele><time>2026-04-19T08:28:06.999Z</time></trkpt><trkpt lat="45.81925232053313" lon="9.10079506495171"><ele>663.0</ele><time>2026-04-19T08:28:07.999Z</time></trkpt><trkpt lat="45.81930679714435" lon="9.100731484423166"><ele>663.0</ele><time>2026-04-19T08:28:09.999Z</time></trkpt><trkpt lat="45.819374729181796" lon="9.10064493227904"><ele>663.0</ele><time>2026-04-19T08:28:10.999Z</time></trkpt><trkpt lat="45.81942648007078" lon="9.100540200291922"><ele>663.0</ele><time>2026-04-19T08:28:11.999Z</time></trkpt><trkpt lat="45.819464821848285" lon="9.100399249661812"><ele>663.0</ele><time>2026-04-19T08:28:12.999Z</time></trkpt><trkpt lat="45.81944722447488" lon="9.10022463529242"><ele>669.75</ele><time>2026-04-19T08:28:13.999Z</time></trkpt><trkpt lat="45.819439811697315" lon="9.100036447657136"><ele>676.5</ele><time>2026-04-19T08:28:14.999Z</time></trkpt><trkpt lat="45.81943337262727" lon="9.099812572767297"><ele>683.25</ele><time>2026-04-19T08:28:17.999Z</time></trkpt><trkpt lat="45.8194309396101" lon="9.099657074976736"><ele>690.0</ele><time>2026-04-19T08:28:18.999Z</time></trkpt><trkpt lat="45.81943685490306" lon="9.0995183288359"><ele>690.0</ele><time>2026-04-19T08:28:19.999Z</time></trkpt><trkpt lat="45.81944545716763" lon="9.099379921562024"><ele>690.0</ele><time>2026-04-19T08:28:20.999Z</time></trkpt><trkpt lat="45.8195002937588" lon="9.09927146839978"><ele>690.0</ele><time>2026-04-19T08:28:21.999Z</time></trkpt><trkpt lat="45.81955676839371" lon="9.09917143653798"><ele>690.0</ele><time>2026-04-19T08:28:22.999Z</time></trkpt><trkpt lat="45.819618221751746" lon="9.099079343734585"><ele>690.0</ele><time>2026-04-19T08:28:23.999Z</time></trkpt><trkpt lat="45.819691702851145" lon="9.098987859291872"><ele>689.0</ele><time>2026-04-19T08:28:24.999Z</time></trkpt><trkpt lat="45.819773585980194" lon="9.098912101315742"><ele>688.0</ele><time>2026-04-19T08:28:25.999Z</time></trkpt><trkpt lat="45.819857933225144" lon="9.098850369510792"><ele>687.0</ele><time>2026-04-19T08:28:26.999Z</time></trkpt><trkpt lat="45.81994507422166" lon="9.098812610946563"><ele>686.0</ele><time>2026-04-19T08:28:27.999Z</time></trkpt><trkpt lat="45.820028475402204" lon="9.098793541114079"><ele>685.0</ele><time>2026-04-19T08:28:28.999Z</time></trkpt><trkpt lat="45.82010367067632" lon="9.098789102743096"><ele>684.0</ele><time>2026-04-19T08:28:29.999Z</time></trkpt><trkpt lat="45.82022537958554" lon="9.098747525011175"><ele>685.3333333333334</ele><time>2026-04-19T08:28:31.999Z</time></trkpt><trkpt lat="45.82026277635683" lon="9.098587412194437"><ele>686.6666666666666</ele><time>2026-04-19T08:28:34.999Z</time></trkpt><trkpt lat="45.8202191655702" lon="9.098521294658799"><ele>688.0</ele><time>2026-04-19T08:28:35.999Z</time></trkpt><trkpt lat="45.820182617399205" lon="9.098364613600165"><ele>689.3333333333333</ele><time>2026-04-19T08:28:37.999Z</time></trkpt><trkpt lat="45.82016187684907" lon="9.098263129356459"><ele>690.6666666666666</ele><time>2026-04-19T08:28:38.999Z</time></trkpt><trkpt lat="45.82014134602472" lon="9.098161298409115"><ele>692.0</ele><time>2026-04-19T08:28:39.999Z</time></trkpt><trkpt lat="45.82009295687341" lon="9.098008384614765"><ele>692.0</ele><time>2026-04-19T08:28:41.999Z</time></trkpt><trkpt lat="45.820040672239635" lon="9.097956623036355"><ele>692.0</ele><time>2026-04-19T08:28:42.999Z</time></trkpt><trkpt lat="45.81997855586133" lon="9.097905927004865"><ele>692.0</ele><time>2026-04-19T08:28:43.999Z</time></trkpt><trkpt lat="45.81992285395476" lon="9.097853923047568"><ele>692.0</ele><time>2026-04-19T08:28:44.999Z</time></trkpt><trkpt lat="45.81987536246732" lon="9.097793109617328"><ele>692.0</ele><time>2026-04-19T08:28:45.999Z</time></trkpt><trkpt lat="45.81984077608086" lon="9.097714140408627"><ele>692.0</ele><time>2026-04-19T08:28:46.999Z</time></trkpt><trkpt lat="45.819806929624235" lon="9.097635933767574"><ele>692.0</ele><time>2026-04-19T08:28:47.999Z</time></trkpt><trkpt lat="45.819759381915944" lon="9.097507225685268"><ele>693.8333333333333</ele><time>2026-04-19T08:28:49.999Z</time></trkpt><trkpt lat="45.81970552758271" lon="9.097409770963221"><ele>695.6666666666666</ele><time>2026-04-19T08:28:51.999Z</time></trkpt><trkpt lat="45.81959536626359" lon="9.09733987201604"><ele>697.5</ele><time>2026-04-19T08:28:53.999Z</time></trkpt><trkpt lat="45.81953573461078" lon="9.097288838366563"><ele>699.3333333333334</ele><time>2026-04-19T08:28:54.999Z</time></trkpt><trkpt lat="45.8194752375543" lon="9.097239842887765"><ele>701.1666666666667</ele><time>2026-04-19T08:28:55.999Z</time></trkpt><trkpt lat="45.81941217287453" lon="9.097182688630388"><ele>703.0</ele><time>2026-04-19T08:28:56.999Z</time></trkpt><trkpt lat="45.81934711730618" lon="9.097113365244075"><ele>700.5999999999999</ele><time>2026-04-19T08:28:57.999Z</time></trkpt><trkpt lat="45.81928135406263" lon="9.097080262188097"><ele>698.1999999999999</ele><time>2026-04-19T08:28:58.999Z</time></trkpt><trkpt lat="45.819176876182354" lon="9.096970860564802"><ele>695.8</ele><time>2026-04-19T08:29:00.999Z</time></trkpt><trkpt lat="45.81910647061052" lon="9.096928773379116"><ele>693.4</ele><time>2026-04-19T08:29:01.998Z</time></trkpt><trkpt lat="45.81900500046855" lon="9.09686637749295"><ele>691.0</ele><time>2026-04-19T08:29:03.998Z</time></trkpt><trkpt lat="45.81894216506582" lon="9.096809238935316"><ele>691.0</ele><time>2026-04-19T08:29:05.998Z</time></trkpt><trkpt lat="45.818875059909985" lon="9.096731205697418"><ele>691.0</ele><time>2026-04-19T08:29:07.998Z</time></trkpt><trkpt lat="45.818771657320184" lon="9.096609041201754"><ele>691.0</ele><time>2026-04-19T08:29:09.998Z</time></trkpt><trkpt lat="45.81868263866612" lon="9.096523661545646"><ele>691.0</ele><time>2026-04-19T08:29:12Z</time></trkpt><trkpt lat="45.81857705591794" lon="9.096451533393523"><ele>691.0</ele><time>2026-04-19T08:29:14Z</time></trkpt><trkpt lat="45.81848882528608" lon="9.096413486455562"><ele>691.0</ele><time>2026-04-19T08:29:16Z</time></trkpt><trkpt lat="45.818390790788385" lon="9.0963524976433"><ele>691.0</ele><time>2026-04-19T08:29:18Z</time></trkpt><trkpt lat="45.818297616753256" lon="9.09629520996135"><ele>691.0</ele><time>2026-04-19T08:29:20Z</time></trkpt><trkpt lat="45.81821293300705" lon="9.096241686223266"><ele>691.0</ele><time>2026-04-19T08:29:24Z</time></trkpt><trkpt lat="45.81810968851338" lon="9.096195974355462"><ele>691.0</ele><time>2026-04-19T08:29:26Z</time></trkpt><trkpt lat="45.81803815292526" lon="9.096075320664898"><ele>691.0</ele><time>2026-04-19T08:29:28Z</time></trkpt><trkpt lat="45.818012418821425" lon="9.095915012095027"><ele>691.0</ele><time>2026-04-19T08:29:30Z</time></trkpt><trkpt lat="45.817990947685416" lon="9.095730171775088"><ele>691.0</ele><time>2026-04-19T08:29:32Z</time></trkpt><trkpt lat="45.817988668365075" lon="9.095628494017383"><ele>691.0</ele><time>2026-04-19T08:29:33Z</time></trkpt><trkpt lat="45.817990964262954" lon="9.095535457795373"><ele>691.0</ele><time>2026-04-19T08:29:34Z</time></trkpt><trkpt lat="45.81803735690578" lon="9.095367589079293"><ele>689.5</ele><time>2026-04-19T08:29:36Z</time></trkpt><trkpt lat="45.81808221856873" lon="9.095287356272525"><ele>688.0</ele><time>2026-04-19T08:29:37Z</time></trkpt><trkpt lat="45.818143111660596" lon="9.095246526073652"><ele>686.5</ele><time>2026-04-19T08:29:38Z</time></trkpt><trkpt lat="45.818205079005466" lon="9.095195181412306"><ele>685.0</ele><time>2026-04-19T08:29:40Z</time></trkpt><trkpt lat="45.81827039334098" lon="9.09514528569435"><ele>683.5</ele><time>2026-04-19T08:29:59Z</time></trkpt><trkpt lat="45.81835640013317" lon="9.095078072126547"><ele>682.0</ele><time>2026-04-19T08:30:01.999Z</time></trkpt><trkpt lat="45.81843150437642" lon="9.095114972721106"><ele>681.6</ele><time>2026-04-19T08:30:03.999Z</time></trkpt><trkpt lat="45.81851118968743" lon="9.095129303708871"><ele>681.2</ele><time>2026-04-19T08:30:05.999Z</time></trkpt><trkpt lat="45.8186196628079" lon="9.09514718613486"><ele>680.8</ele><time>2026-04-19T08:30:07.999Z</time></trkpt><trkpt lat="45.81874498119622" lon="9.095121979060805"><ele>680.4</ele><time>2026-04-19T08:30:09.999Z</time></trkpt><trkpt lat="45.81885648499503" lon="9.095097413493297"><ele>680.0</ele><time>2026-04-19T08:30:11.999Z</time></trkpt><trkpt lat="45.818985896054286" lon="9.095134202620548"><ele>680.0</ele><time>2026-04-19T08:30:13.999Z</time></trkpt><trkpt lat="45.819060392569" lon="9.095131487616653"><ele>680.0</ele><time>2026-04-19T08:30:14.999Z</time></trkpt><trkpt lat="45.81913600428288" lon="9.095120400263342"><ele>680.0</ele><time>2026-04-19T08:30:15.999Z</time></trkpt><trkpt lat="45.819211130606355" lon="9.095102132735981"><ele>680.0</ele><time>2026-04-19T08:30:16.999Z</time></trkpt><trkpt lat="45.81928949766672" lon="9.095092769599505"><ele>680.0</ele><time>2026-04-19T08:30:17.999Z</time></trkpt><trkpt lat="45.81937918262077" lon="9.095086924359485"><ele>680.0</ele><time>2026-04-19T08:30:18.999Z</time></trkpt><trkpt lat="45.8194637666369" lon="9.09508779732474"><ele>681.5</ele><time>2026-04-19T08:30:19.999Z</time></trkpt><trkpt lat="45.819544239063454" lon="9.095094881925807"><ele>683.0</ele><time>2026-04-19T08:30:20.999Z</time></trkpt><trkpt lat="45.819613348996235" lon="9.095103004232778"><ele>684.5</ele><time>2026-04-19T08:30:21.999Z</time></trkpt><trkpt lat="45.81969709887872" lon="9.095113272758203"><ele>686.0</ele><time>2026-04-19T08:30:23.999Z</time></trkpt><trkpt lat="45.8197627723257" lon="9.095123328799133"><ele>687.5</ele><time>2026-04-19T08:30:30.999Z</time></trkpt><trkpt lat="45.819838970135066" lon="9.095128829792968"><ele>689.0</ele><time>2026-04-19T08:30:34.999Z</time></trkpt><trkpt lat="45.8199388275523" lon="9.095136038956712"><ele>689.0</ele><time>2026-04-19T08:30:36.999Z</time></trkpt><trkpt lat="45.820063445708925" lon="9.095108388369702"><ele>689.0</ele><time>2026-04-19T08:30:38.999Z</time></trkpt><trkpt lat="45.82013460362835" lon="9.095098070445365"><ele>689.0</ele><time>2026-04-19T08:30:39.999Z</time></trkpt><trkpt lat="45.820203537840385" lon="9.095090869320595"><ele>689.0</ele><time>2026-04-19T08:30:40.999Z</time></trkpt><trkpt lat="45.8202803702662" lon="9.095073597524534"><ele>689.0</ele><time>2026-04-19T08:30:41.999Z</time></trkpt><trkpt lat="45.82034994257706" lon="9.095064886461973"><ele>689.0</ele><time>2026-04-19T08:30:42.999Z</time></trkpt><trkpt lat="45.82042523578233" lon="9.095057440180653"><ele>691.3333333333333</ele><time>2026-04-19T08:30:43.999Z</time></trkpt><trkpt lat="45.82051142128297" lon="9.095030466504747"><ele>693.6666666666666</ele><time>2026-04-19T08:30:44.999Z</time></trkpt><trkpt lat="45.820589126109375" lon="9.09501014099435"><ele>696.0</ele><time>2026-04-19T08:30:45.999Z</time></trkpt><trkpt lat="45.82066814175771" lon="9.095005324154213"><ele>698.3333333333334</ele><time>2026-04-19T08:30:46.999Z</time></trkpt><trkpt lat="45.82075548081139" lon="9.0950011580826"><ele>700.6666666666667</ele><time>2026-04-19T08:30:47.999Z</time></trkpt><trkpt lat="45.820828440904556" lon="9.094971154516346"><ele>703.0</ele><time>2026-04-19T08:30:48.999Z</time></trkpt><trkpt lat="45.820918206346406" lon="9.094947292711884"><ele>704.4</ele><time>2026-04-19T08:30:49.999Z</time></trkpt><trkpt lat="45.82098944789481" lon="9.094887725619685"><ele>705.8</ele><time>2026-04-19T08:30:50.999Z</time></trkpt><trkpt lat="45.82107758270671" lon="9.094800921868053"><ele>707.2</ele><time>2026-04-19T08:30:52.999Z</time></trkpt><trkpt lat="45.8211512487103" lon="9.094733585442093"><ele>708.6</ele><time>2026-04-19T08:30:54.999Z</time></trkpt><trkpt lat="45.821103138951" lon="9.094822148363505"><ele>710.0</ele><time>2026-04-19T08:31:08.998Z</time></trkpt><trkpt lat="45.82110276303391" lon="9.095012299483624"><ele>710.0</ele><time>2026-04-19T08:31:11.998Z</time></trkpt><trkpt lat="45.82108065615454" lon="9.095099452762172"><ele>710.0</ele><time>2026-04-19T08:31:13.998Z</time></trkpt><trkpt lat="45.821030268433006" lon="9.095339338676757"><ele>710.0</ele><time>2026-04-19T08:31:17Z</time></trkpt><trkpt lat="45.82095385101522" lon="9.095316045079114"><ele>710.0</ele><time>2026-04-19T08:31:23Z</time></trkpt><trkpt lat="45.82085559061493" lon="9.095317830978393"><ele>710.0</ele><time>2026-04-19T08:31:25Z</time></trkpt><trkpt lat="45.820763525268426" lon="9.095268722799467"><ele>708.6</ele><time>2026-04-19T08:31:26Z</time></trkpt><trkpt lat="45.82066603616718" lon="9.095250585170035"><ele>707.2</ele><time>2026-04-19T08:31:27Z</time></trkpt><trkpt lat="45.82058442982929" lon="9.095310498689626"><ele>705.8</ele><time>2026-04-19T08:31:28Z</time></trkpt><trkpt lat="45.82051607544876" lon="9.095319266520319"><ele>704.4</ele><time>2026-04-19T08:31:29Z</time></trkpt><trkpt lat="45.820427026295846" lon="9.095398037769954"><ele>703.0</ele><time>2026-04-19T08:31:31Z</time></trkpt><trkpt lat="45.82032834390136" lon="9.095481489518473"><ele>703.0</ele><time>2026-04-19T08:31:33Z</time></trkpt><trkpt lat="45.82026804914679" lon="9.0955125742938"><ele>703.0</ele><time>2026-04-19T08:31:35Z</time></trkpt><trkpt lat="45.820199492547275" lon="9.095608353169517"><ele>703.0</ele><time>2026-04-19T08:31:37Z</time></trkpt><trkpt lat="45.82015235790567" lon="9.095681973649839"><ele>703.0</ele><time>2026-04-19T08:31:38Z</time></trkpt><trkpt lat="45.82014148044063" lon="9.095818620657038"><ele>703.0</ele><time>2026-04-19T08:31:39Z</time></trkpt><trkpt lat="45.8201206813497" lon="9.095986524246415"><ele>703.0</ele><time>2026-04-19T08:31:41Z</time></trkpt><trkpt lat="45.82016702801431" lon="9.09607199506032"><ele>706.8333333333334</ele><time>2026-04-19T08:31:42Z</time></trkpt><trkpt lat="45.82025866947096" lon="9.096173914256843"><ele>710.6666666666667</ele><time>2026-04-19T08:31:44Z</time></trkpt><trkpt lat="45.820347125449935" lon="9.096166724210546"><ele>714.5</ele><time>2026-04-19T08:31:45Z</time></trkpt><trkpt lat="45.82040183637369" lon="9.09622903651624"><ele>718.3333333333334</ele><time>2026-04-19T08:31:46Z</time></trkpt><trkpt lat="45.820463091988366" lon="9.096276276538921"><ele>722.1666666666666</ele><time>2026-04-19T08:31:47Z</time></trkpt><trkpt lat="45.8205271749174" lon="9.096322430119324"><ele>726.0</ele><time>2026-04-19T08:31:48Z</time></trkpt><trkpt lat="45.820585797562615" lon="9.09641587026018"><ele>726.0</ele><time>2026-04-19T08:31:49Z</time></trkpt><trkpt lat="45.820666204264775" lon="9.096467164829507"><ele>726.0</ele><time>2026-04-19T08:31:50Z</time></trkpt><trkpt lat="45.820745490656954" lon="9.096514152359319"><ele>726.0</ele><time>2026-04-19T08:31:51Z</time></trkpt><trkpt lat="45.82082224096174" lon="9.096556696926827"><ele>726.0</ele><time>2026-04-19T08:31:52Z</time></trkpt><trkpt lat="45.82090289240236" lon="9.096604807619451"><ele>726.0</ele><time>2026-04-19T08:31:53Z</time></trkpt><trkpt lat="45.82098789695425" lon="9.09665730884021"><ele>726.0</ele><time>2026-04-19T08:31:54Z</time></trkpt><trkpt lat="45.821070183855696" lon="9.096698904020935"><ele>728.8</ele><time>2026-04-19T08:31:55Z</time></trkpt><trkpt lat="45.8211685479748" lon="9.096739511083586"><ele>731.5999999999999</ele><time>2026-04-19T08:31:56Z</time></trkpt><trkpt lat="45.82125839624223" lon="9.096797191013174"><ele>734.4</ele><time>2026-04-19T08:31:57Z</time></trkpt><trkpt lat="45.82133675347535" lon="9.096832706210002"><ele>737.2</ele><time>2026-04-19T08:31:58Z</time></trkpt><trkpt lat="45.821418304300884" lon="9.09686628424206"><ele>740.0</ele><time>2026-04-19T08:31:59Z</time></trkpt><trkpt lat="45.8215042470307" lon="9.096909753605752"><ele>740.0</ele><time>2026-04-19T08:32:00Z</time></trkpt><trkpt lat="45.8215788867988" lon="9.096960469917894"><ele>740.0</ele><time>2026-04-19T08:32:01Z</time></trkpt><trkpt lat="45.82163202522573" lon="9.097013386560016"><ele>740.0</ele><time>2026-04-19T08:32:02Z</time></trkpt><trkpt lat="45.82171442447343" lon="9.09710631183988"><ele>740.0</ele><time>2026-04-19T08:32:04Z</time></trkpt><trkpt lat="45.82177976807701" lon="9.097154228479576"><ele>740.0</ele><time>2026-04-19T08:32:07Z</time></trkpt><trkpt lat="45.82179509541714" lon="9.097003093568079"><ele>740.0</ele><time>2026-04-19T08:32:08.999Z</time></trkpt><trkpt lat="45.82170289429773" lon="9.096886161613186"><ele>740.0</ele><time>2026-04-19T08:32:10.999Z</time></trkpt><trkpt lat="45.8216329320362" lon="9.096775290585324"><ele>740.0</ele><time>2026-04-19T08:32:12.999Z</time></trkpt><trkpt lat="45.82156267527704" lon="9.096685459822789"><ele>740.0</ele><time>2026-04-19T08:32:14.999Z</time></trkpt><trkpt lat="45.82149103552501" lon="9.09659384149585"><ele>740.0</ele><time>2026-04-19T08:32:16.999Z</time></trkpt><trkpt lat="45.821438079903004" lon="9.096526113173539"><ele>740.0</ele><time>2026-04-19T08:32:20.999Z</time></trkpt><trkpt lat="45.82139197577191" lon="9.096447418839666"><ele>740.0</ele><time>2026-04-19T08:32:23.999Z</time></trkpt><trkpt lat="45.82148856962368" lon="9.096358707614488"><ele>737.5</ele><time>2026-04-19T08:32:26.999Z</time></trkpt><trkpt lat="45.821541600082504" lon="9.096449946732516"><ele>735.0</ele><time>2026-04-19T08:32:27.999Z</time></trkpt><trkpt lat="45.821623084941336" lon="9.096498303283761"><ele>732.5</ele><time>2026-04-19T08:32:28.999Z</time></trkpt><trkpt lat="45.821700415712186" lon="9.096528845681288"><ele>730.0</ele><time>2026-04-19T08:32:29.999Z</time></trkpt><trkpt lat="45.82179510246893" lon="9.096543142744135"><ele>727.5</ele><time>2026-04-19T08:32:30.999Z</time></trkpt><trkpt lat="45.821875273016325" lon="9.096556596679592"><ele>725.0</ele><time>2026-04-19T08:32:31.999Z</time></trkpt><trkpt lat="45.82196843399021" lon="9.096572230760056"><ele>724.25</ele><time>2026-04-19T08:32:32.999Z</time></trkpt><trkpt lat="45.82212025288074" lon="9.096566020763495"><ele>723.5</ele><time>2026-04-19T08:32:34.999Z</time></trkpt><trkpt lat="45.82222444690918" lon="9.096593750751097"><ele>722.75</ele><time>2026-04-19T08:32:35.999Z</time></trkpt><trkpt lat="45.8223235324345" lon="9.096612029526058"><ele>722.0</ele><time>2026-04-19T08:32:36.999Z</time></trkpt><trkpt lat="45.82242276978229" lon="9.096632823018782"><ele>727.4000000000001</ele><time>2026-04-19T08:32:37.999Z</time></trkpt><trkpt lat="45.82252712585711" lon="9.096671943070005"><ele>732.8000000000001</ele><time>2026-04-19T08:32:38.999Z</time></trkpt><trkpt lat="45.822628727347514" lon="9.096696215317337"><ele>738.2</ele><time>2026-04-19T08:32:39.999Z</time></trkpt><trkpt lat="45.82271202942401" lon="9.096705276987166"><ele>743.6</ele><time>2026-04-19T08:32:40.999Z</time></trkpt><trkpt lat="45.822826702822816" lon="9.096739943874317"><ele>749.0</ele><time>2026-04-19T08:32:41.999Z</time></trkpt><trkpt lat="45.82293546763158" lon="9.09678153176055"><ele>749.8000000000001</ele><time>2026-04-19T08:32:42.999Z</time></trkpt><trkpt lat="45.823043001386075" lon="9.096810472203932"><ele>750.6</ele><time>2026-04-19T08:32:43.999Z</time></trkpt><trkpt lat="45.823144620231275" lon="9.096818191941955"><ele>751.4</ele><time>2026-04-19T08:32:44.999Z</time></trkpt><trkpt lat="45.82324914563608" lon="9.096850246655066"><ele>752.2</ele><time>2026-04-19T08:32:45.999Z</time></trkpt><trkpt lat="45.82332054880004" lon="9.096925986700668"><ele>753.0</ele><time>2026-04-19T08:32:46.999Z</time></trkpt><trkpt lat="45.82341836218867" lon="9.096967292002118"><ele>753.5</ele><time>2026-04-19T08:32:47.999Z</time></trkpt><trkpt lat="45.823539673014196" lon="9.097016432616224"><ele>754.0</ele><time>2026-04-19T08:32:48.999Z</time></trkpt><trkpt lat="45.823642222689266" lon="9.097061234402885"><ele>754.5</ele><time>2026-04-19T08:32:49.999Z</time></trkpt><trkpt lat="45.823755698209474" lon="9.097110863992775"><ele>755.0</ele><time>2026-04-19T08:32:50.999Z</time></trkpt><trkpt lat="45.823867120841946" lon="9.097155769123535"><ele>755.0</ele><time>2026-04-19T08:32:51.999Z</time></trkpt><trkpt lat="45.823981087966025" lon="9.097199960652382"><ele>755.0</ele><time>2026-04-19T08:32:52.999Z</time></trkpt><trkpt lat="45.824097285588465" lon="9.097248081731061"><ele>755.0</ele><time>2026-04-19T08:32:53.999Z</time></trkpt><trkpt lat="45.82419492594965" lon="9.09726250720969"><ele>755.0</ele><time>2026-04-19T08:32:54.999Z</time></trkpt><trkpt lat="45.82428900603452" lon="9.097252893148276"><ele>755.0</ele><time>2026-04-19T08:32:55.999Z</time></trkpt><trkpt lat="45.824380150519616" lon="9.097243224643515"><ele>753.5</ele><time>2026-04-19T08:32:56.999Z</time></trkpt><trkpt lat="45.824474918412335" lon="9.097205233850664"><ele>752.0</ele><time>2026-04-19T08:32:57.999Z</time></trkpt><trkpt lat="45.82456779438834" lon="9.09716653389822"><ele>750.5</ele><time>2026-04-19T08:32:58.999Z</time></trkpt><trkpt lat="45.82464034535553" lon="9.097142105516166"><ele>749.0</ele><time>2026-04-19T08:32:59.999Z</time></trkpt><trkpt lat="45.824738209404416" lon="9.097099843866529"><ele>747.5</ele><time>2026-04-19T08:33:01.999Z</time></trkpt><trkpt lat="45.82480427334273" lon="9.09714404576294"><ele>746.0</ele><time>2026-04-19T08:33:03.999Z</time></trkpt><trkpt lat="45.824737984483804" lon="9.097226737859817"><ele>746.0</ele><time>2026-04-19T08:33:05.999Z</time></trkpt><trkpt lat="45.824646741802006" lon="9.097221403653219"><ele>746.0</ele><time>2026-04-19T08:33:08.999Z</time></trkpt><trkpt lat="45.82455067026785" lon="9.09727189781143"><ele>746.0</ele><time>2026-04-19T08:33:10.999Z</time></trkpt><trkpt lat="45.8244825550795" lon="9.0973332657386"><ele>746.0</ele><time>2026-04-19T08:33:11.999Z</time></trkpt><trkpt lat="45.82444192064834" lon="9.097441145816859"><ele>746.0</ele><time>2026-04-19T08:33:12.999Z</time></trkpt><trkpt lat="45.824404322066954" lon="9.097532014085443"><ele>746.0</ele><time>2026-04-19T08:33:13.999Z</time></trkpt><trkpt lat="45.82437653353379" lon="9.097630972700879"><ele>751.6666666666666</ele><time>2026-04-19T08:33:14.999Z</time></trkpt><trkpt lat="45.8243543775248" lon="9.097752072472298"><ele>757.3333333333333</ele><time>2026-04-19T08:33:15.998Z</time></trkpt><trkpt lat="45.82433565585829" lon="9.097866865380256"><ele>763.0</ele><time>2026-04-19T08:33:16.998Z</time></trkpt><trkpt lat="45.824318602412106" lon="9.097971770951686"><ele>768.6666666666666</ele><time>2026-04-19T08:33:17.998Z</time></trkpt><trkpt lat="45.82430333143649" lon="9.098075577650297"><ele>774.3333333333334</ele><time>2026-04-19T08:33:18.998Z</time></trkpt><trkpt lat="45.824287119871315" lon="9.098182767154748"><ele>780.0</ele><time>2026-04-19T08:33:19.998Z</time></trkpt><trkpt lat="45.8242677757217" lon="9.098294358999084"><ele>783.6</ele><time>2026-04-19T08:33:20.998Z</time></trkpt><trkpt lat="45.8242332843906" lon="9.098445221396064"><ele>787.2</ele><time>2026-04-19T08:33:23Z</time></trkpt><trkpt lat="45.82415325047657" lon="9.098604128393207"><ele>790.8</ele><time>2026-04-19T08:33:25Z</time></trkpt><trkpt lat="45.824072636562384" lon="9.098669414583625"><ele>794.4</ele><time>2026-04-19T08:33:26Z</time></trkpt><trkpt lat="45.824002899723176" lon="9.098720964623752"><ele>798.0</ele><time>2026-04-19T08:33:27Z</time></trkpt><trkpt lat="45.82393100603478" lon="9.098751505988819"><ele>798.0</ele><time>2026-04-19T08:33:28Z</time></trkpt><trkpt lat="45.82386074757251" lon="9.098797066750858"><ele>798.0</ele><time>2026-04-19T08:33:29Z</time></trkpt><trkpt lat="45.82375663787241" lon="9.098834791176921"><ele>798.0</ele><time>2026-04-19T08:33:30Z</time></trkpt><trkpt lat="45.82367405743931" lon="9.098883561584623"><ele>798.0</ele><time>2026-04-19T08:33:31Z</time></trkpt><trkpt lat="45.823560193484916" lon="9.09894697881614"><ele>798.0</ele><time>2026-04-19T08:33:32Z</time></trkpt><trkpt lat="45.82347047856922" lon="9.098980314067719"><ele>798.6666666666666</ele><time>2026-04-19T08:33:33Z</time></trkpt><trkpt lat="45.82340790239845" lon="9.099018199193836"><ele>799.3333333333333</ele><time>2026-04-19T08:33:34Z</time></trkpt><trkpt lat="45.82333247448444" lon="9.09909195500373"><ele>800.0</ele><time>2026-04-19T08:33:35Z</time></trkpt><trkpt lat="45.8232682760579" lon="9.099177065855109"><ele>800.6666666666666</ele><time>2026-04-19T08:33:36Z</time></trkpt><trkpt lat="45.823214513497504" lon="9.099278685918428"><ele>801.3333333333333</ele><time>2026-04-19T08:33:37Z</time></trkpt><trkpt lat="45.82318306758315" lon="9.099401927221889"><ele>802.0</ele><time>2026-04-19T08:33:38Z</time></trkpt><trkpt lat="45.823179357602655" lon="9.099541018801688"><ele>802.0</ele><time>2026-04-19T08:33:39Z</time></trkpt><trkpt lat="45.823208492276336" lon="9.099664888689922"><ele>802.0</ele><time>2026-04-19T08:33:40Z</time></trkpt><trkpt lat="45.823260427130315" lon="9.099779325014469"><ele>802.0</ele><time>2026-04-19T08:33:41Z</time></trkpt><trkpt lat="45.8233417916032" lon="9.099867184463054"><ele>802.0</ele><time>2026-04-19T08:33:42Z</time></trkpt><trkpt lat="45.823445089073715" lon="9.099860858797285"><ele>802.0</ele><time>2026-04-19T08:33:43Z</time></trkpt><trkpt lat="45.82352840577147" lon="9.099870071230798"><ele>804.1666666666666</ele><time>2026-04-19T08:33:44Z</time></trkpt><trkpt lat="45.82360284321782" lon="9.099848599568563"><ele>806.3333333333333</ele><time>2026-04-19T08:33:45Z</time></trkpt><trkpt lat="45.82368729765772" lon="9.099835103569303"><ele>808.5</ele><time>2026-04-19T08:33:46Z</time></trkpt><trkpt lat="45.823780035904505" lon="9.099829410216797"><ele>810.6666666666667</ele><time>2026-04-19T08:33:47Z</time></trkpt><trkpt lat="45.82386937154951" lon="9.099876682243925"><ele>812.8333333333334</ele><time>2026-04-19T08:33:48Z</time></trkpt><trkpt lat="45.823950483489405" lon="9.099896243943027"><ele>815.0</ele><time>2026-04-19T08:33:49Z</time></trkpt><trkpt lat="45.824025633543144" lon="9.099933363563906"><ele>816.5000000000001</ele><time>2026-04-19T08:33:50Z</time></trkpt><trkpt lat="45.82409938053314" lon="9.099990894866767"><ele>818.0</ele><time>2026-04-19T08:33:51Z</time></trkpt><trkpt lat="45.82417446924546" lon="9.100062990403778"><ele>819.5</ele><time>2026-04-19T08:33:52Z</time></trkpt><trkpt lat="45.82423785351097" lon="9.100137384872957"><ele>821.0</ele><time>2026-04-19T08:33:53Z</time></trkpt><trkpt lat="45.824300400185685" lon="9.100216080503014"><ele>822.5000000000001</ele><time>2026-04-19T08:33:54Z</time></trkpt><trkpt lat="45.824358086025825" lon="9.10029969916322"><ele>824.0</ele><time>2026-04-19T08:33:55Z</time></trkpt><trkpt lat="45.82439234460223" lon="9.100384286765689"><ele>824.0000000000001</ele><time>2026-04-19T08:33:56Z</time></trkpt><trkpt lat="45.82439018122928" lon="9.100476923214023"><ele>824.0</ele><time>2026-04-19T08:33:57Z</time></trkpt><trkpt lat="45.82436505444082" lon="9.100573907593127"><ele>824.0</ele><time>2026-04-19T08:33:58Z</time></trkpt><trkpt lat="45.824302323933146" lon="9.100626154583184"><ele>824.0</ele><time>2026-04-19T08:34:00Z</time></trkpt><trkpt lat="45.82428231284517" lon="9.100723711620043"><ele>824.0000000000001</ele><time>2026-04-19T08:34:02Z</time></trkpt><trkpt lat="45.8244249074728" lon="9.100707200007747"><ele>824.0</ele><time>2026-04-19T08:34:16.999Z</time></trkpt><trkpt lat="45.82448500364207" lon="9.100583626850515"><ele>827.4000000000001</ele><time>2026-04-19T08:34:18.999Z</time></trkpt><trkpt lat="45.82450727548783" lon="9.100495731022122"><ele>830.8</ele><time>2026-04-19T08:34:19.999Z</time></trkpt><trkpt lat="45.82453161238437" lon="9.100337377826758"><ele>834.2</ele><time>2026-04-19T08:34:21.999Z</time></trkpt><trkpt lat="45.82450056549792" lon="9.100174733431663"><ele>837.5999999999999</ele><time>2026-04-19T08:34:23.999Z</time></trkpt><trkpt lat="45.824494972741626" lon="9.100000916567579"><ele>841.0</ele><time>2026-04-19T08:34:25.999Z</time></trkpt><trkpt lat="45.82450604471391" lon="9.099903203900851"><ele>841.0</ele><time>2026-04-19T08:34:26.999Z</time></trkpt><trkpt lat="45.8245216209139" lon="9.099806609045967"><ele>841.0</ele><time>2026-04-19T08:34:27.999Z</time></trkpt><trkpt lat="45.82455933494706" lon="9.099725912068507"><ele>841.0</ele><time>2026-04-19T08:34:28.999Z</time></trkpt><trkpt lat="45.82460807355582" lon="9.099656073694797"><ele>841.0</ele><time>2026-04-19T08:34:29.999Z</time></trkpt><trkpt lat="45.82466348777271" lon="9.099587227426507"><ele>841.0</ele><time>2026-04-19T08:34:30.999Z</time></trkpt><trkpt lat="45.82472279329454" lon="9.09952593851617"><ele>841.0</ele><time>2026-04-19T08:34:31.999Z</time></trkpt><trkpt lat="45.82479846536854" lon="9.099486398320693"><ele>841.0</ele><time>2026-04-19T08:34:32.999Z</time></trkpt><trkpt lat="45.82486720636397" lon="9.09944010457799"><ele>840.9999999999999</ele><time>2026-04-19T08:34:33.999Z</time></trkpt><trkpt lat="45.82493046324137" lon="9.099425089362315"><ele>841.0</ele><time>2026-04-19T08:34:34.999Z</time></trkpt><trkpt lat="45.8249990263586" lon="9.099405137127404"><ele>841.0</ele><time>2026-04-19T08:34:35.999Z</time></trkpt><trkpt lat="45.82506607930349" lon="9.09933174823957"><ele>841.0</ele><time>2026-04-19T08:34:36.999Z</time></trkpt><trkpt lat="45.825119494840294" lon="9.09925691739513"><ele>840.9999999999999</ele><time>2026-04-19T08:34:37.999Z</time></trkpt><trkpt lat="45.82518034334216" lon="9.099116330799744"><ele>841.0</ele><time>2026-04-19T08:34:39.999Z</time></trkpt><trkpt lat="45.82522491085775" lon="9.098986821964692"><ele>840.9999999999999</ele><time>2026-04-19T08:34:41.999Z</time></trkpt><trkpt lat="45.825286760059875" lon="9.098931290588693"><ele>841.0</ele><time>2026-04-19T08:34:43.999Z</time></trkpt><trkpt lat="45.82527891537167" lon="9.09907975237834"><ele>841.0</ele><time>2026-04-19T08:34:45.999Z</time></trkpt><trkpt lat="45.82520557456543" lon="9.09917523595305"><ele>841.0</ele><time>2026-04-19T08:34:47.999Z</time></trkpt><trkpt lat="45.82516265764363" lon="9.099258745474238"><ele>840.9999999999999</ele><time>2026-04-19T08:34:48.999Z</time></trkpt><trkpt lat="45.825114941290664" lon="9.099351593988318"><ele>841.0</ele><time>2026-04-19T08:34:49.999Z</time></trkpt><trkpt lat="45.82506638912363" lon="9.099465850553187"><ele>841.0</ele><time>2026-04-19T08:34:50.999Z</time></trkpt><trkpt lat="45.825025575913315" lon="9.099560260933243"><ele>841.0</ele><time>2026-04-19T08:34:51.999Z</time></trkpt><trkpt lat="45.82494516674572" lon="9.09971636147807"><ele>841.0</ele><time>2026-04-19T08:34:53.999Z</time></trkpt><trkpt lat="45.82491415534192" lon="9.099804392763046"><ele>841.0</ele><time>2026-04-19T08:34:54.999Z</time></trkpt><trkpt lat="45.82492122589835" lon="9.099979407126808"><ele>841.0</ele><time>2026-04-19T08:34:56.999Z</time></trkpt><trkpt lat="45.82493287124506" lon="9.100069530641742"><ele>843.4999999999999</ele><time>2026-04-19T08:34:57.999Z</time></trkpt><trkpt lat="45.82499970520076" lon="9.100143198026096"><ele>846.0</ele><time>2026-04-19T08:34:58.999Z</time></trkpt><trkpt lat="45.82505355797529" lon="9.100224351244327"><ele>848.5</ele><time>2026-04-19T08:34:59.999Z</time></trkpt><trkpt lat="45.8251143088285" lon="9.100315104486477"><ele>851.0</ele><time>2026-04-19T08:35:00.999Z</time></trkpt><trkpt lat="45.82516612670945" lon="9.100400593883508"><ele>853.4999999999999</ele><time>2026-04-19T08:35:01.999Z</time></trkpt><trkpt lat="45.82522036521862" lon="9.100543472226123"><ele>856.0</ele><time>2026-04-19T08:35:03.999Z</time></trkpt><trkpt lat="45.82520548672753" lon="9.100713000066191"><ele>856.9999999999999</ele><time>2026-04-19T08:35:05.999Z</time></trkpt><trkpt lat="45.82516262856485" lon="9.100884518384785"><ele>858.0</ele><time>2026-04-19T08:35:07.999Z</time></trkpt><trkpt lat="45.825131559918695" lon="9.100982083421886"><ele>859.0</ele><time>2026-04-19T08:35:08.999Z</time></trkpt><trkpt lat="45.8250961687551" lon="9.101059828423018"><ele>860.0</ele><time>2026-04-19T08:35:09.999Z</time></trkpt><trkpt lat="45.825047718557016" lon="9.101127284694638"><ele>860.9999999999999</ele><time>2026-04-19T08:35:10.999Z</time></trkpt><trkpt lat="45.825009529748606" lon="9.101212026645163"><ele>862.0</ele><time>2026-04-19T08:35:11.999Z</time></trkpt><trkpt lat="45.82498551517256" lon="9.101296720683527"><ele>861.9999999999999</ele><time>2026-04-19T08:35:12.999Z</time></trkpt><trkpt lat="45.82499545776662" lon="9.10141118516994"><ele>862.0</ele><time>2026-04-19T08:35:13.999Z</time></trkpt><trkpt lat="45.82504414427702" lon="9.101506598987845"><ele>862.0</ele><time>2026-04-19T08:35:14.999Z</time></trkpt><trkpt lat="45.82512103705672" lon="9.10154971876277"><ele>862.0</ele><time>2026-04-19T08:35:15.999Z</time></trkpt><trkpt lat="45.82516793327857" lon="9.101646630261074"><ele>861.9999999999999</ele><time>2026-04-19T08:35:16.998Z</time></trkpt><trkpt lat="45.82521575696382" lon="9.101732023736332"><ele>862.0</ele><time>2026-04-19T08:35:17.998Z</time></trkpt><trkpt lat="45.82524338554276" lon="9.10182906381875"><ele>864.4999999999999</ele><time>2026-04-19T08:35:18.998Z</time></trkpt><trkpt lat="45.825278122229946" lon="9.101935262204103"><ele>867.0</ele><time>2026-04-19T08:35:19.998Z</time></trkpt><trkpt lat="45.825307445136325" lon="9.102033440442307"><ele>869.5</ele><time>2026-04-19T08:35:20.998Z</time></trkpt><trkpt lat="45.82533639592187" lon="9.10213516257386"><ele>872.0</ele><time>2026-04-19T08:35:21.998Z</time></trkpt><trkpt lat="45.825362651600976" lon="9.102234418290855"><ele>874.4999999999999</ele><time>2026-04-19T08:35:22.998Z</time></trkpt><trkpt lat="45.82538805975242" lon="9.102335105795229"><ele>877.0</ele><time>2026-04-19T08:35:23.998Z</time></trkpt><trkpt lat="45.82545258662466" lon="9.102482651530373"><ele>876.9999999999999</ele><time>2026-04-19T08:35:25.998Z</time></trkpt><trkpt lat="45.82547231581771" lon="9.102570451733936"><ele>877.0</ele><time>2026-04-19T08:35:27.998Z</time></trkpt><trkpt lat="45.825449302530025" lon="9.102482747929288"><ele>877.0</ele><time>2026-04-19T08:37:01.998Z</time></trkpt><trkpt lat="45.82544492853514" lon="9.10233531445166"><ele>877.0</ele><time>2026-04-19T08:37:21.998Z</time></trkpt><trkpt lat="45.825461826714154" lon="9.102462565697392"><ele>876.9999999999999</ele><time>2026-04-19T08:37:33.998Z</time></trkpt><trkpt lat="45.8254968470329" lon="9.102541077359584"><ele>877.0</ele><time>2026-04-19T08:37:52Z</time></trkpt><trkpt lat="45.82555374112904" lon="9.102580011675405"><ele>877.0000000000001</ele><time>2026-04-19T08:38:00Z</time></trkpt><trkpt lat="45.82562482686756" lon="9.102603111219876"><ele>877.0</ele><time>2026-04-19T08:38:08Z</time></trkpt><trkpt lat="45.825689954380415" lon="9.102615602229005"><ele>877.0</ele><time>2026-04-19T08:38:12Z</time></trkpt><trkpt lat="45.82575286781621" lon="9.10259160392923"><ele>877.0</ele><time>2026-04-19T08:38:19Z</time></trkpt><trkpt lat="45.82581711693693" lon="9.102560009774516"><ele>877.0</ele><time>2026-04-19T08:38:57.999Z</time></trkpt><trkpt lat="45.82581032588066" lon="9.102455661552337"><ele>877.0000000000001</ele><time>2026-04-19T08:39:04.999Z</time></trkpt><trkpt lat="45.82583300989894" lon="9.102359100988595"><ele>877.0</ele><time>2026-04-19T08:39:10.999Z</time></trkpt><trkpt lat="45.82584472459935" lon="9.102261284509174"><ele>878.5714285714287</ele><time>2026-04-19T08:39:16.999Z</time></trkpt><trkpt lat="45.825853565709785" lon="9.102170364999816"><ele>880.1428571428571</ele><time>2026-04-19T08:39:22.999Z</time></trkpt><trkpt lat="45.82586851182341" lon="9.102081585778995"><ele>881.7142857142858</ele><time>2026-04-19T08:39:30.999Z</time></trkpt><trkpt lat="45.82590358139034" lon="9.10200507995328"><ele>883.2857142857143</ele><time>2026-04-19T08:39:36.998Z</time></trkpt><trkpt lat="45.82591538722056" lon="9.101909277938498"><ele>884.8571428571429</ele><time>2026-04-19T08:39:55Z</time></trkpt><trkpt lat="45.82594156566749" lon="9.101821961854707"><ele>886.4285714285714</ele><time>2026-04-19T08:39:58Z</time></trkpt><trkpt lat="45.82594020548234" lon="9.101676775451232"><ele>888.0</ele><time>2026-04-19T08:40:01Z</time></trkpt><trkpt lat="45.82592834963424" lon="9.101582810429917"><ele>888.7142857142857</ele><time>2026-04-19T08:40:05Z</time></trkpt><trkpt lat="45.825964436163815" lon="9.101496375846208"><ele>889.4285714285714</ele><time>2026-04-19T08:40:11Z</time></trkpt><trkpt lat="45.825975983444955" lon="9.101393516689367"><ele>890.1428571428571</ele><time>2026-04-19T08:40:18Z</time></trkpt><trkpt lat="45.825995464731804" lon="9.10130386601404"><ele>890.8571428571429</ele><time>2026-04-19T08:40:23.999Z</time></trkpt><trkpt lat="45.825993000709566" lon="9.101200591789647"><ele>891.5714285714287</ele><time>2026-04-19T08:40:31.999Z</time></trkpt><trkpt lat="45.826010369139546" lon="9.101105232382764"><ele>892.2857142857143</ele><time>2026-04-19T08:40:39.999Z</time></trkpt><trkpt lat="45.82601745386064" lon="9.101002256062309"><ele>893.0</ele><time>2026-04-19T08:40:45.999Z</time></trkpt><trkpt lat="45.82601915876" lon="9.10091122173698"><ele>890.7142857142858</ele><time>2026-04-19T08:40:50.999Z</time></trkpt><trkpt lat="45.8260368051906" lon="9.100814894674354"><ele>888.4285714285714</ele><time>2026-04-19T08:40:56.999Z</time></trkpt><trkpt lat="45.82605490158981" lon="9.100725019864946"><ele>886.1428571428571</ele><time>2026-04-19T08:41:05.999Z</time></trkpt><trkpt lat="45.826068292172295" lon="9.100634611209172"><ele>883.8571428571429</ele><time>2026-04-19T08:41:12.999Z</time></trkpt><trkpt lat="45.826063972250395" lon="9.100540619850111"><ele>881.5714285714286</ele><time>2026-04-19T08:41:21.999Z</time></trkpt><trkpt lat="45.826052643984134" lon="9.100450639032696"><ele>879.2857142857143</ele><time>2026-04-19T08:41:29.998Z</time></trkpt><trkpt lat="45.82608004215422" lon="9.100367044869522"><ele>877.0</ele><time>2026-04-19T08:41:44.998Z</time></trkpt><trkpt lat="45.82602648260501" lon="9.100434197476634"><ele>877.0000000000001</ele><time>2026-04-19T08:48:34Z</time></trkpt><trkpt lat="45.82601432796339" lon="9.100528731369865"><ele>877.0</ele><time>2026-04-19T08:48:39Z</time></trkpt><trkpt lat="45.826047575114636" lon="9.100611825948864"><ele>877.0</ele><time>2026-04-19T08:48:54.999Z</time></trkpt><trkpt lat="45.82605266369323" lon="9.100703095000485"><ele>877.0</ele><time>2026-04-19T08:49:04.999Z</time></trkpt><trkpt lat="45.826042931413156" lon="9.10079504761623"><ele>877.0</ele><time>2026-04-19T08:49:12.999Z</time></trkpt><trkpt lat="45.82603924860665" lon="9.100894514814433"><ele>877.0000000000001</ele><time>2026-04-19T08:49:27.999Z</time></trkpt><trkpt lat="45.8259944446235" lon="9.100964860784947"><ele>877.0</ele><time>2026-04-19T08:49:31.999Z</time></trkpt><trkpt lat="45.82599651384992" lon="9.101073032713504"><ele>877.0</ele><time>2026-04-19T08:49:40.999Z</time></trkpt><trkpt lat="45.82595497913459" lon="9.10136180247773"><ele>877.0</ele><time>2026-04-19T08:49:53.999Z</time></trkpt><trkpt lat="45.82600802624627" lon="9.101448114108871"><ele>877.0</ele><time>2026-04-19T08:50:03.998Z</time></trkpt><trkpt lat="45.825974906813904" lon="9.101527491498294"><ele>877.0</ele><time>2026-04-19T08:50:08.998Z</time></trkpt><trkpt lat="45.82589417635425" lon="9.101562644845519"><ele>877.0</ele><time>2026-04-19T08:50:12.999Z</time></trkpt><trkpt lat="45.82593713925376" lon="9.101711986315841"><ele>878.8333333333333</ele><time>2026-04-19T08:50:19.999Z</time></trkpt><trkpt lat="45.82588931713062" lon="9.10179514189517"><ele>880.6666666666666</ele><time>2026-04-19T08:50:25.999Z</time></trkpt><trkpt lat="45.82583063878986" lon="9.101828665040548"><ele>882.5</ele><time>2026-04-19T08:50:33.999Z</time></trkpt><trkpt lat="45.82581796097484" lon="9.10193934416031"><ele>884.3333333333333</ele><time>2026-04-19T08:50:37.999Z</time></trkpt><trkpt lat="45.825765961529434" lon="9.101999925439328"><ele>886.1666666666666</ele><time>2026-04-19T08:50:45.999Z</time></trkpt><trkpt lat="45.825699758396304" lon="9.10212100636964"><ele>888.0</ele><time>2026-04-19T08:50:54.999Z</time></trkpt><trkpt lat="45.8257379526895" lon="9.102223205722535"><ele>888.0</ele><time>2026-04-19T08:50:58.999Z</time></trkpt><trkpt lat="45.82572369980917" lon="9.102337320007841"><ele>888.0</ele><time>2026-04-19T08:51:04.999Z</time></trkpt><trkpt lat="45.82569682791431" lon="9.102444550124943"><ele>888.0</ele><time>2026-04-19T08:51:13.999Z</time></trkpt><trkpt lat="45.825726809166326" lon="9.10253664280611"><ele>888.0</ele><time>2026-04-19T08:51:21.999Z</time></trkpt><trkpt lat="45.82570632747412" lon="9.102623312319334"><ele>888.0</ele><time>2026-04-19T08:51:28.999Z</time></trkpt><trkpt lat="45.825642021267676" lon="9.102590519566398"><ele>888.0</ele><time>2026-04-19T08:51:36.999Z</time></trkpt><trkpt lat="45.825576668649305" lon="9.102576046761644"><ele>888.0</ele><time>2026-04-19T08:51:41.999Z</time></trkpt><trkpt lat="45.82550982180488" lon="9.102525118778367"><ele>888.0</ele><time>2026-04-19T08:51:43.999Z</time></trkpt><trkpt lat="45.825418447986664" lon="9.102549813195116"><ele>888.0</ele><time>2026-04-19T08:51:50.999Z</time></trkpt><trkpt lat="45.825443940712496" lon="9.1024522000932"><ele>888.0</ele><time>2026-04-19T08:51:54.998Z</time></trkpt><trkpt lat="45.825508982318425" lon="9.102440478180428"><ele>888.0</ele><time>2026-04-19T08:52:13.998Z</time></trkpt><trkpt lat="45.82554590701666" lon="9.102356878838004"><ele>888.0</ele><time>2026-04-19T08:54:41Z</time></trkpt><trkpt lat="45.82549788382299" lon="9.102234033519776"><ele>888.0</ele><time>2026-04-19T08:54:44Z</time></trkpt><trkpt lat="45.82545977428519" lon="9.10213468185407"><ele>888.0</ele><time>2026-04-19T08:54:46Z</time></trkpt><trkpt lat="45.82540644692355" lon="9.10200968930683"><ele>888.0</ele><time>2026-04-19T08:54:48Z</time></trkpt><trkpt lat="45.825347029686505" lon="9.101864607374555"><ele>888.0</ele><time>2026-04-19T08:54:50Z</time></trkpt><trkpt lat="45.825269039717185" lon="9.101741922734506"><ele>888.0</ele><time>2026-04-19T08:54:52Z</time></trkpt><trkpt lat="45.8252248842599" lon="9.101611036217221"><ele>888.0</ele><time>2026-04-19T08:54:54Z</time></trkpt><trkpt lat="45.82514926937721" lon="9.101518597578343"><ele>889.0</ele><time>2026-04-19T08:54:56Z</time></trkpt><trkpt lat="45.825077671837235" lon="9.101433858897986"><ele>890.0</ele><time>2026-04-19T08:54:58Z</time></trkpt><trkpt lat="45.825039928618864" lon="9.10130658108744"><ele>891.0</ele><time>2026-04-19T08:55:00Z</time></trkpt><trkpt lat="45.825066623883835" lon="9.101169101667177"><ele>892.0</ele><time>2026-04-19T08:55:02Z</time></trkpt><trkpt lat="45.825140879469465" lon="9.101056857075026"><ele>893.0</ele><time>2026-04-19T08:55:04Z</time></trkpt><trkpt lat="45.825190376858366" lon="9.100929506139218"><ele>893.0</ele><time>2026-04-19T08:55:06Z</time></trkpt><trkpt lat="45.82521848447363" lon="9.100789016075433"><ele>893.0</ele><time>2026-04-19T08:55:08Z</time></trkpt><trkpt lat="45.82525118989174" lon="9.100647181685956"><ele>893.0</ele><time>2026-04-19T08:55:10Z</time></trkpt><trkpt lat="45.825245945371215" lon="9.100486521615679"><ele>893.0</ele><time>2026-04-19T08:55:12Z</time></trkpt><trkpt lat="45.825159412693246" lon="9.10034204515093"><ele>883.75</ele><time>2026-04-19T08:55:14Z</time></trkpt><trkpt lat="45.82509318622189" lon="9.100221091428644"><ele>874.5</ele><time>2026-04-19T08:55:16Z</time></trkpt><trkpt lat="45.825007883807984" lon="9.100101976727197"><ele>865.25</ele><time>2026-04-19T08:55:17.999Z</time></trkpt><trkpt lat="45.82493177398137" lon="9.09996718675499"><ele>856.0</ele><time>2026-04-19T08:55:19.999Z</time></trkpt><trkpt lat="45.82491350882747" lon="9.099815416524235"><ele>855.3333333333333</ele><time>2026-04-19T08:55:21.999Z</time></trkpt><trkpt lat="45.82495455313375" lon="9.099738780774864"><ele>854.6666666666666</ele><time>2026-04-19T08:55:22.999Z</time></trkpt><trkpt lat="45.82498115747873" lon="9.099650398292185"><ele>854.0</ele><time>2026-04-19T08:55:23.999Z</time></trkpt><trkpt lat="45.82506602592418" lon="9.099514569141999"><ele>853.3333333333333</ele><time>2026-04-19T08:55:25.999Z</time></trkpt><trkpt lat="45.825103973534986" lon="9.099441128261644"><ele>852.6666666666666</ele><time>2026-04-19T08:55:26.999Z</time></trkpt><trkpt lat="45.8251418608142" lon="9.099368576054475"><ele>852.0</ele><time>2026-04-19T08:55:27.999Z</time></trkpt><trkpt lat="45.825203592509766" lon="9.099229124898072"><ele>852.0</ele><time>2026-04-19T08:55:29.999Z</time></trkpt><trkpt lat="45.82527747955767" lon="9.099106265515912"><ele>852.0</ele><time>2026-04-19T08:55:31.999Z</time></trkpt><trkpt lat="45.825331365554064" lon="9.099011596074272"><ele>852.0</ele><time>2026-04-19T08:55:33.999Z</time></trkpt><trkpt lat="45.825295749487644" lon="9.098916475989066"><ele>852.0</ele><time>2026-04-19T08:55:35.999Z</time></trkpt><trkpt lat="45.82520562617254" lon="9.098961998142357"><ele>852.0</ele><time>2026-04-19T08:55:37.999Z</time></trkpt><trkpt lat="45.825150259534254" lon="9.099077824607646"><ele>849.8</ele><time>2026-04-19T08:55:39.999Z</time></trkpt><trkpt lat="45.825098697978156" lon="9.099194059436837"><ele>847.6</ele><time>2026-04-19T08:55:41.999Z</time></trkpt><trkpt lat="45.825029099057424" lon="9.099277574815869"><ele>845.4</ele><time>2026-04-19T08:55:43.999Z</time></trkpt><trkpt lat="45.82494518457621" lon="9.099345526993739"><ele>843.1999999999999</ele><time>2026-04-19T08:55:45.999Z</time></trkpt><trkpt lat="45.82484527569031" lon="9.099409560112017"><ele>841.0</ele><time>2026-04-19T08:55:47.999Z</time></trkpt><trkpt lat="45.82474596317315" lon="9.099478074215554"><ele>841.0</ele><time>2026-04-19T08:55:49.999Z</time></trkpt><trkpt lat="45.82465337065828" lon="9.099547033682075"><ele>841.0</ele><time>2026-04-19T08:55:51.999Z</time></trkpt><trkpt lat="45.824560608799764" lon="9.099641293870654"><ele>841.0</ele><time>2026-04-19T08:55:53.999Z</time></trkpt><trkpt lat="45.824496134884185" lon="9.099757407205264"><ele>841.0</ele><time>2026-04-19T08:55:55.999Z</time></trkpt><trkpt lat="45.82446078541482" lon="9.099903947403108"><ele>841.0</ele><time>2026-04-19T08:55:57.999Z</time></trkpt><trkpt lat="45.82445265146132" lon="9.099995429791806"><ele>844.0</ele><time>2026-04-19T08:55:58.999Z</time></trkpt><trkpt lat="45.824453016486444" lon="9.100144181857543"><ele>847.0</ele><time>2026-04-19T08:56:00.999Z</time></trkpt><trkpt lat="45.82446685884476" lon="9.100271217074955"><ele>849.9999999999999</ele><time>2026-04-19T08:56:02.999Z</time></trkpt><trkpt lat="45.82448239351087" lon="9.100398036947473"><ele>853.0</ele><time>2026-04-19T08:56:04.999Z</time></trkpt><trkpt lat="45.824450002193664" lon="9.10051889990273"><ele>856.0</ele><time>2026-04-19T08:56:06.999Z</time></trkpt><trkpt lat="45.82440963462981" lon="9.100621891201442"><ele>855.9999999999999</ele><time>2026-04-19T08:56:08.999Z</time></trkpt><trkpt lat="45.824358597917595" lon="9.100715816594274"><ele>856.0</ele><time>2026-04-19T08:56:10.999Z</time></trkpt><trkpt lat="45.82430298373265" lon="9.100662517924965"><ele>856.0</ele><time>2026-04-19T08:56:13.999Z</time></trkpt><trkpt lat="45.824358821246285" lon="9.100601766461569"><ele>856.0</ele><time>2026-04-19T08:56:14.999Z</time></trkpt><trkpt lat="45.82441277140838" lon="9.100458968976666"><ele>855.9999999999999</ele><time>2026-04-19T08:56:17.999Z</time></trkpt><trkpt lat="45.82439844151194" lon="9.10030331259262"><ele>856.0</ele><time>2026-04-19T08:56:19.999Z</time></trkpt><trkpt lat="45.82432693949609" lon="9.100181105590323"><ele>850.6666666666666</ele><time>2026-04-19T08:56:21.999Z</time></trkpt><trkpt lat="45.824229453802516" lon="9.100078105722657"><ele>845.3333333333333</ele><time>2026-04-19T08:56:23.999Z</time></trkpt><trkpt lat="45.82417631731384" lon="9.1000282294891"><ele>840.0</ele><time>2026-04-19T08:56:24.999Z</time></trkpt><trkpt lat="45.8241222060182" lon="9.099961744377845"><ele>834.6666666666667</ele><time>2026-04-19T08:56:25.999Z</time></trkpt><trkpt lat="45.824064422612295" lon="9.099913329770025"><ele>829.3333333333334</ele><time>2026-04-19T08:56:26.999Z</time></trkpt><trkpt lat="45.824002605787676" lon="9.099879163535629"><ele>824.0</ele><time>2026-04-19T08:56:27.999Z</time></trkpt><trkpt lat="45.82393644062437" lon="9.099853542149758"><ele>822.5000000000001</ele><time>2026-04-19T08:56:29Z</time></trkpt><trkpt lat="45.82387278553381" lon="9.099837747423088"><ele>821.0</ele><time>2026-04-19T08:56:30Z</time></trkpt><trkpt lat="45.823807394759605" lon="9.099833065301207"><ele>819.5</ele><time>2026-04-19T08:56:31Z</time></trkpt><trkpt lat="45.823735561796404" lon="9.099848243236703"><ele>818.0</ele><time>2026-04-19T08:56:32Z</time></trkpt><trkpt lat="45.82366894861181" lon="9.09985550459371"><ele>816.5000000000001</ele><time>2026-04-19T08:56:33Z</time></trkpt><trkpt lat="45.823603742202295" lon="9.099856102975613"><ele>815.0</ele><time>2026-04-19T08:56:34Z</time></trkpt><trkpt lat="45.82347399285617" lon="9.099870208322042"><ele>812.8333333333334</ele><time>2026-04-19T08:56:36Z</time></trkpt><trkpt lat="45.82335430551885" lon="9.099846229383164"><ele>810.6666666666667</ele><time>2026-04-19T08:56:38Z</time></trkpt><trkpt lat="45.82330878926261" lon="9.099772521284537"><ele>808.5</ele><time>2026-04-19T08:56:39Z</time></trkpt><trkpt lat="45.82326330928935" lon="9.099668688170961"><ele>806.3333333333333</ele><time>2026-04-19T08:56:40Z</time></trkpt><trkpt lat="45.82323872706929" lon="9.099571391624222"><ele>804.1666666666666</ele><time>2026-04-19T08:56:41Z</time></trkpt><trkpt lat="45.82321677347242" lon="9.09948575392104"><ele>802.0</ele><time>2026-04-19T08:56:42Z</time></trkpt><trkpt lat="45.82321571583373" lon="9.099386270773207"><ele>801.9999999999999</ele><time>2026-04-19T08:56:43Z</time></trkpt><trkpt lat="45.82323961312511" lon="9.099294188334989"><ele>802.0</ele><time>2026-04-19T08:56:44Z</time></trkpt><trkpt lat="45.82327187136182" lon="9.099209426265933"><ele>802.0</ele><time>2026-04-19T08:56:45Z</time></trkpt><trkpt lat="45.8233236839433" lon="9.099145517064045"><ele>802.0</ele><time>2026-04-19T08:56:46Z</time></trkpt><trkpt lat="45.82339299714467" lon="9.099082237144478"><ele>801.9999999999999</ele><time>2026-04-19T08:56:47Z</time></trkpt><trkpt lat="45.82350989925102" lon="9.099002205286908"><ele>802.0</ele><time>2026-04-19T08:56:49Z</time></trkpt><trkpt lat="45.823621492355855" lon="9.098936137601951"><ele>801.3333333333333</ele><time>2026-04-19T08:56:51Z</time></trkpt><trkpt lat="45.82370103509704" lon="9.098915760306758"><ele>800.6666666666666</ele><time>2026-04-19T08:56:52Z</time></trkpt><trkpt lat="45.82378084312136" lon="9.098855397638447"><ele>800.0</ele><time>2026-04-19T08:56:53Z</time></trkpt><trkpt lat="45.82384291230377" lon="9.09883312664512"><ele>799.3333333333333</ele><time>2026-04-19T08:56:54Z</time></trkpt><trkpt lat="45.823905448002826" lon="9.09879257339269"><ele>798.6666666666666</ele><time>2026-04-19T08:56:55Z</time></trkpt><trkpt lat="45.82397999690445" lon="9.098782777784804"><ele>798.0</ele><time>2026-04-19T08:56:56Z</time></trkpt><trkpt lat="45.82406689884468" lon="9.098718456925981"><ele>798.0</ele><time>2026-04-19T08:56:58Z</time></trkpt><trkpt lat="45.82413685843226" lon="9.098683101602381"><ele>798.0</ele><time>2026-04-19T08:56:59Z</time></trkpt><trkpt lat="45.82421120131691" lon="9.098562235083868"><ele>798.0</ele><time>2026-04-19T08:57:01Z</time></trkpt><trkpt lat="45.82424885516246" lon="9.098487129256165"><ele>798.0</ele><time>2026-04-19T08:57:02Z</time></trkpt><trkpt lat="45.82428975531632" lon="9.098320494070844"><ele>798.0</ele><time>2026-04-19T08:57:04Z</time></trkpt><trkpt lat="45.824314681952416" lon="9.098166476496903"><ele>796.2</ele><time>2026-04-19T08:57:06Z</time></trkpt><trkpt lat="45.82433596798387" lon="9.098008457258649"><ele>794.4</ele><time>2026-04-19T08:57:08Z</time></trkpt><trkpt lat="45.82436031521517" lon="9.097923972631282"><ele>792.6</ele><time>2026-04-19T08:57:09Z</time></trkpt><trkpt lat="45.82438549231529" lon="9.097757500591927"><ele>790.8000000000001</ele><time>2026-04-19T08:57:11Z</time></trkpt><trkpt lat="45.82441407827733" lon="9.097617040539994"><ele>789.0</ele><time>2026-04-19T08:57:13Z</time></trkpt><trkpt lat="45.82443573327075" lon="9.0975251059746"><ele>789.0</ele><time>2026-04-19T08:57:14Z</time></trkpt><trkpt lat="45.824468143999056" lon="9.097439759180178"><ele>789.0</ele><time>2026-04-19T08:57:15Z</time></trkpt><trkpt lat="45.82454076757944" lon="9.09730907002237"><ele>789.0</ele><time>2026-04-19T08:57:17Z</time></trkpt><trkpt lat="45.82465308106847" lon="9.097265046290824"><ele>789.0</ele><time>2026-04-19T08:57:19Z</time></trkpt><trkpt lat="45.824764173688855" lon="9.097229331974626"><ele>789.0</ele><time>2026-04-19T08:57:21Z</time></trkpt><trkpt lat="45.82483297969602" lon="9.097147974838139"><ele>780.4000000000001</ele><time>2026-04-19T08:57:23Z</time></trkpt><trkpt lat="45.82479899357698" lon="9.097027091886318"><ele>771.8</ele><time>2026-04-19T08:57:25Z</time></trkpt><trkpt lat="45.82472228562429" lon="9.097049214068933"><ele>763.2</ele><time>2026-04-19T08:57:26Z</time></trkpt><trkpt lat="45.8246632709891" lon="9.09710272750792"><ele>754.5999999999999</ele><time>2026-04-19T08:57:26.999Z</time></trkpt><trkpt lat="45.82454736067653" lon="9.09713743044721"><ele>746.0</ele><time>2026-04-19T08:57:28.999Z</time></trkpt><trkpt lat="45.82442891267981" lon="9.097180682487275"><ele>747.8</ele><time>2026-04-19T08:57:30.999Z</time></trkpt><trkpt lat="45.82430431829383" lon="9.097202463655966"><ele>749.5999999999999</ele><time>2026-04-19T08:57:32.999Z</time></trkpt><trkpt lat="45.82418124284717" lon="9.097202315324134"><ele>751.4</ele><time>2026-04-19T08:57:34.999Z</time></trkpt><trkpt lat="45.82411088167151" lon="9.097193032970218"><ele>753.2</ele><time>2026-04-19T08:57:35.999Z</time></trkpt><trkpt lat="45.824040256820574" lon="9.097229287618287"><ele>755.0</ele><time>2026-04-19T08:57:36.999Z</time></trkpt><trkpt lat="45.82397267302531" lon="9.09720841008414"><ele>755.0</ele><time>2026-04-19T08:57:37.999Z</time></trkpt><trkpt lat="45.82390430278902" lon="9.09718854982056"><ele>755.0</ele><time>2026-04-19T08:57:38.999Z</time></trkpt><trkpt lat="45.82383632136241" lon="9.097163157336619"><ele>755.0</ele><time>2026-04-19T08:57:39.999Z</time></trkpt><trkpt lat="45.823754704612014" lon="9.097126703692242"><ele>755.0</ele><time>2026-04-19T08:57:41.999Z</time></trkpt><trkpt lat="45.82366725875546" lon="9.097082949427335"><ele>755.0</ele><time>2026-04-19T08:57:43.999Z</time></trkpt><trkpt lat="45.823550031413106" lon="9.097026789027371"><ele>755.0</ele><time>2026-04-19T08:57:45.999Z</time></trkpt><trkpt lat="45.82348892593048" lon="9.096997315583204"><ele>754.6666666666666</ele><time>2026-04-19T08:57:46.999Z</time></trkpt><trkpt lat="45.82341935120194" lon="9.096968189640151"><ele>754.3333333333333</ele><time>2026-04-19T08:57:47.999Z</time></trkpt><trkpt lat="45.82335449010133" lon="9.096959379068188"><ele>754.0</ele><time>2026-04-19T08:57:48.999Z</time></trkpt><trkpt lat="45.823223974140625" lon="9.096904386770342"><ele>753.6666666666666</ele><time>2026-04-19T08:57:50.999Z</time></trkpt><trkpt lat="45.82314376868602" lon="9.096874648476385"><ele>753.3333333333334</ele><time>2026-04-19T08:57:51.999Z</time></trkpt><trkpt lat="45.823074003392044" lon="9.09685557884015"><ele>753.0</ele><time>2026-04-19T08:57:52.999Z</time></trkpt><trkpt lat="45.82299694868483" lon="9.096828694869364"><ele>753.0</ele><time>2026-04-19T08:57:53.999Z</time></trkpt><trkpt lat="45.82291903410268" lon="9.096814197657837"><ele>753.0</ele><time>2026-04-19T08:57:54.999Z</time></trkpt><trkpt lat="45.822845580520365" lon="9.096802953818228"><ele>753.0</ele><time>2026-04-19T08:57:55.999Z</time></trkpt><trkpt lat="45.822765192222505" lon="9.096792151966342"><ele>753.0</ele><time>2026-04-19T08:57:56.999Z</time></trkpt><trkpt lat="45.82269840976385" lon="9.096764142169466"><ele>753.0</ele><time>2026-04-19T08:57:57.999Z</time></trkpt><trkpt lat="45.82263636359609" lon="9.09673776530582"><ele>753.0</ele><time>2026-04-19T08:57:58.999Z</time></trkpt><trkpt lat="45.82253473567307" lon="9.096704402932412"><ele>752.3333333333334</ele><time>2026-04-19T08:58:00.999Z</time></trkpt><trkpt lat="45.82246193414562" lon="9.096684651065425"><ele>751.6666666666666</ele><time>2026-04-19T08:58:01.999Z</time></trkpt><trkpt lat="45.82239764825933" lon="9.096666388954283"><ele>751.0</ele><time>2026-04-19T08:58:02.999Z</time></trkpt><trkpt lat="45.82232376243032" lon="9.096635427753597"><ele>750.3333333333333</ele><time>2026-04-19T08:58:03.999Z</time></trkpt><trkpt lat="45.82224904099915" lon="9.096620132504896"><ele>749.6666666666666</ele><time>2026-04-19T08:58:04.999Z</time></trkpt><trkpt lat="45.82217581300409" lon="9.096606605397039"><ele>749.0</ele><time>2026-04-19T08:58:05.999Z</time></trkpt><trkpt lat="45.82209174906916" lon="9.096590728334148"><ele>745.0</ele><time>2026-04-19T08:58:06.999Z</time></trkpt><trkpt lat="45.822009453921304" lon="9.096576616350847"><ele>741.0</ele><time>2026-04-19T08:58:07.999Z</time></trkpt><trkpt lat="45.821932585965754" lon="9.096567200427259"><ele>737.0</ele><time>2026-04-19T08:58:08.999Z</time></trkpt><trkpt lat="45.8218607805539" lon="9.096557887525512"><ele>733.0</ele><time>2026-04-19T08:58:09.999Z</time></trkpt><trkpt lat="45.8217947749856" lon="9.096557221845892"><ele>729.0</ele><time>2026-04-19T08:58:10.999Z</time></trkpt><trkpt lat="45.82173183911091" lon="9.096546712595"><ele>725.0</ele><time>2026-04-19T08:58:11.999Z</time></trkpt><trkpt lat="45.8216230701516" lon="9.096505074572468"><ele>725.0</ele><time>2026-04-19T08:58:13.999Z</time></trkpt><trkpt lat="45.82152972863432" lon="9.096389383268523"><ele>725.0</ele><time>2026-04-19T08:58:15.999Z</time></trkpt><trkpt lat="45.821442081610094" lon="9.096330215542324"><ele>725.0</ele><time>2026-04-19T08:58:17.999Z</time></trkpt><trkpt lat="45.8213670059095" lon="9.096341704990596"><ele>725.0</ele><time>2026-04-19T08:58:19.999Z</time></trkpt><trkpt lat="45.82133655663368" lon="9.096431173601601"><ele>725.0</ele><time>2026-04-19T08:58:22.999Z</time></trkpt><trkpt lat="45.821389162365634" lon="9.096545877503438"><ele>728.0</ele><time>2026-04-19T08:58:38Z</time></trkpt><trkpt lat="45.82146492824376" lon="9.096608746038122"><ele>731.0</ele><time>2026-04-19T08:58:40Z</time></trkpt><trkpt lat="45.82154102417575" lon="9.09670494721619"><ele>734.0</ele><time>2026-04-19T08:58:42Z</time></trkpt><trkpt lat="45.82160617984923" lon="9.096773741399208"><ele>737.0</ele><time>2026-04-19T08:58:44Z</time></trkpt><trkpt lat="45.821685804743346" lon="9.096903643039754"><ele>740.0</ele><time>2026-04-19T08:58:46Z</time></trkpt><trkpt lat="45.821753692182604" lon="9.09699819588989"><ele>740.0</ele><time>2026-04-19T08:58:48Z</time></trkpt><trkpt lat="45.82172356696896" lon="9.09708078566121"><ele>740.0</ele><time>2026-04-19T08:58:53Z</time></trkpt><trkpt lat="45.82165472572248" lon="9.096987395649212"><ele>740.0</ele><time>2026-04-19T08:58:55Z</time></trkpt><trkpt lat="45.82157875661779" lon="9.096913958287889"><ele>740.0</ele><time>2026-04-19T08:58:57Z</time></trkpt><trkpt lat="45.821490500641445" lon="9.096874445444424"><ele>740.0</ele><time>2026-04-19T08:58:59Z</time></trkpt><trkpt lat="45.82138904700731" lon="9.096810663386199"><ele>740.0</ele><time>2026-04-19T08:59:01Z</time></trkpt><trkpt lat="45.821267097183714" lon="9.09675600511303"><ele>740.0</ele><time>2026-04-19T08:59:03Z</time></trkpt><trkpt lat="45.82114926880685" lon="9.09670030960228"><ele>740.0</ele><time>2026-04-19T08:59:05Z</time></trkpt><trkpt lat="45.82102952391567" lon="9.096651874824763"><ele>740.0</ele><time>2026-04-19T08:59:07Z</time></trkpt><trkpt lat="45.82096922831105" lon="9.096599926826205"><ele>740.0</ele><time>2026-04-19T08:59:08Z</time></trkpt><trkpt lat="45.82089371389273" lon="9.096562752015934"><ele>737.6666666666666</ele><time>2026-04-19T08:59:09Z</time></trkpt><trkpt lat="45.82082876988901" lon="9.096528144984534"><ele>735.3333333333333</ele><time>2026-04-19T08:59:10Z</time></trkpt><trkpt lat="45.820769283771824" lon="9.096478951143995"><ele>733.0</ele><time>2026-04-19T08:59:11Z</time></trkpt><trkpt lat="45.820711818003716" lon="9.096433439841809"><ele>730.6666666666666</ele><time>2026-04-19T08:59:12Z</time></trkpt><trkpt lat="45.82065300328868" lon="9.096391928391412"><ele>728.3333333333334</ele><time>2026-04-19T08:59:13Z</time></trkpt><trkpt lat="45.82053926442471" lon="9.096341585274244"><ele>726.0</ele><time>2026-04-19T08:59:15Z</time></trkpt><trkpt lat="45.82042981441107" lon="9.096273435407742"><ele>726.0</ele><time>2026-04-19T08:59:17Z</time></trkpt><trkpt lat="45.820336792887" lon="9.096204719509513"><ele>726.0</ele><time>2026-04-19T08:59:19Z</time></trkpt><trkpt lat="45.82026148071957" lon="9.096107291614056"><ele>726.0</ele><time>2026-04-19T08:59:21Z</time></trkpt><trkpt lat="45.82019810996802" lon="9.096040950450385"><ele>726.0</ele><time>2026-04-19T08:59:23Z</time></trkpt><trkpt lat="45.82014463378682" lon="9.09594305160654"><ele>726.0</ele><time>2026-04-19T08:59:26Z</time></trkpt><trkpt lat="45.82017136099853" lon="9.095838552597588"><ele>726.0</ele><time>2026-04-19T08:59:28Z</time></trkpt><trkpt lat="45.82020635744734" lon="9.095735104112885"><ele>722.1666666666666</ele><time>2026-04-19T08:59:30Z</time></trkpt><trkpt lat="45.82023975063263" lon="9.095654045761242"><ele>718.3333333333334</ele><time>2026-04-19T08:59:32Z</time></trkpt><trkpt lat="45.82030528758097" lon="9.095596566276585"><ele>714.5</ele><time>2026-04-19T08:59:34Z</time></trkpt><trkpt lat="45.820388260362" lon="9.095536588727729"><ele>710.6666666666667</ele><time>2026-04-19T08:59:35.999Z</time></trkpt><trkpt lat="45.82047766513607" lon="9.095455431445867"><ele>706.8333333333334</ele><time>2026-04-19T08:59:37.999Z</time></trkpt><trkpt lat="45.820577033308325" lon="9.095399201688995"><ele>703.0</ele><time>2026-04-19T08:59:39.999Z</time></trkpt><trkpt lat="45.8206938173194" lon="9.095371556071218"><ele>703.0</ele><time>2026-04-19T08:59:41.999Z</time></trkpt><trkpt lat="45.82080965310732" lon="9.095370550359117"><ele>703.0</ele><time>2026-04-19T08:59:43.999Z</time></trkpt><trkpt lat="45.820919405486414" lon="9.095369005338968"><ele>703.0</ele><time>2026-04-19T08:59:45.999Z</time></trkpt><trkpt lat="45.8210169215957" lon="9.095328188204162"><ele>703.0</ele><time>2026-04-19T08:59:47.999Z</time></trkpt><trkpt lat="45.82106694659083" lon="9.095239681261566"><ele>703.0</ele><time>2026-04-19T08:59:49.999Z</time></trkpt><trkpt lat="45.82108849704285" lon="9.095068771412608"><ele>699.3333333333334</ele><time>2026-04-19T08:59:51.999Z</time></trkpt><trkpt lat="45.82114249311038" lon="9.094915447963102"><ele>695.6666666666667</ele><time>2026-04-19T08:59:53.999Z</time></trkpt><trkpt lat="45.821213841541294" lon="9.094829358508877"><ele>692.0</ele><time>2026-04-19T08:59:55.999Z</time></trkpt><trkpt lat="45.82117848098849" lon="9.094709551939014"><ele>688.3333333333334</ele><time>2026-04-19T08:59:58.999Z</time></trkpt><trkpt lat="45.821110609181716" lon="9.094736282780415"><ele>684.6666666666666</ele><time>2026-04-19T08:59:59.999Z</time></trkpt><trkpt lat="45.821048539187885" lon="9.094792268065733"><ele>681.0</ele><time>2026-04-19T09:00:01.999Z</time></trkpt><trkpt lat="45.82097203877592" lon="9.09486319849611"><ele>679.5</ele><time>2026-04-19T09:00:04.999Z</time></trkpt><trkpt lat="45.82090551614611" lon="9.094915773839203"><ele>678.0</ele><time>2026-04-19T09:00:06.999Z</time></trkpt><trkpt lat="45.82083422278456" lon="9.094942150475717"><ele>676.5</ele><time>2026-04-19T09:00:08.999Z</time></trkpt><trkpt lat="45.82073860193295" lon="9.094958506077413"><ele>675.0</ele><time>2026-04-19T09:00:10.999Z</time></trkpt><trkpt lat="45.820610024969" lon="9.094968321735603"><ele>673.5</ele><time>2026-04-19T09:00:12.999Z</time></trkpt><trkpt lat="45.820541417791475" lon="9.094979796278116"><ele>672.0</ele><time>2026-04-19T09:00:13.999Z</time></trkpt><trkpt lat="45.82043471803444" lon="9.095004176028457"><ele>675.4000000000001</ele><time>2026-04-19T09:00:15.999Z</time></trkpt><trkpt lat="45.82030556164925" lon="9.095026468631065"><ele>678.8000000000001</ele><time>2026-04-19T09:00:17.999Z</time></trkpt><trkpt lat="45.82018267054367" lon="9.095048544767407"><ele>682.2</ele><time>2026-04-19T09:00:19.999Z</time></trkpt><trkpt lat="45.82011913117631" lon="9.095058812732049"><ele>685.6</ele><time>2026-04-19T09:00:20.999Z</time></trkpt><trkpt lat="45.82005005488852" lon="9.095061178346668"><ele>689.0</ele><time>2026-04-19T09:00:21.999Z</time></trkpt><trkpt lat="45.81997214695696" lon="9.095078484814078"><ele>689.0</ele><time>2026-04-19T09:00:23.999Z</time></trkpt><trkpt lat="45.81989979926642" lon="9.095094789355008"><ele>689.0</ele><time>2026-04-19T09:00:25.999Z</time></trkpt><trkpt lat="45.81997035634564" lon="9.095049089852303"><ele>689.0</ele><time>2026-04-19T09:00:32.999Z</time></trkpt><trkpt lat="45.820052278721434" lon="9.095027364377701"><ele>689.0</ele><time>2026-04-19T09:00:34.999Z</time></trkpt><trkpt lat="45.820143980829926" lon="9.094887109046441"><ele>689.0</ele><time>2026-04-19T09:00:35.999Z</time></trkpt><trkpt lat="45.82021194259213" lon="9.094832601407857"><ele>689.0</ele><time>2026-04-19T09:00:36.999Z</time></trkpt><trkpt lat="45.82031282605725" lon="9.094771926179687"><ele>686.1666666666666</ele><time>2026-04-19T09:00:38.999Z</time></trkpt><trkpt lat="45.820378263425866" lon="9.094710727610043"><ele>683.3333333333333</ele><time>2026-04-19T09:00:39.999Z</time></trkpt><trkpt lat="45.82044278846055" lon="9.094654842350423"><ele>680.5</ele><time>2026-04-19T09:00:41Z</time></trkpt><trkpt lat="45.820514613640825" lon="9.094608616793177"><ele>677.6666666666666</ele><time>2026-04-19T09:00:42Z</time></trkpt><trkpt lat="45.82058167727243" lon="9.094571701893667"><ele>674.8333333333334</ele><time>2026-04-19T09:00:43Z</time></trkpt><trkpt lat="45.820646212261146" lon="9.094532064627263"><ele>672.0</ele><time>2026-04-19T09:00:44Z</time></trkpt><trkpt lat="45.82071958997782" lon="9.094495118189032"><ele>672.0</ele><time>2026-04-19T09:00:45Z</time></trkpt><trkpt lat="45.820783320320395" lon="9.094455050296679"><ele>672.0</ele><time>2026-04-19T09:00:46Z</time></trkpt><trkpt lat="45.82084658415026" lon="9.094423937332195"><ele>672.0</ele><time>2026-04-19T09:00:47Z</time></trkpt><trkpt lat="45.820906901797734" lon="9.094393789086954"><ele>672.0</ele><time>2026-04-19T09:00:48Z</time></trkpt><trkpt lat="45.82096795638112" lon="9.094363424242076"><ele>672.0</ele><time>2026-04-19T09:00:49Z</time></trkpt><trkpt lat="45.82103217882082" lon="9.094325988321271"><ele>672.0</ele><time>2026-04-19T09:00:50Z</time></trkpt><trkpt lat="45.821097412175625" lon="9.094263598308316"><ele>672.0</ele><time>2026-04-19T09:00:51Z</time></trkpt><trkpt lat="45.82116231835294" lon="9.094201744156234"><ele>673.8</ele><time>2026-04-19T09:00:52Z</time></trkpt><trkpt lat="45.8212175860241" lon="9.094141320352097"><ele>675.6</ele><time>2026-04-19T09:00:53Z</time></trkpt><trkpt lat="45.8212704919816" lon="9.094078738666324"><ele>677.4</ele><time>2026-04-19T09:00:54Z</time></trkpt><trkpt lat="45.821387861685544" lon="9.094015341513275"><ele>679.1999999999999</ele><time>2026-04-19T09:00:56Z</time></trkpt><trkpt lat="45.821513785738134" lon="9.093997473639828"><ele>681.0</ele><time>2026-04-19T09:00:58Z</time></trkpt><trkpt lat="45.82158936290074" lon="9.094113251079218"><ele>681.0</ele><time>2026-04-19T09:01:00Z</time></trkpt><trkpt lat="45.821671503505115" lon="9.094161704323342"><ele>681.0</ele><time>2026-04-19T09:01:01Z</time></trkpt><trkpt lat="45.8217541667092" lon="9.094187445598408"><ele>681.0</ele><time>2026-04-19T09:01:02Z</time></trkpt><trkpt lat="45.82182099229504" lon="9.094174687466701"><ele>681.0</ele><time>2026-04-19T09:01:04Z</time></trkpt><trkpt lat="45.821926052358606" lon="9.094258611428321"><ele>681.0</ele><time>2026-04-19T09:01:08Z</time></trkpt><trkpt lat="45.82197473589885" lon="9.094171406288686"><ele>681.0</ele><time>2026-04-19T09:01:09Z</time></trkpt><trkpt lat="45.822054265542604" lon="9.094208969921452"><ele>679.1999999999999</ele><time>2026-04-19T09:01:11Z</time></trkpt><trkpt lat="45.82214690739379" lon="9.094241957327023"><ele>677.4</ele><time>2026-04-19T09:01:13Z</time></trkpt><trkpt lat="45.82224205654499" lon="9.094276217829895"><ele>675.6</ele><time>2026-04-19T09:01:15Z</time></trkpt><trkpt lat="45.82234821699806" lon="9.09429779721057"><ele>673.8</ele><time>2026-04-19T09:01:17Z</time></trkpt><trkpt lat="45.822459287512785" lon="9.09437493573415"><ele>672.0</ele><time>2026-04-19T09:01:19Z</time></trkpt><trkpt lat="45.822560714840954" lon="9.094383133863781"><ele>671.8</ele><time>2026-04-19T09:01:21Z</time></trkpt><trkpt lat="45.82266150507999" lon="9.094392386979939"><ele>671.6</ele><time>2026-04-19T09:01:23Z</time></trkpt><trkpt lat="45.822729089400056" lon="9.094401452995852"><ele>671.4</ele><time>2026-04-19T09:01:24Z</time></trkpt><trkpt lat="45.822799774732474" lon="9.0944109564951"><ele>671.1999999999999</ele><time>2026-04-19T09:01:25Z</time></trkpt><trkpt lat="45.82291397749268" lon="9.094429718669423"><ele>671.0</ele><time>2026-04-19T09:01:27Z</time></trkpt><trkpt lat="45.82302135276908" lon="9.094444613183487"><ele>671.0</ele><time>2026-04-19T09:01:29Z</time></trkpt><trkpt lat="45.82314265877887" lon="9.094478506550471"><ele>671.0</ele><time>2026-04-19T09:01:31Z</time></trkpt><trkpt lat="45.82324500784652" lon="9.094478842386113"><ele>671.0</ele><time>2026-04-19T09:01:33Z</time></trkpt><trkpt lat="45.823358331796946" lon="9.094474302385768"><ele>671.0</ele><time>2026-04-19T09:01:35Z</time></trkpt><trkpt lat="45.82346501312474" lon="9.094478669134938"><ele>671.0</ele><time>2026-04-19T09:01:37Z</time></trkpt><trkpt lat="45.82354854157028" lon="9.094431291006016"><ele>671.0</ele><time>2026-04-19T09:01:38Z</time></trkpt><trkpt lat="45.82363051165709" lon="9.094412609550048"><ele>671.0</ele><time>2026-04-19T09:01:39Z</time></trkpt><trkpt lat="45.82369192302296" lon="9.09437840237243"><ele>671.0</ele><time>2026-04-19T09:01:40Z</time></trkpt><trkpt lat="45.82374858436797" lon="9.094323233976192"><ele>671.0</ele><time>2026-04-19T09:01:41Z</time></trkpt><trkpt lat="45.82386522864898" lon="9.0942747121778"><ele>671.0</ele><time>2026-04-19T09:01:42.999Z</time></trkpt><trkpt lat="45.82392635983416" lon="9.094224781556335"><ele>671.0</ele><time>2026-04-19T09:01:43.999Z</time></trkpt><trkpt lat="45.82403042428041" lon="9.094169540796102"><ele>671.0</ele><time>2026-04-19T09:01:45.999Z</time></trkpt><trkpt lat="45.82413255840597" lon="9.094089606030554"><ele>671.0</ele><time>2026-04-19T09:01:47.999Z</time></trkpt><trkpt lat="45.82422357931706" lon="9.09400067221943"><ele>671.0</ele><time>2026-04-19T09:01:49.999Z</time></trkpt><trkpt lat="45.824299498569204" lon="9.093981084815765"><ele>671.0</ele><time>2026-04-19T09:01:51.999Z</time></trkpt><trkpt lat="45.82436480253871" lon="9.0939715607626"><ele>671.0</ele><time>2026-04-19T09:01:53.999Z</time></trkpt><trkpt lat="45.824431681898986" lon="9.094018769527251"><ele>671.0</ele><time>2026-04-19T09:01:58.999Z</time></trkpt><trkpt lat="45.82448960040618" lon="9.094064547161125"><ele>668.7142857142857</ele><time>2026-04-19T09:02:18.999Z</time></trkpt><trkpt lat="45.82446814733702" lon="9.094152163622816"><ele>666.4285714285714</ele><time>2026-04-19T09:02:50Z</time></trkpt><trkpt lat="45.82440140065709" lon="9.094177190608015"><ele>664.1428571428571</ele><time>2026-04-19T09:03:04Z</time></trkpt><trkpt lat="45.8243937105497" lon="9.094084457753283"><ele>661.8571428571429</ele><time>2026-04-19T09:03:43.999Z</time></trkpt><trkpt lat="45.82437188959338" lon="9.093995112096039"><ele>659.5714285714286</ele><time>2026-04-19T09:03:45.999Z</time></trkpt><trkpt lat="45.82431677551006" lon="9.093921288418453"><ele>657.2857142857143</ele><time>2026-04-19T09:03:48.999Z</time></trkpt><trkpt lat="45.824245647761884" lon="9.093922217216301"><ele>655.0</ele><time>2026-04-19T09:03:51.999Z</time></trkpt><trkpt lat="45.824185064239536" lon="9.093978953993924"><ele>654.0</ele><time>2026-04-19T09:03:53.999Z</time></trkpt><trkpt lat="45.82411398722751" lon="9.094050813577113"><ele>653.0</ele><time>2026-04-19T09:03:55.999Z</time></trkpt><trkpt lat="45.824040134186525" lon="9.094128531897132"><ele>652.0</ele><time>2026-04-19T09:03:57.999Z</time></trkpt><trkpt lat="45.8239690653691" lon="9.094177668813616"><ele>651.0</ele><time>2026-04-19T09:03:59.999Z</time></trkpt><trkpt lat="45.82390479615469" lon="9.09423672704761"><ele>650.0</ele><time>2026-04-19T09:04:00.999Z</time></trkpt><trkpt lat="45.82381322120708" lon="9.094295756177408"><ele>649.0</ele><time>2026-04-19T09:04:01.999Z</time></trkpt><trkpt lat="45.823706217402545" lon="9.094319342819606"><ele>652.6666666666667</ele><time>2026-04-19T09:04:03.999Z</time></trkpt><trkpt lat="45.8236305253384" lon="9.094361529906013"><ele>656.3333333333334</ele><time>2026-04-19T09:04:05.999Z</time></trkpt><trkpt lat="45.82354312096081" lon="9.094404602269634"><ele>660.0</ele><time>2026-04-19T09:04:07.999Z</time></trkpt><trkpt lat="45.82342317697739" lon="9.09445564965988"><ele>663.6666666666666</ele><time>2026-04-19T09:04:09.999Z</time></trkpt><trkpt lat="45.823349731389555" lon="9.094466236499434"><ele>667.3333333333333</ele><time>2026-04-19T09:04:11.999Z</time></trkpt><trkpt lat="45.82328010581219" lon="9.094439999846495"><ele>671.0</ele><time>2026-04-19T09:04:12.999Z</time></trkpt><trkpt lat="45.82321589679567" lon="9.094434433826562"><ele>671.0</ele><time>2026-04-19T09:04:13.999Z</time></trkpt><trkpt lat="45.82314602513443" lon="9.094424362509372"><ele>671.0</ele><time>2026-04-19T09:04:14.999Z</time></trkpt><trkpt lat="45.82307769611803" lon="9.094413645027329"><ele>671.0</ele><time>2026-04-19T09:04:15.999Z</time></trkpt><trkpt lat="45.82301026416163" lon="9.094394647941106"><ele>671.0</ele><time>2026-04-19T09:04:16.999Z</time></trkpt><trkpt lat="45.822933155686755" lon="9.094384056171382"><ele>671.0</ele><time>2026-04-19T09:04:17.999Z</time></trkpt><trkpt lat="45.82285920477085" lon="9.094376037664418"><ele>671.0</ele><time>2026-04-19T09:04:18.999Z</time></trkpt><trkpt lat="45.82277751489433" lon="9.094370375733975"><ele>671.0</ele><time>2026-04-19T09:04:19.999Z</time></trkpt><trkpt lat="45.82270998877331" lon="9.094348510803105"><ele>671.1666666666666</ele><time>2026-04-19T09:04:20.999Z</time></trkpt><trkpt lat="45.822618113367085" lon="9.094349031884686"><ele>671.3333333333333</ele><time>2026-04-19T09:04:21.999Z</time></trkpt><trkpt lat="45.822544088462266" lon="9.094331458451922"><ele>671.5</ele><time>2026-04-19T09:04:22.999Z</time></trkpt><trkpt lat="45.82246409753926" lon="9.09432842613019"><ele>671.6666666666666</ele><time>2026-04-19T09:04:23.999Z</time></trkpt><trkpt lat="45.82238596590155" lon="9.09432174024915"><ele>671.8333333333334</ele><time>2026-04-19T09:04:24.999Z</time></trkpt><trkpt lat="45.82230187371872" lon="9.094308014939179"><ele>672.0</ele><time>2026-04-19T09:04:25.999Z</time></trkpt><trkpt lat="45.8222236169685" lon="9.094292712280124"><ele>672.0</ele><time>2026-04-19T09:04:26.999Z</time></trkpt><trkpt lat="45.82214301939111" lon="9.09426218200302"><ele>672.0</ele><time>2026-04-19T09:04:27.999Z</time></trkpt><trkpt lat="45.822072669221" lon="9.09424887546493"><ele>672.0</ele><time>2026-04-19T09:04:28.999Z</time></trkpt><trkpt lat="45.82197596257657" lon="9.094229824546208"><ele>672.0</ele><time>2026-04-19T09:04:30.999Z</time></trkpt><trkpt lat="45.821902316243644" lon="9.094189605941008"><ele>672.0</ele><time>2026-04-19T09:04:32.999Z</time></trkpt><trkpt lat="45.82183796396761" lon="9.09419265651383"><ele>672.0</ele><time>2026-04-19T09:04:35.999Z</time></trkpt><trkpt lat="45.821900295983646" lon="9.094176181256747"><ele>672.0</ele><time>2026-04-19T09:04:42.999Z</time></trkpt><trkpt lat="45.8219786290578" lon="9.094196942215426"><ele>672.0</ele><time>2026-04-19T09:04:44.999Z</time></trkpt><trkpt lat="45.82208027971099" lon="9.09420776670858"><ele>672.0</ele><time>2026-04-19T09:04:46.999Z</time></trkpt><trkpt lat="45.82218660363249" lon="9.094233615656776"><ele>672.0</ele><time>2026-04-19T09:04:48.999Z</time></trkpt><trkpt lat="45.822298347193104" lon="9.094282843132461"><ele>672.0</ele><time>2026-04-19T09:04:50.999Z</time></trkpt><trkpt lat="45.822370876603664" lon="9.094301073753545"><ele>672.0</ele><time>2026-04-19T09:04:51.999Z</time></trkpt><trkpt lat="45.822444092318925" lon="9.094305580159855"><ele>672.0</ele><time>2026-04-19T09:04:53Z</time></trkpt><trkpt lat="45.82278734511948" lon="9.09350285640382"><ele>669.2</ele><time>2026-04-19T09:05:05Z</time></trkpt><trkpt lat="45.82271322065909" lon="9.093408691212531"><ele>666.4000000000001</ele><time>2026-04-19T09:05:07Z</time></trkpt><trkpt lat="45.82261253801082" lon="9.093391234191655"><ele>663.5999999999999</ele><time>2026-04-19T09:05:09Z</time></trkpt><trkpt lat="45.82251350370139" lon="9.09335985914919"><ele>660.8</ele><time>2026-04-19T09:05:11Z</time></trkpt><trkpt lat="45.8224261661148" lon="9.09333851366777"><ele>658.0</ele><time>2026-04-19T09:05:13Z</time></trkpt><trkpt lat="45.822339610902645" lon="9.093310399075618"><ele>656.4</ele><time>2026-04-19T09:05:15Z</time></trkpt><trkpt lat="45.82225160710882" lon="9.093252807353178"><ele>654.8</ele><time>2026-04-19T09:05:17Z</time></trkpt><trkpt lat="45.822177662204986" lon="9.093140180267733"><ele>653.2</ele><time>2026-04-19T09:05:19Z</time></trkpt><trkpt lat="45.822167667727044" lon="9.092962186453478"><ele>651.6</ele><time>2026-04-19T09:05:21Z</time></trkpt><trkpt lat="45.82217663200392" lon="9.092868749143028"><ele>650.0</ele><time>2026-04-19T09:05:22Z</time></trkpt><trkpt lat="45.822183527630834" lon="9.092772049023537"><ele>650.0</ele><time>2026-04-19T09:05:23Z</time></trkpt><trkpt lat="45.822183658729756" lon="9.092662847872164"><ele>650.0</ele><time>2026-04-19T09:05:24Z</time></trkpt><trkpt lat="45.82218257714843" lon="9.092558340917199"><ele>650.0</ele><time>2026-04-19T09:05:25Z</time></trkpt><trkpt lat="45.82219939818223" lon="9.092447384547327"><ele>650.0</ele><time>2026-04-19T09:05:26Z</time></trkpt><trkpt lat="45.82222345351306" lon="9.092339658423693"><ele>650.0</ele><time>2026-04-19T09:05:27Z</time></trkpt><trkpt lat="45.82224240417217" lon="9.092237558185147"><ele>650.0</ele><time>2026-04-19T09:05:28Z</time></trkpt><trkpt lat="45.82226154725242" lon="9.092139466767009"><ele>646.6</ele><time>2026-04-19T09:05:29Z</time></trkpt><trkpt lat="45.82226993156359" lon="9.091992871183608"><ele>643.2</ele><time>2026-04-19T09:05:31Z</time></trkpt><trkpt lat="45.82228759262538" lon="9.091881689062886"><ele>639.8</ele><time>2026-04-19T09:05:33Z</time></trkpt><trkpt lat="45.82238181240689" lon="9.091837263335275"><ele>636.4</ele><time>2026-04-19T09:05:35Z</time></trkpt><trkpt lat="45.82243916876705" lon="9.091875574969848"><ele>633.0</ele><time>2026-04-19T09:05:36Z</time></trkpt><trkpt lat="45.822537013127416" lon="9.091962087431531"><ele>633.0</ele><time>2026-04-19T09:05:38Z</time></trkpt><trkpt lat="45.82260943853853" lon="9.09198701709188"><ele>633.0</ele><time>2026-04-19T09:05:39Z</time></trkpt><trkpt lat="45.82268788823546" lon="9.092007032088318"><ele>633.0</ele><time>2026-04-19T09:05:40Z</time></trkpt><trkpt lat="45.82276778975309" lon="9.09199920907892"><ele>633.0</ele><time>2026-04-19T09:05:41Z</time></trkpt><trkpt lat="45.82283860518263" lon="9.091983130531917"><ele>633.0</ele><time>2026-04-19T09:05:42Z</time></trkpt><trkpt lat="45.82295203823618" lon="9.091941725721586"><ele>633.0</ele><time>2026-04-19T09:05:43.999Z</time></trkpt><trkpt lat="45.82298780812801" lon="9.091843858478457"><ele>631.6</ele><time>2026-04-19T09:05:45.999Z</time></trkpt><trkpt lat="45.822903723911715" lon="9.091753554117057"><ele>630.1999999999999</ele><time>2026-04-19T09:05:47.999Z</time></trkpt><trkpt lat="45.822824686049074" lon="9.091683332873055"><ele>628.8</ele><time>2026-04-19T09:05:49.999Z</time></trkpt><trkpt lat="45.8227563842074" lon="9.091564440096175"><ele>627.4</ele><time>2026-04-19T09:05:51.999Z</time></trkpt><trkpt lat="45.82273378075648" lon="9.091386388291648"><ele>626.0</ele><time>2026-04-19T09:05:53.999Z</time></trkpt><trkpt lat="45.82271701893612" lon="9.091233953573854"><ele>621.75</ele><time>2026-04-19T09:05:55.999Z</time></trkpt><trkpt lat="45.82272849557184" lon="9.09105399918703"><ele>617.5</ele><time>2026-04-19T09:05:57.999Z</time></trkpt><trkpt lat="45.82278971916653" lon="9.09089875170266"><ele>613.25</ele><time>2026-04-19T09:05:59.999Z</time></trkpt><trkpt lat="45.8228885056256" lon="9.09080063962311"><ele>609.0</ele><time>2026-04-19T09:06:01.999Z</time></trkpt><trkpt lat="45.82296705720917" lon="9.09071352496689"><ele>606.0</ele><time>2026-04-19T09:06:03.999Z</time></trkpt><trkpt lat="45.82301815783271" lon="9.090593172722103"><ele>603.0</ele><time>2026-04-19T09:06:05.999Z</time></trkpt><trkpt lat="45.82304356027337" lon="9.090469790858839"><ele>600.0</ele><time>2026-04-19T09:06:07.999Z</time></trkpt><trkpt lat="45.82297049145357" lon="9.090318108602377"><ele>597.0</ele><time>2026-04-19T09:06:09.999Z</time></trkpt><trkpt lat="45.82287627992361" lon="9.090266965077992"><ele>594.0</ele><time>2026-04-19T09:06:10.999Z</time></trkpt><trkpt lat="45.82281318301578" lon="9.090236065650563"><ele>594.0</ele><time>2026-04-19T09:06:11.999Z</time></trkpt><trkpt lat="45.82274649133033" lon="9.090206192398032"><ele>594.0</ele><time>2026-04-19T09:06:12.999Z</time></trkpt><trkpt lat="45.82268584357331" lon="9.090177381140657"><ele>594.0</ele><time>2026-04-19T09:06:13.999Z</time></trkpt><trkpt lat="45.822574476344364" lon="9.090091501349082"><ele>594.0</ele><time>2026-04-19T09:06:15.999Z</time></trkpt><trkpt lat="45.82252487178967" lon="9.090026916853885"><ele>594.0</ele><time>2026-04-19T09:06:16.999Z</time></trkpt><trkpt lat="45.822474944501" lon="9.089960818761153"><ele>594.0</ele><time>2026-04-19T09:06:17.999Z</time></trkpt><trkpt lat="45.82241912262784" lon="9.089768396380745"><ele>593.5</ele><time>2026-04-19T09:06:19.999Z</time></trkpt><trkpt lat="45.82233337216666" lon="9.089652932996014"><ele>593.0</ele><time>2026-04-19T09:06:21.999Z</time></trkpt><trkpt lat="45.822263870861676" lon="9.089598292668214"><ele>592.5</ele><time>2026-04-19T09:06:22.999Z</time></trkpt><trkpt lat="45.82219975681955" lon="9.08955670277302"><ele>592.0</ele><time>2026-04-19T09:06:23.999Z</time></trkpt><trkpt lat="45.82213856440884" lon="9.08952852134448"><ele>591.5</ele><time>2026-04-19T09:06:24.999Z</time></trkpt><trkpt lat="45.82202876969283" lon="9.089473391557936"><ele>591.0</ele><time>2026-04-19T09:06:26.999Z</time></trkpt><trkpt lat="45.821924932409786" lon="9.089439228505599"><ele>590.8</ele><time>2026-04-19T09:06:28.999Z</time></trkpt><trkpt lat="45.82181399466116" lon="9.08948784859599"><ele>590.6</ele><time>2026-04-19T09:06:30.999Z</time></trkpt><trkpt lat="45.8217484057962" lon="9.089523672059647"><ele>590.4</ele><time>2026-04-19T09:06:31.999Z</time></trkpt><trkpt lat="45.82168510801209" lon="9.089554367092154"><ele>590.2</ele><time>2026-04-19T09:06:32.999Z</time></trkpt><trkpt lat="45.821575205497076" lon="9.089631216380493"><ele>590.0</ele><time>2026-04-19T09:06:34.999Z</time></trkpt><trkpt lat="45.821529488109164" lon="9.089715727351813"><ele>590.0</ele><time>2026-04-19T09:06:35.999Z</time></trkpt><trkpt lat="45.8215078268494" lon="9.089809481918333"><ele>590.0</ele><time>2026-04-19T09:06:36.999Z</time></trkpt><trkpt lat="45.82144817028775" lon="9.089988613895713"><ele>590.0</ele><time>2026-04-19T09:06:38.999Z</time></trkpt><trkpt lat="45.82141906481644" lon="9.090107681777505"><ele>590.0</ele><time>2026-04-19T09:06:39.999Z</time></trkpt><trkpt lat="45.82139132964065" lon="9.090221144053304"><ele>590.0</ele><time>2026-04-19T09:06:40.999Z</time></trkpt><trkpt lat="45.8213711338091" lon="9.090330440555167"><ele>591.5</ele><time>2026-04-19T09:06:41.999Z</time></trkpt><trkpt lat="45.82135921019471" lon="9.090427302791168"><ele>593.0</ele><time>2026-04-19T09:06:42.999Z</time></trkpt><trkpt lat="45.82132804515548" lon="9.090607947608282"><ele>594.5</ele><time>2026-04-19T09:06:44.999Z</time></trkpt><trkpt lat="45.82132024562511" lon="9.090708944826032"><ele>596.0</ele><time>2026-04-19T09:06:45.999Z</time></trkpt><trkpt lat="45.82131687161953" lon="9.090811652474352"><ele>597.5</ele><time>2026-04-19T09:06:46.999Z</time></trkpt><trkpt lat="45.82131442438049" lon="9.090916023950374"><ele>599.0</ele><time>2026-04-19T09:06:47.999Z</time></trkpt><trkpt lat="45.821307869539844" lon="9.091028369903679"><ele>600.5</ele><time>2026-04-19T09:06:48.999Z</time></trkpt><trkpt lat="45.82130357986101" lon="9.091157617341143"><ele>602.0</ele><time>2026-04-19T09:06:49.999Z</time></trkpt><trkpt lat="45.82130428914102" lon="9.091281780673386"><ele>603.5</ele><time>2026-04-19T09:06:50.999Z</time></trkpt><trkpt lat="45.82129804017629" lon="9.091416483125931"><ele>605.0</ele><time>2026-04-19T09:06:51.999Z</time></trkpt><trkpt lat="45.8212954968681" lon="9.091540276920245"><ele>606.5</ele><time>2026-04-19T09:06:52.998Z</time></trkpt><trkpt lat="45.821287452370505" lon="9.09166759848632"><ele>608.0</ele><time>2026-04-19T09:06:53.998Z</time></trkpt><trkpt lat="45.8212776269419" lon="9.091807424250964"><ele>608.8571428571428</ele><time>2026-04-19T09:06:54.998Z</time></trkpt><trkpt lat="45.82128467980576" lon="9.091907143913097"><ele>609.7142857142858</ele><time>2026-04-19T09:06:55.998Z</time></trkpt><trkpt lat="45.821289089322306" lon="9.092014007438289"><ele>610.5714285714286</ele><time>2026-04-19T09:06:56.998Z</time></trkpt><trkpt lat="45.82127043966215" lon="9.092102397995008"><ele>611.4285714285713</ele><time>2026-04-19T09:06:57.998Z</time></trkpt><trkpt lat="45.82126499381388" lon="9.092206708342703"><ele>612.2857142857142</ele><time>2026-04-19T09:06:59Z</time></trkpt><trkpt lat="45.82124456886813" lon="9.092295743224314"><ele>613.1428571428571</ele><time>2026-04-19T09:07:00Z</time></trkpt><trkpt lat="45.82120679374951" lon="9.092377749442623"><ele>614.0</ele><time>2026-04-19T09:07:01Z</time></trkpt><trkpt lat="45.82114539882923" lon="9.092442503543852"><ele>612.8333333333333</ele><time>2026-04-19T09:07:02Z</time></trkpt><trkpt lat="45.821034845816996" lon="9.092499563134364"><ele>611.6666666666666</ele><time>2026-04-19T09:07:04Z</time></trkpt><trkpt lat="45.820969066953936" lon="9.092482641106505"><ele>610.5</ele><time>2026-04-19T09:07:05Z</time></trkpt><trkpt lat="45.82090555202322" lon="9.092507424109748"><ele>609.3333333333334</ele><time>2026-04-19T09:07:06Z</time></trkpt><trkpt lat="45.82083983567638" lon="9.092540232317804"><ele>608.1666666666667</ele><time>2026-04-19T09:07:07Z</time></trkpt><trkpt lat="45.82077409245437" lon="9.092588309274326"><ele>607.0</ele><time>2026-04-19T09:07:08Z</time></trkpt><trkpt lat="45.820700889916886" lon="9.092651989895202"><ele>607.0</ele><time>2026-04-19T09:07:09Z</time></trkpt><trkpt lat="45.82063207263932" lon="9.092712744323153"><ele>607.0</ele><time>2026-04-19T09:07:10Z</time></trkpt><trkpt lat="45.82054254460887" lon="9.092790247053953"><ele>607.0</ele><time>2026-04-19T09:07:11Z</time></trkpt><trkpt lat="45.8204616657666" lon="9.092832984659703"><ele>607.0</ele><time>2026-04-19T09:07:12Z</time></trkpt><trkpt lat="45.82038814611427" lon="9.092892777032976"><ele>607.0</ele><time>2026-04-19T09:07:13Z</time></trkpt><trkpt lat="45.82030540474624" lon="9.09294163786623"><ele>607.0</ele><time>2026-04-19T09:07:14Z</time></trkpt><trkpt lat="45.82022450415596" lon="9.093006874186853"><ele>606.4285714285713</ele><time>2026-04-19T09:07:15Z</time></trkpt><trkpt lat="45.820143577842465" lon="9.0930443244239"><ele>605.8571428571429</ele><time>2026-04-19T09:07:16Z</time></trkpt><trkpt lat="45.82007890694902" lon="9.093094145480379"><ele>605.2857142857142</ele><time>2026-04-19T09:07:17Z</time></trkpt><trkpt lat="45.82001102712975" lon="9.09312297802019"><ele>604.7142857142857</ele><time>2026-04-19T09:07:18Z</time></trkpt><trkpt lat="45.819949871876766" lon="9.093168165106402"><ele>604.1428571428571</ele><time>2026-04-19T09:07:19Z</time></trkpt><trkpt lat="45.819905700752" lon="9.093240369593218"><ele>603.5714285714286</ele><time>2026-04-19T09:07:20Z</time></trkpt><trkpt lat="45.81984646528172" lon="9.093297643986084"><ele>603.0</ele><time>2026-04-19T09:07:21Z</time></trkpt><trkpt lat="45.81975579118971" lon="9.093435700826266"><ele>607.5</ele><time>2026-04-19T09:07:23Z</time></trkpt><trkpt lat="45.81970465405227" lon="9.093491904561024"><ele>612.0</ele><time>2026-04-19T09:07:24Z</time></trkpt><trkpt lat="45.81963632131954" lon="9.093560453977535"><ele>616.5</ele><time>2026-04-19T09:07:25Z</time></trkpt><trkpt lat="45.8195696367874" lon="9.093608049710403"><ele>621.0</ele><time>2026-04-19T09:07:27Z</time></trkpt><trkpt lat="45.81950725681749" lon="9.093699689297603"><ele>625.5</ele><time>2026-04-19T09:07:29Z</time></trkpt><trkpt lat="45.819607078382695" lon="9.093806164662206"><ele>630.0</ele><time>2026-04-19T09:07:34Z</time></trkpt><trkpt lat="45.81968108840653" lon="9.093816858060888"><ele>630.0</ele><time>2026-04-19T09:07:35Z</time></trkpt><trkpt lat="45.81979425955324" lon="9.09380406387458"><ele>630.0</ele><time>2026-04-19T09:07:37Z</time></trkpt><trkpt lat="45.819868530297654" lon="9.093792769054314"><ele>630.0</ele><time>2026-04-19T09:07:38Z</time></trkpt><trkpt lat="45.81994528174765" lon="9.093781096958457"><ele>630.0</ele><time>2026-04-19T09:07:39Z</time></trkpt><trkpt lat="45.82001387645445" lon="9.09377066532142"><ele>630.0</ele><time>2026-04-19T09:07:40Z</time></trkpt><trkpt lat="45.82008107178782" lon="9.093773992143083"><ele>630.0</ele><time>2026-04-19T09:07:41Z</time></trkpt><trkpt lat="45.82019299246079" lon="9.093763788568468"><ele>630.0</ele><time>2026-04-19T09:07:43Z</time></trkpt><trkpt lat="45.82027821436713" lon="9.093833012928911"><ele>630.0</ele><time>2026-04-19T09:07:47.999Z</time></trkpt><trkpt lat="45.820185165874975" lon="9.09383444666673"><ele>630.0</ele><time>2026-04-19T09:07:48.999Z</time></trkpt><trkpt lat="45.82012331139398" lon="9.093904840605264"><ele>630.0</ele><time>2026-04-19T09:07:50.999Z</time></trkpt><trkpt lat="45.820030253518446" lon="9.094000876617777"><ele>630.0</ele><time>2026-04-19T09:07:52.999Z</time></trkpt><trkpt lat="45.81991130710257" lon="9.094083579798687"><ele>635.6666666666666</ele><time>2026-04-19T09:07:54.999Z</time></trkpt><trkpt lat="45.81985304399936" lon="9.094136678178545"><ele>641.3333333333334</ele><time>2026-04-19T09:07:55.999Z</time></trkpt><trkpt lat="45.819785097147765" lon="9.094177399834386"><ele>647.0</ele><time>2026-04-19T09:07:56.999Z</time></trkpt><trkpt lat="45.81969033606691" lon="9.094261620046987"><ele>652.6666666666667</ele><time>2026-04-19T09:07:58.999Z</time></trkpt><trkpt lat="45.81958710743897" lon="9.09428797532054"><ele>658.3333333333334</ele><time>2026-04-19T09:07:59.999Z</time></trkpt><trkpt lat="45.81952007120023" lon="9.094327871397367"><ele>664.0</ele><time>2026-04-19T09:08:00.999Z</time></trkpt><trkpt lat="45.81946682471264" lon="9.094382656505038"><ele>664.0</ele><time>2026-04-19T09:08:01.999Z</time></trkpt><trkpt lat="45.81940383171894" lon="9.094426059538703"><ele>664.0</ele><time>2026-04-19T09:08:02.999Z</time></trkpt><trkpt lat="45.81933429272964" lon="9.094483463039833"><ele>664.0</ele><time>2026-04-19T09:08:03.999Z</time></trkpt><trkpt lat="45.819273400124025" lon="9.0945306344369"><ele>664.0</ele><time>2026-04-19T09:08:04.999Z</time></trkpt><trkpt lat="45.81915472076158" lon="9.094609398500536"><ele>664.0</ele><time>2026-04-19T09:08:06.999Z</time></trkpt><trkpt lat="45.81909316850414" lon="9.094654987709163"><ele>664.0</ele><time>2026-04-19T09:08:08.999Z</time></trkpt><trkpt lat="45.8189981895009" lon="9.094683843614087"><ele>662.0</ele><time>2026-04-19T09:08:10.999Z</time></trkpt><trkpt lat="45.81891880163321" lon="9.094704988005683"><ele>660.0</ele><time>2026-04-19T09:08:12.999Z</time></trkpt><trkpt lat="45.818843265239316" lon="9.09476812188103"><ele>658.0</ele><time>2026-04-19T09:08:14.999Z</time></trkpt><trkpt lat="45.81871739790157" lon="9.09481189123887"><ele>656.0</ele><time>2026-04-19T09:08:17.999Z</time></trkpt><trkpt lat="45.81865364030448" lon="9.094794834049363"><ele>654.0</ele><time>2026-04-19T09:08:18.999Z</time></trkpt><trkpt lat="45.81857997276015" lon="9.094777369043882"><ele>652.0</ele><time>2026-04-19T09:08:19.999Z</time></trkpt><trkpt lat="45.818513689778044" lon="9.094730800017008"><ele>650.5</ele><time>2026-04-19T09:08:20.999Z</time></trkpt><trkpt lat="45.81844315934779" lon="9.094712543203293"><ele>649.0</ele><time>2026-04-19T09:08:21.999Z</time></trkpt><trkpt lat="45.818397024582865" lon="9.09462499712918"><ele>647.5</ele><time>2026-04-19T09:08:22.999Z</time></trkpt><trkpt lat="45.818334794401665" lon="9.094598437626516"><ele>646.0</ele><time>2026-04-19T09:08:23.999Z</time></trkpt><trkpt lat="45.818212881235745" lon="9.09463166613301"><ele>644.5</ele><time>2026-04-19T09:08:25.999Z</time></trkpt><trkpt lat="45.8181221120814" lon="9.094680211722759"><ele>643.0</ele><time>2026-04-19T09:08:27.999Z</time></trkpt><trkpt lat="45.8180500373325" lon="9.094664034067959"><ele>643.0</ele><time>2026-04-19T09:08:30.999Z</time></trkpt><trkpt lat="45.8179760004236" lon="9.09470059633457"><ele>643.0</ele><time>2026-04-19T09:08:33.999Z</time></trkpt><trkpt lat="45.81791819634966" lon="9.094769826477949"><ele>643.0</ele><time>2026-04-19T09:08:35.999Z</time></trkpt><trkpt lat="45.818027792893716" lon="9.09478407698422"><ele>643.0</ele><time>2026-04-19T09:13:05.998Z</time></trkpt><trkpt lat="45.81811581140642" lon="9.09470203062305"><ele>643.0</ele><time>2026-04-19T09:13:08.998Z</time></trkpt><trkpt lat="45.818191154738635" lon="9.094695952861"><ele>643.0</ele><time>2026-04-19T09:13:10.998Z</time></trkpt><trkpt lat="45.81827500807025" lon="9.09467846788876"><ele>643.0</ele><time>2026-04-19T09:13:12.998Z</time></trkpt><trkpt lat="45.818384773198616" lon="9.094667260198863"><ele>643.0</ele><time>2026-04-19T09:13:14.998Z</time></trkpt><trkpt lat="45.81848613659109" lon="9.094728441379495"><ele>643.0</ele><time>2026-04-19T09:13:17Z</time></trkpt><trkpt lat="45.81856308515199" lon="9.0947959492334"><ele>643.0</ele><time>2026-04-19T09:13:19Z</time></trkpt><trkpt lat="45.8187103567578" lon="9.094827907113082"><ele>644.5</ele><time>2026-04-19T09:13:25Z</time></trkpt><trkpt lat="45.818818790530926" lon="9.094836762824421"><ele>646.0</ele><time>2026-04-19T09:13:29Z</time></trkpt><trkpt lat="45.81887696591045" lon="9.094762991195509"><ele>647.5</ele><time>2026-04-19T09:13:32Z</time></trkpt><trkpt lat="45.818946315975104" lon="9.094747754306136"><ele>649.0</ele><time>2026-04-19T09:13:35Z</time></trkpt><trkpt lat="45.81901901403372" lon="9.094729263742185"><ele>650.5</ele><time>2026-04-19T09:13:38Z</time></trkpt><trkpt lat="45.81908001801888" lon="9.0947033246044"><ele>652.0</ele><time>2026-04-19T09:13:43Z</time></trkpt><trkpt lat="45.819010937435536" lon="9.094731883730523"><ele>652.0</ele><time>2026-04-19T09:13:59Z</time></trkpt><trkpt lat="45.8189359083536" lon="9.094740756427036"><ele>652.0</ele><time>2026-04-19T09:14:01Z</time></trkpt><trkpt lat="45.8188912367994" lon="9.094805304108762"><ele>652.0</ele><time>2026-04-19T09:14:03Z</time></trkpt><trkpt lat="45.81881605944436" lon="9.094864115287841"><ele>652.0</ele><time>2026-04-19T09:14:06Z</time></trkpt><trkpt lat="45.81874740884953" lon="9.094908992197121"><ele>652.0</ele><time>2026-04-19T09:14:09Z</time></trkpt><trkpt lat="45.818610199209594" lon="9.094901569793773"><ele>652.0</ele><time>2026-04-19T09:14:12Z</time></trkpt><trkpt lat="45.81854687153394" lon="9.094800423629088"><ele>650.5</ele><time>2026-04-19T09:14:13Z</time></trkpt><trkpt lat="45.818437140558856" lon="9.094766859431488"><ele>649.0</ele><time>2026-04-19T09:14:15Z</time></trkpt><trkpt lat="45.81837093715066" lon="9.09473567601555"><ele>647.5</ele><time>2026-04-19T09:14:16Z</time></trkpt><trkpt lat="45.818313642272905" lon="9.094670052442904"><ele>646.0</ele><time>2026-04-19T09:14:16.999Z</time></trkpt><trkpt lat="45.8182484711822" lon="9.094673338290354"><ele>644.5</ele><time>2026-04-19T09:14:17.999Z</time></trkpt><trkpt lat="45.81819670699993" lon="9.094554228997836"><ele>643.0</ele><time>2026-04-19T09:14:19.999Z</time></trkpt><trkpt lat="45.81812082286792" lon="9.094507523670098"><ele>643.0</ele><time>2026-04-19T09:14:22.999Z</time></trkpt><trkpt lat="45.81800738649671" lon="9.09473110165328"><ele>643.0</ele><time>2026-04-19T09:14:23.999Z</time></trkpt><trkpt lat="45.818197351827926" lon="9.094506617499922"><ele>643.0</ele><time>2026-04-19T09:14:24.999Z</time></trkpt><trkpt lat="45.81814656279812" lon="9.094720122634556"><ele>643.0</ele><time>2026-04-19T09:14:27.999Z</time></trkpt><trkpt lat="45.81823841092922" lon="9.09469791500063"><ele>643.0</ele><time>2026-04-19T09:14:29.999Z</time></trkpt><trkpt lat="45.818309079494895" lon="9.094672946065522"><ele>643.0</ele><time>2026-04-19T09:14:30.999Z</time></trkpt><trkpt lat="45.818245110744954" lon="9.095178457115889"><ele>650.8</ele><time>2026-04-19T09:14:47.999Z</time></trkpt><trkpt lat="45.8181415905496" lon="9.09523954599837"><ele>658.5999999999999</ele><time>2026-04-19T09:14:49.999Z</time></trkpt><trkpt lat="45.8180593131462" lon="9.09537267920808"><ele>666.4000000000001</ele><time>2026-04-19T09:14:51.999Z</time></trkpt><trkpt lat="45.818031413734055" lon="9.095472920268032"><ele>674.2</ele><time>2026-04-19T09:14:52.999Z</time></trkpt><trkpt lat="45.818003813820305" lon="9.095582440969482"><ele>682.0</ele><time>2026-04-19T09:14:53.999Z</time></trkpt><trkpt lat="45.81800203233488" lon="9.09568965181605"><ele>683.5</ele><time>2026-04-19T09:14:54.999Z</time></trkpt><trkpt lat="45.81802346363534" lon="9.095847259685701"><ele>685.0</ele><time>2026-04-19T09:14:56.999Z</time></trkpt><trkpt lat="45.81804135045785" lon="9.096030360295794"><ele>686.5</ele><time>2026-04-19T09:14:58.999Z</time></trkpt><trkpt lat="45.81806816185855" lon="9.096117437216552"><ele>688.0</ele><time>2026-04-19T09:14:59.999Z</time></trkpt><trkpt lat="45.818110386161194" lon="9.096187883823017"><ele>689.5</ele><time>2026-04-19T09:15:00.999Z</time></trkpt><trkpt lat="45.81816249356152" lon="9.096244655636687"><ele>691.0</ele><time>2026-04-19T09:15:01.999Z</time></trkpt><trkpt lat="45.81822895312038" lon="9.096270546309503"><ele>691.0</ele><time>2026-04-19T09:15:02.999Z</time></trkpt><trkpt lat="45.81829271404745" lon="9.096310162120284"><ele>691.0</ele><time>2026-04-19T09:15:03.999Z</time></trkpt><trkpt lat="45.81835692780485" lon="9.096345464389302"><ele>691.0</ele><time>2026-04-19T09:15:04.999Z</time></trkpt><trkpt lat="45.81847346775337" lon="9.09641245360405"><ele>691.0</ele><time>2026-04-19T09:15:06.999Z</time></trkpt><trkpt lat="45.81853042798662" lon="9.09646090163518"><ele>691.0</ele><time>2026-04-19T09:15:07.999Z</time></trkpt><trkpt lat="45.81864178249424" lon="9.096535095809793"><ele>691.0</ele><time>2026-04-19T09:15:09.999Z</time></trkpt><trkpt lat="45.81874695322394" lon="9.096606785320471"><ele>691.0</ele><time>2026-04-19T09:15:11.999Z</time></trkpt><trkpt lat="45.81881749217144" lon="9.096653968632697"><ele>691.0</ele><time>2026-04-19T09:15:14.999Z</time></trkpt><trkpt lat="45.81888834406837" lon="9.096718269126567"><ele>691.0</ele><time>2026-04-19T09:15:16.999Z</time></trkpt><trkpt lat="45.81899985872401" lon="9.096825442600446"><ele>691.0</ele><time>2026-04-19T09:15:18.999Z</time></trkpt><trkpt lat="45.81908705014617" lon="9.096898836166936"><ele>691.0</ele><time>2026-04-19T09:15:19.999Z</time></trkpt><trkpt lat="45.81915486853821" lon="9.097015137230159"><ele>691.0</ele><time>2026-04-19T09:15:20.999Z</time></trkpt><trkpt lat="45.819249048555406" lon="9.097086702507841"><ele>691.0</ele><time>2026-04-19T09:15:21.999Z</time></trkpt><trkpt lat="45.81933087738486" lon="9.097150255674954"><ele>691.0</ele><time>2026-04-19T09:15:23Z</time></trkpt><trkpt lat="45.819398862357396" lon="9.097192559618804"><ele>691.0</ele><time>2026-04-19T09:15:24Z</time></trkpt><trkpt lat="45.81945812234684" lon="9.097267634625059"><ele>691.1999999999999</ele><time>2026-04-19T09:15:25Z</time></trkpt><trkpt lat="45.81951223303494" lon="9.097320295286622"><ele>691.4</ele><time>2026-04-19T09:15:26Z</time></trkpt><trkpt lat="45.819599928613" lon="9.097406603066942"><ele>691.6</ele><time>2026-04-19T09:15:28Z</time></trkpt><trkpt lat="45.81970500333996" lon="9.097470336318091"><ele>691.8</ele><time>2026-04-19T09:15:30Z</time></trkpt><trkpt lat="45.819743974538625" lon="9.097555078488371"><ele>692.0</ele><time>2026-04-19T09:15:31Z</time></trkpt><trkpt lat="45.81978894056505" lon="9.097714885744812"><ele>692.0</ele><time>2026-04-19T09:15:33Z</time></trkpt><trkpt lat="45.81984932828074" lon="9.09783806266738"><ele>692.0</ele><time>2026-04-19T09:15:35Z</time></trkpt><trkpt lat="45.81992039456493" lon="9.097954043122286"><ele>692.0</ele><time>2026-04-19T09:15:37Z</time></trkpt><trkpt lat="45.820019874352376" lon="9.098011762279802"><ele>692.0</ele><time>2026-04-19T09:15:39Z</time></trkpt><trkpt lat="45.82008656545032" lon="9.098121453297686"><ele>692.0</ele><time>2026-04-19T09:15:41Z</time></trkpt><trkpt lat="45.82009550239985" lon="9.098221153891554"><ele>690.6666666666666</ele><time>2026-04-19T09:15:42Z</time></trkpt><trkpt lat="45.820121287677146" lon="9.098304027985069"><ele>689.3333333333333</ele><time>2026-04-19T09:15:43Z</time></trkpt><trkpt lat="45.82015467551478" lon="9.09842708933047"><ele>688.0</ele><time>2026-04-19T09:15:45Z</time></trkpt><trkpt lat="45.820175865434614" lon="9.098542425219113"><ele>686.6666666666666</ele><time>2026-04-19T09:15:47Z</time></trkpt><trkpt lat="45.82017680598023" lon="9.098647161849792"><ele>685.3333333333334</ele><time>2026-04-19T09:15:49Z</time></trkpt><trkpt lat="45.82012294093195" lon="9.09872749838818"><ele>684.0</ele><time>2026-04-19T09:15:52Z</time></trkpt><trkpt lat="45.82005825726612" lon="9.098786778077116"><ele>684.0</ele><time>2026-04-19T09:15:54Z</time></trkpt><trkpt lat="45.81995018533916" lon="9.098736023151938"><ele>684.0</ele><time>2026-04-19T09:15:55Z</time></trkpt><trkpt lat="45.81987665742811" lon="9.098778830938986"><ele>684.0</ele><time>2026-04-19T09:15:56Z</time></trkpt><trkpt lat="45.81980189373873" lon="9.098841589081253"><ele>684.0</ele><time>2026-04-19T09:15:57Z</time></trkpt><trkpt lat="45.81972607165843" lon="9.098916111584249"><ele>684.0</ele><time>2026-04-19T09:15:58Z</time></trkpt><trkpt lat="45.819660167030484" lon="9.098996814708402"><ele>684.0</ele><time>2026-04-19T09:15:59Z</time></trkpt><trkpt lat="45.819596338863754" lon="9.09906715320585"><ele>684.0</ele><time>2026-04-19T09:16:00Z</time></trkpt><trkpt lat="45.819543822729734" lon="9.099155341078598"><ele>684.0</ele><time>2026-04-19T09:16:01Z</time></trkpt><trkpt lat="45.819488362071574" lon="9.09921485313519"><ele>684.0</ele><time>2026-04-19T09:16:02Z</time></trkpt><trkpt lat="45.819444419348855" lon="9.099306610859383"><ele>684.0</ele><time>2026-04-19T09:16:03Z</time></trkpt><trkpt lat="45.81941781836796" lon="9.09940234726402"><ele>684.0</ele><time>2026-04-19T09:16:04Z</time></trkpt><trkpt lat="45.819401254877405" lon="9.099512061343978"><ele>685.2</ele><time>2026-04-19T09:16:05Z</time></trkpt><trkpt lat="45.81937126396411" lon="9.09961107879576"><ele>686.4000000000001</ele><time>2026-04-19T09:16:06Z</time></trkpt><trkpt lat="45.81939104922389" lon="9.099738402388997"><ele>687.6</ele><time>2026-04-19T09:16:07Z</time></trkpt><trkpt lat="45.81938330449288" lon="9.099871440365561"><ele>688.8</ele><time>2026-04-19T09:16:08Z</time></trkpt><trkpt lat="45.81939193155384" lon="9.100024350443919"><ele>690.0</ele><time>2026-04-19T09:16:09Z</time></trkpt><trkpt lat="45.819397125547596" lon="9.100163157134098"><ele>691.8333333333334</ele><time>2026-04-19T09:16:10Z</time></trkpt><trkpt lat="45.81940583715182" lon="9.100276316697924"><ele>693.6666666666666</ele><time>2026-04-19T09:16:11Z</time></trkpt><trkpt lat="45.819402440231784" lon="9.100410288145047"><ele>695.5</ele><time>2026-04-19T09:16:12Z</time></trkpt><trkpt lat="45.819388657364605" lon="9.100529254650953"><ele>697.3333333333333</ele><time>2026-04-19T09:16:13Z</time></trkpt><trkpt lat="45.81935100529557" lon="9.100631764834683"><ele>699.1666666666666</ele><time>2026-04-19T09:16:14Z</time></trkpt><trkpt lat="45.81928666123564" lon="9.100713535143912"><ele>701.0</ele><time>2026-04-19T09:16:15Z</time></trkpt><trkpt lat="45.81922015023004" lon="9.100781931624207"><ele>693.4</ele><time>2026-04-19T09:16:16Z</time></trkpt><trkpt lat="45.81914900937052" lon="9.100848978607024"><ele>685.8</ele><time>2026-04-19T09:16:17Z</time></trkpt><trkpt lat="45.819074643763145" lon="9.100932293149297"><ele>678.1999999999999</ele><time>2026-04-19T09:16:17.999Z</time></trkpt><trkpt lat="45.818983957697434" lon="9.101000248696083"><ele>670.5999999999999</ele><time>2026-04-19T09:16:18.999Z</time></trkpt><trkpt lat="45.818910271226024" lon="9.101095411105156"><ele>663.0</ele><time>2026-04-19T09:16:19.999Z</time></trkpt><trkpt lat="45.818818261283184" lon="9.101171970302202"><ele>663.0</ele><time>2026-04-19T09:16:20.999Z</time></trkpt><trkpt lat="45.81872633036369" lon="9.101212368553206"><ele>663.0</ele><time>2026-04-19T09:16:21.999Z</time></trkpt><trkpt lat="45.81864342954541" lon="9.101272285870882"><ele>663.0</ele><time>2026-04-19T09:16:22.999Z</time></trkpt><trkpt lat="45.81856595589773" lon="9.10133391148478"><ele>663.0</ele><time>2026-04-19T09:16:23.999Z</time></trkpt><trkpt lat="45.81847779932058" lon="9.101398902975466"><ele>663.0</ele><time>2026-04-19T09:16:24.999Z</time></trkpt><trkpt lat="45.8184012035709" lon="9.101459068074586"><ele>659.6666666666666</ele><time>2026-04-19T09:16:25.999Z</time></trkpt><trkpt lat="45.8183315772629" lon="9.10151219515796"><ele>656.3333333333334</ele><time>2026-04-19T09:16:26.999Z</time></trkpt><trkpt lat="45.81825153075659" lon="9.101540061507416"><ele>653.0</ele><time>2026-04-19T09:16:27.999Z</time></trkpt><trkpt lat="45.81816874064279" lon="9.101519297132791"><ele>649.6666666666667</ele><time>2026-04-19T09:16:28.999Z</time></trkpt><trkpt lat="45.818105821921876" lon="9.101459480275295"><ele>646.3333333333334</ele><time>2026-04-19T09:16:29.999Z</time></trkpt><trkpt lat="45.81802359148973" lon="9.101387669626941"><ele>643.0</ele><time>2026-04-19T09:16:30.999Z</time></trkpt><trkpt lat="45.81793221740641" lon="9.101319198278285"><ele>643.0</ele><time>2026-04-19T09:16:31.999Z</time></trkpt><trkpt lat="45.817821784921435" lon="9.101278415833498"><ele>643.0</ele><time>2026-04-19T09:16:32.999Z</time></trkpt><trkpt lat="45.817733363730625" lon="9.10121346910491"><ele>643.0</ele><time>2026-04-19T09:16:33.999Z</time></trkpt><trkpt lat="45.81763529802011" lon="9.101168739889271"><ele>643.0</ele><time>2026-04-19T09:16:34.999Z</time></trkpt><trkpt lat="45.817534757984255" lon="9.101131996727668"><ele>643.0</ele><time>2026-04-19T09:16:35.999Z</time></trkpt><trkpt lat="45.8174455777575" lon="9.101063938454438"><ele>641.4</ele><time>2026-04-19T09:16:36.999Z</time></trkpt><trkpt lat="45.81735200816072" lon="9.101040118215245"><ele>639.8</ele><time>2026-04-19T09:16:37.999Z</time></trkpt><trkpt lat="45.81727826244275" lon="9.10099792187661"><ele>638.2</ele><time>2026-04-19T09:16:38.999Z</time></trkpt><trkpt lat="45.817177892569255" lon="9.100977706416366"><ele>636.6</ele><time>2026-04-19T09:16:39.999Z</time></trkpt><trkpt lat="45.81706457560899" lon="9.100976631833529"><ele>635.0</ele><time>2026-04-19T09:16:40.999Z</time></trkpt><trkpt lat="45.81695521822209" lon="9.10095557098515"><ele>635.0</ele><time>2026-04-19T09:16:41.999Z</time></trkpt><trkpt lat="45.81685540345094" lon="9.100941974697259"><ele>635.0</ele><time>2026-04-19T09:16:42.999Z</time></trkpt><trkpt lat="45.81674938360931" lon="9.100944968252922"><ele>635.0</ele><time>2026-04-19T09:16:43.999Z</time></trkpt><trkpt lat="45.81665006102915" lon="9.100940334208586"><ele>635.0</ele><time>2026-04-19T09:16:44.999Z</time></trkpt><trkpt lat="45.81653947512003" lon="9.100954201388422"><ele>635.0</ele><time>2026-04-19T09:16:45.999Z</time></trkpt><trkpt lat="45.81644447283583" lon="9.100957242410798"><ele>634.0</ele><time>2026-04-19T09:16:46.999Z</time></trkpt><trkpt lat="45.81634983080864" lon="9.100953539615862"><ele>633.0</ele><time>2026-04-19T09:16:47.999Z</time></trkpt><trkpt lat="45.81625455434485" lon="9.100978013503513"><ele>632.0</ele><time>2026-04-19T09:16:48.999Z</time></trkpt><trkpt lat="45.81616808259893" lon="9.101030846603681"><ele>631.0</ele><time>2026-04-19T09:16:49.999Z</time></trkpt><trkpt lat="45.816084137052954" lon="9.101027502039194"><ele>630.0</ele><time>2026-04-19T09:16:50.999Z</time></trkpt><trkpt lat="45.81601331892154" lon="9.100966402556669"><ele>630.5</ele><time>2026-04-19T09:16:51.999Z</time></trkpt><trkpt lat="45.81595014376772" lon="9.100883826641123"><ele>631.0</ele><time>2026-04-19T09:16:52.999Z</time></trkpt><trkpt lat="45.81590279790683" lon="9.100776523177732"><ele>631.5</ele><time>2026-04-19T09:16:53.999Z</time></trkpt><trkpt lat="45.815863606599194" lon="9.10067094531515"><ele>632.0</ele><time>2026-04-19T09:16:54.999Z</time></trkpt><trkpt lat="45.81581247921714" lon="9.100572980047904"><ele>632.5</ele><time>2026-04-19T09:16:55.999Z</time></trkpt><trkpt lat="45.815745419291225" lon="9.100495356827116"><ele>633.0</ele><time>2026-04-19T09:16:56.999Z</time></trkpt><trkpt lat="45.815657633519294" lon="9.100463409290718"><ele>625.8</ele><time>2026-04-19T09:16:57.999Z</time></trkpt><trkpt lat="45.81556132412975" lon="9.100460485751144"><ele>618.5999999999999</ele><time>2026-04-19T09:16:58.999Z</time></trkpt><trkpt lat="45.81545423746327" lon="9.100464036692381"><ele>611.4000000000001</ele><time>2026-04-19T09:16:59.999Z</time></trkpt><trkpt lat="45.81534309923838" lon="9.100468050827946"><ele>604.2</ele><time>2026-04-19T09:17:00.999Z</time></trkpt><trkpt lat="45.815245971877" lon="9.100473324070276"><ele>597.0</ele><time>2026-04-19T09:17:01.999Z</time></trkpt><trkpt lat="45.815156579803194" lon="9.100480422727927"><ele>596.4</ele><time>2026-04-19T09:17:02.999Z</time></trkpt><trkpt lat="45.81505378769901" lon="9.100487979227307"><ele>595.8000000000001</ele><time>2026-04-19T09:17:03.999Z</time></trkpt><trkpt lat="45.81496436291768" lon="9.100496072250916"><ele>595.2</ele><time>2026-04-19T09:17:04.999Z</time></trkpt><trkpt lat="45.81488130354824" lon="9.100505352084099"><ele>594.6</ele><time>2026-04-19T09:17:05.999Z</time></trkpt><trkpt lat="45.8148131785506" lon="9.100517521297544"><ele>594.0</ele><time>2026-04-19T09:17:06.999Z</time></trkpt><trkpt lat="45.8147115807049" lon="9.100575115931738"><ele>594.0</ele><time>2026-04-19T09:17:08.999Z</time></trkpt><trkpt lat="45.81480740625142" lon="9.100523431925168"><ele>594.0</ele><time>2026-04-19T09:17:14.999Z</time></trkpt><trkpt lat="45.814876621356674" lon="9.100459374133365"><ele>594.0</ele><time>2026-04-19T09:17:15.999Z</time></trkpt><trkpt lat="45.814951733608396" lon="9.100412383848134"><ele>594.0</ele><time>2026-04-19T09:17:16.999Z</time></trkpt><trkpt lat="45.81501855656062" lon="9.100448501308842"><ele>594.0</ele><time>2026-04-19T09:17:17.999Z</time></trkpt><trkpt lat="45.81521220942088" lon="9.100282839992976"><ele>594.6</ele><time>2026-04-19T09:17:26.999Z</time></trkpt><trkpt lat="45.81531572039902" lon="9.100272898068711"><ele>595.2</ele><time>2026-04-19T09:17:29Z</time></trkpt><trkpt lat="45.81540633652897" lon="9.100256707479641"><ele>595.8000000000001</ele><time>2026-04-19T09:17:31Z</time></trkpt><trkpt lat="45.815417365066104" lon="9.100157951834065"><ele>596.4</ele><time>2026-04-19T09:17:33Z</time></trkpt><trkpt lat="45.81529643445408" lon="9.100112291181118"><ele>597.0</ele><time>2026-04-19T09:17:35Z</time></trkpt><trkpt lat="45.81515791383156" lon="9.100138413090205"><ele>596.5</ele><time>2026-04-19T09:17:37Z</time></trkpt><trkpt lat="45.815077665546895" lon="9.100163898934218"><ele>596.0</ele><time>2026-04-19T09:17:38Z</time></trkpt><trkpt lat="45.81498045368098" lon="9.100152922627334"><ele>595.5</ele><time>2026-04-19T09:17:39Z</time></trkpt><trkpt lat="45.81490421038503" lon="9.100165348442511"><ele>595.0</ele><time>2026-04-19T09:17:40Z</time></trkpt><trkpt lat="45.81482002650547" lon="9.1001714416991"><ele>594.5</ele><time>2026-04-19T09:17:41Z</time></trkpt><trkpt lat="45.81472028073357" lon="9.100178161840539"><ele>594.0</ele><time>2026-04-19T09:17:42Z</time></trkpt><trkpt lat="45.8146344482265" lon="9.100183728252002"><ele>594.0</ele><time>2026-04-19T09:17:43Z</time></trkpt><trkpt lat="45.81455835487959" lon="9.100200813769202"><ele>594.0</ele><time>2026-04-19T09:17:44Z</time></trkpt><trkpt lat="45.81447323548268" lon="9.100228380341703"><ele>594.0</ele><time>2026-04-19T09:17:45Z</time></trkpt><trkpt lat="45.81438836981566" lon="9.100256280202588"><ele>594.0</ele><time>2026-04-19T09:17:46Z</time></trkpt><trkpt lat="45.81429910018168" lon="9.100314683201724"><ele>594.0</ele><time>2026-04-19T09:17:47Z</time></trkpt><trkpt lat="45.81421838465609" lon="9.100389628955373"><ele>594.0</ele><time>2026-04-19T09:17:48Z</time></trkpt><trkpt lat="45.814143487222836" lon="9.100496788006469"><ele>594.8</ele><time>2026-04-19T09:17:49Z</time></trkpt><trkpt lat="45.81408293626273" lon="9.100609613295008"><ele>595.5999999999999</ele><time>2026-04-19T09:17:50Z</time></trkpt><trkpt lat="45.81402498323761" lon="9.10071683564588"><ele>596.4</ele><time>2026-04-19T09:17:51Z</time></trkpt><trkpt lat="45.81395823807438" lon="9.100822589399185"><ele>597.1999999999999</ele><time>2026-04-19T09:17:52Z</time></trkpt><trkpt lat="45.81389677767366" lon="9.100943639602209"><ele>598.0</ele><time>2026-04-19T09:17:53Z</time></trkpt><trkpt lat="45.81383421298565" lon="9.101048138496797"><ele>598.0</ele><time>2026-04-19T09:17:54Z</time></trkpt><trkpt lat="45.81378428776925" lon="9.10115174328613"><ele>598.0</ele><time>2026-04-19T09:17:55Z</time></trkpt><trkpt lat="45.81374595776142" lon="9.10125083562121"><ele>598.0</ele><time>2026-04-19T09:17:56Z</time></trkpt><trkpt lat="45.813708874928466" lon="9.10132842884625"><ele>598.0</ele><time>2026-04-19T09:17:57Z</time></trkpt><trkpt lat="45.81365746729657" lon="9.10139941355284"><ele>598.0</ele><time>2026-04-19T09:17:58Z</time></trkpt><trkpt lat="45.81358691401464" lon="9.101436804573702"><ele>598.0</ele><time>2026-04-19T09:17:59Z</time></trkpt><trkpt lat="45.81350636396685" lon="9.101467237141794"><ele>594.6</ele><time>2026-04-19T09:18:00Z</time></trkpt><trkpt lat="45.813414267714485" lon="9.101491120267928"><ele>591.1999999999999</ele><time>2026-04-19T09:18:01Z</time></trkpt><trkpt lat="45.81332809683157" lon="9.101538143924245"><ele>587.8</ele><time>2026-04-19T09:18:02Z</time></trkpt><trkpt lat="45.81325396252208" lon="9.101593758697613"><ele>584.4</ele><time>2026-04-19T09:18:03Z</time></trkpt><trkpt lat="45.813181546854146" lon="9.10166781576592"><ele>581.0</ele><time>2026-04-19T09:18:04Z</time></trkpt><trkpt lat="45.813091145203536" lon="9.1017141752703"><ele>581.0</ele><time>2026-04-19T09:18:05Z</time></trkpt><trkpt lat="45.813013750472386" lon="9.10175944196224"><ele>581.0</ele><time>2026-04-19T09:18:06Z</time></trkpt><trkpt lat="45.81293633310753" lon="9.101802337991703"><ele>581.0</ele><time>2026-04-19T09:18:07Z</time></trkpt><trkpt lat="45.81286627847502" lon="9.101854980973002"><ele>581.0</ele><time>2026-04-19T09:18:08Z</time></trkpt><trkpt lat="45.81282131560501" lon="9.10194463211843"><ele>581.0</ele><time>2026-04-19T09:18:09Z</time></trkpt><trkpt lat="45.812777651957596" lon="9.10204379873124"><ele>581.0</ele><time>2026-04-19T09:18:10Z</time></trkpt><trkpt lat="45.81273262790551" lon="9.102147436376939"><ele>581.0</ele><time>2026-04-19T09:18:11Z</time></trkpt><trkpt lat="45.812682873093664" lon="9.102256670478674"><ele>581.0</ele><time>2026-04-19T09:18:12Z</time></trkpt><trkpt lat="45.81262526333723" lon="9.102349952462617"><ele>581.0</ele><time>2026-04-19T09:18:13Z</time></trkpt><trkpt lat="45.812554088338445" lon="9.102426083096786"><ele>581.0</ele><time>2026-04-19T09:18:14Z</time></trkpt><trkpt lat="45.81247413655427" lon="9.102527482853391"><ele>581.0</ele><time>2026-04-19T09:18:15Z</time></trkpt><trkpt lat="45.81238467538478" lon="9.102618113703693"><ele>577.8</ele><time>2026-04-19T09:18:16Z</time></trkpt><trkpt lat="45.812310658914726" lon="9.102693873764212"><ele>574.6</ele><time>2026-04-19T09:18:17Z</time></trkpt><trkpt lat="45.81223983299376" lon="9.10281724128954"><ele>571.4</ele><time>2026-04-19T09:18:18Z</time></trkpt><trkpt lat="45.812167817565445" lon="9.102922671607645"><ele>568.2</ele><time>2026-04-19T09:18:19Z</time></trkpt><trkpt lat="45.81210483817978" lon="9.103036657774599"><ele>565.0</ele><time>2026-04-19T09:18:20Z</time></trkpt><trkpt lat="45.81204946451639" lon="9.103154249503751"><ele>568.8</ele><time>2026-04-19T09:18:21Z</time></trkpt><trkpt lat="45.81202158314996" lon="9.103288204635165"><ele>572.6</ele><time>2026-04-19T09:18:22Z</time></trkpt><trkpt lat="45.81196190416006" lon="9.103411012645864"><ele>576.4</ele><time>2026-04-19T09:18:23Z</time></trkpt><trkpt lat="45.81190323572379" lon="9.103515269645955"><ele>580.2</ele><time>2026-04-19T09:18:24Z</time></trkpt><trkpt lat="45.81185401704926" lon="9.103622067073971"><ele>584.0</ele><time>2026-04-19T09:18:25Z</time></trkpt><trkpt lat="45.81177730746179" lon="9.103687305265009"><ele>580.1666666666666</ele><time>2026-04-19T09:18:26Z</time></trkpt><trkpt lat="45.81171460729635" lon="9.103767137518295"><ele>576.3333333333333</ele><time>2026-04-19T09:18:26.999Z</time></trkpt><trkpt lat="45.811648367342436" lon="9.103845801033684"><ele>572.5</ele><time>2026-04-19T09:18:27.999Z</time></trkpt><trkpt lat="45.81159004349414" lon="9.103929730174038"><ele>568.6666666666666</ele><time>2026-04-19T09:18:28.999Z</time></trkpt><trkpt lat="45.8115269697015" lon="9.103993378444029"><ele>564.8333333333334</ele><time>2026-04-19T09:18:29.999Z</time></trkpt><trkpt lat="45.81145392570373" lon="9.10407769160439"><ele>561.0</ele><time>2026-04-19T09:18:30.999Z</time></trkpt><trkpt lat="45.81138671347303" lon="9.104135735121822"><ele>561.0</ele><time>2026-04-19T09:18:31.999Z</time></trkpt><trkpt lat="45.81134235402606" lon="9.104216826213527"><ele>561.0</ele><time>2026-04-19T09:18:32.999Z</time></trkpt><trkpt lat="45.81129051175406" lon="9.104294537547515"><ele>561.0</ele><time>2026-04-19T09:18:33.999Z</time></trkpt><trkpt lat="45.81126123293793" lon="9.104409521874192"><ele>561.0</ele><time>2026-04-19T09:18:34.999Z</time></trkpt><trkpt lat="45.811244865395004" lon="9.104525009599955"><ele>561.0</ele><time>2026-04-19T09:18:35.999Z</time></trkpt><trkpt lat="45.811246602274416" lon="9.104643292006235"><ele>561.0</ele><time>2026-04-19T09:18:36.999Z</time></trkpt><trkpt lat="45.81124184958318" lon="9.104767531448566"><ele>561.0</ele><time>2026-04-19T09:18:37.999Z</time></trkpt><trkpt lat="45.81124163786999" lon="9.104888651598962"><ele>561.0</ele><time>2026-04-19T09:18:38.999Z</time></trkpt><trkpt lat="45.81124828767554" lon="9.10499906358877"><ele>561.0</ele><time>2026-04-19T09:18:39.999Z</time></trkpt><trkpt lat="45.811255811608824" lon="9.105179293377523"><ele>561.0</ele><time>2026-04-19T09:18:41.999Z</time></trkpt><trkpt lat="45.81124599947258" lon="9.105340961449828"><ele>561.0</ele><time>2026-04-19T09:18:43.999Z</time></trkpt><trkpt lat="45.81126518057278" lon="9.105469603913342"><ele>562.8</ele><time>2026-04-19T09:18:45.999Z</time></trkpt><trkpt lat="45.811261391900864" lon="9.105592500018163"><ele>564.6</ele><time>2026-04-19T09:18:47.999Z</time></trkpt><trkpt lat="45.811221417032364" lon="9.105706585906697"><ele>566.4</ele><time>2026-04-19T09:18:50.999Z</time></trkpt><trkpt lat="45.81114942588286" lon="9.105683456599822"><ele>568.2</ele><time>2026-04-19T09:18:52.999Z</time></trkpt><trkpt lat="45.81114463901607" lon="9.105582434892105"><ele>570.0</ele><time>2026-04-19T09:18:53.999Z</time></trkpt><trkpt lat="45.811156733488424" lon="9.10539338373264"><ele>570.0</ele><time>2026-04-19T09:18:55.999Z</time></trkpt><trkpt lat="45.81115076925132" lon="9.105282436067402"><ele>570.0</ele><time>2026-04-19T09:18:56.999Z</time></trkpt><trkpt lat="45.81114221933261" lon="9.105180817057544"><ele>570.0</ele><time>2026-04-19T09:18:57.999Z</time></trkpt><trkpt lat="45.81112328385903" lon="9.10507066618307"><ele>570.0</ele><time>2026-04-19T09:18:58.999Z</time></trkpt><trkpt lat="45.81108977094508" lon="9.104967372429781"><ele>570.0</ele><time>2026-04-19T09:18:59.999Z</time></trkpt><trkpt lat="45.811048888310374" lon="9.104865532666372"><ele>570.0</ele><time>2026-04-19T09:19:00.999Z</time></trkpt><trkpt lat="45.81101340431878" lon="9.104786389596178"><ele>562.8571428571429</ele><time>2026-04-19T09:19:01.999Z</time></trkpt><trkpt lat="45.810973808377" lon="9.104694574703007"><ele>555.7142857142858</ele><time>2026-04-19T09:19:02.999Z</time></trkpt><trkpt lat="45.81093010340173" lon="9.104619814534416"><ele>548.5714285714287</ele><time>2026-04-19T09:19:03.999Z</time></trkpt><trkpt lat="45.81092536469666" lon="9.104516267950507"><ele>541.4285714285714</ele><time>2026-04-19T09:19:04.999Z</time></trkpt><trkpt lat="45.81091133045348" lon="9.104418897957611"><ele>534.2857142857143</ele><time>2026-04-19T09:19:05.999Z</time></trkpt><trkpt lat="45.810911643142944" lon="9.10431302160712"><ele>527.1428571428572</ele><time>2026-04-19T09:19:06.999Z</time></trkpt><trkpt lat="45.810918505916604" lon="9.104194376118222"><ele>520.0</ele><time>2026-04-19T09:19:07.999Z</time></trkpt><trkpt lat="45.810981325257686" lon="9.104100527077676"><ele>523.8</ele><time>2026-04-19T09:19:08.999Z</time></trkpt><trkpt lat="45.811027155892" lon="9.103977162009647"><ele>527.6</ele><time>2026-04-19T09:19:09.999Z</time></trkpt><trkpt lat="45.81108815367814" lon="9.103853291213197"><ele>531.4</ele><time>2026-04-19T09:19:10.999Z</time></trkpt><trkpt lat="45.811134217875995" lon="9.103726901144064"><ele>535.2</ele><time>2026-04-19T09:19:11.999Z</time></trkpt><trkpt lat="45.81118218136107" lon="9.10360449684715"><ele>539.0</ele><time>2026-04-19T09:19:12.999Z</time></trkpt><trkpt lat="45.81122832736085" lon="9.103489699725309"><ele>539.0</ele><time>2026-04-19T09:19:13.999Z</time></trkpt><trkpt lat="45.8112763232872" lon="9.103377692018649"><ele>539.0</ele><time>2026-04-19T09:19:14.999Z</time></trkpt><trkpt lat="45.81133108156012" lon="9.103282734100517"><ele>539.0</ele><time>2026-04-19T09:19:15.999Z</time></trkpt><trkpt lat="45.8113786062715" lon="9.103188111384378"><ele>539.0</ele><time>2026-04-19T09:19:16.999Z</time></trkpt><trkpt lat="45.81142788190272" lon="9.103099557506274"><ele>539.0</ele><time>2026-04-19T09:19:17.999Z</time></trkpt><trkpt lat="45.81148427829131" lon="9.103031343087796"><ele>539.0</ele><time>2026-04-19T09:19:18.999Z</time></trkpt><trkpt lat="45.811525242855666" lon="9.102960529689728"><ele>535.0</ele><time>2026-04-19T09:19:19.999Z</time></trkpt><trkpt lat="45.81147998890322" lon="9.102859012147263"><ele>531.0</ele><time>2026-04-19T09:19:21.999Z</time></trkpt><trkpt lat="45.8114137671702" lon="9.102857697783248"><ele>527.0</ele><time>2026-04-19T09:19:22.999Z</time></trkpt><trkpt lat="45.81135221954773" lon="9.102944513024365"><ele>523.0</ele><time>2026-04-19T09:19:23.999Z</time></trkpt><trkpt lat="45.811285077290684" lon="9.103028090809683"><ele>519.0</ele><time>2026-04-19T09:19:24.999Z</time></trkpt><trkpt lat="45.8112132266845" lon="9.10312648317039"><ele>515.0</ele><time>2026-04-19T09:19:25.999Z</time></trkpt><trkpt lat="45.81114619518883" lon="9.10324554787259"><ele>511.0</ele><time>2026-04-19T09:19:26.999Z</time></trkpt><trkpt lat="45.81105198079115" lon="9.103358517420814"><ele>507.0</ele><time>2026-04-19T09:19:27.999Z</time></trkpt><trkpt lat="45.81096625463065" lon="9.103464182775804"><ele>503.0</ele><time>2026-04-19T09:19:28.999Z</time></trkpt><trkpt lat="45.810871167259435" lon="9.10356614924298"><ele>499.0</ele><time>2026-04-19T09:19:29.999Z</time></trkpt><trkpt lat="45.81076625872581" lon="9.103628209981983"><ele>499.0</ele><time>2026-04-19T09:19:30.999Z</time></trkpt><trkpt lat="45.81066621401283" lon="9.103686166716468"><ele>499.0</ele><time>2026-04-19T09:19:31.999Z</time></trkpt><trkpt lat="45.81057952924565" lon="9.103765296777041"><ele>499.0</ele><time>2026-04-19T09:19:32.999Z</time></trkpt><trkpt lat="45.81050748714355" lon="9.10388052222441"><ele>499.0</ele><time>2026-04-19T09:19:33.999Z</time></trkpt><trkpt lat="45.81043778074295" lon="9.104008837946148"><ele>499.0</ele><time>2026-04-19T09:19:35Z</time></trkpt><trkpt lat="45.810394678492955" lon="9.104093982135126"><ele>499.00000000000006</ele><time>2026-04-19T09:19:36Z</time></trkpt><trkpt lat="45.81036984208528" lon="9.104185008760687"><ele>499.0</ele><time>2026-04-19T09:19:37Z</time></trkpt><trkpt lat="45.810313892274735" lon="9.104288904730915"><ele>499.0</ele><time>2026-04-19T09:19:39Z</time></trkpt><trkpt lat="45.81023759687595" lon="9.104243338006562"><ele>499.0</ele><time>2026-04-19T09:19:41Z</time></trkpt><trkpt lat="45.81026536844094" lon="9.104162118599486"><ele>499.00000000000006</ele><time>2026-04-19T09:19:42Z</time></trkpt><trkpt lat="45.81028612907271" lon="9.104068634856887"><ele>499.0</ele><time>2026-04-19T09:19:43Z</time></trkpt><trkpt lat="45.81028643495071" lon="9.10395718715385"><ele>499.0</ele><time>2026-04-19T09:19:44Z</time></trkpt><trkpt lat="45.81031695460955" lon="9.103841405395123"><ele>499.0</ele><time>2026-04-19T09:19:45Z</time></trkpt><trkpt lat="45.81034080037829" lon="9.103712477768356"><ele>499.0</ele><time>2026-04-19T09:19:46Z</time></trkpt><trkpt lat="45.810365789667166" lon="9.10358712167631"><ele>499.0</ele><time>2026-04-19T09:19:47Z</time></trkpt><trkpt lat="45.8104458124296" lon="9.10348597947052"><ele>499.0</ele><time>2026-04-19T09:19:48Z</time></trkpt><trkpt lat="45.81052391700728" lon="9.103379647227236"><ele>499.0</ele><time>2026-04-19T09:19:49Z</time></trkpt><trkpt lat="45.8106004080495" lon="9.103272715560259"><ele>499.0</ele><time>2026-04-19T09:19:50Z</time></trkpt><trkpt lat="45.81067842433392" lon="9.103192711660988"><ele>499.0</ele><time>2026-04-19T09:19:51Z</time></trkpt><trkpt lat="45.810750390691325" lon="9.103123457422994"><ele>499.0</ele><time>2026-04-19T09:19:52Z</time></trkpt><trkpt lat="45.810811684322616" lon="9.103071184311686"><ele>499.0</ele><time>2026-04-19T09:19:53Z</time></trkpt><trkpt lat="45.81084927378008" lon="9.10293236466274"><ele>492.79999999999995</ele><time>2026-04-19T09:19:55Z</time></trkpt><trkpt lat="45.810688862470045" lon="9.102965842310692"><ele>486.59999999999997</ele><time>2026-04-19T09:19:58Z</time></trkpt><trkpt lat="45.81061983589993" lon="9.103011526018147"><ele>480.4</ele><time>2026-04-19T09:19:59Z</time></trkpt><trkpt lat="45.8105378397319" lon="9.103042582123871"><ele>474.2</ele><time>2026-04-19T09:20:00Z</time></trkpt><trkpt lat="45.810454778705136" lon="9.103075648537418"><ele>468.0</ele><time>2026-04-19T09:20:01Z</time></trkpt><trkpt lat="45.81036626911819" lon="9.103134564004272"><ele>468.0</ele><time>2026-04-19T09:20:02Z</time></trkpt><trkpt lat="45.81027679940412" lon="9.103179453019138"><ele>467.99999999999994</ele><time>2026-04-19T09:20:03Z</time></trkpt><trkpt lat="45.81018691381197" lon="9.103239280516853"><ele>467.99999999999994</ele><time>2026-04-19T09:20:04Z</time></trkpt><trkpt lat="45.810107809420195" lon="9.103313272497969"><ele>468.0</ele><time>2026-04-19T09:20:05Z</time></trkpt><trkpt lat="45.81001702592629" lon="9.10338958285416"><ele>468.0</ele><time>2026-04-19T09:20:06Z</time></trkpt><trkpt lat="45.809938839753315" lon="9.103489447051276"><ele>466.79999999999995</ele><time>2026-04-19T09:20:07Z</time></trkpt><trkpt lat="45.80988131041351" lon="9.103626440059614"><ele>465.59999999999997</ele><time>2026-04-19T09:20:08Z</time></trkpt><trkpt lat="45.80982711480485" lon="9.103771521585921"><ele>464.40000000000003</ele><time>2026-04-19T09:20:09Z</time></trkpt><trkpt lat="45.80976577456644" lon="9.103904962971168"><ele>463.20000000000005</ele><time>2026-04-19T09:20:10Z</time></trkpt><trkpt lat="45.80970510838078" lon="9.104019726035562"><ele>462.0</ele><time>2026-04-19T09:20:11Z</time></trkpt><trkpt lat="45.80964192740793" lon="9.104111957224463"><ele>464.0</ele><time>2026-04-19T09:20:12Z</time></trkpt><trkpt lat="45.80958693235359" lon="9.104205710613698"><ele>466.0</ele><time>2026-04-19T09:20:13Z</time></trkpt><trkpt lat="45.809543010384694" lon="9.104293726063883"><ele>468.0</ele><time>2026-04-19T09:20:14Z</time></trkpt><trkpt lat="45.80950503687132" lon="9.104385617433303"><ele>470.0</ele><time>2026-04-19T09:20:15Z</time></trkpt><trkpt lat="45.809468751024774" lon="9.10452436310465"><ele>472.0</ele><time>2026-04-19T09:20:17Z</time></trkpt><trkpt lat="45.809408151864055" lon="9.104494220094569"><ele>474.0</ele><time>2026-04-19T09:20:19Z</time></trkpt><trkpt lat="45.8094273833701" lon="9.104355241486793"><ele>474.0</ele><time>2026-04-19T09:20:21Z</time></trkpt><trkpt lat="45.80944957414776" lon="9.104253261523974"><ele>474.0</ele><time>2026-04-19T09:20:22Z</time></trkpt><trkpt lat="45.80947403295517" lon="9.104146467315067"><ele>474.0</ele><time>2026-04-19T09:20:23Z</time></trkpt><trkpt lat="45.80949861327917" lon="9.104029193152039"><ele>474.0</ele><time>2026-04-19T09:20:24Z</time></trkpt><trkpt lat="45.809525254396085" lon="9.10390391347688"><ele>474.0</ele><time>2026-04-19T09:20:25Z</time></trkpt><trkpt lat="45.80954937945841" lon="9.103775828246384"><ele>474.0</ele><time>2026-04-19T09:20:26Z</time></trkpt><trkpt lat="45.80957207362544" lon="9.10364577368211"><ele>471.6</ele><time>2026-04-19T09:20:27Z</time></trkpt><trkpt lat="45.809594681405194" lon="9.103508445797946"><ele>469.2</ele><time>2026-04-19T09:20:28Z</time></trkpt><trkpt lat="45.80962278472856" lon="9.10337492418763"><ele>466.80000000000007</ele><time>2026-04-19T09:20:29Z</time></trkpt><trkpt lat="45.8096499324105" lon="9.103235704220427"><ele>464.40000000000003</ele><time>2026-04-19T09:20:30Z</time></trkpt><trkpt lat="45.80967852557983" lon="9.103099504405487"><ele>462.0</ele><time>2026-04-19T09:20:31Z</time></trkpt><trkpt lat="45.80970107756372" lon="9.102963474763792"><ele>458.0</ele><time>2026-04-19T09:20:32Z</time></trkpt><trkpt lat="45.80972544360825" lon="9.102837019319761"><ele>454.00000000000006</ele><time>2026-04-19T09:20:33Z</time></trkpt><trkpt lat="45.809754478438535" lon="9.102714572873172"><ele>450.00000000000006</ele><time>2026-04-19T09:20:34Z</time></trkpt><trkpt lat="45.809781665949934" lon="9.102587395212367"><ele>446.0</ele><time>2026-04-19T09:20:35Z</time></trkpt><trkpt lat="45.80980774978188" lon="9.102460115951386"><ele>442.0</ele><time>2026-04-19T09:20:35.999Z</time></trkpt><trkpt lat="45.8098361325647" lon="9.102337028220049"><ele>438.20000000000005</ele><time>2026-04-19T09:20:36.999Z</time></trkpt><trkpt lat="45.809863560106756" lon="9.10222091766292"><ele>434.40000000000003</ele><time>2026-04-19T09:20:37.999Z</time></trkpt><trkpt lat="45.80990029425319" lon="9.10210474327588"><ele>430.6</ele><time>2026-04-19T09:20:38.999Z</time></trkpt><trkpt lat="45.80994568278831" lon="9.101982997634538"><ele>426.79999999999995</ele><time>2026-04-19T09:20:39.999Z</time></trkpt><trkpt lat="45.81000818084864" lon="9.101879395095542"><ele>423.0</ele><time>2026-04-19T09:20:40.999Z</time></trkpt><trkpt lat="45.810075817122936" lon="9.10178294425573"><ele>423.0</ele><time>2026-04-19T09:20:41.999Z</time></trkpt><trkpt lat="45.81014413857955" lon="9.101699939877411"><ele>423.0</ele><time>2026-04-19T09:20:42.999Z</time></trkpt><trkpt lat="45.81020877943308" lon="9.101605863331088"><ele>423.0</ele><time>2026-04-19T09:20:43.999Z</time></trkpt><trkpt lat="45.81026967162376" lon="9.10149509807068"><ele>423.0</ele><time>2026-04-19T09:20:44.999Z</time></trkpt><trkpt lat="45.81032472984226" lon="9.101397445405198"><ele>423.0</ele><time>2026-04-19T09:20:45.999Z</time></trkpt><trkpt lat="45.810362080733015" lon="9.10127865023916"><ele>422.1666666666667</ele><time>2026-04-19T09:20:46.999Z</time></trkpt><trkpt lat="45.8103981100522" lon="9.101168466146524"><ele>421.33333333333337</ele><time>2026-04-19T09:20:47.999Z</time></trkpt><trkpt lat="45.81043351991838" lon="9.101058112288447"><ele>420.5</ele><time>2026-04-19T09:20:48.999Z</time></trkpt><trkpt lat="45.8104646954272" lon="9.100949220073232"><ele>419.6666666666667</ele><time>2026-04-19T09:20:49.999Z</time></trkpt><trkpt lat="45.81048178055564" lon="9.100819230682774"><ele>418.83333333333337</ele><time>2026-04-19T09:20:50.999Z</time></trkpt><trkpt lat="45.81047435072636" lon="9.10069828151542"><ele>418.0</ele><time>2026-04-19T09:20:51.999Z</time></trkpt><trkpt lat="45.81043358045848" lon="9.100597658153466"><ele>418.0</ele><time>2026-04-19T09:20:52.999Z</time></trkpt><trkpt lat="45.81037460424436" lon="9.10052908951016"><ele>418.0</ele><time>2026-04-19T09:20:53.999Z</time></trkpt><trkpt lat="45.81030546384075" lon="9.100512463539829"><ele>418.0</ele><time>2026-04-19T09:20:54.999Z</time></trkpt><trkpt lat="45.810239987477914" lon="9.100556903187568"><ele>418.0</ele><time>2026-04-19T09:20:55.999Z</time></trkpt><trkpt lat="45.81017498058138" lon="9.10075905052015"><ele>418.0</ele><time>2026-04-19T09:20:57.999Z</time></trkpt><trkpt lat="45.81015463537073" lon="9.100872129139109"><ele>417.1428571428571</ele><time>2026-04-19T09:20:58.999Z</time></trkpt><trkpt lat="45.810130920306754" lon="9.100974197892798"><ele>416.2857142857143</ele><time>2026-04-19T09:20:59.999Z</time></trkpt><trkpt lat="45.81010386314763" lon="9.101073651751513"><ele>415.42857142857144</ele><time>2026-04-19T09:21:00.999Z</time></trkpt><trkpt lat="45.81006180758282" lon="9.101160168902345"><ele>414.57142857142856</ele><time>2026-04-19T09:21:01.999Z</time></trkpt><trkpt lat="45.81002660746249" lon="9.101248194824837"><ele>413.7142857142857</ele><time>2026-04-19T09:21:02.999Z</time></trkpt><trkpt lat="45.80997288138653" lon="9.101306299340234"><ele>412.85714285714283</ele><time>2026-04-19T09:21:03.999Z</time></trkpt><trkpt lat="45.80989932534861" lon="9.10133377085517"><ele>412.0</ele><time>2026-04-19T09:21:04.999Z</time></trkpt><trkpt lat="45.80981122333182" lon="9.101384338097326"><ele>412.0</ele><time>2026-04-19T09:21:05.999Z</time></trkpt><trkpt lat="45.809722402895275" lon="9.101435296042109"><ele>412.0</ele><time>2026-04-19T09:21:06.999Z</time></trkpt><trkpt lat="45.80964477009017" lon="9.101492495507998"><ele>412.0</ele><time>2026-04-19T09:21:07.999Z</time></trkpt><trkpt lat="45.80956294178234" lon="9.10155812251169"><ele>412.0</ele><time>2026-04-19T09:21:08.999Z</time></trkpt><trkpt lat="45.80948388476808" lon="9.101633326976744"><ele>412.0</ele><time>2026-04-19T09:21:09.999Z</time></trkpt><trkpt lat="45.80941729388539" lon="9.101706690431703"><ele>414.20000000000005</ele><time>2026-04-19T09:21:10.999Z</time></trkpt><trkpt lat="45.8093602482222" lon="9.10180794342123"><ele>416.4</ele><time>2026-04-19T09:21:11.999Z</time></trkpt><trkpt lat="45.80934943208091" lon="9.101928141887694"><ele>418.6</ele><time>2026-04-19T09:21:12.999Z</time></trkpt><trkpt lat="45.809302739814406" lon="9.102047136593491"><ele>420.79999999999995</ele><time>2026-04-19T09:21:13.999Z</time></trkpt><trkpt lat="45.80924887399815" lon="9.102173848930715"><ele>423.0</ele><time>2026-04-19T09:21:14.999Z</time></trkpt><trkpt lat="45.809186711546545" lon="9.102278490618932"><ele>420.0</ele><time>2026-04-19T09:21:15.999Z</time></trkpt><trkpt lat="45.8091165322135" lon="9.102376982136834"><ele>417.0</ele><time>2026-04-19T09:21:16.999Z</time></trkpt><trkpt lat="45.8090425259626" lon="9.102495346769377"><ele>414.0</ele><time>2026-04-19T09:21:17.999Z</time></trkpt><trkpt lat="45.808976965049126" lon="9.102609407143156"><ele>411.0</ele><time>2026-04-19T09:21:18.999Z</time></trkpt><trkpt lat="45.80891905946817" lon="9.102718593163809"><ele>408.0</ele><time>2026-04-19T09:21:19.999Z</time></trkpt><trkpt lat="45.8088636891046" lon="9.102835124251493"><ele>408.0</ele><time>2026-04-19T09:21:20.999Z</time></trkpt><trkpt lat="45.80879117194497" lon="9.102937241149924"><ele>408.0</ele><time>2026-04-19T09:21:21.999Z</time></trkpt><trkpt lat="45.80872727306673" lon="9.103040609676112"><ele>408.0</ele><time>2026-04-19T09:21:22.999Z</time></trkpt><trkpt lat="45.80864587278318" lon="9.103123081227695"><ele>408.0</ele><time>2026-04-19T09:21:23.999Z</time></trkpt><trkpt lat="45.808567421442774" lon="9.1031926651835"><ele>408.0</ele><time>2026-04-19T09:21:24.999Z</time></trkpt><trkpt lat="45.808495350749006" lon="9.103268674041981"><ele>404.5</ele><time>2026-04-19T09:21:25.999Z</time></trkpt><trkpt lat="45.80842824162891" lon="9.103350130207359"><ele>401.0</ele><time>2026-04-19T09:21:26.999Z</time></trkpt><trkpt lat="45.8084042513806" lon="9.103476725909223"><ele>397.5</ele><time>2026-04-19T09:21:27.999Z</time></trkpt><trkpt lat="45.80835512820919" lon="9.103576528587704"><ele>394.0</ele><time>2026-04-19T09:21:28.999Z</time></trkpt><trkpt lat="45.80834189007683" lon="9.103671377325545"><ele>390.5</ele><time>2026-04-19T09:21:29.999Z</time></trkpt><trkpt lat="45.808274422493255" lon="9.103755353620901"><ele>387.0</ele><time>2026-04-19T09:21:31.999Z</time></trkpt><trkpt lat="45.808225908108476" lon="9.10363880703755"><ele>387.0</ele><time>2026-04-19T09:21:33.999Z</time></trkpt><trkpt lat="45.80818803285316" lon="9.103547987380116"><ele>387.0</ele><time>2026-04-19T09:21:34.999Z</time></trkpt><trkpt lat="45.808174864836545" lon="9.103447506652639"><ele>387.0</ele><time>2026-04-19T09:21:35.999Z</time></trkpt><trkpt lat="45.80813809068335" lon="9.103344447070151"><ele>387.0</ele><time>2026-04-19T09:21:36.999Z</time></trkpt><trkpt lat="45.80810326223536" lon="9.103239795157522"><ele>387.0</ele><time>2026-04-19T09:21:37.999Z</time></trkpt><trkpt lat="45.80806979092664" lon="9.103122573382024"><ele>387.0</ele><time>2026-04-19T09:21:38.999Z</time></trkpt><trkpt lat="45.8080248476094" lon="9.103018720159126"><ele>386.0</ele><time>2026-04-19T09:21:39.999Z</time></trkpt><trkpt lat="45.80799866971795" lon="9.102917653542113"><ele>385.0</ele><time>2026-04-19T09:21:41Z</time></trkpt><trkpt lat="45.80797090548334" lon="9.10280340812323"><ele>384.0</ele><time>2026-04-19T09:21:42Z</time></trkpt><trkpt lat="45.80796910956368" lon="9.102677413818045"><ele>383.0</ele><time>2026-04-19T09:21:43Z</time></trkpt><trkpt lat="45.80799077777217" lon="9.102544957606588"><ele>382.0</ele><time>2026-04-19T09:21:44Z</time></trkpt><trkpt lat="45.80801005587473" lon="9.102399318427636"><ele>381.0</ele><time>2026-04-19T09:21:45Z</time></trkpt><trkpt lat="45.808036750828485" lon="9.102236983789897"><ele>378.0</ele><time>2026-04-19T09:21:46Z</time></trkpt><trkpt lat="45.808070915735584" lon="9.102077500748557"><ele>375.0</ele><time>2026-04-19T09:21:47Z</time></trkpt><trkpt lat="45.808111024394066" lon="9.10190877885038"><ele>372.0</ele><time>2026-04-19T09:21:48Z</time></trkpt><trkpt lat="45.80815490436063" lon="9.101746890016447"><ele>369.0</ele><time>2026-04-19T09:21:49Z</time></trkpt><trkpt lat="45.80819850333963" lon="9.101595533026448"><ele>365.5</ele><time>2026-04-19T09:21:50Z</time></trkpt><trkpt lat="45.80825626711078" lon="9.101452947897528"><ele>362.0</ele><time>2026-04-19T09:21:51Z</time></trkpt><trkpt lat="45.80829723343031" lon="9.10130002503821"><ele>358.5</ele><time>2026-04-19T09:21:52Z</time></trkpt><trkpt lat="45.80834969978113" lon="9.101157601278077"><ele>355.0</ele><time>2026-04-19T09:21:53Z</time></trkpt><trkpt lat="45.80840272460255" lon="9.101017765846159"><ele>355.0</ele><time>2026-04-19T09:21:54Z</time></trkpt><trkpt lat="45.80845449020615" lon="9.100881720988857"><ele>355.0</ele><time>2026-04-19T09:21:55Z</time></trkpt><trkpt lat="45.808509230033316" lon="9.100753659361942"><ele>355.0</ele><time>2026-04-19T09:21:56Z</time></trkpt><trkpt lat="45.80855919200535" lon="9.100623219393112"><ele>355.0</ele><time>2026-04-19T09:21:57Z</time></trkpt><trkpt lat="45.80860671165103" lon="9.10049395701823"><ele>355.0</ele><time>2026-04-19T09:21:58Z</time></trkpt><trkpt lat="45.808650681498975" lon="9.100359063255212"><ele>353.8</ele><time>2026-04-19T09:21:59Z</time></trkpt><trkpt lat="45.8086989788346" lon="9.100231400511111"><ele>352.6</ele><time>2026-04-19T09:22:00Z</time></trkpt><trkpt lat="45.80875331178509" lon="9.100107798924004"><ele>351.4</ele><time>2026-04-19T09:22:01Z</time></trkpt><trkpt lat="45.808805772419966" lon="9.099980473010458"><ele>350.2</ele><time>2026-04-19T09:22:02Z</time></trkpt><trkpt lat="45.80885689495448" lon="9.099875025983536"><ele>349.0</ele><time>2026-04-19T09:22:03Z</time></trkpt><trkpt lat="45.80890185075832" lon="9.099769336201327"><ele>349.0</ele><time>2026-04-19T09:22:04Z</time></trkpt><trkpt lat="45.808945104622644" lon="9.099667890512709"><ele>349.0</ele><time>2026-04-19T09:22:05Z</time></trkpt><trkpt lat="45.80897954021022" lon="9.099562115734228"><ele>349.0</ele><time>2026-04-19T09:22:06Z</time></trkpt><trkpt lat="45.808989877587194" lon="9.099454603614678"><ele>349.0</ele><time>2026-04-19T09:22:07Z</time></trkpt><trkpt lat="45.808962867603064" lon="9.099357070127917"><ele>349.0</ele><time>2026-04-19T09:22:08Z</time></trkpt><trkpt lat="45.80890938352083" lon="9.099286575529357"><ele>349.0</ele><time>2026-04-19T09:22:09Z</time></trkpt><trkpt lat="45.808841286936264" lon="9.09925099536603"><ele>349.0</ele><time>2026-04-19T09:22:10Z</time></trkpt><trkpt lat="45.80875647567458" lon="9.099272669487236"><ele>349.0</ele><time>2026-04-19T09:22:11Z</time></trkpt><trkpt lat="45.808667003351516" lon="9.09927626891549"><ele>349.0</ele><time>2026-04-19T09:22:12Z</time></trkpt><trkpt lat="45.80857860470455" lon="9.099290874362307"><ele>349.0</ele><time>2026-04-19T09:22:13Z</time></trkpt><trkpt lat="45.80848168748411" lon="9.099309114368799"><ele>349.0</ele><time>2026-04-19T09:22:14Z</time></trkpt><trkpt lat="45.80838949771508" lon="9.09934326756389"><ele>345.79999999999995</ele><time>2026-04-19T09:22:15Z</time></trkpt><trkpt lat="45.8083064029475" lon="9.099396407301136"><ele>342.59999999999997</ele><time>2026-04-19T09:22:16Z</time></trkpt><trkpt lat="45.80822091364884" lon="9.099455818851963"><ele>339.4</ele><time>2026-04-19T09:22:17Z</time></trkpt><trkpt lat="45.808135463862264" lon="9.099522112239063"><ele>336.2</ele><time>2026-04-19T09:22:18Z</time></trkpt><trkpt lat="45.808066718053276" lon="9.09960108693828"><ele>333.0</ele><time>2026-04-19T09:22:19Z</time></trkpt><trkpt lat="45.80801116312091" lon="9.099701212178555"><ele>333.0</ele><time>2026-04-19T09:22:20Z</time></trkpt><trkpt lat="45.807934240985325" lon="9.09978789476686"><ele>333.0</ele><time>2026-04-19T09:22:21Z</time></trkpt><trkpt lat="45.80787982348787" lon="9.099899349943284"><ele>333.0</ele><time>2026-04-19T09:22:22Z</time></trkpt><trkpt lat="45.80781625289159" lon="9.099995477132362"><ele>333.0</ele><time>2026-04-19T09:22:23Z</time></trkpt><trkpt lat="45.80775780380104" lon="9.10009724834128"><ele>333.0</ele><time>2026-04-19T09:22:24Z</time></trkpt><trkpt lat="45.80768266173677" lon="9.100184996432793"><ele>335.0</ele><time>2026-04-19T09:22:25Z</time></trkpt><trkpt lat="45.80763388215847" lon="9.100278429424467"><ele>337.0</ele><time>2026-04-19T09:22:26Z</time></trkpt><trkpt lat="45.80761413861426" lon="9.100374104629092"><ele>339.0</ele><time>2026-04-19T09:22:27Z</time></trkpt><trkpt lat="45.807619672069336" lon="9.100513924414747"><ele>341.0</ele><time>2026-04-19T09:22:28Z</time></trkpt><trkpt lat="45.80764608715202" lon="9.100609420946896"><ele>343.0</ele><time>2026-04-19T09:22:29Z</time></trkpt><trkpt lat="45.80769472159226" lon="9.100686511807272"><ele>345.0</ele><time>2026-04-19T09:22:30Z</time></trkpt><trkpt lat="45.80767533008418" lon="9.100796651648295"><ele>339.6</ele><time>2026-04-19T09:22:32Z</time></trkpt><trkpt lat="45.80755534221123" lon="9.10071676273569"><ele>334.2</ele><time>2026-04-19T09:22:33.999Z</time></trkpt><trkpt lat="45.80750314009509" lon="9.100628661136184"><ele>328.8</ele><time>2026-04-19T09:22:34.999Z</time></trkpt><trkpt lat="45.80743189505848" lon="9.10056472115961"><ele>323.4</ele><time>2026-04-19T09:22:35.999Z</time></trkpt><trkpt lat="45.80737041352504" lon="9.100483875611495"><ele>318.0</ele><time>2026-04-19T09:22:36.999Z</time></trkpt><trkpt lat="45.807332168950474" lon="9.10037589672483"><ele>318.0</ele><time>2026-04-19T09:22:37.999Z</time></trkpt><trkpt lat="45.80732401500711" lon="9.100247029873012"><ele>318.0</ele><time>2026-04-19T09:22:38.999Z</time></trkpt><trkpt lat="45.80732641135065" lon="9.100121129580742"><ele>318.0</ele><time>2026-04-19T09:22:39.999Z</time></trkpt><trkpt lat="45.80734403311261" lon="9.099995191951201"><ele>318.0</ele><time>2026-04-19T09:22:40.999Z</time></trkpt><trkpt lat="45.807376295142795" lon="9.09987771557344"><ele>318.0</ele><time>2026-04-19T09:22:41.999Z</time></trkpt><trkpt lat="45.807422976951706" lon="9.099732476287116"><ele>315.0</ele><time>2026-04-19T09:22:42.999Z</time></trkpt><trkpt lat="45.80745987958209" lon="9.099596596022693"><ele>312.0</ele><time>2026-04-19T09:22:43.999Z</time></trkpt><trkpt lat="45.80749428925142" lon="9.099460433927964"><ele>309.0</ele><time>2026-04-19T09:22:44.999Z</time></trkpt><trkpt lat="45.807528078391705" lon="9.099322383135169"><ele>306.0</ele><time>2026-04-19T09:22:45.999Z</time></trkpt><trkpt lat="45.80756208413558" lon="9.099194415460536"><ele>303.0</ele><time>2026-04-19T09:22:46.999Z</time></trkpt><trkpt lat="45.807593472832004" lon="9.099057655949132"><ele>302.8</ele><time>2026-04-19T09:22:47.999Z</time></trkpt><trkpt lat="45.807628131364105" lon="9.098926327213583"><ele>302.6</ele><time>2026-04-19T09:22:48.999Z</time></trkpt><trkpt lat="45.80767044496543" lon="9.098797594948783"><ele>302.4</ele><time>2026-04-19T09:22:49.999Z</time></trkpt><trkpt lat="45.80771822118006" lon="9.098688760963984"><ele>302.2</ele><time>2026-04-19T09:22:50.999Z</time></trkpt><trkpt lat="45.80778315392508" lon="9.098586455625316"><ele>302.0</ele><time>2026-04-19T09:22:51.999Z</time></trkpt><trkpt lat="45.80783985931603" lon="9.098496081348276"><ele>302.0</ele><time>2026-04-19T09:22:52.999Z</time></trkpt><trkpt lat="45.807895416958964" lon="9.098403617263381"><ele>302.0</ele><time>2026-04-19T09:22:53.999Z</time></trkpt><trkpt lat="45.80796312025681" lon="9.098337148704198"><ele>302.0</ele><time>2026-04-19T09:22:54.999Z</time></trkpt><trkpt lat="45.808046809108276" lon="9.098267115730494"><ele>302.0</ele><time>2026-04-19T09:22:55.999Z</time></trkpt><trkpt lat="45.808144457154086" lon="9.098204313190111"><ele>302.0</ele><time>2026-04-19T09:22:56.999Z</time></trkpt><trkpt lat="45.808236618149394" lon="9.098127478500938"><ele>298.8</ele><time>2026-04-19T09:22:57.999Z</time></trkpt><trkpt lat="45.80832672153707" lon="9.098051832459296"><ele>295.6</ele><time>2026-04-19T09:22:58.999Z</time></trkpt><trkpt lat="45.80842491890539" lon="9.097986380586537"><ele>292.40000000000003</ele><time>2026-04-19T09:22:59.999Z</time></trkpt><trkpt lat="45.80851465429616" lon="9.097929248187937"><ele>289.2</ele><time>2026-04-19T09:23:00.999Z</time></trkpt><trkpt lat="45.80860141492007" lon="9.097860125918123"><ele>286.0</ele><time>2026-04-19T09:23:01.999Z</time></trkpt><trkpt lat="45.80868981932738" lon="9.097789248486567"><ele>286.0</ele><time>2026-04-19T09:23:02.999Z</time></trkpt><trkpt lat="45.808777201271354" lon="9.097718507986748"><ele>286.0</ele><time>2026-04-19T09:23:03.999Z</time></trkpt><trkpt lat="45.808865463072294" lon="9.097642681086821"><ele>286.0</ele><time>2026-04-19T09:23:04.999Z</time></trkpt><trkpt lat="45.80895209226982" lon="9.097576991683022"><ele>286.0</ele><time>2026-04-19T09:23:05.999Z</time></trkpt><trkpt lat="45.8090471476985" lon="9.09752157982601"><ele>286.0</ele><time>2026-04-19T09:23:06.999Z</time></trkpt><trkpt lat="45.80914261030938" lon="9.0974926240663"><ele>286.0</ele><time>2026-04-19T09:23:07.999Z</time></trkpt><trkpt lat="45.80923383807724" lon="9.097464036138069"><ele>286.0</ele><time>2026-04-19T09:23:08.999Z</time></trkpt><trkpt lat="45.8093272818575" lon="9.097427165466527"><ele>286.0</ele><time>2026-04-19T09:23:09.999Z</time></trkpt><trkpt lat="45.809419009225735" lon="9.09736705898409"><ele>286.0</ele><time>2026-04-19T09:23:10.999Z</time></trkpt><trkpt lat="45.809491502139984" lon="9.097277909116556"><ele>286.0</ele><time>2026-04-19T09:23:11.999Z</time></trkpt><trkpt lat="45.809541546353714" lon="9.097159962239477"><ele>283.5</ele><time>2026-04-19T09:23:12.999Z</time></trkpt><trkpt lat="45.80961381445707" lon="9.097037460712686"><ele>281.0</ele><time>2026-04-19T09:23:13.999Z</time></trkpt><trkpt lat="45.80968931427478" lon="9.096924766289801"><ele>278.5</ele><time>2026-04-19T09:23:14.999Z</time></trkpt><trkpt lat="45.80977822045821" lon="9.096826426519444"><ele>276.0</ele><time>2026-04-19T09:23:15.999Z</time></trkpt><trkpt lat="45.80986964826847" lon="9.096712777170632"><ele>276.0</ele><time>2026-04-19T09:23:16.999Z</time></trkpt><trkpt lat="45.80995788735796" lon="9.096601605913339"><ele>276.0</ele><time>2026-04-19T09:23:17.999Z</time></trkpt><trkpt lat="45.81004784554873" lon="9.096495549376664"><ele>276.0</ele><time>2026-04-19T09:23:18.999Z</time></trkpt><trkpt lat="45.810137358737" lon="9.096369324886712"><ele>276.0</ele><time>2026-04-19T09:23:19.999Z</time></trkpt><trkpt lat="45.81022675092353" lon="9.096255617828836"><ele>274.25</ele><time>2026-04-19T09:23:20.999Z</time></trkpt><trkpt lat="45.81030649816862" lon="9.09613584273084"><ele>272.5</ele><time>2026-04-19T09:23:21.999Z</time></trkpt><trkpt lat="45.81038691107127" lon="9.096011724735886"><ele>270.75</ele><time>2026-04-19T09:23:22.999Z</time></trkpt><trkpt lat="45.81048227062448" lon="9.095904064828481"><ele>269.0</ele><time>2026-04-19T09:23:23.999Z</time></trkpt><trkpt lat="45.810576676423885" lon="9.095825535457214"><ele>269.0</ele><time>2026-04-19T09:23:24.999Z</time></trkpt><trkpt lat="45.810673338686136" lon="9.095761865320567"><ele>269.0</ele><time>2026-04-19T09:23:25.999Z</time></trkpt><trkpt lat="45.81077413984876" lon="9.095712955213347"><ele>269.0</ele><time>2026-04-19T09:23:26.999Z</time></trkpt><trkpt lat="45.81087967376833" lon="9.095681539155784"><ele>269.0</ele><time>2026-04-19T09:23:27.999Z</time></trkpt><trkpt lat="45.810980039252605" lon="9.095652902749089"><ele>269.0</ele><time>2026-04-19T09:23:28.999Z</time></trkpt><trkpt lat="45.811055368355916" lon="9.095584139977674"><ele>270.33333333333337</ele><time>2026-04-19T09:23:29.999Z</time></trkpt><trkpt lat="45.811128946275296" lon="9.095503712499493"><ele>271.6666666666667</ele><time>2026-04-19T09:23:30.999Z</time></trkpt><trkpt lat="45.81121888045928" lon="9.09538460475033"><ele>273.0</ele><time>2026-04-19T09:23:31.999Z</time></trkpt><trkpt lat="45.811266848327584" lon="9.09529625621926"><ele>274.3333333333333</ele><time>2026-04-19T09:23:32.999Z</time></trkpt><trkpt lat="45.81128941407944" lon="9.095185466819968"><ele>275.66666666666663</ele><time>2026-04-19T09:23:33.999Z</time></trkpt><trkpt lat="45.81129075890094" lon="9.09508553594365"><ele>277.0</ele><time>2026-04-19T09:23:34.999Z</time></trkpt><trkpt lat="45.811279089468414" lon="9.094982385653738"><ele>274.57142857142856</ele><time>2026-04-19T09:23:35.999Z</time></trkpt><trkpt lat="45.81125236084545" lon="9.094881908045119"><ele>272.1428571428571</ele><time>2026-04-19T09:23:36.999Z</time></trkpt><trkpt lat="45.81122079713352" lon="9.094794314187059"><ele>269.7142857142857</ele><time>2026-04-19T09:23:37.999Z</time></trkpt><trkpt lat="45.81118777026703" lon="9.09469066632834"><ele>267.2857142857143</ele><time>2026-04-19T09:23:38.999Z</time></trkpt><trkpt lat="45.811150092817485" lon="9.094596121031126"><ele>264.8571428571429</ele><time>2026-04-19T09:23:39.999Z</time></trkpt><trkpt lat="45.81111895644569" lon="9.094507411006738"><ele>262.42857142857144</ele><time>2026-04-19T09:23:40.999Z</time></trkpt><trkpt lat="45.811083204845225" lon="9.094412057252113"><ele>260.0</ele><time>2026-04-19T09:23:41.999Z</time></trkpt><trkpt lat="45.81104702885278" lon="9.094330550518547"><ele>260.0</ele><time>2026-04-19T09:23:42.999Z</time></trkpt><trkpt lat="45.811015088724496" lon="9.094240977062874"><ele>260.0</ele><time>2026-04-19T09:23:43.999Z</time></trkpt><trkpt lat="45.810961085786836" lon="9.094097456015424"><ele>260.0</ele><time>2026-04-19T09:23:45.998Z</time></trkpt><trkpt lat="45.810895357785014" lon="9.093948365312418"><ele>260.0</ele><time>2026-04-19T09:23:48Z</time></trkpt><trkpt lat="45.81086487731981" lon="9.09386736467315"><ele>260.0</ele><time>2026-04-19T09:23:49Z</time></trkpt><trkpt lat="45.81082839812293" lon="9.09378724817831"><ele>260.0</ele><time>2026-04-19T09:23:50Z</time></trkpt><trkpt lat="45.81079179227533" lon="9.093706853620846"><ele>257.14285714285717</ele><time>2026-04-19T09:23:51Z</time></trkpt><trkpt lat="45.81075439356572" lon="9.093626540878653"><ele>254.28571428571428</ele><time>2026-04-19T09:23:52Z</time></trkpt><trkpt lat="45.81070834540197" lon="9.093549947795784"><ele>251.42857142857144</ele><time>2026-04-19T09:23:53Z</time></trkpt><trkpt lat="45.8106657889777" lon="9.093469780619928"><ele>248.57142857142858</ele><time>2026-04-19T09:23:54Z</time></trkpt><trkpt lat="45.81062777622659" lon="9.093369103004063"><ele>245.71428571428572</ele><time>2026-04-19T09:23:55Z</time></trkpt><trkpt lat="45.810576107215574" lon="9.093309407326702"><ele>242.85714285714286</ele><time>2026-04-19T09:23:56Z</time></trkpt><trkpt lat="45.810540609960995" lon="9.093230571620737"><ele>240.0</ele><time>2026-04-19T09:23:57Z</time></trkpt><trkpt lat="45.810491412624174" lon="9.093119213114464"><ele>239.0</ele><time>2026-04-19T09:23:59Z</time></trkpt><trkpt lat="45.810456193333394" lon="9.093001367065831"><ele>238.0</ele><time>2026-04-19T09:24:01Z</time></trkpt><trkpt lat="45.81054073892308" lon="9.092865275100714"><ele>237.0</ele><time>2026-04-19T09:24:03Z</time></trkpt><trkpt lat="45.8105934255333" lon="9.092813381605112"><ele>236.0</ele><time>2026-04-19T09:24:04Z</time></trkpt><trkpt lat="45.810652439744594" lon="9.092759560719463"><ele>235.0</ele><time>2026-04-19T09:24:05Z</time></trkpt><trkpt lat="45.810716410443526" lon="9.092688897624672"><ele>234.0</ele><time>2026-04-19T09:24:06Z</time></trkpt><trkpt lat="45.81078447600667" lon="9.092619373193962"><ele>234.0</ele><time>2026-04-19T09:24:07Z</time></trkpt><trkpt lat="45.81085420351908" lon="9.092551396510277"><ele>234.0</ele><time>2026-04-19T09:24:08Z</time></trkpt><trkpt lat="45.810915935295895" lon="9.092470036115678"><ele>234.0</ele><time>2026-04-19T09:24:09Z</time></trkpt><trkpt lat="45.8109846100738" lon="9.092384916586994"><ele>234.0</ele><time>2026-04-19T09:24:10Z</time></trkpt><trkpt lat="45.81105301245796" lon="9.092303964323246"><ele>234.0</ele><time>2026-04-19T09:24:11Z</time></trkpt><trkpt lat="45.81112415865125" lon="9.092240095688414"><ele>234.0</ele><time>2026-04-19T09:24:12Z</time></trkpt><trkpt lat="45.811208032038635" lon="9.092182758401202"><ele>232.6</ele><time>2026-04-19T09:24:13Z</time></trkpt><trkpt lat="45.81128754844764" lon="9.092099544304647"><ele>231.2</ele><time>2026-04-19T09:24:14Z</time></trkpt><trkpt lat="45.811361681656145" lon="9.09201627015076"><ele>229.79999999999998</ele><time>2026-04-19T09:24:15Z</time></trkpt><trkpt lat="45.81142674234032" lon="9.091927940049514"><ele>228.39999999999998</ele><time>2026-04-19T09:24:16Z</time></trkpt><trkpt lat="45.81151306399159" lon="9.09186325842096"><ele>227.0</ele><time>2026-04-19T09:24:17Z</time></trkpt><trkpt lat="45.811581962170116" lon="9.091790850666806"><ele>227.00000000000003</ele><time>2026-04-19T09:24:18Z</time></trkpt><trkpt lat="45.811653530584216" lon="9.091715655153495"><ele>227.0</ele><time>2026-04-19T09:24:19Z</time></trkpt><trkpt lat="45.8117280548746" lon="9.091637355051462"><ele>227.0</ele><time>2026-04-19T09:24:20Z</time></trkpt><trkpt lat="45.811799878799484" lon="9.091561891146153"><ele>227.0</ele><time>2026-04-19T09:24:21Z</time></trkpt><trkpt lat="45.811866646743226" lon="9.091493209799317"><ele>227.00000000000003</ele><time>2026-04-19T09:24:22Z</time></trkpt><trkpt lat="45.81193481607971" lon="9.091423948321813"><ele>227.0</ele><time>2026-04-19T09:24:23Z</time></trkpt><trkpt lat="45.81200062044026" lon="9.091357089937855"><ele>226.8</ele><time>2026-04-19T09:24:24Z</time></trkpt><trkpt lat="45.812063242350376" lon="9.091293465058248"><ele>226.6</ele><time>2026-04-19T09:24:25Z</time></trkpt><trkpt lat="45.812126653179845" lon="9.091236657728837"><ele>226.40000000000003</ele><time>2026-04-19T09:24:26Z</time></trkpt><trkpt lat="45.81218033209766" lon="9.091159522682776"><ele>226.20000000000002</ele><time>2026-04-19T09:24:27Z</time></trkpt><trkpt lat="45.81226850066959" lon="9.091070185295056"><ele>226.0</ele><time>2026-04-19T09:24:28Z</time></trkpt><trkpt lat="45.81238661361021" lon="9.090960780879122"><ele>225.99999999999997</ele><time>2026-04-19T09:24:30Z</time></trkpt><trkpt lat="45.81245380117377" lon="9.090907148009832"><ele>226.0</ele><time>2026-04-19T09:24:31Z</time></trkpt><trkpt lat="45.81252487910948" lon="9.090831037370501"><ele>226.0</ele><time>2026-04-19T09:24:32Z</time></trkpt><trkpt lat="45.81257184553649" lon="9.09075121325735"><ele>226.0</ele><time>2026-04-19T09:24:33Z</time></trkpt><trkpt lat="45.812624954332506" lon="9.090691198635362"><ele>225.99999999999997</ele><time>2026-04-19T09:24:34Z</time></trkpt><trkpt lat="45.812739090963426" lon="9.090585997113957"><ele>226.0</ele><time>2026-04-19T09:24:35.999Z</time></trkpt><trkpt lat="45.81278790208685" lon="9.090502522204783"><ele>225.66666666666666</ele><time>2026-04-19T09:24:37.999Z</time></trkpt><trkpt lat="45.81281915351057" lon="9.090418547376112"><ele>225.33333333333331</ele><time>2026-04-19T09:24:39.999Z</time></trkpt><trkpt lat="45.812797285915295" lon="9.09029340556075"><ele>225.0</ele><time>2026-04-19T09:24:41.999Z</time></trkpt><trkpt lat="45.81273715706978" lon="9.090202083625057"><ele>224.66666666666669</ele><time>2026-04-19T09:24:43.999Z</time></trkpt><trkpt lat="45.81270205202063" lon="9.090095440026015"><ele>224.33333333333334</ele><time>2026-04-19T09:24:45.999Z</time></trkpt><trkpt lat="45.81264733439525" lon="9.090000581759362"><ele>224.0</ele><time>2026-04-19T09:24:47.999Z</time></trkpt><trkpt lat="45.81259366551494" lon="9.089836997754746"><ele>222.16666666666669</ele><time>2026-04-19T09:24:49.999Z</time></trkpt><trkpt lat="45.81256113421729" lon="9.0897451578718"><ele>220.33333333333334</ele><time>2026-04-19T09:24:50.999Z</time></trkpt><trkpt lat="45.81253491775079" lon="9.089657776999085"><ele>218.5</ele><time>2026-04-19T09:24:51.999Z</time></trkpt><trkpt lat="45.81248464852324" lon="9.089513584869517"><ele>216.66666666666669</ele><time>2026-04-19T09:24:53.999Z</time></trkpt><trkpt lat="45.81247092441616" lon="9.089420101743556"><ele>214.83333333333334</ele><time>2026-04-19T09:24:54.999Z</time></trkpt><trkpt lat="45.81243205476207" lon="9.0892863474198"><ele>213.0</ele><time>2026-04-19T09:24:56.999Z</time></trkpt><trkpt lat="45.81237415996216" lon="9.08914711697845"><ele>212.2</ele><time>2026-04-19T09:24:58.999Z</time></trkpt><trkpt lat="45.812332658416224" lon="9.089019585819573"><ele>211.4</ele><time>2026-04-19T09:25:00.999Z</time></trkpt><trkpt lat="45.812282383207446" lon="9.088903137445987"><ele>210.6</ele><time>2026-04-19T09:25:02.999Z</time></trkpt><trkpt lat="45.812249640540315" lon="9.08877245801078"><ele>209.79999999999998</ele><time>2026-04-19T09:25:04.999Z</time></trkpt><trkpt lat="45.81219698319348" lon="9.088622554739741"><ele>209.0</ele><time>2026-04-19T09:25:06.999Z</time></trkpt><trkpt lat="45.81214299398961" lon="9.088468158614742"><ele>209.0</ele><time>2026-04-19T09:25:08.999Z</time></trkpt><trkpt lat="45.81208743194667" lon="9.088353096342814"><ele>209.0</ele><time>2026-04-19T09:25:10.999Z</time></trkpt><trkpt lat="45.81205841868831" lon="9.088228039886319"><ele>209.0</ele><time>2026-04-19T09:25:12.999Z</time></trkpt><trkpt lat="45.8119952339134" lon="9.088085501313946"><ele>209.0</ele><time>2026-04-19T09:25:14.999Z</time></trkpt><trkpt lat="45.8119504198292" lon="9.087947991256804"><ele>209.0</ele><time>2026-04-19T09:25:16.999Z</time></trkpt><trkpt lat="45.8119100784479" lon="9.087838174416651"><ele>209.00000000000003</ele><time>2026-04-19T09:25:18.999Z</time></trkpt><trkpt lat="45.81189711300465" lon="9.087748143019642"><ele>209.0</ele><time>2026-04-19T09:25:27.999Z</time></trkpt><trkpt lat="45.81184383445859" lon="9.087674772334555"><ele>209.0</ele><time>2026-04-19T09:25:30.999Z</time></trkpt><trkpt lat="45.811801062901544" lon="9.087561763879428"><ele>209.0</ele><time>2026-04-19T09:25:32.999Z</time></trkpt><trkpt lat="45.81175596039315" lon="9.08744207933312"><ele>209.00000000000003</ele><time>2026-04-19T09:25:34.999Z</time></trkpt><trkpt lat="45.81170726114503" lon="9.087314455534809"><ele>209.0</ele><time>2026-04-19T09:25:36.999Z</time></trkpt><trkpt lat="45.81167353505146" lon="9.087232479261791"><ele>208.50000000000003</ele><time>2026-04-19T09:25:38.999Z</time></trkpt><trkpt lat="45.811634911261145" lon="9.087124000975436"><ele>208.0</ele><time>2026-04-19T09:25:42.999Z</time></trkpt><trkpt lat="45.81159639498055" lon="9.087018369407367"><ele>207.5</ele><time>2026-04-19T09:25:45.999Z</time></trkpt><trkpt lat="45.81156347472586" lon="9.08691403485737"><ele>207.0</ele><time>2026-04-19T09:25:47.998Z</time></trkpt><trkpt lat="45.811517194915645" lon="9.086806058482962"><ele>206.50000000000003</ele><time>2026-04-19T09:25:49.998Z</time></trkpt><trkpt lat="45.81150940279269" lon="9.08670890205666"><ele>206.0</ele><time>2026-04-19T09:25:51.998Z</time></trkpt><trkpt lat="45.811473099394384" lon="9.086615710536279"><ele>205.66666666666669</ele><time>2026-04-19T09:25:55Z</time></trkpt><trkpt lat="45.81144728434638" lon="9.08652442659561"><ele>205.33333333333334</ele><time>2026-04-19T09:25:58Z</time></trkpt><trkpt lat="45.81140392092325" lon="9.086410190737439"><ele>205.0</ele><time>2026-04-19T09:26:07Z</time></trkpt><trkpt lat="45.811482329228454" lon="9.086366519194934"><ele>204.66666666666669</ele><time>2026-04-19T09:26:08Z</time></trkpt><trkpt lat="45.8115439318707" lon="9.086251104369229"><ele>204.33333333333334</ele><time>2026-04-19T09:26:10Z</time></trkpt><trkpt lat="45.811583327977765" lon="9.086175749674396"><ele>204.0</ele><time>2026-04-19T09:26:11Z</time></trkpt><trkpt lat="45.81162924751748" lon="9.086087917197585"><ele>204.0</ele><time>2026-04-19T09:26:12Z</time></trkpt><trkpt lat="45.81167574137453" lon="9.086003297222552"><ele>204.0</ele><time>2026-04-19T09:26:13Z</time></trkpt><trkpt lat="45.811725803250525" lon="9.085910336189459"><ele>204.0</ele><time>2026-04-19T09:26:14Z</time></trkpt><trkpt lat="45.81176888906581" lon="9.085804784493309"><ele>204.0</ele><time>2026-04-19T09:26:15Z</time></trkpt><trkpt lat="45.811827788989525" lon="9.08572785347211"><ele>204.0</ele><time>2026-04-19T09:26:16Z</time></trkpt><trkpt lat="45.811874038841" lon="9.085637490386803"><ele>204.0</ele><time>2026-04-19T09:26:17Z</time></trkpt><trkpt lat="45.81192764881117" lon="9.085563785597051"><ele>204.33333333333334</ele><time>2026-04-19T09:26:18Z</time></trkpt><trkpt lat="45.81198651037167" lon="9.085497666275653"><ele>204.66666666666669</ele><time>2026-04-19T09:26:19Z</time></trkpt><trkpt lat="45.81203843823048" lon="9.085432928218955"><ele>205.0</ele><time>2026-04-19T09:26:20Z</time></trkpt><trkpt lat="45.81209645927605" lon="9.085386136304427"><ele>205.33333333333334</ele><time>2026-04-19T09:26:21Z</time></trkpt><trkpt lat="45.81218899380087" lon="9.08533851764149"><ele>205.66666666666669</ele><time>2026-04-19T09:26:23Z</time></trkpt><trkpt lat="45.81225897345674" lon="9.085330297618336"><ele>206.0</ele><time>2026-04-19T09:26:25Z</time></trkpt><trkpt lat="45.81234069210202" lon="9.085280487829747"><ele>206.0</ele><time>2026-04-19T09:26:27Z</time></trkpt><trkpt lat="45.81246169491406" lon="9.08521624361239"><ele>206.0</ele><time>2026-04-19T09:26:29Z</time></trkpt><trkpt lat="45.812540275797915" lon="9.08519240160829"><ele>206.0</ele><time>2026-04-19T09:26:30Z</time></trkpt><trkpt lat="45.81262106851123" lon="9.08517301376389"><ele>206.0</ele><time>2026-04-19T09:26:31Z</time></trkpt><trkpt lat="45.812726762576425" lon="9.085156802657835"><ele>206.0</ele><time>2026-04-19T09:26:32Z</time></trkpt><trkpt lat="45.81285314310284" lon="9.085122452678187"><ele>206.0</ele><time>2026-04-19T09:26:33Z</time></trkpt><trkpt lat="45.81297857719784" lon="9.085080064376543"><ele>206.0</ele><time>2026-04-19T09:26:34Z</time></trkpt><trkpt lat="45.813121028445124" lon="9.085012142257579"><ele>206.0</ele><time>2026-04-19T09:26:35Z</time></trkpt><trkpt lat="45.8132643228628" lon="9.084955900528815"><ele>206.0</ele><time>2026-04-19T09:26:36Z</time></trkpt><trkpt lat="45.81338662095383" lon="9.084894491732266"><ele>205.5</ele><time>2026-04-19T09:26:37Z</time></trkpt><trkpt lat="45.81350622855144" lon="9.084845761836807"><ele>205.0</ele><time>2026-04-19T09:26:38Z</time></trkpt><trkpt lat="45.813616588447225" lon="9.08479919112348"><ele>204.5</ele><time>2026-04-19T09:26:39Z</time></trkpt><trkpt lat="45.81371959649498" lon="9.08475689977998"><ele>204.0</ele><time>2026-04-19T09:26:40Z</time></trkpt><trkpt lat="45.81382523468815" lon="9.084745614933938"><ele>204.0</ele><time>2026-04-19T09:26:41Z</time></trkpt><trkpt lat="45.813921404604876" lon="9.084706465940243"><ele>204.0</ele><time>2026-04-19T09:26:41.999Z</time></trkpt><trkpt lat="45.81402120692734" lon="9.084673096100865"><ele>204.0</ele><time>2026-04-19T09:26:42.999Z</time></trkpt><trkpt lat="45.814117525489976" lon="9.08464089930525"><ele>204.0</ele><time>2026-04-19T09:26:43.999Z</time></trkpt><trkpt lat="45.81420266530232" lon="9.084617620430596"><ele>204.0</ele><time>2026-04-19T09:26:44.999Z</time></trkpt><trkpt lat="45.81429210302289" lon="9.084638895727716"><ele>204.39999999999998</ele><time>2026-04-19T09:26:45.999Z</time></trkpt><trkpt lat="45.81437910592162" lon="9.084675026623524"><ele>204.8</ele><time>2026-04-19T09:26:46.999Z</time></trkpt><trkpt lat="45.81447743745461" lon="9.084699159319532"><ele>205.2</ele><time>2026-04-19T09:26:47.999Z</time></trkpt><trkpt lat="45.814569690063834" lon="9.084724402249325"><ele>205.60000000000002</ele><time>2026-04-19T09:26:48.999Z</time></trkpt><trkpt lat="45.81466896752396" lon="9.08474942750022"><ele>206.0</ele><time>2026-04-19T09:26:49.999Z</time></trkpt><trkpt lat="45.81475771412138" lon="9.08475795781376"><ele>205.99999999999997</ele><time>2026-04-19T09:26:50.999Z</time></trkpt><trkpt lat="45.81485254289243" lon="9.084821651718002"><ele>206.0</ele><time>2026-04-19T09:26:51.999Z</time></trkpt><trkpt lat="45.81491485990152" lon="9.08485521535035"><ele>206.0</ele><time>2026-04-19T09:26:52.999Z</time></trkpt><trkpt lat="45.81497594174498" lon="9.084921610006656"><ele>206.0</ele><time>2026-04-19T09:26:53.999Z</time></trkpt><trkpt lat="45.8150302766829" lon="9.084971374428486"><ele>206.0</ele><time>2026-04-19T09:26:54.999Z</time></trkpt><trkpt lat="45.81509353554928" lon="9.084982662265155"><ele>205.99999999999997</ele><time>2026-04-19T09:26:55.999Z</time></trkpt><trkpt lat="45.815160284171625" lon="9.084972164726013"><ele>206.0</ele><time>2026-04-19T09:26:56.999Z</time></trkpt><trkpt lat="45.815221784712534" lon="9.084900444428987"><ele>206.66666666666669</ele><time>2026-04-19T09:26:57.999Z</time></trkpt><trkpt lat="45.815284094702726" lon="9.084818011577655"><ele>207.33333333333334</ele><time>2026-04-19T09:26:58.999Z</time></trkpt><trkpt lat="45.81534757048691" lon="9.084729532519438"><ele>208.0</ele><time>2026-04-19T09:26:59.999Z</time></trkpt><trkpt lat="45.81540254856773" lon="9.08464782472676"><ele>208.66666666666669</ele><time>2026-04-19T09:27:00.999Z</time></trkpt><trkpt lat="45.81546685680256" lon="9.08456517770012"><ele>209.33333333333334</ele><time>2026-04-19T09:27:01.999Z</time></trkpt><trkpt lat="45.81555098370074" lon="9.08452745866527"><ele>210.0</ele><time>2026-04-19T09:27:02.999Z</time></trkpt><trkpt lat="45.815638908110074" lon="9.084539663268155"><ele>210.0</ele><time>2026-04-19T09:27:03.999Z</time></trkpt><trkpt lat="45.81570774331739" lon="9.084543043774186"><ele>210.0</ele><time>2026-04-19T09:27:04.999Z</time></trkpt><trkpt lat="45.8157975850519" lon="9.084597567104353"><ele>210.0</ele><time>2026-04-19T09:27:05.999Z</time></trkpt><trkpt lat="45.81589259305353" lon="9.084630573738016"><ele>210.0</ele><time>2026-04-19T09:27:06.999Z</time></trkpt><trkpt lat="45.81599847704448" lon="9.08466664021451"><ele>210.0</ele><time>2026-04-19T09:27:07.999Z</time></trkpt><trkpt lat="45.81610270862648" lon="9.084684486475867"><ele>210.5</ele><time>2026-04-19T09:27:08.999Z</time></trkpt><trkpt lat="45.81621955563286" lon="9.084649753012743"><ele>211.0</ele><time>2026-04-19T09:27:09.999Z</time></trkpt><trkpt lat="45.816347397444346" lon="9.084564088931826"><ele>211.5</ele><time>2026-04-19T09:27:10.999Z</time></trkpt><trkpt lat="45.81648195740201" lon="9.084497844952105"><ele>212.0</ele><time>2026-04-19T09:27:11.999Z</time></trkpt><trkpt lat="45.81661528864563" lon="9.084432013922369"><ele>212.0</ele><time>2026-04-19T09:27:12.999Z</time></trkpt><trkpt lat="45.81674426398956" lon="9.084368466464523"><ele>212.0</ele><time>2026-04-19T09:27:13.999Z</time></trkpt><trkpt lat="45.81687256071255" lon="9.084310414352935"><ele>212.0</ele><time>2026-04-19T09:27:14.999Z</time></trkpt><trkpt lat="45.816996411844215" lon="9.084254373783228"><ele>212.0</ele><time>2026-04-19T09:27:15.999Z</time></trkpt><trkpt lat="45.817119323865505" lon="9.084199660561952"><ele>211.33333333333334</ele><time>2026-04-19T09:27:16.999Z</time></trkpt><trkpt lat="45.81724835365865" lon="9.084131056906308"><ele>210.66666666666669</ele><time>2026-04-19T09:27:17.999Z</time></trkpt><trkpt lat="45.81738697602939" lon="9.084022890977378"><ele>210.0</ele><time>2026-04-19T09:27:18.999Z</time></trkpt><trkpt lat="45.817515635714415" lon="9.0838917680377"><ele>210.0</ele><time>2026-04-19T09:27:19.999Z</time></trkpt><trkpt lat="45.81765118390782" lon="9.08380505858112"><ele>210.0</ele><time>2026-04-19T09:27:20.999Z</time></trkpt><trkpt lat="45.81776467445168" lon="9.08368355521925"><ele>210.0</ele><time>2026-04-19T09:27:21.999Z</time></trkpt><trkpt lat="45.817887936858725" lon="9.083569533830959"><ele>210.0</ele><time>2026-04-19T09:27:22.999Z</time></trkpt><trkpt lat="45.81800971529349" lon="9.083450295266685"><ele>210.5</ele><time>2026-04-19T09:27:23.999Z</time></trkpt><trkpt lat="45.818130593713214" lon="9.083329834420713"><ele>211.0</ele><time>2026-04-19T09:27:24.999Z</time></trkpt><trkpt lat="45.81826082780054" lon="9.083242001101352"><ele>211.5</ele><time>2026-04-19T09:27:25.999Z</time></trkpt><trkpt lat="45.818383198054285" lon="9.083141929836131"><ele>212.0</ele><time>2026-04-19T09:27:26.999Z</time></trkpt><trkpt lat="45.81850340165684" lon="9.083046416701853"><ele>219.75</ele><time>2026-04-19T09:27:27.999Z</time></trkpt><trkpt lat="45.81860992834784" lon="9.082940283073588"><ele>227.5</ele><time>2026-04-19T09:27:28.999Z</time></trkpt><trkpt lat="45.818707569899374" lon="9.082792761212346"><ele>235.25</ele><time>2026-04-19T09:27:29.999Z</time></trkpt><trkpt lat="45.81878425519245" lon="9.082623512400831"><ele>243.0</ele><time>2026-04-19T09:27:30.999Z</time></trkpt><trkpt lat="45.81888599084891" lon="9.082489755924446"><ele>238.0</ele><time>2026-04-19T09:27:31.999Z</time></trkpt><trkpt lat="45.8189637280291" lon="9.082334677086271"><ele>233.0</ele><time>2026-04-19T09:27:32.999Z</time></trkpt><trkpt lat="45.819048169704296" lon="9.08222659167698"><ele>228.0</ele><time>2026-04-19T09:27:33.999Z</time></trkpt><trkpt lat="45.81912668925708" lon="9.082114157156925"><ele>223.0</ele><time>2026-04-19T09:27:34.999Z</time></trkpt><trkpt lat="45.81921347318278" lon="9.082002482014486"><ele>223.0</ele><time>2026-04-19T09:27:35.999Z</time></trkpt><trkpt lat="45.81930321958932" lon="9.081891545694122"><ele>223.0</ele><time>2026-04-19T09:27:36.999Z</time></trkpt><trkpt lat="45.819405118949035" lon="9.081816740521171"><ele>223.0</ele><time>2026-04-19T09:27:37.999Z</time></trkpt><trkpt lat="45.81951263760805" lon="9.08174821360302"><ele>223.0</ele><time>2026-04-19T09:27:38.999Z</time></trkpt><trkpt lat="45.81961131821559" lon="9.081669233244314"><ele>222.4</ele><time>2026-04-19T09:27:39.999Z</time></trkpt><trkpt lat="45.81971009486232" lon="9.081640993124346"><ele>221.8</ele><time>2026-04-19T09:27:40.999Z</time></trkpt><trkpt lat="45.81978057420748" lon="9.081599407335581"><ele>221.2</ele><time>2026-04-19T09:27:41.999Z</time></trkpt><trkpt lat="45.81987595012073" lon="9.081502408666323"><ele>220.6</ele><time>2026-04-19T09:27:43.999Z</time></trkpt><trkpt lat="45.81996331980746" lon="9.081430398877497"><ele>220.0</ele><time>2026-04-19T09:27:45.999Z</time></trkpt><trkpt lat="45.820036225904616" lon="9.081364254740151"><ele>219.99999999999997</ele><time>2026-04-19T09:27:47.999Z</time></trkpt><trkpt lat="45.82010411130974" lon="9.08134243675897"><ele>220.0</ele><time>2026-04-19T09:27:49.999Z</time></trkpt><trkpt lat="45.82019097329739" lon="9.081270537337355"><ele>220.0</ele><time>2026-04-19T09:27:51.999Z</time></trkpt><trkpt lat="45.82026329595581" lon="9.081223392903363"><ele>220.0</ele><time>2026-04-19T09:27:52.999Z</time></trkpt><trkpt lat="45.820350214405536" lon="9.081186111488575"><ele>219.99999999999997</ele><time>2026-04-19T09:27:53.999Z</time></trkpt><trkpt lat="45.82042339158879" lon="9.081131558543106"><ele>220.0</ele><time>2026-04-19T09:27:54.999Z</time></trkpt><trkpt lat="45.820518261931205" lon="9.08105500786823"><ele>219.0</ele><time>2026-04-19T09:27:55.998Z</time></trkpt><trkpt lat="45.82060763830928" lon="9.080985165222273"><ele>218.0</ele><time>2026-04-19T09:27:56.998Z</time></trkpt><trkpt lat="45.8207065962191" lon="9.080908646176711"><ele>217.0</ele><time>2026-04-19T09:27:57.998Z</time></trkpt><trkpt lat="45.82081860001886" lon="9.080855853798035"><ele>216.0</ele><time>2026-04-19T09:27:59Z</time></trkpt><trkpt lat="45.82092273790428" lon="9.080759475739626"><ele>225.0</ele><time>2026-04-19T09:28:00Z</time></trkpt><trkpt lat="45.82102666814946" lon="9.080661947829258"><ele>234.0</ele><time>2026-04-19T09:28:01Z</time></trkpt><trkpt lat="45.82111709806392" lon="9.080546004956679"><ele>243.0</ele><time>2026-04-19T09:28:02Z</time></trkpt><trkpt lat="45.82120854101691" lon="9.080451466869828"><ele>252.0</ele><time>2026-04-19T09:28:03Z</time></trkpt><trkpt lat="45.82128188904281" lon="9.080340249427305"><ele>252.0</ele><time>2026-04-19T09:28:04Z</time></trkpt><trkpt lat="45.82135234931782" lon="9.080303988712647"><ele>252.0</ele><time>2026-04-19T09:28:05Z</time></trkpt><trkpt lat="45.82142451118442" lon="9.08019809573215"><ele>252.0</ele><time>2026-04-19T09:28:06Z</time></trkpt><trkpt lat="45.821504451608114" lon="9.080059103761398"><ele>252.0</ele><time>2026-04-19T09:28:07Z</time></trkpt><trkpt lat="45.82158795969385" lon="9.07995057048394"><ele>252.0</ele><time>2026-04-19T09:28:08Z</time></trkpt><trkpt lat="45.821676859124956" lon="9.079844614547907"><ele>252.0</ele><time>2026-04-19T09:28:09Z</time></trkpt><trkpt lat="45.82177686157229" lon="9.079755812327342"><ele>252.0</ele><time>2026-04-19T09:28:10Z</time></trkpt><trkpt lat="45.821870455351025" lon="9.079660404909804"><ele>252.0</ele><time>2026-04-19T09:28:11Z</time></trkpt><trkpt lat="45.821937418764215" lon="9.079564099855613"><ele>252.0</ele><time>2026-04-19T09:28:12Z</time></trkpt><trkpt lat="45.82198365614575" lon="9.079455217179786"><ele>252.0</ele><time>2026-04-19T09:28:13Z</time></trkpt><trkpt lat="45.82204058698755" lon="9.079339686655263"><ele>252.0</ele><time>2026-04-19T09:28:14Z</time></trkpt><trkpt lat="45.82210149605335" lon="9.079231965350191"><ele>252.0</ele><time>2026-04-19T09:28:15Z</time></trkpt><trkpt lat="45.8221635067596" lon="9.079125281148919"><ele>252.0</ele><time>2026-04-19T09:28:16Z</time></trkpt><trkpt lat="45.822238520302705" lon="9.079034276084053"><ele>252.0</ele><time>2026-04-19T09:28:17Z</time></trkpt><trkpt lat="45.82233175380867" lon="9.078978653759766"><ele>252.0</ele><time>2026-04-19T09:28:18Z</time></trkpt><trkpt lat="45.82244416848428" lon="9.078959018539663"><ele>242.5</ele><time>2026-04-19T09:28:19Z</time></trkpt><trkpt lat="45.82255635207053" lon="9.078951350395965"><ele>233.0</ele><time>2026-04-19T09:28:20Z</time></trkpt><trkpt lat="45.82266677292004" lon="9.078943542763428"><ele>223.5</ele><time>2026-04-19T09:28:21Z</time></trkpt><trkpt lat="45.82278366128976" lon="9.078928523023851"><ele>214.0</ele><time>2026-04-19T09:28:22Z</time></trkpt><trkpt lat="45.82290170105591" lon="9.078920022878354"><ele>214.0</ele><time>2026-04-19T09:28:23Z</time></trkpt><trkpt lat="45.82302338960409" lon="9.078930465010236"><ele>214.0</ele><time>2026-04-19T09:28:24Z</time></trkpt><trkpt lat="45.823142148709984" lon="9.078956387039206"><ele>214.0</ele><time>2026-04-19T09:28:25Z</time></trkpt><trkpt lat="45.82325206037538" lon="9.07898182997993"><ele>214.0</ele><time>2026-04-19T09:28:26Z</time></trkpt><trkpt lat="45.82335652773911" lon="9.079001064363643"><ele>214.0</ele><time>2026-04-19T09:28:27Z</time></trkpt><trkpt lat="45.823463887934835" lon="9.079029581829342"><ele>213.99999999999997</ele><time>2026-04-19T09:28:28Z</time></trkpt><trkpt lat="45.82356462459778" lon="9.079086834315547"><ele>213.99999999999997</ele><time>2026-04-19T09:28:29Z</time></trkpt><trkpt lat="45.82364601207804" lon="9.07917873768718"><ele>214.0</ele><time>2026-04-19T09:28:30Z</time></trkpt><trkpt lat="45.823716157630464" lon="9.079303622717672"><ele>214.0</ele><time>2026-04-19T09:28:31Z</time></trkpt><trkpt lat="45.82377942711332" lon="9.079433631157022"><ele>217.5</ele><time>2026-04-19T09:28:32Z</time></trkpt><trkpt lat="45.8238604010369" lon="9.079565275149216"><ele>221.0</ele><time>2026-04-19T09:28:33Z</time></trkpt><trkpt lat="45.82395635060766" lon="9.07969832075738"><ele>224.5</ele><time>2026-04-19T09:28:34Z</time></trkpt><trkpt lat="45.824046655758224" lon="9.0798363004516"><ele>228.0</ele><time>2026-04-19T09:28:35Z</time></trkpt><trkpt lat="45.824144592789104" lon="9.079956840060131"><ele>227.5</ele><time>2026-04-19T09:28:36Z</time></trkpt><trkpt lat="45.8242573935166" lon="9.080056447696231"><ele>227.0</ele><time>2026-04-19T09:28:37Z</time></trkpt><trkpt lat="45.82438487084959" lon="9.080123416574045"><ele>226.5</ele><time>2026-04-19T09:28:38Z</time></trkpt><trkpt lat="45.824521825480716" lon="9.080173692379416"><ele>226.0</ele><time>2026-04-19T09:28:39Z</time></trkpt><trkpt lat="45.82464431936496" lon="9.080225213217913"><ele>226.0</ele><time>2026-04-19T09:28:40Z</time></trkpt><trkpt lat="45.82475418633521" lon="9.080288632113817"><ele>226.00000000000003</ele><time>2026-04-19T09:28:41Z</time></trkpt><trkpt lat="45.82484387718454" lon="9.080366900259676"><ele>226.00000000000003</ele><time>2026-04-19T09:28:42Z</time></trkpt><trkpt lat="45.824932698890066" lon="9.080466146619827"><ele>226.0</ele><time>2026-04-19T09:28:43Z</time></trkpt><trkpt lat="45.8249990246517" lon="9.080581398555328"><ele>226.0</ele><time>2026-04-19T09:28:44Z</time></trkpt><trkpt lat="45.82505705908629" lon="9.080715160519716"><ele>223.60000000000002</ele><time>2026-04-19T09:28:45Z</time></trkpt><trkpt lat="45.82508797074073" lon="9.080884310407281"><ele>221.20000000000002</ele><time>2026-04-19T09:28:46Z</time></trkpt><trkpt lat="45.825140747360656" lon="9.081035300977877"><ele>218.79999999999998</ele><time>2026-04-19T09:28:47Z</time></trkpt><trkpt lat="45.82519335901695" lon="9.081172842418558"><ele>216.39999999999998</ele><time>2026-04-19T09:28:48Z</time></trkpt><trkpt lat="45.82526731315904" lon="9.081258934485241"><ele>214.0</ele><time>2026-04-19T09:28:49Z</time></trkpt><trkpt lat="45.82534335447197" lon="9.081356708401968"><ele>214.0</ele><time>2026-04-19T09:28:49.999Z</time></trkpt><trkpt lat="45.82539519329339" lon="9.081470738068406"><ele>213.99999999999997</ele><time>2026-04-19T09:28:50.999Z</time></trkpt><trkpt lat="45.825453685363456" lon="9.081583438291878"><ele>213.99999999999997</ele><time>2026-04-19T09:28:51.999Z</time></trkpt><trkpt lat="45.82550901856754" lon="9.081711412045383"><ele>214.0</ele><time>2026-04-19T09:28:52.999Z</time></trkpt><trkpt lat="45.82556019949767" lon="9.08184805627565"><ele>214.0</ele><time>2026-04-19T09:28:53.999Z</time></trkpt><trkpt lat="45.82560992392637" lon="9.081990554781182"><ele>217.0</ele><time>2026-04-19T09:28:54.999Z</time></trkpt><trkpt lat="45.82564743503366" lon="9.082123587866816"><ele>219.99999999999997</ele><time>2026-04-19T09:28:55.999Z</time></trkpt><trkpt lat="45.825682983030056" lon="9.08224635969738"><ele>222.99999999999997</ele><time>2026-04-19T09:28:56.999Z</time></trkpt><trkpt lat="45.82572156378798" lon="9.082384302040852"><ele>226.0</ele><time>2026-04-19T09:28:57.999Z</time></trkpt><trkpt lat="45.82576499682953" lon="9.08253863797853"><ele>229.0</ele><time>2026-04-19T09:28:58.999Z</time></trkpt><trkpt lat="45.82580461169908" lon="9.082708540448056"><ele>236.0</ele><time>2026-04-19T09:28:59.999Z</time></trkpt><trkpt lat="45.825836455903485" lon="9.082900431636043"><ele>243.0</ele><time>2026-04-19T09:29:00.999Z</time></trkpt><trkpt lat="45.8258684458344" lon="9.083124563528468"><ele>250.0</ele><time>2026-04-19T09:29:01.999Z</time></trkpt><trkpt lat="45.82590610095922" lon="9.083348376624128"><ele>257.0</ele><time>2026-04-19T09:29:02.999Z</time></trkpt><trkpt lat="45.825928404838976" lon="9.083593490886075"><ele>264.0</ele><time>2026-04-19T09:29:03.999Z</time></trkpt><trkpt lat="45.8259662434365" lon="9.083824226405293"><ele>271.0</ele><time>2026-04-19T09:29:04.999Z</time></trkpt><trkpt lat="45.82600712036285" lon="9.084041196080346"><ele>258.75</ele><time>2026-04-19T09:29:05.999Z</time></trkpt><trkpt lat="45.82605883833057" lon="9.084234748375462"><ele>246.5</ele><time>2026-04-19T09:29:06.999Z</time></trkpt><trkpt lat="45.82610362267743" lon="9.084404229063345"><ele>234.25</ele><time>2026-04-19T09:29:07.999Z</time></trkpt><trkpt lat="45.82612390180582" lon="9.0846254790168"><ele>222.0</ele><time>2026-04-19T09:29:08.999Z</time></trkpt><trkpt lat="45.826147293692934" lon="9.084822956656895"><ele>223.25</ele><time>2026-04-19T09:29:09.999Z</time></trkpt><trkpt lat="45.82614859309281" lon="9.08502823624611"><ele>224.5</ele><time>2026-04-19T09:29:10.999Z</time></trkpt><trkpt lat="45.82612782030986" lon="9.085225619400243"><ele>225.75</ele><time>2026-04-19T09:29:11.999Z</time></trkpt><trkpt lat="45.82609183244255" lon="9.08541611642506"><ele>227.0</ele><time>2026-04-19T09:29:12.999Z</time></trkpt><trkpt lat="45.8260663294877" lon="9.08560303406904"><ele>228.0</ele><time>2026-04-19T09:29:13.999Z</time></trkpt><trkpt lat="45.826064488939636" lon="9.085786108643504"><ele>229.0</ele><time>2026-04-19T09:29:14.999Z</time></trkpt><trkpt lat="45.826085166238464" lon="9.085978817685382"><ele>230.0</ele><time>2026-04-19T09:29:15.999Z</time></trkpt><trkpt lat="45.82615055758228" lon="9.086156933566315"><ele>231.0</ele><time>2026-04-19T09:29:16.999Z</time></trkpt><trkpt lat="45.82624761893689" lon="9.0863464947834"><ele>231.0</ele><time>2026-04-19T09:29:17.999Z</time></trkpt><trkpt lat="45.826333560360645" lon="9.086555796439454"><ele>231.0</ele><time>2026-04-19T09:29:18.999Z</time></trkpt><trkpt lat="45.82641382146616" lon="9.086785054084407"><ele>231.0</ele><time>2026-04-19T09:29:19.999Z</time></trkpt><trkpt lat="45.826500381335755" lon="9.087016654316887"><ele>235.66666666666669</ele><time>2026-04-19T09:29:20.999Z</time></trkpt><trkpt lat="45.82659156575402" lon="9.087235957834036"><ele>240.33333333333334</ele><time>2026-04-19T09:29:21.999Z</time></trkpt><trkpt lat="45.8266785344514" lon="9.087439099850824"><ele>245.0</ele><time>2026-04-19T09:29:22.999Z</time></trkpt><trkpt lat="45.82678045164143" lon="9.087624073254412"><ele>235.33333333333334</ele><time>2026-04-19T09:29:23.999Z</time></trkpt><trkpt lat="45.82687245002095" lon="9.087830510077811"><ele>225.66666666666669</ele><time>2026-04-19T09:29:24.999Z</time></trkpt><trkpt lat="45.82697961177043" lon="9.088016354833231"><ele>216.0</ele><time>2026-04-19T09:29:25.999Z</time></trkpt><trkpt lat="45.82706520612006" lon="9.088186445508885"><ele>222.75</ele><time>2026-04-19T09:29:26.999Z</time></trkpt><trkpt lat="45.82715140490115" lon="9.088343347718116"><ele>229.5</ele><time>2026-04-19T09:29:27.999Z</time></trkpt><trkpt lat="45.827235923158625" lon="9.088498952100982"><ele>236.25</ele><time>2026-04-19T09:29:28.999Z</time></trkpt><trkpt lat="45.82733388841098" lon="9.088653418234236"><ele>243.0</ele><time>2026-04-19T09:29:29.999Z</time></trkpt><trkpt lat="45.82742456020794" lon="9.088811527802504"><ele>243.0</ele><time>2026-04-19T09:29:30.999Z</time></trkpt><trkpt lat="45.827528308655396" lon="9.088958190406204"><ele>243.0</ele><time>2026-04-19T09:29:31.999Z</time></trkpt><trkpt lat="45.8276247169443" lon="9.08909442065652"><ele>243.0</ele><time>2026-04-19T09:29:32.999Z</time></trkpt><trkpt lat="45.82772180696559" lon="9.08924188352552"><ele>243.0</ele><time>2026-04-19T09:29:33.999Z</time></trkpt><trkpt lat="45.82780780671081" lon="9.089393069124638"><ele>244.66666666666669</ele><time>2026-04-19T09:29:34.999Z</time></trkpt><trkpt lat="45.827907943104336" lon="9.0895504662729"><ele>246.33333333333334</ele><time>2026-04-19T09:29:35.999Z</time></trkpt><trkpt lat="45.82794279844637" lon="9.089755463532292"><ele>248.0</ele><time>2026-04-19T09:29:36.999Z</time></trkpt><trkpt lat="45.82800494365662" lon="9.08996575843806"><ele>248.0</ele><time>2026-04-19T09:29:37.999Z</time></trkpt><trkpt lat="45.82804847382211" lon="9.090177665288182"><ele>248.0</ele><time>2026-04-19T09:29:38.999Z</time></trkpt><trkpt lat="45.82811874456187" lon="9.090400983422798"><ele>248.0</ele><time>2026-04-19T09:29:39.999Z</time></trkpt><trkpt lat="45.828192377308326" lon="9.090616260124316"><ele>258.33333333333337</ele><time>2026-04-19T09:29:40.999Z</time></trkpt><trkpt lat="45.82827137930847" lon="9.090824766490279"><ele>268.6666666666667</ele><time>2026-04-19T09:29:41.999Z</time></trkpt><trkpt lat="45.82834834368024" lon="9.091039271074258"><ele>279.0</ele><time>2026-04-19T09:29:43.02Z</time></trkpt><trkpt lat="45.82842267437407" lon="9.091249200551268"><ele>275.6666666666667</ele><time>2026-04-19T09:29:44.015Z</time></trkpt><trkpt lat="45.82849762923031" lon="9.091459087862775"><ele>272.33333333333337</ele><time>2026-04-19T09:29:45.012Z</time></trkpt><trkpt lat="45.8285727163115" lon="9.091672955054623"><ele>269.0</ele><time>2026-04-19T09:29:46.017Z</time></trkpt><trkpt lat="45.83004006983937" lon="9.093624015935031"><ele>251.0</ele><time>2026-04-19T09:29:49.642Z</time></trkpt><trkpt lat="45.83059262727833" lon="9.09405742859862"><ele>244.0</ele><time>2026-04-19T09:29:50.642Z</time></trkpt><trkpt lat="45.83114484647053" lon="9.094489008485592"><ele>246.0</ele><time>2026-04-19T09:29:51.641Z</time></trkpt><trkpt lat="45.83225151349804" lon="9.095349793071613"><ele>273.0</ele><time>2026-04-19T09:29:53.641Z</time></trkpt><trkpt lat="45.83392070566004" lon="9.096618198440918"><ele>244.0</ele><time>2026-04-19T09:29:56.643Z</time></trkpt><trkpt lat="45.83154447380996" lon="9.09481018782509"><ele>246.0</ele><time>2026-04-19T09:30:04.998Z</time></trkpt><trkpt lat="45.83203523498546" lon="9.09517135833573"><ele>246.0</ele><time>2026-04-19T09:30:06.998Z</time></trkpt><trkpt lat="45.83220536682126" lon="9.09532499007466"><ele>246.0</ele><time>2026-04-19T09:30:07.998Z</time></trkpt><trkpt lat="45.83234026416462" lon="9.095448983490416"><ele>246.0</ele><time>2026-04-19T09:30:08.998Z</time></trkpt><trkpt lat="45.83248589407921" lon="9.095592358919662"><ele>246.0</ele><time>2026-04-19T09:30:09.998Z</time></trkpt><trkpt lat="45.83262587108306" lon="9.095710844278788"><ele>246.0</ele><time>2026-04-19T09:30:11Z</time></trkpt><trkpt lat="45.83278130589137" lon="9.095814699322442"><ele>246.0</ele><time>2026-04-19T09:30:12Z</time></trkpt><trkpt lat="45.832959148652044" lon="9.095909865790631"><ele>248.66666666666669</ele><time>2026-04-19T09:30:13Z</time></trkpt><trkpt lat="45.83310869127752" lon="9.096022005499542"><ele>251.33333333333334</ele><time>2026-04-19T09:30:14Z</time></trkpt><trkpt lat="45.833259907478855" lon="9.09612928814817"><ele>254.0</ele><time>2026-04-19T09:30:15Z</time></trkpt><trkpt lat="45.83339974906635" lon="9.096242462188348"><ele>248.33333333333334</ele><time>2026-04-19T09:30:16Z</time></trkpt><trkpt lat="45.83355248816188" lon="9.09634843662249"><ele>242.66666666666669</ele><time>2026-04-19T09:30:17Z</time></trkpt><trkpt lat="45.83368842578442" lon="9.09647486705989"><ele>237.0</ele><time>2026-04-19T09:30:18Z</time></trkpt><trkpt lat="45.83382188712975" lon="9.096572588956656"><ele>246.0</ele><time>2026-04-19T09:30:19Z</time></trkpt><trkpt lat="45.83395728698057" lon="9.096647065665913"><ele>255.0</ele><time>2026-04-19T09:30:20.012Z</time></trkpt><trkpt lat="45.83406867635125" lon="9.096750999887858"><ele>264.0</ele><time>2026-04-19T09:30:21.011Z</time></trkpt><trkpt lat="45.83418284283786" lon="9.096849321410176"><ele>273.0</ele><time>2026-04-19T09:30:22.014Z</time></trkpt><trkpt lat="45.83428928718565" lon="9.096957500852671"><ele>267.6666666666667</ele><time>2026-04-19T09:30:23.013Z</time></trkpt><trkpt lat="45.834418700879844" lon="9.097104764765767"><ele>262.33333333333337</ele><time>2026-04-19T09:30:24Z</time></trkpt><trkpt lat="45.8345677046756" lon="9.097322832878037"><ele>257.0</ele><time>2026-04-19T09:30:25Z</time></trkpt><trkpt lat="45.83469304600092" lon="9.097474123679484"><ele>257.0</ele><time>2026-04-19T09:30:26Z</time></trkpt><trkpt lat="45.83481137872621" lon="9.097613402005825"><ele>257.0</ele><time>2026-04-19T09:30:27Z</time></trkpt><trkpt lat="45.834887321269896" lon="9.097789054857378"><ele>257.0</ele><time>2026-04-19T09:30:28Z</time></trkpt><trkpt lat="45.834938622929215" lon="9.097970784816937"><ele>257.0</ele><time>2026-04-19T09:30:29Z</time></trkpt><trkpt lat="45.83499857436655" lon="9.098150055393148"><ele>262.0</ele><time>2026-04-19T09:30:30Z</time></trkpt><trkpt lat="45.835056956395775" lon="9.098321363558002"><ele>267.0</ele><time>2026-04-19T09:30:31Z</time></trkpt><trkpt lat="45.835117683592536" lon="9.098491663856773"><ele>272.0</ele><time>2026-04-19T09:30:32Z</time></trkpt><trkpt lat="45.83517846301039" lon="9.09865981200023"><ele>277.0</ele><time>2026-04-19T09:30:33Z</time></trkpt><trkpt lat="45.83526717420329" lon="9.098812973176772"><ele>269.25</ele><time>2026-04-19T09:30:34Z</time></trkpt><trkpt lat="45.835358452554935" lon="9.098960678704385"><ele>261.5</ele><time>2026-04-19T09:30:35Z</time></trkpt><trkpt lat="45.83543340155695" lon="9.099108475226606"><ele>253.75</ele><time>2026-04-19T09:30:36Z</time></trkpt><trkpt lat="45.83551442400258" lon="9.099245043454902"><ele>246.0</ele><time>2026-04-19T09:30:37Z</time></trkpt><trkpt lat="45.83560086936287" lon="9.099388187468946"><ele>246.0</ele><time>2026-04-19T09:30:38Z</time></trkpt><trkpt lat="45.83565026411704" lon="9.099570005538736"><ele>246.0</ele><time>2026-04-19T09:30:39Z</time></trkpt><trkpt lat="45.83569015510311" lon="9.099762045738053"><ele>246.0</ele><time>2026-04-19T09:30:40Z</time></trkpt><trkpt lat="45.83571626266421" lon="9.099950122624554"><ele>246.0</ele><time>2026-04-19T09:30:41Z</time></trkpt><trkpt lat="45.8357371307078" lon="9.100134530662599"><ele>249.5</ele><time>2026-04-19T09:30:42Z</time></trkpt><trkpt lat="45.83578386198584" lon="9.100298366692265"><ele>253.0</ele><time>2026-04-19T09:30:43Z</time></trkpt><trkpt lat="45.83582753821354" lon="9.100454189754071"><ele>256.5</ele><time>2026-04-19T09:30:44Z</time></trkpt><trkpt lat="45.835855156146636" lon="9.100613495843396"><ele>260.0</ele><time>2026-04-19T09:30:45Z</time></trkpt><trkpt lat="45.83587485052245" lon="9.100777006663002"><ele>262.0</ele><time>2026-04-19T09:30:46Z</time></trkpt><trkpt lat="45.83589121720593" lon="9.100935525305959"><ele>264.0</ele><time>2026-04-19T09:30:47Z</time></trkpt><trkpt lat="45.83592974821824" lon="9.101072890774299"><ele>266.0</ele><time>2026-04-19T09:30:48Z</time></trkpt><trkpt lat="45.83599166212643" lon="9.101189073409218"><ele>268.0</ele><time>2026-04-19T09:30:49Z</time></trkpt><trkpt lat="45.8360741623832" lon="9.10128759482867"><ele>270.0</ele><time>2026-04-19T09:30:50Z</time></trkpt><trkpt lat="45.83616804585695" lon="9.101376892450304"><ele>266.0</ele><time>2026-04-19T09:30:51Z</time></trkpt><trkpt lat="45.83627789571685" lon="9.101437935650527"><ele>262.0</ele><time>2026-04-19T09:30:52Z</time></trkpt><trkpt lat="45.83638877034603" lon="9.101470552608639"><ele>258.0</ele><time>2026-04-19T09:30:53Z</time></trkpt><trkpt lat="45.836507380487454" lon="9.101520193396397"><ele>254.0</ele><time>2026-04-19T09:30:54Z</time></trkpt><trkpt lat="45.83661823009919" lon="9.10160631348892"><ele>254.0</ele><time>2026-04-19T09:30:55Z</time></trkpt><trkpt lat="45.83670434951297" lon="9.10170398886508"><ele>253.99999999999997</ele><time>2026-04-19T09:30:55.999Z</time></trkpt><trkpt lat="45.83678890048911" lon="9.101798334570796"><ele>253.99999999999997</ele><time>2026-04-19T09:30:56.999Z</time></trkpt><trkpt lat="45.83686755714887" lon="9.101878153753908"><ele>254.0</ele><time>2026-04-19T09:30:57.999Z</time></trkpt><trkpt lat="45.83694332857377" lon="9.101963202160846"><ele>254.0</ele><time>2026-04-19T09:30:58.999Z</time></trkpt><trkpt lat="45.83702557878668" lon="9.102037453265037"><ele>251.79999999999998</ele><time>2026-04-19T09:30:59.999Z</time></trkpt><trkpt lat="45.837114377695286" lon="9.102120693867281"><ele>249.59999999999997</ele><time>2026-04-19T09:31:00.999Z</time></trkpt><trkpt lat="45.83721323253567" lon="9.102239055287292"><ele>247.4</ele><time>2026-04-19T09:31:01.999Z</time></trkpt><trkpt lat="45.837323981376876" lon="9.102237263313741"><ele>245.2</ele><time>2026-04-19T09:31:02.999Z</time></trkpt><trkpt lat="45.83741695513632" lon="9.10226435564558"><ele>243.0</ele><time>2026-04-19T09:31:03.999Z</time></trkpt><trkpt lat="45.83752337431247" lon="9.102442660768686"><ele>243.0</ele><time>2026-04-19T09:31:04.999Z</time></trkpt><trkpt lat="45.837631675504" lon="9.102000249961785"><ele>243.0</ele><time>2026-04-19T09:31:05.999Z</time></trkpt><trkpt lat="45.83772828648354" lon="9.101969929947183"><ele>243.0</ele><time>2026-04-19T09:31:06.999Z</time></trkpt><trkpt lat="45.837813672590976" lon="9.10195798013612"><ele>244.16666666666666</ele><time>2026-04-19T09:31:07.999Z</time></trkpt><trkpt lat="45.837906860955016" lon="9.101995144195344"><ele>245.33333333333331</ele><time>2026-04-19T09:31:08.999Z</time></trkpt><trkpt lat="45.83796738368955" lon="9.10205850044419"><ele>246.5</ele><time>2026-04-19T09:31:09.999Z</time></trkpt><trkpt lat="45.83803188578082" lon="9.102130692096308"><ele>247.66666666666666</ele><time>2026-04-19T09:31:10.999Z</time></trkpt><trkpt lat="45.838076910094486" lon="9.102240135930316"><ele>248.83333333333331</ele><time>2026-04-19T09:31:11.999Z</time></trkpt><trkpt lat="45.83808339650465" lon="9.102358378249608"><ele>250.0</ele><time>2026-04-19T09:31:12.999Z</time></trkpt><trkpt lat="45.838101171470875" lon="9.102461257809832"><ele>249.99999999999997</ele><time>2026-04-19T09:31:13.999Z</time></trkpt><trkpt lat="45.83811967923057" lon="9.102603190567606"><ele>250.0</ele><time>2026-04-19T09:31:15.999Z</time></trkpt><trkpt lat="45.838132522583834" lon="9.102700297755945"><ele>250.0</ele><time>2026-04-19T09:31:20.999Z</time></trkpt><trkpt lat="45.838178876925475" lon="9.102763070593475"><ele>250.0</ele><time>2026-04-19T09:31:23.999Z</time></trkpt><trkpt lat="45.83824723017163" lon="9.102854553663908"><ele>249.99999999999997</ele><time>2026-04-19T09:31:26.999Z</time></trkpt><trkpt lat="45.83830788995813" lon="9.10290122984029"><ele>250.0</ele><time>2026-04-19T09:31:30.999Z</time></trkpt><trkpt lat="45.83837636808698" lon="9.102924887321796"><ele>249.99999999999997</ele><time>2026-04-19T09:31:34.999Z</time></trkpt><trkpt lat="45.838445719070684" lon="9.10295091837114"><ele>250.0</ele><time>2026-04-19T09:31:36.999Z</time></trkpt><trkpt lat="45.83855119063723" lon="9.10297848131228"><ele>250.0</ele><time>2026-04-19T09:31:38.999Z</time></trkpt><trkpt lat="45.83860958851197" lon="9.103031834613622"><ele>250.0</ele><time>2026-04-19T09:31:39.999Z</time></trkpt><trkpt lat="45.838651681724976" lon="9.103100492440285"><ele>249.99999999999997</ele><time>2026-04-19T09:31:40.999Z</time></trkpt><trkpt lat="45.838721659559134" lon="9.103156750920643"><ele>250.0</ele><time>2026-04-19T09:31:41.999Z</time></trkpt><trkpt lat="45.83878789890527" lon="9.103242911595558"><ele>251.16666666666666</ele><time>2026-04-19T09:31:42.999Z</time></trkpt><trkpt lat="45.83885394692715" lon="9.103313583824038"><ele>252.33333333333331</ele><time>2026-04-19T09:31:43.999Z</time></trkpt><trkpt lat="45.83893706475282" lon="9.103340911385516"><ele>253.5</ele><time>2026-04-19T09:31:44.999Z</time></trkpt><trkpt lat="45.83900487808821" lon="9.103356626103393"><ele>254.66666666666669</ele><time>2026-04-19T09:31:45.999Z</time></trkpt><trkpt lat="45.839079963286245" lon="9.103350098531722"><ele>255.83333333333334</ele><time>2026-04-19T09:31:46.999Z</time></trkpt><trkpt lat="45.83915733638579" lon="9.103352439828862"><ele>257.0</ele><time>2026-04-19T09:31:47.999Z</time></trkpt><trkpt lat="45.839246613964704" lon="9.103372059792587"><ele>253.00000000000003</ele><time>2026-04-19T09:31:48.999Z</time></trkpt><trkpt lat="45.83933171943883" lon="9.103408884322729"><ele>249.0</ele><time>2026-04-19T09:31:49.999Z</time></trkpt><trkpt lat="45.83940750638139" lon="9.103465994298071"><ele>245.0</ele><time>2026-04-19T09:31:50.999Z</time></trkpt><trkpt lat="45.83947108920415" lon="9.103558824287026"><ele>241.0</ele><time>2026-04-19T09:31:51.999Z</time></trkpt><trkpt lat="45.83952769402588" lon="9.103636052298784"><ele>237.00000000000003</ele><time>2026-04-19T09:31:52.999Z</time></trkpt><trkpt lat="45.83958895142545" lon="9.103736154438067"><ele>233.0</ele><time>2026-04-19T09:31:53.999Z</time></trkpt><trkpt lat="45.83965812490092" lon="9.103833948049546"><ele>233.0</ele><time>2026-04-19T09:31:54.999Z</time></trkpt><trkpt lat="45.83974081848566" lon="9.103910928267776"><ele>233.0</ele><time>2026-04-19T09:31:55.999Z</time></trkpt><trkpt lat="45.839823732584954" lon="9.10395626490983"><ele>233.0</ele><time>2026-04-19T09:31:56.999Z</time></trkpt><trkpt lat="45.839910279663286" lon="9.103984583570204"><ele>233.0</ele><time>2026-04-19T09:31:57.999Z</time></trkpt><trkpt lat="45.840003869961066" lon="9.103992783477727"><ele>233.0</ele><time>2026-04-19T09:31:58.999Z</time></trkpt><trkpt lat="45.84008792689337" lon="9.103978083002296"><ele>230.33333333333334</ele><time>2026-04-19T09:31:59.999Z</time></trkpt><trkpt lat="45.84016008347396" lon="9.103955843786284"><ele>227.66666666666669</ele><time>2026-04-19T09:32:00.999Z</time></trkpt><trkpt lat="45.84022996706331" lon="9.103929120088338"><ele>225.0</ele><time>2026-04-19T09:32:02.999Z</time></trkpt><trkpt lat="45.840325781701544" lon="9.103915096416937"><ele>222.33333333333331</ele><time>2026-04-19T09:33:57.999Z</time></trkpt><trkpt lat="45.84041284102111" lon="9.103916965220128"><ele>219.66666666666666</ele><time>2026-04-19T09:33:59.999Z</time></trkpt><trkpt lat="45.84052745001396" lon="9.103956691200047"><ele>217.0</ele><time>2026-04-19T09:34:01.999Z</time></trkpt><trkpt lat="45.840590561542655" lon="9.10401631943276"><ele>221.33333333333331</ele><time>2026-04-19T09:34:02.999Z</time></trkpt><trkpt lat="45.84065311827771" lon="9.104081052362451"><ele>225.66666666666666</ele><time>2026-04-19T09:34:03.999Z</time></trkpt><trkpt lat="45.84075558766848" lon="9.10420030781158"><ele>230.0</ele><time>2026-04-19T09:34:05.999Z</time></trkpt><trkpt lat="45.84081455011945" lon="9.104257832973005"><ele>234.33333333333331</ele><time>2026-04-19T09:34:06.999Z</time></trkpt><trkpt lat="45.84088397285183" lon="9.104312333785519"><ele>238.66666666666666</ele><time>2026-04-19T09:34:07.999Z</time></trkpt><trkpt lat="45.84097120333955" lon="9.104337665786215"><ele>243.0</ele><time>2026-04-19T09:34:08.999Z</time></trkpt><trkpt lat="45.84104930698207" lon="9.104314217082976"><ele>243.0</ele><time>2026-04-19T09:34:09.999Z</time></trkpt><trkpt lat="45.84120258506103" lon="9.104313792354581"><ele>243.0</ele><time>2026-04-19T09:34:11.999Z</time></trkpt><trkpt lat="45.84127755698077" lon="9.104298539835943"><ele>243.0</ele><time>2026-04-19T09:34:12.999Z</time></trkpt><trkpt lat="45.84137187372841" lon="9.104275717422034"><ele>243.0</ele><time>2026-04-19T09:34:13.999Z</time></trkpt><trkpt lat="45.841437765854444" lon="9.104260107762586"><ele>243.0</ele><time>2026-04-19T09:34:14.999Z</time></trkpt><trkpt lat="45.84150886789421" lon="9.10423714936939"><ele>243.0</ele><time>2026-04-19T09:34:15.999Z</time></trkpt><trkpt lat="45.841585352392116" lon="9.10428159581772"><ele>243.0</ele><time>2026-04-19T09:34:16.999Z</time></trkpt><trkpt lat="45.84166059103537" lon="9.10433564195156"><ele>243.0</ele><time>2026-04-19T09:34:17.999Z</time></trkpt><trkpt lat="45.8417396067786" lon="9.104396297830919"><ele>243.0</ele><time>2026-04-19T09:34:18.999Z</time></trkpt><trkpt lat="45.841824048253976" lon="9.104421197764998"><ele>243.0</ele><time>2026-04-19T09:34:19.999Z</time></trkpt><trkpt lat="45.84191799868109" lon="9.104473815978256"><ele>243.0</ele><time>2026-04-19T09:34:20.999Z</time></trkpt><trkpt lat="45.84203366212767" lon="9.104505715572113"><ele>241.5</ele><time>2026-04-19T09:34:21.999Z</time></trkpt><trkpt lat="45.842143843471064" lon="9.104530936132136"><ele>240.0</ele><time>2026-04-19T09:34:23Z</time></trkpt><trkpt lat="45.842262142203104" lon="9.10453997559571"><ele>238.5</ele><time>2026-04-19T09:34:24Z</time></trkpt><trkpt lat="45.84238091431012" lon="9.104555764767953"><ele>237.0</ele><time>2026-04-19T09:34:25Z</time></trkpt><trkpt lat="45.842494461854216" lon="9.104557937565202"><ele>237.0</ele><time>2026-04-19T09:34:26Z</time></trkpt><trkpt lat="45.84261666029347" lon="9.104580958240414"><ele>237.0</ele><time>2026-04-19T09:34:27Z</time></trkpt><trkpt lat="45.842744516136605" lon="9.104592333440818"><ele>237.0</ele><time>2026-04-19T09:34:28Z</time></trkpt><trkpt lat="45.84285707070562" lon="9.104673202930377"><ele>237.0</ele><time>2026-04-19T09:34:29Z</time></trkpt><trkpt lat="45.84295589587072" lon="9.104775524677608"><ele>238.0</ele><time>2026-04-19T09:34:30Z</time></trkpt><trkpt lat="45.84305740232401" lon="9.104876494152396"><ele>239.0</ele><time>2026-04-19T09:34:31Z</time></trkpt><trkpt lat="45.843155280749286" lon="9.104957460513436"><ele>240.0</ele><time>2026-04-19T09:34:32Z</time></trkpt><trkpt lat="45.84325488754153" lon="9.105030733285638"><ele>241.0</ele><time>2026-04-19T09:34:33Z</time></trkpt><trkpt lat="45.84336825895222" lon="9.105104164536264"><ele>235.75</ele><time>2026-04-19T09:34:34Z</time></trkpt><trkpt lat="45.843494166351725" lon="9.105194857577242"><ele>230.5</ele><time>2026-04-19T09:34:35Z</time></trkpt><trkpt lat="45.84360283216117" lon="9.105305244092275"><ele>225.25</ele><time>2026-04-19T09:34:36Z</time></trkpt><trkpt lat="45.843725293433806" lon="9.105372890566473"><ele>220.0</ele><time>2026-04-19T09:34:37Z</time></trkpt><trkpt lat="45.84382752450872" lon="9.105478016144946"><ele>220.0</ele><time>2026-04-19T09:34:38Z</time></trkpt><trkpt lat="45.843939367099324" lon="9.105574460950518"><ele>220.0</ele><time>2026-04-19T09:34:39Z</time></trkpt><trkpt lat="45.84405009888477" lon="9.105678790042207"><ele>220.0</ele><time>2026-04-19T09:34:40Z</time></trkpt><trkpt lat="45.84415863521556" lon="9.105782213248503"><ele>220.0</ele><time>2026-04-19T09:34:41Z</time></trkpt><trkpt lat="45.844268100419534" lon="9.10588528702419"><ele>222.25</ele><time>2026-04-19T09:34:42Z</time></trkpt><trkpt lat="45.8443682722696" lon="9.105980044582381"><ele>224.5</ele><time>2026-04-19T09:34:43Z</time></trkpt><trkpt lat="45.844470150566096" lon="9.106055139517172"><ele>226.75</ele><time>2026-04-19T09:34:44Z</time></trkpt><trkpt lat="45.84457190628684" lon="9.106120815512115"><ele>229.0</ele><time>2026-04-19T09:34:45Z</time></trkpt><trkpt lat="45.8446787748844" lon="9.106167887764155"><ele>229.0</ele><time>2026-04-19T09:34:46Z</time></trkpt><trkpt lat="45.84478485459962" lon="9.106188404391675"><ele>228.99999999999997</ele><time>2026-04-19T09:34:47Z</time></trkpt><trkpt lat="45.844888894250566" lon="9.106188973655449"><ele>228.99999999999997</ele><time>2026-04-19T09:34:48Z</time></trkpt><trkpt lat="45.844994707929985" lon="9.106179137680913"><ele>229.0</ele><time>2026-04-19T09:34:49Z</time></trkpt><trkpt lat="45.84510427035552" lon="9.10619543976978"><ele>229.0</ele><time>2026-04-19T09:34:50Z</time></trkpt><trkpt lat="45.845207110322235" lon="9.106251251365787"><ele>227.39999999999998</ele><time>2026-04-19T09:34:51Z</time></trkpt><trkpt lat="45.84530977150978" lon="9.10632368553444"><ele>225.79999999999998</ele><time>2026-04-19T09:34:52Z</time></trkpt><trkpt lat="45.84541807266819" lon="9.106406659035475"><ele>224.20000000000002</ele><time>2026-04-19T09:34:53Z</time></trkpt><trkpt lat="45.845520812308564" lon="9.106465848116843"><ele>222.60000000000002</ele><time>2026-04-19T09:34:54Z</time></trkpt><trkpt lat="45.84561705517687" lon="9.106503093556167"><ele>221.0</ele><time>2026-04-19T09:34:55Z</time></trkpt><trkpt lat="45.845724203679836" lon="9.106524064644672"><ele>221.0</ele><time>2026-04-19T09:34:56Z</time></trkpt><trkpt lat="45.84583173387028" lon="9.106508894298297"><ele>221.00000000000003</ele><time>2026-04-19T09:34:57Z</time></trkpt><trkpt lat="45.84594117468882" lon="9.106479804923064"><ele>221.00000000000003</ele><time>2026-04-19T09:34:58Z</time></trkpt><trkpt lat="45.846044240529245" lon="9.106449394280387"><ele>221.0</ele><time>2026-04-19T09:34:59Z</time></trkpt><trkpt lat="45.84615097573739" lon="9.106455505127041"><ele>221.0</ele><time>2026-04-19T09:35:00Z</time></trkpt><trkpt lat="45.846249811257934" lon="9.106531224773194"><ele>227.25</ele><time>2026-04-19T09:35:01Z</time></trkpt><trkpt lat="45.84634708976011" lon="9.106609003481664"><ele>233.5</ele><time>2026-04-19T09:35:02Z</time></trkpt><trkpt lat="45.84644766455987" lon="9.106709841463735"><ele>239.75</ele><time>2026-04-19T09:35:03Z</time></trkpt><trkpt lat="45.84655206152995" lon="9.106794381963574"><ele>246.0</ele><time>2026-04-19T09:35:04Z</time></trkpt><trkpt lat="45.846677587751934" lon="9.106855225307646"><ele>242.75</ele><time>2026-04-19T09:35:05Z</time></trkpt><trkpt lat="45.84681445766441" lon="9.10686195848136"><ele>239.5</ele><time>2026-04-19T09:35:06Z</time></trkpt><trkpt lat="45.84694131128068" lon="9.106855361394025"><ele>236.25</ele><time>2026-04-19T09:35:07Z</time></trkpt><trkpt lat="45.847052394465464" lon="9.106888148697077"><ele>233.0</ele><time>2026-04-19T09:35:08Z</time></trkpt><trkpt lat="45.84715258957796" lon="9.106941717839657"><ele>233.0</ele><time>2026-04-19T09:35:09Z</time></trkpt><trkpt lat="45.847237644863974" lon="9.10702201589428"><ele>233.0</ele><time>2026-04-19T09:35:10Z</time></trkpt><trkpt lat="45.84734149816084" lon="9.107111315023458"><ele>233.0</ele><time>2026-04-19T09:35:11Z</time></trkpt><trkpt lat="45.847447329569576" lon="9.107178376693238"><ele>233.0</ele><time>2026-04-19T09:35:12Z</time></trkpt><trkpt lat="45.847574906644404" lon="9.107188088682108"><ele>234.8</ele><time>2026-04-19T09:35:13Z</time></trkpt><trkpt lat="45.847682263489546" lon="9.107216577709224"><ele>236.60000000000002</ele><time>2026-04-19T09:35:14Z</time></trkpt><trkpt lat="45.84777948121611" lon="9.107240712175695"><ele>238.39999999999998</ele><time>2026-04-19T09:35:14.999Z</time></trkpt><trkpt lat="45.84786457697665" lon="9.107294822094953"><ele>240.2</ele><time>2026-04-19T09:35:15.999Z</time></trkpt><trkpt lat="45.847936420546546" lon="9.10740879853125"><ele>242.0</ele><time>2026-04-19T09:35:16.999Z</time></trkpt><trkpt lat="45.84801711902697" lon="9.107514786678644"><ele>242.0</ele><time>2026-04-19T09:35:17.999Z</time></trkpt><trkpt lat="45.848113536372324" lon="9.10761573821454"><ele>242.0</ele><time>2026-04-19T09:35:18.999Z</time></trkpt><trkpt lat="45.84818098950021" lon="9.107746874885319"><ele>242.0</ele><time>2026-04-19T09:35:19.999Z</time></trkpt><trkpt lat="45.84825589641735" lon="9.107869360668225"><ele>242.0</ele><time>2026-04-19T09:35:20.999Z</time></trkpt><trkpt lat="45.84831428414521" lon="9.108003960011628"><ele>242.0</ele><time>2026-04-19T09:35:21.999Z</time></trkpt><trkpt lat="45.84839990706187" lon="9.108134016798072"><ele>242.0</ele><time>2026-04-19T09:35:22.999Z</time></trkpt><trkpt lat="45.848448766808616" lon="9.108299630112988"><ele>242.0</ele><time>2026-04-19T09:35:23.999Z</time></trkpt><trkpt lat="45.848480114994025" lon="9.10846876374551"><ele>242.0</ele><time>2026-04-19T09:35:24.999Z</time></trkpt><trkpt lat="45.848545780718695" lon="9.108629183822018"><ele>240.0</ele><time>2026-04-19T09:35:25.999Z</time></trkpt><trkpt lat="45.848598930877344" lon="9.108780843763428"><ele>238.0</ele><time>2026-04-19T09:35:26.999Z</time></trkpt><trkpt lat="45.84864897026179" lon="9.108938903709012"><ele>236.0</ele><time>2026-04-19T09:35:27.999Z</time></trkpt><trkpt lat="45.84869548510937" lon="9.109094370622541"><ele>234.0</ele><time>2026-04-19T09:35:28.999Z</time></trkpt><trkpt lat="45.84874341476417" lon="9.10927545182513"><ele>234.0</ele><time>2026-04-19T09:35:29.999Z</time></trkpt><trkpt lat="45.84883315780284" lon="9.109412645756134"><ele>234.0</ele><time>2026-04-19T09:35:30.999Z</time></trkpt><trkpt lat="45.848911285398536" lon="9.109549599245227"><ele>234.0</ele><time>2026-04-19T09:35:31.999Z</time></trkpt><trkpt lat="45.84898155398414" lon="9.109688104209049"><ele>234.0</ele><time>2026-04-19T09:35:32.999Z</time></trkpt><trkpt lat="45.849065082013624" lon="9.10981771816643"><ele>230.25</ele><time>2026-04-19T09:35:33.999Z</time></trkpt><trkpt lat="45.84914049317071" lon="9.109946125755291"><ele>226.5</ele><time>2026-04-19T09:35:34.999Z</time></trkpt><trkpt lat="45.84922839459575" lon="9.110064772372535"><ele>222.75</ele><time>2026-04-19T09:35:35.999Z</time></trkpt><trkpt lat="45.849329578173524" lon="9.110173424196505"><ele>219.0</ele><time>2026-04-19T09:35:36.999Z</time></trkpt><trkpt lat="45.84943650820791" lon="9.11027194593411"><ele>219.0</ele><time>2026-04-19T09:35:37.999Z</time></trkpt><trkpt lat="45.84955168506264" lon="9.110366355714868"><ele>219.0</ele><time>2026-04-19T09:35:38.999Z</time></trkpt><trkpt lat="45.8496611885678" lon="9.110452146095422"><ele>219.0</ele><time>2026-04-19T09:35:39.999Z</time></trkpt><trkpt lat="45.84976411997089" lon="9.110548536779655"><ele>219.0</ele><time>2026-04-19T09:35:40.999Z</time></trkpt><trkpt lat="45.849841272450554" lon="9.110653908989427"><ele>225.39999999999998</ele><time>2026-04-19T09:35:41.999Z</time></trkpt><trkpt lat="45.84989892171564" lon="9.110765116207293"><ele>231.79999999999998</ele><time>2026-04-19T09:35:42.999Z</time></trkpt><trkpt lat="45.84996173923952" lon="9.110878231256791"><ele>238.20000000000002</ele><time>2026-04-19T09:35:43.999Z</time></trkpt><trkpt lat="45.850008776502754" lon="9.111019092277923"><ele>244.60000000000002</ele><time>2026-04-19T09:35:44.999Z</time></trkpt><trkpt lat="45.850044553473026" lon="9.111183289827796"><ele>251.0</ele><time>2026-04-19T09:35:45.999Z</time></trkpt><trkpt lat="45.850067825869864" lon="9.11135113188834"><ele>251.0</ele><time>2026-04-19T09:35:46.999Z</time></trkpt><trkpt lat="45.85009650118645" lon="9.111521175557966"><ele>251.0</ele><time>2026-04-19T09:35:47.999Z</time></trkpt><trkpt lat="45.85013186425474" lon="9.111693531574174"><ele>251.0</ele><time>2026-04-19T09:35:48.999Z</time></trkpt><trkpt lat="45.850159902126315" lon="9.111873558263337"><ele>251.0</ele><time>2026-04-19T09:35:49.999Z</time></trkpt><trkpt lat="45.85019095959713" lon="9.112061631202415"><ele>247.75</ele><time>2026-04-19T09:35:50.999Z</time></trkpt><trkpt lat="45.85022255151755" lon="9.112254047515709"><ele>244.5</ele><time>2026-04-19T09:35:51.999Z</time></trkpt><trkpt lat="45.850252018063934" lon="9.112439025093192"><ele>241.25</ele><time>2026-04-19T09:35:52.999Z</time></trkpt><trkpt lat="45.85027987409236" lon="9.112627968849731"><ele>238.0</ele><time>2026-04-19T09:35:54.012Z</time></trkpt><trkpt lat="45.8503101061809" lon="9.112814423476634"><ele>249.0</ele><time>2026-04-19T09:35:55.016Z</time></trkpt><trkpt lat="45.85033862324125" lon="9.112999252657755"><ele>260.0</ele><time>2026-04-19T09:35:56.014Z</time></trkpt><trkpt lat="45.850396720475786" lon="9.113165896774415"><ele>271.0</ele><time>2026-04-19T09:35:57.016Z</time></trkpt><trkpt lat="45.85045905436919" lon="9.113323501227029"><ele>282.0</ele><time>2026-04-19T09:35:58.015Z</time></trkpt><trkpt lat="45.850803008569805" lon="9.113758853226594"><ele>284.25</ele><time>2026-04-19T09:36:01.634Z</time></trkpt><trkpt lat="45.85091087692274" lon="9.113868659661128"><ele>286.5</ele><time>2026-04-19T09:36:02.637Z</time></trkpt><trkpt lat="45.851019748015155" lon="9.113981953018875"><ele>288.75</ele><time>2026-04-19T09:36:03.634Z</time></trkpt><trkpt lat="45.851142444293046" lon="9.11406266607012"><ele>291.0</ele><time>2026-04-19T09:36:04.636Z</time></trkpt><trkpt lat="45.85125336827128" lon="9.114172138296947"><ele>298.5</ele><time>2026-04-19T09:36:05.636Z</time></trkpt><trkpt lat="45.85137404629867" lon="9.114254429126909"><ele>306.0</ele><time>2026-04-19T09:36:06.637Z</time></trkpt><trkpt lat="45.851495949903054" lon="9.114332643124273"><ele>313.5</ele><time>2026-04-19T09:36:07.636Z</time></trkpt><trkpt lat="45.85161769225664" lon="9.114409819385479"><ele>321.0</ele><time>2026-04-19T09:36:08.635Z</time></trkpt><trkpt lat="45.8517397162001" lon="9.114487174180661"><ele>318.0</ele><time>2026-04-19T09:36:09.636Z</time></trkpt><trkpt lat="45.85186021170232" lon="9.11456736203137"><ele>315.0</ele><time>2026-04-19T09:36:10.635Z</time></trkpt><trkpt lat="45.85198141228836" lon="9.114647512206673"><ele>312.0</ele><time>2026-04-19T09:36:11.635Z</time></trkpt><trkpt lat="45.852110623859474" lon="9.114702459553326"><ele>309.0</ele><time>2026-04-19T09:36:12.637Z</time></trkpt><trkpt lat="45.85222804162622" lon="9.114796476825987"><ele>309.0</ele><time>2026-04-19T09:36:13.636Z</time></trkpt><trkpt lat="45.85235551890481" lon="9.114858825977109"><ele>309.0</ele><time>2026-04-19T09:36:14.637Z</time></trkpt><trkpt lat="45.85248598508334" lon="9.114903513668192"><ele>309.0</ele><time>2026-04-19T09:36:15.634Z</time></trkpt><trkpt lat="45.85275543758247" lon="9.114910167017825"><ele>306.0</ele><time>2026-04-19T09:36:17.636Z</time></trkpt><trkpt lat="45.853201425450116" lon="9.114856260313879"><ele>303.0</ele><time>2026-04-19T09:36:18.634Z</time></trkpt><trkpt lat="45.853645968550616" lon="9.114747723665442"><ele>284.5</ele><time>2026-04-19T09:36:19.636Z</time></trkpt><trkpt lat="45.85408576734568" lon="9.114616630187298"><ele>266.0</ele><time>2026-04-19T09:36:20.634Z</time></trkpt><trkpt lat="45.85461746439883" lon="9.114430043854856"><ele>255.0</ele><time>2026-04-19T09:36:25.998Z</time></trkpt><trkpt lat="45.854729168013854" lon="9.114426119499951"><ele>244.0</ele><time>2026-04-19T09:36:26.998Z</time></trkpt><trkpt lat="45.8549520635119" lon="9.11453670399734"><ele>233.0</ele><time>2026-04-19T09:36:27.998Z</time></trkpt><trkpt lat="45.855033018737906" lon="9.114600423458775"><ele>222.0</ele><time>2026-04-19T09:36:28.998Z</time></trkpt><trkpt lat="45.855131021340455" lon="9.11466785613473"><ele>220.66666666666666</ele><time>2026-04-19T09:36:29.998Z</time></trkpt><trkpt lat="45.85522933602742" lon="9.114736265903506"><ele>219.33333333333331</ele><time>2026-04-19T09:36:30.998Z</time></trkpt><trkpt lat="45.85528727103543" lon="9.114773607263647"><ele>218.0</ele><time>2026-04-19T09:36:32Z</time></trkpt><trkpt lat="45.85537996517852" lon="9.114830355268895"><ele>216.66666666666666</ele><time>2026-04-19T09:36:33Z</time></trkpt><trkpt lat="45.85545646225413" lon="9.114886516310603"><ele>215.33333333333331</ele><time>2026-04-19T09:36:34Z</time></trkpt><trkpt lat="45.8555192330588" lon="9.114927715041812"><ele>214.0</ele><time>2026-04-19T09:36:35Z</time></trkpt><trkpt lat="45.8555887989956" lon="9.114978335224833"><ele>215.71428571428572</ele><time>2026-04-19T09:36:36Z</time></trkpt><trkpt lat="45.85565121664901" lon="9.115015509223507"><ele>217.42857142857144</ele><time>2026-04-19T09:36:37Z</time></trkpt><trkpt lat="45.855723303196676" lon="9.115036518447827"><ele>219.14285714285717</ele><time>2026-04-19T09:36:38Z</time></trkpt><trkpt lat="45.85579188953004" lon="9.115033092571322"><ele>220.85714285714286</ele><time>2026-04-19T09:36:39Z</time></trkpt><trkpt lat="45.85585740275876" lon="9.115017198993879"><ele>222.57142857142856</ele><time>2026-04-19T09:36:40Z</time></trkpt><trkpt lat="45.85592252126356" lon="9.115007318175744"><ele>224.2857142857143</ele><time>2026-04-19T09:36:41Z</time></trkpt><trkpt lat="45.855987744865104" lon="9.11503207178808"><ele>226.0</ele><time>2026-04-19T09:36:42Z</time></trkpt><trkpt lat="45.8560643539868" lon="9.11502338033177"><ele>225.99999999999997</ele><time>2026-04-19T09:36:43Z</time></trkpt><trkpt lat="45.85614199203082" lon="9.11506195654923"><ele>226.0</ele><time>2026-04-19T09:36:44Z</time></trkpt><trkpt lat="45.8562279141805" lon="9.115077806022189"><ele>226.0</ele><time>2026-04-19T09:36:45Z</time></trkpt><trkpt lat="45.85631228076311" lon="9.115144539158571"><ele>226.0</ele><time>2026-04-19T09:36:46Z</time></trkpt><trkpt lat="45.85639187753072" lon="9.11521637719561"><ele>225.99999999999997</ele><time>2026-04-19T09:36:47Z</time></trkpt><trkpt lat="45.85646616131394" lon="9.115283667409724"><ele>226.0</ele><time>2026-04-19T09:36:48Z</time></trkpt><trkpt lat="45.856534546186005" lon="9.115346528727336"><ele>225.99999999999997</ele><time>2026-04-19T09:36:49Z</time></trkpt><trkpt lat="45.85661395099651" lon="9.11540762967209"><ele>226.0</ele><time>2026-04-19T09:36:50Z</time></trkpt><trkpt lat="45.8566888393437" lon="9.115471680770115"><ele>226.0</ele><time>2026-04-19T09:36:51Z</time></trkpt><trkpt lat="45.85676149421793" lon="9.115551192679156"><ele>226.0</ele><time>2026-04-19T09:36:52Z</time></trkpt><trkpt lat="45.85683988853627" lon="9.11560873080564"><ele>225.99999999999997</ele><time>2026-04-19T09:36:53Z</time></trkpt><trkpt lat="45.85691399756435" lon="9.115684711028264"><ele>226.0</ele><time>2026-04-19T09:36:54Z</time></trkpt><trkpt lat="45.85698533424316" lon="9.115710477960059"><ele>225.99999999999997</ele><time>2026-04-19T09:36:55Z</time></trkpt><trkpt lat="45.85705899563786" lon="9.115736259825665"><ele>226.0</ele><time>2026-04-19T09:36:56Z</time></trkpt><trkpt lat="45.85713044531456" lon="9.115764847909107"><ele>226.0</ele><time>2026-04-19T09:36:57Z</time></trkpt><trkpt lat="45.85719880608599" lon="9.115788751806168"><ele>226.0</ele><time>2026-04-19T09:36:58Z</time></trkpt><trkpt lat="45.857262666297096" lon="9.115820886747121"><ele>225.99999999999997</ele><time>2026-04-19T09:36:59Z</time></trkpt><trkpt lat="45.8573333878033" lon="9.115864942924775"><ele>226.0</ele><time>2026-04-19T09:37:01Z</time></trkpt><trkpt lat="45.857420229896746" lon="9.115920223775824"><ele>225.99999999999997</ele><time>2026-04-19T09:37:03Z</time></trkpt><trkpt lat="45.85748285612156" lon="9.11597430859545"><ele>226.0</ele><time>2026-04-19T09:37:04Z</time></trkpt><trkpt lat="45.85753577132415" lon="9.116050453683883"><ele>226.0</ele><time>2026-04-19T09:37:05Z</time></trkpt><trkpt lat="45.857591688131876" lon="9.116145527437762"><ele>226.0</ele><time>2026-04-19T09:37:06Z</time></trkpt><trkpt lat="45.857646289606535" lon="9.116265607996597"><ele>225.99999999999997</ele><time>2026-04-19T09:37:07Z</time></trkpt><trkpt lat="45.85770504998575" lon="9.116384093088552"><ele>226.0</ele><time>2026-04-19T09:37:08Z</time></trkpt><trkpt lat="45.857764127553175" lon="9.116513549490938"><ele>223.75</ele><time>2026-04-19T09:37:09Z</time></trkpt><trkpt lat="45.85782763647689" lon="9.116653529873492"><ele>221.5</ele><time>2026-04-19T09:37:10Z</time></trkpt><trkpt lat="45.85789469394397" lon="9.116786100323326"><ele>219.25</ele><time>2026-04-19T09:37:11Z</time></trkpt><trkpt lat="45.85795930036343" lon="9.11691943845456"><ele>217.0</ele><time>2026-04-19T09:37:12Z</time></trkpt><trkpt lat="45.8580118480019" lon="9.117071643082067"><ele>217.0</ele><time>2026-04-19T09:37:13Z</time></trkpt><trkpt lat="45.85803954532648" lon="9.117231830951727"><ele>217.0</ele><time>2026-04-19T09:37:14Z</time></trkpt><trkpt lat="45.858063974312564" lon="9.117384070359126"><ele>217.0</ele><time>2026-04-19T09:37:15Z</time></trkpt><trkpt lat="45.858092965499" lon="9.117528232499136"><ele>217.0</ele><time>2026-04-19T09:37:16Z</time></trkpt><trkpt lat="45.858121860410776" lon="9.117661768757914"><ele>217.0</ele><time>2026-04-19T09:37:17Z</time></trkpt><trkpt lat="45.85812096248001" lon="9.117773352120482"><ele>218.2</ele><time>2026-04-19T09:37:18Z</time></trkpt><trkpt lat="45.85809042234958" lon="9.11788813353293"><ele>219.39999999999998</ele><time>2026-04-19T09:37:18.999Z</time></trkpt><trkpt lat="45.8580311023485" lon="9.117986349547442"><ele>220.60000000000002</ele><time>2026-04-19T09:37:19.999Z</time></trkpt><trkpt lat="45.857981916406914" lon="9.11809409471671"><ele>221.8</ele><time>2026-04-19T09:37:20.999Z</time></trkpt><trkpt lat="45.85796087487244" lon="9.118225825571209"><ele>223.0</ele><time>2026-04-19T09:37:21.999Z</time></trkpt><trkpt lat="45.85797000143762" lon="9.118364223496789"><ele>225.4</ele><time>2026-04-19T09:37:22.999Z</time></trkpt><trkpt lat="45.858023535922705" lon="9.118501298666898"><ele>227.8</ele><time>2026-04-19T09:37:23.999Z</time></trkpt><trkpt lat="45.858078066855185" lon="9.118635774309572"><ele>230.2</ele><time>2026-04-19T09:37:24.999Z</time></trkpt><trkpt lat="45.858111670932935" lon="9.118771057701588"><ele>232.6</ele><time>2026-04-19T09:37:25.999Z</time></trkpt><trkpt lat="45.858091810739" lon="9.118919161936532"><ele>235.0</ele><time>2026-04-19T09:37:26.999Z</time></trkpt><trkpt lat="45.85804479118686" lon="9.11905857377051"><ele>237.25</ele><time>2026-04-19T09:37:27.999Z</time></trkpt><trkpt lat="45.85799198091325" lon="9.119205776318772"><ele>239.5</ele><time>2026-04-19T09:37:28.999Z</time></trkpt><trkpt lat="45.85794795175173" lon="9.119368989764775"><ele>241.75</ele><time>2026-04-19T09:37:29.999Z</time></trkpt><trkpt lat="45.85792421182534" lon="9.119542459022071"><ele>244.0</ele><time>2026-04-19T09:37:30.999Z</time></trkpt><trkpt lat="45.8578845483003" lon="9.119701522571512"><ele>244.0</ele><time>2026-04-19T09:37:31.999Z</time></trkpt><trkpt lat="45.85784337515304" lon="9.11987741711254"><ele>244.0</ele><time>2026-04-19T09:37:32.999Z</time></trkpt><trkpt lat="45.85781715584011" lon="9.120066185971027"><ele>244.0</ele><time>2026-04-19T09:37:33.999Z</time></trkpt><trkpt lat="45.857781769896505" lon="9.12022806650199"><ele>244.0</ele><time>2026-04-19T09:37:34.999Z</time></trkpt><trkpt lat="45.85775088026488" lon="9.12038777874522"><ele>243.5</ele><time>2026-04-19T09:37:35.999Z</time></trkpt><trkpt lat="45.85775875133232" lon="9.12054480167747"><ele>243.0</ele><time>2026-04-19T09:37:36.999Z</time></trkpt><trkpt lat="45.85778662939418" lon="9.120706462052171"><ele>242.5</ele><time>2026-04-19T09:37:37.999Z</time></trkpt><trkpt lat="45.85783860494759" lon="9.120870193650282"><ele>242.0</ele><time>2026-04-19T09:37:38.999Z</time></trkpt><trkpt lat="45.857868464675306" lon="9.121039797311203"><ele>241.0</ele><time>2026-04-19T09:37:39.999Z</time></trkpt><trkpt lat="45.85788589783969" lon="9.12121751612188"><ele>240.0</ele><time>2026-04-19T09:37:40.999Z</time></trkpt><trkpt lat="45.857886453926824" lon="9.121376282270445"><ele>239.0</ele><time>2026-04-19T09:37:41.999Z</time></trkpt><trkpt lat="45.85787292113821" lon="9.121520471389145"><ele>238.0</ele><time>2026-04-19T09:37:42.999Z</time></trkpt><trkpt lat="45.85784332097642" lon="9.121661019847501"><ele>237.0</ele><time>2026-04-19T09:37:43.999Z</time></trkpt><trkpt lat="45.857812092940144" lon="9.121806555734771"><ele>236.6</ele><time>2026-04-19T09:37:44.999Z</time></trkpt><trkpt lat="45.857762959119974" lon="9.121940096026606"><ele>236.2</ele><time>2026-04-19T09:37:45.999Z</time></trkpt><trkpt lat="45.85771845834179" lon="9.122053482787473"><ele>235.8</ele><time>2026-04-19T09:37:46.999Z</time></trkpt><trkpt lat="45.85768467663847" lon="9.122139974217793"><ele>235.4</ele><time>2026-04-19T09:37:47.999Z</time></trkpt><trkpt lat="45.85765717738182" lon="9.122331663280848"><ele>235.0</ele><time>2026-04-19T09:37:49.999Z</time></trkpt><trkpt lat="45.857647475003304" lon="9.122478126140049"><ele>234.6</ele><time>2026-04-19T09:37:50.999Z</time></trkpt><trkpt lat="45.85767943422412" lon="9.12260710795279"><ele>234.2</ele><time>2026-04-19T09:37:51.999Z</time></trkpt><trkpt lat="45.85769323702649" lon="9.122741188241982"><ele>233.8</ele><time>2026-04-19T09:37:52.999Z</time></trkpt><trkpt lat="45.85772510728143" lon="9.122881863404656"><ele>233.4</ele><time>2026-04-19T09:37:53.999Z</time></trkpt><trkpt lat="45.85774526257579" lon="9.123030820484516"><ele>233.0</ele><time>2026-04-19T09:37:54.999Z</time></trkpt><trkpt lat="45.85776414027887" lon="9.123179358855364"><ele>232.2</ele><time>2026-04-19T09:37:55.999Z</time></trkpt><trkpt lat="45.857767215738825" lon="9.123317277505576"><ele>231.4</ele><time>2026-04-19T09:37:56.999Z</time></trkpt><trkpt lat="45.85775250763316" lon="9.123454462914433"><ele>230.59999999999997</ele><time>2026-04-19T09:37:57.999Z</time></trkpt><trkpt lat="45.85772307306911" lon="9.123599469004887"><ele>229.79999999999998</ele><time>2026-04-19T09:37:58.999Z</time></trkpt><trkpt lat="45.857681597806824" lon="9.123744919996115"><ele>229.0</ele><time>2026-04-19T09:37:59.999Z</time></trkpt><trkpt lat="45.857641629574815" lon="9.123901552472987"><ele>239.75</ele><time>2026-04-19T09:38:00.999Z</time></trkpt><trkpt lat="45.85760969390332" lon="9.124053617188297"><ele>250.5</ele><time>2026-04-19T09:38:01.999Z</time></trkpt><trkpt lat="45.85756982108443" lon="9.124212315670476"><ele>261.25</ele><time>2026-04-19T09:38:02.999Z</time></trkpt><trkpt lat="45.85752986542432" lon="9.124369324613005"><ele>272.0</ele><time>2026-04-19T09:38:03.999Z</time></trkpt><trkpt lat="45.8575030273352" lon="9.124527429851415"><ele>272.0</ele><time>2026-04-19T09:38:04.999Z</time></trkpt><trkpt lat="45.85750347921203" lon="9.124706748999056"><ele>272.0</ele><time>2026-04-19T09:38:05.999Z</time></trkpt><trkpt lat="45.85753309036054" lon="9.124876232070703"><ele>272.0</ele><time>2026-04-19T09:38:06.999Z</time></trkpt><trkpt lat="45.857566438484675" lon="9.125063284309487"><ele>272.0</ele><time>2026-04-19T09:38:07.999Z</time></trkpt><trkpt lat="45.857607336850904" lon="9.1252361795901"><ele>260.5</ele><time>2026-04-19T09:38:08.999Z</time></trkpt><trkpt lat="45.85763689285534" lon="9.125397602072251"><ele>249.0</ele><time>2026-04-19T09:38:09.999Z</time></trkpt><trkpt lat="45.85766348039991" lon="9.125548782073404"><ele>237.5</ele><time>2026-04-19T09:38:10.999Z</time></trkpt><trkpt lat="45.85765996746133" lon="9.125708392530848"><ele>226.0</ele><time>2026-04-19T09:38:11.999Z</time></trkpt><trkpt lat="45.85764411844041" lon="9.125883601238591"><ele>240.5</ele><time>2026-04-19T09:38:12.999Z</time></trkpt><trkpt lat="45.857612122039185" lon="9.12606023704366"><ele>255.0</ele><time>2026-04-19T09:38:13.999Z</time></trkpt><trkpt lat="45.8575843571768" lon="9.126244507371915"><ele>269.5</ele><time>2026-04-19T09:38:14.999Z</time></trkpt><trkpt lat="45.85755756285158" lon="9.126427487958912"><ele>284.0</ele><time>2026-04-19T09:38:15.999Z</time></trkpt><trkpt lat="45.85753431623973" lon="9.126605613436347"><ele>286.75</ele><time>2026-04-19T09:38:16.999Z</time></trkpt><trkpt lat="45.85752617776298" lon="9.126783009217354"><ele>289.5</ele><time>2026-04-19T09:38:17.999Z</time></trkpt><trkpt lat="45.85754373222183" lon="9.126970643073738"><ele>292.25</ele><time>2026-04-19T09:38:18.999Z</time></trkpt><trkpt lat="45.857581630825834" lon="9.127166054882679"><ele>295.0</ele><time>2026-04-19T09:38:19.999Z</time></trkpt><trkpt lat="45.85761598944436" lon="9.127380843797395"><ele>283.0</ele><time>2026-04-19T09:38:20.999Z</time></trkpt><trkpt lat="45.85764915799467" lon="9.1276002963798"><ele>271.0</ele><time>2026-04-19T09:38:21.999Z</time></trkpt><trkpt lat="45.8576917263233" lon="9.127807534588163"><ele>259.0</ele><time>2026-04-19T09:38:22.999Z</time></trkpt><trkpt lat="45.85772055223566" lon="9.128003087639648"><ele>247.0</ele><time>2026-04-19T09:38:23.999Z</time></trkpt><trkpt lat="45.85774578520315" lon="9.128173442894003"><ele>248.5</ele><time>2026-04-19T09:38:24.999Z</time></trkpt><trkpt lat="45.85775589863787" lon="9.128355777287018"><ele>250.0</ele><time>2026-04-19T09:38:25.999Z</time></trkpt><trkpt lat="45.85774012593028" lon="9.128560124031546"><ele>251.5</ele><time>2026-04-19T09:38:26.999Z</time></trkpt><trkpt lat="45.857709615124676" lon="9.128765640849696"><ele>253.0</ele><time>2026-04-19T09:38:27.999Z</time></trkpt><trkpt lat="45.857662175483824" lon="9.128939537558779"><ele>266.25</ele><time>2026-04-19T09:38:28.999Z</time></trkpt><trkpt lat="45.85759862174621" lon="9.129114538581424"><ele>279.5</ele><time>2026-04-19T09:38:29.999Z</time></trkpt><trkpt lat="45.85751046622669" lon="9.129286323100665"><ele>292.75</ele><time>2026-04-19T09:38:30.999Z</time></trkpt><trkpt lat="45.857431522842894" lon="9.129475823803023"><ele>306.0</ele><time>2026-04-19T09:38:31.999Z</time></trkpt><trkpt lat="45.85735674789566" lon="9.129663783315861"><ele>306.0</ele><time>2026-04-19T09:38:32.998Z</time></trkpt><trkpt lat="45.857284175808395" lon="9.129845056291423"><ele>306.0</ele><time>2026-04-19T09:38:33.998Z</time></trkpt><trkpt lat="45.85720804912539" lon="9.13003360298164"><ele>306.0</ele><time>2026-04-19T09:38:34.998Z</time></trkpt><trkpt lat="45.85714095538023" lon="9.130226218480512"><ele>306.0</ele><time>2026-04-19T09:38:35.998Z</time></trkpt><trkpt lat="45.857066366349706" lon="9.13040530518807"><ele>301.5</ele><time>2026-04-19T09:38:36.998Z</time></trkpt><trkpt lat="45.856999268634716" lon="9.130568357205691"><ele>297.0</ele><time>2026-04-19T09:38:38Z</time></trkpt><trkpt lat="45.85693737713613" lon="9.130725581541471"><ele>292.5</ele><time>2026-04-19T09:38:39Z</time></trkpt><trkpt lat="45.85688169976561" lon="9.130899585756888"><ele>288.0</ele><time>2026-04-19T09:38:40Z</time></trkpt><trkpt lat="45.856852228518086" lon="9.131077649838343"><ele>291.5</ele><time>2026-04-19T09:38:41Z</time></trkpt><trkpt lat="45.85681318099942" lon="9.131239638404999"><ele>295.0</ele><time>2026-04-19T09:38:42Z</time></trkpt><trkpt lat="45.856756969793295" lon="9.131391726194602"><ele>298.5</ele><time>2026-04-19T09:38:43Z</time></trkpt><trkpt lat="45.85667739020609" lon="9.131512592888047"><ele>302.0</ele><time>2026-04-19T09:38:44Z</time></trkpt><trkpt lat="45.856574255323935" lon="9.131602627356912"><ele>302.0</ele><time>2026-04-19T09:38:45Z</time></trkpt><trkpt lat="45.85648751294956" lon="9.131669415408632"><ele>302.0</ele><time>2026-04-19T09:38:46Z</time></trkpt><trkpt lat="45.856418456147395" lon="9.131734879362382"><ele>302.0</ele><time>2026-04-19T09:38:47Z</time></trkpt><trkpt lat="45.856378760410664" lon="9.13182361807841"><ele>302.0</ele><time>2026-04-19T09:38:48Z</time></trkpt><trkpt lat="45.85635147177807" lon="9.13193150575864"><ele>302.0</ele><time>2026-04-19T09:38:49Z</time></trkpt><trkpt lat="45.85633130910257" lon="9.132060228967955"><ele>302.0</ele><time>2026-04-19T09:38:50Z</time></trkpt><trkpt lat="45.85632405383137" lon="9.132202056627925"><ele>302.0</ele><time>2026-04-19T09:38:51Z</time></trkpt><trkpt lat="45.85634978149033" lon="9.132361430641593"><ele>302.0</ele><time>2026-04-19T09:38:52Z</time></trkpt><trkpt lat="45.85638815969579" lon="9.132542995822998"><ele>302.0</ele><time>2026-04-19T09:38:53Z</time></trkpt><trkpt lat="45.856416642112066" lon="9.132726065809145"><ele>302.0</ele><time>2026-04-19T09:38:54Z</time></trkpt><trkpt lat="45.85643999726651" lon="9.132903845390794"><ele>302.0</ele><time>2026-04-19T09:38:55Z</time></trkpt><trkpt lat="45.85645625096269" lon="9.133061610553447"><ele>302.0</ele><time>2026-04-19T09:38:56Z</time></trkpt><trkpt lat="45.85648077891438" lon="9.133222004231813"><ele>302.0</ele><time>2026-04-19T09:38:57Z</time></trkpt><trkpt lat="45.856492373761796" lon="9.133391988375196"><ele>302.0</ele><time>2026-04-19T09:38:58Z</time></trkpt><trkpt lat="45.8565143666832" lon="9.133573553005077"><ele>304.25</ele><time>2026-04-19T09:38:59Z</time></trkpt><trkpt lat="45.856546958609364" lon="9.13374875302819"><ele>306.5</ele><time>2026-04-19T09:39:00Z</time></trkpt><trkpt lat="45.85657498616977" lon="9.13392653236256"><ele>308.75</ele><time>2026-04-19T09:39:01Z</time></trkpt><trkpt lat="45.85659813691078" lon="9.134114222596713"><ele>311.0</ele><time>2026-04-19T09:39:02Z</time></trkpt><trkpt lat="45.85662264106859" lon="9.134290504722756"><ele>312.0</ele><time>2026-04-19T09:39:03Z</time></trkpt><trkpt lat="45.856654181951704" lon="9.134463831041327"><ele>313.0</ele><time>2026-04-19T09:39:04Z</time></trkpt><trkpt lat="45.85666127839617" lon="9.13466380915272"><ele>314.0</ele><time>2026-04-19T09:39:05Z</time></trkpt><trkpt lat="45.85665865172591" lon="9.13485615537494"><ele>315.0</ele><time>2026-04-19T09:39:06Z</time></trkpt><trkpt lat="45.856625385698074" lon="9.135046752332201"><ele>316.75</ele><time>2026-04-19T09:39:07Z</time></trkpt><trkpt lat="45.85660012001824" lon="9.135239388141652"><ele>318.5</ele><time>2026-04-19T09:39:08Z</time></trkpt><trkpt lat="45.856567877717666" lon="9.135433352121707"><ele>320.25</ele><time>2026-04-19T09:39:09Z</time></trkpt><trkpt lat="45.85656100811253" lon="9.13562422396005"><ele>322.0</ele><time>2026-04-19T09:39:10Z</time></trkpt><trkpt lat="45.85657096487342" lon="9.135811484856236"><ele>322.0</ele><time>2026-04-19T09:39:11Z</time></trkpt><trkpt lat="45.85660188607319" lon="9.135992554028418"><ele>322.0</ele><time>2026-04-19T09:39:12Z</time></trkpt><trkpt lat="45.8566217064688" lon="9.136181117842074"><ele>322.0</ele><time>2026-04-19T09:39:13Z</time></trkpt><trkpt lat="45.856643428113095" lon="9.136364894147638"><ele>322.0</ele><time>2026-04-19T09:39:14Z</time></trkpt><trkpt lat="45.85666894709016" lon="9.13655779420709"><ele>324.0</ele><time>2026-04-19T09:39:15Z</time></trkpt><trkpt lat="45.85667199963663" lon="9.13675777860096"><ele>326.0</ele><time>2026-04-19T09:39:16Z</time></trkpt><trkpt lat="45.85669514716672" lon="9.136949850575848"><ele>328.0</ele><time>2026-04-19T09:39:17Z</time></trkpt><trkpt lat="45.8567115664855" lon="9.137147956445405"><ele>330.0</ele><time>2026-04-19T09:39:18Z</time></trkpt><trkpt lat="45.856735458033235" lon="9.137345177446704"><ele>333.0</ele><time>2026-04-19T09:39:19Z</time></trkpt><trkpt lat="45.856765338895244" lon="9.137534255739835"><ele>336.0</ele><time>2026-04-19T09:39:20Z</time></trkpt><trkpt lat="45.85680058970614" lon="9.137739081981904"><ele>339.0</ele><time>2026-04-19T09:39:21Z</time></trkpt><trkpt lat="45.85682116424986" lon="9.137928343839793"><ele>342.0</ele><time>2026-04-19T09:39:22Z</time></trkpt><trkpt lat="45.85683468704437" lon="9.138090723584519"><ele>324.0</ele><time>2026-04-19T09:39:23Z</time></trkpt><trkpt lat="45.85685626771357" lon="9.138261369046141"><ele>306.0</ele><time>2026-04-19T09:39:24Z</time></trkpt><trkpt lat="45.8568671704022" lon="9.138443967661024"><ele>288.0</ele><time>2026-04-19T09:39:25Z</time></trkpt><trkpt lat="45.856882336516016" lon="9.138618781764519"><ele>270.0</ele><time>2026-04-19T09:39:25.999Z</time></trkpt><trkpt lat="45.856884003075585" lon="9.138778794489129"><ele>270.0</ele><time>2026-04-19T09:39:26.999Z</time></trkpt><trkpt lat="45.85686983030689" lon="9.138907057819452"><ele>270.0</ele><time>2026-04-19T09:39:27.999Z</time></trkpt><trkpt lat="45.85684561891498" lon="9.139059029985663"><ele>270.0</ele><time>2026-04-19T09:39:28.999Z</time></trkpt><trkpt lat="45.856823867263635" lon="9.13919719701344"><ele>270.0</ele><time>2026-04-19T09:39:29.999Z</time></trkpt><trkpt lat="45.8568172962621" lon="9.139328553021736"><ele>270.0</ele><time>2026-04-19T09:39:30.999Z</time></trkpt><trkpt lat="45.85681637195402" lon="9.13944757357922"><ele>270.2</ele><time>2026-04-19T09:39:31.999Z</time></trkpt><trkpt lat="45.85682888546489" lon="9.139592259936839"><ele>270.4</ele><time>2026-04-19T09:39:32.999Z</time></trkpt><trkpt lat="45.85686066832642" lon="9.139729864482886"><ele>270.6</ele><time>2026-04-19T09:39:33.999Z</time></trkpt><trkpt lat="45.856870053700916" lon="9.139864200807057"><ele>270.8</ele><time>2026-04-19T09:39:34.999Z</time></trkpt><trkpt lat="45.856882644005225" lon="9.140003995361711"><ele>271.0</ele><time>2026-04-19T09:39:35.999Z</time></trkpt><trkpt lat="45.856880031434" lon="9.140143664599897"><ele>271.66666666666663</ele><time>2026-04-19T09:39:36.999Z</time></trkpt><trkpt lat="45.85687307210625" lon="9.14028025996134"><ele>272.3333333333333</ele><time>2026-04-19T09:39:37.999Z</time></trkpt><trkpt lat="45.85685023456151" lon="9.14040654253102"><ele>273.0</ele><time>2026-04-19T09:39:38.999Z</time></trkpt><trkpt lat="45.85683000710557" lon="9.140515560250797"><ele>273.6666666666667</ele><time>2026-04-19T09:39:39.999Z</time></trkpt><trkpt lat="45.856818045273364" lon="9.14061602908902"><ele>274.33333333333337</ele><time>2026-04-19T09:39:40.999Z</time></trkpt><trkpt lat="45.85681547630825" lon="9.140722429388605"><ele>275.0</ele><time>2026-04-19T09:39:41.999Z</time></trkpt><trkpt lat="45.85683924561792" lon="9.140835248646177"><ele>282.0</ele><time>2026-04-19T09:39:42.999Z</time></trkpt><trkpt lat="45.85689032960633" lon="9.140916958195248"><ele>289.0</ele><time>2026-04-19T09:39:43.999Z</time></trkpt><trkpt lat="45.85697030902984" lon="9.140948039459156"><ele>296.0</ele><time>2026-04-19T09:39:44.999Z</time></trkpt><trkpt lat="45.857084885422" lon="9.140935655791937"><ele>303.0</ele><time>2026-04-19T09:39:45.999Z</time></trkpt><trkpt lat="45.85718169002596" lon="9.14089850485751"><ele>310.0</ele><time>2026-04-19T09:39:46.999Z</time></trkpt><trkpt lat="45.8572619136869" lon="9.140879214121442"><ele>310.0</ele><time>2026-04-19T09:39:47.999Z</time></trkpt><trkpt lat="45.85734175965824" lon="9.14088521629236"><ele>310.0</ele><time>2026-04-19T09:39:48.999Z</time></trkpt><trkpt lat="45.85742266987278" lon="9.140920794918266"><ele>310.0</ele><time>2026-04-19T09:39:49.999Z</time></trkpt><trkpt lat="45.857498196948455" lon="9.140993711958062"><ele>310.0</ele><time>2026-04-19T09:39:50.999Z</time></trkpt><trkpt lat="45.857569400139134" lon="9.141099318396014"><ele>310.0</ele><time>2026-04-19T09:39:51.999Z</time></trkpt><trkpt lat="45.857633599764554" lon="9.141213862362438"><ele>303.0</ele><time>2026-04-19T09:39:52.999Z</time></trkpt><trkpt lat="45.857710989131775" lon="9.141316838114996"><ele>296.0</ele><time>2026-04-19T09:39:53.999Z</time></trkpt><trkpt lat="45.8577943365438" lon="9.141432974483756"><ele>289.0</ele><time>2026-04-19T09:39:54.999Z</time></trkpt><trkpt lat="45.85787625137567" lon="9.141534877296783"><ele>282.0</ele><time>2026-04-19T09:39:55.999Z</time></trkpt><trkpt lat="45.857933611193594" lon="9.141656580858628"><ele>275.0</ele><time>2026-04-19T09:39:56.999Z</time></trkpt><trkpt lat="45.85801065719586" lon="9.141765146209458"><ele>275.0</ele><time>2026-04-19T09:39:57.999Z</time></trkpt><trkpt lat="45.8580895098231" lon="9.141870874097867"><ele>275.0</ele><time>2026-04-19T09:39:58.999Z</time></trkpt><trkpt lat="45.85815666096011" lon="9.141986735751093"><ele>275.0</ele><time>2026-04-19T09:39:59.999Z</time></trkpt><trkpt lat="45.858214406287324" lon="9.142129759586016"><ele>275.0</ele><time>2026-04-19T09:40:00.999Z</time></trkpt><trkpt lat="45.85826791617274" lon="9.142275881438756"><ele>275.0</ele><time>2026-04-19T09:40:01.999Z</time></trkpt><trkpt lat="45.85830526855126" lon="9.14242020401962"><ele>281.4</ele><time>2026-04-19T09:40:02.999Z</time></trkpt><trkpt lat="45.858336101014466" lon="9.142571531443856"><ele>287.8</ele><time>2026-04-19T09:40:03.999Z</time></trkpt><trkpt lat="45.85836956861863" lon="9.142711047254846"><ele>294.2</ele><time>2026-04-19T09:40:04.999Z</time></trkpt><trkpt lat="45.858428832371025" lon="9.142847611559116"><ele>300.6</ele><time>2026-04-19T09:40:05.999Z</time></trkpt><trkpt lat="45.858512508229715" lon="9.14297101439383"><ele>307.0</ele><time>2026-04-19T09:40:06.999Z</time></trkpt><trkpt lat="45.85860363728558" lon="9.14309579192846"><ele>298.25</ele><time>2026-04-19T09:40:07.999Z</time></trkpt><trkpt lat="45.858706089934145" lon="9.143228402824453"><ele>289.5</ele><time>2026-04-19T09:40:08.999Z</time></trkpt><trkpt lat="45.85880747235779" lon="9.143362227643209"><ele>280.75</ele><time>2026-04-19T09:40:09.999Z</time></trkpt><trkpt lat="45.85889204098333" lon="9.143483747848142"><ele>272.0</ele><time>2026-04-19T09:40:10.999Z</time></trkpt><trkpt lat="45.858977710619776" lon="9.143604626262075"><ele>272.0</ele><time>2026-04-19T09:40:11.999Z</time></trkpt><trkpt lat="45.85906298537297" lon="9.143727584944683"><ele>272.0</ele><time>2026-04-19T09:40:12.999Z</time></trkpt><trkpt lat="45.85914844611873" lon="9.143855614570542"><ele>272.0</ele><time>2026-04-19T09:40:13.999Z</time></trkpt><trkpt lat="45.85921847716715" lon="9.143993887967342"><ele>272.0</ele><time>2026-04-19T09:40:14.999Z</time></trkpt><trkpt lat="45.85928073851974" lon="9.144137584712928"><ele>269.0</ele><time>2026-04-19T09:40:15.999Z</time></trkpt><trkpt lat="45.85934151238119" lon="9.144276861621455"><ele>266.0</ele><time>2026-04-19T09:40:16.999Z</time></trkpt><trkpt lat="45.85940448605722" lon="9.14441133112134"><ele>263.0</ele><time>2026-04-19T09:40:17.999Z</time></trkpt><trkpt lat="45.859466624526526" lon="9.144543146077554"><ele>260.0</ele><time>2026-04-19T09:40:18.999Z</time></trkpt><trkpt lat="45.859530356795005" lon="9.144673889809804"><ele>257.0</ele><time>2026-04-19T09:40:19.999Z</time></trkpt><trkpt lat="45.85959373908803" lon="9.144797639422126"><ele>260.6</ele><time>2026-04-19T09:40:20.999Z</time></trkpt><trkpt lat="45.85966570897534" lon="9.144916916382687"><ele>264.2</ele><time>2026-04-19T09:40:21.999Z</time></trkpt><trkpt lat="45.85973404830565" lon="9.145036339389597"><ele>267.8</ele><time>2026-04-19T09:40:22.999Z</time></trkpt><trkpt lat="45.85980255318303" lon="9.145146210789594"><ele>271.4</ele><time>2026-04-19T09:40:23.999Z</time></trkpt><trkpt lat="45.85987467781498" lon="9.145250903951217"><ele>275.0</ele><time>2026-04-19T09:40:24.999Z</time></trkpt><trkpt lat="45.859946458237744" lon="9.145352026759356"><ele>275.0</ele><time>2026-04-19T09:40:25.999Z</time></trkpt><trkpt lat="45.860020831563446" lon="9.145458520492221"><ele>275.0</ele><time>2026-04-19T09:40:26.999Z</time></trkpt><trkpt lat="45.86009949004259" lon="9.145573769521251"><ele>275.0</ele><time>2026-04-19T09:40:27.999Z</time></trkpt><trkpt lat="45.86018465073618" lon="9.145687634144819"><ele>275.0</ele><time>2026-04-19T09:40:28.999Z</time></trkpt><trkpt lat="45.86027351053764" lon="9.14580686606728"><ele>271.75</ele><time>2026-04-19T09:40:29.999Z</time></trkpt><trkpt lat="45.86036227559021" lon="9.145923644393964"><ele>268.5</ele><time>2026-04-19T09:40:30.999Z</time></trkpt><trkpt lat="45.860452599808326" lon="9.146026642065111"><ele>265.25</ele><time>2026-04-19T09:40:31.999Z</time></trkpt><trkpt lat="45.86055846675253" lon="9.14610779354637"><ele>262.0</ele><time>2026-04-19T09:40:32.999Z</time></trkpt><trkpt lat="45.86066653532759" lon="9.146169508169372"><ele>262.0</ele><time>2026-04-19T09:40:33.999Z</time></trkpt><trkpt lat="45.8607658700122" lon="9.146226065981967"><ele>262.0</ele><time>2026-04-19T09:40:34.999Z</time></trkpt><trkpt lat="45.86085467825559" lon="9.146305487709634"><ele>262.0</ele><time>2026-04-19T09:40:35.999Z</time></trkpt><trkpt lat="45.86093969929437" lon="9.146424957855432"><ele>262.0</ele><time>2026-04-19T09:40:36.999Z</time></trkpt><trkpt lat="45.86102202498243" lon="9.146556641066168"><ele>258.0</ele><time>2026-04-19T09:40:37.999Z</time></trkpt><trkpt lat="45.861120212234255" lon="9.146689843885582"><ele>254.0</ele><time>2026-04-19T09:40:38.999Z</time></trkpt><trkpt lat="45.861207712590314" lon="9.146807311681318"><ele>250.0</ele><time>2026-04-19T09:40:39.999Z</time></trkpt><trkpt lat="45.86129916273739" lon="9.146928589205961"><ele>246.0</ele><time>2026-04-19T09:40:40.999Z</time></trkpt><trkpt lat="45.861391885372335" lon="9.14704893775604"><ele>246.0</ele><time>2026-04-19T09:40:41.999Z</time></trkpt><trkpt lat="45.86147669868152" lon="9.147163531263413"><ele>246.00000000000003</ele><time>2026-04-19T09:40:42.999Z</time></trkpt><trkpt lat="45.861555912658645" lon="9.147266139396624"><ele>246.00000000000003</ele><time>2026-04-19T09:40:44Z</time></trkpt><trkpt lat="45.86163089740017" lon="9.147362060135343"><ele>246.0</ele><time>2026-04-19T09:40:45Z</time></trkpt><trkpt lat="45.861699304875366" lon="9.147453696299799"><ele>246.0</ele><time>2026-04-19T09:40:46Z</time></trkpt><trkpt lat="45.86176162655835" lon="9.147548102617142"><ele>242.60000000000002</ele><time>2026-04-19T09:40:47Z</time></trkpt><trkpt lat="45.86181659975946" lon="9.147664572596007"><ele>239.20000000000002</ele><time>2026-04-19T09:40:48Z</time></trkpt><trkpt lat="45.861853211012445" lon="9.147810647000018"><ele>235.79999999999998</ele><time>2026-04-19T09:40:49Z</time></trkpt><trkpt lat="45.861879823482724" lon="9.14795058231968"><ele>232.39999999999998</ele><time>2026-04-19T09:40:50Z</time></trkpt><trkpt lat="45.861891116600525" lon="9.148080741069577"><ele>229.0</ele><time>2026-04-19T09:40:51Z</time></trkpt><trkpt lat="45.8619013436522" lon="9.148199566260951"><ele>231.66666666666666</ele><time>2026-04-19T09:40:52Z</time></trkpt><trkpt lat="45.861912468975326" lon="9.148313334221974"><ele>234.33333333333331</ele><time>2026-04-19T09:40:53Z</time></trkpt><trkpt lat="45.86192850185206" lon="9.148427022468463"><ele>237.0</ele><time>2026-04-19T09:40:54Z</time></trkpt><trkpt lat="45.86196877649064" lon="9.148543560935416"><ele>239.66666666666669</ele><time>2026-04-19T09:40:55Z</time></trkpt><trkpt lat="45.86200883446245" lon="9.148648162283248"><ele>242.33333333333334</ele><time>2026-04-19T09:40:56Z</time></trkpt><trkpt lat="45.862058705729886" lon="9.148740163238456"><ele>245.0</ele><time>2026-04-19T09:40:57Z</time></trkpt><trkpt lat="45.86211065716967" lon="9.148815688579363"><ele>245.00000000000003</ele><time>2026-04-19T09:40:58Z</time></trkpt><trkpt lat="45.8621641506796" lon="9.148882820554588"><ele>245.0</ele><time>2026-04-19T09:40:59Z</time></trkpt><trkpt lat="45.86222111024904" lon="9.148968936260916"><ele>245.0</ele><time>2026-04-19T09:41:00Z</time></trkpt><trkpt lat="45.86226975319871" lon="9.14907028377376"><ele>245.0</ele><time>2026-04-19T09:41:01Z</time></trkpt><trkpt lat="45.86230934975634" lon="9.149186399859962"><ele>245.00000000000003</ele><time>2026-04-19T09:41:02Z</time></trkpt><trkpt lat="45.86233390424301" lon="9.149296200217242"><ele>245.0</ele><time>2026-04-19T09:41:03Z</time></trkpt><trkpt lat="45.86237268235593" lon="9.149383357175038"><ele>244.6</ele><time>2026-04-19T09:41:04Z</time></trkpt><trkpt lat="45.86240907179204" lon="9.149500943671123"><ele>244.2</ele><time>2026-04-19T09:41:05Z</time></trkpt><trkpt lat="45.86244479833869" lon="9.149630286703967"><ele>243.8</ele><time>2026-04-19T09:41:06Z</time></trkpt><trkpt lat="45.86251378846196" lon="9.14973927674693"><ele>243.4</ele><time>2026-04-19T09:41:07Z</time></trkpt><trkpt lat="45.86259726928883" lon="9.149822342166704"><ele>243.0</ele><time>2026-04-19T09:41:08Z</time></trkpt><trkpt lat="45.86265885606454" lon="9.149949983604847"><ele>243.0</ele><time>2026-04-19T09:41:09Z</time></trkpt><trkpt lat="45.862718849644395" lon="9.150055336962843"><ele>243.0</ele><time>2026-04-19T09:41:10Z</time></trkpt><trkpt lat="45.862787251232554" lon="9.150155377275045"><ele>243.0</ele><time>2026-04-19T09:41:11Z</time></trkpt><trkpt lat="45.862854040330035" lon="9.150274941487877"><ele>243.0</ele><time>2026-04-19T09:41:12Z</time></trkpt><trkpt lat="45.86290921932271" lon="9.15039976616776"><ele>243.0</ele><time>2026-04-19T09:41:13Z</time></trkpt><trkpt lat="45.8629886619287" lon="9.150513440647007"><ele>243.0</ele><time>2026-04-19T09:41:14Z</time></trkpt><trkpt lat="45.863069303514" lon="9.1506061879363"><ele>243.0</ele><time>2026-04-19T09:41:15Z</time></trkpt><trkpt lat="45.863152687413546" lon="9.150697023027533"><ele>243.0</ele><time>2026-04-19T09:41:16Z</time></trkpt><trkpt lat="45.86322000250995" lon="9.15078887936766"><ele>243.0</ele><time>2026-04-19T09:41:17Z</time></trkpt><trkpt lat="45.863295888757605" lon="9.150866591987745"><ele>243.0</ele><time>2026-04-19T09:41:18Z</time></trkpt><trkpt lat="45.86337311756674" lon="9.150945576692557"><ele>241.2</ele><time>2026-04-19T09:41:19Z</time></trkpt><trkpt lat="45.86345369968141" lon="9.151026721323852"><ele>239.4</ele><time>2026-04-19T09:41:20Z</time></trkpt><trkpt lat="45.863530332758444" lon="9.151116213262254"><ele>237.59999999999997</ele><time>2026-04-19T09:41:21Z</time></trkpt><trkpt lat="45.863605300688064" lon="9.151193896259684"><ele>235.79999999999998</ele><time>2026-04-19T09:41:22Z</time></trkpt><trkpt lat="45.863671757487026" lon="9.151281338347703"><ele>234.0</ele><time>2026-04-19T09:41:23Z</time></trkpt><trkpt lat="45.863750522686274" lon="9.151370126970608"><ele>234.0</ele><time>2026-04-19T09:41:24Z</time></trkpt><trkpt lat="45.863825763946174" lon="9.151452541249405"><ele>234.0</ele><time>2026-04-19T09:41:25Z</time></trkpt><trkpt lat="45.86388700696259" lon="9.151536073837496"><ele>234.0</ele><time>2026-04-19T09:41:26Z</time></trkpt><trkpt lat="45.86394176664895" lon="9.15162774854847"><ele>234.0</ele><time>2026-04-19T09:41:27Z</time></trkpt><trkpt lat="45.86399764836116" lon="9.15173219140708"><ele>234.0</ele><time>2026-04-19T09:41:28Z</time></trkpt><trkpt lat="45.86406435633662" lon="9.151823869981387"><ele>234.0</ele><time>2026-04-19T09:41:29Z</time></trkpt><trkpt lat="45.864130604534445" lon="9.151900157787532"><ele>233.0</ele><time>2026-04-19T09:41:30Z</time></trkpt><trkpt lat="45.86418803648331" lon="9.151977404456423"><ele>232.0</ele><time>2026-04-19T09:41:31Z</time></trkpt><trkpt lat="45.86423781534452" lon="9.152077871079454"><ele>231.0</ele><time>2026-04-19T09:41:32Z</time></trkpt><trkpt lat="45.86427575611597" lon="9.152188876458856"><ele>230.0</ele><time>2026-04-19T09:41:33Z</time></trkpt><trkpt lat="45.86430782170648" lon="9.152309271645816"><ele>229.0</ele><time>2026-04-19T09:41:34Z</time></trkpt><trkpt lat="45.86434028067387" lon="9.152430618729275"><ele>228.0</ele><time>2026-04-19T09:41:35Z</time></trkpt><trkpt lat="45.86437586582764" lon="9.152543373517862"><ele>233.60000000000002</ele><time>2026-04-19T09:41:36Z</time></trkpt><trkpt lat="45.864434273264344" lon="9.152644778717018"><ele>239.20000000000002</ele><time>2026-04-19T09:41:37Z</time></trkpt><trkpt lat="45.86450725261147" lon="9.152736065598614"><ele>244.8</ele><time>2026-04-19T09:41:38Z</time></trkpt><trkpt lat="45.86459321838562" lon="9.152815965869891"><ele>250.4</ele><time>2026-04-19T09:41:39Z</time></trkpt><trkpt lat="45.86469092775866" lon="9.152880852946359"><ele>256.0</ele><time>2026-04-19T09:41:40Z</time></trkpt><trkpt lat="45.86477973113892" lon="9.152930522070095"><ele>256.0</ele><time>2026-04-19T09:41:41Z</time></trkpt><trkpt lat="45.86487203109183" lon="9.152984514009749"><ele>256.0</ele><time>2026-04-19T09:41:42Z</time></trkpt><trkpt lat="45.86496175510374" lon="9.153027844152824"><ele>256.0</ele><time>2026-04-19T09:41:43Z</time></trkpt><trkpt lat="45.86504323147139" lon="9.153087154196848"><ele>256.0</ele><time>2026-04-19T09:41:43.999Z</time></trkpt><trkpt lat="45.86511251403427" lon="9.153168766040054"><ele>256.0</ele><time>2026-04-19T09:41:44.999Z</time></trkpt><trkpt lat="45.86515608442474" lon="9.153298998374527"><ele>255.66666666666666</ele><time>2026-04-19T09:41:45.999Z</time></trkpt><trkpt lat="45.86522048582469" lon="9.153418295442213"><ele>255.33333333333331</ele><time>2026-04-19T09:41:46.999Z</time></trkpt><trkpt lat="45.86527671975465" lon="9.153505008433187"><ele>255.0</ele><time>2026-04-19T09:41:47.999Z</time></trkpt><trkpt lat="45.8653389741427" lon="9.153566348189845"><ele>254.66666666666669</ele><time>2026-04-19T09:41:48.999Z</time></trkpt><trkpt lat="45.865413926557174" lon="9.15358923831302"><ele>254.33333333333334</ele><time>2026-04-19T09:41:49.999Z</time></trkpt><trkpt lat="45.865493540434585" lon="9.153624728272728"><ele>254.0</ele><time>2026-04-19T09:41:50.999Z</time></trkpt><trkpt lat="45.86556609633334" lon="9.15368793934956"><ele>254.0</ele><time>2026-04-19T09:41:51.999Z</time></trkpt><trkpt lat="45.86563430490208" lon="9.15378996201318"><ele>253.99999999999997</ele><time>2026-04-19T09:41:52.999Z</time></trkpt><trkpt lat="45.86570569007571" lon="9.153882752309249"><ele>253.99999999999997</ele><time>2026-04-19T09:41:53.999Z</time></trkpt><trkpt lat="45.865777103484696" lon="9.153974325189308"><ele>254.0</ele><time>2026-04-19T09:41:54.999Z</time></trkpt><trkpt lat="45.865857560722624" lon="9.154068173854398"><ele>254.0</ele><time>2026-04-19T09:41:55.999Z</time></trkpt><trkpt lat="45.86593668288136" lon="9.154189945753568"><ele>252.75</ele><time>2026-04-19T09:41:56.999Z</time></trkpt><trkpt lat="45.86602949542142" lon="9.154289226605357"><ele>251.5</ele><time>2026-04-19T09:41:57.999Z</time></trkpt><trkpt lat="45.86612225868781" lon="9.154386013009477"><ele>250.25</ele><time>2026-04-19T09:41:58.999Z</time></trkpt><trkpt lat="45.866219358931104" lon="9.154479072357155"><ele>249.0</ele><time>2026-04-19T09:41:59.999Z</time></trkpt><trkpt lat="45.86631818436351" lon="9.154568097675563"><ele>249.0</ele><time>2026-04-19T09:42:00.999Z</time></trkpt><trkpt lat="45.8664180209969" lon="9.154656872089614"><ele>249.0</ele><time>2026-04-19T09:42:01.999Z</time></trkpt><trkpt lat="45.866519571218234" lon="9.154743920331995"><ele>249.0</ele><time>2026-04-19T09:42:02.999Z</time></trkpt><trkpt lat="45.866629355991805" lon="9.15482551164242"><ele>249.0</ele><time>2026-04-19T09:42:03.999Z</time></trkpt><trkpt lat="45.86673257193277" lon="9.154911748173088"><ele>252.25</ele><time>2026-04-19T09:42:04.999Z</time></trkpt><trkpt lat="45.86684233493556" lon="9.154997822004495"><ele>255.5</ele><time>2026-04-19T09:42:05.999Z</time></trkpt><trkpt lat="45.86695076522331" lon="9.155084471434165"><ele>258.75</ele><time>2026-04-19T09:42:06.999Z</time></trkpt><trkpt lat="45.86705989062104" lon="9.155170526604088"><ele>262.0</ele><time>2026-04-19T09:42:07.999Z</time></trkpt><trkpt lat="45.86716493933082" lon="9.155271723090937"><ele>262.0</ele><time>2026-04-19T09:42:08.999Z</time></trkpt><trkpt lat="45.86726760190841" lon="9.155385783113621"><ele>262.0</ele><time>2026-04-19T09:42:09.999Z</time></trkpt><trkpt lat="45.867361226109466" lon="9.155503757390395"><ele>262.0</ele><time>2026-04-19T09:42:10.999Z</time></trkpt><trkpt lat="45.867454025763685" lon="9.155606408657688"><ele>262.0</ele><time>2026-04-19T09:42:11.999Z</time></trkpt><trkpt lat="45.86754631110827" lon="9.15570768403473"><ele>263.25</ele><time>2026-04-19T09:42:12.999Z</time></trkpt><trkpt lat="45.86763655224566" lon="9.15581248763255"><ele>264.5</ele><time>2026-04-19T09:42:13.999Z</time></trkpt><trkpt lat="45.86772225353999" lon="9.155917369900715"><ele>265.75</ele><time>2026-04-19T09:42:14.999Z</time></trkpt><trkpt lat="45.86781172001896" lon="9.15602188330028"><ele>267.0</ele><time>2026-04-19T09:42:15.999Z</time></trkpt><trkpt lat="45.86790580918318" lon="9.156117934396296"><ele>267.0</ele><time>2026-04-19T09:42:16.999Z</time></trkpt><trkpt lat="45.867999924654974" lon="9.156202134810867"><ele>267.0</ele><time>2026-04-19T09:42:17.999Z</time></trkpt><trkpt lat="45.868091429415195" lon="9.15628189358574"><ele>267.0</ele><time>2026-04-19T09:42:18.999Z</time></trkpt><trkpt lat="45.86818794914014" lon="9.156365810429374"><ele>267.0</ele><time>2026-04-19T09:42:19.999Z</time></trkpt><trkpt lat="45.868281604269455" lon="9.156453383228559"><ele>267.0</ele><time>2026-04-19T09:42:20.999Z</time></trkpt><trkpt lat="45.868375755260786" lon="9.156540575060212"><ele>269.2</ele><time>2026-04-19T09:42:21.999Z</time></trkpt><trkpt lat="45.86846063965232" lon="9.1566227426129"><ele>271.4</ele><time>2026-04-19T09:42:22.999Z</time></trkpt><trkpt lat="45.86854043097781" lon="9.156711610642516"><ele>273.6</ele><time>2026-04-19T09:42:23.999Z</time></trkpt><trkpt lat="45.86859905283315" lon="9.156806007043574"><ele>275.8</ele><time>2026-04-19T09:42:24.999Z</time></trkpt><trkpt lat="45.86865784156733" lon="9.156888414747426"><ele>278.0</ele><time>2026-04-19T09:42:25.999Z</time></trkpt><trkpt lat="45.86874005999857" lon="9.156943560977357"><ele>278.0</ele><time>2026-04-19T09:42:26.999Z</time></trkpt><trkpt lat="45.86883591381446" lon="9.156962711904505"><ele>278.0</ele><time>2026-04-19T09:42:27.999Z</time></trkpt><trkpt lat="45.86893731965878" lon="9.15697704193034"><ele>278.0</ele><time>2026-04-19T09:42:28.999Z</time></trkpt><trkpt lat="45.86903254776445" lon="9.157022849336737"><ele>278.0</ele><time>2026-04-19T09:42:29.999Z</time></trkpt><trkpt lat="45.869120474702434" lon="9.15709007059082"><ele>278.0</ele><time>2026-04-19T09:42:30.999Z</time></trkpt><trkpt lat="45.869202999913064" lon="9.157194230391372"><ele>278.0</ele><time>2026-04-19T09:42:31.999Z</time></trkpt><trkpt lat="45.869269143555734" lon="9.157316942494157"><ele>278.0</ele><time>2026-04-19T09:42:32.999Z</time></trkpt><trkpt lat="45.86931222651336" lon="9.157446272981415"><ele>278.0</ele><time>2026-04-19T09:42:33.999Z</time></trkpt><trkpt lat="45.86934060380549" lon="9.157566169773087"><ele>278.0</ele><time>2026-04-19T09:42:34.999Z</time></trkpt><trkpt lat="45.86939409916931" lon="9.157670699467753"><ele>278.0</ele><time>2026-04-19T09:42:35.999Z</time></trkpt><trkpt lat="45.869462768902295" lon="9.157737447293657"><ele>281.4</ele><time>2026-04-19T09:42:36.999Z</time></trkpt><trkpt lat="45.8695603155144" lon="9.157770561578037"><ele>284.8</ele><time>2026-04-19T09:42:37.999Z</time></trkpt><trkpt lat="45.86965633918609" lon="9.157749937206928"><ele>288.2</ele><time>2026-04-19T09:42:38.999Z</time></trkpt><trkpt lat="45.86974076622919" lon="9.15771352817146"><ele>291.6</ele><time>2026-04-19T09:42:39.999Z</time></trkpt><trkpt lat="45.86982594490721" lon="9.157692429410888"><ele>295.0</ele><time>2026-04-19T09:42:40.999Z</time></trkpt><trkpt lat="45.86991342751645" lon="9.157702453443367"><ele>295.0</ele><time>2026-04-19T09:42:41.999Z</time></trkpt><trkpt lat="45.870002797569335" lon="9.157737454866577"><ele>295.0</ele><time>2026-04-19T09:42:42.999Z</time></trkpt><trkpt lat="45.87009164103271" lon="9.157807858788129"><ele>295.0</ele><time>2026-04-19T09:42:43.999Z</time></trkpt><trkpt lat="45.8701721902841" lon="9.157859459392336"><ele>295.0</ele><time>2026-04-19T09:42:44.999Z</time></trkpt><trkpt lat="45.870267777762535" lon="9.157868716180046"><ele>295.0</ele><time>2026-04-19T09:42:45.999Z</time></trkpt><trkpt lat="45.87036907060574" lon="9.15784126645903"><ele>291.0</ele><time>2026-04-19T09:42:46.999Z</time></trkpt><trkpt lat="45.87048459392141" lon="9.157817839576346"><ele>287.0</ele><time>2026-04-19T09:42:47.999Z</time></trkpt><trkpt lat="45.870598579741014" lon="9.157827396609973"><ele>283.0</ele><time>2026-04-19T09:42:48.999Z</time></trkpt><trkpt lat="45.87071532264295" lon="9.157860683641907"><ele>279.0</ele><time>2026-04-19T09:42:50Z</time></trkpt><trkpt lat="45.870829342854925" lon="9.157886188436986"><ele>279.0</ele><time>2026-04-19T09:42:51Z</time></trkpt><trkpt lat="45.87093942526355" lon="9.157922198910294"><ele>279.0</ele><time>2026-04-19T09:42:52Z</time></trkpt><trkpt lat="45.871040097374646" lon="9.157964156163848"><ele>279.0</ele><time>2026-04-19T09:42:53Z</time></trkpt><trkpt lat="45.871140110573954" lon="9.158004108639247"><ele>279.0</ele><time>2026-04-19T09:42:54Z</time></trkpt><trkpt lat="45.8712406122667" lon="9.158039335331967"><ele>279.0</ele><time>2026-04-19T09:42:55Z</time></trkpt><trkpt lat="45.87133760633805" lon="9.158072912012885"><ele>276.0</ele><time>2026-04-19T09:42:56Z</time></trkpt><trkpt lat="45.87143226126533" lon="9.158100631927256"><ele>273.0</ele><time>2026-04-19T09:42:57Z</time></trkpt><trkpt lat="45.87152062583571" lon="9.158143055746198"><ele>270.0</ele><time>2026-04-19T09:42:58Z</time></trkpt><trkpt lat="45.871612462186405" lon="9.158199797228452"><ele>267.0</ele><time>2026-04-19T09:42:59Z</time></trkpt><trkpt lat="45.871708799919595" lon="9.15825080065995"><ele>264.0</ele><time>2026-04-19T09:43:00Z</time></trkpt><trkpt lat="45.87179029644948" lon="9.158295282632588"><ele>269.0</ele><time>2026-04-19T09:43:01Z</time></trkpt><trkpt lat="45.87187257052257" lon="9.158387294728737"><ele>274.0</ele><time>2026-04-19T09:43:02Z</time></trkpt><trkpt lat="45.871941755081146" lon="9.158419796155533"><ele>279.0</ele><time>2026-04-19T09:43:03Z</time></trkpt><trkpt lat="45.872016039754506" lon="9.158437613977567"><ele>284.0</ele><time>2026-04-19T09:43:04Z</time></trkpt><trkpt lat="45.87208763435275" lon="9.158413651453975"><ele>289.0</ele><time>2026-04-19T09:43:05Z</time></trkpt><trkpt lat="45.87216201371082" lon="9.158358018707505"><ele>294.0</ele><time>2026-04-19T09:43:06Z</time></trkpt><trkpt lat="45.872223875223874" lon="9.158282657599328"><ele>287.8</ele><time>2026-04-19T09:43:07Z</time></trkpt><trkpt lat="45.87227925776069" lon="9.158193885696571"><ele>281.59999999999997</ele><time>2026-04-19T09:43:08Z</time></trkpt><trkpt lat="45.87235086040433" lon="9.158113976014993"><ele>275.4</ele><time>2026-04-19T09:43:09Z</time></trkpt><trkpt lat="45.872447485616185" lon="9.158061220303267"><ele>269.2</ele><time>2026-04-19T09:43:10Z</time></trkpt><trkpt lat="45.872559068321884" lon="9.15804114937073"><ele>263.0</ele><time>2026-04-19T09:43:11Z</time></trkpt><trkpt lat="45.872660363628015" lon="9.158042368045615"><ele>263.0</ele><time>2026-04-19T09:43:12Z</time></trkpt><trkpt lat="45.87275232480433" lon="9.158051317169255"><ele>263.0</ele><time>2026-04-19T09:43:13Z</time></trkpt><trkpt lat="45.87285532330354" lon="9.158045291332067"><ele>263.0</ele><time>2026-04-19T09:43:14Z</time></trkpt><trkpt lat="45.872964427323105" lon="9.15803396784307"><ele>263.0</ele><time>2026-04-19T09:43:15Z</time></trkpt><trkpt lat="45.873076708195235" lon="9.158011900907233"><ele>263.0</ele><time>2026-04-19T09:43:16Z</time></trkpt><trkpt lat="45.87319756220209" lon="9.157995821155053"><ele>263.0</ele><time>2026-04-19T09:43:17Z</time></trkpt><trkpt lat="45.87332436537845" lon="9.157975317546805"><ele>263.0</ele><time>2026-04-19T09:43:18Z</time></trkpt><trkpt lat="45.87344503604987" lon="9.157953845912404"><ele>263.0</ele><time>2026-04-19T09:43:19Z</time></trkpt><trkpt lat="45.87354575180307" lon="9.157930069844488"><ele>263.0</ele><time>2026-04-19T09:43:20Z</time></trkpt><trkpt lat="45.87364497146408" lon="9.157893038955113"><ele>262.8</ele><time>2026-04-19T09:43:21Z</time></trkpt><trkpt lat="45.87374350214816" lon="9.15787634247287"><ele>262.6</ele><time>2026-04-19T09:43:22Z</time></trkpt><trkpt lat="45.87384990799358" lon="9.15786188302092"><ele>262.4</ele><time>2026-04-19T09:43:23Z</time></trkpt><trkpt lat="45.873959443175366" lon="9.157858253836903"><ele>262.2</ele><time>2026-04-19T09:43:24Z</time></trkpt><trkpt lat="45.8740584276706" lon="9.157879550368216"><ele>262.0</ele><time>2026-04-19T09:43:25Z</time></trkpt><trkpt lat="45.87415104897423" lon="9.157911218038691"><ele>262.0</ele><time>2026-04-19T09:43:26Z</time></trkpt><trkpt lat="45.87424487531663" lon="9.157948452575921"><ele>262.0</ele><time>2026-04-19T09:43:27Z</time></trkpt><trkpt lat="45.874332159174116" lon="9.157995583499186"><ele>262.0</ele><time>2026-04-19T09:43:28Z</time></trkpt><trkpt lat="45.874415538741694" lon="9.15802079014859"><ele>262.0</ele><time>2026-04-19T09:43:29Z</time></trkpt><trkpt lat="45.874498071205686" lon="9.158025526898998"><ele>262.0</ele><time>2026-04-19T09:43:30Z</time></trkpt><trkpt lat="45.87457453853692" lon="9.157981409870926"><ele>262.0</ele><time>2026-04-19T09:43:31Z</time></trkpt><trkpt lat="45.87464764601695" lon="9.157891305859842"><ele>266.2</ele><time>2026-04-19T09:43:32Z</time></trkpt><trkpt lat="45.874714682254364" lon="9.15779243784934"><ele>270.4</ele><time>2026-04-19T09:43:33Z</time></trkpt><trkpt lat="45.87477462812624" lon="9.1576812556489"><ele>274.6</ele><time>2026-04-19T09:43:34Z</time></trkpt><trkpt lat="45.87483122740933" lon="9.157581187485683"><ele>278.8</ele><time>2026-04-19T09:43:35Z</time></trkpt><trkpt lat="45.874909029800584" lon="9.157501249967524"><ele>283.0</ele><time>2026-04-19T09:43:36Z</time></trkpt><trkpt lat="45.8749980982715" lon="9.157426434435807"><ele>283.0</ele><time>2026-04-19T09:43:37Z</time></trkpt><trkpt lat="45.87509518055899" lon="9.157369651235078"><ele>283.0</ele><time>2026-04-19T09:43:38Z</time></trkpt><trkpt lat="45.87518839518876" lon="9.157309817453623"><ele>283.0</ele><time>2026-04-19T09:43:39Z</time></trkpt><trkpt lat="45.8752871353991" lon="9.157264462837976"><ele>283.0</ele><time>2026-04-19T09:43:40Z</time></trkpt><trkpt lat="45.87537940799676" lon="9.157231277631507"><ele>283.0</ele><time>2026-04-19T09:43:41Z</time></trkpt><trkpt lat="45.87546063003992" lon="9.157191432797445"><ele>280.8333333333333</ele><time>2026-04-19T09:43:42Z</time></trkpt><trkpt lat="45.875537686756495" lon="9.157149095713024"><ele>278.66666666666663</ele><time>2026-04-19T09:43:43Z</time></trkpt><trkpt lat="45.87561601988946" lon="9.157113176464327"><ele>276.5</ele><time>2026-04-19T09:43:43.999Z</time></trkpt><trkpt lat="45.875697964129635" lon="9.157074189662007"><ele>274.3333333333333</ele><time>2026-04-19T09:43:44.999Z</time></trkpt><trkpt lat="45.875787445140844" lon="9.157039663043571"><ele>272.1666666666667</ele><time>2026-04-19T09:43:45.999Z</time></trkpt><trkpt lat="45.875882879414306" lon="9.157013598547339"><ele>270.0</ele><time>2026-04-19T09:43:46.999Z</time></trkpt><trkpt lat="45.87598712713653" lon="9.15700178992639"><ele>267.6</ele><time>2026-04-19T09:43:47.999Z</time></trkpt><trkpt lat="45.87609411882516" lon="9.157003371003606"><ele>265.2</ele><time>2026-04-19T09:43:48.999Z</time></trkpt><trkpt lat="45.87620977618394" lon="9.157038126854898"><ele>262.8</ele><time>2026-04-19T09:43:49.999Z</time></trkpt><trkpt lat="45.87630976851248" lon="9.15707543225977"><ele>260.4</ele><time>2026-04-19T09:43:50.999Z</time></trkpt><trkpt lat="45.876411605437845" lon="9.157120669010778"><ele>258.0</ele><time>2026-04-19T09:43:51.999Z</time></trkpt><trkpt lat="45.876503865745065" lon="9.157181799435616"><ele>258.0</ele><time>2026-04-19T09:43:52.999Z</time></trkpt><trkpt lat="45.87659066780371" lon="9.157274645761934"><ele>258.0</ele><time>2026-04-19T09:43:53.999Z</time></trkpt><trkpt lat="45.87664930049224" lon="9.157395864678012"><ele>258.0</ele><time>2026-04-19T09:43:54.999Z</time></trkpt><trkpt lat="45.87669616958935" lon="9.157505509691761"><ele>258.0</ele><time>2026-04-19T09:43:55.999Z</time></trkpt><trkpt lat="45.87674521145593" lon="9.157623165646307"><ele>258.0</ele><time>2026-04-19T09:43:56.999Z</time></trkpt><trkpt lat="45.876760911081796" lon="9.15775654096129"><ele>258.8333333333333</ele><time>2026-04-19T09:43:57.999Z</time></trkpt><trkpt lat="45.87675639696445" lon="9.1578798766928"><ele>259.6666666666667</ele><time>2026-04-19T09:43:58.999Z</time></trkpt><trkpt lat="45.87678736462124" lon="9.15799405840481"><ele>260.5</ele><time>2026-04-19T09:43:59.999Z</time></trkpt><trkpt lat="45.87681970269895" lon="9.158091020854018"><ele>261.33333333333337</ele><time>2026-04-19T09:44:00.999Z</time></trkpt><trkpt lat="45.876875738562674" lon="9.158161302271203"><ele>262.1666666666667</ele><time>2026-04-19T09:44:01.999Z</time></trkpt><trkpt lat="45.8769498310258" lon="9.15823157823751"><ele>263.0</ele><time>2026-04-19T09:44:02.999Z</time></trkpt><trkpt lat="45.87705144449949" lon="9.158216309603523"><ele>263.0</ele><time>2026-04-19T09:44:03.999Z</time></trkpt><trkpt lat="45.87713971576231" lon="9.15817688661126"><ele>263.0</ele><time>2026-04-19T09:44:04.999Z</time></trkpt><trkpt lat="45.87720682202856" lon="9.158088142836881"><ele>263.0</ele><time>2026-04-19T09:44:05.999Z</time></trkpt><trkpt lat="45.877271156455805" lon="9.158014781608621"><ele>263.0</ele><time>2026-04-19T09:44:06.999Z</time></trkpt><trkpt lat="45.87733746896272" lon="9.157950303094555"><ele>263.0</ele><time>2026-04-19T09:44:07.999Z</time></trkpt><trkpt lat="45.877396238088" lon="9.157880516061873"><ele>263.0</ele><time>2026-04-19T09:44:08.999Z</time></trkpt><trkpt lat="45.877463964321464" lon="9.157812167703213"><ele>263.0</ele><time>2026-04-19T09:44:09.999Z</time></trkpt><trkpt lat="45.877541448506676" lon="9.15775030557852"><ele>263.0</ele><time>2026-04-19T09:44:10.999Z</time></trkpt><trkpt lat="45.877627643329554" lon="9.157710632117107"><ele>263.0</ele><time>2026-04-19T09:44:11.999Z</time></trkpt><trkpt lat="45.87771597492765" lon="9.157700335989505"><ele>263.0</ele><time>2026-04-19T09:44:12.999Z</time></trkpt><trkpt lat="45.87780242654102" lon="9.157688151017677"><ele>263.0</ele><time>2026-04-19T09:44:13.999Z</time></trkpt><trkpt lat="45.87788361750952" lon="9.15774526565455"><ele>263.0</ele><time>2026-04-19T09:44:14.999Z</time></trkpt><trkpt lat="45.87796169284287" lon="9.157769421998687"><ele>262.1666666666667</ele><time>2026-04-19T09:44:15.999Z</time></trkpt><trkpt lat="45.8780323866775" lon="9.15779210836493"><ele>261.33333333333337</ele><time>2026-04-19T09:44:16.999Z</time></trkpt><trkpt lat="45.87810074262706" lon="9.15779004261034"><ele>260.5</ele><time>2026-04-19T09:44:17.999Z</time></trkpt><trkpt lat="45.87815819003909" lon="9.157832429173279"><ele>259.6666666666667</ele><time>2026-04-19T09:44:18.999Z</time></trkpt><trkpt lat="45.87828559496985" lon="9.15786977299866"><ele>258.8333333333333</ele><time>2026-04-19T09:44:20.999Z</time></trkpt><trkpt lat="45.87835754579791" lon="9.157889395951601"><ele>258.0</ele><time>2026-04-19T09:44:21.999Z</time></trkpt><trkpt lat="45.878422800461344" lon="9.157908216682214"><ele>257.3333333333333</ele><time>2026-04-19T09:44:22.999Z</time></trkpt><trkpt lat="45.8784996834456" lon="9.157909969558823"><ele>256.6666666666667</ele><time>2026-04-19T09:44:24.999Z</time></trkpt><trkpt lat="45.878566669957046" lon="9.15795398328813"><ele>256.0</ele><time>2026-04-19T09:44:27.999Z</time></trkpt><trkpt lat="45.87862858976709" lon="9.157973680761367"><ele>255.33333333333334</ele><time>2026-04-19T09:44:30.999Z</time></trkpt><trkpt lat="45.87869406302777" lon="9.15796982355782"><ele>254.66666666666669</ele><time>2026-04-19T09:44:32.999Z</time></trkpt><trkpt lat="45.87880459612366" lon="9.157995711333225"><ele>254.0</ele><time>2026-04-19T09:44:34.999Z</time></trkpt><trkpt lat="45.87887082745617" lon="9.158004521608806"><ele>254.00000000000003</ele><time>2026-04-19T09:44:35.999Z</time></trkpt><trkpt lat="45.87894351026339" lon="9.157981846907983"><ele>254.0</ele><time>2026-04-19T09:44:36.999Z</time></trkpt><trkpt lat="45.879017032113154" lon="9.157975799954077"><ele>254.0</ele><time>2026-04-19T09:44:37.999Z</time></trkpt><trkpt lat="45.879093969508055" lon="9.157974321491052"><ele>254.0</ele><time>2026-04-19T09:44:38.999Z</time></trkpt><trkpt lat="45.879169889530715" lon="9.157944812433664"><ele>254.00000000000003</ele><time>2026-04-19T09:44:39.999Z</time></trkpt><trkpt lat="45.879243471173574" lon="9.15790621838971"><ele>254.0</ele><time>2026-04-19T09:44:40.999Z</time></trkpt><trkpt lat="45.8793259662412" lon="9.15787192341878"><ele>254.50000000000003</ele><time>2026-04-19T09:44:41.999Z</time></trkpt><trkpt lat="45.87940646559713" lon="9.157826548766822"><ele>255.0</ele><time>2026-04-19T09:44:42.999Z</time></trkpt><trkpt lat="45.87948601310407" lon="9.1577983195681"><ele>255.5</ele><time>2026-04-19T09:44:43.999Z</time></trkpt><trkpt lat="45.87957780895276" lon="9.157757849286442"><ele>256.0</ele><time>2026-04-19T09:44:44.999Z</time></trkpt><trkpt lat="45.879669196364475" lon="9.157722207030675"><ele>256.5</ele><time>2026-04-19T09:44:45.999Z</time></trkpt><trkpt lat="45.87975089620255" lon="9.157691967551049"><ele>257.0</ele><time>2026-04-19T09:44:46.999Z</time></trkpt><trkpt lat="45.87982979032553" lon="9.157671023109174"><ele>257.0</ele><time>2026-04-19T09:44:47.999Z</time></trkpt><trkpt lat="45.879911763087094" lon="9.15765164425853"><ele>257.0</ele><time>2026-04-19T09:44:48.999Z</time></trkpt><trkpt lat="45.879994211319236" lon="9.15762852644223"><ele>257.0</ele><time>2026-04-19T09:44:49.999Z</time></trkpt><trkpt lat="45.88008693587683" lon="9.157631638317081"><ele>257.0</ele><time>2026-04-19T09:44:50.999Z</time></trkpt><trkpt lat="45.88017753978064" lon="9.157636946993762"><ele>257.0</ele><time>2026-04-19T09:44:51.999Z</time></trkpt><trkpt lat="45.88027098799076" lon="9.157633839512187"><ele>257.0</ele><time>2026-04-19T09:44:52.999Z</time></trkpt><trkpt lat="45.88036482438579" lon="9.157633533630372"><ele>256.5</ele><time>2026-04-19T09:44:53.999Z</time></trkpt><trkpt lat="45.88045690692222" lon="9.157644974092975"><ele>256.0</ele><time>2026-04-19T09:44:54.999Z</time></trkpt><trkpt lat="45.8805462687484" lon="9.15764994115855"><ele>255.5</ele><time>2026-04-19T09:44:56Z</time></trkpt><trkpt lat="45.8806356075691" lon="9.157657679395427"><ele>255.0</ele><time>2026-04-19T09:44:57Z</time></trkpt><trkpt lat="45.88072307105896" lon="9.157669230169109"><ele>254.50000000000003</ele><time>2026-04-19T09:44:58Z</time></trkpt><trkpt lat="45.880809409941726" lon="9.157693622394524"><ele>254.0</ele><time>2026-04-19T09:44:59Z</time></trkpt><trkpt lat="45.88090494952072" lon="9.157735490930408"><ele>254.79999999999998</ele><time>2026-04-19T09:45:00Z</time></trkpt><trkpt lat="45.8810033361398" lon="9.157785282781695"><ele>255.59999999999997</ele><time>2026-04-19T09:45:01Z</time></trkpt><trkpt lat="45.88109666949408" lon="9.157850333595652"><ele>256.4</ele><time>2026-04-19T09:45:02Z</time></trkpt><trkpt lat="45.88118689401339" lon="9.157905336516885"><ele>257.2</ele><time>2026-04-19T09:45:03Z</time></trkpt><trkpt lat="45.881273373475146" lon="9.157937647830899"><ele>258.0</ele><time>2026-04-19T09:45:04Z</time></trkpt><trkpt lat="45.88135804919733" lon="9.157941294745445"><ele>258.0</ele><time>2026-04-19T09:45:05Z</time></trkpt><trkpt lat="45.88144540247595" lon="9.157929709374491"><ele>258.0</ele><time>2026-04-19T09:45:06Z</time></trkpt><trkpt lat="45.881522131789254" lon="9.157890178650327"><ele>258.0</ele><time>2026-04-19T09:45:07Z</time></trkpt><trkpt lat="45.88157630513871" lon="9.157815169675608"><ele>258.0</ele><time>2026-04-19T09:45:08Z</time></trkpt><trkpt lat="45.88161533911824" lon="9.157705140322673"><ele>258.0</ele><time>2026-04-19T09:45:09Z</time></trkpt><trkpt lat="45.881655182697365" lon="9.15759313925135"><ele>258.0</ele><time>2026-04-19T09:45:10Z</time></trkpt><trkpt lat="45.88173312398229" lon="9.157498092673539"><ele>259.2</ele><time>2026-04-19T09:45:11Z</time></trkpt><trkpt lat="45.881828257857315" lon="9.157428623578637"><ele>260.4</ele><time>2026-04-19T09:45:12Z</time></trkpt><trkpt lat="45.88193072595974" lon="9.157375472074033"><ele>261.59999999999997</ele><time>2026-04-19T09:45:13Z</time></trkpt><trkpt lat="45.88203240910442" lon="9.157339885584177"><ele>262.8</ele><time>2026-04-19T09:45:14Z</time></trkpt><trkpt lat="45.88213487234595" lon="9.15730999635966"><ele>264.0</ele><time>2026-04-19T09:45:15Z</time></trkpt><trkpt lat="45.882241807908386" lon="9.157304217759023"><ele>262.59999999999997</ele><time>2026-04-19T09:45:16Z</time></trkpt><trkpt lat="45.882350774198606" lon="9.157311701137127"><ele>261.2</ele><time>2026-04-19T09:45:17Z</time></trkpt><trkpt lat="45.882449460146056" lon="9.15733064185876"><ele>259.79999999999995</ele><time>2026-04-19T09:45:18Z</time></trkpt><trkpt lat="45.882540616861746" lon="9.157351396212178"><ele>258.4</ele><time>2026-04-19T09:45:19Z</time></trkpt><trkpt lat="45.882634051163286" lon="9.157377433576738"><ele>257.0</ele><time>2026-04-19T09:45:20Z</time></trkpt><trkpt lat="45.882718076153125" lon="9.157435701334375"><ele>257.0</ele><time>2026-04-19T09:45:21Z</time></trkpt><trkpt lat="45.88278590072596" lon="9.157534276947684"><ele>257.0</ele><time>2026-04-19T09:45:22Z</time></trkpt><trkpt lat="45.882844080179204" lon="9.157639657881546"><ele>257.0</ele><time>2026-04-19T09:45:23Z</time></trkpt><trkpt lat="45.8828908867107" lon="9.157755265541121"><ele>257.0</ele><time>2026-04-19T09:45:24Z</time></trkpt><trkpt lat="45.88293658182016" lon="9.157839942657201"><ele>257.0</ele><time>2026-04-19T09:45:25Z</time></trkpt><trkpt lat="45.8830013323877" lon="9.157907338862637"><ele>257.0</ele><time>2026-04-19T09:45:26Z</time></trkpt><trkpt lat="45.883084451665084" lon="9.157945996467916"><ele>257.0</ele><time>2026-04-19T09:45:27Z</time></trkpt><trkpt lat="45.883178434826306" lon="9.157945849465708"><ele>257.0</ele><time>2026-04-19T09:45:28Z</time></trkpt><trkpt lat="45.88326609081132" lon="9.157948377278759"><ele>257.0</ele><time>2026-04-19T09:45:29Z</time></trkpt><trkpt lat="45.88334643792941" lon="9.157958684109685"><ele>257.0</ele><time>2026-04-19T09:45:30Z</time></trkpt><trkpt lat="45.88343153574823" lon="9.157949176381592"><ele>257.0</ele><time>2026-04-19T09:45:31Z</time></trkpt><trkpt lat="45.88350404695756" lon="9.157891393060776"><ele>257.0</ele><time>2026-04-19T09:45:32Z</time></trkpt><trkpt lat="45.883545870051314" lon="9.157772368087967"><ele>254.8</ele><time>2026-04-19T09:45:33Z</time></trkpt><trkpt lat="45.88358629901259" lon="9.157655944693614"><ele>252.6</ele><time>2026-04-19T09:45:34Z</time></trkpt><trkpt lat="45.88361186989779" lon="9.157533316587164"><ele>250.40000000000003</ele><time>2026-04-19T09:45:35Z</time></trkpt><trkpt lat="45.88364038590747" lon="9.157399056718978"><ele>248.20000000000002</ele><time>2026-04-19T09:45:36Z</time></trkpt><trkpt lat="45.88371314023702" lon="9.15731466491452"><ele>246.0</ele><time>2026-04-19T09:45:37Z</time></trkpt><trkpt lat="45.8837996294873" lon="9.157234305821353"><ele>246.0</ele><time>2026-04-19T09:45:38Z</time></trkpt><trkpt lat="45.8838948915132" lon="9.157162517654264"><ele>246.0</ele><time>2026-04-19T09:45:39Z</time></trkpt><trkpt lat="45.88400813380045" lon="9.157121424370775"><ele>246.0</ele><time>2026-04-19T09:45:40Z</time></trkpt><trkpt lat="45.884114050429254" lon="9.157038687544205"><ele>246.0</ele><time>2026-04-19T09:45:41Z</time></trkpt><trkpt lat="45.884224056298045" lon="9.156997744893761"><ele>248.0</ele><time>2026-04-19T09:45:42Z</time></trkpt><trkpt lat="45.88431663504225" lon="9.156943221594195"><ele>250.00000000000003</ele><time>2026-04-19T09:45:43Z</time></trkpt><trkpt lat="45.88439948725675" lon="9.156891718308653"><ele>252.00000000000003</ele><time>2026-04-19T09:45:44Z</time></trkpt><trkpt lat="45.88449109405" lon="9.15684415335127"><ele>254.0</ele><time>2026-04-19T09:45:45Z</time></trkpt><trkpt lat="45.884585376718455" lon="9.156796988654976"><ele>256.0</ele><time>2026-04-19T09:45:46Z</time></trkpt><trkpt lat="45.88469571324059" lon="9.156806470029188"><ele>256.0</ele><time>2026-04-19T09:45:47Z</time></trkpt><trkpt lat="45.88480232563237" lon="9.156816767914092"><ele>256.0</ele><time>2026-04-19T09:45:48Z</time></trkpt><trkpt lat="45.884892515379626" lon="9.156820199385216"><ele>256.0</ele><time>2026-04-19T09:45:49Z</time></trkpt><trkpt lat="45.88498401328447" lon="9.156837735537668"><ele>256.0</ele><time>2026-04-19T09:45:50Z</time></trkpt><trkpt lat="45.88508171340575" lon="9.156836597448462"><ele>256.0</ele><time>2026-04-19T09:45:51Z</time></trkpt><trkpt lat="45.885181591124145" lon="9.156836190952486"><ele>255.83333333333331</ele><time>2026-04-19T09:45:51.999Z</time></trkpt><trkpt lat="45.88526997120743" lon="9.156835812217901"><ele>255.66666666666666</ele><time>2026-04-19T09:45:52.999Z</time></trkpt><trkpt lat="45.88535980539392" lon="9.156835427250014"><ele>255.5</ele><time>2026-04-19T09:45:53.999Z</time></trkpt><trkpt lat="45.88544813404045" lon="9.15683431919435"><ele>255.33333333333331</ele><time>2026-04-19T09:45:54.999Z</time></trkpt><trkpt lat="45.885532555246854" lon="9.156832511175649"><ele>255.16666666666666</ele><time>2026-04-19T09:45:55.999Z</time></trkpt><trkpt lat="45.88561565440446" lon="9.15684069534606"><ele>255.0</ele><time>2026-04-19T09:45:56.999Z</time></trkpt><trkpt lat="45.88570418660867" lon="9.156862345091726"><ele>255.0</ele><time>2026-04-19T09:45:57.999Z</time></trkpt><trkpt lat="45.8857905995561" lon="9.15690115326441"><ele>255.0</ele><time>2026-04-19T09:45:58.999Z</time></trkpt><trkpt lat="45.88588687341247" lon="9.156950374851467"><ele>255.0</ele><time>2026-04-19T09:45:59.999Z</time></trkpt><trkpt lat="45.885987053972336" lon="9.156999967011808"><ele>255.0</ele><time>2026-04-19T09:46:00.999Z</time></trkpt><trkpt lat="45.88608243332893" lon="9.157043194186592"><ele>255.0</ele><time>2026-04-19T09:46:01.999Z</time></trkpt><trkpt lat="45.88617538913265" lon="9.157061163026755"><ele>253.2</ele><time>2026-04-19T09:46:02.999Z</time></trkpt><trkpt lat="45.88625925640504" lon="9.157119169582604"><ele>251.4</ele><time>2026-04-19T09:46:03.999Z</time></trkpt><trkpt lat="45.88634774348683" lon="9.15715406994081"><ele>249.60000000000002</ele><time>2026-04-19T09:46:04.999Z</time></trkpt><trkpt lat="45.886439404372275" lon="9.157197053524484"><ele>247.8</ele><time>2026-04-19T09:46:05.999Z</time></trkpt><trkpt lat="45.88653258372793" lon="9.157258667249145"><ele>246.0</ele><time>2026-04-19T09:46:06.999Z</time></trkpt><trkpt lat="45.88662964447106" lon="9.157302884566091"><ele>246.0</ele><time>2026-04-19T09:46:07.999Z</time></trkpt><trkpt lat="45.88673612374359" lon="9.15735002538586"><ele>246.00000000000003</ele><time>2026-04-19T09:46:08.999Z</time></trkpt><trkpt lat="45.886839270022314" lon="9.157402139834213"><ele>246.00000000000003</ele><time>2026-04-19T09:46:09.999Z</time></trkpt><trkpt lat="45.88692995061692" lon="9.15744878761971"><ele>246.0</ele><time>2026-04-19T09:46:10.999Z</time></trkpt><trkpt lat="45.88702065475747" lon="9.157480188889174"><ele>246.0</ele><time>2026-04-19T09:46:11.999Z</time></trkpt><trkpt lat="45.88710875276184" lon="9.157515767730782"><ele>253.0</ele><time>2026-04-19T09:46:12.999Z</time></trkpt><trkpt lat="45.88718119812458" lon="9.157587596815588"><ele>260.0</ele><time>2026-04-19T09:46:13.999Z</time></trkpt><trkpt lat="45.887269522928506" lon="9.157666579281365"><ele>267.0</ele><time>2026-04-19T09:46:14.999Z</time></trkpt><trkpt lat="45.88734183728836" lon="9.157750085861872"><ele>274.0</ele><time>2026-04-19T09:46:15.999Z</time></trkpt><trkpt lat="45.88740598596566" lon="9.157838375281022"><ele>281.0</ele><time>2026-04-19T09:46:16.999Z</time></trkpt><trkpt lat="45.88746574735335" lon="9.15789796983512"><ele>288.0</ele><time>2026-04-19T09:46:17.999Z</time></trkpt><trkpt lat="45.88753571562041" lon="9.157886530177286"><ele>289.0</ele><time>2026-04-19T09:46:18.999Z</time></trkpt><trkpt lat="45.88760528852879" lon="9.157865846327683"><ele>290.0</ele><time>2026-04-19T09:46:19.999Z</time></trkpt><trkpt lat="45.887664357641114" lon="9.15780297785275"><ele>291.0</ele><time>2026-04-19T09:46:20.999Z</time></trkpt><trkpt lat="45.88770392748389" lon="9.157721462258536"><ele>292.0</ele><time>2026-04-19T09:46:21.999Z</time></trkpt><trkpt lat="45.88772932715383" lon="9.157598156325435"><ele>293.0</ele><time>2026-04-19T09:46:22.999Z</time></trkpt><trkpt lat="45.887765727507066" lon="9.157466543454689"><ele>294.0</ele><time>2026-04-19T09:46:23.999Z</time></trkpt><trkpt lat="45.88780744626264" lon="9.157342178250738"><ele>294.0</ele><time>2026-04-19T09:46:24.999Z</time></trkpt><trkpt lat="45.887844797141675" lon="9.157208309359557"><ele>294.0</ele><time>2026-04-19T09:46:25.999Z</time></trkpt><trkpt lat="45.88790509919768" lon="9.157091144460358"><ele>294.0</ele><time>2026-04-19T09:46:26.999Z</time></trkpt><trkpt lat="45.887924851401294" lon="9.156938422877408"><ele>294.0</ele><time>2026-04-19T09:46:27.999Z</time></trkpt><trkpt lat="45.88797149808452" lon="9.156813268540054"><ele>294.0</ele><time>2026-04-19T09:46:28.999Z</time></trkpt><trkpt lat="45.88800538072278" lon="9.156694802317274"><ele>294.0</ele><time>2026-04-19T09:46:29.999Z</time></trkpt><trkpt lat="45.88801927402255" lon="9.156568281752367"><ele>294.0</ele><time>2026-04-19T09:46:30.999Z</time></trkpt><trkpt lat="45.88804208811574" lon="9.156441390037635"><ele>294.0</ele><time>2026-04-19T09:46:31.999Z</time></trkpt><trkpt lat="45.88804545537316" lon="9.156318257977187"><ele>294.0</ele><time>2026-04-19T09:46:32.999Z</time></trkpt><trkpt lat="45.88807155824102" lon="9.156212537563114"><ele>294.0</ele><time>2026-04-19T09:46:33.999Z</time></trkpt><trkpt lat="45.888135558196694" lon="9.156118246487624"><ele>294.0</ele><time>2026-04-19T09:46:34.999Z</time></trkpt><trkpt lat="45.88821873045443" lon="9.156058158437455"><ele>291.0</ele><time>2026-04-19T09:46:35.999Z</time></trkpt><trkpt lat="45.88831281987589" lon="9.156059847193271"><ele>288.0</ele><time>2026-04-19T09:46:36.999Z</time></trkpt><trkpt lat="45.888404356887854" lon="9.156034188318982"><ele>285.0</ele><time>2026-04-19T09:46:37.999Z</time></trkpt><trkpt lat="45.88849450381039" lon="9.156039494731258"><ele>282.0</ele><time>2026-04-19T09:46:38.999Z</time></trkpt><trkpt lat="45.88858029411977" lon="9.156044513944632"><ele>279.0</ele><time>2026-04-19T09:46:39.999Z</time></trkpt><trkpt lat="45.88865985105531" lon="9.156047506549223"><ele>276.0</ele><time>2026-04-19T09:46:40.999Z</time></trkpt><trkpt lat="45.88874409811893" lon="9.156060092031518"><ele>276.0</ele><time>2026-04-19T09:46:41.999Z</time></trkpt><trkpt lat="45.88883894428571" lon="9.156084518100824"><ele>276.0</ele><time>2026-04-19T09:46:42.999Z</time></trkpt><trkpt lat="45.888937656520426" lon="9.156101754524224"><ele>276.0</ele><time>2026-04-19T09:46:43.999Z</time></trkpt><trkpt lat="45.8890377763719" lon="9.156158960202818"><ele>276.0</ele><time>2026-04-19T09:46:44.999Z</time></trkpt><trkpt lat="45.88913598350164" lon="9.156180318832838"><ele>276.0</ele><time>2026-04-19T09:46:45.999Z</time></trkpt><trkpt lat="45.889230670116625" lon="9.15620175653627"><ele>276.40000000000003</ele><time>2026-04-19T09:46:46.999Z</time></trkpt><trkpt lat="45.88931279617918" lon="9.156239482526582"><ele>276.8</ele><time>2026-04-19T09:46:47.999Z</time></trkpt><trkpt lat="45.88939414005381" lon="9.1562190104665"><ele>277.20000000000005</ele><time>2026-04-19T09:46:48.999Z</time></trkpt><trkpt lat="45.88947506921196" lon="9.156178607602243"><ele>277.6</ele><time>2026-04-19T09:46:49.999Z</time></trkpt><trkpt lat="45.889562704822204" lon="9.156105522464236"><ele>278.0</ele><time>2026-04-19T09:46:50.999Z</time></trkpt><trkpt lat="45.88965236603646" lon="9.156035474078514"><ele>278.0</ele><time>2026-04-19T09:46:51.999Z</time></trkpt><trkpt lat="45.889753748928285" lon="9.156002849739593"><ele>278.0</ele><time>2026-04-19T09:46:52.999Z</time></trkpt><trkpt lat="45.88986295024096" lon="9.155997062089492"><ele>278.0</ele><time>2026-04-19T09:46:53.999Z</time></trkpt><trkpt lat="45.88996623052508" lon="9.156018768411569"><ele>278.0</ele><time>2026-04-19T09:46:54.999Z</time></trkpt><trkpt lat="45.890067688688426" lon="9.156052423326694"><ele>278.0</ele><time>2026-04-19T09:46:55.999Z</time></trkpt><trkpt lat="45.8901694240399" lon="9.15609872633781"><ele>281.2</ele><time>2026-04-19T09:46:56.999Z</time></trkpt><trkpt lat="45.89026903754617" lon="9.156146121824486"><ele>284.4</ele><time>2026-04-19T09:46:57.999Z</time></trkpt><trkpt lat="45.890363418083545" lon="9.156195687865155"><ele>287.59999999999997</ele><time>2026-04-19T09:46:58.999Z</time></trkpt><trkpt lat="45.89045425544174" lon="9.15622494599059"><ele>290.8</ele><time>2026-04-19T09:46:59.999Z</time></trkpt><trkpt lat="45.890549638602465" lon="9.156214257715982"><ele>294.0</ele><time>2026-04-19T09:47:00.999Z</time></trkpt><trkpt lat="45.890649726677104" lon="9.156143232271708"><ele>294.0</ele><time>2026-04-19T09:47:02Z</time></trkpt><trkpt lat="45.89072515821189" lon="9.156001472047656"><ele>294.0</ele><time>2026-04-19T09:47:03Z</time></trkpt><trkpt lat="45.89078834444754" lon="9.155882122606796"><ele>294.0</ele><time>2026-04-19T09:47:04Z</time></trkpt><trkpt lat="45.89086301211041" lon="9.155783642078655"><ele>294.0</ele><time>2026-04-19T09:47:05Z</time></trkpt><trkpt lat="45.8909446713451" lon="9.155701507776175"><ele>294.0</ele><time>2026-04-19T09:47:06Z</time></trkpt><trkpt lat="45.89102858257818" lon="9.155625306507412"><ele>289.59999999999997</ele><time>2026-04-19T09:47:07Z</time></trkpt><trkpt lat="45.89111666376456" lon="9.155538913873157"><ele>285.2</ele><time>2026-04-19T09:47:08Z</time></trkpt><trkpt lat="45.89120124166326" lon="9.15544433961786"><ele>280.79999999999995</ele><time>2026-04-19T09:47:09Z</time></trkpt><trkpt lat="45.89129051775011" lon="9.155362383777886"><ele>276.4</ele><time>2026-04-19T09:47:10Z</time></trkpt><trkpt lat="45.891393670447" lon="9.155299372022643"><ele>272.0</ele><time>2026-04-19T09:47:11Z</time></trkpt><trkpt lat="45.89150456475489" lon="9.155257886592924"><ele>272.0</ele><time>2026-04-19T09:47:12Z</time></trkpt><trkpt lat="45.89162584351383" lon="9.155246094170563"><ele>272.0</ele><time>2026-04-19T09:47:13Z</time></trkpt><trkpt lat="45.891748109933985" lon="9.155215691238293"><ele>272.0</ele><time>2026-04-19T09:47:14Z</time></trkpt><trkpt lat="45.891866760968846" lon="9.15518413213359"><ele>272.0</ele><time>2026-04-19T09:47:15Z</time></trkpt><trkpt lat="45.8919828281506" lon="9.15514448928341"><ele>274.25</ele><time>2026-04-19T09:47:16Z</time></trkpt><trkpt lat="45.892096595254216" lon="9.155112651310834"><ele>276.5</ele><time>2026-04-19T09:47:17Z</time></trkpt><trkpt lat="45.89222239520543" lon="9.155120376414205"><ele>278.75</ele><time>2026-04-19T09:47:18Z</time></trkpt><trkpt lat="45.89235167479555" lon="9.155119639698256"><ele>281.0</ele><time>2026-04-19T09:47:19Z</time></trkpt><trkpt lat="45.892477305601524" lon="9.15511323536107"><ele>281.25</ele><time>2026-04-19T09:47:20Z</time></trkpt><trkpt lat="45.89259890882333" lon="9.15509797044547"><ele>281.5</ele><time>2026-04-19T09:47:21Z</time></trkpt><trkpt lat="45.89271334852303" lon="9.1551000363616"><ele>281.75</ele><time>2026-04-19T09:47:22Z</time></trkpt><trkpt lat="45.89282507248336" lon="9.155092002069972"><ele>282.0</ele><time>2026-04-19T09:47:23Z</time></trkpt><trkpt lat="45.892928741359" lon="9.15508661919083"><ele>282.0</ele><time>2026-04-19T09:47:24Z</time></trkpt><trkpt lat="45.893028597757365" lon="9.155080176373692"><ele>282.0</ele><time>2026-04-19T09:47:25Z</time></trkpt><trkpt lat="45.8931243500641" lon="9.155073212307803"><ele>282.0</ele><time>2026-04-19T09:47:26Z</time></trkpt><trkpt lat="45.89320969444259" lon="9.155050550307012"><ele>282.0</ele><time>2026-04-19T09:47:27Z</time></trkpt><trkpt lat="45.89328941655853" lon="9.15500145083163"><ele>282.0</ele><time>2026-04-19T09:47:28Z</time></trkpt><trkpt lat="45.893356828858984" lon="9.154912102510117"><ele>279.0</ele><time>2026-04-19T09:47:29Z</time></trkpt><trkpt lat="45.89341974641995" lon="9.154798810785842"><ele>276.0</ele><time>2026-04-19T09:47:30Z</time></trkpt><trkpt lat="45.89349010371755" lon="9.154703731821982"><ele>273.0</ele><time>2026-04-19T09:47:31Z</time></trkpt><trkpt lat="45.89356222919827" lon="9.154607595553891"><ele>270.0</ele><time>2026-04-19T09:47:32Z</time></trkpt><trkpt lat="45.893635610926765" lon="9.15450257151588"><ele>267.0</ele><time>2026-04-19T09:47:33Z</time></trkpt><trkpt lat="45.893706143121214" lon="9.154416908670845"><ele>267.0</ele><time>2026-04-19T09:47:34Z</time></trkpt><trkpt lat="45.89377770749833" lon="9.154339900487042"><ele>267.0</ele><time>2026-04-19T09:47:35Z</time></trkpt><trkpt lat="45.893848147337515" lon="9.154270574922897"><ele>267.0</ele><time>2026-04-19T09:47:36Z</time></trkpt><trkpt lat="45.8939278516484" lon="9.154225222852038"><ele>267.0</ele><time>2026-04-19T09:47:37Z</time></trkpt><trkpt lat="45.89402535704291" lon="9.154219734933816"><ele>267.0</ele><time>2026-04-19T09:47:38Z</time></trkpt><trkpt lat="45.89412537741352" lon="9.154254355574416"><ele>267.0</ele><time>2026-04-19T09:47:39Z</time></trkpt><trkpt lat="45.894213539824854" lon="9.154327498424136"><ele>267.0</ele><time>2026-04-19T09:47:40Z</time></trkpt><trkpt lat="45.894262726279955" lon="9.15445432433307"><ele>267.0</ele><time>2026-04-19T09:47:41Z</time></trkpt><trkpt lat="45.89431269321415" lon="9.154567711889312"><ele>267.0</ele><time>2026-04-19T09:47:42Z</time></trkpt><trkpt lat="45.89436006257303" lon="9.154698278585306"><ele>267.0</ele><time>2026-04-19T09:47:43Z</time></trkpt><trkpt lat="45.89441851694534" lon="9.154811790846633"><ele>266.3333333333333</ele><time>2026-04-19T09:47:44Z</time></trkpt><trkpt lat="45.89445781203887" lon="9.15493105137802"><ele>265.6666666666667</ele><time>2026-04-19T09:47:45Z</time></trkpt><trkpt lat="45.89448509643705" lon="9.155048041183099"><ele>265.0</ele><time>2026-04-19T09:47:46Z</time></trkpt><trkpt lat="45.89454489110522" lon="9.15514379569537"><ele>264.33333333333337</ele><time>2026-04-19T09:47:47Z</time></trkpt><trkpt lat="45.894608690890095" lon="9.155225465443799"><ele>263.6666666666667</ele><time>2026-04-19T09:47:48Z</time></trkpt><trkpt lat="45.89468968702285" lon="9.155280613813417"><ele>263.0</ele><time>2026-04-19T09:47:49Z</time></trkpt><trkpt lat="45.89476561713409" lon="9.155345563527426"><ele>263.0</ele><time>2026-04-19T09:47:50Z</time></trkpt><trkpt lat="45.8948411178531" lon="9.15541046672235"><ele>263.0</ele><time>2026-04-19T09:47:51Z</time></trkpt><trkpt lat="45.89491741241538" lon="9.155484451350915"><ele>263.0</ele><time>2026-04-19T09:47:52Z</time></trkpt><trkpt lat="45.89499659516313" lon="9.155553547457062"><ele>263.0</ele><time>2026-04-19T09:47:53Z</time></trkpt><trkpt lat="45.89507481075725" lon="9.155604452055908"><ele>263.0</ele><time>2026-04-19T09:47:54Z</time></trkpt><trkpt lat="45.89514651629125" lon="9.155630515685177"><ele>263.0</ele><time>2026-04-19T09:47:54.999Z</time></trkpt><trkpt lat="45.895221110739996" lon="9.155616945742594"><ele>263.4</ele><time>2026-04-19T09:47:55.999Z</time></trkpt><trkpt lat="45.895296171024015" lon="9.155576518202494"><ele>263.8</ele><time>2026-04-19T09:47:56.999Z</time></trkpt><trkpt lat="45.89536926141395" lon="9.155502468546894"><ele>264.2</ele><time>2026-04-19T09:47:57.999Z</time></trkpt><trkpt lat="45.89543037292855" lon="9.155390753103775"><ele>264.6</ele><time>2026-04-19T09:47:58.999Z</time></trkpt><trkpt lat="45.895491488861936" lon="9.155276530373712"><ele>265.0</ele><time>2026-04-19T09:47:59.999Z</time></trkpt><trkpt lat="45.89554822279671" lon="9.15517498953578"><ele>265.0</ele><time>2026-04-19T09:48:00.999Z</time></trkpt><trkpt lat="45.89561919098" lon="9.155110857473945"><ele>265.0</ele><time>2026-04-19T09:48:01.999Z</time></trkpt><trkpt lat="45.895701974006215" lon="9.155084124885498"><ele>265.0</ele><time>2026-04-19T09:48:02.999Z</time></trkpt><trkpt lat="45.89578992047854" lon="9.155066638817745"><ele>265.0</ele><time>2026-04-19T09:48:03.999Z</time></trkpt><trkpt lat="45.89588263670947" lon="9.155068419326197"><ele>265.0</ele><time>2026-04-19T09:48:04.999Z</time></trkpt><trkpt lat="45.89598533489581" lon="9.155084153131824"><ele>267.8</ele><time>2026-04-19T09:48:05.999Z</time></trkpt><trkpt lat="45.89608968508003" lon="9.155094930774485"><ele>270.6</ele><time>2026-04-19T09:48:06.999Z</time></trkpt><trkpt lat="45.89618812361719" lon="9.15511495912938"><ele>273.4</ele><time>2026-04-19T09:48:07.999Z</time></trkpt><trkpt lat="45.89627366859203" lon="9.155121134144734"><ele>276.2</ele><time>2026-04-19T09:48:08.999Z</time></trkpt><trkpt lat="45.89635845568127" lon="9.15508675916254"><ele>279.0</ele><time>2026-04-19T09:48:09.999Z</time></trkpt><trkpt lat="45.89645528170824" lon="9.155041945244655"><ele>279.0</ele><time>2026-04-19T09:48:10.999Z</time></trkpt><trkpt lat="45.89655999525492" lon="9.154945371515272"><ele>279.0</ele><time>2026-04-19T09:48:11.999Z</time></trkpt><trkpt lat="45.89668316875146" lon="9.154866894317701"><ele>279.0</ele><time>2026-04-19T09:48:12.999Z</time></trkpt><trkpt lat="45.89680989738343" lon="9.154798323867622"><ele>279.0</ele><time>2026-04-19T09:48:13.999Z</time></trkpt><trkpt lat="45.89693710280469" lon="9.154727788275919"><ele>274.25</ele><time>2026-04-19T09:48:14.999Z</time></trkpt><trkpt lat="45.897055894617345" lon="9.154667874271334"><ele>269.5</ele><time>2026-04-19T09:48:15.999Z</time></trkpt><trkpt lat="45.89716389079854" lon="9.154591478219206"><ele>264.75</ele><time>2026-04-19T09:48:16.999Z</time></trkpt><trkpt lat="45.89724624780294" lon="9.15447096939732"><ele>260.0</ele><time>2026-04-19T09:48:17.999Z</time></trkpt><trkpt lat="45.897324411654644" lon="9.154332637212555"><ele>260.0</ele><time>2026-04-19T09:48:18.999Z</time></trkpt><trkpt lat="45.89742293904226" lon="9.15422029840339"><ele>260.0</ele><time>2026-04-19T09:48:19.999Z</time></trkpt><trkpt lat="45.897531300658045" lon="9.15415808106193"><ele>260.0</ele><time>2026-04-19T09:48:20.999Z</time></trkpt><trkpt lat="45.897642577185" lon="9.154142019719261"><ele>260.0</ele><time>2026-04-19T09:48:21.999Z</time></trkpt><trkpt lat="45.8977524952993" lon="9.15415952780448"><ele>262.0</ele><time>2026-04-19T09:48:22.999Z</time></trkpt><trkpt lat="45.89787024360198" lon="9.154198494458633"><ele>264.0</ele><time>2026-04-19T09:48:23.999Z</time></trkpt><trkpt lat="45.89799381060623" lon="9.154244864537462"><ele>266.0</ele><time>2026-04-19T09:48:24.999Z</time></trkpt><trkpt lat="45.898129931652235" lon="9.15428854801683"><ele>268.0</ele><time>2026-04-19T09:48:25.999Z</time></trkpt><trkpt lat="45.898254922314266" lon="9.154329168302539"><ele>268.0</ele><time>2026-04-19T09:48:26.999Z</time></trkpt><trkpt lat="45.898363206655965" lon="9.154362139178698"><ele>268.0</ele><time>2026-04-19T09:48:27.999Z</time></trkpt><trkpt lat="45.89848230924542" lon="9.154401019638847"><ele>268.0</ele><time>2026-04-19T09:48:28.999Z</time></trkpt><trkpt lat="45.898607802850286" lon="9.154394639419905"><ele>268.0</ele><time>2026-04-19T09:48:29.999Z</time></trkpt><trkpt lat="45.89874544241807" lon="9.154346116767137"><ele>269.66666666666663</ele><time>2026-04-19T09:48:30.999Z</time></trkpt><trkpt lat="45.89889151981297" lon="9.154291191529973"><ele>271.3333333333333</ele><time>2026-04-19T09:48:31.999Z</time></trkpt><trkpt lat="45.899044790245874" lon="9.15422546278194"><ele>273.0</ele><time>2026-04-19T09:48:32.999Z</time></trkpt><trkpt lat="45.89919009840224" lon="9.15415220712689"><ele>270.25</ele><time>2026-04-19T09:48:33.999Z</time></trkpt><trkpt lat="45.899326534034245" lon="9.154093719741892"><ele>267.5</ele><time>2026-04-19T09:48:34.999Z</time></trkpt><trkpt lat="45.89945491809178" lon="9.154037560175352"><ele>264.75</ele><time>2026-04-19T09:48:35.999Z</time></trkpt><trkpt lat="45.899572684620864" lon="9.153966521699031"><ele>262.0</ele><time>2026-04-19T09:48:36.999Z</time></trkpt><trkpt lat="45.89967440305231" lon="9.153859272982027"><ele>262.0</ele><time>2026-04-19T09:48:37.999Z</time></trkpt><trkpt lat="45.89974673574755" lon="9.153718940125106"><ele>262.0</ele><time>2026-04-19T09:48:38.999Z</time></trkpt><trkpt lat="45.89982430021871" lon="9.153577246157422"><ele>262.0</ele><time>2026-04-19T09:48:39.999Z</time></trkpt><trkpt lat="45.89991963850107" lon="9.15347707418031"><ele>262.0</ele><time>2026-04-19T09:48:40.999Z</time></trkpt><trkpt lat="45.90003783918453" lon="9.153404998896802"><ele>264.0</ele><time>2026-04-19T09:48:41.999Z</time></trkpt><trkpt lat="45.90016858506595" lon="9.153360759216723"><ele>266.0</ele><time>2026-04-19T09:48:42.999Z</time></trkpt><trkpt lat="45.900315859904275" lon="9.153349457619969"><ele>268.0</ele><time>2026-04-19T09:48:43.999Z</time></trkpt><trkpt lat="45.90047203335824" lon="9.153329549985214"><ele>270.0</ele><time>2026-04-19T09:48:44.999Z</time></trkpt><trkpt lat="45.90062222320319" lon="9.153301020474595"><ele>270.0</ele><time>2026-04-19T09:48:45.999Z</time></trkpt><trkpt lat="45.90075461373533" lon="9.153285000050232"><ele>270.0</ele><time>2026-04-19T09:48:46.999Z</time></trkpt><trkpt lat="45.90087906603118" lon="9.153282623100361"><ele>270.0</ele><time>2026-04-19T09:48:47.999Z</time></trkpt><trkpt lat="45.90099813708309" lon="9.153311581391003"><ele>270.0</ele><time>2026-04-19T09:48:48.999Z</time></trkpt><trkpt lat="45.901097580187425" lon="9.153385283709378"><ele>264.0</ele><time>2026-04-19T09:48:49.999Z</time></trkpt><trkpt lat="45.901181153655216" lon="9.15350672333641"><ele>258.0</ele><time>2026-04-19T09:48:50.999Z</time></trkpt><trkpt lat="45.90124617772933" lon="9.153680114529127"><ele>252.0</ele><time>2026-04-19T09:48:51.999Z</time></trkpt><trkpt lat="45.90130083449553" lon="9.153845007760443"><ele>246.0</ele><time>2026-04-19T09:48:52.999Z</time></trkpt><trkpt lat="45.901358148492804" lon="9.153989023231787"><ele>251.0</ele><time>2026-04-19T09:48:53.999Z</time></trkpt><trkpt lat="45.90141378994461" lon="9.154111463447624"><ele>256.0</ele><time>2026-04-19T09:48:54.999Z</time></trkpt><trkpt lat="45.90148532748518" lon="9.15421455895582"><ele>261.0</ele><time>2026-04-19T09:48:55.999Z</time></trkpt><trkpt lat="45.90157808218794" lon="9.154291897950332"><ele>266.0</ele><time>2026-04-19T09:48:56.999Z</time></trkpt><trkpt lat="45.901698470869356" lon="9.154273271357992"><ele>271.0</ele><time>2026-04-19T09:48:57.999Z</time></trkpt><trkpt lat="45.90183174158777" lon="9.154262302262538"><ele>271.0</ele><time>2026-04-19T09:48:58.999Z</time></trkpt><trkpt lat="45.90196636160752" lon="9.154276763003185"><ele>271.0</ele><time>2026-04-19T09:48:59.999Z</time></trkpt><trkpt lat="45.90209536660238" lon="9.154351676906805"><ele>271.0</ele><time>2026-04-19T09:49:00.999Z</time></trkpt><trkpt lat="45.90222387874145" lon="9.154459439149784"><ele>271.0</ele><time>2026-04-19T09:49:01.999Z</time></trkpt><trkpt lat="45.902354921892126" lon="9.154586742001866"><ele>271.0</ele><time>2026-04-19T09:49:02.998Z</time></trkpt><trkpt lat="45.90251555831738" lon="9.15466861409223"><ele>271.0</ele><time>2026-04-19T09:49:03.998Z</time></trkpt><trkpt lat="45.902688595971824" lon="9.154756911900485"><ele>271.0</ele><time>2026-04-19T09:49:04.998Z</time></trkpt><trkpt lat="45.90285447111394" lon="9.154844661460531"><ele>278.3333333333333</ele><time>2026-04-19T09:49:05.998Z</time></trkpt><trkpt lat="45.90302223877958" lon="9.154896813868529"><ele>285.6666666666667</ele><time>2026-04-19T09:49:06.998Z</time></trkpt><trkpt lat="45.90317510585609" lon="9.15496645256253"><ele>293.0</ele><time>2026-04-19T09:49:08Z</time></trkpt><trkpt lat="45.90330911420274" lon="9.155023570893487"><ele>291.75</ele><time>2026-04-19T09:49:09Z</time></trkpt><trkpt lat="45.903428489704346" lon="9.155034026292302"><ele>290.5</ele><time>2026-04-19T09:49:10Z</time></trkpt><trkpt lat="45.9035726411948" lon="9.155030571605467"><ele>289.25</ele><time>2026-04-19T09:49:11Z</time></trkpt><trkpt lat="45.90371134954039" lon="9.155025131799347"><ele>288.0</ele><time>2026-04-19T09:49:12Z</time></trkpt><trkpt lat="45.903843686405864" lon="9.155040439666742"><ele>288.0</ele><time>2026-04-19T09:49:13Z</time></trkpt><trkpt lat="45.90396408265697" lon="9.155054019222334"><ele>288.0</ele><time>2026-04-19T09:49:14Z</time></trkpt><trkpt lat="45.904079946766444" lon="9.155068853395807"><ele>288.0</ele><time>2026-04-19T09:49:15Z</time></trkpt><trkpt lat="45.904197989026855" lon="9.155080723813851"><ele>288.0</ele><time>2026-04-19T09:49:16Z</time></trkpt><trkpt lat="45.90431956960004" lon="9.155086604738731"><ele>287.0</ele><time>2026-04-19T09:49:17Z</time></trkpt><trkpt lat="45.904459448770126" lon="9.155086797194976"><ele>286.0</ele><time>2026-04-19T09:49:18Z</time></trkpt><trkpt lat="45.90461549722521" lon="9.15508880781863"><ele>285.0</ele><time>2026-04-19T09:49:19Z</time></trkpt><trkpt lat="45.90477195166689" lon="9.155137021098248"><ele>285.0</ele><time>2026-04-19T09:49:20Z</time></trkpt><trkpt lat="45.90490609013706" lon="9.155198425504603"><ele>285.0</ele><time>2026-04-19T09:49:21Z</time></trkpt><trkpt lat="45.90503274865499" lon="9.155229952503568"><ele>285.0</ele><time>2026-04-19T09:49:22Z</time></trkpt><trkpt lat="45.9051566139487" lon="9.155194297979218"><ele>285.0</ele><time>2026-04-19T09:49:23Z</time></trkpt><trkpt lat="45.90528367228645" lon="9.15510796039119"><ele>287.3333333333333</ele><time>2026-04-19T09:49:24Z</time></trkpt><trkpt lat="45.90542220845376" lon="9.155001952020845"><ele>289.66666666666663</ele><time>2026-04-19T09:49:25Z</time></trkpt><trkpt lat="45.90557602322787" lon="9.154940798267585"><ele>292.0</ele><time>2026-04-19T09:49:26Z</time></trkpt><trkpt lat="45.90574319595055" lon="9.154922601580639"><ele>295.66666666666663</ele><time>2026-04-19T09:49:27Z</time></trkpt><trkpt lat="45.90591291170237" lon="9.154892435598358"><ele>299.3333333333333</ele><time>2026-04-19T09:49:28Z</time></trkpt><trkpt lat="45.906092153412295" lon="9.154836400546683"><ele>303.0</ele><time>2026-04-19T09:49:29Z</time></trkpt><trkpt lat="45.90626372411347" lon="9.154794497305666"><ele>287.3333333333333</ele><time>2026-04-19T09:49:30Z</time></trkpt><trkpt lat="45.906421220666495" lon="9.15475213943279"><ele>271.66666666666663</ele><time>2026-04-19T09:49:31Z</time></trkpt><trkpt lat="45.90657034894995" lon="9.154683145081327"><ele>256.0</ele><time>2026-04-19T09:49:32Z</time></trkpt><trkpt lat="45.90671157784953" lon="9.154635515561072"><ele>254.0</ele><time>2026-04-19T09:49:33Z</time></trkpt><trkpt lat="45.90685694220189" lon="9.15463743347615"><ele>252.0</ele><time>2026-04-19T09:49:34Z</time></trkpt><trkpt lat="45.90699534050624" lon="9.154645168115199"><ele>250.0</ele><time>2026-04-19T09:49:35Z</time></trkpt><trkpt lat="45.90713242415207" lon="9.154620014791346"><ele>248.0</ele><time>2026-04-19T09:49:36Z</time></trkpt><trkpt lat="45.90728260677325" lon="9.154621278662525"><ele>248.0</ele><time>2026-04-19T09:49:37Z</time></trkpt><trkpt lat="45.90744342158686" lon="9.154640700964052"><ele>248.0</ele><time>2026-04-19T09:49:38Z</time></trkpt><trkpt lat="45.90759943711432" lon="9.154661958111275"><ele>248.0</ele><time>2026-04-19T09:49:39Z</time></trkpt><trkpt lat="45.9077461412245" lon="9.154682927574411"><ele>249.75</ele><time>2026-04-19T09:49:40Z</time></trkpt><trkpt lat="45.90788416752033" lon="9.154685047649593"><ele>251.5</ele><time>2026-04-19T09:49:41Z</time></trkpt><trkpt lat="45.90801482608074" lon="9.154661285687315"><ele>253.25</ele><time>2026-04-19T09:49:42Z</time></trkpt><trkpt lat="45.90813545712227" lon="9.15461456658776"><ele>255.0</ele><time>2026-04-19T09:49:43Z</time></trkpt><trkpt lat="45.90825359719203" lon="9.154565035689773"><ele>255.0</ele><time>2026-04-19T09:49:44Z</time></trkpt><trkpt lat="45.90837471379288" lon="9.154560157819965"><ele>255.0</ele><time>2026-04-19T09:49:45Z</time></trkpt><trkpt lat="45.90849055889726" lon="9.154601160825019"><ele>255.0</ele><time>2026-04-19T09:49:46Z</time></trkpt><trkpt lat="45.90860597478713" lon="9.154680861219967"><ele>255.0</ele><time>2026-04-19T09:49:47Z</time></trkpt><trkpt lat="45.908716968887205" lon="9.154758229718455"><ele>254.0</ele><time>2026-04-19T09:49:48Z</time></trkpt><trkpt lat="45.90882291273551" lon="9.154807393584536"><ele>253.0</ele><time>2026-04-19T09:49:49Z</time></trkpt><trkpt lat="45.90891418046883" lon="9.154788063898327"><ele>252.0</ele><time>2026-04-19T09:49:50Z</time></trkpt><trkpt lat="45.909013913429234" lon="9.15470419310191"><ele>251.0</ele><time>2026-04-19T09:49:51Z</time></trkpt><trkpt lat="45.90910568552777" lon="9.154600375907604"><ele>250.0</ele><time>2026-04-19T09:49:52Z</time></trkpt><trkpt lat="45.909204843240914" lon="9.154567930255837"><ele>244.4</ele><time>2026-04-19T09:49:53Z</time></trkpt><trkpt lat="45.90931828014024" lon="9.154589864773888"><ele>238.8</ele><time>2026-04-19T09:49:54Z</time></trkpt><trkpt lat="45.9094351473564" lon="9.154642406739864"><ele>233.2</ele><time>2026-04-19T09:49:55Z</time></trkpt><trkpt lat="45.90954087112118" lon="9.154707745305224"><ele>227.6</ele><time>2026-04-19T09:49:56Z</time></trkpt><trkpt lat="45.90962786107493" lon="9.15474945674017"><ele>222.0</ele><time>2026-04-19T09:49:57Z</time></trkpt><trkpt lat="45.90968850068736" lon="9.154805410158739"><ele>227.33333333333334</ele><time>2026-04-19T09:49:58Z</time></trkpt><trkpt lat="45.90973169087035" lon="9.154903146902118"><ele>232.66666666666669</ele><time>2026-04-19T09:49:58.999Z</time></trkpt><trkpt lat="45.909765417630894" lon="9.155019355878519"><ele>238.0</ele><time>2026-04-19T09:49:59.999Z</time></trkpt><trkpt lat="45.90979049442431" lon="9.155149499367509"><ele>243.33333333333334</ele><time>2026-04-19T09:50:00.999Z</time></trkpt><trkpt lat="45.90981203798993" lon="9.155278880373789"><ele>248.66666666666669</ele><time>2026-04-19T09:50:01.999Z</time></trkpt><trkpt lat="45.90981581861464" lon="9.155413540569844"><ele>254.0</ele><time>2026-04-19T09:50:02.999Z</time></trkpt><trkpt lat="45.9098396631541" lon="9.155536157267704"><ele>254.0</ele><time>2026-04-19T09:50:03.999Z</time></trkpt><trkpt lat="45.90986946575455" lon="9.155631196600767"><ele>253.99999999999997</ele><time>2026-04-19T09:50:04.999Z</time></trkpt><trkpt lat="45.90993823098616" lon="9.155789641293664"><ele>253.99999999999997</ele><time>2026-04-19T09:50:06.999Z</time></trkpt><trkpt lat="45.910037107931366" lon="9.155856102869963"><ele>254.0</ele><time>2026-04-19T09:50:08.999Z</time></trkpt><trkpt lat="45.91014262190644" lon="9.155853109098805"><ele>254.0</ele><time>2026-04-19T09:50:10.999Z</time></trkpt><trkpt lat="45.91022202717354" lon="9.155842316077544"><ele>256.1666666666667</ele><time>2026-04-19T09:50:12.999Z</time></trkpt><trkpt lat="45.910324421181286" lon="9.155813069259732"><ele>258.33333333333337</ele><time>2026-04-19T09:50:15.999Z</time></trkpt><trkpt lat="45.910429330251" lon="9.155780074343209"><ele>260.5</ele><time>2026-04-19T09:50:17.999Z</time></trkpt><trkpt lat="45.91049574522643" lon="9.155760231602043"><ele>262.6666666666667</ele><time>2026-04-19T09:50:18.999Z</time></trkpt><trkpt lat="45.91057154110036" lon="9.15573597470193"><ele>264.8333333333333</ele><time>2026-04-19T09:50:19.999Z</time></trkpt><trkpt lat="45.91065184250443" lon="9.155707952068413"><ele>267.0</ele><time>2026-04-19T09:50:20.999Z</time></trkpt><trkpt lat="45.91073625664144" lon="9.155693680400704"><ele>261.0</ele><time>2026-04-19T09:50:21.999Z</time></trkpt><trkpt lat="45.91082564882253" lon="9.155675833787608"><ele>255.0</ele><time>2026-04-19T09:50:22.999Z</time></trkpt><trkpt lat="45.91091438149545" lon="9.155622074419973"><ele>249.0</ele><time>2026-04-19T09:50:23.999Z</time></trkpt><trkpt lat="45.911003484044784" lon="9.155562404642135"><ele>243.0</ele><time>2026-04-19T09:50:24.999Z</time></trkpt><trkpt lat="45.911094608685644" lon="9.155490888425097"><ele>237.0</ele><time>2026-04-19T09:50:25.999Z</time></trkpt><trkpt lat="45.91119460896073" lon="9.15542311202017"><ele>237.0</ele><time>2026-04-19T09:50:26.999Z</time></trkpt><trkpt lat="45.911304611457204" lon="9.155372426342083"><ele>237.0</ele><time>2026-04-19T09:50:27.999Z</time></trkpt><trkpt lat="45.91140855355058" lon="9.155323683636604"><ele>237.0</ele><time>2026-04-19T09:50:28.999Z</time></trkpt><trkpt lat="45.91151475851376" lon="9.155305343259151"><ele>237.0</ele><time>2026-04-19T09:50:29.999Z</time></trkpt><trkpt lat="45.91162216674588" lon="9.155301858328974"><ele>237.0</ele><time>2026-04-19T09:50:30.999Z</time></trkpt><trkpt lat="45.91174246757323" lon="9.155292688377342"><ele>242.39999999999998</ele><time>2026-04-19T09:50:31.999Z</time></trkpt><trkpt lat="45.91185256557703" lon="9.155265293842254"><ele>247.79999999999998</ele><time>2026-04-19T09:50:32.999Z</time></trkpt><trkpt lat="45.91195219300902" lon="9.1552435273989"><ele>253.2</ele><time>2026-04-19T09:50:33.999Z</time></trkpt><trkpt lat="45.912036414448636" lon="9.1552222036403"><ele>258.59999999999997</ele><time>2026-04-19T09:50:34.999Z</time></trkpt><trkpt lat="45.91211089024832" lon="9.15517740445726"><ele>264.0</ele><time>2026-04-19T09:50:35.999Z</time></trkpt><trkpt lat="45.91219193198092" lon="9.15513389033079"><ele>264.0</ele><time>2026-04-19T09:50:36.999Z</time></trkpt><trkpt lat="45.91226599567258" lon="9.155095432313855"><ele>264.0</ele><time>2026-04-19T09:50:37.999Z</time></trkpt><trkpt lat="45.912338724163625" lon="9.155063309875349"><ele>264.0</ele><time>2026-04-19T09:50:38.999Z</time></trkpt><trkpt lat="45.91240788327566" lon="9.155033630783413"><ele>264.0</ele><time>2026-04-19T09:50:39.999Z</time></trkpt><trkpt lat="45.91248179510017" lon="9.154998999015456"><ele>264.0</ele><time>2026-04-19T09:50:40.999Z</time></trkpt><trkpt lat="45.91255655946009" lon="9.154953934446459"><ele>264.0</ele><time>2026-04-19T09:50:41.999Z</time></trkpt><trkpt lat="45.91262972637353" lon="9.15488609434635"><ele>261.6666666666667</ele><time>2026-04-19T09:50:42.999Z</time></trkpt><trkpt lat="45.912698052428226" lon="9.154821487681824"><ele>259.3333333333333</ele><time>2026-04-19T09:50:43.999Z</time></trkpt><trkpt lat="45.912772378063174" lon="9.154754309376022"><ele>257.0</ele><time>2026-04-19T09:50:44.999Z</time></trkpt><trkpt lat="45.91285121360693" lon="9.154697057510278"><ele>254.66666666666666</ele><time>2026-04-19T09:50:45.999Z</time></trkpt><trkpt lat="45.912937109947684" lon="9.154639695723477"><ele>252.33333333333331</ele><time>2026-04-19T09:50:46.999Z</time></trkpt><trkpt lat="45.913022912077736" lon="9.154585511417574"><ele>250.0</ele><time>2026-04-19T09:50:47.999Z</time></trkpt><trkpt lat="45.91311955188756" lon="9.154524848186295"><ele>250.0</ele><time>2026-04-19T09:50:48.999Z</time></trkpt><trkpt lat="45.91320811757878" lon="9.154459971864062"><ele>250.0</ele><time>2026-04-19T09:50:49.999Z</time></trkpt><trkpt lat="45.913315560034924" lon="9.154412217844536"><ele>250.0</ele><time>2026-04-19T09:50:50.999Z</time></trkpt><trkpt lat="45.91341937567014" lon="9.154376458904395"><ele>250.0</ele><time>2026-04-19T09:50:51.999Z</time></trkpt><trkpt lat="45.91352416136649" lon="9.154353117438212"><ele>250.0</ele><time>2026-04-19T09:50:52.999Z</time></trkpt><trkpt lat="45.91362034861619" lon="9.154317877271225"><ele>251.33333333333331</ele><time>2026-04-19T09:50:53.999Z</time></trkpt><trkpt lat="45.91370629414609" lon="9.154302953335879"><ele>252.66666666666666</ele><time>2026-04-19T09:50:54.999Z</time></trkpt><trkpt lat="45.91382534278513" lon="9.154248406033041"><ele>254.0</ele><time>2026-04-19T09:50:56.999Z</time></trkpt><trkpt lat="45.91389143839766" lon="9.154251540081274"><ele>255.33333333333331</ele><time>2026-04-19T09:50:57.999Z</time></trkpt><trkpt lat="45.91396063723933" lon="9.154260870123823"><ele>256.6666666666667</ele><time>2026-04-19T09:50:58.999Z</time></trkpt><trkpt lat="45.914023791748875" lon="9.15427055613452"><ele>258.0</ele><time>2026-04-19T09:50:59.999Z</time></trkpt><trkpt lat="45.91409587262947" lon="9.154278060764732"><ele>258.0</ele><time>2026-04-19T09:51:00.999Z</time></trkpt><trkpt lat="45.914168929099425" lon="9.154287232127556"><ele>258.0</ele><time>2026-04-19T09:51:01.999Z</time></trkpt><trkpt lat="45.91424222207668" lon="9.154288806847658"><ele>258.0</ele><time>2026-04-19T09:51:02.999Z</time></trkpt><trkpt lat="45.914304939011636" lon="9.154278448984439"><ele>258.0</ele><time>2026-04-19T09:51:04.999Z</time></trkpt><trkpt lat="45.914395115810706" lon="9.15421890294069"><ele>258.0</ele><time>2026-04-19T09:51:10.998Z</time></trkpt><trkpt lat="45.91448984473334" lon="9.154158350124174"><ele>258.0</ele><time>2026-04-19T09:51:12.998Z</time></trkpt><trkpt lat="45.91459158248878" lon="9.154092590288903"><ele>258.3333333333333</ele><time>2026-04-19T09:51:15Z</time></trkpt><trkpt lat="45.91466250028804" lon="9.154069779966283"><ele>258.6666666666667</ele><time>2026-04-19T09:51:16Z</time></trkpt><trkpt lat="45.91475091292622" lon="9.154078586506762"><ele>259.0</ele><time>2026-04-19T09:51:17Z</time></trkpt><trkpt lat="45.914839872813204" lon="9.154078648737178"><ele>259.33333333333337</ele><time>2026-04-19T09:51:18Z</time></trkpt><trkpt lat="45.9149333941965" lon="9.154080445703052"><ele>259.6666666666667</ele><time>2026-04-19T09:51:19Z</time></trkpt><trkpt lat="45.91501499012954" lon="9.154052527492642"><ele>260.0</ele><time>2026-04-19T09:51:20Z</time></trkpt><trkpt lat="45.91509972101652" lon="9.154058011521949"><ele>260.0</ele><time>2026-04-19T09:51:21Z</time></trkpt><trkpt lat="45.91518655622073" lon="9.15405636340893"><ele>260.0</ele><time>2026-04-19T09:51:22Z</time></trkpt><trkpt lat="45.915280953454904" lon="9.154025799780877"><ele>260.0</ele><time>2026-04-19T09:51:23Z</time></trkpt><trkpt lat="45.91537412255449" lon="9.154071778511126"><ele>260.0</ele><time>2026-04-19T09:51:24Z</time></trkpt><trkpt lat="45.91548047559923" lon="9.15410578264976"><ele>260.0</ele><time>2026-04-19T09:51:25Z</time></trkpt><trkpt lat="45.91554987818565" lon="9.154122155943623"><ele>260.0</ele><time>2026-04-19T09:51:26Z</time></trkpt><trkpt lat="45.91564089342697" lon="9.15406437362359"><ele>260.0</ele><time>2026-04-19T09:51:30Z</time></trkpt><trkpt lat="45.91570585090981" lon="9.154035706726617"><ele>260.0</ele><time>2026-04-19T09:51:31Z</time></trkpt><trkpt lat="45.91576611350011" lon="9.15399061390728"><ele>260.0</ele><time>2026-04-19T09:51:32Z</time></trkpt><trkpt lat="45.915886068268144" lon="9.153968532761095"><ele>260.0</ele><time>2026-04-19T09:51:34Z</time></trkpt><trkpt lat="45.91600594306432" lon="9.153936502533213"><ele>253.6</ele><time>2026-04-19T09:51:36Z</time></trkpt><trkpt lat="45.9161082180181" lon="9.15390917491977"><ele>247.2</ele><time>2026-04-19T09:51:38Z</time></trkpt><trkpt lat="45.91620747533344" lon="9.153884886254806"><ele>240.8</ele><time>2026-04-19T09:51:40Z</time></trkpt><trkpt lat="45.916331802487825" lon="9.153854421623"><ele>234.4</ele><time>2026-04-19T09:51:42Z</time></trkpt><trkpt lat="45.91640303980072" lon="9.153836965916105"><ele>228.0</ele><time>2026-04-19T09:51:43Z</time></trkpt><trkpt lat="45.91648083974609" lon="9.15381790219136"><ele>228.0</ele><time>2026-04-19T09:51:44Z</time></trkpt><trkpt lat="45.916569129545884" lon="9.153796499938949"><ele>228.0</ele><time>2026-04-19T09:51:45Z</time></trkpt><trkpt lat="45.91666097582641" lon="9.153779364565548"><ele>228.0</ele><time>2026-04-19T09:51:46Z</time></trkpt><trkpt lat="45.916745609129116" lon="9.153753130103395"><ele>228.0</ele><time>2026-04-19T09:51:47Z</time></trkpt><trkpt lat="45.91682619362115" lon="9.153750031889254"><ele>228.0</ele><time>2026-04-19T09:51:48Z</time></trkpt><trkpt lat="45.91690537900533" lon="9.153749508901212"><ele>228.0</ele><time>2026-04-19T09:51:49Z</time></trkpt><trkpt lat="45.916986309900715" lon="9.153755003733528"><ele>227.4</ele><time>2026-04-19T09:51:50Z</time></trkpt><trkpt lat="45.91707277542773" lon="9.153755125863398"><ele>226.8</ele><time>2026-04-19T09:51:51Z</time></trkpt><trkpt lat="45.91716085472206" lon="9.153750900966518"><ele>226.2</ele><time>2026-04-19T09:51:52Z</time></trkpt><trkpt lat="45.917252610450916" lon="9.153742790917816"><ele>225.6</ele><time>2026-04-19T09:51:53Z</time></trkpt><trkpt lat="45.91734022606473" lon="9.153716198802334"><ele>225.0</ele><time>2026-04-19T09:51:54Z</time></trkpt><trkpt lat="45.917433738030674" lon="9.153697221846718"><ele>225.0</ele><time>2026-04-19T09:51:55Z</time></trkpt><trkpt lat="45.91753069456953" lon="9.153693805848961"><ele>225.0</ele><time>2026-04-19T09:51:56Z</time></trkpt><trkpt lat="45.91761985527373" lon="9.153684063923473"><ele>225.0</ele><time>2026-04-19T09:51:57Z</time></trkpt><trkpt lat="45.9177096300778" lon="9.153677936791711"><ele>225.0</ele><time>2026-04-19T09:51:58Z</time></trkpt><trkpt lat="45.91780883529943" lon="9.153674979996818"><ele>225.0</ele><time>2026-04-19T09:51:59Z</time></trkpt><trkpt lat="45.917916288761916" lon="9.153687091386683"><ele>226.6</ele><time>2026-04-19T09:52:00Z</time></trkpt><trkpt lat="45.918033230180704" lon="9.153701832149547"><ele>228.2</ele><time>2026-04-19T09:52:01Z</time></trkpt><trkpt lat="45.91814618478922" lon="9.153703273053884"><ele>229.8</ele><time>2026-04-19T09:52:02Z</time></trkpt><trkpt lat="45.91824600232021" lon="9.153692811787373"><ele>231.4</ele><time>2026-04-19T09:52:03Z</time></trkpt><trkpt lat="45.91834795973511" lon="9.153676564480103"><ele>233.0</ele><time>2026-04-19T09:52:03.999Z</time></trkpt><trkpt lat="45.91844731195236" lon="9.153641579813394"><ele>233.33333333333334</ele><time>2026-04-19T09:52:04.999Z</time></trkpt><trkpt lat="45.9185437660237" lon="9.153614677505328"><ele>233.66666666666669</ele><time>2026-04-19T09:52:05.999Z</time></trkpt><trkpt lat="45.918631390426285" lon="9.153588554639919"><ele>234.0</ele><time>2026-04-19T09:52:06.999Z</time></trkpt><trkpt lat="45.918710535931716" lon="9.153561944870429"><ele>234.33333333333331</ele><time>2026-04-19T09:52:07.999Z</time></trkpt><trkpt lat="45.91878383747585" lon="9.153542638951246"><ele>234.66666666666666</ele><time>2026-04-19T09:52:08.999Z</time></trkpt><trkpt lat="45.91885942155344" lon="9.153520913360271"><ele>235.0</ele><time>2026-04-19T09:52:09.999Z</time></trkpt><trkpt lat="45.9189310019968" lon="9.153503409233846"><ele>234.99999999999997</ele><time>2026-04-19T09:52:10.999Z</time></trkpt><trkpt lat="45.91900318581936" lon="9.153514340987075"><ele>235.0</ele><time>2026-04-19T09:52:11.999Z</time></trkpt><trkpt lat="45.91907955653903" lon="9.153543874121864"><ele>235.0</ele><time>2026-04-19T09:52:12.999Z</time></trkpt><trkpt lat="45.919153162866536" lon="9.153581044599553"><ele>235.0</ele><time>2026-04-19T09:52:13.999Z</time></trkpt><trkpt lat="45.91922730730026" lon="9.153607590768585"><ele>234.99999999999997</ele><time>2026-04-19T09:52:14.999Z</time></trkpt><trkpt lat="45.919308458847475" lon="9.15360251750169"><ele>235.0</ele><time>2026-04-19T09:52:15.999Z</time></trkpt><trkpt lat="45.91938888636685" lon="9.153576312415503"><ele>237.49999999999997</ele><time>2026-04-19T09:52:16.999Z</time></trkpt><trkpt lat="45.919466156378114" lon="9.153537423748517"><ele>240.0</ele><time>2026-04-19T09:52:17.999Z</time></trkpt><trkpt lat="45.91954103705883" lon="9.153488539247002"><ele>242.5</ele><time>2026-04-19T09:52:18.999Z</time></trkpt><trkpt lat="45.919609437288806" lon="9.153414912378011"><ele>245.0</ele><time>2026-04-19T09:52:19.999Z</time></trkpt><trkpt lat="45.91968238942209" lon="9.153339513642596"><ele>247.49999999999997</ele><time>2026-04-19T09:52:20.999Z</time></trkpt><trkpt lat="45.91975198737184" lon="9.153279987266774"><ele>250.0</ele><time>2026-04-19T09:52:21.999Z</time></trkpt><trkpt lat="45.919814200292656" lon="9.153225083497585"><ele>246.83333333333331</ele><time>2026-04-19T09:52:22.999Z</time></trkpt><trkpt lat="45.919879235145835" lon="9.153172706619895"><ele>243.66666666666666</ele><time>2026-04-19T09:52:23.999Z</time></trkpt><trkpt lat="45.91995449335658" lon="9.15312262587397"><ele>240.5</ele><time>2026-04-19T09:52:24.999Z</time></trkpt><trkpt lat="45.920039669563636" lon="9.153079623486969"><ele>237.33333333333331</ele><time>2026-04-19T09:52:25.999Z</time></trkpt><trkpt lat="45.920121178931694" lon="9.153053762683815"><ele>234.16666666666666</ele><time>2026-04-19T09:52:26.999Z</time></trkpt><trkpt lat="45.920210736484485" lon="9.153028146882715"><ele>231.0</ele><time>2026-04-19T09:52:27.999Z</time></trkpt><trkpt lat="45.92029374815168" lon="9.153002971258246"><ele>231.0</ele><time>2026-04-19T09:52:28.999Z</time></trkpt><trkpt lat="45.920369193833274" lon="9.152980276143623"><ele>231.0</ele><time>2026-04-19T09:52:29.999Z</time></trkpt><trkpt lat="45.920440906929315" lon="9.152969529206493"><ele>231.0</ele><time>2026-04-19T09:52:30.999Z</time></trkpt><trkpt lat="45.92051822244471" lon="9.152969418961682"><ele>231.0</ele><time>2026-04-19T09:52:31.999Z</time></trkpt><trkpt lat="45.920592491082715" lon="9.152981886002244"><ele>231.0</ele><time>2026-04-19T09:52:32.999Z</time></trkpt><trkpt lat="45.920668516377816" lon="9.152995608220554"><ele>231.0</ele><time>2026-04-19T09:52:33.999Z</time></trkpt><trkpt lat="45.9207437550871" lon="9.153010628804989"><ele>231.0</ele><time>2026-04-19T09:52:34.999Z</time></trkpt><trkpt lat="45.92081505222728" lon="9.153000072792052"><ele>231.0</ele><time>2026-04-19T09:52:35.999Z</time></trkpt><trkpt lat="45.92088401284318" lon="9.152962189289601"><ele>231.0</ele><time>2026-04-19T09:52:36.999Z</time></trkpt><trkpt lat="45.92095603454082" lon="9.15288200295426"><ele>231.0</ele><time>2026-04-19T09:52:37.999Z</time></trkpt><trkpt lat="45.92102081516058" lon="9.15279073659631"><ele>231.0</ele><time>2026-04-19T09:52:38.999Z</time></trkpt><trkpt lat="45.92108952203711" lon="9.152712552051925"><ele>231.0</ele><time>2026-04-19T09:52:39.999Z</time></trkpt><trkpt lat="45.92116017563492" lon="9.152645445612816"><ele>235.4</ele><time>2026-04-19T09:52:40.999Z</time></trkpt><trkpt lat="45.92124059402684" lon="9.152583995496874"><ele>239.8</ele><time>2026-04-19T09:52:41.999Z</time></trkpt><trkpt lat="45.92132370235811" lon="9.152531093263212"><ele>244.20000000000002</ele><time>2026-04-19T09:52:42.999Z</time></trkpt><trkpt lat="45.921411287521465" lon="9.1524963682946"><ele>248.60000000000002</ele><time>2026-04-19T09:52:43.999Z</time></trkpt><trkpt lat="45.92150830856225" lon="9.152455965824927"><ele>253.0</ele><time>2026-04-19T09:52:44.999Z</time></trkpt><trkpt lat="45.92162826371379" lon="9.152445726121016"><ele>249.66666666666666</ele><time>2026-04-19T09:52:45.999Z</time></trkpt><trkpt lat="45.92174078414917" lon="9.152410726661786"><ele>246.33333333333331</ele><time>2026-04-19T09:52:46.999Z</time></trkpt><trkpt lat="45.921830430561116" lon="9.152384118307621"><ele>243.0</ele><time>2026-04-19T09:52:47.999Z</time></trkpt><trkpt lat="45.92190684432583" lon="9.152345375055727"><ele>239.66666666666669</ele><time>2026-04-19T09:52:48.999Z</time></trkpt><trkpt lat="45.92197989841907" lon="9.152328918104145"><ele>236.33333333333334</ele><time>2026-04-19T09:52:49.999Z</time></trkpt><trkpt lat="45.92205071133677" lon="9.152308990908821"><ele>233.0</ele><time>2026-04-19T09:52:50.999Z</time></trkpt><trkpt lat="45.922127464785916" lon="9.152288584868971"><ele>233.00000000000003</ele><time>2026-04-19T09:52:51.999Z</time></trkpt><trkpt lat="45.92220508099362" lon="9.152265240614074"><ele>233.0</ele><time>2026-04-19T09:52:52.999Z</time></trkpt><trkpt lat="45.92228515175948" lon="9.152245095080492"><ele>233.0</ele><time>2026-04-19T09:52:53.999Z</time></trkpt><trkpt lat="45.92236528799318" lon="9.152232745231151"><ele>233.0</ele><time>2026-04-19T09:52:54.999Z</time></trkpt><trkpt lat="45.92243464436584" lon="9.152191571185003"><ele>233.00000000000003</ele><time>2026-04-19T09:52:55.999Z</time></trkpt><trkpt lat="45.92249949092557" lon="9.152132575357303"><ele>233.0</ele><time>2026-04-19T09:52:56.999Z</time></trkpt><trkpt lat="45.92257217711097" lon="9.152085822935478"><ele>235.66666666666669</ele><time>2026-04-19T09:52:57.999Z</time></trkpt><trkpt lat="45.9226255290413" lon="9.151993176726691"><ele>238.33333333333334</ele><time>2026-04-19T09:52:58.999Z</time></trkpt><trkpt lat="45.922695656064256" lon="9.151929417229699"><ele>241.0</ele><time>2026-04-19T09:52:59.999Z</time></trkpt><trkpt lat="45.922770932443605" lon="9.15186240696912"><ele>243.66666666666669</ele><time>2026-04-19T09:53:00.999Z</time></trkpt><trkpt lat="45.92284874171938" lon="9.151807252749698"><ele>246.33333333333334</ele><time>2026-04-19T09:53:01.999Z</time></trkpt><trkpt lat="45.92293681243495" lon="9.151780001453991"><ele>249.0</ele><time>2026-04-19T09:53:02.999Z</time></trkpt><trkpt lat="45.92302383737346" lon="9.151771862740956"><ele>249.0</ele><time>2026-04-19T09:53:03.999Z</time></trkpt><trkpt lat="45.92310353265214" lon="9.151758878543697"><ele>249.0</ele><time>2026-04-19T09:53:04.999Z</time></trkpt><trkpt lat="45.92318300444145" lon="9.151753863437493"><ele>249.0</ele><time>2026-04-19T09:53:05.999Z</time></trkpt><trkpt lat="45.92326722358351" lon="9.151741810180987"><ele>249.0</ele><time>2026-04-19T09:53:06.999Z</time></trkpt><trkpt lat="45.92335552882098" lon="9.151725486970191"><ele>249.0</ele><time>2026-04-19T09:53:07.999Z</time></trkpt><trkpt lat="45.92345460812379" lon="9.151689105605616"><ele>249.0</ele><time>2026-04-19T09:53:08.999Z</time></trkpt><trkpt lat="45.923588390228666" lon="9.151685723886583"><ele>253.0</ele><time>2026-04-19T09:53:09.999Z</time></trkpt><trkpt lat="45.923748910972115" lon="9.151655877214884"><ele>257.0</ele><time>2026-04-19T09:53:10.999Z</time></trkpt><trkpt lat="45.92391272321207" lon="9.151642855959059"><ele>261.0</ele><time>2026-04-19T09:53:11.998Z</time></trkpt><trkpt lat="45.92405720254877" lon="9.151628041749484"><ele>261.0</ele><time>2026-04-19T09:53:12.998Z</time></trkpt><trkpt lat="45.92419251457313" lon="9.151602973162822"><ele>261.0</ele><time>2026-04-19T09:53:13.998Z</time></trkpt><trkpt lat="45.92432297924438" lon="9.151576758768444"><ele>261.0</ele><time>2026-04-19T09:53:14.998Z</time></trkpt><trkpt lat="45.92445516864065" lon="9.151546554210029"><ele>261.0</ele><time>2026-04-19T09:53:15.998Z</time></trkpt><trkpt lat="45.92458795429251" lon="9.15150065956525"><ele>253.25</ele><time>2026-04-19T09:53:16.998Z</time></trkpt><trkpt lat="45.92471892078201" lon="9.151420396900187"><ele>245.5</ele><time>2026-04-19T09:53:17.998Z</time></trkpt><trkpt lat="45.92484145265224" lon="9.151358832398675"><ele>237.75</ele><time>2026-04-19T09:53:18.998Z</time></trkpt><trkpt lat="45.92495903355454" lon="9.151314054672774"><ele>230.0</ele><time>2026-04-19T09:53:20Z</time></trkpt><trkpt lat="45.925076679250566" lon="9.151294323785464"><ele>230.0</ele><time>2026-04-19T09:53:21Z</time></trkpt><trkpt lat="45.92518738658939" lon="9.151321296240717"><ele>230.0</ele><time>2026-04-19T09:53:22Z</time></trkpt><trkpt lat="45.925279418828104" lon="9.151348595454232"><ele>230.0</ele><time>2026-04-19T09:53:23Z</time></trkpt><trkpt lat="45.92538951450744" lon="9.151380326785649"><ele>230.0</ele><time>2026-04-19T09:53:24Z</time></trkpt><trkpt lat="45.92549578843671" lon="9.151425080535171"><ele>230.0</ele><time>2026-04-19T09:53:25Z</time></trkpt><trkpt lat="45.92559623319409" lon="9.151500427612563"><ele>231.4</ele><time>2026-04-19T09:53:26Z</time></trkpt><trkpt lat="45.92568502294166" lon="9.151558256018037"><ele>232.8</ele><time>2026-04-19T09:53:27Z</time></trkpt><trkpt lat="45.92578265107859" lon="9.15159387965625"><ele>234.2</ele><time>2026-04-19T09:53:28Z</time></trkpt><trkpt lat="45.925881442941666" lon="9.15158983276755"><ele>235.6</ele><time>2026-04-19T09:53:29Z</time></trkpt><trkpt lat="45.92601023318396" lon="9.151525045715388"><ele>237.0</ele><time>2026-04-19T09:53:30Z</time></trkpt><trkpt lat="45.926151167826944" lon="9.15144418166557"><ele>237.0</ele><time>2026-04-19T09:53:31Z</time></trkpt><trkpt lat="45.92631880373217" lon="9.151337884162288"><ele>237.0</ele><time>2026-04-19T09:53:32Z</time></trkpt><trkpt lat="45.92650179639678" lon="9.151239280440869"><ele>237.0</ele><time>2026-04-19T09:53:33Z</time></trkpt><trkpt lat="45.92669646261105" lon="9.151165012293543"><ele>239.0</ele><time>2026-04-19T09:53:34Z</time></trkpt><trkpt lat="45.92686192402887" lon="9.151065736162176"><ele>241.0</ele><time>2026-04-19T09:53:35Z</time></trkpt><trkpt lat="45.92702437919654" lon="9.151002856062732"><ele>243.0</ele><time>2026-04-19T09:53:36Z</time></trkpt><trkpt lat="45.927186886811214" lon="9.150974198321544"><ele>243.0</ele><time>2026-04-19T09:53:37Z</time></trkpt><trkpt lat="45.92735009600619" lon="9.150881336897372"><ele>243.0</ele><time>2026-04-19T09:53:38Z</time></trkpt><trkpt lat="45.9275086256471" lon="9.150791616018193"><ele>243.0</ele><time>2026-04-19T09:53:39Z</time></trkpt><trkpt lat="45.92764754048458" lon="9.150701445818472"><ele>239.75</ele><time>2026-04-19T09:53:40Z</time></trkpt><trkpt lat="45.92777770238416" lon="9.150620905895458"><ele>236.5</ele><time>2026-04-19T09:53:41Z</time></trkpt><trkpt lat="45.92790802078067" lon="9.150585006546978"><ele>233.25</ele><time>2026-04-19T09:53:42Z</time></trkpt><trkpt lat="45.928023063772585" lon="9.150581573420261"><ele>230.0</ele><time>2026-04-19T09:53:43Z</time></trkpt><trkpt lat="45.92812973549102" lon="9.150601025005159"><ele>230.0</ele><time>2026-04-19T09:53:44Z</time></trkpt><trkpt lat="45.928232398017315" lon="9.150590556559772"><ele>230.0</ele><time>2026-04-19T09:53:45Z</time></trkpt><trkpt lat="45.928352531864626" lon="9.150541415092178"><ele>230.0</ele><time>2026-04-19T09:53:46Z</time></trkpt><trkpt lat="45.928465913482945" lon="9.150459065290292"><ele>230.0</ele><time>2026-04-19T09:53:47Z</time></trkpt><trkpt lat="45.92861328636473" lon="9.150321977568748"><ele>230.5</ele><time>2026-04-19T09:53:48Z</time></trkpt><trkpt lat="45.92876136426143" lon="9.150223623516009"><ele>231.0</ele><time>2026-04-19T09:53:49Z</time></trkpt><trkpt lat="45.928906608519796" lon="9.150184855102806"><ele>231.5</ele><time>2026-04-19T09:53:50Z</time></trkpt><trkpt lat="45.929040247336786" lon="9.150165246445928"><ele>232.0</ele><time>2026-04-19T09:53:51Z</time></trkpt><trkpt lat="45.92918503288423" lon="9.15014283915415"><ele>230.33333333333331</ele><time>2026-04-19T09:53:52Z</time></trkpt><trkpt lat="45.929333338805684" lon="9.150135074093075"><ele>228.66666666666669</ele><time>2026-04-19T09:53:53Z</time></trkpt><trkpt lat="45.9294888234329" lon="9.150138749317591"><ele>227.0</ele><time>2026-04-19T09:53:54Z</time></trkpt><trkpt lat="45.92963642407315" lon="9.150142506502696"><ele>227.0</ele><time>2026-04-19T09:53:55Z</time></trkpt><trkpt lat="45.9297791897536" lon="9.150159199357933"><ele>227.0</ele><time>2026-04-19T09:53:56Z</time></trkpt><trkpt lat="45.929913060017974" lon="9.150196876758804"><ele>227.0</ele><time>2026-04-19T09:53:57Z</time></trkpt><trkpt lat="45.93005175550837" lon="9.150225319190392"><ele>227.0</ele><time>2026-04-19T09:53:58Z</time></trkpt><trkpt lat="45.93017613619584" lon="9.150266662601046"><ele>226.0</ele><time>2026-04-19T09:53:59Z</time></trkpt><trkpt lat="45.93028123573371" lon="9.150348007725265"><ele>225.0</ele><time>2026-04-19T09:54:00Z</time></trkpt><trkpt lat="45.930387971398794" lon="9.150443194237342"><ele>224.0</ele><time>2026-04-19T09:54:01Z</time></trkpt><trkpt lat="45.93049864445281" lon="9.150572100852285"><ele>223.0</ele><time>2026-04-19T09:54:02Z</time></trkpt><trkpt lat="45.930614366262404" lon="9.150711649078117"><ele>224.75</ele><time>2026-04-19T09:54:03Z</time></trkpt><trkpt lat="45.93072578017255" lon="9.150824839056524"><ele>226.5</ele><time>2026-04-19T09:54:04Z</time></trkpt><trkpt lat="45.93083115431211" lon="9.150937945141058"><ele>228.25</ele><time>2026-04-19T09:54:05Z</time></trkpt><trkpt lat="45.930921794378335" lon="9.15103717322129"><ele>230.0</ele><time>2026-04-19T09:54:05.999Z</time></trkpt><trkpt lat="45.931015185836905" lon="9.151129165545692"><ele>230.0</ele><time>2026-04-19T09:54:06.999Z</time></trkpt><trkpt lat="45.9311175664557" lon="9.151170264601689"><ele>230.0</ele><time>2026-04-19T09:54:07.999Z</time></trkpt><trkpt lat="45.93123160180874" lon="9.15117410685339"><ele>230.0</ele><time>2026-04-19T09:54:08.999Z</time></trkpt><trkpt lat="45.9313563246396" lon="9.151129748560297"><ele>230.0</ele><time>2026-04-19T09:54:09.999Z</time></trkpt><trkpt lat="45.93148720263293" lon="9.15105705586939"><ele>230.0</ele><time>2026-04-19T09:54:10.999Z</time></trkpt><trkpt lat="45.931621064657676" lon="9.151011042788097"><ele>230.0</ele><time>2026-04-19T09:54:11.999Z</time></trkpt><trkpt lat="45.93174266606303" lon="9.150948972792525"><ele>230.0</ele><time>2026-04-19T09:54:12.999Z</time></trkpt><trkpt lat="45.93187498199256" lon="9.150928928180027"><ele>230.0</ele><time>2026-04-19T09:54:13.999Z</time></trkpt><trkpt lat="45.932014296306704" lon="9.150914899057861"><ele>231.0</ele><time>2026-04-19T09:54:14.999Z</time></trkpt><trkpt lat="45.932160246972074" lon="9.150907880482224"><ele>232.0</ele><time>2026-04-19T09:54:15.999Z</time></trkpt><trkpt lat="45.93231918787766" lon="9.150914374307321"><ele>233.0</ele><time>2026-04-19T09:54:16.999Z</time></trkpt><trkpt lat="45.932488092930356" lon="9.150939918804973"><ele>232.33333333333334</ele><time>2026-04-19T09:54:17.999Z</time></trkpt><trkpt lat="45.93265494382146" lon="9.150943175938224"><ele>231.66666666666669</ele><time>2026-04-19T09:54:18.999Z</time></trkpt><trkpt lat="45.93281348717253" lon="9.150923446105176"><ele>231.0</ele><time>2026-04-19T09:54:19.999Z</time></trkpt><trkpt lat="45.9329630996464" lon="9.150940493858277"><ele>231.0</ele><time>2026-04-19T09:54:20.999Z</time></trkpt><trkpt lat="45.9331016525792" lon="9.150957268881692"><ele>231.0</ele><time>2026-04-19T09:54:21.999Z</time></trkpt><trkpt lat="45.933231799194694" lon="9.150989710790533"><ele>231.0</ele><time>2026-04-19T09:54:22.999Z</time></trkpt><trkpt lat="45.93333899805458" lon="9.150974768343067"><ele>231.0</ele><time>2026-04-19T09:54:23.999Z</time></trkpt><trkpt lat="45.93343069806048" lon="9.151050296358017"><ele>226.8</ele><time>2026-04-19T09:54:24.999Z</time></trkpt><trkpt lat="45.93350237548182" lon="9.151147399862493"><ele>222.60000000000002</ele><time>2026-04-19T09:54:25.999Z</time></trkpt><trkpt lat="45.93354397483414" lon="9.151279814982724"><ele>218.4</ele><time>2026-04-19T09:54:26.999Z</time></trkpt><trkpt lat="45.933575630721926" lon="9.151436726598508"><ele>214.2</ele><time>2026-04-19T09:54:27.999Z</time></trkpt><trkpt lat="45.933618017403795" lon="9.151592587920435"><ele>210.0</ele><time>2026-04-19T09:54:28.999Z</time></trkpt><trkpt lat="45.933701791713965" lon="9.151699925511561"><ele>210.0</ele><time>2026-04-19T09:54:29.999Z</time></trkpt><trkpt lat="45.9338232195883" lon="9.15178409367758"><ele>210.0</ele><time>2026-04-19T09:54:30.999Z</time></trkpt><trkpt lat="45.93395006459224" lon="9.15188833829146"><ele>210.0</ele><time>2026-04-19T09:54:31.999Z</time></trkpt><trkpt lat="45.934085051375895" lon="9.152001457060942"><ele>210.0</ele><time>2026-04-19T09:54:32.999Z</time></trkpt><trkpt lat="45.93422379052094" lon="9.15211934669355"><ele>207.33333333333331</ele><time>2026-04-19T09:54:33.999Z</time></trkpt><trkpt lat="45.9343667792128" lon="9.152236880340611"><ele>204.66666666666666</ele><time>2026-04-19T09:54:34.999Z</time></trkpt><trkpt lat="45.93449996152184" lon="9.152349409723563"><ele>202.0</ele><time>2026-04-19T09:54:35.999Z</time></trkpt><trkpt lat="45.93463363733138" lon="9.152453788143607"><ele>202.0</ele><time>2026-04-19T09:54:36.999Z</time></trkpt><trkpt lat="45.934751755243575" lon="9.152530175343989"><ele>202.0</ele><time>2026-04-19T09:54:37.999Z</time></trkpt><trkpt lat="45.93486355687578" lon="9.152647959780362"><ele>202.0</ele><time>2026-04-19T09:54:38.999Z</time></trkpt><trkpt lat="45.934983066964946" lon="9.152778539267347"><ele>202.0</ele><time>2026-04-19T09:54:39.999Z</time></trkpt><trkpt lat="45.935098042428265" lon="9.152907516927383"><ele>202.0</ele><time>2026-04-19T09:54:40.999Z</time></trkpt><trkpt lat="45.93519350766143" lon="9.153041958005867"><ele>202.0</ele><time>2026-04-19T09:54:41.999Z</time></trkpt><trkpt lat="45.93529355659021" lon="9.153165426927306"><ele>202.0</ele><time>2026-04-19T09:54:42.999Z</time></trkpt><trkpt lat="45.93540399332805" lon="9.153238877092425"><ele>202.0</ele><time>2026-04-19T09:54:43.999Z</time></trkpt><trkpt lat="45.93552035965336" lon="9.15327113259845"><ele>205.5</ele><time>2026-04-19T09:54:44.999Z</time></trkpt><trkpt lat="45.93563671085125" lon="9.153334000848915"><ele>209.0</ele><time>2026-04-19T09:54:45.999Z</time></trkpt><trkpt lat="45.93572773809615" lon="9.153448483174982"><ele>212.5</ele><time>2026-04-19T09:54:46.999Z</time></trkpt><trkpt lat="45.93580396470185" lon="9.15360942096842"><ele>216.0</ele><time>2026-04-19T09:54:47.999Z</time></trkpt><trkpt lat="45.93587045393916" lon="9.153787646949949"><ele>214.33333333333331</ele><time>2026-04-19T09:54:48.999Z</time></trkpt><trkpt lat="45.935949541184286" lon="9.153980326540227"><ele>212.66666666666666</ele><time>2026-04-19T09:54:49.999Z</time></trkpt><trkpt lat="45.93603980693312" lon="9.154181874114675"><ele>211.0</ele><time>2026-04-19T09:54:50.999Z</time></trkpt><trkpt lat="45.93613104709755" lon="9.154398135936768"><ele>211.0</ele><time>2026-04-19T09:54:51.999Z</time></trkpt><trkpt lat="45.93622488418053" lon="9.154632316720154"><ele>211.0</ele><time>2026-04-19T09:54:52.999Z</time></trkpt><trkpt lat="45.93629931583543" lon="9.1548864050571"><ele>211.0</ele><time>2026-04-19T09:54:53.999Z</time></trkpt><trkpt lat="45.93638133993574" lon="9.155141020446678"><ele>212.0</ele><time>2026-04-19T09:54:54.999Z</time></trkpt><trkpt lat="45.93646271563018" lon="9.155369473149515"><ele>213.0</ele><time>2026-04-19T09:54:55.999Z</time></trkpt><trkpt lat="45.93655027399721" lon="9.15557692692222"><ele>214.0</ele><time>2026-04-19T09:54:56.999Z</time></trkpt><trkpt lat="45.93663694375976" lon="9.155773067786795"><ele>209.0</ele><time>2026-04-19T09:54:57.999Z</time></trkpt><trkpt lat="45.936728981935715" lon="9.155966810535075"><ele>204.0</ele><time>2026-04-19T09:54:58.999Z</time></trkpt><trkpt lat="45.936822773815514" lon="9.15617647081964"><ele>199.0</ele><time>2026-04-19T09:54:59.999Z</time></trkpt><trkpt lat="45.93691626753344" lon="9.15638001574092"><ele>200.33333333333331</ele><time>2026-04-19T09:55:00.999Z</time></trkpt><trkpt lat="45.93700591713123" lon="9.156587591983852"><ele>201.66666666666669</ele><time>2026-04-19T09:55:01.999Z</time></trkpt><trkpt lat="45.93710067229533" lon="9.156776576516815"><ele>203.0</ele><time>2026-04-19T09:55:02.999Z</time></trkpt><trkpt lat="45.937180045773125" lon="9.156955295857749"><ele>203.0</ele><time>2026-04-19T09:55:03.999Z</time></trkpt><trkpt lat="45.93723996008164" lon="9.157153830256032"><ele>203.0</ele><time>2026-04-19T09:55:04.999Z</time></trkpt><trkpt lat="45.93726820910444" lon="9.15736283151189"><ele>203.0</ele><time>2026-04-19T09:55:05.999Z</time></trkpt><trkpt lat="45.93729040137271" lon="9.157567525797578"><ele>203.0</ele><time>2026-04-19T09:55:06.999Z</time></trkpt><trkpt lat="45.937294673816545" lon="9.157782070173404"><ele>206.33333333333334</ele><time>2026-04-19T09:55:07.999Z</time></trkpt><trkpt lat="45.93730036071914" lon="9.158001477160507"><ele>209.66666666666669</ele><time>2026-04-19T09:55:08.999Z</time></trkpt><trkpt lat="45.937332756942496" lon="9.158219781666343"><ele>213.0</ele><time>2026-04-19T09:55:09.999Z</time></trkpt><trkpt lat="45.93737604129846" lon="9.158415184547948"><ele>214.25</ele><time>2026-04-19T09:55:10.999Z</time></trkpt><trkpt lat="45.93743642400706" lon="9.158580175610023"><ele>215.5</ele><time>2026-04-19T09:55:11.999Z</time></trkpt><trkpt lat="45.93750244101941" lon="9.1587321687778"><ele>216.75</ele><time>2026-04-19T09:55:12.999Z</time></trkpt><trkpt lat="45.93756466953793" lon="9.158886908894539"><ele>218.0</ele><time>2026-04-19T09:55:13.998Z</time></trkpt><trkpt lat="45.93762710203848" lon="9.15904244613591"><ele>214.5</ele><time>2026-04-19T09:55:14.998Z</time></trkpt><trkpt lat="45.937684959611246" lon="9.15920469604738"><ele>211.0</ele><time>2026-04-19T09:55:15.998Z</time></trkpt><trkpt lat="45.937745505476734" lon="9.159364697853656"><ele>207.5</ele><time>2026-04-19T09:55:16.998Z</time></trkpt><trkpt lat="45.93781319837027" lon="9.159518251442472"><ele>204.0</ele><time>2026-04-19T09:55:17.998Z</time></trkpt><trkpt lat="45.93789713347969" lon="9.159632863819349"><ele>204.0</ele><time>2026-04-19T09:55:18.998Z</time></trkpt><trkpt lat="45.9379865785037" lon="9.159719000884637"><ele>204.0</ele><time>2026-04-19T09:55:19.998Z</time></trkpt><trkpt lat="45.93807662432943" lon="9.159801438080313"><ele>204.0</ele><time>2026-04-19T09:55:20.998Z</time></trkpt><trkpt lat="45.938148914521065" lon="9.159858944680328"><ele>204.0</ele><time>2026-04-19T09:55:21.998Z</time></trkpt><trkpt lat="45.93822496996811" lon="9.159924517490047"><ele>204.0</ele><time>2026-04-19T09:55:22.998Z</time></trkpt><trkpt lat="45.93831464381688" lon="9.160016759819325"><ele>203.83333333333334</ele><time>2026-04-19T09:55:23.998Z</time></trkpt><trkpt lat="45.93836819224153" lon="9.160100964918422"><ele>203.66666666666669</ele><time>2026-04-19T09:55:24.998Z</time></trkpt><trkpt lat="45.93842305773073" lon="9.160192105671253"><ele>203.5</ele><time>2026-04-19T09:55:26Z</time></trkpt><trkpt lat="45.93849443334274" lon="9.16029563068001"><ele>203.33333333333334</ele><time>2026-04-19T09:55:27Z</time></trkpt><trkpt lat="45.93852193548372" lon="9.160382488547206"><ele>203.16666666666669</ele><time>2026-04-19T09:55:28Z</time></trkpt><trkpt lat="45.93854711121423" lon="9.160467169664184"><ele>203.0</ele><time>2026-04-19T09:55:29Z</time></trkpt><trkpt lat="45.93859307443997" lon="9.160623661511229"><ele>203.0</ele><time>2026-04-19T09:55:31Z</time></trkpt><trkpt lat="45.93859946458367" lon="9.16072225017805"><ele>203.0</ele><time>2026-04-19T09:55:32Z</time></trkpt><trkpt lat="45.9386079315536" lon="9.16082671088924"><ele>203.0</ele><time>2026-04-19T09:55:33Z</time></trkpt><trkpt lat="45.93861592798265" lon="9.160918493915991"><ele>203.0</ele><time>2026-04-19T09:55:34Z</time></trkpt><trkpt lat="45.93862809052582" lon="9.161007703842346"><ele>203.0</ele><time>2026-04-19T09:55:35Z</time></trkpt><trkpt lat="45.938639192042594" lon="9.161110973250207"><ele>203.0</ele><time>2026-04-19T09:55:36Z</time></trkpt><trkpt lat="45.938650203259236" lon="9.161220488097278"><ele>203.0</ele><time>2026-04-19T09:55:37Z</time></trkpt><trkpt lat="45.93867070909968" lon="9.161334505017221"><ele>203.00000000000003</ele><time>2026-04-19T09:55:38Z</time></trkpt><trkpt lat="45.93869476560285" lon="9.161451713917893"><ele>203.0</ele><time>2026-04-19T09:55:39Z</time></trkpt><trkpt lat="45.9387245495527" lon="9.161553095266331"><ele>203.0</ele><time>2026-04-19T09:55:40Z</time></trkpt><trkpt lat="45.93875784217535" lon="9.161656452320033"><ele>203.0</ele><time>2026-04-19T09:55:41Z</time></trkpt><trkpt lat="45.9388094348468" lon="9.161817182492543"><ele>203.00000000000003</ele><time>2026-04-19T09:55:43Z</time></trkpt><trkpt lat="45.93884564446123" lon="9.16192024746164"><ele>203.0</ele><time>2026-04-19T09:55:44Z</time></trkpt><trkpt lat="45.93887853143712" lon="9.162013855440883"><ele>204.60000000000002</ele><time>2026-04-19T09:55:45Z</time></trkpt><trkpt lat="45.93890111300204" lon="9.162229142055287"><ele>206.20000000000002</ele><time>2026-04-19T09:55:46Z</time></trkpt><trkpt lat="45.93890796862399" lon="9.162355519351346"><ele>207.8</ele><time>2026-04-19T09:55:47Z</time></trkpt><trkpt lat="45.938914170827886" lon="9.162488493372555"><ele>209.4</ele><time>2026-04-19T09:55:48Z</time></trkpt><trkpt lat="45.93892647915219" lon="9.162617738795499"><ele>211.0</ele><time>2026-04-19T09:55:49Z</time></trkpt><trkpt lat="45.93896011491424" lon="9.16275720115335"><ele>212.60000000000002</ele><time>2026-04-19T09:55:50Z</time></trkpt><trkpt lat="45.939010539416856" lon="9.162895350421932"><ele>214.2</ele><time>2026-04-19T09:55:51Z</time></trkpt><trkpt lat="45.93907075024065" lon="9.163026084189413"><ele>215.79999999999998</ele><time>2026-04-19T09:55:52Z</time></trkpt><trkpt lat="45.939143534256154" lon="9.16314927143873"><ele>217.39999999999998</ele><time>2026-04-19T09:55:53Z</time></trkpt><trkpt lat="45.939219810247735" lon="9.16328085573152"><ele>219.0</ele><time>2026-04-19T09:55:54Z</time></trkpt><trkpt lat="45.9392862978663" lon="9.163399475226244"><ele>215.39999999999998</ele><time>2026-04-19T09:55:55Z</time></trkpt><trkpt lat="45.93934655637547" lon="9.163510321608738"><ele>211.79999999999998</ele><time>2026-04-19T09:55:56Z</time></trkpt><trkpt lat="45.93940301272055" lon="9.163614908224696"><ele>208.2</ele><time>2026-04-19T09:55:57Z</time></trkpt><trkpt lat="45.93946450452634" lon="9.163717669179775"><ele>204.60000000000002</ele><time>2026-04-19T09:55:58Z</time></trkpt><trkpt lat="45.93952606021863" lon="9.163826683215"><ele>201.0</ele><time>2026-04-19T09:55:59Z</time></trkpt><trkpt lat="45.93958955671584" lon="9.163939803812152"><ele>202.20000000000002</ele><time>2026-04-19T09:56:00Z</time></trkpt><trkpt lat="45.93962710827247" lon="9.164065383313282"><ele>203.4</ele><time>2026-04-19T09:56:01Z</time></trkpt><trkpt lat="45.93964983596445" lon="9.164195609816348"><ele>204.6</ele><time>2026-04-19T09:56:02Z</time></trkpt><trkpt lat="45.93966593661831" lon="9.164335156799"><ele>205.8</ele><time>2026-04-19T09:56:03Z</time></trkpt><trkpt lat="45.939688639989086" lon="9.164482405783865"><ele>207.0</ele><time>2026-04-19T09:56:04Z</time></trkpt><trkpt lat="45.939711856259606" lon="9.164632981362935"><ele>207.0</ele><time>2026-04-19T09:56:05Z</time></trkpt><trkpt lat="45.9397336330097" lon="9.164774220474122"><ele>207.0</ele><time>2026-04-19T09:56:06Z</time></trkpt><trkpt lat="45.939764838981965" lon="9.164948340521319"><ele>207.0</ele><time>2026-04-19T09:56:07Z</time></trkpt><trkpt lat="45.93980800818841" lon="9.165152887242128"><ele>207.0</ele><time>2026-04-19T09:56:08Z</time></trkpt><trkpt lat="45.93988052304702" lon="9.165351971455923"><ele>205.33333333333331</ele><time>2026-04-19T09:56:09Z</time></trkpt><trkpt lat="45.939961017017396" lon="9.165583176072792"><ele>203.66666666666666</ele><time>2026-04-19T09:56:10Z</time></trkpt><trkpt lat="45.94003520046672" lon="9.165831454027007"><ele>202.0</ele><time>2026-04-19T09:56:11Z</time></trkpt><trkpt lat="45.94008969751117" lon="9.166076026656173"><ele>202.0</ele><time>2026-04-19T09:56:12Z</time></trkpt><trkpt lat="45.940141294125574" lon="9.166292279721665"><ele>202.0</ele><time>2026-04-19T09:56:13Z</time></trkpt><trkpt lat="45.94019045396365" lon="9.166494688421192"><ele>202.0</ele><time>2026-04-19T09:56:14Z</time></trkpt><trkpt lat="45.940241040486235" lon="9.166685653318343"><ele>202.75</ele><time>2026-04-19T09:56:14.999Z</time></trkpt><trkpt lat="45.94028997710306" lon="9.166863955264226"><ele>203.5</ele><time>2026-04-19T09:56:15.999Z</time></trkpt><trkpt lat="45.940316725471185" lon="9.16698836349432"><ele>204.25</ele><time>2026-04-19T09:56:16.999Z</time></trkpt><trkpt lat="45.94036423526751" lon="9.167187499793155"><ele>205.0</ele><time>2026-04-19T09:56:17.999Z</time></trkpt><trkpt lat="45.9403748646057" lon="9.167351817131856"><ele>205.75</ele><time>2026-04-19T09:56:18.999Z</time></trkpt><trkpt lat="45.94035811333127" lon="9.167523922484847"><ele>206.5</ele><time>2026-04-19T09:56:19.999Z</time></trkpt><trkpt lat="45.94032729532165" lon="9.167700313100344"><ele>207.25</ele><time>2026-04-19T09:56:20.999Z</time></trkpt><trkpt lat="45.94029759391696" lon="9.167887933741905"><ele>208.0</ele><time>2026-04-19T09:56:21.999Z</time></trkpt><trkpt lat="45.94028384703528" lon="9.168088367039024"><ele>207.75</ele><time>2026-04-19T09:56:22.999Z</time></trkpt><trkpt lat="45.94029969401569" lon="9.16829367855224"><ele>207.5</ele><time>2026-04-19T09:56:23.999Z</time></trkpt><trkpt lat="45.94034819260105" lon="9.168498743102848"><ele>207.25</ele><time>2026-04-19T09:56:24.999Z</time></trkpt><trkpt lat="45.94039688724486" lon="9.168692864391568"><ele>207.0</ele><time>2026-04-19T09:56:25.999Z</time></trkpt><trkpt lat="45.940434976725655" lon="9.168875043056147"><ele>207.5</ele><time>2026-04-19T09:56:26.999Z</time></trkpt><trkpt lat="45.940469934349046" lon="9.169061107377464"><ele>208.0</ele><time>2026-04-19T09:56:27.999Z</time></trkpt><trkpt lat="45.94050402376475" lon="9.169247644772144"><ele>208.5</ele><time>2026-04-19T09:56:28.999Z</time></trkpt><trkpt lat="45.94054115520075" lon="9.169436636397444"><ele>209.0</ele><time>2026-04-19T09:56:29.999Z</time></trkpt><trkpt lat="45.94057920501379" lon="9.169626114554921"><ele>209.0</ele><time>2026-04-19T09:56:30.999Z</time></trkpt><trkpt lat="45.94063131040552" lon="9.169810727384403"><ele>209.0</ele><time>2026-04-19T09:56:31.999Z</time></trkpt><trkpt lat="45.940714679007236" lon="9.169975770265745"><ele>209.0</ele><time>2026-04-19T09:56:32.999Z</time></trkpt><trkpt lat="45.940821952488214" lon="9.170110671595205"><ele>209.0</ele><time>2026-04-19T09:56:33.999Z</time></trkpt><trkpt lat="45.94091140828552" lon="9.17024213520534"><ele>207.75</ele><time>2026-04-19T09:56:34.999Z</time></trkpt><trkpt lat="45.940990351232294" lon="9.170362394441096"><ele>206.5</ele><time>2026-04-19T09:56:35.999Z</time></trkpt><trkpt lat="45.94106903003715" lon="9.170472971154444"><ele>205.25</ele><time>2026-04-19T09:56:36.999Z</time></trkpt><trkpt lat="45.94118096432577" lon="9.170558176367582"><ele>204.0</ele><time>2026-04-19T09:56:37.999Z</time></trkpt><trkpt lat="45.94130991154111" lon="9.170639524253307"><ele>203.25</ele><time>2026-04-19T09:56:38.999Z</time></trkpt><trkpt lat="45.94144302969744" lon="9.170719746885831"><ele>202.5</ele><time>2026-04-19T09:56:39.999Z</time></trkpt><trkpt lat="45.94157406203606" lon="9.17080686998085"><ele>201.75</ele><time>2026-04-19T09:56:40.999Z</time></trkpt><trkpt lat="45.94169093039777" lon="9.17088588094381"><ele>201.0</ele><time>2026-04-19T09:56:41.999Z</time></trkpt><trkpt lat="45.941799284554726" lon="9.170958456097775"><ele>201.0</ele><time>2026-04-19T09:56:42.999Z</time></trkpt><trkpt lat="45.941881961675435" lon="9.171059913344486"><ele>201.0</ele><time>2026-04-19T09:56:43.999Z</time></trkpt><trkpt lat="45.941940986801306" lon="9.171191294669296"><ele>201.0</ele><time>2026-04-19T09:56:44.999Z</time></trkpt><trkpt lat="45.94198028290474" lon="9.1713439095639"><ele>201.0</ele><time>2026-04-19T09:56:45.999Z</time></trkpt><trkpt lat="45.941990873441526" lon="9.171507773049502"><ele>201.0</ele><time>2026-04-19T09:56:46.999Z</time></trkpt><trkpt lat="45.94199427847618" lon="9.17168904451375"><ele>201.8</ele><time>2026-04-19T09:56:47.999Z</time></trkpt><trkpt lat="45.9420321144253" lon="9.171838266924734"><ele>202.60000000000002</ele><time>2026-04-19T09:56:48.999Z</time></trkpt><trkpt lat="45.94208055783284" lon="9.171968149292447"><ele>203.4</ele><time>2026-04-19T09:56:49.999Z</time></trkpt><trkpt lat="45.942132135216056" lon="9.172100621788235"><ele>204.2</ele><time>2026-04-19T09:56:50.999Z</time></trkpt><trkpt lat="45.94219886253535" lon="9.17225874343562"><ele>205.0</ele><time>2026-04-19T09:56:51.999Z</time></trkpt><trkpt lat="45.94225741233726" lon="9.172438290828369"><ele>207.0</ele><time>2026-04-19T09:56:52.999Z</time></trkpt><trkpt lat="45.94232295990537" lon="9.172631890218833"><ele>209.0</ele><time>2026-04-19T09:56:53.999Z</time></trkpt><trkpt lat="45.94239205346617" lon="9.172837556740847"><ele>211.0</ele><time>2026-04-19T09:56:54.999Z</time></trkpt><trkpt lat="45.9424473804209" lon="9.17306117377257"><ele>212.5</ele><time>2026-04-19T09:56:55.999Z</time></trkpt><trkpt lat="45.94247877004507" lon="9.17326794963807"><ele>214.0</ele><time>2026-04-19T09:56:56.999Z</time></trkpt><trkpt lat="45.94250817800308" lon="9.17343385856355"><ele>215.5</ele><time>2026-04-19T09:56:57.999Z</time></trkpt><trkpt lat="45.942540367998824" lon="9.173595840871386"><ele>217.0</ele><time>2026-04-19T09:56:58.999Z</time></trkpt><trkpt lat="45.94257683278063" lon="9.173752356351224"><ele>213.75</ele><time>2026-04-19T09:56:59.999Z</time></trkpt><trkpt lat="45.94261805428369" lon="9.173921171318382"><ele>210.5</ele><time>2026-04-19T09:57:00.999Z</time></trkpt><trkpt lat="45.94266136009652" lon="9.174092562245978"><ele>207.25</ele><time>2026-04-19T09:57:01.999Z</time></trkpt><trkpt lat="45.94269584360041" lon="9.17427145683126"><ele>204.0</ele><time>2026-04-19T09:57:02.999Z</time></trkpt><trkpt lat="45.94271910652101" lon="9.174455131654758"><ele>204.0</ele><time>2026-04-19T09:57:03.999Z</time></trkpt><trkpt lat="45.94273443061951" lon="9.174639726634098"><ele>204.0</ele><time>2026-04-19T09:57:04.999Z</time></trkpt><trkpt lat="45.94275325168648" lon="9.174823413546584"><ele>204.0</ele><time>2026-04-19T09:57:05.999Z</time></trkpt><trkpt lat="45.94277706078648" lon="9.175022831342957"><ele>204.0</ele><time>2026-04-19T09:57:06.999Z</time></trkpt><trkpt lat="45.94282895021701" lon="9.175200721643368"><ele>206.0</ele><time>2026-04-19T09:57:07.999Z</time></trkpt><trkpt lat="45.94287037902488" lon="9.17539427431857"><ele>208.0</ele><time>2026-04-19T09:57:08.999Z</time></trkpt><trkpt lat="45.94294040631046" lon="9.175598630368388"><ele>210.0</ele><time>2026-04-19T09:57:09.999Z</time></trkpt><trkpt lat="45.94302233918341" lon="9.17580652613111"><ele>211.66666666666669</ele><time>2026-04-19T09:57:10.999Z</time></trkpt><trkpt lat="45.94311773040482" lon="9.17600588203475"><ele>213.33333333333334</ele><time>2026-04-19T09:57:11.999Z</time></trkpt><trkpt lat="45.94320283318091" lon="9.176194733207176"><ele>215.0</ele><time>2026-04-19T09:57:12.999Z</time></trkpt><trkpt lat="45.94327325279525" lon="9.1763704416746"><ele>212.0</ele><time>2026-04-19T09:57:13.999Z</time></trkpt><trkpt lat="45.94335255839221" lon="9.17655503248221"><ele>209.0</ele><time>2026-04-19T09:57:14.999Z</time></trkpt><trkpt lat="45.94342597877729" lon="9.176749217202623"><ele>206.0</ele><time>2026-04-19T09:57:15.999Z</time></trkpt><trkpt lat="45.943482865053404" lon="9.176933477036274"><ele>203.0</ele><time>2026-04-19T09:57:16.999Z</time></trkpt><trkpt lat="45.94352992296243" lon="9.177123725228784"><ele>203.0</ele><time>2026-04-19T09:57:17.999Z</time></trkpt><trkpt lat="45.943588494687525" lon="9.177323684485728"><ele>203.0</ele><time>2026-04-19T09:57:18.999Z</time></trkpt><trkpt lat="45.94364017367547" lon="9.177519928554812"><ele>203.0</ele><time>2026-04-19T09:57:19.999Z</time></trkpt><trkpt lat="45.94369468275644" lon="9.177706042012817"><ele>203.0</ele><time>2026-04-19T09:57:20.999Z</time></trkpt><trkpt lat="45.94375026902083" lon="9.17788012939911"><ele>204.0</ele><time>2026-04-19T09:57:21.999Z</time></trkpt><trkpt lat="45.94379573476982" lon="9.178034879210635"><ele>205.0</ele><time>2026-04-19T09:57:22.999Z</time></trkpt><trkpt lat="45.943838123647744" lon="9.178181482873272"><ele>206.0</ele><time>2026-04-19T09:57:23.998Z</time></trkpt><trkpt lat="45.94385257570427" lon="9.178333218337203"><ele>207.0</ele><time>2026-04-19T09:57:24.998Z</time></trkpt><trkpt lat="45.94384684363757" lon="9.178491729444106"><ele>208.0</ele><time>2026-04-19T09:57:25.998Z</time></trkpt><trkpt lat="45.943836417801386" lon="9.178631200008564"><ele>208.66666666666666</ele><time>2026-04-19T09:57:26.998Z</time></trkpt><trkpt lat="45.94383096966115" lon="9.178754058863445"><ele>209.33333333333331</ele><time>2026-04-19T09:57:27.998Z</time></trkpt><trkpt lat="45.94383229110538" lon="9.178869522453333"><ele>210.0</ele><time>2026-04-19T09:57:28.998Z</time></trkpt><trkpt lat="45.943833417774435" lon="9.178985520583081"><ele>210.66666666666669</ele><time>2026-04-19T09:57:29.998Z</time></trkpt><trkpt lat="45.943829233633245" lon="9.179103733560435"><ele>211.33333333333334</ele><time>2026-04-19T09:57:30.998Z</time></trkpt><trkpt lat="45.94382994498542" lon="9.179217910166463"><ele>212.0</ele><time>2026-04-19T09:57:32Z</time></trkpt><trkpt lat="45.94382876872272" lon="9.179343928106096"><ele>212.00000000000003</ele><time>2026-04-19T09:57:33Z</time></trkpt><trkpt lat="45.94382584859123" lon="9.179475499198748"><ele>212.0</ele><time>2026-04-19T09:57:34Z</time></trkpt><trkpt lat="45.943828286653606" lon="9.179595936459654"><ele>212.0</ele><time>2026-04-19T09:57:35Z</time></trkpt><trkpt lat="45.94382595950954" lon="9.179703928290051"><ele>212.0</ele><time>2026-04-19T09:57:36Z</time></trkpt><trkpt lat="45.94383820328732" lon="9.179811339882033"><ele>212.00000000000003</ele><time>2026-04-19T09:57:37Z</time></trkpt><trkpt lat="45.94386779008008" lon="9.179918119073847"><ele>212.0</ele><time>2026-04-19T09:57:38Z</time></trkpt><trkpt lat="45.9438949722599" lon="9.180033514571363"><ele>213.2</ele><time>2026-04-19T09:57:39Z</time></trkpt><trkpt lat="45.94392333115223" lon="9.180156942522762"><ele>214.39999999999998</ele><time>2026-04-19T09:57:40Z</time></trkpt><trkpt lat="45.943950495648664" lon="9.180289342741563"><ele>215.60000000000002</ele><time>2026-04-19T09:57:41Z</time></trkpt><trkpt lat="45.943984321323605" lon="9.180409345662547"><ele>216.8</ele><time>2026-04-19T09:57:42Z</time></trkpt><trkpt lat="45.94402144051692" lon="9.180533558337101"><ele>218.0</ele><time>2026-04-19T09:57:43Z</time></trkpt><trkpt lat="45.944063480165156" lon="9.180651604610292"><ele>219.16666666666669</ele><time>2026-04-19T09:57:44Z</time></trkpt><trkpt lat="45.94410383650423" lon="9.18075134191892"><ele>220.33333333333334</ele><time>2026-04-19T09:57:45Z</time></trkpt><trkpt lat="45.94414397935712" lon="9.18085315819031"><ele>221.5</ele><time>2026-04-19T09:57:46Z</time></trkpt><trkpt lat="45.944191323331395" lon="9.180960169832415"><ele>222.66666666666669</ele><time>2026-04-19T09:57:47Z</time></trkpt><trkpt lat="45.94424410472079" lon="9.181061296688913"><ele>223.83333333333334</ele><time>2026-04-19T09:57:48Z</time></trkpt><trkpt lat="45.94430065252515" lon="9.181157881632448"><ele>225.0</ele><time>2026-04-19T09:57:49Z</time></trkpt><trkpt lat="45.944381600384155" lon="9.181250054789489"><ele>223.4</ele><time>2026-04-19T09:57:50Z</time></trkpt><trkpt lat="45.944443232394775" lon="9.181337215781312"><ele>221.8</ele><time>2026-04-19T09:57:51Z</time></trkpt><trkpt lat="45.94451140274102" lon="9.181400335222682"><ele>220.2</ele><time>2026-04-19T09:57:52Z</time></trkpt><trkpt lat="45.94458801427362" lon="9.181500130017072"><ele>218.6</ele><time>2026-04-19T09:57:53Z</time></trkpt><trkpt lat="45.94465934811129" lon="9.18160831624384"><ele>217.0</ele><time>2026-04-19T09:57:54Z</time></trkpt><trkpt lat="45.94471058361336" lon="9.18172530052663"><ele>216.99999999999997</ele><time>2026-04-19T09:57:55Z</time></trkpt><trkpt lat="45.94475578789933" lon="9.181841898310799"><ele>217.0</ele><time>2026-04-19T09:57:56Z</time></trkpt><trkpt lat="45.944792767937116" lon="9.181928469785023"><ele>217.0</ele><time>2026-04-19T09:57:57Z</time></trkpt><trkpt lat="45.94483901046662" lon="9.182011490279187"><ele>217.0</ele><time>2026-04-19T09:57:58Z</time></trkpt><trkpt lat="45.94489304426576" lon="9.182128906669618"><ele>216.99999999999997</ele><time>2026-04-19T09:57:59Z</time></trkpt><trkpt lat="45.944940872456066" lon="9.182236614714343"><ele>217.0</ele><time>2026-04-19T09:58:00Z</time></trkpt><trkpt lat="45.94498324363689" lon="9.182345587305466"><ele>217.8</ele><time>2026-04-19T09:58:01Z</time></trkpt><trkpt lat="45.94501570648333" lon="9.182485850667442"><ele>218.6</ele><time>2026-04-19T09:58:02Z</time></trkpt><trkpt lat="45.945028745330475" lon="9.18262708646056"><ele>219.40000000000003</ele><time>2026-04-19T09:58:03Z</time></trkpt><trkpt lat="45.945038791356026" lon="9.182774773838236"><ele>220.20000000000002</ele><time>2026-04-19T09:58:04Z</time></trkpt><trkpt lat="45.945058023381115" lon="9.182898029425564"><ele>221.0</ele><time>2026-04-19T09:58:05Z</time></trkpt><trkpt lat="45.945063384110405" lon="9.183011515808378"><ele>221.00000000000003</ele><time>2026-04-19T09:58:06Z</time></trkpt><trkpt lat="45.94506611578147" lon="9.183116430208445"><ele>221.0</ele><time>2026-04-19T09:58:07Z</time></trkpt><trkpt lat="45.9450596894818" lon="9.183207997585189"><ele>221.0</ele><time>2026-04-19T09:58:08Z</time></trkpt><trkpt lat="45.945060926161865" lon="9.183306589347163"><ele>221.0</ele><time>2026-04-19T09:58:09Z</time></trkpt><trkpt lat="45.945066193491186" lon="9.183433959275641"><ele>221.00000000000003</ele><time>2026-04-19T09:58:11Z</time></trkpt><trkpt lat="45.945056761682345" lon="9.183534696825621"><ele>221.0</ele><time>2026-04-19T09:58:14Z</time></trkpt><trkpt lat="45.94503231309293" lon="9.18365296738867"><ele>221.00000000000003</ele><time>2026-04-19T09:58:22.999Z</time></trkpt><trkpt lat="45.945014900752575" lon="9.183809049347019"><ele>221.0</ele><time>2026-04-19T09:58:24.999Z</time></trkpt><trkpt lat="45.94501350815559" lon="9.18391066388479"><ele>221.0</ele><time>2026-04-19T09:58:25.999Z</time></trkpt><trkpt lat="45.94501900362066" lon="9.184001456452881"><ele>221.0</ele><time>2026-04-19T09:58:26.999Z</time></trkpt><trkpt lat="45.945023150286886" lon="9.184107991429658"><ele>221.00000000000003</ele><time>2026-04-19T09:58:27.999Z</time></trkpt><trkpt lat="45.94502546537491" lon="9.184214862721957"><ele>221.0</ele><time>2026-04-19T09:58:28.999Z</time></trkpt><trkpt lat="45.94502738083014" lon="9.184321355558897"><ele>221.16666666666669</ele><time>2026-04-19T09:58:29.999Z</time></trkpt><trkpt lat="45.94503376650827" lon="9.184423494889707"><ele>221.33333333333334</ele><time>2026-04-19T09:58:30.999Z</time></trkpt><trkpt lat="45.94504326851741" lon="9.184537128356059"><ele>221.5</ele><time>2026-04-19T09:58:31.999Z</time></trkpt><trkpt lat="45.94505573070675" lon="9.184661490376282"><ele>221.66666666666669</ele><time>2026-04-19T09:58:32.999Z</time></trkpt><trkpt lat="45.9450690403583" lon="9.184805293863274"><ele>221.83333333333334</ele><time>2026-04-19T09:58:33.999Z</time></trkpt><trkpt lat="45.94507481860841" lon="9.184927400917433"><ele>222.0</ele><time>2026-04-19T09:58:34.999Z</time></trkpt><trkpt lat="45.945082028867965" lon="9.185076650325213"><ele>218.8</ele><time>2026-04-19T09:58:35.999Z</time></trkpt><trkpt lat="45.945088286324705" lon="9.185206177108682"><ele>215.6</ele><time>2026-04-19T09:58:36.999Z</time></trkpt><trkpt lat="45.94509604909688" lon="9.185368179233821"><ele>212.4</ele><time>2026-04-19T09:58:37.999Z</time></trkpt><trkpt lat="45.94510634235107" lon="9.185527689607403"><ele>209.20000000000002</ele><time>2026-04-19T09:58:38.999Z</time></trkpt><trkpt lat="45.94512251260245" lon="9.185717263175968"><ele>206.0</ele><time>2026-04-19T09:58:39.999Z</time></trkpt><trkpt lat="45.94514522064299" lon="9.185930905089117"><ele>206.0</ele><time>2026-04-19T09:58:41.999Z</time></trkpt><trkpt lat="45.94516429489601" lon="9.186068650637118"><ele>206.0</ele><time>2026-04-19T09:58:42.999Z</time></trkpt><trkpt lat="45.94518770639635" lon="9.186195059862133"><ele>206.0</ele><time>2026-04-19T09:58:43.999Z</time></trkpt><trkpt lat="45.94520591953374" lon="9.18631885445761"><ele>206.0</ele><time>2026-04-19T09:58:44.999Z</time></trkpt><trkpt lat="45.945225401435955" lon="9.186440664418768"><ele>206.0</ele><time>2026-04-19T09:58:45.999Z</time></trkpt><trkpt lat="45.945238591770135" lon="9.18656314050575"><ele>205.8</ele><time>2026-04-19T09:58:46.999Z</time></trkpt><trkpt lat="45.94525034415141" lon="9.18668838688607"><ele>205.60000000000002</ele><time>2026-04-19T09:58:47.999Z</time></trkpt><trkpt lat="45.94524239095523" lon="9.1868198795437"><ele>205.4</ele><time>2026-04-19T09:58:48.999Z</time></trkpt><trkpt lat="45.94522613016295" lon="9.18695993551672"><ele>205.2</ele><time>2026-04-19T09:58:49.999Z</time></trkpt><trkpt lat="45.94519413167727" lon="9.187106545239827"><ele>205.0</ele><time>2026-04-19T09:58:50.999Z</time></trkpt><trkpt lat="45.945176138641855" lon="9.187267021616975"><ele>204.5</ele><time>2026-04-19T09:58:51.999Z</time></trkpt><trkpt lat="45.94515962089323" lon="9.187433356827356"><ele>204.0</ele><time>2026-04-19T09:58:52.999Z</time></trkpt><trkpt lat="45.94512692420456" lon="9.187609253769464"><ele>203.5</ele><time>2026-04-19T09:58:53.999Z</time></trkpt><trkpt lat="45.94509772391054" lon="9.187784757346767"><ele>203.0</ele><time>2026-04-19T09:58:54.999Z</time></trkpt><trkpt lat="45.945071515552016" lon="9.187955423925821"><ele>203.0</ele><time>2026-04-19T09:58:55.999Z</time></trkpt><trkpt lat="45.94504946212558" lon="9.188137160027116"><ele>203.0</ele><time>2026-04-19T09:58:56.999Z</time></trkpt><trkpt lat="45.94503143095981" lon="9.188319606048692"><ele>203.0</ele><time>2026-04-19T09:58:57.999Z</time></trkpt><trkpt lat="45.9450357807167" lon="9.188498435839316"><ele>203.0</ele><time>2026-04-19T09:58:58.999Z</time></trkpt><trkpt lat="45.94505135997151" lon="9.188682442048345"><ele>203.25</ele><time>2026-04-19T09:58:59.999Z</time></trkpt><trkpt lat="45.945084535387124" lon="9.188856093362908"><ele>203.5</ele><time>2026-04-19T09:59:00.999Z</time></trkpt><trkpt lat="45.94511636199231" lon="9.189020549885537"><ele>203.75</ele><time>2026-04-19T09:59:01.999Z</time></trkpt><trkpt lat="45.94518660310522" lon="9.189172452915194"><ele>204.0</ele><time>2026-04-19T09:59:02.999Z</time></trkpt><trkpt lat="45.94524369867135" lon="9.1893104285595"><ele>204.0</ele><time>2026-04-19T09:59:03.999Z</time></trkpt><trkpt lat="45.945276106529064" lon="9.189438975593001"><ele>204.0</ele><time>2026-04-19T09:59:04.999Z</time></trkpt><trkpt lat="45.945303336210465" lon="9.189589252809133"><ele>204.0</ele><time>2026-04-19T09:59:05.999Z</time></trkpt><trkpt lat="45.945300931646536" lon="9.189757489158843"><ele>204.0</ele><time>2026-04-19T09:59:06.999Z</time></trkpt><trkpt lat="45.94530162225141" lon="9.189933796251289"><ele>204.0</ele><time>2026-04-19T09:59:07.999Z</time></trkpt><trkpt lat="45.9452995409245" lon="9.19011898808001"><ele>205.5</ele><time>2026-04-19T09:59:08.999Z</time></trkpt><trkpt lat="45.945319540328086" lon="9.190300496170911"><ele>207.0</ele><time>2026-04-19T09:59:09.999Z</time></trkpt><trkpt lat="45.94533933891206" lon="9.190469878537984"><ele>208.5</ele><time>2026-04-19T09:59:10.999Z</time></trkpt><trkpt lat="45.94536417167679" lon="9.190635474506667"><ele>210.0</ele><time>2026-04-19T09:59:11.999Z</time></trkpt><trkpt lat="45.945408215525" lon="9.190795678916317"><ele>210.0</ele><time>2026-04-19T09:59:12.999Z</time></trkpt><trkpt lat="45.94544707939047" lon="9.190938690060268"><ele>210.0</ele><time>2026-04-19T09:59:13.999Z</time></trkpt><trkpt lat="45.94548855626648" lon="9.191049707833399"><ele>210.0</ele><time>2026-04-19T09:59:14.999Z</time></trkpt><trkpt lat="45.94551934585874" lon="9.191159900479024"><ele>210.0</ele><time>2026-04-19T09:59:15.999Z</time></trkpt><trkpt lat="45.945547985359084" lon="9.191282339407946"><ele>210.0</ele><time>2026-04-19T09:59:16.999Z</time></trkpt><trkpt lat="45.945563407346704" lon="9.191418679865668"><ele>210.8</ele><time>2026-04-19T09:59:17.999Z</time></trkpt><trkpt lat="45.945571477212845" lon="9.191553731275071"><ele>211.6</ele><time>2026-04-19T09:59:18.999Z</time></trkpt><trkpt lat="45.94559106289374" lon="9.191697496893026"><ele>212.39999999999998</ele><time>2026-04-19T09:59:19.999Z</time></trkpt><trkpt lat="45.945609732992736" lon="9.191838506145695"><ele>213.2</ele><time>2026-04-19T09:59:20.999Z</time></trkpt><trkpt lat="45.945634471630854" lon="9.191972699954931"><ele>214.0</ele><time>2026-04-19T09:59:21.999Z</time></trkpt><trkpt lat="45.94566015348848" lon="9.192108285139534"><ele>214.0</ele><time>2026-04-19T09:59:22.999Z</time></trkpt><trkpt lat="45.94570001697974" lon="9.192246036913252"><ele>214.0</ele><time>2026-04-19T09:59:23.999Z</time></trkpt><trkpt lat="45.945751291137874" lon="9.192383923381099"><ele>214.0</ele><time>2026-04-19T09:59:24.999Z</time></trkpt><trkpt lat="45.94582628734376" lon="9.192521219686155"><ele>214.0</ele><time>2026-04-19T09:59:25.999Z</time></trkpt><trkpt lat="45.94590419842233" lon="9.192662335397424"><ele>211.0</ele><time>2026-04-19T09:59:26.999Z</time></trkpt><trkpt lat="45.94597956101326" lon="9.192782343675022"><ele>207.99999999999997</ele><time>2026-04-19T09:59:27.999Z</time></trkpt><trkpt lat="45.9460584615803" lon="9.19288009945744"><ele>205.0</ele><time>2026-04-19T09:59:28.999Z</time></trkpt><trkpt lat="45.94612076301524" lon="9.19297536572739"><ele>202.0</ele><time>2026-04-19T09:59:29.998Z</time></trkpt><trkpt lat="45.94617396153157" lon="9.19307537625106"><ele>199.0</ele><time>2026-04-19T09:59:30.998Z</time></trkpt><trkpt lat="45.9462324408062" lon="9.193172099075072"><ele>199.66666666666666</ele><time>2026-04-19T09:59:31.998Z</time></trkpt><trkpt lat="45.94627920865268" lon="9.193284465889022"><ele>200.33333333333331</ele><time>2026-04-19T09:59:32.998Z</time></trkpt><trkpt lat="45.94632636600337" lon="9.193402191042992"><ele>201.0</ele><time>2026-04-19T09:59:33.998Z</time></trkpt><trkpt lat="45.946360802243746" lon="9.19352192188588"><ele>201.66666666666669</ele><time>2026-04-19T09:59:34.998Z</time></trkpt><trkpt lat="45.946384418510554" lon="9.193640484484684"><ele>202.33333333333334</ele><time>2026-04-19T09:59:35.998Z</time></trkpt><trkpt lat="45.9464029273768" lon="9.19375996620751"><ele>203.0</ele><time>2026-04-19T09:59:36.998Z</time></trkpt><trkpt lat="45.94641431714869" lon="9.193888951418486"><ele>203.60000000000002</ele><time>2026-04-19T09:59:38Z</time></trkpt><trkpt lat="45.94641707181984" lon="9.19402448082664"><ele>204.20000000000002</ele><time>2026-04-19T09:59:39Z</time></trkpt><trkpt lat="45.94642720487138" lon="9.194148193803311"><ele>204.8</ele><time>2026-04-19T09:59:40Z</time></trkpt><trkpt lat="45.94641870405968" lon="9.194276952685474"><ele>205.4</ele><time>2026-04-19T09:59:41Z</time></trkpt><trkpt lat="45.94642545156028" lon="9.194403636186369"><ele>206.0</ele><time>2026-04-19T09:59:42Z</time></trkpt><trkpt lat="45.94642093360012" lon="9.194550274353059"><ele>206.0</ele><time>2026-04-19T09:59:43Z</time></trkpt><trkpt lat="45.946394979098386" lon="9.194684193259478"><ele>206.0</ele><time>2026-04-19T09:59:44Z</time></trkpt><trkpt lat="45.946386283248444" lon="9.194808809184352"><ele>206.0</ele><time>2026-04-19T09:59:45Z</time></trkpt><trkpt lat="45.946390710352425" lon="9.194949528610056"><ele>206.0</ele><time>2026-04-19T09:59:46Z</time></trkpt><trkpt lat="45.94638334101185" lon="9.195086825508035"><ele>206.0</ele><time>2026-04-19T09:59:47Z</time></trkpt><trkpt lat="45.946357982893254" lon="9.195221837720513"><ele>206.50000000000003</ele><time>2026-04-19T09:59:48Z</time></trkpt><trkpt lat="45.946360760855235" lon="9.195360132070832"><ele>207.0</ele><time>2026-04-19T09:59:49Z</time></trkpt><trkpt lat="45.94635412926125" lon="9.195487151667187"><ele>207.5</ele><time>2026-04-19T09:59:50Z</time></trkpt><trkpt lat="45.94632727918242" lon="9.195609339888943"><ele>208.0</ele><time>2026-04-19T09:59:51Z</time></trkpt><trkpt lat="45.94631788795402" lon="9.195726677293209"><ele>208.50000000000003</ele><time>2026-04-19T09:59:52Z</time></trkpt><trkpt lat="45.94632355684038" lon="9.195843025942747"><ele>209.0</ele><time>2026-04-19T09:59:53Z</time></trkpt><trkpt lat="45.94630175394017" lon="9.195966061903452"><ele>209.00000000000003</ele><time>2026-04-19T09:59:54Z</time></trkpt><trkpt lat="45.946308056385085" lon="9.19608656324305"><ele>209.0</ele><time>2026-04-19T09:59:55Z</time></trkpt><trkpt lat="45.94633754116436" lon="9.196214181355115"><ele>209.0</ele><time>2026-04-19T09:59:56Z</time></trkpt><trkpt lat="45.946385049367784" lon="9.19633596458091"><ele>209.0</ele><time>2026-04-19T09:59:57Z</time></trkpt><trkpt lat="45.946422122677596" lon="9.196438265002907"><ele>209.00000000000003</ele><time>2026-04-19T09:59:58Z</time></trkpt><trkpt lat="45.94645851755848" lon="9.1965471491782"><ele>209.0</ele><time>2026-04-19T09:59:59Z</time></trkpt><trkpt lat="45.9464933679899" lon="9.196663443676785"><ele>209.0</ele><time>2026-04-19T10:00:00Z</time></trkpt><trkpt lat="45.946516820419" lon="9.196784127944774"><ele>209.0</ele><time>2026-04-19T10:00:01Z</time></trkpt><trkpt lat="45.94647299620561" lon="9.196912730366096"><ele>209.0</ele><time>2026-04-19T10:00:02Z</time></trkpt><trkpt lat="45.94646953322113" lon="9.197071367852681"><ele>209.0</ele><time>2026-04-19T10:00:03Z</time></trkpt><trkpt lat="45.946427530601696" lon="9.19723449801224"><ele>209.0</ele><time>2026-04-19T10:00:04Z</time></trkpt><trkpt lat="45.94641290366557" lon="9.197392888007984"><ele>208.79999999999998</ele><time>2026-04-19T10:00:05Z</time></trkpt><trkpt lat="45.946400207882526" lon="9.197539345478322"><ele>208.6</ele><time>2026-04-19T10:00:06Z</time></trkpt><trkpt lat="45.94638610511758" lon="9.197682647826818"><ele>208.4</ele><time>2026-04-19T10:00:07Z</time></trkpt><trkpt lat="45.94636982149411" lon="9.19783948134648"><ele>208.2</ele><time>2026-04-19T10:00:08Z</time></trkpt><trkpt lat="45.94634346788923" lon="9.19800251402129"><ele>208.0</ele><time>2026-04-19T10:00:09Z</time></trkpt><trkpt lat="45.94632932932135" lon="9.198157045016806"><ele>207.2</ele><time>2026-04-19T10:00:10Z</time></trkpt><trkpt lat="45.946320712455154" lon="9.198309692142722"><ele>206.4</ele><time>2026-04-19T10:00:11Z</time></trkpt><trkpt lat="45.946301934754324" lon="9.198448577240532"><ele>205.6</ele><time>2026-04-19T10:00:12Z</time></trkpt><trkpt lat="45.94629400132024" lon="9.19860373603398"><ele>204.79999999999998</ele><time>2026-04-19T10:00:13Z</time></trkpt><trkpt lat="45.94629394504371" lon="9.198755326634327"><ele>204.0</ele><time>2026-04-19T10:00:14Z</time></trkpt><trkpt lat="45.94630163356795" lon="9.198898170158046"><ele>204.2</ele><time>2026-04-19T10:00:15Z</time></trkpt><trkpt lat="45.94630762962234" lon="9.199039177757468"><ele>204.39999999999998</ele><time>2026-04-19T10:00:16Z</time></trkpt><trkpt lat="45.946313587554926" lon="9.199172323986012"><ele>204.6</ele><time>2026-04-19T10:00:17Z</time></trkpt><trkpt lat="45.9463203060529" lon="9.199300093145977"><ele>204.8</ele><time>2026-04-19T10:00:18Z</time></trkpt><trkpt lat="45.946327462891084" lon="9.199433249078078"><ele>205.0</ele><time>2026-04-19T10:00:19Z</time></trkpt><trkpt lat="45.94634131508189" lon="9.199565170747674"><ele>205.0</ele><time>2026-04-19T10:00:20Z</time></trkpt><trkpt lat="45.94635946575451" lon="9.199708900600983"><ele>205.0</ele><time>2026-04-19T10:00:21Z</time></trkpt><trkpt lat="45.946373913038286" lon="9.19985179013185"><ele>205.0</ele><time>2026-04-19T10:00:22Z</time></trkpt><trkpt lat="45.94639051978908" lon="9.199992964964993"><ele>205.0</ele><time>2026-04-19T10:00:23Z</time></trkpt><trkpt lat="45.946390346300305" lon="9.200128523180553"><ele>205.0</ele><time>2026-04-19T10:00:23.999Z</time></trkpt><trkpt lat="45.946418209673354" lon="9.200264606208874"><ele>205.0</ele><time>2026-04-19T10:00:24.999Z</time></trkpt><trkpt lat="45.94645271277257" lon="9.200406161432383"><ele>205.0</ele><time>2026-04-19T10:00:25.999Z</time></trkpt><trkpt lat="45.946475402050346" lon="9.200532351674752"><ele>205.0</ele><time>2026-04-19T10:00:26.999Z</time></trkpt><trkpt lat="45.94650711027854" lon="9.200653907136122"><ele>205.0</ele><time>2026-04-19T10:00:27.999Z</time></trkpt><trkpt lat="45.94654064951984" lon="9.200781928533917"><ele>205.0</ele><time>2026-04-19T10:00:28.999Z</time></trkpt><trkpt lat="45.94657341322249" lon="9.200915380454237"><ele>204.99999999999997</ele><time>2026-04-19T10:00:29.999Z</time></trkpt><trkpt lat="45.94660199393417" lon="9.201050712148607"><ele>205.0</ele><time>2026-04-19T10:00:30.999Z</time></trkpt><trkpt lat="45.94662244765442" lon="9.201188585766133"><ele>205.0</ele><time>2026-04-19T10:00:31.999Z</time></trkpt><trkpt lat="45.94664066659327" lon="9.201302839841253"><ele>205.0</ele><time>2026-04-19T10:00:32.999Z</time></trkpt><trkpt lat="45.94666305038075" lon="9.201436535299802"><ele>204.99999999999997</ele><time>2026-04-19T10:00:34.999Z</time></trkpt><trkpt lat="45.94668961811628" lon="9.201528301837797"><ele>205.0</ele><time>2026-04-19T10:00:37.999Z</time></trkpt><trkpt lat="45.94672917267972" lon="9.201679884882193"><ele>203.6</ele><time>2026-04-19T10:00:39.999Z</time></trkpt><trkpt lat="45.94675262760082" lon="9.201769770018535"><ele>202.2</ele><time>2026-04-19T10:00:40.999Z</time></trkpt><trkpt lat="45.94677627440543" lon="9.201860390510198"><ele>200.8</ele><time>2026-04-19T10:00:41.999Z</time></trkpt><trkpt lat="45.94681704915467" lon="9.202010632250097"><ele>199.4</ele><time>2026-04-19T10:00:43.999Z</time></trkpt><trkpt lat="45.94686480173167" lon="9.2021828612381"><ele>198.0</ele><time>2026-04-19T10:00:45.999Z</time></trkpt><trkpt lat="45.946899335133594" lon="9.202301723986333"><ele>199.2</ele><time>2026-04-19T10:00:46.999Z</time></trkpt><trkpt lat="45.946937661075175" lon="9.20241161254361"><ele>200.4</ele><time>2026-04-19T10:00:47.999Z</time></trkpt><trkpt lat="45.94698768802203" lon="9.2025318157461"><ele>201.6</ele><time>2026-04-19T10:00:48.999Z</time></trkpt><trkpt lat="45.947045054056616" lon="9.202643700598951"><ele>202.79999999999998</ele><time>2026-04-19T10:00:49.999Z</time></trkpt><trkpt lat="45.947123500360206" lon="9.202749562420166"><ele>204.0</ele><time>2026-04-19T10:00:50.999Z</time></trkpt><trkpt lat="45.947196854746785" lon="9.202830824808856"><ele>204.0</ele><time>2026-04-19T10:00:51.999Z</time></trkpt><trkpt lat="45.94726571805076" lon="9.202904000682674"><ele>204.0</ele><time>2026-04-19T10:00:52.999Z</time></trkpt><trkpt lat="45.947346618978116" lon="9.202961539002608"><ele>204.0</ele><time>2026-04-19T10:00:53.999Z</time></trkpt><trkpt lat="45.94742219938769" lon="9.203038338500836"><ele>204.0</ele><time>2026-04-19T10:00:54.999Z</time></trkpt><trkpt lat="45.94749283002303" lon="9.203134501791753"><ele>204.0</ele><time>2026-04-19T10:00:55.999Z</time></trkpt><trkpt lat="45.947570712044644" lon="9.20322018994953"><ele>203.6</ele><time>2026-04-19T10:00:56.999Z</time></trkpt><trkpt lat="45.947656556063855" lon="9.203280877560868"><ele>203.2</ele><time>2026-04-19T10:00:57.999Z</time></trkpt><trkpt lat="45.947726557209926" lon="9.203381891375352"><ele>202.79999999999998</ele><time>2026-04-19T10:00:58.999Z</time></trkpt><trkpt lat="45.94779034578889" lon="9.203448076959772"><ele>202.39999999999998</ele><time>2026-04-19T10:00:59.999Z</time></trkpt><trkpt lat="45.947873016558106" lon="9.203528134103138"><ele>202.0</ele><time>2026-04-19T10:01:00.999Z</time></trkpt><trkpt lat="45.947950404792955" lon="9.20359388988284"><ele>202.0</ele><time>2026-04-19T10:01:01.999Z</time></trkpt><trkpt lat="45.94802757970975" lon="9.203667896101457"><ele>202.0</ele><time>2026-04-19T10:01:02.999Z</time></trkpt><trkpt lat="45.948107652877226" lon="9.203746610025021"><ele>202.0</ele><time>2026-04-19T10:01:03.999Z</time></trkpt><trkpt lat="45.94819779758697" lon="9.203815630825035"><ele>202.0</ele><time>2026-04-19T10:01:04.999Z</time></trkpt><trkpt lat="45.94827140176047" lon="9.203923368115765"><ele>202.0</ele><time>2026-04-19T10:01:05.999Z</time></trkpt><trkpt lat="45.948351270883876" lon="9.204019060750804"><ele>201.66666666666666</ele><time>2026-04-19T10:01:06.999Z</time></trkpt><trkpt lat="45.9484196045938" lon="9.204106885432626"><ele>201.33333333333331</ele><time>2026-04-19T10:01:07.999Z</time></trkpt><trkpt lat="45.9484784126713" lon="9.204190996986299"><ele>201.0</ele><time>2026-04-19T10:01:08.999Z</time></trkpt><trkpt lat="45.94853717489113" lon="9.20427392069405"><ele>200.66666666666669</ele><time>2026-04-19T10:01:09.999Z</time></trkpt><trkpt lat="45.94859461904327" lon="9.204368602959354"><ele>200.33333333333334</ele><time>2026-04-19T10:01:10.999Z</time></trkpt><trkpt lat="45.948628016134634" lon="9.204492639440181"><ele>200.0</ele><time>2026-04-19T10:01:11.999Z</time></trkpt><trkpt lat="45.94860504942554" lon="9.204636584597257"><ele>200.00000000000003</ele><time>2026-04-19T10:01:12.999Z</time></trkpt><trkpt lat="45.948583620285994" lon="9.204773122487678"><ele>200.0</ele><time>2026-04-19T10:01:13.999Z</time></trkpt><trkpt lat="45.94852621721935" lon="9.204889964080968"><ele>200.0</ele><time>2026-04-19T10:01:14.999Z</time></trkpt><trkpt lat="45.948482445284874" lon="9.205017981159303"><ele>200.0</ele><time>2026-04-19T10:01:15.999Z</time></trkpt><trkpt lat="45.94845421100379" lon="9.205126585517712"><ele>200.00000000000003</ele><time>2026-04-19T10:01:16.999Z</time></trkpt><trkpt lat="45.948426049679206" lon="9.205211980913148"><ele>200.0</ele><time>2026-04-19T10:01:17.999Z</time></trkpt><trkpt lat="45.94837677569658" lon="9.20535830360174"><ele>203.50000000000003</ele><time>2026-04-19T10:01:19.999Z</time></trkpt><trkpt lat="45.94835000852049" lon="9.205446067829726"><ele>207.0</ele><time>2026-04-19T10:01:20.999Z</time></trkpt><trkpt lat="45.94832250012645" lon="9.205544616035267"><ele>210.5</ele><time>2026-04-19T10:01:21.999Z</time></trkpt><trkpt lat="45.94830214528982" lon="9.205661687908268"><ele>214.0</ele><time>2026-04-19T10:01:22.999Z</time></trkpt><trkpt lat="45.94827878327337" lon="9.205775353618566"><ele>217.50000000000003</ele><time>2026-04-19T10:01:23.999Z</time></trkpt><trkpt lat="45.94824628990161" lon="9.205899557833988"><ele>221.0</ele><time>2026-04-19T10:01:24.999Z</time></trkpt><trkpt lat="45.9482116524211" lon="9.206011744874834"><ele>221.0</ele><time>2026-04-19T10:01:25.999Z</time></trkpt><trkpt lat="45.948174492637534" lon="9.206126587824482"><ele>221.00000000000003</ele><time>2026-04-19T10:01:26.999Z</time></trkpt><trkpt lat="45.948169393323106" lon="9.206254646590445"><ele>221.00000000000003</ele><time>2026-04-19T10:01:27.999Z</time></trkpt><trkpt lat="45.94815203269416" lon="9.206390308815468"><ele>221.0</ele><time>2026-04-19T10:01:28.999Z</time></trkpt><trkpt lat="45.94813633137641" lon="9.20652577895935"><ele>221.0</ele><time>2026-04-19T10:01:29.999Z</time></trkpt><trkpt lat="45.948123580502006" lon="9.206657274320298"><ele>220.16666666666669</ele><time>2026-04-19T10:01:30.999Z</time></trkpt><trkpt lat="45.94813919278546" lon="9.206780147828095"><ele>219.33333333333334</ele><time>2026-04-19T10:01:31.998Z</time></trkpt><trkpt lat="45.94815932713858" lon="9.2068863852972"><ele>218.5</ele><time>2026-04-19T10:01:32.998Z</time></trkpt><trkpt lat="45.948220280508" lon="9.206992222700793"><ele>217.66666666666669</ele><time>2026-04-19T10:01:33.998Z</time></trkpt><trkpt lat="45.94830496304117" lon="9.207062421425917"><ele>216.83333333333334</ele><time>2026-04-19T10:01:34.998Z</time></trkpt><trkpt lat="45.94838818748154" lon="9.207101311467552"><ele>216.0</ele><time>2026-04-19T10:01:35.998Z</time></trkpt><trkpt lat="45.94845255035" lon="9.207121710320871"><ele>215.16666666666666</ele><time>2026-04-19T10:01:36.998Z</time></trkpt><trkpt lat="45.94852734627859" lon="9.20714414920826"><ele>214.33333333333331</ele><time>2026-04-19T10:01:37.998Z</time></trkpt><trkpt lat="45.94860244061429" lon="9.207167847728314"><ele>213.5</ele><time>2026-04-19T10:01:38.998Z</time></trkpt><trkpt lat="45.94867674228396" lon="9.207193729090259"><ele>212.66666666666666</ele><time>2026-04-19T10:01:39.998Z</time></trkpt><trkpt lat="45.94875007808326" lon="9.207228597016542"><ele>211.83333333333331</ele><time>2026-04-19T10:01:40.998Z</time></trkpt><trkpt lat="45.94882218523227" lon="9.20727855820055"><ele>211.0</ele><time>2026-04-19T10:01:41.998Z</time></trkpt><trkpt lat="45.94889757955031" lon="9.207335869779136"><ele>212.99999999999997</ele><time>2026-04-19T10:01:42.998Z</time></trkpt><trkpt lat="45.948973005983014" lon="9.207395310704115"><ele>215.0</ele><time>2026-04-19T10:01:44Z</time></trkpt><trkpt lat="45.94904346025716" lon="9.207455950574415"><ele>217.0</ele><time>2026-04-19T10:01:45Z</time></trkpt><trkpt lat="45.94909841983708" lon="9.207516710353703"><ele>219.0</ele><time>2026-04-19T10:01:46Z</time></trkpt><trkpt lat="45.94917113676591" lon="9.207674119702355"><ele>220.99999999999997</ele><time>2026-04-19T10:01:48Z</time></trkpt><trkpt lat="45.94918468040463" lon="9.207775352344298"><ele>223.0</ele><time>2026-04-19T10:01:49Z</time></trkpt><trkpt lat="45.949189497757466" lon="9.207894081600848"><ele>222.99999999999997</ele><time>2026-04-19T10:01:50Z</time></trkpt><trkpt lat="45.949182364360716" lon="9.208016972807435"><ele>223.0</ele><time>2026-04-19T10:01:51Z</time></trkpt><trkpt lat="45.94916853622668" lon="9.208147608078045"><ele>223.0</ele><time>2026-04-19T10:01:52Z</time></trkpt><trkpt lat="45.949164893103514" lon="9.208274356079992"><ele>223.0</ele><time>2026-04-19T10:01:53Z</time></trkpt><trkpt lat="45.949129568748035" lon="9.208371907592394"><ele>222.99999999999997</ele><time>2026-04-19T10:01:54Z</time></trkpt><trkpt lat="45.94909031149325" lon="9.208453328455416"><ele>223.0</ele><time>2026-04-19T10:01:55Z</time></trkpt><trkpt lat="45.94905440133285" lon="9.208547139555924"><ele>223.83333333333331</ele><time>2026-04-19T10:01:56Z</time></trkpt><trkpt lat="45.94902103082465" lon="9.208644578711631"><ele>224.66666666666666</ele><time>2026-04-19T10:01:57Z</time></trkpt><trkpt lat="45.94900701837704" lon="9.208745532167542"><ele>225.5</ele><time>2026-04-19T10:01:58Z</time></trkpt><trkpt lat="45.949011176069355" lon="9.208868303587526"><ele>226.33333333333331</ele><time>2026-04-19T10:01:59Z</time></trkpt><trkpt lat="45.94905403754454" lon="9.20896728531732"><ele>227.16666666666666</ele><time>2026-04-19T10:02:00Z</time></trkpt><trkpt lat="45.94908745192584" lon="9.209113949050174"><ele>228.0</ele><time>2026-04-19T10:02:02Z</time></trkpt><trkpt lat="45.949115232997656" lon="9.209218309054847"><ele>228.60000000000002</ele><time>2026-04-19T10:02:03Z</time></trkpt><trkpt lat="45.94916314957547" lon="9.209338966073034"><ele>229.20000000000002</ele><time>2026-04-19T10:02:04Z</time></trkpt><trkpt lat="45.949168340833616" lon="9.209490369185383"><ele>229.8</ele><time>2026-04-19T10:02:05Z</time></trkpt><trkpt lat="45.94916467160764" lon="9.209649599961352"><ele>230.4</ele><time>2026-04-19T10:02:06Z</time></trkpt><trkpt lat="45.94918422903699" lon="9.209812835499795"><ele>231.0</ele><time>2026-04-19T10:02:07Z</time></trkpt><trkpt lat="45.949202996122594" lon="9.210017284643055"><ele>228.20000000000002</ele><time>2026-04-19T10:02:08Z</time></trkpt><trkpt lat="45.9492520512645" lon="9.210194821990202"><ele>225.40000000000003</ele><time>2026-04-19T10:02:09Z</time></trkpt><trkpt lat="45.949292019253875" lon="9.210341824029921"><ele>222.6</ele><time>2026-04-19T10:02:10Z</time></trkpt><trkpt lat="45.949325946139304" lon="9.210477506557517"><ele>219.8</ele><time>2026-04-19T10:02:11Z</time></trkpt><trkpt lat="45.94935117836241" lon="9.210606367442443"><ele>217.0</ele><time>2026-04-19T10:02:12Z</time></trkpt><trkpt lat="45.949366287405816" lon="9.210734939678618"><ele>216.99999999999997</ele><time>2026-04-19T10:02:13Z</time></trkpt><trkpt lat="45.949354475985416" lon="9.210852389518358"><ele>217.0</ele><time>2026-04-19T10:02:14Z</time></trkpt><trkpt lat="45.94932994132153" lon="9.210974903783372"><ele>217.0</ele><time>2026-04-19T10:02:15Z</time></trkpt><trkpt lat="45.94929514941048" lon="9.211090958568517"><ele>217.0</ele><time>2026-04-19T10:02:16Z</time></trkpt><trkpt lat="45.94926551497644" lon="9.211202876318309"><ele>216.99999999999997</ele><time>2026-04-19T10:02:17Z</time></trkpt><trkpt lat="45.94925809215979" lon="9.211313079874484"><ele>217.0</ele><time>2026-04-19T10:02:18Z</time></trkpt><trkpt lat="45.94929397783979" lon="9.211405021714015"><ele>217.0</ele><time>2026-04-19T10:02:19Z</time></trkpt><trkpt lat="45.94936691840236" lon="9.2114923312957"><ele>217.0</ele><time>2026-04-19T10:02:20Z</time></trkpt><trkpt lat="45.94945738501441" lon="9.211487346202643"><ele>217.0</ele><time>2026-04-19T10:02:21Z</time></trkpt><trkpt lat="45.949547594338775" lon="9.211525186639005"><ele>217.0</ele><time>2026-04-19T10:02:22Z</time></trkpt><trkpt lat="45.94962985104113" lon="9.21153884236867"><ele>217.0</ele><time>2026-04-19T10:02:23Z</time></trkpt><trkpt lat="45.949726683852155" lon="9.211534493430484"><ele>220.2</ele><time>2026-04-19T10:02:24Z</time></trkpt><trkpt lat="45.94981880070169" lon="9.211549538641695"><ele>223.39999999999998</ele><time>2026-04-19T10:02:25Z</time></trkpt><trkpt lat="45.949916659566135" lon="9.211579062568143"><ele>226.60000000000002</ele><time>2026-04-19T10:02:26Z</time></trkpt><trkpt lat="45.95001654683591" lon="9.211596270892947"><ele>229.8</ele><time>2026-04-19T10:02:27Z</time></trkpt><trkpt lat="45.95012605457498" lon="9.211623486007744"><ele>233.0</ele><time>2026-04-19T10:02:28Z</time></trkpt><trkpt lat="45.95023096377749" lon="9.21165926578984"><ele>233.0</ele><time>2026-04-19T10:02:29Z</time></trkpt><trkpt lat="45.95033615289048" lon="9.21173092146069"><ele>233.0</ele><time>2026-04-19T10:02:30Z</time></trkpt><trkpt lat="45.950432471308616" lon="9.211778801739877"><ele>233.0</ele><time>2026-04-19T10:02:31Z</time></trkpt><trkpt lat="45.95053576319865" lon="9.211797959520863"><ele>233.0</ele><time>2026-04-19T10:02:32Z</time></trkpt><trkpt lat="45.95063775992778" lon="9.211813189427566"><ele>233.0</ele><time>2026-04-19T10:02:33Z</time></trkpt><trkpt lat="45.95073522629825" lon="9.21183834034603"><ele>233.0</ele><time>2026-04-19T10:02:34Z</time></trkpt><trkpt lat="45.95083292417099" lon="9.211886922420874"><ele>233.0</ele><time>2026-04-19T10:02:34.999Z</time></trkpt><trkpt lat="45.95091178224962" lon="9.211974724100775"><ele>233.0</ele><time>2026-04-19T10:02:35.999Z</time></trkpt><trkpt lat="45.950982817986166" lon="9.21210430252955"><ele>233.0</ele><time>2026-04-19T10:02:36.999Z</time></trkpt><trkpt lat="45.95106620318774" lon="9.212250023239132"><ele>233.0</ele><time>2026-04-19T10:02:37.999Z</time></trkpt><trkpt lat="45.95114268387551" lon="9.212388132317002"><ele>232.2</ele><time>2026-04-19T10:02:38.999Z</time></trkpt><trkpt lat="45.95121808241545" lon="9.212512144933594"><ele>231.4</ele><time>2026-04-19T10:02:39.999Z</time></trkpt><trkpt lat="45.951285009894896" lon="9.212636721158098"><ele>230.59999999999997</ele><time>2026-04-19T10:02:40.999Z</time></trkpt><trkpt lat="45.951360706004984" lon="9.212758644688503"><ele>229.79999999999998</ele><time>2026-04-19T10:02:41.999Z</time></trkpt><trkpt lat="45.951417201665535" lon="9.212876033231057"><ele>229.0</ele><time>2026-04-19T10:02:42.999Z</time></trkpt><trkpt lat="45.95147764559608" lon="9.21298868754357"><ele>228.99999999999997</ele><time>2026-04-19T10:02:43.999Z</time></trkpt><trkpt lat="45.951544987895225" lon="9.213097712390873"><ele>229.0</ele><time>2026-04-19T10:02:44.999Z</time></trkpt><trkpt lat="45.95162658850117" lon="9.213188812974845"><ele>229.0</ele><time>2026-04-19T10:02:45.999Z</time></trkpt><trkpt lat="45.95171742601068" lon="9.21325063426071"><ele>229.0</ele><time>2026-04-19T10:02:46.999Z</time></trkpt><trkpt lat="45.95178505476794" lon="9.213275070894078"><ele>228.99999999999997</ele><time>2026-04-19T10:02:47.999Z</time></trkpt><trkpt lat="45.95184408964541" lon="9.213312538042722"><ele>229.0</ele><time>2026-04-19T10:02:48.999Z</time></trkpt><trkpt lat="45.95190705031638" lon="9.213357530944041"><ele>226.2</ele><time>2026-04-19T10:02:49.999Z</time></trkpt><trkpt lat="45.951996004183336" lon="9.21344958111712"><ele>223.39999999999998</ele><time>2026-04-19T10:02:51.999Z</time></trkpt><trkpt lat="45.95205281240059" lon="9.213613614816165"><ele>220.6</ele><time>2026-04-19T10:02:53.999Z</time></trkpt><trkpt lat="45.952085407651516" lon="9.21372250950063"><ele>217.8</ele><time>2026-04-19T10:02:54.999Z</time></trkpt><trkpt lat="45.952114636231016" lon="9.213843570000988"><ele>215.0</ele><time>2026-04-19T10:02:55.999Z</time></trkpt><trkpt lat="45.952142990922454" lon="9.213972138421282"><ele>221.0</ele><time>2026-04-19T10:02:56.999Z</time></trkpt><trkpt lat="45.95216109001605" lon="9.214100361455076"><ele>227.0</ele><time>2026-04-19T10:02:57.999Z</time></trkpt><trkpt lat="45.95219576791737" lon="9.21421834749723"><ele>233.0</ele><time>2026-04-19T10:02:58.999Z</time></trkpt><trkpt lat="45.952262401268264" lon="9.214308860459866"><ele>239.0</ele><time>2026-04-19T10:02:59.999Z</time></trkpt><trkpt lat="45.952356139943525" lon="9.214374445425857"><ele>245.0</ele><time>2026-04-19T10:03:00.999Z</time></trkpt><trkpt lat="45.952431144511934" lon="9.214456188870232"><ele>245.0</ele><time>2026-04-19T10:03:01.999Z</time></trkpt><trkpt lat="45.95251070770882" lon="9.214525868872109"><ele>245.0</ele><time>2026-04-19T10:03:02.999Z</time></trkpt><trkpt lat="45.95259880946401" lon="9.214601652673348"><ele>245.0</ele><time>2026-04-19T10:03:03.999Z</time></trkpt><trkpt lat="45.95267023543176" lon="9.21468068646482"><ele>245.0</ele><time>2026-04-19T10:03:04.999Z</time></trkpt><trkpt lat="45.95271986340041" lon="9.214781111116547"><ele>245.0</ele><time>2026-04-19T10:03:05.999Z</time></trkpt><trkpt lat="45.95280863149872" lon="9.21493571314067"><ele>243.75</ele><time>2026-04-19T10:03:06.999Z</time></trkpt><trkpt lat="45.95288767915517" lon="9.215076258768303"><ele>242.5</ele><time>2026-04-19T10:03:07.999Z</time></trkpt><trkpt lat="45.9529757607337" lon="9.215198350168615"><ele>241.25</ele><time>2026-04-19T10:03:08.999Z</time></trkpt><trkpt lat="45.9530374201082" lon="9.215330786627689"><ele>240.0</ele><time>2026-04-19T10:03:09.999Z</time></trkpt><trkpt lat="45.95308866002051" lon="9.215461101841672"><ele>240.0</ele><time>2026-04-19T10:03:10.999Z</time></trkpt><trkpt lat="45.95314858847393" lon="9.215600295418906"><ele>240.0</ele><time>2026-04-19T10:03:11.999Z</time></trkpt><trkpt lat="45.95321437955887" lon="9.215734801145107"><ele>240.0</ele><time>2026-04-19T10:03:12.999Z</time></trkpt><trkpt lat="45.95326372484054" lon="9.215866051026172"><ele>240.0</ele><time>2026-04-19T10:03:13.999Z</time></trkpt><trkpt lat="45.95334873597977" lon="9.215981666648235"><ele>240.0</ele><time>2026-04-19T10:03:14.999Z</time></trkpt><trkpt lat="45.95342332804357" lon="9.21609632567956"><ele>242.4</ele><time>2026-04-19T10:03:15.999Z</time></trkpt><trkpt lat="45.95349858149786" lon="9.216209424090668"><ele>244.8</ele><time>2026-04-19T10:03:16.999Z</time></trkpt><trkpt lat="45.95355597638804" lon="9.216343260623544"><ele>247.2</ele><time>2026-04-19T10:03:17.999Z</time></trkpt><trkpt lat="45.953588348038416" lon="9.216474958043772"><ele>249.6</ele><time>2026-04-19T10:03:18.999Z</time></trkpt><trkpt lat="45.953611790502215" lon="9.216593530717452"><ele>252.0</ele><time>2026-04-19T10:03:19.999Z</time></trkpt><trkpt lat="45.953655656813346" lon="9.216696734663218"><ele>252.0</ele><time>2026-04-19T10:03:20.999Z</time></trkpt><trkpt lat="45.95372933843917" lon="9.216780385197167"><ele>252.0</ele><time>2026-04-19T10:03:21.999Z</time></trkpt><trkpt lat="45.95381048051071" lon="9.216842681459"><ele>252.0</ele><time>2026-04-19T10:03:22.999Z</time></trkpt><trkpt lat="45.95391228241392" lon="9.216889528160602"><ele>252.0</ele><time>2026-04-19T10:03:23.999Z</time></trkpt><trkpt lat="45.95401740981536" lon="9.216919590504164"><ele>252.0</ele><time>2026-04-19T10:03:24.999Z</time></trkpt><trkpt lat="45.95413361322659" lon="9.216943247639863"><ele>249.6</ele><time>2026-04-19T10:03:25.999Z</time></trkpt><trkpt lat="45.954249683832145" lon="9.216903439103493"><ele>247.2</ele><time>2026-04-19T10:03:26.999Z</time></trkpt><trkpt lat="45.95435114487585" lon="9.21689557313314"><ele>244.8</ele><time>2026-04-19T10:03:27.999Z</time></trkpt><trkpt lat="45.95445346675945" lon="9.216873734261808"><ele>242.4</ele><time>2026-04-19T10:03:28.999Z</time></trkpt><trkpt lat="45.95455624504415" lon="9.216931030433622"><ele>240.0</ele><time>2026-04-19T10:03:29.999Z</time></trkpt><trkpt lat="45.95464187892131" lon="9.217037180490316"><ele>240.0</ele><time>2026-04-19T10:03:30.999Z</time></trkpt><trkpt lat="45.95472908887301" lon="9.217119097633704"><ele>240.0</ele><time>2026-04-19T10:03:31.999Z</time></trkpt><trkpt lat="45.95482908573058" lon="9.217164652176889"><ele>240.0</ele><time>2026-04-19T10:03:32.999Z</time></trkpt><trkpt lat="45.954917675335956" lon="9.217207145261504"><ele>240.0</ele><time>2026-04-19T10:03:33.999Z</time></trkpt><trkpt lat="45.954990372238605" lon="9.217280803992605"><ele>240.0</ele><time>2026-04-19T10:03:34.999Z</time></trkpt><trkpt lat="45.955051416219206" lon="9.217394320005369"><ele>238.8</ele><time>2026-04-19T10:03:35.999Z</time></trkpt><trkpt lat="45.95511093815188" lon="9.21751615253224"><ele>237.6</ele><time>2026-04-19T10:03:36.999Z</time></trkpt><trkpt lat="45.95518385540523" lon="9.217636761206062"><ele>236.39999999999998</ele><time>2026-04-19T10:03:37.999Z</time></trkpt><trkpt lat="45.95525530783951" lon="9.217770008893902"><ele>235.2</ele><time>2026-04-19T10:03:38.999Z</time></trkpt><trkpt lat="45.95531752486461" lon="9.217902678860606"><ele>234.0</ele><time>2026-04-19T10:03:39.999Z</time></trkpt><trkpt lat="45.95539242837416" lon="9.218036501368466"><ele>238.39999999999998</ele><time>2026-04-19T10:03:40.999Z</time></trkpt><trkpt lat="45.95546370126519" lon="9.21815910587993"><ele>242.79999999999998</ele><time>2026-04-19T10:03:41.998Z</time></trkpt><trkpt lat="45.95552912513758" lon="9.218278097738942"><ele>247.20000000000002</ele><time>2026-04-19T10:03:42.998Z</time></trkpt><trkpt lat="45.955595402111186" lon="9.218384062427297"><ele>251.60000000000002</ele><time>2026-04-19T10:03:43.998Z</time></trkpt><trkpt lat="45.955667301362006" lon="9.218487429360922"><ele>256.0</ele><time>2026-04-19T10:03:44.998Z</time></trkpt><trkpt lat="45.95574467070606" lon="9.218564230719172"><ele>256.0</ele><time>2026-04-19T10:03:45.998Z</time></trkpt><trkpt lat="45.95583898514491" lon="9.218602964575206"><ele>256.0</ele><time>2026-04-19T10:03:46.998Z</time></trkpt><trkpt lat="45.95594462649624" lon="9.218631390513812"><ele>256.0</ele><time>2026-04-19T10:03:47.998Z</time></trkpt><trkpt lat="45.95605684933269" lon="9.21867918635032"><ele>256.0</ele><time>2026-04-19T10:03:48.998Z</time></trkpt><trkpt lat="45.956136653546096" lon="9.218769897869782"><ele>256.0</ele><time>2026-04-19T10:03:50Z</time></trkpt><trkpt lat="45.95618921757119" lon="9.218874397802095"><ele>254.20000000000002</ele><time>2026-04-19T10:03:51Z</time></trkpt><trkpt lat="45.956244803036334" lon="9.218997847385667"><ele>252.40000000000003</ele><time>2026-04-19T10:03:52Z</time></trkpt><trkpt lat="45.95630242311473" lon="9.219140959746758"><ele>250.6</ele><time>2026-04-19T10:03:53Z</time></trkpt><trkpt lat="45.956357213087195" lon="9.21927953168059"><ele>248.8</ele><time>2026-04-19T10:03:54Z</time></trkpt><trkpt lat="45.956418151625414" lon="9.219401639822912"><ele>247.0</ele><time>2026-04-19T10:03:55Z</time></trkpt><trkpt lat="45.956474561230834" lon="9.219524068744605"><ele>247.0</ele><time>2026-04-19T10:03:56Z</time></trkpt><trkpt lat="45.956531885706454" lon="9.219656982866255"><ele>247.0</ele><time>2026-04-19T10:03:57Z</time></trkpt><trkpt lat="45.956598831363486" lon="9.219802799128134"><ele>247.0</ele><time>2026-04-19T10:03:58Z</time></trkpt><trkpt lat="45.95666764107835" lon="9.219951197749438"><ele>247.0</ele><time>2026-04-19T10:03:59Z</time></trkpt><trkpt lat="45.956741235750776" lon="9.220091989524597"><ele>247.25</ele><time>2026-04-19T10:04:00Z</time></trkpt><trkpt lat="45.95680444231232" lon="9.220240094882032"><ele>247.5</ele><time>2026-04-19T10:04:01Z</time></trkpt><trkpt lat="45.956891106829225" lon="9.220378157069634"><ele>247.75</ele><time>2026-04-19T10:04:02Z</time></trkpt><trkpt lat="45.95698812721747" lon="9.220521757367738"><ele>248.0</ele><time>2026-04-19T10:04:03Z</time></trkpt><trkpt lat="45.95710787443932" lon="9.220668995940565"><ele>248.0</ele><time>2026-04-19T10:04:04Z</time></trkpt><trkpt lat="45.957207001649245" lon="9.220800681072937"><ele>248.0</ele><time>2026-04-19T10:04:05Z</time></trkpt><trkpt lat="45.95730453562276" lon="9.220922828862886"><ele>248.0</ele><time>2026-04-19T10:04:06Z</time></trkpt><trkpt lat="45.95739831759255" lon="9.221024328070891"><ele>248.0</ele><time>2026-04-19T10:04:07Z</time></trkpt><trkpt lat="45.95749188796044" lon="9.221115419152381"><ele>249.0</ele><time>2026-04-19T10:04:08Z</time></trkpt><trkpt lat="45.95756960007424" lon="9.221207563437039"><ele>250.0</ele><time>2026-04-19T10:04:09Z</time></trkpt><trkpt lat="45.95763269809269" lon="9.221323344372216"><ele>251.0</ele><time>2026-04-19T10:04:10Z</time></trkpt><trkpt lat="45.9576915879226" lon="9.22144126227673"><ele>252.0</ele><time>2026-04-19T10:04:11Z</time></trkpt><trkpt lat="45.957767273069024" lon="9.221537743615698"><ele>253.0</ele><time>2026-04-19T10:04:12Z</time></trkpt><trkpt lat="45.957863134265494" lon="9.22159834143091"><ele>253.0</ele><time>2026-04-19T10:04:13Z</time></trkpt><trkpt lat="45.95796997314949" lon="9.221627511178513"><ele>253.0</ele><time>2026-04-19T10:04:14Z</time></trkpt><trkpt lat="45.95806493517071" lon="9.221647909741579"><ele>253.0</ele><time>2026-04-19T10:04:15Z</time></trkpt><trkpt lat="45.95816881171302" lon="9.221681755281777"><ele>253.0</ele><time>2026-04-19T10:04:16Z</time></trkpt><trkpt lat="45.95827039517691" lon="9.221714334847498"><ele>253.0</ele><time>2026-04-19T10:04:17Z</time></trkpt><trkpt lat="45.95838522065052" lon="9.221740311735674"><ele>252.0</ele><time>2026-04-19T10:04:18Z</time></trkpt><trkpt lat="45.958497123597645" lon="9.221780839406259"><ele>251.0</ele><time>2026-04-19T10:04:19Z</time></trkpt><trkpt lat="45.958608678018976" lon="9.221782683350682"><ele>250.0</ele><time>2026-04-19T10:04:20Z</time></trkpt><trkpt lat="45.95870492151122" lon="9.221788178359056"><ele>249.0</ele><time>2026-04-19T10:04:21Z</time></trkpt><trkpt lat="45.9588223807843" lon="9.221815103770576"><ele>248.0</ele><time>2026-04-19T10:04:22Z</time></trkpt><trkpt lat="45.958927275663235" lon="9.221860829835832"><ele>248.0</ele><time>2026-04-19T10:04:23Z</time></trkpt><trkpt lat="45.95901733600268" lon="9.221910322383847"><ele>248.0</ele><time>2026-04-19T10:04:24Z</time></trkpt><trkpt lat="45.95910855217996" lon="9.22193797633798"><ele>248.0</ele><time>2026-04-19T10:04:25Z</time></trkpt><trkpt lat="45.9592006730415" lon="9.22194216173354"><ele>248.0</ele><time>2026-04-19T10:04:26Z</time></trkpt><trkpt lat="45.9593089655519" lon="9.221946570767457"><ele>248.0</ele><time>2026-04-19T10:04:27Z</time></trkpt><trkpt lat="45.95942702473545" lon="9.221935250506329"><ele>245.4</ele><time>2026-04-19T10:04:28Z</time></trkpt><trkpt lat="45.9595440264715" lon="9.221922004834774"><ele>242.8</ele><time>2026-04-19T10:04:29Z</time></trkpt><trkpt lat="45.959648829457706" lon="9.22189525710764"><ele>240.2</ele><time>2026-04-19T10:04:30Z</time></trkpt><trkpt lat="45.95974512981031" lon="9.221891665803192"><ele>237.6</ele><time>2026-04-19T10:04:31Z</time></trkpt><trkpt lat="45.9598279727079" lon="9.221924982472796"><ele>235.0</ele><time>2026-04-19T10:04:32Z</time></trkpt><trkpt lat="45.95992208475373" lon="9.222000160519663"><ele>235.0</ele><time>2026-04-19T10:04:33Z</time></trkpt><trkpt lat="45.96000495764002" lon="9.222116069366054"><ele>235.0</ele><time>2026-04-19T10:04:34Z</time></trkpt><trkpt lat="45.96008415028367" lon="9.222251264420356"><ele>235.0</ele><time>2026-04-19T10:04:35Z</time></trkpt><trkpt lat="45.96017624430121" lon="9.22238005989549"><ele>235.0</ele><time>2026-04-19T10:04:36Z</time></trkpt><trkpt lat="45.96029011536749" lon="9.222520303105656"><ele>235.75</ele><time>2026-04-19T10:04:37Z</time></trkpt><trkpt lat="45.96039767665269" lon="9.222644068692947"><ele>236.5</ele><time>2026-04-19T10:04:38Z</time></trkpt><trkpt lat="45.96050242855599" lon="9.222736312898348"><ele>237.25</ele><time>2026-04-19T10:04:38.999Z</time></trkpt><trkpt lat="45.96060814335011" lon="9.222795797524736"><ele>238.0</ele><time>2026-04-19T10:04:39.999Z</time></trkpt><trkpt lat="45.960718686176875" lon="9.222862541460826"><ele>238.0</ele><time>2026-04-19T10:04:40.999Z</time></trkpt><trkpt lat="45.96083238368574" lon="9.222938189437684"><ele>238.0</ele><time>2026-04-19T10:04:41.999Z</time></trkpt><trkpt lat="45.96093852908172" lon="9.223019194324843"><ele>238.0</ele><time>2026-04-19T10:04:42.999Z</time></trkpt><trkpt lat="45.96103386807739" lon="9.223102250433637"><ele>238.0</ele><time>2026-04-19T10:04:43.999Z</time></trkpt><trkpt lat="45.96112159137387" lon="9.223188533081252"><ele>236.2</ele><time>2026-04-19T10:04:44.999Z</time></trkpt><trkpt lat="45.96120071065562" lon="9.223275830255586"><ele>234.4</ele><time>2026-04-19T10:04:45.999Z</time></trkpt><trkpt lat="45.9612812850465" lon="9.223371924398993"><ele>232.59999999999997</ele><time>2026-04-19T10:04:46.999Z</time></trkpt><trkpt lat="45.96134799019422" lon="9.223458091069668"><ele>230.79999999999998</ele><time>2026-04-19T10:04:47.999Z</time></trkpt><trkpt lat="45.96139384824649" lon="9.22355932565392"><ele>229.0</ele><time>2026-04-19T10:04:48.999Z</time></trkpt><trkpt lat="45.96140355039538" lon="9.223691508845866"><ele>229.0</ele><time>2026-04-19T10:04:49.999Z</time></trkpt><trkpt lat="45.96140283109062" lon="9.223837423295054"><ele>228.99999999999997</ele><time>2026-04-19T10:04:50.999Z</time></trkpt><trkpt lat="45.9613758673863" lon="9.223969888289144"><ele>228.99999999999997</ele><time>2026-04-19T10:04:51.999Z</time></trkpt><trkpt lat="45.96134273854175" lon="9.224114478025045"><ele>229.0</ele><time>2026-04-19T10:04:52.999Z</time></trkpt><trkpt lat="45.961284341057166" lon="9.22425507639383"><ele>229.0</ele><time>2026-04-19T10:04:53.999Z</time></trkpt><trkpt lat="45.9612235076649" lon="9.224372181807167"><ele>229.0</ele><time>2026-04-19T10:04:54.999Z</time></trkpt><trkpt lat="45.96117630081568" lon="9.224468920268665"><ele>228.99999999999997</ele><time>2026-04-19T10:04:55.999Z</time></trkpt><trkpt lat="45.96113008548501" lon="9.22459877652186"><ele>228.99999999999997</ele><time>2026-04-19T10:04:56.999Z</time></trkpt><trkpt lat="45.96108123163617" lon="9.224740891678316"><ele>229.0</ele><time>2026-04-19T10:04:57.999Z</time></trkpt><trkpt lat="45.961056789780805" lon="9.224885416367057"><ele>229.0</ele><time>2026-04-19T10:04:58.999Z</time></trkpt><trkpt lat="45.96105374082194" lon="9.22501277367658"><ele>229.0</ele><time>2026-04-19T10:04:59.999Z</time></trkpt><trkpt lat="45.96107971372354" lon="9.225148541345522"><ele>228.99999999999997</ele><time>2026-04-19T10:05:00.999Z</time></trkpt><trkpt lat="45.96113521229477" lon="9.225240605628603"><ele>228.99999999999997</ele><time>2026-04-19T10:05:01.999Z</time></trkpt><trkpt lat="45.96121470339632" lon="9.225322804589245"><ele>229.0</ele><time>2026-04-19T10:05:02.999Z</time></trkpt><trkpt lat="45.961303413755644" lon="9.225373636057403"><ele>229.0</ele><time>2026-04-19T10:05:03.999Z</time></trkpt><trkpt lat="45.961384044026914" lon="9.225431583974053"><ele>229.0</ele><time>2026-04-19T10:05:04.999Z</time></trkpt><trkpt lat="45.96146550940341" lon="9.22549682615746"><ele>228.99999999999997</ele><time>2026-04-19T10:05:05.999Z</time></trkpt><trkpt lat="45.961530681793775" lon="9.225591851151684"><ele>228.99999999999997</ele><time>2026-04-19T10:05:06.999Z</time></trkpt><trkpt lat="45.96159483391716" lon="9.225714807866266"><ele>229.0</ele><time>2026-04-19T10:05:07.999Z</time></trkpt><trkpt lat="45.96163864263821" lon="9.225857330445987"><ele>229.0</ele><time>2026-04-19T10:05:08.999Z</time></trkpt><trkpt lat="45.96166736828256" lon="9.226011889294567"><ele>232.39999999999998</ele><time>2026-04-19T10:05:09.999Z</time></trkpt><trkpt lat="45.96166526366692" lon="9.22615615553608"><ele>235.79999999999998</ele><time>2026-04-19T10:05:10.999Z</time></trkpt><trkpt lat="45.96164402515605" lon="9.226297598881898"><ele>239.20000000000002</ele><time>2026-04-19T10:05:11.999Z</time></trkpt><trkpt lat="45.96160736583909" lon="9.226444789804354"><ele>242.60000000000002</ele><time>2026-04-19T10:05:12.999Z</time></trkpt><trkpt lat="45.96158180405591" lon="9.226597823752583"><ele>246.0</ele><time>2026-04-19T10:05:13.999Z</time></trkpt><trkpt lat="45.961562932374484" lon="9.226733423349872"><ele>247.0</ele><time>2026-04-19T10:05:14.999Z</time></trkpt><trkpt lat="45.96153857487304" lon="9.226864990107684"><ele>248.00000000000003</ele><time>2026-04-19T10:05:15.999Z</time></trkpt><trkpt lat="45.96151854819874" lon="9.227007064505369"><ele>249.00000000000003</ele><time>2026-04-19T10:05:16.999Z</time></trkpt><trkpt lat="45.961523106580465" lon="9.22713121294926"><ele>250.0</ele><time>2026-04-19T10:05:17.999Z</time></trkpt><trkpt lat="45.961558922091676" lon="9.227254690648078"><ele>251.0</ele><time>2026-04-19T10:05:18.999Z</time></trkpt><trkpt lat="45.9616415494797" lon="9.227333983327728"><ele>248.25</ele><time>2026-04-19T10:05:19.999Z</time></trkpt><trkpt lat="45.96172884797929" lon="9.227414076869941"><ele>245.5</ele><time>2026-04-19T10:05:20.999Z</time></trkpt><trkpt lat="45.96182400241258" lon="9.227510225291859"><ele>242.75</ele><time>2026-04-19T10:05:21.999Z</time></trkpt><trkpt lat="45.961954307746616" lon="9.227588788124773"><ele>240.0</ele><time>2026-04-19T10:05:22.999Z</time></trkpt><trkpt lat="45.96208893455688" lon="9.227644063290246"><ele>240.0</ele><time>2026-04-19T10:05:23.999Z</time></trkpt><trkpt lat="45.96223767436554" lon="9.227709369059003"><ele>240.0</ele><time>2026-04-19T10:05:24.999Z</time></trkpt><trkpt lat="45.96236915624729" lon="9.227792616289191"><ele>240.0</ele><time>2026-04-19T10:05:25.999Z</time></trkpt><trkpt lat="45.96247944653158" lon="9.227845016877856"><ele>240.0</ele><time>2026-04-19T10:05:26.999Z</time></trkpt><trkpt lat="45.962577428578264" lon="9.227901109321923"><ele>242.33333333333331</ele><time>2026-04-19T10:05:27.999Z</time></trkpt><trkpt lat="45.96267461483464" lon="9.227967090763388"><ele>244.66666666666666</ele><time>2026-04-19T10:05:28.999Z</time></trkpt><trkpt lat="45.96282140119645" lon="9.228038226125262"><ele>247.0</ele><time>2026-04-19T10:05:29.999Z</time></trkpt><trkpt lat="45.96299578663075" lon="9.228143484079936"><ele>247.0</ele><time>2026-04-19T10:05:30.999Z</time></trkpt><trkpt lat="45.96310620209661" lon="9.228219981529618"><ele>247.0</ele><time>2026-04-19T10:05:31.999Z</time></trkpt><trkpt lat="45.96322025251707" lon="9.22829690055837"><ele>247.0</ele><time>2026-04-19T10:05:32.999Z</time></trkpt><trkpt lat="45.9633336343713" lon="9.228373723355848"><ele>247.0</ele><time>2026-04-19T10:05:33.999Z</time></trkpt><trkpt lat="45.96344758856289" lon="9.228455945400547"><ele>240.75</ele><time>2026-04-19T10:05:34.999Z</time></trkpt><trkpt lat="45.963563520231794" lon="9.228559403699315"><ele>234.5</ele><time>2026-04-19T10:05:35.999Z</time></trkpt><trkpt lat="45.96367083122307" lon="9.228676814311681"><ele>228.25</ele><time>2026-04-19T10:05:36.999Z</time></trkpt><trkpt lat="45.963772358726224" lon="9.228810520591024"><ele>222.0</ele><time>2026-04-19T10:05:37.999Z</time></trkpt><trkpt lat="45.96387614863391" lon="9.22894251509804"><ele>222.0</ele><time>2026-04-19T10:05:38.999Z</time></trkpt><trkpt lat="45.96398478562157" lon="9.22906886892498"><ele>222.0</ele><time>2026-04-19T10:05:39.999Z</time></trkpt><trkpt lat="45.96409869126173" lon="9.22919289468244"><ele>222.0</ele><time>2026-04-19T10:05:40.999Z</time></trkpt><trkpt lat="45.964216102458714" lon="9.22929958751167"><ele>222.0</ele><time>2026-04-19T10:05:41.999Z</time></trkpt><trkpt lat="45.96432874205293" lon="9.229393355418763"><ele>222.0</ele><time>2026-04-19T10:05:42.999Z</time></trkpt><trkpt lat="45.96442542559072" lon="9.229514446417406"><ele>222.0</ele><time>2026-04-19T10:05:43.999Z</time></trkpt><trkpt lat="45.964529266183874" lon="9.22965486017566"><ele>222.0</ele><time>2026-04-19T10:05:44.999Z</time></trkpt><trkpt lat="45.964630828206005" lon="9.229814401260139"><ele>222.0</ele><time>2026-04-19T10:05:45.998Z</time></trkpt><trkpt lat="45.96472975215521" lon="9.229966080363937"><ele>221.5</ele><time>2026-04-19T10:05:46.998Z</time></trkpt><trkpt lat="45.964830365110735" lon="9.230100577774556"><ele>221.0</ele><time>2026-04-19T10:05:47.998Z</time></trkpt><trkpt lat="45.96494224838486" lon="9.230233965193493"><ele>220.5</ele><time>2026-04-19T10:05:48.998Z</time></trkpt><trkpt lat="45.965066403505205" lon="9.230389511641112"><ele>220.0</ele><time>2026-04-19T10:05:49.998Z</time></trkpt><trkpt lat="45.96521405685572" lon="9.230528408354056"><ele>228.0</ele><time>2026-04-19T10:05:50.998Z</time></trkpt><trkpt lat="45.96538066085266" lon="9.23067513333622"><ele>236.0</ele><time>2026-04-19T10:05:51.998Z</time></trkpt><trkpt lat="45.965554417530115" lon="9.230805083662714"><ele>244.0</ele><time>2026-04-19T10:05:52.998Z</time></trkpt><trkpt lat="45.96570363675145" lon="9.230946168894537"><ele>244.0</ele><time>2026-04-19T10:05:53.998Z</time></trkpt><trkpt lat="45.96584604751402" lon="9.231080807891958"><ele>244.0</ele><time>2026-04-19T10:05:54.998Z</time></trkpt><trkpt lat="45.965978433194735" lon="9.231205244335742"><ele>244.0</ele><time>2026-04-19T10:05:56Z</time></trkpt><trkpt lat="45.96610707868492" lon="9.231314270583715"><ele>244.75</ele><time>2026-04-19T10:05:57Z</time></trkpt><trkpt lat="45.96622842802287" lon="9.231423222419053"><ele>245.5</ele><time>2026-04-19T10:05:58Z</time></trkpt><trkpt lat="45.96634099054431" lon="9.231519978024444"><ele>246.25</ele><time>2026-04-19T10:05:59Z</time></trkpt><trkpt lat="45.966445534473046" lon="9.231623094710748"><ele>247.0</ele><time>2026-04-19T10:06:00Z</time></trkpt><trkpt lat="45.96654514947605" lon="9.23175380879021"><ele>247.0</ele><time>2026-04-19T10:06:01Z</time></trkpt><trkpt lat="45.966648444426745" lon="9.231910835376528"><ele>247.0</ele><time>2026-04-19T10:06:02Z</time></trkpt><trkpt lat="45.966744275919304" lon="9.232070804874505"><ele>247.0</ele><time>2026-04-19T10:06:03Z</time></trkpt><trkpt lat="45.96684687409789" lon="9.232218234097955"><ele>247.0</ele><time>2026-04-19T10:06:04Z</time></trkpt><trkpt lat="45.96696165064596" lon="9.232358711872676"><ele>245.0</ele><time>2026-04-19T10:06:05Z</time></trkpt><trkpt lat="45.96709490888302" lon="9.232481329662905"><ele>243.0</ele><time>2026-04-19T10:06:06Z</time></trkpt><trkpt lat="45.96726879580572" lon="9.232604036925526"><ele>241.0</ele><time>2026-04-19T10:06:07Z</time></trkpt><trkpt lat="45.96744263792342" lon="9.232726627592218"><ele>242.0</ele><time>2026-04-19T10:06:08Z</time></trkpt><trkpt lat="45.96762683476617" lon="9.232876611806635"><ele>243.0</ele><time>2026-04-19T10:06:09Z</time></trkpt><trkpt lat="45.967779001886306" lon="9.233047740904153"><ele>244.0</ele><time>2026-04-19T10:06:10Z</time></trkpt><trkpt lat="45.96793314293894" lon="9.23320755447726"><ele>244.0</ele><time>2026-04-19T10:06:11Z</time></trkpt><trkpt lat="45.96807205518344" lon="9.233369647292735"><ele>244.0</ele><time>2026-04-19T10:06:12Z</time></trkpt><trkpt lat="45.96820940200552" lon="9.23352847112483"><ele>244.0</ele><time>2026-04-19T10:06:13Z</time></trkpt><trkpt lat="45.968345617531334" lon="9.233678554282013"><ele>246.0</ele><time>2026-04-19T10:06:14Z</time></trkpt><trkpt lat="45.96847157805142" lon="9.233826512736613"><ele>248.0</ele><time>2026-04-19T10:06:15Z</time></trkpt><trkpt lat="45.96859379876927" lon="9.233947441788306"><ele>250.0</ele><time>2026-04-19T10:06:16Z</time></trkpt><trkpt lat="45.96870416029408" lon="9.234062029730485"><ele>252.0</ele><time>2026-04-19T10:06:17Z</time></trkpt><trkpt lat="45.968808819227434" lon="9.234160110544174"><ele>252.0</ele><time>2026-04-19T10:06:18Z</time></trkpt><trkpt lat="45.968930335147" lon="9.234278234142966"><ele>252.0</ele><time>2026-04-19T10:06:19Z</time></trkpt><trkpt lat="45.9690123458967" lon="9.234405008037637"><ele>252.0</ele><time>2026-04-19T10:06:20Z</time></trkpt><trkpt lat="45.96910967412004" lon="9.234525261759172"><ele>252.0</ele><time>2026-04-19T10:06:21Z</time></trkpt><trkpt lat="45.96920801854458" lon="9.234628983327285"><ele>249.0</ele><time>2026-04-19T10:06:22Z</time></trkpt><trkpt lat="45.969290371440394" lon="9.234722420379864"><ele>246.0</ele><time>2026-04-19T10:06:23Z</time></trkpt><trkpt lat="45.96936909592906" lon="9.234796993427857"><ele>243.0</ele><time>2026-04-19T10:06:24Z</time></trkpt><trkpt lat="45.96942491629919" lon="9.234893040752189"><ele>240.0</ele><time>2026-04-19T10:06:25Z</time></trkpt><trkpt lat="45.969496078896846" lon="9.234986258025"><ele>237.0</ele><time>2026-04-19T10:06:26Z</time></trkpt><trkpt lat="45.969535857779164" lon="9.235133938781502"><ele>237.0</ele><time>2026-04-19T10:06:27Z</time></trkpt><trkpt lat="45.96955705817297" lon="9.235261231646911"><ele>237.0</ele><time>2026-04-19T10:06:28Z</time></trkpt><trkpt lat="45.969564274399104" lon="9.235405658867643"><ele>237.0</ele><time>2026-04-19T10:06:29Z</time></trkpt><trkpt lat="45.9695373293396" lon="9.235551777105938"><ele>237.0</ele><time>2026-04-19T10:06:30Z</time></trkpt><trkpt lat="45.96951284110558" lon="9.235675812989738"><ele>237.0</ele><time>2026-04-19T10:06:31Z</time></trkpt><trkpt lat="45.96947320476443" lon="9.235791658796462"><ele>237.83333333333334</ele><time>2026-04-19T10:06:32Z</time></trkpt><trkpt lat="45.969436380873034" lon="9.235892447482009"><ele>238.66666666666669</ele><time>2026-04-19T10:06:33Z</time></trkpt><trkpt lat="45.96940778672805" lon="9.236000580684907"><ele>239.5</ele><time>2026-04-19T10:06:34Z</time></trkpt><trkpt lat="45.969384768405284" lon="9.236111066520017"><ele>240.33333333333334</ele><time>2026-04-19T10:06:35Z</time></trkpt><trkpt lat="45.969384180137354" lon="9.236213401796343"><ele>241.16666666666669</ele><time>2026-04-19T10:06:36Z</time></trkpt><trkpt lat="45.9694060143607" lon="9.236347309743492"><ele>242.0</ele><time>2026-04-19T10:06:37Z</time></trkpt><trkpt lat="45.96944072320323" lon="9.236475854540076"><ele>243.6</ele><time>2026-04-19T10:06:38Z</time></trkpt><trkpt lat="45.9694827469215" lon="9.236605466108456"><ele>245.2</ele><time>2026-04-19T10:06:39Z</time></trkpt><trkpt lat="45.96951959464665" lon="9.236740843313354"><ele>246.8</ele><time>2026-04-19T10:06:40Z</time></trkpt><trkpt lat="45.96955723635" lon="9.236891228874386"><ele>248.4</ele><time>2026-04-19T10:06:41Z</time></trkpt><trkpt lat="45.96960131499906" lon="9.237046846304526"><ele>250.0</ele><time>2026-04-19T10:06:42Z</time></trkpt><trkpt lat="45.96965069104756" lon="9.237205448774418"><ele>252.5</ele><time>2026-04-19T10:06:43Z</time></trkpt><trkpt lat="45.969702028716725" lon="9.237374176060994"><ele>255.0</ele><time>2026-04-19T10:06:44Z</time></trkpt><trkpt lat="45.96975923972123" lon="9.237548211573406"><ele>257.5</ele><time>2026-04-19T10:06:44.999Z</time></trkpt><trkpt lat="45.96983076290299" lon="9.237750691603694"><ele>260.0</ele><time>2026-04-19T10:06:45.999Z</time></trkpt><trkpt lat="45.969892625378904" lon="9.237987966129733"><ele>262.75</ele><time>2026-04-19T10:06:46.999Z</time></trkpt><trkpt lat="45.96995435384536" lon="9.238211469006185"><ele>265.5</ele><time>2026-04-19T10:06:47.999Z</time></trkpt><trkpt lat="45.97000430879363" lon="9.238398230564806"><ele>268.25</ele><time>2026-04-19T10:06:48.999Z</time></trkpt><trkpt lat="45.97005064921878" lon="9.238558442097498"><ele>271.0</ele><time>2026-04-19T10:06:49.999Z</time></trkpt><trkpt lat="45.97009227576375" lon="9.238705433259115"><ele>266.2</ele><time>2026-04-19T10:06:50.999Z</time></trkpt><trkpt lat="45.97013619048951" lon="9.238845872462045"><ele>261.40000000000003</ele><time>2026-04-19T10:06:51.999Z</time></trkpt><trkpt lat="45.97017810420198" lon="9.238969139021785"><ele>256.6</ele><time>2026-04-19T10:06:52.999Z</time></trkpt><trkpt lat="45.970215855557605" lon="9.239093234009857"><ele>251.8</ele><time>2026-04-19T10:06:53.999Z</time></trkpt><trkpt lat="45.97025030674558" lon="9.239208354656801"><ele>247.0</ele><time>2026-04-19T10:06:54.999Z</time></trkpt><trkpt lat="45.97027618274255" lon="9.23931809296253"><ele>247.0</ele><time>2026-04-19T10:06:55.999Z</time></trkpt><trkpt lat="45.97030326228867" lon="9.239437455357713"><ele>247.0</ele><time>2026-04-19T10:06:56.999Z</time></trkpt><trkpt lat="45.970335290436466" lon="9.239563653876873"><ele>247.0</ele><time>2026-04-19T10:06:57.999Z</time></trkpt><trkpt lat="45.97034291415148" lon="9.239692397491947"><ele>247.0</ele><time>2026-04-19T10:06:58.999Z</time></trkpt><trkpt lat="45.970365558062625" lon="9.239814970792892"><ele>247.0</ele><time>2026-04-19T10:06:59.999Z</time></trkpt><trkpt lat="45.970398811395754" lon="9.239937673856614"><ele>249.0</ele><time>2026-04-19T10:07:00.999Z</time></trkpt><trkpt lat="45.97045341110964" lon="9.240046166256851"><ele>251.0</ele><time>2026-04-19T10:07:01.999Z</time></trkpt><trkpt lat="45.97052267289679" lon="9.240150817993205"><ele>253.0</ele><time>2026-04-19T10:07:02.999Z</time></trkpt><trkpt lat="45.97060217673388" lon="9.24024500339102"><ele>255.0</ele><time>2026-04-19T10:07:03.999Z</time></trkpt><trkpt lat="45.97068168990688" lon="9.240351612104153"><ele>257.0</ele><time>2026-04-19T10:07:04.999Z</time></trkpt><trkpt lat="45.97075106264859" lon="9.24048313177073"><ele>257.0</ele><time>2026-04-19T10:07:05.999Z</time></trkpt><trkpt lat="45.97083157569564" lon="9.240601445286476"><ele>257.0</ele><time>2026-04-19T10:07:06.999Z</time></trkpt><trkpt lat="45.970912719134425" lon="9.240722277753994"><ele>257.0</ele><time>2026-04-19T10:07:07.999Z</time></trkpt><trkpt lat="45.970995168046436" lon="9.2408468305077"><ele>257.0</ele><time>2026-04-19T10:07:08.999Z</time></trkpt><trkpt lat="45.97106881591251" lon="9.240958573893058"><ele>256.2</ele><time>2026-04-19T10:07:09.999Z</time></trkpt><trkpt lat="45.97113692368651" lon="9.241064788152936"><ele>255.39999999999998</ele><time>2026-04-19T10:07:10.999Z</time></trkpt><trkpt lat="45.97119948846255" lon="9.241173072430021"><ele>254.60000000000002</ele><time>2026-04-19T10:07:11.999Z</time></trkpt><trkpt lat="45.97125360911249" lon="9.24129881925268"><ele>253.8</ele><time>2026-04-19T10:07:12.999Z</time></trkpt><trkpt lat="45.97130606050049" lon="9.241425183802134"><ele>253.0</ele><time>2026-04-19T10:07:13.999Z</time></trkpt><trkpt lat="45.97137185928679" lon="9.241544246980618"><ele>253.0</ele><time>2026-04-19T10:07:14.999Z</time></trkpt><trkpt lat="45.97144877469443" lon="9.241668349687236"><ele>253.0</ele><time>2026-04-19T10:07:15.999Z</time></trkpt><trkpt lat="45.971502784037305" lon="9.24182173793121"><ele>253.0</ele><time>2026-04-19T10:07:16.999Z</time></trkpt><trkpt lat="45.97154578448154" lon="9.241969174069167"><ele>253.0</ele><time>2026-04-19T10:07:17.999Z</time></trkpt><trkpt lat="45.971582820544334" lon="9.242125320416502"><ele>253.0</ele><time>2026-04-19T10:07:18.999Z</time></trkpt><trkpt lat="45.971611563901774" lon="9.242281625959476"><ele>253.0</ele><time>2026-04-19T10:07:19.999Z</time></trkpt><trkpt lat="45.971634682059765" lon="9.242437932433761"><ele>253.0</ele><time>2026-04-19T10:07:20.999Z</time></trkpt><trkpt lat="45.9716484012928" lon="9.242612058906177"><ele>253.0</ele><time>2026-04-19T10:07:21.999Z</time></trkpt><trkpt lat="45.971657632485964" lon="9.242776471203346"><ele>254.0</ele><time>2026-04-19T10:07:22.999Z</time></trkpt><trkpt lat="45.97166426459793" lon="9.242936077093047"><ele>255.0</ele><time>2026-04-19T10:07:23.999Z</time></trkpt><trkpt lat="45.9716777558425" lon="9.243089949283506"><ele>256.0</ele><time>2026-04-19T10:07:24.999Z</time></trkpt><trkpt lat="45.9717145034911" lon="9.243244240632457"><ele>257.0</ele><time>2026-04-19T10:07:25.999Z</time></trkpt><trkpt lat="45.97175016029004" lon="9.24340977799157"><ele>249.0</ele><time>2026-04-19T10:07:26.999Z</time></trkpt><trkpt lat="45.971800818256796" lon="9.24357316950033"><ele>241.0</ele><time>2026-04-19T10:07:27.999Z</time></trkpt><trkpt lat="45.97184829461584" lon="9.243725244898869"><ele>233.0</ele><time>2026-04-19T10:07:28.999Z</time></trkpt><trkpt lat="45.971892114466755" lon="9.24386667242143"><ele>225.0</ele><time>2026-04-19T10:07:29.999Z</time></trkpt><trkpt lat="45.97193201301842" lon="9.244003884991873"><ele>225.0</ele><time>2026-04-19T10:07:30.999Z</time></trkpt><trkpt lat="45.97196095614293" lon="9.2441386237148"><ele>225.0</ele><time>2026-04-19T10:07:31.999Z</time></trkpt><trkpt lat="45.97195798584483" lon="9.24429281357551"><ele>225.0</ele><time>2026-04-19T10:07:32.999Z</time></trkpt><trkpt lat="45.971967911180755" lon="9.244443994393196"><ele>225.0</ele><time>2026-04-19T10:07:33.999Z</time></trkpt><trkpt lat="45.97197737175321" lon="9.244597081363246"><ele>225.0</ele><time>2026-04-19T10:07:34.999Z</time></trkpt><trkpt lat="45.9719893757151" lon="9.24474177636183"><ele>225.4</ele><time>2026-04-19T10:07:35.999Z</time></trkpt><trkpt lat="45.97199966494921" lon="9.244889136613153"><ele>225.8</ele><time>2026-04-19T10:07:36.999Z</time></trkpt><trkpt lat="45.972011298701254" lon="9.245030452586022"><ele>226.2</ele><time>2026-04-19T10:07:37.999Z</time></trkpt><trkpt lat="45.97201587136551" lon="9.245173701267328"><ele>226.6</ele><time>2026-04-19T10:07:38.999Z</time></trkpt><trkpt lat="45.97204004958929" lon="9.245320038697487"><ele>227.0</ele><time>2026-04-19T10:07:39.999Z</time></trkpt><trkpt lat="45.97204351636474" lon="9.24545168345064"><ele>227.0</ele><time>2026-04-19T10:07:40.999Z</time></trkpt><trkpt lat="45.97204954503534" lon="9.24556716629916"><ele>227.0</ele><time>2026-04-19T10:07:41.999Z</time></trkpt><trkpt lat="45.972068739216596" lon="9.245701554957652"><ele>227.0</ele><time>2026-04-19T10:07:42.999Z</time></trkpt><trkpt lat="45.97207848375309" lon="9.245860745327741"><ele>227.0</ele><time>2026-04-19T10:07:43.999Z</time></trkpt><trkpt lat="45.97209026019579" lon="9.2460186796804"><ele>227.0</ele><time>2026-04-19T10:07:44.999Z</time></trkpt><trkpt lat="45.97216859567426" lon="9.246089218737033"><ele>226.39999999999998</ele><time>2026-04-19T10:07:45.999Z</time></trkpt><trkpt lat="45.97225448241987" lon="9.246174007547822"><ele>225.79999999999998</ele><time>2026-04-19T10:07:46.999Z</time></trkpt><trkpt lat="45.97235226386874" lon="9.246215041940717"><ele>225.2</ele><time>2026-04-19T10:07:47.999Z</time></trkpt><trkpt lat="45.97244445665476" lon="9.246221854735811"><ele>224.6</ele><time>2026-04-19T10:07:48.999Z</time></trkpt><trkpt lat="45.972537454580376" lon="9.246192068278418"><ele>224.0</ele><time>2026-04-19T10:07:49.999Z</time></trkpt><trkpt lat="45.97262071465453" lon="9.246128883053439"><ele>224.0</ele><time>2026-04-19T10:07:50.999Z</time></trkpt><trkpt lat="45.972698810998274" lon="9.246078003146957"><ele>223.99999999999997</ele><time>2026-04-19T10:07:51.998Z</time></trkpt><trkpt lat="45.97278418108457" lon="9.246047041120164"><ele>223.99999999999997</ele><time>2026-04-19T10:07:52.998Z</time></trkpt><trkpt lat="45.97287260758488" lon="9.246022334072771"><ele>224.0</ele><time>2026-04-19T10:07:53.998Z</time></trkpt><trkpt lat="45.97296101274581" lon="9.24605831089291"><ele>224.0</ele><time>2026-04-19T10:07:54.998Z</time></trkpt><trkpt lat="45.97304485522908" lon="9.246125551152756"><ele>224.0</ele><time>2026-04-19T10:07:55.998Z</time></trkpt><trkpt lat="45.97311420060227" lon="9.246233247186598"><ele>223.99999999999997</ele><time>2026-04-19T10:07:56.998Z</time></trkpt><trkpt lat="45.97317952685267" lon="9.246339839382626"><ele>223.99999999999997</ele><time>2026-04-19T10:07:57.998Z</time></trkpt><trkpt lat="45.97323011644198" lon="9.24646039891331"><ele>224.0</ele><time>2026-04-19T10:07:58.998Z</time></trkpt><trkpt lat="45.97329760407035" lon="9.246532730878842"><ele>224.0</ele><time>2026-04-19T10:07:59.998Z</time></trkpt><trkpt lat="45.97336996632228" lon="9.246624569531285"><ele>224.00000000000003</ele><time>2026-04-19T10:08:00.998Z</time></trkpt><trkpt lat="45.973436429094775" lon="9.246700488311268"><ele>224.0</ele><time>2026-04-19T10:08:02Z</time></trkpt><trkpt lat="45.973512472715726" lon="9.246754574487746"><ele>224.0</ele><time>2026-04-19T10:08:03Z</time></trkpt><trkpt lat="45.973588269663026" lon="9.24677354439713"><ele>224.0</ele><time>2026-04-19T10:08:04Z</time></trkpt><trkpt lat="45.97367252453397" lon="9.24674382469698"><ele>224.00000000000003</ele><time>2026-04-19T10:08:05Z</time></trkpt><trkpt lat="45.97375120663687" lon="9.246686785679007"><ele>224.0</ele><time>2026-04-19T10:08:06Z</time></trkpt><trkpt lat="45.97382196782498" lon="9.246641198640924"><ele>224.00000000000003</ele><time>2026-04-19T10:08:07Z</time></trkpt><trkpt lat="45.97389156094786" lon="9.246575571330444"><ele>224.0</ele><time>2026-04-19T10:08:08Z</time></trkpt><trkpt lat="45.973957407389236" lon="9.24652511256116"><ele>224.0</ele><time>2026-04-19T10:08:09Z</time></trkpt><trkpt lat="45.97403537702378" lon="9.246517680212627"><ele>224.0</ele><time>2026-04-19T10:08:10Z</time></trkpt><trkpt lat="45.97409829730399" lon="9.246534855388596"><ele>224.00000000000003</ele><time>2026-04-19T10:08:11Z</time></trkpt><trkpt lat="45.97418145471686" lon="9.246560632237733"><ele>224.0</ele><time>2026-04-19T10:08:12Z</time></trkpt><trkpt lat="45.97423983630957" lon="9.246601723466927"><ele>222.00000000000003</ele><time>2026-04-19T10:08:13Z</time></trkpt><trkpt lat="45.97430180929498" lon="9.246656332344312"><ele>220.0</ele><time>2026-04-19T10:08:14Z</time></trkpt><trkpt lat="45.974354419582276" lon="9.24672140559459"><ele>218.0</ele><time>2026-04-19T10:08:15Z</time></trkpt><trkpt lat="45.9744185860863" lon="9.24681187066327"><ele>216.0</ele><time>2026-04-19T10:08:16Z</time></trkpt><trkpt lat="45.97445451050187" lon="9.246912725607153"><ele>214.00000000000003</ele><time>2026-04-19T10:08:17Z</time></trkpt><trkpt lat="45.9744873066627" lon="9.247024673431765"><ele>212.0</ele><time>2026-04-19T10:08:18Z</time></trkpt><trkpt lat="45.97451344560965" lon="9.247157141140356"><ele>212.50000000000003</ele><time>2026-04-19T10:08:19Z</time></trkpt><trkpt lat="45.97453269446582" lon="9.247294817437615"><ele>213.0</ele><time>2026-04-19T10:08:20Z</time></trkpt><trkpt lat="45.97454551623731" lon="9.24741547029132"><ele>213.5</ele><time>2026-04-19T10:08:21Z</time></trkpt><trkpt lat="45.974566743198984" lon="9.247527311090655"><ele>214.0</ele><time>2026-04-19T10:08:22Z</time></trkpt><trkpt lat="45.974594610475364" lon="9.24764062912759"><ele>214.50000000000003</ele><time>2026-04-19T10:08:23Z</time></trkpt><trkpt lat="45.9746244206694" lon="9.247728926229517"><ele>215.0</ele><time>2026-04-19T10:08:24Z</time></trkpt><trkpt lat="45.97468604130662" lon="9.247811917065535"><ele>215.00000000000003</ele><time>2026-04-19T10:08:26Z</time></trkpt><trkpt lat="45.974764563874906" lon="9.24790008243787"><ele>215.0</ele><time>2026-04-19T10:08:28Z</time></trkpt><trkpt lat="45.97482708383124" lon="9.247953953660678"><ele>215.0</ele><time>2026-04-19T10:08:29Z</time></trkpt><trkpt lat="45.97490738123917" lon="9.247989338987129"><ele>215.0</ele><time>2026-04-19T10:08:30Z</time></trkpt><trkpt lat="45.974985932847446" lon="9.248005571669122"><ele>215.00000000000003</ele><time>2026-04-19T10:08:31Z</time></trkpt><trkpt lat="45.975076746014835" lon="9.248019904386878"><ele>215.0</ele><time>2026-04-19T10:08:32Z</time></trkpt><trkpt lat="45.97517924083653" lon="9.248048788383668"><ele>214.66666666666669</ele><time>2026-04-19T10:08:33Z</time></trkpt><trkpt lat="45.9752738497154" lon="9.24806549469988"><ele>214.33333333333334</ele><time>2026-04-19T10:08:34Z</time></trkpt><trkpt lat="45.97536227919935" lon="9.24808018347445"><ele>214.0</ele><time>2026-04-19T10:08:35Z</time></trkpt><trkpt lat="45.975431191109145" lon="9.248101840955812"><ele>213.66666666666669</ele><time>2026-04-19T10:08:36Z</time></trkpt><trkpt lat="45.97549828878486" lon="9.248121879019386"><ele>213.33333333333334</ele><time>2026-04-19T10:08:37Z</time></trkpt><trkpt lat="45.975591838568924" lon="9.248183662204422"><ele>213.0</ele><time>2026-04-19T10:08:39Z</time></trkpt><trkpt lat="45.97564488973556" lon="9.248269826872047"><ele>212.8</ele><time>2026-04-19T10:08:41Z</time></trkpt><trkpt lat="45.97568268473948" lon="9.248390641266608"><ele>212.60000000000002</ele><time>2026-04-19T10:08:42Z</time></trkpt><trkpt lat="45.9756994386376" lon="9.24849923995807"><ele>212.39999999999998</ele><time>2026-04-19T10:08:43Z</time></trkpt><trkpt lat="45.9757291734956" lon="9.248635279348052"><ele>212.2</ele><time>2026-04-19T10:08:44Z</time></trkpt><trkpt lat="45.975755547366184" lon="9.248783899630329"><ele>212.0</ele><time>2026-04-19T10:08:45Z</time></trkpt><trkpt lat="45.97578092292725" lon="9.248933533388643"><ele>211.75</ele><time>2026-04-19T10:08:46Z</time></trkpt><trkpt lat="45.97580619809764" lon="9.249102093315496"><ele>211.5</ele><time>2026-04-19T10:08:47Z</time></trkpt><trkpt lat="45.975832680047134" lon="9.249273577724464"><ele>211.25</ele><time>2026-04-19T10:08:48Z</time></trkpt><trkpt lat="45.97587833199174" lon="9.249446096145006"><ele>211.0</ele><time>2026-04-19T10:08:49Z</time></trkpt><trkpt lat="45.97591684244346" lon="9.249607383537244"><ele>210.8</ele><time>2026-04-19T10:08:50Z</time></trkpt><trkpt lat="45.97595338209293" lon="9.249749154536062"><ele>210.60000000000002</ele><time>2026-04-19T10:08:51Z</time></trkpt><trkpt lat="45.9759900322086" lon="9.249884082783069"><ele>210.4</ele><time>2026-04-19T10:08:51.999Z</time></trkpt><trkpt lat="45.976034177697265" lon="9.250023384914636"><ele>210.2</ele><time>2026-04-19T10:08:52.999Z</time></trkpt><trkpt lat="45.9760751051915" lon="9.250179360048282"><ele>210.0</ele><time>2026-04-19T10:08:53.999Z</time></trkpt><trkpt lat="45.97612938606227" lon="9.25035713040109"><ele>210.5</ele><time>2026-04-19T10:08:54.999Z</time></trkpt><trkpt lat="45.97618276136895" lon="9.25054690985967"><ele>211.0</ele><time>2026-04-19T10:08:55.999Z</time></trkpt><trkpt lat="45.97622726458582" lon="9.250723090832878"><ele>211.5</ele><time>2026-04-19T10:08:56.999Z</time></trkpt><trkpt lat="45.97625692572249" lon="9.250883620939929"><ele>212.0</ele><time>2026-04-19T10:08:57.999Z</time></trkpt><trkpt lat="45.97629585718637" lon="9.251026682271174"><ele>213.25</ele><time>2026-04-19T10:08:58.999Z</time></trkpt><trkpt lat="45.976334912232446" lon="9.251188305136234"><ele>214.5</ele><time>2026-04-19T10:08:59.999Z</time></trkpt><trkpt lat="45.976382187626086" lon="9.251361022442772"><ele>215.75</ele><time>2026-04-19T10:09:00.999Z</time></trkpt><trkpt lat="45.976429908869996" lon="9.251549874055273"><ele>217.0</ele><time>2026-04-19T10:09:01.999Z</time></trkpt><trkpt lat="45.97648224938815" lon="9.251739631542074"><ele>220.0</ele><time>2026-04-19T10:09:02.999Z</time></trkpt><trkpt lat="45.9765353858405" lon="9.251936248518245"><ele>223.0</ele><time>2026-04-19T10:09:03.999Z</time></trkpt><trkpt lat="45.976583896946565" lon="9.252134767071261"><ele>226.0</ele><time>2026-04-19T10:09:04.999Z</time></trkpt><trkpt lat="45.97663406263134" lon="9.252339554165985"><ele>229.0</ele><time>2026-04-19T10:09:05.999Z</time></trkpt><trkpt lat="45.976680680634104" lon="9.25252901303365"><ele>228.2</ele><time>2026-04-19T10:09:06.999Z</time></trkpt><trkpt lat="45.976729898259805" lon="9.252699367040252"><ele>227.39999999999998</ele><time>2026-04-19T10:09:07.999Z</time></trkpt><trkpt lat="45.97676489649575" lon="9.252834723073178"><ele>226.6</ele><time>2026-04-19T10:09:08.999Z</time></trkpt><trkpt lat="45.97679332400829" lon="9.252960541061062"><ele>225.8</ele><time>2026-04-19T10:09:09.999Z</time></trkpt><trkpt lat="45.97683357028419" lon="9.253101317748412"><ele>225.0</ele><time>2026-04-19T10:09:10.999Z</time></trkpt><trkpt lat="45.9768932251285" lon="9.253234978039877"><ele>225.0</ele><time>2026-04-19T10:09:11.999Z</time></trkpt><trkpt lat="45.97695715724698" lon="9.253365397047968"><ele>225.0</ele><time>2026-04-19T10:09:12.999Z</time></trkpt><trkpt lat="45.97704916805437" lon="9.253508806341651"><ele>225.0</ele><time>2026-04-19T10:09:13.999Z</time></trkpt><trkpt lat="45.977160725200704" lon="9.253597789165447"><ele>225.0</ele><time>2026-04-19T10:09:14.999Z</time></trkpt><trkpt lat="45.97727258796937" lon="9.253721221354361"><ele>225.0</ele><time>2026-04-19T10:09:15.999Z</time></trkpt><trkpt lat="45.97738255900671" lon="9.253855638681845"><ele>225.0</ele><time>2026-04-19T10:09:16.999Z</time></trkpt><trkpt lat="45.977493859176995" lon="9.253991021148614"><ele>225.0</ele><time>2026-04-19T10:09:17.999Z</time></trkpt><trkpt lat="45.97759644337147" lon="9.254111848055361"><ele>225.0</ele><time>2026-04-19T10:09:18.999Z</time></trkpt><trkpt lat="45.9777051164324" lon="9.254210594325414"><ele>224.0</ele><time>2026-04-19T10:09:19.999Z</time></trkpt><trkpt lat="45.97783354945518" lon="9.254290320479331"><ele>223.0</ele><time>2026-04-19T10:09:20.999Z</time></trkpt><trkpt lat="45.977982168078796" lon="9.254339517024615"><ele>222.0</ele><time>2026-04-19T10:09:21.999Z</time></trkpt><trkpt lat="45.97813626901979" lon="9.254329741101358"><ele>221.0</ele><time>2026-04-19T10:09:22.999Z</time></trkpt><trkpt lat="45.97827363809505" lon="9.254331277199224"><ele>222.75</ele><time>2026-04-19T10:09:23.999Z</time></trkpt><trkpt lat="45.978404425566325" lon="9.254347905202826"><ele>224.5</ele><time>2026-04-19T10:09:24.999Z</time></trkpt><trkpt lat="45.97852802354856" lon="9.254364775163127"><ele>226.25</ele><time>2026-04-19T10:09:25.999Z</time></trkpt><trkpt lat="45.97864576895341" lon="9.254394407280943"><ele>228.0</ele><time>2026-04-19T10:09:26.999Z</time></trkpt><trkpt lat="45.97874991719734" lon="9.254401125881156"><ele>228.0</ele><time>2026-04-19T10:09:27.999Z</time></trkpt><trkpt lat="45.97884737410097" lon="9.254413892532707"><ele>228.0</ele><time>2026-04-19T10:09:28.999Z</time></trkpt><trkpt lat="45.978922028213" lon="9.25442181246698"><ele>228.0</ele><time>2026-04-19T10:09:29.999Z</time></trkpt><trkpt lat="45.979039720289435" lon="9.254438920545416"><ele>228.0</ele><time>2026-04-19T10:09:31.999Z</time></trkpt><trkpt lat="45.979163005766225" lon="9.254449176503705"><ele>228.0</ele><time>2026-04-19T10:09:33.999Z</time></trkpt><trkpt lat="45.97922795994699" lon="9.25445092452119"><ele>226.16666666666666</ele><time>2026-04-19T10:09:34.999Z</time></trkpt><trkpt lat="45.979344318460974" lon="9.254441026452366"><ele>224.33333333333331</ele><time>2026-04-19T10:09:36.999Z</time></trkpt><trkpt lat="45.97941234492997" lon="9.2544378118657"><ele>222.5</ele><time>2026-04-19T10:09:37.999Z</time></trkpt><trkpt lat="45.97948485175504" lon="9.254446806856237"><ele>220.66666666666666</ele><time>2026-04-19T10:09:38.999Z</time></trkpt><trkpt lat="45.97956155308227" lon="9.254465589807383"><ele>218.83333333333331</ele><time>2026-04-19T10:09:39.999Z</time></trkpt><trkpt lat="45.9796463485601" lon="9.25449114592333"><ele>217.0</ele><time>2026-04-19T10:09:40.999Z</time></trkpt><trkpt lat="45.97973782224379" lon="9.254535208375081"><ele>217.0</ele><time>2026-04-19T10:09:41.999Z</time></trkpt><trkpt lat="45.979837103817744" lon="9.254578773785212"><ele>217.0</ele><time>2026-04-19T10:09:42.999Z</time></trkpt><trkpt lat="45.97993796944224" lon="9.254611392372798"><ele>217.0</ele><time>2026-04-19T10:09:43.999Z</time></trkpt><trkpt lat="45.9800433112172" lon="9.2546478439873"><ele>217.0</ele><time>2026-04-19T10:09:44.999Z</time></trkpt><trkpt lat="45.98013123778837" lon="9.254703496948663"><ele>217.0</ele><time>2026-04-19T10:09:45.999Z</time></trkpt><trkpt lat="45.98023512569387" lon="9.254759574707345"><ele>219.16666666666666</ele><time>2026-04-19T10:09:46.999Z</time></trkpt><trkpt lat="45.98030148545458" lon="9.254817580897132"><ele>221.33333333333331</ele><time>2026-04-19T10:09:47.999Z</time></trkpt><trkpt lat="45.980371316150205" lon="9.254865584306291"><ele>223.5</ele><time>2026-04-19T10:09:48.999Z</time></trkpt><trkpt lat="45.98043142977059" lon="9.254911591789085"><ele>225.66666666666669</ele><time>2026-04-19T10:09:49.999Z</time></trkpt><trkpt lat="45.98048862364591" lon="9.25495231947284"><ele>227.83333333333334</ele><time>2026-04-19T10:09:50.999Z</time></trkpt><trkpt lat="45.98059274688106" lon="9.255017617098254"><ele>230.0</ele><time>2026-04-19T10:09:52.999Z</time></trkpt><trkpt lat="45.980700953498506" lon="9.255088532955693"><ele>230.0</ele><time>2026-04-19T10:09:54.999Z</time></trkpt><trkpt lat="45.98081845785342" lon="9.255173140179085"><ele>230.0</ele><time>2026-04-19T10:09:56.999Z</time></trkpt><trkpt lat="45.980875072874404" lon="9.255212837788655"><ele>230.0</ele><time>2026-04-19T10:09:57.999Z</time></trkpt><trkpt lat="45.98098539224788" lon="9.25528310178711"><ele>230.0</ele><time>2026-04-19T10:09:59.998Z</time></trkpt><trkpt lat="45.98109471168389" lon="9.255363422169038"><ele>230.0</ele><time>2026-04-19T10:10:01.998Z</time></trkpt><trkpt lat="45.981207073893614" lon="9.255428394182507"><ele>230.0</ele><time>2026-04-19T10:10:03.998Z</time></trkpt><trkpt lat="45.98128898652198" lon="9.255487134838924"><ele>230.0</ele><time>2026-04-19T10:10:05.998Z</time></trkpt><trkpt lat="45.98136900005269" lon="9.255548755137845"><ele>230.0</ele><time>2026-04-19T10:10:08Z</time></trkpt><trkpt lat="45.98144906213679" lon="9.255611761466893"><ele>230.0</ele><time>2026-04-19T10:10:10Z</time></trkpt><trkpt lat="45.98152102265935" lon="9.255694796748719"><ele>230.0</ele><time>2026-04-19T10:10:12Z</time></trkpt><trkpt lat="45.98158960942593" lon="9.255785740372474"><ele>230.0</ele><time>2026-04-19T10:10:14Z</time></trkpt><trkpt lat="45.98166767977371" lon="9.255877008393842"><ele>230.0</ele><time>2026-04-19T10:10:16Z</time></trkpt><trkpt lat="45.981757592939005" lon="9.25598781747516"><ele>230.0</ele><time>2026-04-19T10:10:18Z</time></trkpt><trkpt lat="45.981809866897976" lon="9.25605317321172"><ele>230.0</ele><time>2026-04-19T10:10:19Z</time></trkpt><trkpt lat="45.98187102610991" lon="9.256117925831202"><ele>230.0</ele><time>2026-04-19T10:10:20Z</time></trkpt><trkpt lat="45.98195052977689" lon="9.25617167797201"><ele>225.33333333333334</ele><time>2026-04-19T10:10:21Z</time></trkpt><trkpt lat="45.98203323402295" lon="9.256198948613335"><ele>220.66666666666669</ele><time>2026-04-19T10:10:22Z</time></trkpt><trkpt lat="45.982115206156784" lon="9.25624280067567"><ele>216.0</ele><time>2026-04-19T10:10:23Z</time></trkpt><trkpt lat="45.98219876042226" lon="9.25628377842501"><ele>211.33333333333331</ele><time>2026-04-19T10:10:24Z</time></trkpt><trkpt lat="45.98227045781411" lon="9.256297332168623"><ele>206.66666666666666</ele><time>2026-04-19T10:10:25Z</time></trkpt><trkpt lat="45.982339212449304" lon="9.256305650715975"><ele>202.0</ele><time>2026-04-19T10:10:26Z</time></trkpt><trkpt lat="45.982405188712626" lon="9.256318997578143"><ele>202.0</ele><time>2026-04-19T10:10:27Z</time></trkpt><trkpt lat="45.9824738646882" lon="9.256353246199687"><ele>202.0</ele><time>2026-04-19T10:10:28Z</time></trkpt><trkpt lat="45.98254314605228" lon="9.256405751294883"><ele>202.0</ele><time>2026-04-19T10:10:29Z</time></trkpt><trkpt lat="45.98259791239637" lon="9.256465108262638"><ele>202.0</ele><time>2026-04-19T10:10:30Z</time></trkpt><trkpt lat="45.982650459181315" lon="9.256521208301585"><ele>202.0</ele><time>2026-04-19T10:10:33Z</time></trkpt><trkpt lat="45.982719985445165" lon="9.256556789432432"><ele>202.0</ele><time>2026-04-19T10:10:40Z</time></trkpt><trkpt lat="45.982771945484586" lon="9.256645359241366"><ele>202.0</ele><time>2026-04-19T10:10:42Z</time></trkpt><trkpt lat="45.982841002515364" lon="9.256753227401274"><ele>201.66666666666666</ele><time>2026-04-19T10:10:44Z</time></trkpt><trkpt lat="45.98291890513328" lon="9.256844935559204"><ele>201.33333333333331</ele><time>2026-04-19T10:10:46Z</time></trkpt><trkpt lat="45.98298697016245" lon="9.256927395687429"><ele>201.0</ele><time>2026-04-19T10:10:48Z</time></trkpt><trkpt lat="45.983032700184886" lon="9.257002350785278"><ele>200.66666666666669</ele><time>2026-04-19T10:10:50Z</time></trkpt><trkpt lat="45.983091897209064" lon="9.257083673180876"><ele>200.33333333333334</ele><time>2026-04-19T10:10:54Z</time></trkpt><trkpt lat="45.98313905219119" lon="9.257155814953723"><ele>200.0</ele><time>2026-04-19T10:10:58Z</time></trkpt><trkpt lat="45.98319311248708" lon="9.257229542462289"><ele>200.14285714285717</ele><time>2026-04-19T10:11:02.999Z</time></trkpt><trkpt lat="45.98324227064145" lon="9.257297354598515"><ele>200.28571428571428</ele><time>2026-04-19T10:11:06.999Z</time></trkpt><trkpt lat="45.9832964630996" lon="9.257367133595102"><ele>200.42857142857144</ele><time>2026-04-19T10:11:10.999Z</time></trkpt><trkpt lat="45.983348131593594" lon="9.257440054110383"><ele>200.57142857142858</ele><time>2026-04-19T10:11:14.999Z</time></trkpt><trkpt lat="45.98339654452226" lon="9.257515562799624"><ele>200.71428571428572</ele><time>2026-04-19T10:11:18.999Z</time></trkpt><trkpt lat="45.98344225786962" lon="9.257579831928728"><ele>200.85714285714286</ele><time>2026-04-19T10:11:23.999Z</time></trkpt><trkpt lat="45.98349079520614" lon="9.257660943770873"><ele>201.0</ele><time>2026-04-19T10:11:27.999Z</time></trkpt><trkpt lat="45.98354821606979" lon="9.257745861661407"><ele>201.0</ele><time>2026-04-19T10:11:30.999Z</time></trkpt><trkpt lat="45.983590527863775" lon="9.257813751245198"><ele>201.0</ele><time>2026-04-19T10:11:32.999Z</time></trkpt><trkpt lat="45.98364482058516" lon="9.257894492077874"><ele>201.0</ele><time>2026-04-19T10:11:34.999Z</time></trkpt><trkpt lat="45.98369280165125" lon="9.257967857805298"><ele>201.0</ele><time>2026-04-19T10:11:36.999Z</time></trkpt><trkpt lat="45.98374910851643" lon="9.258039931980404"><ele>201.0</ele><time>2026-04-19T10:11:38.999Z</time></trkpt><trkpt lat="45.98381623819818" lon="9.258111914516677"><ele>201.0</ele><time>2026-04-19T10:11:40.999Z</time></trkpt><trkpt lat="45.98389560500939" lon="9.258161095827282"><ele>200.8</ele><time>2026-04-19T10:11:42.999Z</time></trkpt><trkpt lat="45.98399000396533" lon="9.258217788238797"><ele>200.60000000000002</ele><time>2026-04-19T10:11:44.999Z</time></trkpt><trkpt lat="45.98408833063521" lon="9.258262364936925"><ele>200.4</ele><time>2026-04-19T10:11:46.999Z</time></trkpt><trkpt lat="45.98416656128653" lon="9.258285378634843"><ele>200.2</ele><time>2026-04-19T10:11:48.999Z</time></trkpt><trkpt lat="45.98424333590051" lon="9.258328806541849"><ele>200.0</ele><time>2026-04-19T10:11:50.999Z</time></trkpt><trkpt lat="45.98432488006083" lon="9.258385109954778"><ele>200.0</ele><time>2026-04-19T10:11:52.999Z</time></trkpt><trkpt lat="45.984413320454344" lon="9.25844734000173"><ele>200.0</ele><time>2026-04-19T10:11:54.999Z</time></trkpt><trkpt lat="45.98448392031875" lon="9.258516623378775"><ele>200.0</ele><time>2026-04-19T10:11:56.999Z</time></trkpt><trkpt lat="45.98454388188888" lon="9.258607354303953"><ele>200.0</ele><time>2026-04-19T10:11:58.999Z</time></trkpt><trkpt lat="45.98460456293749" lon="9.258693540646092"><ele>200.0</ele><time>2026-04-19T10:12:00.999Z</time></trkpt><trkpt lat="45.98466666410906" lon="9.258794287516757"><ele>200.0</ele><time>2026-04-19T10:12:02.999Z</time></trkpt><trkpt lat="45.98473924009597" lon="9.258891820437725"><ele>200.0</ele><time>2026-04-19T10:12:04.999Z</time></trkpt><trkpt lat="45.98480486900928" lon="9.258993408311637"><ele>200.0</ele><time>2026-04-19T10:12:06.998Z</time></trkpt><trkpt lat="45.984877116208594" lon="9.259090595885"><ele>200.0</ele><time>2026-04-19T10:12:08.998Z</time></trkpt><trkpt lat="45.984934464916584" lon="9.259167231016407"><ele>200.0</ele><time>2026-04-19T10:12:10.998Z</time></trkpt><trkpt lat="45.985044063836945" lon="9.259293380406278"><ele>199.85714285714286</ele><time>2026-04-19T10:13:54.999Z</time></trkpt><trkpt lat="45.98509051174532" lon="9.25936069340394"><ele>199.71428571428572</ele><time>2026-04-19T10:14:05.998Z</time></trkpt><trkpt lat="45.98513681475653" lon="9.259427753368795"><ele>199.57142857142856</ele><time>2026-04-19T10:14:16.998Z</time></trkpt><trkpt lat="45.98518385890894" lon="9.259495886774655"><ele>199.42857142857144</ele><time>2026-04-19T10:14:28Z</time></trkpt><trkpt lat="45.98523424109784" lon="9.259568854915141"><ele>199.28571428571428</ele><time>2026-04-19T10:14:38Z</time></trkpt><trkpt lat="45.98528151880419" lon="9.259637326469083"><ele>199.14285714285714</ele><time>2026-04-19T10:14:48Z</time></trkpt><trkpt lat="45.985330683565465" lon="9.259708531223216"><ele>199.0</ele><time>2026-04-19T10:15:04.999Z</time></trkpt><trkpt lat="45.985374558858595" lon="9.25978182518345"><ele>199.14285714285714</ele><time>2026-04-19T10:15:13.999Z</time></trkpt><trkpt lat="45.98541321641768" lon="9.259855973113096"><ele>199.28571428571428</ele><time>2026-04-19T10:15:27.999Z</time></trkpt><trkpt lat="45.985478502879346" lon="9.259879160126374"><ele>199.42857142857144</ele><time>2026-04-19T10:15:32.999Z</time></trkpt><trkpt lat="45.98551349589487" lon="9.259957532225226"><ele>199.57142857142856</ele><time>2026-04-19T10:15:40.999Z</time></trkpt><trkpt lat="45.98555589327337" lon="9.26002941449934"><ele>199.71428571428572</ele><time>2026-04-19T10:15:46.999Z</time></trkpt><trkpt lat="45.98556080516243" lon="9.260131879489524"><ele>199.85714285714286</ele><time>2026-04-19T10:15:52.999Z</time></trkpt><trkpt lat="45.98557241479667" lon="9.260221408349599"><ele>200.0</ele><time>2026-04-19T10:15:58.999Z</time></trkpt><trkpt lat="45.98560946428409" lon="9.260297414284581"><ele>200.00000000000003</ele><time>2026-04-19T10:16:05.999Z</time></trkpt><trkpt lat="45.98563304106906" lon="9.260394089052815"><ele>200.0</ele><time>2026-04-19T10:16:12.998Z</time></trkpt><trkpt lat="45.98566954478068" lon="9.260472524549717"><ele>200.0</ele><time>2026-04-19T10:16:19.998Z</time></trkpt><trkpt lat="45.98573173058768" lon="9.260492464874517"><ele>200.0</ele><time>2026-04-19T10:16:26Z</time></trkpt><trkpt lat="45.98577297416333" lon="9.260569655925215"><ele>200.0</ele><time>2026-04-19T10:16:32Z</time></trkpt><trkpt lat="45.98583083713935" lon="9.260634061923051"><ele>200.00000000000003</ele><time>2026-04-19T10:16:37Z</time></trkpt><trkpt lat="45.98589342734735" lon="9.260689229098707"><ele>200.0</ele><time>2026-04-19T10:16:45Z</time></trkpt><trkpt lat="45.98595272538472" lon="9.260733407286024"><ele>201.6</ele><time>2026-04-19T10:16:53Z</time></trkpt><trkpt lat="45.98591012833043" lon="9.260829257836864"><ele>203.2</ele><time>2026-04-19T10:17:00Z</time></trkpt><trkpt lat="45.98594207395138" lon="9.260909997142717"><ele>204.8</ele><time>2026-04-19T10:17:06Z</time></trkpt><trkpt lat="45.986119646405704" lon="9.260918030940491"><ele>206.4</ele><time>2026-04-19T10:17:15.999Z</time></trkpt><trkpt lat="45.98619117505079" lon="9.260978227921694"><ele>208.0</ele><time>2026-04-19T10:17:25.999Z</time></trkpt><trkpt lat="45.98629370695735" lon="9.260996415110709"><ele>208.0</ele><time>2026-04-19T10:17:36.999Z</time></trkpt><trkpt lat="45.98635667982289" lon="9.260946389623728"><ele>208.0</ele><time>2026-04-19T10:17:41.999Z</time></trkpt><trkpt lat="45.98648058490203" lon="9.260925883282287"><ele>208.0</ele><time>2026-04-19T10:17:54.999Z</time></trkpt><trkpt lat="45.986618849208725" lon="9.26090642113079"><ele>208.0</ele><time>2026-04-19T10:18:15.999Z</time></trkpt><trkpt lat="45.98667804061489" lon="9.26083639330609"><ele>208.0</ele><time>2026-04-19T10:18:16.999Z</time></trkpt><trkpt lat="45.98680972755326" lon="9.260756102962825"><ele>209.66666666666666</ele><time>2026-04-19T10:18:36Z</time></trkpt><trkpt lat="45.986896653523104" lon="9.26072091235554"><ele>211.33333333333331</ele><time>2026-04-19T10:18:37Z</time></trkpt><trkpt lat="45.98699895108674" lon="9.260622705178646"><ele>213.0</ele><time>2026-04-19T10:18:38Z</time></trkpt><trkpt lat="45.98709683298223" lon="9.26012586077922"><ele>213.0</ele><time>2026-04-19T10:18:39Z</time></trkpt><trkpt lat="45.987022122350176" lon="9.26052658040975"><ele>213.0</ele><time>2026-04-19T10:18:40Z</time></trkpt><trkpt lat="45.98700515608017" lon="9.26063852734443"><ele>213.0</ele><time>2026-04-19T10:18:43Z</time></trkpt><trkpt lat="45.98708916665959" lon="9.260611252870806"><ele>213.0</ele><time>2026-04-19T10:18:58Z</time></trkpt><trkpt lat="45.98702596208405" lon="9.2606139084857"><ele>213.0</ele><time>2026-04-19T10:19:05Z</time></trkpt><trkpt lat="45.98709444191668" lon="9.260632158754454"><ele>213.0</ele><time>2026-04-19T10:19:11Z</time></trkpt><trkpt lat="45.98716063313773" lon="9.260689793783772"><ele>213.0</ele><time>2026-04-19T10:19:16Z</time></trkpt><trkpt lat="45.987297691804294" lon="9.26068758822629"><ele>213.0</ele><time>2026-04-19T10:19:29.999Z</time></trkpt><trkpt lat="45.98737864861626" lon="9.260682990565188"><ele>213.0</ele><time>2026-04-19T10:19:47.999Z</time></trkpt><trkpt lat="45.987438312652564" lon="9.260645805424028"><ele>213.0</ele><time>2026-04-19T10:19:51.999Z</time></trkpt><trkpt lat="45.987541359674985" lon="9.260635929108094"><ele>213.0</ele><time>2026-04-19T10:19:58.999Z</time></trkpt><trkpt lat="45.98760944633943" lon="9.26056779909587"><ele>213.0</ele><time>2026-04-19T10:20:09.999Z</time></trkpt><trkpt lat="45.98766721207417" lon="9.26061195464861"><ele>213.0</ele><time>2026-04-19T10:20:13.999Z</time></trkpt><trkpt lat="45.98774537375721" lon="9.26064425425136"><ele>213.0</ele><time>2026-04-19T10:20:19.999Z</time></trkpt><trkpt lat="45.98785822726236" lon="9.260650211311976"><ele>213.0</ele><time>2026-04-19T10:20:39Z</time></trkpt><trkpt lat="45.987986544567725" lon="9.26062023480029"><ele>213.0</ele><time>2026-04-19T10:20:48Z</time></trkpt><trkpt lat="45.98805455809962" lon="9.260454886054834"><ele>213.0</ele><time>2026-04-19T10:21:01Z</time></trkpt><trkpt lat="45.98811984754658" lon="9.260563450188283"><ele>213.0</ele><time>2026-04-19T10:21:09Z</time></trkpt><trkpt lat="45.98811071034941" lon="9.260683021056675"><ele>213.0</ele><time>2026-04-19T10:21:19Z</time></trkpt><trkpt lat="45.98822293770979" lon="9.260710690437037"><ele>213.0</ele><time>2026-04-19T10:21:28.999Z</time></trkpt><trkpt lat="45.988283859992556" lon="9.26080351734103"><ele>213.0</ele><time>2026-04-19T10:21:35.999Z</time></trkpt><trkpt lat="45.98809229190377" lon="9.2609277942349"><ele>213.0</ele><time>2026-04-19T10:21:48.999Z</time></trkpt><trkpt lat="45.98817281685788" lon="9.261017572692497"><ele>213.0</ele><time>2026-04-19T10:21:56.999Z</time></trkpt><trkpt lat="45.98818603847671" lon="9.261111702833402"><ele>213.0</ele><time>2026-04-19T10:22:00.999Z</time></trkpt><trkpt lat="45.988133495275484" lon="9.261196283476977"><ele>213.0</ele><time>2026-04-19T10:22:04.999Z</time></trkpt><trkpt lat="45.9881316862093" lon="9.261299333480885"><ele>213.0</ele><time>2026-04-19T10:22:14.999Z</time></trkpt><trkpt lat="45.988119065649826" lon="9.26139416826337"><ele>213.0</ele><time>2026-04-19T10:22:16.999Z</time></trkpt><trkpt lat="45.98811290879528" lon="9.261489213017809"><ele>213.0</ele><time>2026-04-19T10:22:21.999Z</time></trkpt><trkpt lat="45.98821793110316" lon="9.261575963953224"><ele>213.0</ele><time>2026-04-19T10:22:28.999Z</time></trkpt><trkpt lat="45.98825346865838" lon="9.261660094961643"><ele>213.0</ele><time>2026-04-19T10:22:36.999Z</time></trkpt><trkpt lat="45.98831695747049" lon="9.261717317296878"><ele>214.16666666666666</ele><time>2026-04-19T10:22:42.998Z</time></trkpt><trkpt lat="45.98837946899226" lon="9.261735606668624"><ele>215.33333333333331</ele><time>2026-04-19T10:22:48Z</time></trkpt><trkpt lat="45.9884384086076" lon="9.261768454333447"><ele>216.5</ele><time>2026-04-19T10:22:52Z</time></trkpt><trkpt lat="45.988274381744" lon="9.261788922645714"><ele>217.66666666666666</ele><time>2026-04-19T10:23:18Z</time></trkpt><trkpt lat="45.988202796342605" lon="9.261760072978253"><ele>218.83333333333331</ele><time>2026-04-19T10:23:20Z</time></trkpt><trkpt lat="45.98814062272161" lon="9.261698523887759"><ele>220.0</ele><time>2026-04-19T10:23:35.999Z</time></trkpt><trkpt lat="45.98806889213585" lon="9.2617112969907"><ele>220.42857142857142</ele><time>2026-04-19T10:23:41.999Z</time></trkpt><trkpt lat="45.98798597185332" lon="9.26167745151034"><ele>220.85714285714286</ele><time>2026-04-19T10:23:44.999Z</time></trkpt><trkpt lat="45.987976925856515" lon="9.261772854515566"><ele>221.28571428571428</ele><time>2026-04-19T10:23:48.999Z</time></trkpt><trkpt lat="45.98792803417834" lon="9.261837517791184"><ele>221.71428571428572</ele><time>2026-04-19T10:23:58.999Z</time></trkpt><trkpt lat="45.98786613757646" lon="9.261871327925663"><ele>222.14285714285714</ele><time>2026-04-19T10:24:07.999Z</time></trkpt><trkpt lat="45.987794601460806" lon="9.26188426529656"><ele>222.57142857142856</ele><time>2026-04-19T10:24:16.999Z</time></trkpt><trkpt lat="45.987707739160605" lon="9.261875816764293"><ele>223.0</ele><time>2026-04-19T10:24:31.999Z</time></trkpt><trkpt lat="45.987623078521686" lon="9.261896744742382"><ele>222.99999999999997</ele><time>2026-04-19T10:24:41.999Z</time></trkpt><trkpt lat="45.98754989558051" lon="9.2619128155847"><ele>223.0</ele><time>2026-04-19T10:24:59Z</time></trkpt><trkpt lat="45.98748728015772" lon="9.261890552783168"><ele>223.0</ele><time>2026-04-19T10:25:07Z</time></trkpt><trkpt lat="45.98740221137465" lon="9.261827953215333"><ele>223.0</ele><time>2026-04-19T10:25:14Z</time></trkpt><trkpt lat="45.98734113061815" lon="9.26178652427939"><ele>222.99999999999997</ele><time>2026-04-19T10:25:15Z</time></trkpt><trkpt lat="45.987272255755315" lon="9.261925680190446"><ele>223.0</ele><time>2026-04-19T10:25:18Z</time></trkpt><trkpt lat="45.987202595321314" lon="9.261955489663832"><ele>223.57142857142856</ele><time>2026-04-19T10:25:28Z</time></trkpt><trkpt lat="45.987134333660144" lon="9.261975364321058"><ele>224.14285714285714</ele><time>2026-04-19T10:25:38.999Z</time></trkpt><trkpt lat="45.98706706578324" lon="9.261974487092324"><ele>224.71428571428572</ele><time>2026-04-19T10:25:43.999Z</time></trkpt><trkpt lat="45.98701247783959" lon="9.262046835163604"><ele>225.28571428571428</ele><time>2026-04-19T10:25:53.999Z</time></trkpt><trkpt lat="45.98696058892651" lon="9.26210882514071"><ele>225.8571428571429</ele><time>2026-04-19T10:25:58.999Z</time></trkpt><trkpt lat="45.986908868915854" lon="9.262170969510056"><ele>226.42857142857144</ele><time>2026-04-19T10:26:02.999Z</time></trkpt><trkpt lat="45.98687655145958" lon="9.262251408423708"><ele>227.0</ele><time>2026-04-19T10:26:06.999Z</time></trkpt><trkpt lat="45.98682289385756" lon="9.262312495731727"><ele>229.16666666666669</ele><time>2026-04-19T10:26:12.999Z</time></trkpt><trkpt lat="45.98673103181766" lon="9.26238808614529"><ele>231.33333333333334</ele><time>2026-04-19T10:26:23.999Z</time></trkpt><trkpt lat="45.98671441490508" lon="9.262514908680428"><ele>233.5</ele><time>2026-04-19T10:26:34.999Z</time></trkpt><trkpt lat="45.98664501678263" lon="9.262466827918638"><ele>235.66666666666669</ele><time>2026-04-19T10:26:40.999Z</time></trkpt><trkpt lat="45.98659316713539" lon="9.262395496206535"><ele>237.83333333333334</ele><time>2026-04-19T10:26:57Z</time></trkpt><trkpt lat="45.986521627021595" lon="9.26240211687979"><ele>240.0</ele><time>2026-04-19T10:27:15Z</time></trkpt><trkpt lat="45.98662190740729" lon="9.262371718075505"><ele>238.0</ele><time>2026-04-19T10:27:23Z</time></trkpt><trkpt lat="45.986662285669574" lon="9.262253137069937"><ele>236.0</ele><time>2026-04-19T10:27:36Z</time></trkpt><trkpt lat="45.986657929446324" lon="9.262156188687378"><ele>234.0</ele><time>2026-04-19T10:27:44.999Z</time></trkpt><trkpt lat="45.98664141114615" lon="9.262053108268784"><ele>232.0</ele><time>2026-04-19T10:27:55.999Z</time></trkpt><trkpt lat="45.98664320426439" lon="9.26195760177637"><ele>230.0</ele><time>2026-04-19T10:28:03.999Z</time></trkpt><trkpt lat="45.9866196849738" lon="9.261873556884407"><ele>228.0</ele><time>2026-04-19T10:28:10.999Z</time></trkpt><trkpt lat="45.98662242799286" lon="9.261778548042168"><ele>226.0</ele><time>2026-04-19T10:28:19.999Z</time></trkpt><trkpt lat="45.98660971245585" lon="9.26168828977819"><ele>225.99999999999997</ele><time>2026-04-19T10:28:27.999Z</time></trkpt><trkpt lat="45.986656194759455" lon="9.26157016247718"><ele>226.0</ele><time>2026-04-19T10:28:38.999Z</time></trkpt><trkpt lat="45.98674120412368" lon="9.261561275609422"><ele>226.0</ele><time>2026-04-19T10:28:53.999Z</time></trkpt><trkpt lat="45.98679477702034" lon="9.261446373113579"><ele>226.0</ele><time>2026-04-19T10:29:20Z</time></trkpt><trkpt lat="45.98682731185249" lon="9.261365455590267"><ele>225.99999999999997</ele><time>2026-04-19T10:29:21Z</time></trkpt><trkpt lat="45.98678581753817" lon="9.26127746513936"><ele>226.0</ele><time>2026-04-19T10:29:25Z</time></trkpt><trkpt lat="45.98672259746816" lon="9.261212597800037"><ele>223.83333333333331</ele><time>2026-04-19T10:29:56.999Z</time></trkpt><trkpt lat="45.98669533831404" lon="9.261122564448089"><ele>221.66666666666666</ele><time>2026-04-19T10:29:58.999Z</time></trkpt><trkpt lat="45.98670967536591" lon="9.26090044776756"><ele>219.5</ele><time>2026-04-19T10:30:07.999Z</time></trkpt><trkpt lat="45.9866466065369" lon="9.260875192560484"><ele>217.33333333333331</ele><time>2026-04-19T10:30:09.999Z</time></trkpt><trkpt lat="45.9866923347446" lon="9.260797821086491"><ele>215.16666666666666</ele><time>2026-04-19T10:30:11.999Z</time></trkpt><trkpt lat="45.986743369199914" lon="9.260733338888059"><ele>213.0</ele><time>2026-04-19T10:30:13.999Z</time></trkpt><trkpt lat="45.98656820029541" lon="9.260835219875062"><ele>212.28571428571428</ele><time>2026-04-19T10:30:26.999Z</time></trkpt><trkpt lat="45.98650618961927" lon="9.260853196402161"><ele>211.57142857142856</ele><time>2026-04-19T10:30:32.999Z</time></trkpt><trkpt lat="45.98645236308378" lon="9.260903842514134"><ele>210.85714285714283</ele><time>2026-04-19T10:30:39.999Z</time></trkpt><trkpt lat="45.98638914122781" lon="9.260891175450753"><ele>210.14285714285714</ele><time>2026-04-19T10:30:46.999Z</time></trkpt><trkpt lat="45.98631864675843" lon="9.260864035277717"><ele>209.42857142857144</ele><time>2026-04-19T10:30:55.999Z</time></trkpt><trkpt lat="45.98624970073072" lon="9.260858611676717"><ele>208.7142857142857</ele><time>2026-04-19T10:31:03.999Z</time></trkpt><trkpt lat="45.98618485063177" lon="9.260825588134994"><ele>208.0</ele><time>2026-04-19T10:31:11Z</time></trkpt><trkpt lat="45.98611872089216" lon="9.260787048126339"><ele>208.0</ele><time>2026-04-19T10:31:20Z</time></trkpt><trkpt lat="45.9860488835895" lon="9.26080618022032"><ele>208.0</ele><time>2026-04-19T10:31:27Z</time></trkpt><trkpt lat="45.98598280909055" lon="9.260807985441218"><ele>208.0</ele><time>2026-04-19T10:31:35Z</time></trkpt><trkpt lat="45.98589818613923" lon="9.260735008150803"><ele>208.0</ele><time>2026-04-19T10:31:42Z</time></trkpt><trkpt lat="45.985911287624695" lon="9.260633867472343"><ele>208.0</ele><time>2026-04-19T10:31:46Z</time></trkpt><trkpt lat="45.98589982054188" lon="9.260540469384098"><ele>208.0</ele><time>2026-04-19T10:31:53Z</time></trkpt><trkpt lat="45.98583594702953" lon="9.260525357767495"><ele>208.0</ele><time>2026-04-19T10:31:58Z</time></trkpt><trkpt lat="45.98576864388963" lon="9.260529259930118"><ele>206.66666666666666</ele><time>2026-04-19T10:32:03Z</time></trkpt><trkpt lat="45.98570458023128" lon="9.260468385735074"><ele>205.33333333333331</ele><time>2026-04-19T10:32:08.999Z</time></trkpt><trkpt lat="45.98568762275345" lon="9.260370360313622"><ele>204.0</ele><time>2026-04-19T10:32:17.999Z</time></trkpt><trkpt lat="45.985644345604435" lon="9.260253695906295"><ele>202.66666666666669</ele><time>2026-04-19T10:32:23.999Z</time></trkpt><trkpt lat="45.98562992915435" lon="9.260138154406732"><ele>201.33333333333334</ele><time>2026-04-19T10:32:31.999Z</time></trkpt><trkpt lat="45.985603156762274" lon="9.26003939906714"><ele>200.0</ele><time>2026-04-19T10:32:38.999Z</time></trkpt><trkpt lat="45.985589835215414" lon="9.259941441250785"><ele>200.00000000000003</ele><time>2026-04-19T10:32:44.999Z</time></trkpt><trkpt lat="45.98554037211439" lon="9.259878970453006"><ele>200.0</ele><time>2026-04-19T10:32:50.999Z</time></trkpt><trkpt lat="45.985508843621815" lon="9.259773419793468"><ele>200.0</ele><time>2026-04-19T10:32:57.999Z</time></trkpt><trkpt lat="45.98544944448999" lon="9.259716899840592"><ele>200.0</ele><time>2026-04-19T10:33:04.999Z</time></trkpt><trkpt lat="45.985379609643815" lon="9.259714830552575"><ele>200.0</ele><time>2026-04-19T10:33:09.999Z</time></trkpt><trkpt lat="45.985323163859945" lon="9.259647732876122"><ele>200.00000000000003</ele><time>2026-04-19T10:33:17Z</time></trkpt><trkpt lat="45.985288416164344" lon="9.259560706330623"><ele>200.0</ele><time>2026-04-19T10:33:24Z</time></trkpt><trkpt lat="45.98523534175064" lon="9.259500500797367"><ele>199.85714285714286</ele><time>2026-04-19T10:33:31Z</time></trkpt><trkpt lat="45.9851952945738" lon="9.25942667478645"><ele>199.71428571428572</ele><time>2026-04-19T10:33:39Z</time></trkpt><trkpt lat="45.985122935048445" lon="9.259409208053077"><ele>199.57142857142856</ele><time>2026-04-19T10:33:43Z</time></trkpt><trkpt lat="45.98512131382196" lon="9.259299438842074"><ele>199.42857142857144</ele><time>2026-04-19T10:33:51Z</time></trkpt><trkpt lat="45.98510264863458" lon="9.259207070464864"><ele>199.28571428571428</ele><time>2026-04-19T10:33:59Z</time></trkpt><trkpt lat="45.98506038677599" lon="9.259138520937254"><ele>199.14285714285714</ele><time>2026-04-19T10:34:07Z</time></trkpt><trkpt lat="45.984998721616925" lon="9.25909291793761"><ele>199.0</ele><time>2026-04-19T10:34:48.999Z</time></trkpt><trkpt lat="45.96167769584309" lon="9.22635876286438"><ele>200.25</ele><time>2026-04-19T10:54:23.001Z</time></trkpt><trkpt lat="45.961703269771036" lon="9.226181728659794"><ele>201.5</ele><time>2026-04-19T10:54:24.001Z</time></trkpt><trkpt lat="45.9617158247785" lon="9.226019089373949"><ele>202.75</ele><time>2026-04-19T10:54:25.001Z</time></trkpt><trkpt lat="45.96169421732602" lon="9.225855019199056"><ele>204.0</ele><time>2026-04-19T10:54:26.001Z</time></trkpt><trkpt lat="45.96165657595972" lon="9.22569317976722"><ele>210.25</ele><time>2026-04-19T10:54:27.001Z</time></trkpt><trkpt lat="45.96159420465579" lon="9.225557956421454"><ele>216.5</ele><time>2026-04-19T10:54:28.001Z</time></trkpt><trkpt lat="45.96149327296426" lon="9.225413265680631"><ele>222.75</ele><time>2026-04-19T10:54:29.001Z</time></trkpt><trkpt lat="45.96142559463342" lon="9.225389131989568"><ele>229.0</ele><time>2026-04-19T10:54:30.001Z</time></trkpt><trkpt lat="45.96123262134895" lon="9.225280275772786"><ele>229.0</ele><time>2026-04-19T10:54:31.001Z</time></trkpt><trkpt lat="45.96115266191673" lon="9.225207554367925"><ele>228.99999999999997</ele><time>2026-04-19T10:54:32.001Z</time></trkpt><trkpt lat="45.96110042222171" lon="9.225088280309935"><ele>228.99999999999997</ele><time>2026-04-19T10:54:33.001Z</time></trkpt><trkpt lat="45.961080887990995" lon="9.224996037337677"><ele>229.0</ele><time>2026-04-19T10:54:34.001Z</time></trkpt><trkpt lat="45.961117668929305" lon="9.22484271495184"><ele>229.0</ele><time>2026-04-19T10:54:35.001Z</time></trkpt><trkpt lat="45.961203460491134" lon="9.22465244727375"><ele>229.0</ele><time>2026-04-19T10:54:36.001Z</time></trkpt><trkpt lat="45.961291298106445" lon="9.22447411830823"><ele>229.0</ele><time>2026-04-19T10:54:37.001Z</time></trkpt><trkpt lat="45.96137632538873" lon="9.224295430123878"><ele>229.0</ele><time>2026-04-19T10:54:38.001Z</time></trkpt><trkpt lat="45.96144095742987" lon="9.224142992631412"><ele>229.0</ele><time>2026-04-19T10:54:39.001Z</time></trkpt><trkpt lat="45.96150376810785" lon="9.223972828994903"><ele>229.0</ele><time>2026-04-19T10:54:40.001Z</time></trkpt><trkpt lat="45.96151892383982" lon="9.223796545338915"><ele>229.0</ele><time>2026-04-19T10:54:41Z</time></trkpt><trkpt lat="45.96149954330712" lon="9.223595281591646"><ele>229.0</ele><time>2026-04-19T10:54:42Z</time></trkpt><trkpt lat="45.96134036141584" lon="9.223316594907011"><ele>229.0</ele><time>2026-04-19T10:54:44Z</time></trkpt><trkpt lat="45.96122479742885" lon="9.223223157267569"><ele>229.0</ele><time>2026-04-19T10:54:45Z</time></trkpt><trkpt lat="45.96108159035701" lon="9.223071785375529"><ele>229.0</ele><time>2026-04-19T10:54:46Z</time></trkpt><trkpt lat="45.96093753846748" lon="9.222951832802694"><ele>232.0</ele><time>2026-04-19T10:54:47Z</time></trkpt><trkpt lat="45.96077662259274" lon="9.222836158257211"><ele>235.0</ele><time>2026-04-19T10:54:48Z</time></trkpt><trkpt lat="45.96061360521016" lon="9.222727776159868"><ele>238.0</ele><time>2026-04-19T10:54:49Z</time></trkpt><trkpt lat="45.960482582244836" lon="9.222624340663385"><ele>238.0</ele><time>2026-04-19T10:54:50Z</time></trkpt><trkpt lat="45.96035094858541" lon="9.222498142827925"><ele>238.0</ele><time>2026-04-19T10:54:51Z</time></trkpt><trkpt lat="45.96022801666145" lon="9.22234697306072"><ele>238.0</ele><time>2026-04-19T10:54:52Z</time></trkpt><trkpt lat="45.96011452474378" lon="9.222193032342226"><ele>237.25</ele><time>2026-04-19T10:54:53Z</time></trkpt><trkpt lat="45.96001340481518" lon="9.222052647471404"><ele>236.5</ele><time>2026-04-19T10:54:54Z</time></trkpt><trkpt lat="45.95991352798323" lon="9.221934006178895"><ele>235.75</ele><time>2026-04-19T10:54:55Z</time></trkpt><trkpt lat="45.959796971603346" lon="9.221854462499339"><ele>235.0</ele><time>2026-04-19T10:54:56Z</time></trkpt><trkpt lat="45.9596559356837" lon="9.221841572265957"><ele>235.0</ele><time>2026-04-19T10:54:57Z</time></trkpt><trkpt lat="45.959504798365465" lon="9.221882562089569"><ele>235.0</ele><time>2026-04-19T10:54:58Z</time></trkpt><trkpt lat="45.959349195801565" lon="9.221901975729217"><ele>235.0</ele><time>2026-04-19T10:54:59Z</time></trkpt><trkpt lat="45.95919126194609" lon="9.221885273352099"><ele>239.33333333333331</ele><time>2026-04-19T10:55:00Z</time></trkpt><trkpt lat="45.95903201282461" lon="9.221835818364466"><ele>243.66666666666669</ele><time>2026-04-19T10:55:01Z</time></trkpt><trkpt lat="45.95887760515303" lon="9.221776497835346"><ele>248.0</ele><time>2026-04-19T10:55:02Z</time></trkpt><trkpt lat="45.958705735132725" lon="9.221723829913294"><ele>248.0</ele><time>2026-04-19T10:55:03Z</time></trkpt><trkpt lat="45.958385595025675" lon="9.221709955456037"><ele>248.0</ele><time>2026-04-19T10:55:05Z</time></trkpt><trkpt lat="45.9582481809516" lon="9.221673363178114"><ele>249.25</ele><time>2026-04-19T10:55:06Z</time></trkpt><trkpt lat="45.95812211302405" lon="9.221639119574302"><ele>250.5</ele><time>2026-04-19T10:55:07Z</time></trkpt><trkpt lat="45.95800392655353" lon="9.22160624035082"><ele>251.75</ele><time>2026-04-19T10:55:08Z</time></trkpt><trkpt lat="45.9578842360365" lon="9.22156986506783"><ele>253.0</ele><time>2026-04-19T10:55:09Z</time></trkpt><trkpt lat="45.95778516488128" lon="9.221506720670689"><ele>251.75</ele><time>2026-04-19T10:55:10Z</time></trkpt><trkpt lat="45.95770433680288" lon="9.22139485861185"><ele>250.5</ele><time>2026-04-19T10:55:11Z</time></trkpt><trkpt lat="45.957624477956536" lon="9.221236454713024"><ele>249.25</ele><time>2026-04-19T10:55:12Z</time></trkpt><trkpt lat="45.957500953569316" lon="9.221076581594803"><ele>248.0</ele><time>2026-04-19T10:55:13Z</time></trkpt><trkpt lat="45.957360715261466" lon="9.220966403440714"><ele>248.0</ele><time>2026-04-19T10:55:14Z</time></trkpt><trkpt lat="45.95723519568194" lon="9.220793538121818"><ele>248.0</ele><time>2026-04-19T10:55:15Z</time></trkpt><trkpt lat="45.957103047868934" lon="9.220615954644149"><ele>248.0</ele><time>2026-04-19T10:55:16Z</time></trkpt><trkpt lat="45.956988070871866" lon="9.220453675135557"><ele>251.75</ele><time>2026-04-19T10:55:17Z</time></trkpt><trkpt lat="45.95689010081795" lon="9.220306840717518"><ele>255.5</ele><time>2026-04-19T10:55:18Z</time></trkpt><trkpt lat="45.95680236114864" lon="9.220160549994416"><ele>259.25</ele><time>2026-04-19T10:55:19Z</time></trkpt><trkpt lat="45.95673577328932" lon="9.220021841123874"><ele>263.0</ele><time>2026-04-19T10:55:20Z</time></trkpt><trkpt lat="45.956659326054265" lon="9.21985192202201"><ele>259.0</ele><time>2026-04-19T10:55:21Z</time></trkpt><trkpt lat="45.95658865931814" lon="9.21968907536032"><ele>255.0</ele><time>2026-04-19T10:55:22Z</time></trkpt><trkpt lat="45.95652185484303" lon="9.219535129006806"><ele>251.0</ele><time>2026-04-19T10:55:23Z</time></trkpt><trkpt lat="45.956459274206324" lon="9.219390916237414"><ele>247.0</ele><time>2026-04-19T10:55:24Z</time></trkpt><trkpt lat="45.95632998898595" lon="9.219087399730743"><ele>243.0</ele><time>2026-04-19T10:55:26Z</time></trkpt><trkpt lat="45.95626608731231" lon="9.218934065137226"><ele>239.0</ele><time>2026-04-19T10:55:27Z</time></trkpt><trkpt lat="45.95619925679449" lon="9.218799583787074"><ele>235.0</ele><time>2026-04-19T10:55:28Z</time></trkpt><trkpt lat="45.95611122772361" lon="9.218686982445025"><ele>231.0</ele><time>2026-04-19T10:55:29Z</time></trkpt><trkpt lat="45.95603349049628" lon="9.218637080200132"><ele>227.0</ele><time>2026-04-19T10:55:30Z</time></trkpt><trkpt lat="45.95590946083438" lon="9.218579085514234"><ele>232.8</ele><time>2026-04-19T10:55:31Z</time></trkpt><trkpt lat="45.955813876348685" lon="9.21853913299299"><ele>238.6</ele><time>2026-04-19T10:55:32Z</time></trkpt><trkpt lat="45.95573367390575" lon="9.21849651774049"><ele>244.40000000000003</ele><time>2026-04-19T10:55:33Z</time></trkpt><trkpt lat="45.955668762997554" lon="9.218430469301607"><ele>250.20000000000002</ele><time>2026-04-19T10:55:34Z</time></trkpt><trkpt lat="45.95560608370141" lon="9.218320371294256"><ele>256.0</ele><time>2026-04-19T10:55:35Z</time></trkpt><trkpt lat="45.95553011149513" lon="9.218195169016225"><ele>251.60000000000002</ele><time>2026-04-19T10:55:36Z</time></trkpt><trkpt lat="45.95544317748087" lon="9.218081567573662"><ele>247.20000000000002</ele><time>2026-04-19T10:55:37Z</time></trkpt><trkpt lat="45.955383576915544" lon="9.217955915895505"><ele>242.79999999999998</ele><time>2026-04-19T10:55:38Z</time></trkpt><trkpt lat="45.955321366442185" lon="9.217842923059099"><ele>238.39999999999998</ele><time>2026-04-19T10:55:39Z</time></trkpt><trkpt lat="45.95525403269366" lon="9.217728566845155"><ele>234.0</ele><time>2026-04-19T10:55:40Z</time></trkpt><trkpt lat="45.9551971721473" lon="9.217594877577788"><ele>234.0</ele><time>2026-04-19T10:55:41Z</time></trkpt><trkpt lat="45.95514464262471" lon="9.217470136227028"><ele>233.99999999999997</ele><time>2026-04-19T10:55:42Z</time></trkpt><trkpt lat="45.955104896343464" lon="9.217348610110667"><ele>233.99999999999997</ele><time>2026-04-19T10:55:43Z</time></trkpt><trkpt lat="45.95504689409847" lon="9.217253995020613"><ele>234.0</ele><time>2026-04-19T10:55:44Z</time></trkpt><trkpt lat="45.954968000851785" lon="9.217193982671349"><ele>234.0</ele><time>2026-04-19T10:55:45Z</time></trkpt><trkpt lat="45.95476246956747" lon="9.21711967853053"><ele>235.5</ele><time>2026-04-19T10:55:47Z</time></trkpt><trkpt lat="45.95467202896562" lon="9.217021188734906"><ele>237.0</ele><time>2026-04-19T10:55:49Z</time></trkpt><trkpt lat="45.95456723722138" lon="9.216825376015368"><ele>238.5</ele><time>2026-04-19T10:55:50Z</time></trkpt><trkpt lat="45.95445162116298" lon="9.216829453493375"><ele>240.0</ele><time>2026-04-19T10:55:51Z</time></trkpt><trkpt lat="45.95432592989867" lon="9.216851063605958"><ele>240.0</ele><time>2026-04-19T10:55:52Z</time></trkpt><trkpt lat="45.95422668931493" lon="9.216878053004763"><ele>240.0</ele><time>2026-04-19T10:55:53Z</time></trkpt><trkpt lat="45.954138823845476" lon="9.216893582457402"><ele>240.0</ele><time>2026-04-19T10:55:54Z</time></trkpt><trkpt lat="45.9540317413634" lon="9.216889690187937"><ele>240.0</ele><time>2026-04-19T10:55:55Z</time></trkpt><trkpt lat="45.95393347497551" lon="9.216869689759026"><ele>240.0</ele><time>2026-04-19T10:55:56Z</time></trkpt><trkpt lat="45.95383878433657" lon="9.216813582185596"><ele>242.4</ele><time>2026-04-19T10:55:57Z</time></trkpt><trkpt lat="45.953756266564845" lon="9.216740649792959"><ele>244.8</ele><time>2026-04-19T10:55:58Z</time></trkpt><trkpt lat="45.95368701524405" lon="9.21664642829908"><ele>247.2</ele><time>2026-04-19T10:55:59Z</time></trkpt><trkpt lat="45.953654773836995" lon="9.216539143917792"><ele>249.6</ele><time>2026-04-19T10:56:00Z</time></trkpt><trkpt lat="45.95362496488308" lon="9.216414031934644"><ele>252.0</ele><time>2026-04-19T10:56:01Z</time></trkpt><trkpt lat="45.95358669414681" lon="9.21626785770611"><ele>255.0</ele><time>2026-04-19T10:56:02Z</time></trkpt><trkpt lat="45.95352779000769" lon="9.216124209168465"><ele>258.0</ele><time>2026-04-19T10:56:03Z</time></trkpt><trkpt lat="45.95341573064805" lon="9.215996903230522"><ele>261.0</ele><time>2026-04-19T10:56:04Z</time></trkpt><trkpt lat="45.9533362805311" lon="9.215887242796912"><ele>264.0</ele><time>2026-04-19T10:56:05Z</time></trkpt><trkpt lat="45.953265312328526" lon="9.21576234189076"><ele>256.0</ele><time>2026-04-19T10:56:06Z</time></trkpt><trkpt lat="45.95313527387461" lon="9.215475930379398"><ele>248.0</ele><time>2026-04-19T10:56:08Z</time></trkpt><trkpt lat="45.95306991129758" lon="9.215329641321649"><ele>240.0</ele><time>2026-04-19T10:56:09Z</time></trkpt><trkpt lat="45.9529949734065" lon="9.215190999387042"><ele>240.0</ele><time>2026-04-19T10:56:10Z</time></trkpt><trkpt lat="45.95292697963477" lon="9.21507010741052"><ele>240.0</ele><time>2026-04-19T10:56:11Z</time></trkpt><trkpt lat="45.95286015561457" lon="9.214951295246248"><ele>240.0</ele><time>2026-04-19T10:56:11.999Z</time></trkpt><trkpt lat="45.952790247776676" lon="9.214827917182884"><ele>240.0</ele><time>2026-04-19T10:56:12.999Z</time></trkpt><trkpt lat="45.95271775130049" lon="9.21474107719396"><ele>240.0</ele><time>2026-04-19T10:56:13.999Z</time></trkpt><trkpt lat="45.95266553580903" lon="9.214653930625039"><ele>241.25</ele><time>2026-04-19T10:56:14.999Z</time></trkpt><trkpt lat="45.95253065906721" lon="9.214514979453961"><ele>242.5</ele><time>2026-04-19T10:56:21.001Z</time></trkpt><trkpt lat="45.95242863258978" lon="9.214405743909229"><ele>243.75</ele><time>2026-04-19T10:56:22.001Z</time></trkpt><trkpt lat="45.952354243546104" lon="9.214336620809652"><ele>245.0</ele><time>2026-04-19T10:56:23.001Z</time></trkpt><trkpt lat="45.95226730278671" lon="9.214240312065998"><ele>245.0</ele><time>2026-04-19T10:56:24.001Z</time></trkpt><trkpt lat="45.95220022682004" lon="9.214186324617298"><ele>245.0</ele><time>2026-04-19T10:56:25.001Z</time></trkpt><trkpt lat="45.952160809706875" lon="9.214087989925973"><ele>245.0</ele><time>2026-04-19T10:56:26.001Z</time></trkpt><trkpt lat="45.95216301458898" lon="9.213955418798488"><ele>245.0</ele><time>2026-04-19T10:56:27.001Z</time></trkpt><trkpt lat="45.95212352417483" lon="9.213599789377966"><ele>239.0</ele><time>2026-04-19T10:56:29.001Z</time></trkpt><trkpt lat="45.95209702234416" lon="9.213455246004203"><ele>233.0</ele><time>2026-04-19T10:56:30.001Z</time></trkpt><trkpt lat="45.95202869161684" lon="9.213345293224505"><ele>227.0</ele><time>2026-04-19T10:56:31.001Z</time></trkpt><trkpt lat="45.95193854221738" lon="9.213291202494318"><ele>221.0</ele><time>2026-04-19T10:56:32.001Z</time></trkpt><trkpt lat="45.95182424034689" lon="9.21323960767343"><ele>215.0</ele><time>2026-04-19T10:56:33.001Z</time></trkpt><trkpt lat="45.95174027711095" lon="9.213200473382846"><ele>217.8</ele><time>2026-04-19T10:56:34.001Z</time></trkpt><trkpt lat="45.95163735181159" lon="9.213139097015917"><ele>220.6</ele><time>2026-04-19T10:56:35.001Z</time></trkpt><trkpt lat="45.95155982142845" lon="9.213066903792715"><ele>223.39999999999998</ele><time>2026-04-19T10:56:36.001Z</time></trkpt><trkpt lat="45.951497911793446" lon="9.212967115763176"><ele>226.2</ele><time>2026-04-19T10:56:37.001Z</time></trkpt><trkpt lat="45.95143116081999" lon="9.212845611301525"><ele>229.0</ele><time>2026-04-19T10:56:38.001Z</time></trkpt><trkpt lat="45.95136325333219" lon="9.212721738401747"><ele>229.0</ele><time>2026-04-19T10:56:39.001Z</time></trkpt><trkpt lat="45.95129384977191" lon="9.212596987016079"><ele>229.0</ele><time>2026-04-19T10:56:40.001Z</time></trkpt><trkpt lat="45.951224602333795" lon="9.212473916552653"><ele>229.0</ele><time>2026-04-19T10:56:41.001Z</time></trkpt><trkpt lat="45.95114879840651" lon="9.212339444017884"><ele>229.0</ele><time>2026-04-19T10:56:42.001Z</time></trkpt><trkpt lat="45.95107965761891" lon="9.212217801589176"><ele>229.66666666666666</ele><time>2026-04-19T10:56:43.001Z</time></trkpt><trkpt lat="45.9510206271426" lon="9.212113229882103"><ele>230.33333333333331</ele><time>2026-04-19T10:56:44Z</time></trkpt><trkpt lat="45.950959541074106" lon="9.212033937600767"><ele>231.0</ele><time>2026-04-19T10:56:45Z</time></trkpt><trkpt lat="45.95091614291929" lon="9.211933974336656"><ele>231.66666666666669</ele><time>2026-04-19T10:56:46Z</time></trkpt><trkpt lat="45.9508582912628" lon="9.211860304575639"><ele>232.33333333333334</ele><time>2026-04-19T10:56:47Z</time></trkpt><trkpt lat="45.95077791885155" lon="9.211807248566862"><ele>233.0</ele><time>2026-04-19T10:56:48Z</time></trkpt><trkpt lat="45.950575608200545" lon="9.21177677340586"><ele>233.0</ele><time>2026-04-19T10:56:50Z</time></trkpt><trkpt lat="45.95047241211698" lon="9.211755881764148"><ele>233.0</ele><time>2026-04-19T10:56:51Z</time></trkpt><trkpt lat="45.95038900984986" lon="9.211719180345897"><ele>233.0</ele><time>2026-04-19T10:56:52Z</time></trkpt><trkpt lat="45.95030860465071" lon="9.211675486371941"><ele>233.0</ele><time>2026-04-19T10:56:53Z</time></trkpt><trkpt lat="45.95023027810066" lon="9.211632075931181"><ele>233.0</ele><time>2026-04-19T10:56:54Z</time></trkpt><trkpt lat="45.950141513758446" lon="9.211590333626848"><ele>235.8</ele><time>2026-04-19T10:56:55Z</time></trkpt><trkpt lat="45.95004096855099" lon="9.211561072409864"><ele>238.60000000000002</ele><time>2026-04-19T10:56:56Z</time></trkpt><trkpt lat="45.94994216485256" lon="9.211542651902633"><ele>241.39999999999998</ele><time>2026-04-19T10:56:57Z</time></trkpt><trkpt lat="45.94984090272721" lon="9.21152584100761"><ele>244.2</ele><time>2026-04-19T10:56:58Z</time></trkpt><trkpt lat="45.94974466274726" lon="9.211509863862043"><ele>247.0</ele><time>2026-04-19T10:56:59Z</time></trkpt><trkpt lat="45.94965122621862" lon="9.211494352126058"><ele>241.0</ele><time>2026-04-19T10:57:00Z</time></trkpt><trkpt lat="45.949567772410816" lon="9.211480497653454"><ele>235.0</ele><time>2026-04-19T10:57:01Z</time></trkpt><trkpt lat="45.94949355678234" lon="9.211479903937946"><ele>229.0</ele><time>2026-04-19T10:57:02Z</time></trkpt><trkpt lat="45.9493804737283" lon="9.211458408643086"><ele>223.0</ele><time>2026-04-19T10:57:04Z</time></trkpt><trkpt lat="45.949305047480756" lon="9.21134967298858"><ele>217.0</ele><time>2026-04-19T10:57:06Z</time></trkpt><trkpt lat="45.949287000282816" lon="9.211175048825378"><ele>217.0</ele><time>2026-04-19T10:57:08Z</time></trkpt><trkpt lat="45.949316437962075" lon="9.211094527525372"><ele>217.0</ele><time>2026-04-19T10:57:09Z</time></trkpt><trkpt lat="45.94937941018899" lon="9.21090484789098"><ele>217.0</ele><time>2026-04-19T10:57:11Z</time></trkpt><trkpt lat="45.94939520476023" lon="9.210804005850852"><ele>217.0</ele><time>2026-04-19T10:57:12Z</time></trkpt><trkpt lat="45.949397126936994" lon="9.21069432734682"><ele>217.0</ele><time>2026-04-19T10:57:13Z</time></trkpt><trkpt lat="45.94937633627791" lon="9.210552525970579"><ele>215.33333333333331</ele><time>2026-04-19T10:57:14Z</time></trkpt><trkpt lat="45.949347306089635" lon="9.210416724841036"><ele>213.66666666666666</ele><time>2026-04-19T10:57:15Z</time></trkpt><trkpt lat="45.949316473581014" lon="9.21029900881801"><ele>212.0</ele><time>2026-04-19T10:57:16Z</time></trkpt><trkpt lat="45.94928358482907" lon="9.210179368886733"><ele>210.33333333333331</ele><time>2026-04-19T10:57:17Z</time></trkpt><trkpt lat="45.9492534717784" lon="9.210070385610448"><ele>208.66666666666666</ele><time>2026-04-19T10:57:18Z</time></trkpt><trkpt lat="45.94922414231753" lon="9.209964238255086"><ele>207.0</ele><time>2026-04-19T10:57:19Z</time></trkpt><trkpt lat="45.949196357122084" lon="9.209860904340097"><ele>211.0</ele><time>2026-04-19T10:57:20Z</time></trkpt><trkpt lat="45.94916626676715" lon="9.209739525532884"><ele>215.0</ele><time>2026-04-19T10:57:21Z</time></trkpt><trkpt lat="45.949148361792645" lon="9.209615296484749"><ele>219.0</ele><time>2026-04-19T10:57:22Z</time></trkpt><trkpt lat="45.949157784474956" lon="9.209504250095712"><ele>223.0</ele><time>2026-04-19T10:57:23Z</time></trkpt><trkpt lat="45.94917060347938" lon="9.20939635597962"><ele>227.0</ele><time>2026-04-19T10:57:24Z</time></trkpt><trkpt lat="45.94916557688506" lon="9.209297535686403"><ele>231.0</ele><time>2026-04-19T10:57:25Z</time></trkpt><trkpt lat="45.949127701754136" lon="9.209122415552876"><ele>231.0</ele><time>2026-04-19T10:57:27Z</time></trkpt><trkpt lat="45.94909518278212" lon="9.209021348111227"><ele>231.00000000000003</ele><time>2026-04-19T10:57:28Z</time></trkpt><trkpt lat="45.94905983386538" lon="9.208907523893714"><ele>231.00000000000003</ele><time>2026-04-19T10:57:29Z</time></trkpt><trkpt lat="45.94903623522454" lon="9.208801492577967"><ele>231.0</ele><time>2026-04-19T10:57:30Z</time></trkpt><trkpt lat="45.9490783535028" lon="9.208573820017413"><ele>231.0</ele><time>2026-04-19T10:57:32Z</time></trkpt><trkpt lat="45.949128955299386" lon="9.208448864067039"><ele>230.4</ele><time>2026-04-19T10:57:33Z</time></trkpt><trkpt lat="45.949177089537805" lon="9.208327589174328"><ele>229.8</ele><time>2026-04-19T10:57:34Z</time></trkpt><trkpt lat="45.94919303518689" lon="9.208164572097285"><ele>229.20000000000002</ele><time>2026-04-19T10:57:35Z</time></trkpt><trkpt lat="45.94920610540983" lon="9.208023579709508"><ele>228.60000000000002</ele><time>2026-04-19T10:57:36Z</time></trkpt><trkpt lat="45.94922179092335" lon="9.20787795881662"><ele>228.0</ele><time>2026-04-19T10:57:37Z</time></trkpt><trkpt lat="45.94921439988754" lon="9.207726765570332"><ele>227.0</ele><time>2026-04-19T10:57:38Z</time></trkpt><trkpt lat="45.9491699639374" lon="9.207600392272312"><ele>226.0</ele><time>2026-04-19T10:57:39Z</time></trkpt><trkpt lat="45.949112246987134" lon="9.207485483644652"><ele>225.0</ele><time>2026-04-19T10:57:40Z</time></trkpt><trkpt lat="45.949026276470484" lon="9.207397444714214"><ele>224.0</ele><time>2026-04-19T10:57:41Z</time></trkpt><trkpt lat="45.948920970723265" lon="9.207317307629106"><ele>223.0</ele><time>2026-04-19T10:57:42Z</time></trkpt><trkpt lat="45.94880957866048" lon="9.207238841039185"><ele>221.60000000000002</ele><time>2026-04-19T10:57:43Z</time></trkpt><trkpt lat="45.948711196820234" lon="9.207158400276382"><ele>220.20000000000002</ele><time>2026-04-19T10:57:44Z</time></trkpt><trkpt lat="45.94860811756418" lon="9.207120776659021"><ele>218.8</ele><time>2026-04-19T10:57:45Z</time></trkpt><trkpt lat="45.94850007616599" lon="9.207086680568155"><ele>217.4</ele><time>2026-04-19T10:57:46Z</time></trkpt><trkpt lat="45.94839359745306" lon="9.207054059052874"><ele>216.0</ele><time>2026-04-19T10:57:47Z</time></trkpt><trkpt lat="45.948298843008686" lon="9.20701126454168"><ele>216.0</ele><time>2026-04-19T10:57:48Z</time></trkpt><trkpt lat="45.94821258417273" lon="9.206936941281628"><ele>216.00000000000003</ele><time>2026-04-19T10:57:48.999Z</time></trkpt><trkpt lat="45.948162250658655" lon="9.206847097902028"><ele>216.00000000000003</ele><time>2026-04-19T10:57:49.999Z</time></trkpt><trkpt lat="45.94813327217055" lon="9.206720205412136"><ele>216.0</ele><time>2026-04-19T10:57:50.999Z</time></trkpt><trkpt lat="45.94817387279809" lon="9.206490478349812"><ele>216.0</ele><time>2026-04-19T10:57:52.999Z</time></trkpt><trkpt lat="45.94820816483347" lon="9.206342628154756"><ele>217.25</ele><time>2026-04-19T10:57:53.999Z</time></trkpt><trkpt lat="45.948246032521034" lon="9.206160435428156"><ele>218.5</ele><time>2026-04-19T10:57:54.999Z</time></trkpt><trkpt lat="45.94828126697995" lon="9.205988280217834"><ele>219.75</ele><time>2026-04-19T10:57:55.999Z</time></trkpt><trkpt lat="45.94832051636886" lon="9.205796508097924"><ele>221.0</ele><time>2026-04-19T10:57:56.999Z</time></trkpt><trkpt lat="45.94835561465993" lon="9.20561786831475"><ele>216.75</ele><time>2026-04-19T10:57:57.999Z</time></trkpt><trkpt lat="45.9483876973395" lon="9.205450293947637"><ele>212.5</ele><time>2026-04-19T10:57:58.999Z</time></trkpt><trkpt lat="45.9484123999419" lon="9.205260505238218"><ele>208.25</ele><time>2026-04-19T10:57:59.999Z</time></trkpt><trkpt lat="45.9484911146454" lon="9.20509876655332"><ele>204.0</ele><time>2026-04-19T10:58:00.999Z</time></trkpt><trkpt lat="45.948548513406294" lon="9.20494150846476"><ele>203.2</ele><time>2026-04-19T10:58:01.999Z</time></trkpt><trkpt lat="45.94860254795338" lon="9.204793467422714"><ele>202.39999999999998</ele><time>2026-04-19T10:58:02.999Z</time></trkpt><trkpt lat="45.948631363740304" lon="9.204637749284334"><ele>201.6</ele><time>2026-04-19T10:58:03.999Z</time></trkpt><trkpt lat="45.94863578852211" lon="9.204504053681973"><ele>200.8</ele><time>2026-04-19T10:58:04.999Z</time></trkpt><trkpt lat="45.948617729006884" lon="9.204348737145025"><ele>200.0</ele><time>2026-04-19T10:58:05.999Z</time></trkpt><trkpt lat="45.94853915819662" lon="9.204222278120321"><ele>200.0</ele><time>2026-04-19T10:58:06.999Z</time></trkpt><trkpt lat="45.94842751314472" lon="9.204087770753826"><ele>200.0</ele><time>2026-04-19T10:58:07.999Z</time></trkpt><trkpt lat="45.94832903854071" lon="9.203926480128358"><ele>200.0</ele><time>2026-04-19T10:58:08.999Z</time></trkpt><trkpt lat="45.948218037431744" lon="9.203799592571697"><ele>200.0</ele><time>2026-04-19T10:58:09.999Z</time></trkpt><trkpt lat="45.948067676553656" lon="9.203649452626172"><ele>201.0</ele><time>2026-04-19T10:58:10.999Z</time></trkpt><trkpt lat="45.947912578611216" lon="9.203521114179079"><ele>202.0</ele><time>2026-04-19T10:58:11.999Z</time></trkpt><trkpt lat="45.947633674630346" lon="9.203226612853038"><ele>202.5</ele><time>2026-04-19T10:58:13.999Z</time></trkpt><trkpt lat="45.9475138252436" lon="9.203102259827888"><ele>203.0</ele><time>2026-04-19T10:58:14.999Z</time></trkpt><trkpt lat="45.94739793063407" lon="9.202982010197845"><ele>203.5</ele><time>2026-04-19T10:58:15.999Z</time></trkpt><trkpt lat="45.94727397391989" lon="9.202882134631082"><ele>204.0</ele><time>2026-04-19T10:58:16.999Z</time></trkpt><trkpt lat="45.94717104826626" lon="9.202742525051569"><ele>204.0</ele><time>2026-04-19T10:58:17.999Z</time></trkpt><trkpt lat="45.94707889798" lon="9.202625679961496"><ele>204.0</ele><time>2026-04-19T10:58:18.999Z</time></trkpt><trkpt lat="45.94701038321164" lon="9.202494647782173"><ele>204.0</ele><time>2026-04-19T10:58:19.999Z</time></trkpt><trkpt lat="45.94695293008146" lon="9.202349373592323"><ele>204.0</ele><time>2026-04-19T10:58:20.999Z</time></trkpt><trkpt lat="45.946904886694526" lon="9.202196720077653"><ele>204.25</ele><time>2026-04-19T10:58:21.999Z</time></trkpt><trkpt lat="45.94685793204933" lon="9.202029389754799"><ele>204.5</ele><time>2026-04-19T10:58:22.999Z</time></trkpt><trkpt lat="45.94680103477834" lon="9.201856750797381"><ele>204.75</ele><time>2026-04-19T10:58:23.999Z</time></trkpt><trkpt lat="45.94676029423294" lon="9.201669132785707"><ele>205.0</ele><time>2026-04-19T10:58:25.001Z</time></trkpt><trkpt lat="45.9467059811816" lon="9.201483659057445"><ele>205.0</ele><time>2026-04-19T10:58:26.001Z</time></trkpt><trkpt lat="45.946657143298275" lon="9.201292461306977"><ele>205.0</ele><time>2026-04-19T10:58:27.001Z</time></trkpt><trkpt lat="45.94663819416645" lon="9.201086584132579"><ele>205.0</ele><time>2026-04-19T10:58:28.001Z</time></trkpt><trkpt lat="45.94658165493784" lon="9.200892762849953"><ele>205.0</ele><time>2026-04-19T10:58:29.001Z</time></trkpt><trkpt lat="45.94654589386176" lon="9.200690890906204"><ele>205.0</ele><time>2026-04-19T10:58:30.001Z</time></trkpt><trkpt lat="45.946498940176674" lon="9.20050306997261"><ele>205.0</ele><time>2026-04-19T10:58:31.001Z</time></trkpt><trkpt lat="45.94645382612734" lon="9.200324164130167"><ele>205.0</ele><time>2026-04-19T10:58:32.001Z</time></trkpt><trkpt lat="45.94643404699032" lon="9.200119509620144"><ele>205.0</ele><time>2026-04-19T10:58:33.001Z</time></trkpt><trkpt lat="45.946385424123406" lon="9.19969465675807"><ele>205.0</ele><time>2026-04-19T10:58:35.001Z</time></trkpt><trkpt lat="45.946368708262675" lon="9.199469785866077"><ele>205.0</ele><time>2026-04-19T10:58:36.001Z</time></trkpt><trkpt lat="45.94635677130896" lon="9.19926165753425"><ele>205.0</ele><time>2026-04-19T10:58:37.001Z</time></trkpt><trkpt lat="45.9463463322436" lon="9.199075727316368"><ele>205.0</ele><time>2026-04-19T10:58:38.001Z</time></trkpt><trkpt lat="45.94633853777682" lon="9.198892886779657"><ele>204.75</ele><time>2026-04-19T10:58:39.001Z</time></trkpt><trkpt lat="45.94633761772173" lon="9.19870880944728"><ele>204.5</ele><time>2026-04-19T10:58:40.001Z</time></trkpt><trkpt lat="45.94634065317573" lon="9.198525940356284"><ele>204.25</ele><time>2026-04-19T10:58:41.001Z</time></trkpt><trkpt lat="45.94634521866114" lon="9.198370116188515"><ele>204.0</ele><time>2026-04-19T10:58:42Z</time></trkpt><trkpt lat="45.946353105047066" lon="9.19821917531277"><ele>205.0</ele><time>2026-04-19T10:58:43Z</time></trkpt><trkpt lat="45.946373054360585" lon="9.198082378181029"><ele>206.0</ele><time>2026-04-19T10:58:44Z</time></trkpt><trkpt lat="45.946377872688274" lon="9.197922213708281"><ele>207.0</ele><time>2026-04-19T10:58:45Z</time></trkpt><trkpt lat="45.94640636459681" lon="9.197730161687613"><ele>208.0</ele><time>2026-04-19T10:58:46Z</time></trkpt><trkpt lat="45.94643502504993" lon="9.197559628656265"><ele>208.0</ele><time>2026-04-19T10:58:47Z</time></trkpt><trkpt lat="45.94645162093915" lon="9.19740030677172"><ele>208.0</ele><time>2026-04-19T10:58:48Z</time></trkpt><trkpt lat="45.9464702584489" lon="9.197244394755643"><ele>208.0</ele><time>2026-04-19T10:58:49Z</time></trkpt><trkpt lat="45.94648835250092" lon="9.197080885162281"><ele>208.0</ele><time>2026-04-19T10:58:50Z</time></trkpt><trkpt lat="45.94649929883794" lon="9.196923151672276"><ele>208.0</ele><time>2026-04-19T10:58:51Z</time></trkpt><trkpt lat="45.94651079198458" lon="9.196779274192497"><ele>208.2</ele><time>2026-04-19T10:58:52Z</time></trkpt><trkpt lat="45.946512528025046" lon="9.196646578887348"><ele>208.4</ele><time>2026-04-19T10:58:53Z</time></trkpt><trkpt lat="45.94649547295635" lon="9.19653426989873"><ele>208.6</ele><time>2026-04-19T10:58:54Z</time></trkpt><trkpt lat="45.9464129324658" lon="9.196311289052513"><ele>208.79999999999998</ele><time>2026-04-19T10:58:56Z</time></trkpt><trkpt lat="45.946362030034166" lon="9.196209749075582"><ele>209.0</ele><time>2026-04-19T10:58:57Z</time></trkpt><trkpt lat="45.946340370066444" lon="9.196104277092253"><ele>209.00000000000003</ele><time>2026-04-19T10:58:58Z</time></trkpt><trkpt lat="45.94632254893756" lon="9.196008946688366"><ele>209.0</ele><time>2026-04-19T10:58:59Z</time></trkpt><trkpt lat="45.94633790211198" lon="9.19590796954004"><ele>209.0</ele><time>2026-04-19T10:59:00Z</time></trkpt><trkpt lat="45.946344916098774" lon="9.195796076900267"><ele>209.0</ele><time>2026-04-19T10:59:01Z</time></trkpt><trkpt lat="45.9463596068778" lon="9.195683878993917"><ele>209.00000000000003</ele><time>2026-04-19T10:59:02Z</time></trkpt><trkpt lat="45.946356812122815" lon="9.195561405767132"><ele>209.0</ele><time>2026-04-19T10:59:03Z</time></trkpt><trkpt lat="45.94635225544786" lon="9.195451215579805"><ele>209.00000000000003</ele><time>2026-04-19T10:59:04Z</time></trkpt><trkpt lat="45.946382507223376" lon="9.195351093454413"><ele>209.0</ele><time>2026-04-19T10:59:05Z</time></trkpt><trkpt lat="45.946390863466384" lon="9.19523008165193"><ele>209.0</ele><time>2026-04-19T10:59:06Z</time></trkpt><trkpt lat="45.946398854075625" lon="9.195114364825397"><ele>209.0</ele><time>2026-04-19T10:59:07Z</time></trkpt><trkpt lat="45.946406379239825" lon="9.195005388445308"><ele>209.00000000000003</ele><time>2026-04-19T10:59:08Z</time></trkpt><trkpt lat="45.946414249195826" lon="9.194891418947593"><ele>209.0</ele><time>2026-04-19T10:59:09Z</time></trkpt><trkpt lat="45.94642209131231" lon="9.194777851771555"><ele>208.50000000000003</ele><time>2026-04-19T10:59:10Z</time></trkpt><trkpt lat="45.94643150587456" lon="9.194644102472969"><ele>208.0</ele><time>2026-04-19T10:59:11Z</time></trkpt><trkpt lat="45.9464416082786" lon="9.19451101229978"><ele>207.5</ele><time>2026-04-19T10:59:12Z</time></trkpt><trkpt lat="45.9464496873118" lon="9.19438983883096"><ele>207.0</ele><time>2026-04-19T10:59:13Z</time></trkpt><trkpt lat="45.946452234898835" lon="9.194279564949102"><ele>206.50000000000003</ele><time>2026-04-19T10:59:14Z</time></trkpt><trkpt lat="45.94645005668169" lon="9.1941872881527"><ele>206.0</ele><time>2026-04-19T10:59:15Z</time></trkpt><trkpt lat="45.946448087335725" lon="9.193956925527175"><ele>205.4</ele><time>2026-04-19T10:59:17Z</time></trkpt><trkpt lat="45.9464457323934" lon="9.193826925971331"><ele>204.8</ele><time>2026-04-19T10:59:18Z</time></trkpt><trkpt lat="45.94641818946161" lon="9.193696371980815"><ele>204.20000000000002</ele><time>2026-04-19T10:59:19Z</time></trkpt><trkpt lat="45.94639807687092" lon="9.1935606474059"><ele>203.60000000000002</ele><time>2026-04-19T10:59:20Z</time></trkpt><trkpt lat="45.94636947832551" lon="9.193418997240684"><ele>203.0</ele><time>2026-04-19T10:59:21Z</time></trkpt><trkpt lat="45.946322091761466" lon="9.193284777184344"><ele>202.2</ele><time>2026-04-19T10:59:22Z</time></trkpt><trkpt lat="45.946257174661206" lon="9.193168254749423"><ele>201.4</ele><time>2026-04-19T10:59:23Z</time></trkpt><trkpt lat="45.94619376299462" lon="9.193062318120527"><ele>200.6</ele><time>2026-04-19T10:59:24Z</time></trkpt><trkpt lat="45.94615128754314" lon="9.192942884611401"><ele>199.79999999999998</ele><time>2026-04-19T10:59:25Z</time></trkpt><trkpt lat="45.946067529547854" lon="9.192853003110441"><ele>199.0</ele><time>2026-04-19T10:59:26Z</time></trkpt><trkpt lat="45.94599555713922" lon="9.192760593111425"><ele>199.0</ele><time>2026-04-19T10:59:27Z</time></trkpt><trkpt lat="45.945936880743" lon="9.192637557776912"><ele>199.0</ele><time>2026-04-19T10:59:28Z</time></trkpt><trkpt lat="45.94586909134085" lon="9.192526110801763"><ele>199.0</ele><time>2026-04-19T10:59:29Z</time></trkpt><trkpt lat="45.94579640897711" lon="9.19239574845388"><ele>199.0</ele><time>2026-04-19T10:59:30Z</time></trkpt><trkpt lat="45.945748470558456" lon="9.192268141343417"><ele>199.0</ele><time>2026-04-19T10:59:31Z</time></trkpt><trkpt lat="45.945698646841166" lon="9.192125360002962"><ele>201.75</ele><time>2026-04-19T10:59:32Z</time></trkpt><trkpt lat="45.9456649015189" lon="9.191981713254133"><ele>204.5</ele><time>2026-04-19T10:59:33Z</time></trkpt><trkpt lat="45.94563475693435" lon="9.191787800988182"><ele>207.25</ele><time>2026-04-19T10:59:34Z</time></trkpt><trkpt lat="45.94561405928913" lon="9.191645529433295"><ele>210.0</ele><time>2026-04-19T10:59:34.999Z</time></trkpt><trkpt lat="45.945593583237155" lon="9.191494259368957"><ele>210.0</ele><time>2026-04-19T10:59:35.999Z</time></trkpt><trkpt lat="45.94556001040267" lon="9.191191534297829"><ele>210.0</ele><time>2026-04-19T10:59:37.999Z</time></trkpt><trkpt lat="45.94551735552359" lon="9.191037519261648"><ele>210.0</ele><time>2026-04-19T10:59:38.999Z</time></trkpt><trkpt lat="45.94545345444444" lon="9.190915525999397"><ele>210.0</ele><time>2026-04-19T10:59:39.999Z</time></trkpt><trkpt lat="45.945436049472725" lon="9.19078883100533"><ele>210.2</ele><time>2026-04-19T10:59:40.999Z</time></trkpt><trkpt lat="45.945406927726346" lon="9.190657257952548"><ele>210.4</ele><time>2026-04-19T10:59:41.999Z</time></trkpt><trkpt lat="45.94537805487023" lon="9.19048883828661"><ele>210.60000000000002</ele><time>2026-04-19T10:59:42.999Z</time></trkpt><trkpt lat="45.94535991347163" lon="9.19035044711628"><ele>210.8</ele><time>2026-04-19T10:59:43.999Z</time></trkpt><trkpt lat="45.94534624085735" lon="9.190205939942881"><ele>211.0</ele><time>2026-04-19T10:59:44.999Z</time></trkpt><trkpt lat="45.94533707518363" lon="9.190060041806246"><ele>211.0</ele><time>2026-04-19T10:59:45.999Z</time></trkpt><trkpt lat="45.94532991410065" lon="9.189920446244207"><ele>211.0</ele><time>2026-04-19T10:59:46.999Z</time></trkpt><trkpt lat="45.945325112038" lon="9.189777243165164"><ele>211.0</ele><time>2026-04-19T10:59:47.999Z</time></trkpt><trkpt lat="45.94532146470625" lon="9.189631237830636"><ele>211.0</ele><time>2026-04-19T10:59:48.999Z</time></trkpt><trkpt lat="45.94531188222027" lon="9.189488990690217"><ele>211.0</ele><time>2026-04-19T10:59:49.999Z</time></trkpt><trkpt lat="45.9452694654625" lon="9.189343557675954"><ele>209.60000000000002</ele><time>2026-04-19T10:59:50.999Z</time></trkpt><trkpt lat="45.94522868445599" lon="9.189208575383175"><ele>208.2</ele><time>2026-04-19T10:59:51.999Z</time></trkpt><trkpt lat="45.9451972344697" lon="9.189072714548402"><ele>206.8</ele><time>2026-04-19T10:59:52.999Z</time></trkpt><trkpt lat="45.94515901164682" lon="9.188938895304622"><ele>205.39999999999998</ele><time>2026-04-19T10:59:53.999Z</time></trkpt><trkpt lat="45.945120618130666" lon="9.188796388596481"><ele>204.0</ele><time>2026-04-19T10:59:54.999Z</time></trkpt><trkpt lat="45.945096486209906" lon="9.188645196934035"><ele>203.75</ele><time>2026-04-19T10:59:55.999Z</time></trkpt><trkpt lat="45.945084096473906" lon="9.188500818086975"><ele>203.5</ele><time>2026-04-19T10:59:56.999Z</time></trkpt><trkpt lat="45.94508237432658" lon="9.188203025415588"><ele>203.25</ele><time>2026-04-19T10:59:58.999Z</time></trkpt><trkpt lat="45.94509728858043" lon="9.18805835474507"><ele>203.0</ele><time>2026-04-19T10:59:59.999Z</time></trkpt><trkpt lat="45.945115486911334" lon="9.187904966656099"><ele>203.0</ele><time>2026-04-19T11:00:00.999Z</time></trkpt><trkpt lat="45.94513774641567" lon="9.187757812612144"><ele>203.0</ele><time>2026-04-19T11:00:01.999Z</time></trkpt><trkpt lat="45.94516182452625" lon="9.187600224780683"><ele>203.0</ele><time>2026-04-19T11:00:02.999Z</time></trkpt><trkpt lat="45.945185321808175" lon="9.187448370618874"><ele>203.0</ele><time>2026-04-19T11:00:03.999Z</time></trkpt><trkpt lat="45.94520890923666" lon="9.18729593620595"><ele>203.0</ele><time>2026-04-19T11:00:04.999Z</time></trkpt><trkpt lat="45.94523127403172" lon="9.18716035923795"><ele>203.4</ele><time>2026-04-19T11:00:05.999Z</time></trkpt><trkpt lat="45.94524337539663" lon="9.187011673441988"><ele>203.8</ele><time>2026-04-19T11:00:06.999Z</time></trkpt><trkpt lat="45.945256310886016" lon="9.186850472144197"><ele>204.2</ele><time>2026-04-19T11:00:07.999Z</time></trkpt><trkpt lat="45.94527146416568" lon="9.186703414713334"><ele>204.6</ele><time>2026-04-19T11:00:08.999Z</time></trkpt><trkpt lat="45.9452733051112" lon="9.18654008842327"><ele>205.0</ele><time>2026-04-19T11:00:09.999Z</time></trkpt><trkpt lat="45.94525722268941" lon="9.186378719854124"><ele>205.2</ele><time>2026-04-19T11:00:10.999Z</time></trkpt><trkpt lat="45.94523637464723" lon="9.186227919537542"><ele>205.4</ele><time>2026-04-19T11:00:11.999Z</time></trkpt><trkpt lat="45.945202037773434" lon="9.186096894654002"><ele>205.60000000000002</ele><time>2026-04-19T11:00:12.999Z</time></trkpt><trkpt lat="45.94517657289178" lon="9.185949050982574"><ele>205.8</ele><time>2026-04-19T11:00:13.999Z</time></trkpt><trkpt lat="45.94515792198441" lon="9.185796367221231"><ele>206.0</ele><time>2026-04-19T11:00:14.999Z</time></trkpt><trkpt lat="45.945132409356624" lon="9.185637555966526"><ele>206.0</ele><time>2026-04-19T11:00:15.999Z</time></trkpt><trkpt lat="45.94512030782689" lon="9.185465420013294"><ele>206.0</ele><time>2026-04-19T11:00:16.999Z</time></trkpt><trkpt lat="45.9451116204794" lon="9.185310590272335"><ele>206.0</ele><time>2026-04-19T11:00:17.999Z</time></trkpt><trkpt lat="45.94511357605775" lon="9.185038984200874"><ele>206.0</ele><time>2026-04-19T11:00:19.999Z</time></trkpt><trkpt lat="45.945106558222086" lon="9.184893717958738"><ele>205.83333333333334</ele><time>2026-04-19T11:00:20.999Z</time></trkpt><trkpt lat="45.94510063202578" lon="9.184767223497804"><ele>205.66666666666669</ele><time>2026-04-19T11:00:21.999Z</time></trkpt><trkpt lat="45.94509458405314" lon="9.18463708328837"><ele>205.5</ele><time>2026-04-19T11:00:22.999Z</time></trkpt><trkpt lat="45.94508805208208" lon="9.184503631507605"><ele>205.33333333333331</ele><time>2026-04-19T11:00:23.999Z</time></trkpt><trkpt lat="45.94508312882984" lon="9.184408130045233"><ele>205.16666666666666</ele><time>2026-04-19T11:00:24.999Z</time></trkpt><trkpt lat="45.94507735784683" lon="9.184309713441303"><ele>205.0</ele><time>2026-04-19T11:00:25.999Z</time></trkpt><trkpt lat="45.945067372172254" lon="9.18415222936151"><ele>204.49999999999997</ele><time>2026-04-19T11:00:27.999Z</time></trkpt><trkpt lat="45.94506159587838" lon="9.183999651045298"><ele>204.0</ele><time>2026-04-19T11:00:29.999Z</time></trkpt><trkpt lat="45.94506344355883" lon="9.183899244791244"><ele>203.5</ele><time>2026-04-19T11:00:31Z</time></trkpt><trkpt lat="45.945066969303255" lon="9.183787962800569"><ele>203.0</ele><time>2026-04-19T11:00:32Z</time></trkpt><trkpt lat="45.94508480034011" lon="9.183663214387177"><ele>202.49999999999997</ele><time>2026-04-19T11:00:33Z</time></trkpt><trkpt lat="45.94509580065584" lon="9.183523837162753"><ele>202.0</ele><time>2026-04-19T11:00:34Z</time></trkpt><trkpt lat="45.94509794356243" lon="9.183373031396494"><ele>202.0</ele><time>2026-04-19T11:00:35Z</time></trkpt><trkpt lat="45.945093839604944" lon="9.183235246190339"><ele>202.0</ele><time>2026-04-19T11:00:36Z</time></trkpt><trkpt lat="45.945048726379596" lon="9.183106125642698"><ele>202.0</ele><time>2026-04-19T11:00:37Z</time></trkpt><trkpt lat="45.94504553153462" lon="9.182963586424266"><ele>202.0</ele><time>2026-04-19T11:00:38Z</time></trkpt><trkpt lat="45.94503726053147" lon="9.182815267136533"><ele>202.0</ele><time>2026-04-19T11:00:39Z</time></trkpt><trkpt lat="45.945012291787876" lon="9.182522795807316"><ele>205.0</ele><time>2026-04-19T11:00:41Z</time></trkpt><trkpt lat="45.944987260440726" lon="9.182388331186086"><ele>208.0</ele><time>2026-04-19T11:00:42Z</time></trkpt><trkpt lat="45.94494446672368" lon="9.182266241824614"><ele>211.0</ele><time>2026-04-19T11:00:43Z</time></trkpt><trkpt lat="45.944923203993895" lon="9.182107950936505"><ele>214.0</ele><time>2026-04-19T11:00:44Z</time></trkpt><trkpt lat="45.9448628313982" lon="9.181984913090458"><ele>217.0</ele><time>2026-04-19T11:00:45Z</time></trkpt><trkpt lat="45.94480929856738" lon="9.18187056820324"><ele>217.0</ele><time>2026-04-19T11:00:46Z</time></trkpt><trkpt lat="45.94475279854053" lon="9.18174988554965"><ele>217.0</ele><time>2026-04-19T11:00:47Z</time></trkpt><trkpt lat="45.94469657025879" lon="9.18163364727337"><ele>217.0</ele><time>2026-04-19T11:00:48Z</time></trkpt><trkpt lat="45.94464096238517" lon="9.181521819354645"><ele>217.0</ele><time>2026-04-19T11:00:49Z</time></trkpt><trkpt lat="45.94458156264772" lon="9.181424968105183"><ele>217.0</ele><time>2026-04-19T11:00:50Z</time></trkpt><trkpt lat="45.94452010926252" lon="9.181354080379334"><ele>215.6</ele><time>2026-04-19T11:00:51Z</time></trkpt><trkpt lat="45.944458236589725" lon="9.181297634909022"><ele>214.2</ele><time>2026-04-19T11:00:52Z</time></trkpt><trkpt lat="45.94439831828315" lon="9.181214355418119"><ele>212.8</ele><time>2026-04-19T11:00:53Z</time></trkpt><trkpt lat="45.94432231635199" lon="9.181125071108461"><ele>211.4</ele><time>2026-04-19T11:00:54Z</time></trkpt><trkpt lat="45.94424953300996" lon="9.181018428312285"><ele>210.0</ele><time>2026-04-19T11:00:55Z</time></trkpt><trkpt lat="45.94418906934957" lon="9.180896604584847"><ele>211.6</ele><time>2026-04-19T11:00:56Z</time></trkpt><trkpt lat="45.944130015848266" lon="9.180750791838642"><ele>213.2</ele><time>2026-04-19T11:00:57Z</time></trkpt><trkpt lat="45.94407644373874" lon="9.180601907769296"><ele>214.8</ele><time>2026-04-19T11:00:58Z</time></trkpt><trkpt lat="45.94403557411408" lon="9.180466477601405"><ele>216.4</ele><time>2026-04-19T11:00:59Z</time></trkpt><trkpt lat="45.94399767293919" lon="9.180324444177872"><ele>218.0</ele><time>2026-04-19T11:01:00Z</time></trkpt><trkpt lat="45.94392498136218" lon="9.180004219698436"><ele>216.8</ele><time>2026-04-19T11:01:02Z</time></trkpt><trkpt lat="45.94388976866026" lon="9.179834111982279"><ele>215.60000000000002</ele><time>2026-04-19T11:01:03Z</time></trkpt><trkpt lat="45.94386402081949" lon="9.179705766359477"><ele>214.39999999999998</ele><time>2026-04-19T11:01:04Z</time></trkpt><trkpt lat="45.94385627435969" lon="9.179565190681371"><ele>213.2</ele><time>2026-04-19T11:01:05Z</time></trkpt><trkpt lat="45.94385894089367" lon="9.179400495343152"><ele>212.0</ele><time>2026-04-19T11:01:06Z</time></trkpt><trkpt lat="45.943860523580334" lon="9.179223610487568"><ele>212.0</ele><time>2026-04-19T11:01:07Z</time></trkpt><trkpt lat="45.94386109622894" lon="9.179055423279145"><ele>212.0</ele><time>2026-04-19T11:01:08Z</time></trkpt><trkpt lat="45.94386259588987" lon="9.17890796175137"><ele>212.0</ele><time>2026-04-19T11:01:09Z</time></trkpt><trkpt lat="45.943864599148284" lon="9.17875337185996"><ele>212.0</ele><time>2026-04-19T11:01:10Z</time></trkpt><trkpt lat="45.943866460366046" lon="9.178609743072533"><ele>212.0</ele><time>2026-04-19T11:01:11Z</time></trkpt><trkpt lat="45.94386814316721" lon="9.17847988179697"><ele>212.2</ele><time>2026-04-19T11:01:12Z</time></trkpt><trkpt lat="45.94387036089885" lon="9.17833894934813"><ele>212.39999999999998</ele><time>2026-04-19T11:01:13Z</time></trkpt><trkpt lat="45.94386121746509" lon="9.178185173679823"><ele>212.60000000000002</ele><time>2026-04-19T11:01:14Z</time></trkpt><trkpt lat="45.94381477091918" lon="9.17804265813597"><ele>212.8</ele><time>2026-04-19T11:01:15Z</time></trkpt><trkpt lat="45.943789962099714" lon="9.177900883470132"><ele>213.0</ele><time>2026-04-19T11:01:16Z</time></trkpt><trkpt lat="45.94375909210015" lon="9.17779058756123"><ele>212.0</ele><time>2026-04-19T11:01:17Z</time></trkpt><trkpt lat="45.943725605894926" lon="9.177672969358374"><ele>211.0</ele><time>2026-04-19T11:01:18Z</time></trkpt><trkpt lat="45.94369349483983" lon="9.177560637287074"><ele>210.0</ele><time>2026-04-19T11:01:19Z</time></trkpt><trkpt lat="45.94365970821831" lon="9.177442443813751"><ele>209.0</ele><time>2026-04-19T11:01:20Z</time></trkpt><trkpt lat="45.94362420192178" lon="9.177318234474042"><ele>208.0</ele><time>2026-04-19T11:01:21Z</time></trkpt><trkpt lat="45.943549321503966" lon="9.177056285160464"><ele>207.0</ele><time>2026-04-19T11:01:23Z</time></trkpt><trkpt lat="45.943511093271006" lon="9.176922483422546"><ele>206.0</ele><time>2026-04-19T11:01:24Z</time></trkpt><trkpt lat="45.9434653959936" lon="9.176765288062208"><ele>205.0</ele><time>2026-04-19T11:01:25Z</time></trkpt><trkpt lat="45.94341492771615" lon="9.176611176159792"><ele>204.0</ele><time>2026-04-19T11:01:26Z</time></trkpt><trkpt lat="45.94335864533861" lon="9.176472671701829"><ele>203.0</ele><time>2026-04-19T11:01:27Z</time></trkpt><trkpt lat="45.94330638018394" lon="9.176350554535944"><ele>205.4</ele><time>2026-04-19T11:01:28Z</time></trkpt><trkpt lat="45.943253419268544" lon="9.176226811709455"><ele>207.8</ele><time>2026-04-19T11:01:29Z</time></trkpt><trkpt lat="45.94319662300793" lon="9.176094456022017"><ele>210.2</ele><time>2026-04-19T11:01:30Z</time></trkpt><trkpt lat="45.94313976988437" lon="9.175962546813631"><ele>212.6</ele><time>2026-04-19T11:01:31Z</time></trkpt><trkpt lat="45.943085127845386" lon="9.175835767708742"><ele>215.0</ele><time>2026-04-19T11:01:31.999Z</time></trkpt><trkpt lat="45.94303933756049" lon="9.175729526193457"><ele>214.16666666666669</ele><time>2026-04-19T11:01:32.999Z</time></trkpt><trkpt lat="45.94298007531144" lon="9.175589148020011"><ele>213.33333333333334</ele><time>2026-04-19T11:01:34.999Z</time></trkpt><trkpt lat="45.94294375874598" lon="9.17548007177956"><ele>212.5</ele><time>2026-04-19T11:01:37.999Z</time></trkpt><trkpt lat="45.9429109707917" lon="9.175371208452594"><ele>211.66666666666669</ele><time>2026-04-19T11:01:39.999Z</time></trkpt><trkpt lat="45.94288690332326" lon="9.175281421943026"><ele>210.83333333333334</ele><time>2026-04-19T11:01:40.999Z</time></trkpt><trkpt lat="45.94286092486816" lon="9.175179909347865"><ele>210.0</ele><time>2026-04-19T11:01:41.999Z</time></trkpt><trkpt lat="45.94280669451208" lon="9.174948259204204"><ele>208.8</ele><time>2026-04-19T11:01:43.999Z</time></trkpt><trkpt lat="45.942783577424784" lon="9.174823524338237"><ele>207.6</ele><time>2026-04-19T11:01:44.999Z</time></trkpt><trkpt lat="45.942767077083985" lon="9.174689657197916"><ele>206.39999999999998</ele><time>2026-04-19T11:01:45.999Z</time></trkpt><trkpt lat="45.94274220229935" lon="9.174557701083398"><ele>205.2</ele><time>2026-04-19T11:01:46.999Z</time></trkpt><trkpt lat="45.94273422001768" lon="9.174415983057704"><ele>204.0</ele><time>2026-04-19T11:01:47.999Z</time></trkpt><trkpt lat="45.94272775563491" lon="9.174271663456583"><ele>204.0</ele><time>2026-04-19T11:01:48.999Z</time></trkpt><trkpt lat="45.942700979195465" lon="9.174108919712921"><ele>204.0</ele><time>2026-04-19T11:01:49.999Z</time></trkpt><trkpt lat="45.942663567116995" lon="9.173964305787266"><ele>204.0</ele><time>2026-04-19T11:01:50.999Z</time></trkpt><trkpt lat="45.94262480314341" lon="9.1738345088895"><ele>204.0</ele><time>2026-04-19T11:01:51.999Z</time></trkpt><trkpt lat="45.9425853242661" lon="9.173703165016661"><ele>204.0</ele><time>2026-04-19T11:01:52.999Z</time></trkpt><trkpt lat="45.94254572848813" lon="9.173570219460078"><ele>205.39999999999998</ele><time>2026-04-19T11:01:53.999Z</time></trkpt><trkpt lat="45.942532600138705" lon="9.173426728435539"><ele>206.8</ele><time>2026-04-19T11:01:54.999Z</time></trkpt><trkpt lat="45.94250965113769" lon="9.173285564610616"><ele>208.2</ele><time>2026-04-19T11:01:55.999Z</time></trkpt><trkpt lat="45.94248364161622" lon="9.173132047447577"><ele>209.60000000000002</ele><time>2026-04-19T11:01:56.999Z</time></trkpt><trkpt lat="45.94245410810709" lon="9.172976825211135"><ele>211.0</ele><time>2026-04-19T11:01:57.999Z</time></trkpt><trkpt lat="45.942417119681856" lon="9.17282862565537"><ele>211.0</ele><time>2026-04-19T11:01:58.999Z</time></trkpt><trkpt lat="45.9423640807763" lon="9.172706392255062"><ele>211.0</ele><time>2026-04-19T11:01:59.999Z</time></trkpt><trkpt lat="45.9423352341139" lon="9.172566366362632"><ele>211.0</ele><time>2026-04-19T11:02:00.999Z</time></trkpt><trkpt lat="45.94229040103328" lon="9.172432624422308"><ele>211.0</ele><time>2026-04-19T11:02:01.999Z</time></trkpt><trkpt lat="45.94224841667131" lon="9.172312583869727"><ele>211.0</ele><time>2026-04-19T11:02:02.999Z</time></trkpt><trkpt lat="45.942164910244244" lon="9.17209720096248"><ele>209.99999999999997</ele><time>2026-04-19T11:02:04.999Z</time></trkpt><trkpt lat="45.94212316686852" lon="9.172002067016091"><ele>209.0</ele><time>2026-04-19T11:02:05.999Z</time></trkpt><trkpt lat="45.94209806099051" lon="9.171891453492814"><ele>208.0</ele><time>2026-04-19T11:02:06.999Z</time></trkpt><trkpt lat="45.94206305672602" lon="9.1717822465622"><ele>207.0</ele><time>2026-04-19T11:02:07.999Z</time></trkpt><trkpt lat="45.942029450217106" lon="9.171659406898529"><ele>205.99999999999997</ele><time>2026-04-19T11:02:08.999Z</time></trkpt><trkpt lat="45.94200268163441" lon="9.171536494605158"><ele>205.0</ele><time>2026-04-19T11:02:09.999Z</time></trkpt><trkpt lat="45.94199436997461" lon="9.171420983079422"><ele>204.2</ele><time>2026-04-19T11:02:10.999Z</time></trkpt><trkpt lat="45.94199160249731" lon="9.17131204762852"><ele>203.4</ele><time>2026-04-19T11:02:11.999Z</time></trkpt><trkpt lat="45.941968529147964" lon="9.17120088094277"><ele>202.60000000000002</ele><time>2026-04-19T11:02:12.999Z</time></trkpt><trkpt lat="45.941917534489214" lon="9.171083064932107"><ele>201.8</ele><time>2026-04-19T11:02:13.999Z</time></trkpt><trkpt lat="45.94183776039413" lon="9.170966713862107"><ele>201.0</ele><time>2026-04-19T11:02:14.999Z</time></trkpt><trkpt lat="45.94174154598157" lon="9.170877965250739"><ele>201.60000000000002</ele><time>2026-04-19T11:02:15.999Z</time></trkpt><trkpt lat="45.94163060705855" lon="9.17080064693042"><ele>202.2</ele><time>2026-04-19T11:02:16.999Z</time></trkpt><trkpt lat="45.941525355564" lon="9.170730673507542"><ele>202.8</ele><time>2026-04-19T11:02:17.999Z</time></trkpt><trkpt lat="45.94141807559987" lon="9.17065707889842"><ele>203.39999999999998</ele><time>2026-04-19T11:02:18.999Z</time></trkpt><trkpt lat="45.94135878480501" lon="9.17061640512947"><ele>204.0</ele><time>2026-04-19T11:02:19.999Z</time></trkpt><trkpt lat="45.94127800817158" lon="9.170560991936771"><ele>204.0</ele><time>2026-04-19T11:02:20.999Z</time></trkpt><trkpt lat="45.94118677902941" lon="9.170498408239608"><ele>204.0</ele><time>2026-04-19T11:02:21.999Z</time></trkpt><trkpt lat="45.94109394489006" lon="9.170425168801936"><ele>204.0</ele><time>2026-04-19T11:02:22.999Z</time></trkpt><trkpt lat="45.941010879122636" lon="9.17032984487843"><ele>204.0</ele><time>2026-04-19T11:02:23.999Z</time></trkpt><trkpt lat="45.94085698993815" lon="9.17008843523145"><ele>205.0</ele><time>2026-04-19T11:02:25.999Z</time></trkpt><trkpt lat="45.94078722297995" lon="9.169977027955815"><ele>206.0</ele><time>2026-04-19T11:02:26.999Z</time></trkpt><trkpt lat="45.94072114375131" lon="9.169868624879813"><ele>207.0</ele><time>2026-04-19T11:02:27.999Z</time></trkpt><trkpt lat="45.94066485284873" lon="9.169763762591272"><ele>208.0</ele><time>2026-04-19T11:02:28.999Z</time></trkpt><trkpt lat="45.940625303216144" lon="9.169639307962957"><ele>209.0</ele><time>2026-04-19T11:02:29.999Z</time></trkpt><trkpt lat="45.94059125737246" lon="9.169483549633101"><ele>209.0</ele><time>2026-04-19T11:02:30.999Z</time></trkpt><trkpt lat="45.94055579668027" lon="9.169303870058865"><ele>209.0</ele><time>2026-04-19T11:02:31.999Z</time></trkpt><trkpt lat="45.94052038086111" lon="9.169124417894395"><ele>209.0</ele><time>2026-04-19T11:02:32.999Z</time></trkpt><trkpt lat="45.940489596175276" lon="9.168968431591242"><ele>209.0</ele><time>2026-04-19T11:02:33.999Z</time></trkpt><trkpt lat="45.94045798271517" lon="9.168808246082506"><ele>208.75</ele><time>2026-04-19T11:02:34.999Z</time></trkpt><trkpt lat="45.940424331853826" lon="9.168640048350001"><ele>208.5</ele><time>2026-04-19T11:02:35.999Z</time></trkpt><trkpt lat="45.94039212174617" lon="9.168480275149482"><ele>208.25</ele><time>2026-04-19T11:02:37Z</time></trkpt><trkpt lat="45.94036238397322" lon="9.168332765617018"><ele>208.0</ele><time>2026-04-19T11:02:38Z</time></trkpt><trkpt lat="45.94033557555105" lon="9.168180804265303"><ele>208.0</ele><time>2026-04-19T11:02:39Z</time></trkpt><trkpt lat="45.940329043568084" lon="9.16802279801546"><ele>208.0</ele><time>2026-04-19T11:02:40Z</time></trkpt><trkpt lat="45.94034121411629" lon="9.167842690764326"><ele>208.0</ele><time>2026-04-19T11:02:41Z</time></trkpt><trkpt lat="45.940369944662784" lon="9.167679166142355"><ele>208.0</ele><time>2026-04-19T11:02:42Z</time></trkpt><trkpt lat="45.94038482926942" lon="9.167518588900295"><ele>208.0</ele><time>2026-04-19T11:02:43Z</time></trkpt><trkpt lat="45.940394336386795" lon="9.167372183650983"><ele>208.0</ele><time>2026-04-19T11:02:44Z</time></trkpt><trkpt lat="45.94040645596186" lon="9.167244769625459"><ele>208.0</ele><time>2026-04-19T11:02:45Z</time></trkpt><trkpt lat="45.94033719767558" lon="9.166988807173203"><ele>208.0</ele><time>2026-04-19T11:02:47Z</time></trkpt><trkpt lat="45.94030230484984" lon="9.166848778814153"><ele>207.4</ele><time>2026-04-19T11:02:48Z</time></trkpt><trkpt lat="45.94027647983395" lon="9.166687961146826"><ele>206.8</ele><time>2026-04-19T11:02:49Z</time></trkpt><trkpt lat="45.940239647351596" lon="9.166531423765734"><ele>206.2</ele><time>2026-04-19T11:02:50Z</time></trkpt><trkpt lat="45.94020397788366" lon="9.166377839627383"><ele>205.6</ele><time>2026-04-19T11:02:51Z</time></trkpt><trkpt lat="45.9401755906057" lon="9.166242100733557"><ele>205.0</ele><time>2026-04-19T11:02:52Z</time></trkpt><trkpt lat="45.9401429508951" lon="9.166116949413468"><ele>204.4</ele><time>2026-04-19T11:02:53Z</time></trkpt><trkpt lat="45.940117081603695" lon="9.166000757991402"><ele>203.8</ele><time>2026-04-19T11:02:54Z</time></trkpt><trkpt lat="45.94008105926846" lon="9.165888236525568"><ele>203.2</ele><time>2026-04-19T11:02:55Z</time></trkpt><trkpt lat="45.940050597628165" lon="9.165774628500843"><ele>202.6</ele><time>2026-04-19T11:02:56Z</time></trkpt><trkpt lat="45.94001719287623" lon="9.16565211158111"><ele>202.0</ele><time>2026-04-19T11:02:57Z</time></trkpt><trkpt lat="45.939968061436296" lon="9.165514640451983"><ele>203.25</ele><time>2026-04-19T11:02:58Z</time></trkpt><trkpt lat="45.939906916806734" lon="9.165371397044826"><ele>204.5</ele><time>2026-04-19T11:02:59Z</time></trkpt><trkpt lat="45.93984421927545" lon="9.165210418426465"><ele>205.75</ele><time>2026-04-19T11:03:00Z</time></trkpt><trkpt lat="45.939809607296354" lon="9.165014519349276"><ele>207.0</ele><time>2026-04-19T11:03:01Z</time></trkpt><trkpt lat="45.93977405326847" lon="9.164818904986575"><ele>207.0</ele><time>2026-04-19T11:03:02Z</time></trkpt><trkpt lat="45.9397329865649" lon="9.164651464770158"><ele>207.0</ele><time>2026-04-19T11:03:03Z</time></trkpt><trkpt lat="45.939708734417124" lon="9.164490749297789"><ele>207.0</ele><time>2026-04-19T11:03:04Z</time></trkpt><trkpt lat="45.93968874996645" lon="9.164339839766258"><ele>207.0</ele><time>2026-04-19T11:03:05Z</time></trkpt><trkpt lat="45.939665790671086" lon="9.164199937661014"><ele>207.0</ele><time>2026-04-19T11:03:06Z</time></trkpt><trkpt lat="45.939598224199294" lon="9.163939248644313"><ele>205.8</ele><time>2026-04-19T11:03:08Z</time></trkpt><trkpt lat="45.93954096613086" lon="9.16379629645734"><ele>204.6</ele><time>2026-04-19T11:03:09Z</time></trkpt><trkpt lat="45.93947160998176" lon="9.163660903671875"><ele>203.4</ele><time>2026-04-19T11:03:10Z</time></trkpt><trkpt lat="45.939415511031406" lon="9.163555027187808"><ele>202.20000000000002</ele><time>2026-04-19T11:03:11Z</time></trkpt><trkpt lat="45.93935763862243" lon="9.16344731456949"><ele>201.0</ele><time>2026-04-19T11:03:12Z</time></trkpt><trkpt lat="45.93928901126001" lon="9.16331958474103"><ele>200.60000000000002</ele><time>2026-04-19T11:03:13Z</time></trkpt><trkpt lat="45.93922171434878" lon="9.16319433119356"><ele>200.2</ele><time>2026-04-19T11:03:14Z</time></trkpt><trkpt lat="45.939149538729104" lon="9.163097161556799"><ele>199.8</ele><time>2026-04-19T11:03:15Z</time></trkpt><trkpt lat="45.93909768695261" lon="9.162980453323263"><ele>199.39999999999998</ele><time>2026-04-19T11:03:16Z</time></trkpt><trkpt lat="45.93903932235586" lon="9.162858930089818"><ele>199.0</ele><time>2026-04-19T11:03:17Z</time></trkpt><trkpt lat="45.93898465937528" lon="9.162731319588962"><ele>201.39999999999998</ele><time>2026-04-19T11:03:18Z</time></trkpt><trkpt lat="45.93894029850946" lon="9.162608124582547"><ele>203.8</ele><time>2026-04-19T11:03:19Z</time></trkpt><trkpt lat="45.93893983460947" lon="9.16246648957922"><ele>206.2</ele><time>2026-04-19T11:03:20Z</time></trkpt><trkpt lat="45.93891637429671" lon="9.16231960343612"><ele>208.60000000000002</ele><time>2026-04-19T11:03:21Z</time></trkpt><trkpt lat="45.93891045471147" lon="9.162165707088551"><ele>211.0</ele><time>2026-04-19T11:03:22Z</time></trkpt><trkpt lat="45.93889034193705" lon="9.162013163035052"><ele>211.0</ele><time>2026-04-19T11:03:23Z</time></trkpt><trkpt lat="45.9388555453497" lon="9.161879372920726"><ele>211.0</ele><time>2026-04-19T11:03:24Z</time></trkpt><trkpt lat="45.93881320049477" lon="9.161742990989463"><ele>211.0</ele><time>2026-04-19T11:03:25Z</time></trkpt><trkpt lat="45.93876269504601" lon="9.161608315260683"><ele>211.0</ele><time>2026-04-19T11:03:26Z</time></trkpt><trkpt lat="45.93873684944929" lon="9.16148061848806"><ele>211.0</ele><time>2026-04-19T11:03:27Z</time></trkpt><trkpt lat="45.9386802866308" lon="9.161295283221941"><ele>209.4</ele><time>2026-04-19T11:03:30Z</time></trkpt><trkpt lat="45.93865535334792" lon="9.161165151257078"><ele>207.8</ele><time>2026-04-19T11:03:31.999Z</time></trkpt><trkpt lat="45.93865446845821" lon="9.16099422897802"><ele>206.20000000000002</ele><time>2026-04-19T11:03:33.999Z</time></trkpt><trkpt lat="45.93862850283926" lon="9.16085861359527"><ele>204.60000000000002</ele><time>2026-04-19T11:03:34.999Z</time></trkpt><trkpt lat="45.938615540925845" lon="9.160720941380974"><ele>203.0</ele><time>2026-04-19T11:03:35.999Z</time></trkpt><trkpt lat="45.93861489402315" lon="9.160587148159339"><ele>203.0</ele><time>2026-04-19T11:03:36.999Z</time></trkpt><trkpt lat="45.93857157388573" lon="9.160457887501273"><ele>203.0</ele><time>2026-04-19T11:03:37.999Z</time></trkpt><trkpt lat="45.938531402882646" lon="9.160304953464411"><ele>203.0</ele><time>2026-04-19T11:03:38.999Z</time></trkpt><trkpt lat="45.93845974435202" lon="9.16016933040591"><ele>203.0</ele><time>2026-04-19T11:03:39.999Z</time></trkpt><trkpt lat="45.938365364797015" lon="9.160035489785635"><ele>203.33333333333334</ele><time>2026-04-19T11:03:40.999Z</time></trkpt><trkpt lat="45.93824377597355" lon="9.159901460947006"><ele>203.66666666666669</ele><time>2026-04-19T11:03:41.999Z</time></trkpt><trkpt lat="45.93810320430621" lon="9.159758840149273"><ele>204.0</ele><time>2026-04-19T11:03:42.999Z</time></trkpt><trkpt lat="45.93795059654503" lon="9.159608933125297"><ele>204.0</ele><time>2026-04-19T11:03:43.999Z</time></trkpt><trkpt lat="45.93783295067551" lon="9.159454524869865"><ele>204.0</ele><time>2026-04-19T11:03:44.999Z</time></trkpt><trkpt lat="45.93774127889798" lon="9.159256729964211"><ele>204.0</ele><time>2026-04-19T11:03:45.999Z</time></trkpt><trkpt lat="45.93767020620075" lon="9.159062260024749"><ele>202.0</ele><time>2026-04-19T11:03:46.999Z</time></trkpt><trkpt lat="45.93760383461367" lon="9.15887917596987"><ele>200.0</ele><time>2026-04-19T11:03:47.999Z</time></trkpt><trkpt lat="45.93747930861363" lon="9.158544928525034"><ele>198.0</ele><time>2026-04-19T11:03:49.999Z</time></trkpt><trkpt lat="45.9374214082822" lon="9.158387418099675"><ele>201.75</ele><time>2026-04-19T11:03:50.999Z</time></trkpt><trkpt lat="45.93737249271453" lon="9.15821794343462"><ele>205.5</ele><time>2026-04-19T11:03:51.999Z</time></trkpt><trkpt lat="45.937346607068136" lon="9.158031261513853"><ele>209.25</ele><time>2026-04-19T11:03:52.999Z</time></trkpt><trkpt lat="45.93733193711511" lon="9.157833298373568"><ele>213.0</ele><time>2026-04-19T11:03:53.999Z</time></trkpt><trkpt lat="45.93732104722498" lon="9.15762248864832"><ele>213.0</ele><time>2026-04-19T11:03:54.999Z</time></trkpt><trkpt lat="45.93731077260054" lon="9.157404113281553"><ele>213.0</ele><time>2026-04-19T11:03:55.999Z</time></trkpt><trkpt lat="45.93728664013555" lon="9.15718267012073"><ele>213.0</ele><time>2026-04-19T11:03:56.999Z</time></trkpt><trkpt lat="45.93722772087558" lon="9.156964752031406"><ele>209.66666666666669</ele><time>2026-04-19T11:03:57.999Z</time></trkpt><trkpt lat="45.937129645181024" lon="9.156769044900699"><ele>206.33333333333334</ele><time>2026-04-19T11:03:58.999Z</time></trkpt><trkpt lat="45.93703172071943" lon="9.156557808687142"><ele>203.0</ele><time>2026-04-19T11:03:59.999Z</time></trkpt><trkpt lat="45.93693584352394" lon="9.156315847843057"><ele>201.66666666666669</ele><time>2026-04-19T11:04:00.999Z</time></trkpt><trkpt lat="45.936823128883404" lon="9.156076295002968"><ele>200.33333333333331</ele><time>2026-04-19T11:04:01.999Z</time></trkpt><trkpt lat="45.936707655618726" lon="9.155835035633054"><ele>199.0</ele><time>2026-04-19T11:04:02.999Z</time></trkpt><trkpt lat="45.93660122211749" lon="9.155611243468755"><ele>204.0</ele><time>2026-04-19T11:04:03.999Z</time></trkpt><trkpt lat="45.93651341162447" lon="9.155395624682324"><ele>209.0</ele><time>2026-04-19T11:04:04.999Z</time></trkpt><trkpt lat="45.93643227261444" lon="9.155175773357081"><ele>214.0</ele><time>2026-04-19T11:04:05.999Z</time></trkpt><trkpt lat="45.93635305531818" lon="9.154941503696339"><ele>213.0</ele><time>2026-04-19T11:04:06.999Z</time></trkpt><trkpt lat="45.93628180231366" lon="9.154694871470713"><ele>212.0</ele><time>2026-04-19T11:04:07.999Z</time></trkpt><trkpt lat="45.9362018577642" lon="9.15445268396682"><ele>211.0</ele><time>2026-04-19T11:04:08.999Z</time></trkpt><trkpt lat="45.9360190938725" lon="9.154027973645485"><ele>212.66666666666666</ele><time>2026-04-19T11:04:10.999Z</time></trkpt><trkpt lat="45.935935776652144" lon="9.1538344494374"><ele>214.33333333333331</ele><time>2026-04-19T11:04:11.999Z</time></trkpt><trkpt lat="45.93585513648499" lon="9.153646044429388"><ele>216.0</ele><time>2026-04-19T11:04:12.999Z</time></trkpt><trkpt lat="45.935764689907984" lon="9.153480729908553"><ele>216.0</ele><time>2026-04-19T11:04:13.999Z</time></trkpt><trkpt lat="45.935681049916845" lon="9.153340647749589"><ele>216.0</ele><time>2026-04-19T11:04:14.999Z</time></trkpt><trkpt lat="45.935567375749315" lon="9.153258589843901"><ele>216.0</ele><time>2026-04-19T11:04:15.999Z</time></trkpt><trkpt lat="45.93542051637521" lon="9.153203447227401"><ele>216.0</ele><time>2026-04-19T11:04:16.999Z</time></trkpt><trkpt lat="45.93528931463343" lon="9.153091881302672"><ele>216.66666666666669</ele><time>2026-04-19T11:04:17.999Z</time></trkpt><trkpt lat="45.93516864080981" lon="9.152931412207158"><ele>217.33333333333334</ele><time>2026-04-19T11:04:18.999Z</time></trkpt><trkpt lat="45.935041242322164" lon="9.152752346989214"><ele>218.0</ele><time>2026-04-19T11:04:19.999Z</time></trkpt><trkpt lat="45.9348871181037" lon="9.152608760620915"><ele>218.0</ele><time>2026-04-19T11:04:20.999Z</time></trkpt><trkpt lat="45.93472832119698" lon="9.152473665777158"><ele>218.0</ele><time>2026-04-19T11:04:21.999Z</time></trkpt><trkpt lat="45.93457084155265" lon="9.152353369148559"><ele>218.0</ele><time>2026-04-19T11:04:22.999Z</time></trkpt><trkpt lat="45.93440889795465" lon="9.152197086878244"><ele>215.33333333333334</ele><time>2026-04-19T11:04:23.999Z</time></trkpt><trkpt lat="45.93423594365093" lon="9.152057644044797"><ele>212.66666666666669</ele><time>2026-04-19T11:04:24.999Z</time></trkpt><trkpt lat="45.93408273885872" lon="9.151937515780425"><ele>210.0</ele><time>2026-04-19T11:04:25.999Z</time></trkpt><trkpt lat="45.93393893904848" lon="9.151821057718152"><ele>210.0</ele><time>2026-04-19T11:04:26.999Z</time></trkpt><trkpt lat="45.93380715870304" lon="9.151715000492807"><ele>210.0</ele><time>2026-04-19T11:04:27.999Z</time></trkpt><trkpt lat="45.93369658272159" lon="9.151611675194824"><ele>210.0</ele><time>2026-04-19T11:04:28.999Z</time></trkpt><trkpt lat="45.93363312547666" lon="9.15146915458917"><ele>210.0</ele><time>2026-04-19T11:04:29.999Z</time></trkpt><trkpt lat="45.93356962658687" lon="9.151162224366741"><ele>207.0</ele><time>2026-04-19T11:04:31.999Z</time></trkpt><trkpt lat="45.93348371450011" lon="9.151031541246315"><ele>204.0</ele><time>2026-04-19T11:04:32.999Z</time></trkpt><trkpt lat="45.933371239134296" lon="9.150951304145687"><ele>201.0</ele><time>2026-04-19T11:04:33.999Z</time></trkpt><trkpt lat="45.9332221344108" lon="9.150943893518145"><ele>198.0</ele><time>2026-04-19T11:04:34.998Z</time></trkpt><trkpt lat="45.93307902089335" lon="9.150928103013372"><ele>209.0</ele><time>2026-04-19T11:04:35.998Z</time></trkpt><trkpt lat="45.932911137438914" lon="9.150907174969262"><ele>220.0</ele><time>2026-04-19T11:04:36.998Z</time></trkpt><trkpt lat="45.93273780697306" lon="9.150897158256795"><ele>231.0</ele><time>2026-04-19T11:04:37.998Z</time></trkpt><trkpt lat="45.932550927211146" lon="9.150904472840354"><ele>231.66666666666669</ele><time>2026-04-19T11:04:38.998Z</time></trkpt><trkpt lat="45.93236057667586" lon="9.150890224801751"><ele>232.33333333333334</ele><time>2026-04-19T11:04:39.998Z</time></trkpt><trkpt lat="45.932190223368856" lon="9.150876722289059"><ele>233.0</ele><time>2026-04-19T11:04:40.998Z</time></trkpt><trkpt lat="45.93202895773921" lon="9.150879654102486"><ele>233.0</ele><time>2026-04-19T11:04:41.998Z</time></trkpt><trkpt lat="45.931863853685556" lon="9.150896370068155"><ele>233.0</ele><time>2026-04-19T11:04:43Z</time></trkpt><trkpt lat="45.93170140820171" lon="9.15092809858987"><ele>233.0</ele><time>2026-04-19T11:04:44Z</time></trkpt><trkpt lat="45.931533639722076" lon="9.150977932951367"><ele>232.25</ele><time>2026-04-19T11:04:45Z</time></trkpt><trkpt lat="45.93139178043014" lon="9.15105750720523"><ele>231.5</ele><time>2026-04-19T11:04:46Z</time></trkpt><trkpt lat="45.93126004005166" lon="9.151137866048769"><ele>230.75</ele><time>2026-04-19T11:04:47Z</time></trkpt><trkpt lat="45.93113781532975" lon="9.151147204392723"><ele>230.0</ele><time>2026-04-19T11:04:48Z</time></trkpt><trkpt lat="45.93103800046501" lon="9.151098725847811"><ele>230.0</ele><time>2026-04-19T11:04:49Z</time></trkpt><trkpt lat="45.93094717478079" lon="9.15100911643829"><ele>230.0</ele><time>2026-04-19T11:04:50Z</time></trkpt><trkpt lat="45.93084849686975" lon="9.150898877281527"><ele>230.0</ele><time>2026-04-19T11:04:51Z</time></trkpt><trkpt lat="45.930615707148" lon="9.150633395872266"><ele>227.66666666666669</ele><time>2026-04-19T11:04:53Z</time></trkpt><trkpt lat="45.930479648370024" lon="9.150478229772162"><ele>225.33333333333331</ele><time>2026-04-19T11:04:54Z</time></trkpt><trkpt lat="45.93035489383934" lon="9.150342930541076"><ele>223.0</ele><time>2026-04-19T11:04:55Z</time></trkpt><trkpt lat="45.930237149708205" lon="9.150266728460318"><ele>223.0</ele><time>2026-04-19T11:04:56Z</time></trkpt><trkpt lat="45.93010642532672" lon="9.150185486209004"><ele>223.0</ele><time>2026-04-19T11:04:57Z</time></trkpt><trkpt lat="45.92995453552703" lon="9.150152877989056"><ele>223.0</ele><time>2026-04-19T11:04:58Z</time></trkpt><trkpt lat="45.929784645132784" lon="9.150127256476628"><ele>224.33333333333331</ele><time>2026-04-19T11:04:59Z</time></trkpt><trkpt lat="45.92961686956646" lon="9.150113501414136"><ele>225.66666666666669</ele><time>2026-04-19T11:05:00Z</time></trkpt><trkpt lat="45.92947404142951" lon="9.150103160266102"><ele>227.0</ele><time>2026-04-19T11:05:01Z</time></trkpt><trkpt lat="45.92933129074926" lon="9.150102574763343"><ele>228.66666666666669</ele><time>2026-04-19T11:05:02Z</time></trkpt><trkpt lat="45.92917900562506" lon="9.150121018637972"><ele>230.33333333333331</ele><time>2026-04-19T11:05:03Z</time></trkpt><trkpt lat="45.92902443934509" lon="9.150132979431895"><ele>232.0</ele><time>2026-04-19T11:05:04Z</time></trkpt><trkpt lat="45.92886601325887" lon="9.15016522066239"><ele>232.0</ele><time>2026-04-19T11:05:05Z</time></trkpt><trkpt lat="45.928704027891115" lon="9.150228674622712"><ele>232.0</ele><time>2026-04-19T11:05:06Z</time></trkpt><trkpt lat="45.92855330230215" lon="9.150298338964632"><ele>232.0</ele><time>2026-04-19T11:05:07Z</time></trkpt><trkpt lat="45.92843214847141" lon="9.150410570494495"><ele>231.5</ele><time>2026-04-19T11:05:08Z</time></trkpt><trkpt lat="45.928318580374125" lon="9.150504920240444"><ele>231.0</ele><time>2026-04-19T11:05:09Z</time></trkpt><trkpt lat="45.92820791893631" lon="9.150549279802444"><ele>230.5</ele><time>2026-04-19T11:05:10Z</time></trkpt><trkpt lat="45.92806015570943" lon="9.15054803559657"><ele>230.0</ele><time>2026-04-19T11:05:11Z</time></trkpt><trkpt lat="45.92791735459945" lon="9.150540320399486"><ele>230.0</ele><time>2026-04-19T11:05:12Z</time></trkpt><trkpt lat="45.92759085990976" lon="9.150686692979837"><ele>230.0</ele><time>2026-04-19T11:05:14Z</time></trkpt><trkpt lat="45.927420900672686" lon="9.150800023365115"><ele>234.33333333333334</ele><time>2026-04-19T11:05:15Z</time></trkpt><trkpt lat="45.927242133451855" lon="9.150904105226404"><ele>238.66666666666669</ele><time>2026-04-19T11:05:16Z</time></trkpt><trkpt lat="45.92705416872067" lon="9.150961976760808"><ele>243.0</ele><time>2026-04-19T11:05:17Z</time></trkpt><trkpt lat="45.926874460009735" lon="9.151028974457622"><ele>241.0</ele><time>2026-04-19T11:05:18Z</time></trkpt><trkpt lat="45.92670552716499" lon="9.151110047847768"><ele>239.0</ele><time>2026-04-19T11:05:19Z</time></trkpt><trkpt lat="45.92655219600277" lon="9.151186043595596"><ele>237.0</ele><time>2026-04-19T11:05:20Z</time></trkpt><trkpt lat="45.926392727532296" lon="9.151266094543429"><ele>237.0</ele><time>2026-04-19T11:05:21Z</time></trkpt><trkpt lat="45.926249486060314" lon="9.151339688713696"><ele>237.0</ele><time>2026-04-19T11:05:22Z</time></trkpt><trkpt lat="45.92611237925003" lon="9.151410074716912"><ele>237.0</ele><time>2026-04-19T11:05:23Z</time></trkpt><trkpt lat="45.925976549871564" lon="9.151478479583801"><ele>237.0</ele><time>2026-04-19T11:05:24Z</time></trkpt><trkpt lat="45.925850906239" lon="9.15152754013677"><ele>235.25</ele><time>2026-04-19T11:05:25Z</time></trkpt><trkpt lat="45.92573478137283" lon="9.151519509411047"><ele>233.5</ele><time>2026-04-19T11:05:26Z</time></trkpt><trkpt lat="45.9256253848608" lon="9.151448680029244"><ele>231.75</ele><time>2026-04-19T11:05:27Z</time></trkpt><trkpt lat="45.92549469392664" lon="9.151359237549283"><ele>230.0</ele><time>2026-04-19T11:05:28Z</time></trkpt><trkpt lat="45.92534588413003" lon="9.151313855757314"><ele>230.0</ele><time>2026-04-19T11:05:29Z</time></trkpt><trkpt lat="45.92517164746272" lon="9.151272276122665"><ele>230.0</ele><time>2026-04-19T11:05:30Z</time></trkpt><trkpt lat="45.92499933523652" lon="9.15126940527513"><ele>230.0</ele><time>2026-04-19T11:05:30.999Z</time></trkpt><trkpt lat="45.924836655159154" lon="9.151313782076198"><ele>223.0</ele><time>2026-04-19T11:05:31.999Z</time></trkpt><trkpt lat="45.92468316543783" lon="9.151405540394371"><ele>216.0</ele><time>2026-04-19T11:05:32.999Z</time></trkpt><trkpt lat="45.92429654700442" lon="9.151518708391988"><ele>231.0</ele><time>2026-04-19T11:05:34.999Z</time></trkpt><trkpt lat="45.92408570082734" lon="9.151568873370316"><ele>246.0</ele><time>2026-04-19T11:05:35.999Z</time></trkpt><trkpt lat="45.92386112615588" lon="9.151606242020444"><ele>261.0</ele><time>2026-04-19T11:05:36.999Z</time></trkpt><trkpt lat="45.92364862210506" lon="9.151632856276636"><ele>261.0</ele><time>2026-04-19T11:05:37.999Z</time></trkpt><trkpt lat="45.92344935243804" lon="9.15165933318584"><ele>261.0</ele><time>2026-04-19T11:05:38.999Z</time></trkpt><trkpt lat="45.923272850874085" lon="9.151699806757017"><ele>261.0</ele><time>2026-04-19T11:05:39.999Z</time></trkpt><trkpt lat="45.92311262234104" lon="9.151713060530918"><ele>257.0</ele><time>2026-04-19T11:05:40.999Z</time></trkpt><trkpt lat="45.92296789587424" lon="9.151755106104375"><ele>253.0</ele><time>2026-04-19T11:05:41.999Z</time></trkpt><trkpt lat="45.92281220134277" lon="9.151780836680553"><ele>249.0</ele><time>2026-04-19T11:05:42.999Z</time></trkpt><trkpt lat="45.92267035589399" lon="9.151838356303434"><ele>243.66666666666669</ele><time>2026-04-19T11:05:43.999Z</time></trkpt><trkpt lat="45.92255539409271" lon="9.15199595206309"><ele>238.33333333333334</ele><time>2026-04-19T11:05:44.999Z</time></trkpt><trkpt lat="45.9224457269062" lon="9.152154828666824"><ele>233.0</ele><time>2026-04-19T11:05:45.999Z</time></trkpt><trkpt lat="45.9223102206692" lon="9.152204604325375"><ele>233.0</ele><time>2026-04-19T11:05:46.999Z</time></trkpt><trkpt lat="45.922167273784325" lon="9.152242295653709"><ele>233.0</ele><time>2026-04-19T11:05:47.999Z</time></trkpt><trkpt lat="45.922015919897056" lon="9.152283469233808"><ele>233.0</ele><time>2026-04-19T11:05:48.999Z</time></trkpt><trkpt lat="45.921834245746865" lon="9.152354917918434"><ele>238.0</ele><time>2026-04-19T11:05:49.999Z</time></trkpt><trkpt lat="45.921673612329464" lon="9.152382814699816"><ele>243.0</ele><time>2026-04-19T11:05:50.999Z</time></trkpt><trkpt lat="45.92152283643939" lon="9.152440838352382"><ele>248.0</ele><time>2026-04-19T11:05:51.999Z</time></trkpt><trkpt lat="45.921396129291864" lon="9.152471558678666"><ele>253.0</ele><time>2026-04-19T11:05:52.999Z</time></trkpt><trkpt lat="45.921281216361024" lon="9.152516581153254"><ele>253.0</ele><time>2026-04-19T11:05:53.999Z</time></trkpt><trkpt lat="45.92107315332993" lon="9.15267728588218"><ele>253.0</ele><time>2026-04-19T11:05:55.999Z</time></trkpt><trkpt lat="45.92097907755333" lon="9.152765202411857"><ele>253.0</ele><time>2026-04-19T11:05:56.999Z</time></trkpt><trkpt lat="45.920897832866615" lon="9.152844938931178"><ele>253.0</ele><time>2026-04-19T11:05:57.999Z</time></trkpt><trkpt lat="45.920843142852114" lon="9.152963075852066"><ele>248.60000000000002</ele><time>2026-04-19T11:05:58.999Z</time></trkpt><trkpt lat="45.92074594548661" lon="9.153006176535618"><ele>244.20000000000002</ele><time>2026-04-19T11:05:59.999Z</time></trkpt><trkpt lat="45.92066315994788" lon="9.152958648898167"><ele>239.8</ele><time>2026-04-19T11:06:00.999Z</time></trkpt><trkpt lat="45.92053962715419" lon="9.152939244952353"><ele>235.4</ele><time>2026-04-19T11:06:01.999Z</time></trkpt><trkpt lat="45.92042226315698" lon="9.152927714130547"><ele>231.0</ele><time>2026-04-19T11:06:02.999Z</time></trkpt><trkpt lat="45.920290403012146" lon="9.15295668020756"><ele>231.0</ele><time>2026-04-19T11:06:03.999Z</time></trkpt><trkpt lat="45.920148615824885" lon="9.153001461770371"><ele>231.0</ele><time>2026-04-19T11:06:04.999Z</time></trkpt><trkpt lat="45.920007714585466" lon="9.153048511275362"><ele>231.0</ele><time>2026-04-19T11:06:05.999Z</time></trkpt><trkpt lat="45.91988343503808" lon="9.153107374139081"><ele>231.0</ele><time>2026-04-19T11:06:06.999Z</time></trkpt><trkpt lat="45.9197726713367" lon="9.153210992379808"><ele>235.75</ele><time>2026-04-19T11:06:07.999Z</time></trkpt><trkpt lat="45.919654057041285" lon="9.153296607452118"><ele>240.5</ele><time>2026-04-19T11:06:08.999Z</time></trkpt><trkpt lat="45.91955877418445" lon="9.153409132183356"><ele>245.25</ele><time>2026-04-19T11:06:09.999Z</time></trkpt><trkpt lat="45.91944202301712" lon="9.15351240654144"><ele>250.0</ele><time>2026-04-19T11:06:10.999Z</time></trkpt><trkpt lat="45.91931265748693" lon="9.153533143282516"><ele>246.25</ele><time>2026-04-19T11:06:11.999Z</time></trkpt><trkpt lat="45.91918338032705" lon="9.153551536214648"><ele>242.5</ele><time>2026-04-19T11:06:12.999Z</time></trkpt><trkpt lat="45.91907022855903" lon="9.153489696330887"><ele>238.75</ele><time>2026-04-19T11:06:13.999Z</time></trkpt><trkpt lat="45.91895731429123" lon="9.15345418904842"><ele>235.0</ele><time>2026-04-19T11:06:14.999Z</time></trkpt><trkpt lat="45.91868463275768" lon="9.153503799998544"><ele>235.0</ele><time>2026-04-19T11:06:16.999Z</time></trkpt><trkpt lat="45.91851896448155" lon="9.153549403586196"><ele>235.0</ele><time>2026-04-19T11:06:17.999Z</time></trkpt><trkpt lat="45.91833779478614" lon="9.153599151237316"><ele>235.0</ele><time>2026-04-19T11:06:18.999Z</time></trkpt><trkpt lat="45.91817431996129" lon="9.153633904468775"><ele>234.33333333333331</ele><time>2026-04-19T11:06:19.999Z</time></trkpt><trkpt lat="45.91801705771148" lon="9.153637893996105"><ele>233.66666666666669</ele><time>2026-04-19T11:06:20.999Z</time></trkpt><trkpt lat="45.91785198753437" lon="9.153634631553391"><ele>233.0</ele><time>2026-04-19T11:06:21.999Z</time></trkpt><trkpt lat="45.91767829543177" lon="9.153637222204544"><ele>230.33333333333334</ele><time>2026-04-19T11:06:22.999Z</time></trkpt><trkpt lat="45.91750028325075" lon="9.153652754277187"><ele>227.66666666666669</ele><time>2026-04-19T11:06:23.999Z</time></trkpt><trkpt lat="45.91732053731287" lon="9.15369501007441"><ele>225.0</ele><time>2026-04-19T11:06:24.999Z</time></trkpt><trkpt lat="45.91714296091172" lon="9.153713403342953"><ele>225.0</ele><time>2026-04-19T11:06:25.999Z</time></trkpt><trkpt lat="45.91696441484703" lon="9.153730284676229"><ele>225.0</ele><time>2026-04-19T11:06:26.999Z</time></trkpt><trkpt lat="45.91680253588086" lon="9.153746014728615"><ele>225.0</ele><time>2026-04-19T11:06:27.999Z</time></trkpt><trkpt lat="45.91665108261121" lon="9.153732619325497"><ele>226.0</ele><time>2026-04-19T11:06:28.999Z</time></trkpt><trkpt lat="45.91649068826842" lon="9.153767105720734"><ele>227.0</ele><time>2026-04-19T11:06:29.999Z</time></trkpt><trkpt lat="45.91632516133996" lon="9.15380766580931"><ele>228.0</ele><time>2026-04-19T11:06:30.999Z</time></trkpt><trkpt lat="45.91615438432127" lon="9.153849512315468"><ele>228.0</ele><time>2026-04-19T11:06:31.999Z</time></trkpt><trkpt lat="45.915996060733775" lon="9.153890630103895"><ele>228.0</ele><time>2026-04-19T11:06:32.999Z</time></trkpt><trkpt lat="45.915853397513686" lon="9.15392874938597"><ele>228.0</ele><time>2026-04-19T11:06:33.999Z</time></trkpt><trkpt lat="45.91572272552061" lon="9.153961636347304"><ele>228.0</ele><time>2026-04-19T11:06:34.998Z</time></trkpt><trkpt lat="45.915612316246445" lon="9.153977642921472"><ele>229.66666666666669</ele><time>2026-04-19T11:06:35.998Z</time></trkpt><trkpt lat="45.91541219828052" lon="9.153906138445077"><ele>231.33333333333334</ele><time>2026-04-19T11:06:37.998Z</time></trkpt><trkpt lat="45.91529158137632" lon="9.15387130908824"><ele>233.0</ele><time>2026-04-19T11:06:38.998Z</time></trkpt><trkpt lat="45.91516426522422" lon="9.153901742586855"><ele>232.5</ele><time>2026-04-19T11:06:39.998Z</time></trkpt><trkpt lat="45.91502885946145" lon="9.153934454358494"><ele>232.0</ele><time>2026-04-19T11:06:40.998Z</time></trkpt><trkpt lat="45.91488197220623" lon="9.153949951073777"><ele>231.5</ele><time>2026-04-19T11:06:41.998Z</time></trkpt><trkpt lat="45.91474953435536" lon="9.154006017503642"><ele>231.0</ele><time>2026-04-19T11:06:42.998Z</time></trkpt><trkpt lat="45.914631153140114" lon="9.154012669033053"><ele>231.0</ele><time>2026-04-19T11:06:43.998Z</time></trkpt><trkpt lat="45.9145440019396" lon="9.154030562786986"><ele>231.0</ele><time>2026-04-19T11:06:44.998Z</time></trkpt><trkpt lat="45.91446567631816" lon="9.154059427806441"><ele>231.0</ele><time>2026-04-19T11:06:45.998Z</time></trkpt><trkpt lat="45.91441247234447" lon="9.154119444986351"><ele>231.0</ele><time>2026-04-19T11:06:46.998Z</time></trkpt><trkpt lat="45.914355539740235" lon="9.154165858395196"><ele>231.0</ele><time>2026-04-19T11:06:47.998Z</time></trkpt><trkpt lat="45.91428647623791" lon="9.154218759399566"><ele>231.0</ele><time>2026-04-19T11:06:49Z</time></trkpt><trkpt lat="45.91420841612607" lon="9.154218639824439"><ele>236.4</ele><time>2026-04-19T11:06:50Z</time></trkpt><trkpt lat="45.914126354723535" lon="9.154201206690447"><ele>241.8</ele><time>2026-04-19T11:06:51Z</time></trkpt><trkpt lat="45.91402630198934" lon="9.154232510924244"><ele>247.20000000000002</ele><time>2026-04-19T11:06:52Z</time></trkpt><trkpt lat="45.91391261341139" lon="9.154206714812732"><ele>252.60000000000002</ele><time>2026-04-19T11:06:53Z</time></trkpt><trkpt lat="45.913802861053156" lon="9.15418359208083"><ele>258.0</ele><time>2026-04-19T11:06:54Z</time></trkpt><trkpt lat="45.9136811688556" lon="9.154172859288833"><ele>258.0</ele><time>2026-04-19T11:06:55Z</time></trkpt><trkpt lat="45.9135457254737" lon="9.154189669691412"><ele>258.0</ele><time>2026-04-19T11:06:56Z</time></trkpt><trkpt lat="45.91342105265296" lon="9.154227373321834"><ele>258.0</ele><time>2026-04-19T11:06:57Z</time></trkpt><trkpt lat="45.91314618030507" lon="9.154411584462691"><ele>255.33333333333331</ele><time>2026-04-19T11:06:59Z</time></trkpt><trkpt lat="45.91299216983623" lon="9.154529200358922"><ele>252.66666666666666</ele><time>2026-04-19T11:07:00Z</time></trkpt><trkpt lat="45.912846771525416" lon="9.1546441973144"><ele>250.0</ele><time>2026-04-19T11:07:01Z</time></trkpt><trkpt lat="45.912704878549434" lon="9.1547470540154"><ele>250.0</ele><time>2026-04-19T11:07:02Z</time></trkpt><trkpt lat="45.912587530194756" lon="9.154856945944816"><ele>250.0</ele><time>2026-04-19T11:07:03Z</time></trkpt><trkpt lat="45.91247308970543" lon="9.154954452049429"><ele>250.0</ele><time>2026-04-19T11:07:04Z</time></trkpt><trkpt lat="45.912336167979554" lon="9.15501587057654"><ele>250.0</ele><time>2026-04-19T11:07:05Z</time></trkpt><trkpt lat="45.91218210668833" lon="9.155067365601901"><ele>245.66666666666666</ele><time>2026-04-19T11:07:06Z</time></trkpt><trkpt lat="45.91201697674365" lon="9.15513069062071"><ele>241.33333333333331</ele><time>2026-04-19T11:07:07Z</time></trkpt><trkpt lat="45.91186328325196" lon="9.155186003079882"><ele>237.0</ele><time>2026-04-19T11:07:08Z</time></trkpt><trkpt lat="45.91171103225398" lon="9.155243919681249"><ele>237.0</ele><time>2026-04-19T11:07:09Z</time></trkpt><trkpt lat="45.91156856355062" lon="9.155239625440396"><ele>237.0</ele><time>2026-04-19T11:07:10Z</time></trkpt><trkpt lat="45.91143158787793" lon="9.15525302641421"><ele>237.0</ele><time>2026-04-19T11:07:11Z</time></trkpt><trkpt lat="45.91130343397551" lon="9.155295838704598"><ele>237.0</ele><time>2026-04-19T11:07:12Z</time></trkpt><trkpt lat="45.911168532738785" lon="9.15538406559306"><ele>237.0</ele><time>2026-04-19T11:07:13Z</time></trkpt><trkpt lat="45.91103920352368" lon="9.155503968185958"><ele>237.0</ele><time>2026-04-19T11:07:14Z</time></trkpt><trkpt lat="45.91091600780219" lon="9.155595498595225"><ele>237.0</ele><time>2026-04-19T11:07:15Z</time></trkpt><trkpt lat="45.910797034821" lon="9.15567225616447"><ele>237.0</ele><time>2026-04-19T11:07:16Z</time></trkpt><trkpt lat="45.910669709240864" lon="9.155671100184271"><ele>234.5</ele><time>2026-04-19T11:07:17Z</time></trkpt><trkpt lat="45.91053999033176" lon="9.155700663123879"><ele>232.0</ele><time>2026-04-19T11:07:18Z</time></trkpt><trkpt lat="45.91034495071903" lon="9.155767512297174"><ele>229.5</ele><time>2026-04-19T11:07:20Z</time></trkpt><trkpt lat="45.91026811832145" lon="9.15579384203509"><ele>227.0</ele><time>2026-04-19T11:07:21Z</time></trkpt><trkpt lat="45.910183059621005" lon="9.155806415266898"><ele>231.50000000000003</ele><time>2026-04-19T11:07:22Z</time></trkpt><trkpt lat="45.910102304739205" lon="9.155797557007515"><ele>236.0</ele><time>2026-04-19T11:07:23Z</time></trkpt><trkpt lat="45.91003219899501" lon="9.155784263203978"><ele>240.5</ele><time>2026-04-19T11:07:24Z</time></trkpt><trkpt lat="45.909951865632365" lon="9.155760240067082"><ele>245.0</ele><time>2026-04-19T11:07:25Z</time></trkpt><trkpt lat="45.909920772327915" lon="9.155641480556358"><ele>249.50000000000003</ele><time>2026-04-19T11:07:26Z</time></trkpt><trkpt lat="45.90989993335442" lon="9.155539516436262"><ele>254.0</ele><time>2026-04-19T11:07:27Z</time></trkpt><trkpt lat="45.9098738655536" lon="9.15541469180774"><ele>254.0</ele><time>2026-04-19T11:07:28Z</time></trkpt><trkpt lat="45.909832313558496" lon="9.15526686368286"><ele>253.99999999999997</ele><time>2026-04-19T11:07:29Z</time></trkpt><trkpt lat="45.909816847169786" lon="9.155143995589569"><ele>253.99999999999997</ele><time>2026-04-19T11:07:30Z</time></trkpt><trkpt lat="45.90978329611962" lon="9.154980342513237"><ele>254.0</ele><time>2026-04-19T11:07:31Z</time></trkpt><trkpt lat="45.90973726156757" lon="9.154845788615106"><ele>254.0</ele><time>2026-04-19T11:07:32Z</time></trkpt><trkpt lat="45.9096718348979" lon="9.15472617035849"><ele>253.0</ele><time>2026-04-19T11:07:33Z</time></trkpt><trkpt lat="45.90958214829408" lon="9.154664867661182"><ele>252.0</ele><time>2026-04-19T11:07:33.999Z</time></trkpt><trkpt lat="45.90943194552843" lon="9.154623782584368"><ele>251.0</ele><time>2026-04-19T11:07:34.999Z</time></trkpt><trkpt lat="45.909294797405096" lon="9.154570519498947"><ele>250.0</ele><time>2026-04-19T11:07:35.999Z</time></trkpt><trkpt lat="45.909182177905265" lon="9.154559771295087"><ele>250.0</ele><time>2026-04-19T11:07:36.999Z</time></trkpt><trkpt lat="45.90908408381516" lon="9.154572822465168"><ele>250.0</ele><time>2026-04-19T11:07:37.999Z</time></trkpt><trkpt lat="45.90897934584569" lon="9.154627929873259"><ele>250.0</ele><time>2026-04-19T11:07:38.999Z</time></trkpt><trkpt lat="45.908787178170066" lon="9.15476767020092"><ele>250.0</ele><time>2026-04-19T11:07:40.999Z</time></trkpt><trkpt lat="45.90870793370435" lon="9.154715596026229"><ele>250.0</ele><time>2026-04-19T11:07:41.999Z</time></trkpt><trkpt lat="45.908598409414154" lon="9.15462426026295"><ele>250.0</ele><time>2026-04-19T11:07:42.999Z</time></trkpt><trkpt lat="45.90844812468968" lon="9.154537315709577"><ele>250.0</ele><time>2026-04-19T11:07:43.999Z</time></trkpt><trkpt lat="45.90832061518467" lon="9.154516145370469"><ele>250.0</ele><time>2026-04-19T11:07:44.999Z</time></trkpt><trkpt lat="45.908198198945115" lon="9.154535258824648"><ele>251.66666666666666</ele><time>2026-04-19T11:07:45.999Z</time></trkpt><trkpt lat="45.90804983902908" lon="9.154642334816934"><ele>253.33333333333331</ele><time>2026-04-19T11:07:46.999Z</time></trkpt><trkpt lat="45.90789765088644" lon="9.154641447160593"><ele>255.0</ele><time>2026-04-19T11:07:47.999Z</time></trkpt><trkpt lat="45.90774428290625" lon="9.154624129855511"><ele>252.66666666666669</ele><time>2026-04-19T11:07:48.999Z</time></trkpt><trkpt lat="45.90756074657727" lon="9.15460066164618"><ele>250.33333333333334</ele><time>2026-04-19T11:07:49.999Z</time></trkpt><trkpt lat="45.907372028432555" lon="9.15457653085278"><ele>248.0</ele><time>2026-04-19T11:07:50.999Z</time></trkpt><trkpt lat="45.9071935359971" lon="9.154556762195158"><ele>248.0</ele><time>2026-04-19T11:07:51.999Z</time></trkpt><trkpt lat="45.90701542660868" lon="9.154550623186372"><ele>248.0</ele><time>2026-04-19T11:07:52.999Z</time></trkpt><trkpt lat="45.90684442885954" lon="9.154552851437636"><ele>248.0</ele><time>2026-04-19T11:07:53.999Z</time></trkpt><trkpt lat="45.9066740981194" lon="9.154561138045636"><ele>250.66666666666669</ele><time>2026-04-19T11:07:54.999Z</time></trkpt><trkpt lat="45.906513457036425" lon="9.154636117202918"><ele>253.33333333333331</ele><time>2026-04-19T11:07:55.999Z</time></trkpt><trkpt lat="45.906356475612604" lon="9.154704663358423"><ele>256.0</ele><time>2026-04-19T11:07:56.999Z</time></trkpt><trkpt lat="45.906185097951344" lon="9.154764272969036"><ele>256.0</ele><time>2026-04-19T11:07:57.999Z</time></trkpt><trkpt lat="45.906020349716655" lon="9.154804676510883"><ele>256.0</ele><time>2026-04-19T11:07:58.999Z</time></trkpt><trkpt lat="45.905859250631586" lon="9.1548317771026"><ele>256.0</ele><time>2026-04-19T11:07:59.999Z</time></trkpt><trkpt lat="45.90553325197792" lon="9.15489113828504"><ele>268.0</ele><time>2026-04-19T11:08:01.999Z</time></trkpt><trkpt lat="45.90537885404071" lon="9.15496263255939"><ele>280.0</ele><time>2026-04-19T11:08:02.999Z</time></trkpt><trkpt lat="45.9052353204132" lon="9.155070578151577"><ele>292.0</ele><time>2026-04-19T11:08:03.999Z</time></trkpt><trkpt lat="45.905102890905944" lon="9.155158007877773"><ele>290.25</ele><time>2026-04-19T11:08:04.999Z</time></trkpt><trkpt lat="45.904975098972024" lon="9.155136829082377"><ele>288.5</ele><time>2026-04-19T11:08:05.999Z</time></trkpt><trkpt lat="45.90482944776169" lon="9.155081147496789"><ele>286.75</ele><time>2026-04-19T11:08:06.999Z</time></trkpt><trkpt lat="45.9046641529877" lon="9.155041941431321"><ele>285.0</ele><time>2026-04-19T11:08:07.999Z</time></trkpt><trkpt lat="45.9044841160709" lon="9.15503506976857"><ele>285.0</ele><time>2026-04-19T11:08:08.999Z</time></trkpt><trkpt lat="45.90429880153616" lon="9.155027813130935"><ele>285.0</ele><time>2026-04-19T11:08:09.999Z</time></trkpt><trkpt lat="45.904107671614106" lon="9.15501521126501"><ele>285.0</ele><time>2026-04-19T11:08:10.999Z</time></trkpt><trkpt lat="45.90392385211387" lon="9.155001732296666"><ele>286.0</ele><time>2026-04-19T11:08:11.999Z</time></trkpt><trkpt lat="45.90375913884841" lon="9.154990260335056"><ele>287.0</ele><time>2026-04-19T11:08:12.999Z</time></trkpt><trkpt lat="45.90360572457219" lon="9.154981680934961"><ele>288.0</ele><time>2026-04-19T11:08:13.999Z</time></trkpt><trkpt lat="45.90345490737505" lon="9.154992225975267"><ele>289.25</ele><time>2026-04-19T11:08:14.999Z</time></trkpt><trkpt lat="45.90331401287868" lon="9.154925697537601"><ele>290.5</ele><time>2026-04-19T11:08:15.999Z</time></trkpt><trkpt lat="45.903175475962996" lon="9.154853809839935"><ele>291.75</ele><time>2026-04-19T11:08:16.999Z</time></trkpt><trkpt lat="45.90303657006302" lon="9.154793151525299"><ele>293.0</ele><time>2026-04-19T11:08:17.999Z</time></trkpt><trkpt lat="45.9028831523913" lon="9.154724749952607"><ele>285.6666666666667</ele><time>2026-04-19T11:08:18.999Z</time></trkpt><trkpt lat="45.90272153157686" lon="9.154651805789575"><ele>278.3333333333333</ele><time>2026-04-19T11:08:19.999Z</time></trkpt><trkpt lat="45.90255581379925" lon="9.154572597089967"><ele>271.0</ele><time>2026-04-19T11:08:20.999Z</time></trkpt><trkpt lat="45.902262470453465" lon="9.154407025460753"><ele>271.0</ele><time>2026-04-19T11:08:22.999Z</time></trkpt><trkpt lat="45.902137717384456" lon="9.154304099613773"><ele>271.0</ele><time>2026-04-19T11:08:23.999Z</time></trkpt><trkpt lat="45.902010567314605" lon="9.154235116707227"><ele>271.0</ele><time>2026-04-19T11:08:24.999Z</time></trkpt><trkpt lat="45.9018710556245" lon="9.154213296271186"><ele>271.0</ele><time>2026-04-19T11:08:25.999Z</time></trkpt><trkpt lat="45.90173700330258" lon="9.154227566753887"><ele>272.40000000000003</ele><time>2026-04-19T11:08:26.999Z</time></trkpt><trkpt lat="45.901620358186115" lon="9.154235160781793"><ele>273.8</ele><time>2026-04-19T11:08:27.999Z</time></trkpt><trkpt lat="45.90151313655141" lon="9.154242406750729"><ele>275.20000000000005</ele><time>2026-04-19T11:08:28.999Z</time></trkpt><trkpt lat="45.901427762821385" lon="9.154153766151177"><ele>276.6</ele><time>2026-04-19T11:08:29.999Z</time></trkpt><trkpt lat="45.90136590415712" lon="9.154028194266534"><ele>278.0</ele><time>2026-04-19T11:08:30.999Z</time></trkpt><trkpt lat="45.90131933353533" lon="9.153861236099539"><ele>270.0</ele><time>2026-04-19T11:08:31.999Z</time></trkpt><trkpt lat="45.90128424625558" lon="9.153677785942868"><ele>262.0</ele><time>2026-04-19T11:08:32.999Z</time></trkpt><trkpt lat="45.901212342735626" lon="9.153499088524427"><ele>254.0</ele><time>2026-04-19T11:08:33.999Z</time></trkpt><trkpt lat="45.901122800584965" lon="9.153355589742697"><ele>246.0</ele><time>2026-04-19T11:08:34.999Z</time></trkpt><trkpt lat="45.90101030682425" lon="9.153271547829792"><ele>252.0</ele><time>2026-04-19T11:08:35.999Z</time></trkpt><trkpt lat="45.90088093663205" lon="9.153218357907331"><ele>258.0</ele><time>2026-04-19T11:08:36.999Z</time></trkpt><trkpt lat="45.90074643384507" lon="9.15324760977794"><ele>264.0</ele><time>2026-04-19T11:08:37.998Z</time></trkpt><trkpt lat="45.900606171036245" lon="9.15326218156458"><ele>270.0</ele><time>2026-04-19T11:08:38.998Z</time></trkpt><trkpt lat="45.90046859419111" lon="9.153285194172232"><ele>270.0</ele><time>2026-04-19T11:08:39.998Z</time></trkpt><trkpt lat="45.90034495327393" lon="9.15330454331001"><ele>270.0</ele><time>2026-04-19T11:08:40.998Z</time></trkpt><trkpt lat="45.9002298394643" lon="9.153311095737312"><ele>270.0</ele><time>2026-04-19T11:08:41.998Z</time></trkpt><trkpt lat="45.89998422486099" lon="9.153365587263457"><ele>268.0</ele><time>2026-04-19T11:08:43.998Z</time></trkpt><trkpt lat="45.89987434609374" lon="9.15347828028809"><ele>266.0</ele><time>2026-04-19T11:08:44.998Z</time></trkpt><trkpt lat="45.89977534241051" lon="9.153598647516123"><ele>264.0</ele><time>2026-04-19T11:08:45.998Z</time></trkpt><trkpt lat="45.89970490184646" lon="9.153733894772339"><ele>262.0</ele><time>2026-04-19T11:08:46.998Z</time></trkpt><trkpt lat="45.89962358969349" lon="9.153838884058098"><ele>262.0</ele><time>2026-04-19T11:08:47.998Z</time></trkpt><trkpt lat="45.899556525925476" lon="9.153947319573518"><ele>262.0</ele><time>2026-04-19T11:08:48.998Z</time></trkpt><trkpt lat="45.899441439740116" lon="9.153973738090817"><ele>262.0</ele><time>2026-04-19T11:08:49.998Z</time></trkpt><trkpt lat="45.8993296569839" lon="9.154023976778577"><ele>262.0</ele><time>2026-04-19T11:08:50.998Z</time></trkpt><trkpt lat="45.89920804592399" lon="9.154078632627442"><ele>265.66666666666663</ele><time>2026-04-19T11:08:51.998Z</time></trkpt><trkpt lat="45.89906366891315" lon="9.154144541253505"><ele>269.3333333333333</ele><time>2026-04-19T11:08:52.998Z</time></trkpt><trkpt lat="45.89890376455088" lon="9.154221660580417"><ele>273.0</ele><time>2026-04-19T11:08:53.998Z</time></trkpt><trkpt lat="45.89875798215747" lon="9.154294503426538"><ele>273.0</ele><time>2026-04-19T11:08:55Z</time></trkpt><trkpt lat="45.89862789135184" lon="9.154351593158246"><ele>273.0</ele><time>2026-04-19T11:08:56Z</time></trkpt><trkpt lat="45.898499033313485" lon="9.154373055857844"><ele>273.0</ele><time>2026-04-19T11:08:57Z</time></trkpt><trkpt lat="45.898383650736235" lon="9.154310596962569"><ele>273.0</ele><time>2026-04-19T11:08:58Z</time></trkpt><trkpt lat="45.89826847264565" lon="9.154269408317473"><ele>272.0</ele><time>2026-04-19T11:08:59Z</time></trkpt><trkpt lat="45.89815934017718" lon="9.154228282275481"><ele>271.0</ele><time>2026-04-19T11:09:00Z</time></trkpt><trkpt lat="45.898052296117534" lon="9.154207789690346"><ele>270.0</ele><time>2026-04-19T11:09:01Z</time></trkpt><trkpt lat="45.8979647462062" lon="9.154150426536999"><ele>269.0</ele><time>2026-04-19T11:09:02Z</time></trkpt><trkpt lat="45.897862919027894" lon="9.154112860612903"><ele>268.0</ele><time>2026-04-19T11:09:03Z</time></trkpt><trkpt lat="45.89763603917037" lon="9.154074196521092"><ele>266.0</ele><time>2026-04-19T11:09:05Z</time></trkpt><trkpt lat="45.89751334798149" lon="9.154076519919123"><ele>264.0</ele><time>2026-04-19T11:09:06Z</time></trkpt><trkpt lat="45.89739560148421" lon="9.154170014908205"><ele>262.0</ele><time>2026-04-19T11:09:07Z</time></trkpt><trkpt lat="45.897301010587064" lon="9.154291800120223"><ele>260.0</ele><time>2026-04-19T11:09:08Z</time></trkpt><trkpt lat="45.89721997384731" lon="9.154447026248311"><ele>260.0</ele><time>2026-04-19T11:09:09Z</time></trkpt><trkpt lat="45.89713147011594" lon="9.15457033506433"><ele>260.0</ele><time>2026-04-19T11:09:10Z</time></trkpt><trkpt lat="45.89701743978406" lon="9.154639930914666"><ele>260.0</ele><time>2026-04-19T11:09:11Z</time></trkpt><trkpt lat="45.89687803555926" lon="9.15471800600558"><ele>260.0</ele><time>2026-04-19T11:09:12Z</time></trkpt><trkpt lat="45.89675821402664" lon="9.154783818004777"><ele>263.8</ele><time>2026-04-19T11:09:13Z</time></trkpt><trkpt lat="45.89665410164691" lon="9.15486308118257"><ele>267.6</ele><time>2026-04-19T11:09:14Z</time></trkpt><trkpt lat="45.89656579636123" lon="9.154911540318581"><ele>271.4</ele><time>2026-04-19T11:09:15Z</time></trkpt><trkpt lat="45.89647931548279" lon="9.1549569964795"><ele>275.2</ele><time>2026-04-19T11:09:16Z</time></trkpt><trkpt lat="45.896414685865196" lon="9.155033264281963"><ele>279.0</ele><time>2026-04-19T11:09:17Z</time></trkpt><trkpt lat="45.89633810367723" lon="9.155077384415383"><ele>279.0</ele><time>2026-04-19T11:09:18Z</time></trkpt><trkpt lat="45.89625815292942" lon="9.155089957297116"><ele>279.0</ele><time>2026-04-19T11:09:19Z</time></trkpt><trkpt lat="45.89615208950978" lon="9.15508779284119"><ele>279.0</ele><time>2026-04-19T11:09:20Z</time></trkpt><trkpt lat="45.89602529928193" lon="9.15504269192597"><ele>279.0</ele><time>2026-04-19T11:09:21Z</time></trkpt><trkpt lat="45.89590679069716" lon="9.155013892231635"><ele>279.0</ele><time>2026-04-19T11:09:22Z</time></trkpt><trkpt lat="45.89580121782586" lon="9.155043427226255"><ele>275.5</ele><time>2026-04-19T11:09:23Z</time></trkpt><trkpt lat="45.89568122805043" lon="9.15505642014015"><ele>272.0</ele><time>2026-04-19T11:09:24Z</time></trkpt><trkpt lat="45.89549670836029" lon="9.155172576139732"><ele>268.5</ele><time>2026-04-19T11:09:26Z</time></trkpt><trkpt lat="45.895420379597816" lon="9.155301757870955"><ele>265.0</ele><time>2026-04-19T11:09:27Z</time></trkpt><trkpt lat="45.89535795683726" lon="9.155432170743987"><ele>265.0</ele><time>2026-04-19T11:09:28Z</time></trkpt><trkpt lat="45.89527154647608" lon="9.155536558721447"><ele>265.0</ele><time>2026-04-19T11:09:29Z</time></trkpt><trkpt lat="45.89517394601733" lon="9.155595731628617"><ele>265.0</ele><time>2026-04-19T11:09:30Z</time></trkpt><trkpt lat="45.895078362525936" lon="9.155556118143211"><ele>265.0</ele><time>2026-04-19T11:09:31Z</time></trkpt><trkpt lat="45.89498871923999" lon="9.155498380319628"><ele>265.0</ele><time>2026-04-19T11:09:32Z</time></trkpt><trkpt lat="45.89488763874692" lon="9.155414356109894"><ele>264.5</ele><time>2026-04-19T11:09:33Z</time></trkpt><trkpt lat="45.89477800089753" lon="9.155312844813208"><ele>264.0</ele><time>2026-04-19T11:09:34Z</time></trkpt><trkpt lat="45.894673948988085" lon="9.155215393797587"><ele>263.5</ele><time>2026-04-19T11:09:35Z</time></trkpt><trkpt lat="45.89456959221216" lon="9.155144627655929"><ele>263.0</ele><time>2026-04-19T11:09:36Z</time></trkpt><trkpt lat="45.894486225945606" lon="9.155012932663004"><ele>257.25</ele><time>2026-04-19T11:09:37Z</time></trkpt><trkpt lat="45.89445246777143" lon="9.154852443897882"><ele>251.5</ele><time>2026-04-19T11:09:38Z</time></trkpt><trkpt lat="45.89439600516816" lon="9.154694808196975"><ele>245.75</ele><time>2026-04-19T11:09:39Z</time></trkpt><trkpt lat="45.89433834243172" lon="9.154538484674918"><ele>240.0</ele><time>2026-04-19T11:09:40Z</time></trkpt><trkpt lat="45.894263838885735" lon="9.154403136087874"><ele>246.75</ele><time>2026-04-19T11:09:41Z</time></trkpt><trkpt lat="45.894189062689954" lon="9.154263449893238"><ele>253.5</ele><time>2026-04-19T11:09:42Z</time></trkpt><trkpt lat="45.8940793290691" lon="9.154199287549776"><ele>260.25</ele><time>2026-04-19T11:09:42.999Z</time></trkpt><trkpt lat="45.893977560637715" lon="9.154174325951846"><ele>267.0</ele><time>2026-04-19T11:09:43.999Z</time></trkpt><trkpt lat="45.89384315100527" lon="9.154200256511318"><ele>267.0</ele><time>2026-04-19T11:09:44.999Z</time></trkpt><trkpt lat="45.893611023076836" lon="9.15442193363445"><ele>267.0</ele><time>2026-04-19T11:09:46.999Z</time></trkpt><trkpt lat="45.893515256120565" lon="9.154605894935989"><ele>267.0</ele><time>2026-04-19T11:09:47.999Z</time></trkpt><trkpt lat="45.89340194016038" lon="9.154741399442374"><ele>263.25</ele><time>2026-04-19T11:09:48.999Z</time></trkpt><trkpt lat="45.893313740978655" lon="9.15485528911763"><ele>259.5</ele><time>2026-04-19T11:09:49.999Z</time></trkpt><trkpt lat="45.893224338313935" lon="9.154960280647924"><ele>255.75</ele><time>2026-04-19T11:09:50.999Z</time></trkpt><trkpt lat="45.89312711661946" lon="9.155023777050776"><ele>252.0</ele><time>2026-04-19T11:09:51.999Z</time></trkpt><trkpt lat="45.89301320298021" lon="9.1550032588384"><ele>259.25</ele><time>2026-04-19T11:09:52.999Z</time></trkpt><trkpt lat="45.8928796934908" lon="9.15501426096703"><ele>266.5</ele><time>2026-04-19T11:09:53.999Z</time></trkpt><trkpt lat="45.89275795241212" lon="9.155023695191042"><ele>273.75</ele><time>2026-04-19T11:09:54.999Z</time></trkpt><trkpt lat="45.89263204610463" lon="9.155032670597812"><ele>281.0</ele><time>2026-04-19T11:09:55.999Z</time></trkpt><trkpt lat="45.892486130449285" lon="9.155042718481475"><ele>281.0</ele><time>2026-04-19T11:09:56.999Z</time></trkpt><trkpt lat="45.892324173167125" lon="9.155050895564532"><ele>281.0</ele><time>2026-04-19T11:09:57.999Z</time></trkpt><trkpt lat="45.89216592438266" lon="9.155057978630596"><ele>281.0</ele><time>2026-04-19T11:09:58.999Z</time></trkpt><trkpt lat="45.892017295943596" lon="9.155099411873655"><ele>281.0</ele><time>2026-04-19T11:09:59.999Z</time></trkpt><trkpt lat="45.89186891060792" lon="9.155132633184653"><ele>281.0</ele><time>2026-04-19T11:10:00.999Z</time></trkpt><trkpt lat="45.891725052939535" lon="9.155186448341361"><ele>281.0</ele><time>2026-04-19T11:10:01.999Z</time></trkpt><trkpt lat="45.891581067791535" lon="9.155231130653396"><ele>281.0</ele><time>2026-04-19T11:10:02.999Z</time></trkpt><trkpt lat="45.89143524892281" lon="9.155241655444676"><ele>278.0</ele><time>2026-04-19T11:10:03.999Z</time></trkpt><trkpt lat="45.89130272364531" lon="9.155308042493576"><ele>275.0</ele><time>2026-04-19T11:10:04.999Z</time></trkpt><trkpt lat="45.89119390535566" lon="9.155375824826807"><ele>272.0</ele><time>2026-04-19T11:10:05.999Z</time></trkpt><trkpt lat="45.890950576867745" lon="9.155652827984415"><ele>277.5</ele><time>2026-04-19T11:10:07.999Z</time></trkpt><trkpt lat="45.890843750671124" lon="9.155756912722438"><ele>283.0</ele><time>2026-04-19T11:10:08.999Z</time></trkpt><trkpt lat="45.890755489469015" lon="9.155857742382347"><ele>288.5</ele><time>2026-04-19T11:10:09.999Z</time></trkpt><trkpt lat="45.8906809740335" lon="9.15597103933009"><ele>294.0</ele><time>2026-04-19T11:10:10.999Z</time></trkpt><trkpt lat="45.89060674172831" lon="9.156066229771493"><ele>294.0</ele><time>2026-04-19T11:10:11.999Z</time></trkpt><trkpt lat="45.89053836211933" lon="9.156146877115194"><ele>294.0</ele><time>2026-04-19T11:10:12.999Z</time></trkpt><trkpt lat="45.89045484499421" lon="9.156165303688608"><ele>294.0</ele><time>2026-04-19T11:10:13.999Z</time></trkpt><trkpt lat="45.89035812325325" lon="9.156139352864406"><ele>294.0</ele><time>2026-04-19T11:10:14.999Z</time></trkpt><trkpt lat="45.890248615511425" lon="9.156090240190942"><ele>294.0</ele><time>2026-04-19T11:10:15.999Z</time></trkpt><trkpt lat="45.89012559224455" lon="9.15603528572288"><ele>290.0</ele><time>2026-04-19T11:10:16.999Z</time></trkpt><trkpt lat="45.88997673541524" lon="9.15597734352514"><ele>286.0</ele><time>2026-04-19T11:10:17.999Z</time></trkpt><trkpt lat="45.889824565901" lon="9.155983461278392"><ele>282.0</ele><time>2026-04-19T11:10:18.999Z</time></trkpt><trkpt lat="45.88968697147036" lon="9.155993876320569"><ele>278.0</ele><time>2026-04-19T11:10:19.999Z</time></trkpt><trkpt lat="45.889559217623194" lon="9.156046808924033"><ele>278.0</ele><time>2026-04-19T11:10:20.999Z</time></trkpt><trkpt lat="45.88944782806742" lon="9.156133804141323"><ele>278.0</ele><time>2026-04-19T11:10:21.999Z</time></trkpt><trkpt lat="45.88933157268292" lon="9.156164932905115"><ele>278.0</ele><time>2026-04-19T11:10:22.999Z</time></trkpt><trkpt lat="45.889226603555834" lon="9.15615975048967"><ele>278.0</ele><time>2026-04-19T11:10:23.999Z</time></trkpt><trkpt lat="45.889106828513825" lon="9.156122859625846"><ele>277.33333333333337</ele><time>2026-04-19T11:10:24.999Z</time></trkpt><trkpt lat="45.88896743041312" lon="9.156083821701994"><ele>276.6666666666667</ele><time>2026-04-19T11:10:25.999Z</time></trkpt><trkpt lat="45.888795585896155" lon="9.156040123243885"><ele>276.0</ele><time>2026-04-19T11:10:26.999Z</time></trkpt><trkpt lat="45.888518818493736" lon="9.155997652443736"><ele>271.75</ele><time>2026-04-19T11:10:28.999Z</time></trkpt><trkpt lat="45.88839522180829" lon="9.156001170173901"><ele>267.5</ele><time>2026-04-19T11:10:29.999Z</time></trkpt><trkpt lat="45.88826008731766" lon="9.156022735961704"><ele>263.25</ele><time>2026-04-19T11:10:30.999Z</time></trkpt><trkpt lat="45.888140793486" lon="9.156065194781549"><ele>259.0</ele><time>2026-04-19T11:10:31.999Z</time></trkpt><trkpt lat="45.88804537348407" lon="9.156160610794291"><ele>259.0</ele><time>2026-04-19T11:10:32.999Z</time></trkpt><trkpt lat="45.88797827383119" lon="9.15627820992395"><ele>259.0</ele><time>2026-04-19T11:10:33.999Z</time></trkpt><trkpt lat="45.8879619766984" lon="9.156431403737166"><ele>259.0</ele><time>2026-04-19T11:10:34.999Z</time></trkpt><trkpt lat="45.88795061846859" lon="9.156613710020782"><ele>259.0</ele><time>2026-04-19T11:10:35.999Z</time></trkpt><trkpt lat="45.88796580942417" lon="9.156851140856325"><ele>267.75</ele><time>2026-04-19T11:10:36.999Z</time></trkpt><trkpt lat="45.88788856150877" lon="9.157032579470918"><ele>276.5</ele><time>2026-04-19T11:10:37.999Z</time></trkpt><trkpt lat="45.88782684688265" lon="9.157208199898067"><ele>285.25</ele><time>2026-04-19T11:10:38.999Z</time></trkpt><trkpt lat="45.88778575358141" lon="9.157388241739632"><ele>294.0</ele><time>2026-04-19T11:10:39.999Z</time></trkpt><trkpt lat="45.88773402387012" lon="9.15751743060499"><ele>293.0</ele><time>2026-04-19T11:10:40.999Z</time></trkpt><trkpt lat="45.88769238856043" lon="9.157648175798279"><ele>292.0</ele><time>2026-04-19T11:10:41.999Z</time></trkpt><trkpt lat="45.88764135447701" lon="9.157750839726006"><ele>291.0</ele><time>2026-04-19T11:10:42.999Z</time></trkpt><trkpt lat="45.88761427133779" lon="9.157845540270706"><ele>290.0</ele><time>2026-04-19T11:10:43.999Z</time></trkpt><trkpt lat="45.88753665893118" lon="9.157856860521612"><ele>289.0</ele><time>2026-04-19T11:10:44.999Z</time></trkpt><trkpt lat="45.8874690533657" lon="9.157827513579322"><ele>288.0</ele><time>2026-04-19T11:10:45.999Z</time></trkpt><trkpt lat="45.88737750982772" lon="9.157756255221127"><ele>288.0</ele><time>2026-04-19T11:10:46.999Z</time></trkpt><trkpt lat="45.887297793560094" lon="9.157649506146374"><ele>288.0</ele><time>2026-04-19T11:10:47.999Z</time></trkpt><trkpt lat="45.887094655592904" lon="9.157469101460988"><ele>288.0</ele><time>2026-04-19T11:10:49.998Z</time></trkpt><trkpt lat="45.88697813994458" lon="9.157375391653664"><ele>276.0</ele><time>2026-04-19T11:10:50.998Z</time></trkpt><trkpt lat="45.88681378568814" lon="9.157322140717449"><ele>264.0</ele><time>2026-04-19T11:10:51.998Z</time></trkpt><trkpt lat="45.8866252625489" lon="9.157275795587195"><ele>252.0</ele><time>2026-04-19T11:10:52.998Z</time></trkpt><trkpt lat="45.88648196724151" lon="9.157200261973127"><ele>250.5</ele><time>2026-04-19T11:10:53.998Z</time></trkpt><trkpt lat="45.88635365086796" lon="9.157122158405345"><ele>249.0</ele><time>2026-04-19T11:10:54.998Z</time></trkpt><trkpt lat="45.88621977271978" lon="9.157056141605594"><ele>247.5</ele><time>2026-04-19T11:10:55.998Z</time></trkpt><trkpt lat="45.88609139192872" lon="9.156997259102248"><ele>246.0</ele><time>2026-04-19T11:10:56.998Z</time></trkpt><trkpt lat="45.88595944750531" lon="9.156936759143482"><ele>248.25</ele><time>2026-04-19T11:10:57.998Z</time></trkpt><trkpt lat="45.8858406788496" lon="9.156875963740216"><ele>250.5</ele><time>2026-04-19T11:10:58.998Z</time></trkpt><trkpt lat="45.88572680507169" lon="9.156824477264584"><ele>252.75</ele><time>2026-04-19T11:10:59.998Z</time></trkpt><trkpt lat="45.88560464269616" lon="9.156788481979238"><ele>255.0</ele><time>2026-04-19T11:11:01Z</time></trkpt><trkpt lat="45.88548434747219" lon="9.156802508286873"><ele>255.0</ele><time>2026-04-19T11:11:02Z</time></trkpt><trkpt lat="45.8853483412052" lon="9.156808033196508"><ele>255.0</ele><time>2026-04-19T11:11:03Z</time></trkpt><trkpt lat="45.88521169250389" lon="9.156818064346592"><ele>255.0</ele><time>2026-04-19T11:11:04Z</time></trkpt><trkpt lat="45.88511163469675" lon="9.156820850034396"><ele>255.0</ele><time>2026-04-19T11:11:05Z</time></trkpt><trkpt lat="45.88498644335902" lon="9.15681071755434"><ele>255.25</ele><time>2026-04-19T11:11:06Z</time></trkpt><trkpt lat="45.884842316782255" lon="9.156809699540645"><ele>255.5</ele><time>2026-04-19T11:11:07Z</time></trkpt><trkpt lat="45.88469651260122" lon="9.156814603079134"><ele>255.75</ele><time>2026-04-19T11:11:08Z</time></trkpt><trkpt lat="45.88455848555546" lon="9.156821288336404"><ele>256.0</ele><time>2026-04-19T11:11:09Z</time></trkpt><trkpt lat="45.884293411320094" lon="9.156891569110051"><ele>253.5</ele><time>2026-04-19T11:11:11Z</time></trkpt><trkpt lat="45.884155153966006" lon="9.156974808916445"><ele>251.0</ele><time>2026-04-19T11:11:12Z</time></trkpt><trkpt lat="45.884032308371125" lon="9.157057286817155"><ele>248.5</ele><time>2026-04-19T11:11:13Z</time></trkpt><trkpt lat="45.883901748144986" lon="9.157129117045713"><ele>246.0</ele><time>2026-04-19T11:11:14Z</time></trkpt><trkpt lat="45.88378586168175" lon="9.157202391445507"><ele>246.0</ele><time>2026-04-19T11:11:15Z</time></trkpt><trkpt lat="45.883692219887116" lon="9.157305604905817"><ele>246.0</ele><time>2026-04-19T11:11:16Z</time></trkpt><trkpt lat="45.883616665135555" lon="9.157412378167365"><ele>246.0</ele><time>2026-04-19T11:11:17Z</time></trkpt><trkpt lat="45.88358131613881" lon="9.157572816010754"><ele>246.0</ele><time>2026-04-19T11:11:18Z</time></trkpt><trkpt lat="45.8835493956998" lon="9.157734475156023"><ele>248.20000000000002</ele><time>2026-04-19T11:11:19Z</time></trkpt><trkpt lat="45.88349323371561" lon="9.15786282515729"><ele>250.40000000000003</ele><time>2026-04-19T11:11:20Z</time></trkpt><trkpt lat="45.88342909468129" lon="9.157939032608269"><ele>252.6</ele><time>2026-04-19T11:11:21Z</time></trkpt><trkpt lat="45.883343686336744" lon="9.15796231225135"><ele>254.8</ele><time>2026-04-19T11:11:22Z</time></trkpt><trkpt lat="45.88324513552906" lon="9.157918462044321"><ele>257.0</ele><time>2026-04-19T11:11:23Z</time></trkpt><trkpt lat="45.88312714729165" lon="9.157911120677015"><ele>257.0</ele><time>2026-04-19T11:11:24Z</time></trkpt><trkpt lat="45.88301828287788" lon="9.157881572143694"><ele>257.0</ele><time>2026-04-19T11:11:25Z</time></trkpt><trkpt lat="45.88291735985196" lon="9.157807262915586"><ele>257.0</ele><time>2026-04-19T11:11:26Z</time></trkpt><trkpt lat="45.882867180714314" lon="9.157645772631362"><ele>257.0</ele><time>2026-04-19T11:11:27Z</time></trkpt><trkpt lat="45.882810601348154" lon="9.157507507870024"><ele>257.0</ele><time>2026-04-19T11:11:28Z</time></trkpt><trkpt lat="45.882749337436174" lon="9.157401143146128"><ele>257.0</ele><time>2026-04-19T11:11:29Z</time></trkpt><trkpt lat="45.88266145579435" lon="9.157321761975563"><ele>257.0</ele><time>2026-04-19T11:11:30Z</time></trkpt><trkpt lat="45.88241879733263" lon="9.157288651756478"><ele>257.0</ele><time>2026-04-19T11:11:32Z</time></trkpt><trkpt lat="45.88227590612723" lon="9.157278140650185"><ele>257.25</ele><time>2026-04-19T11:11:33Z</time></trkpt><trkpt lat="45.88214642316066" lon="9.157280889690378"><ele>257.5</ele><time>2026-04-19T11:11:34Z</time></trkpt><trkpt lat="45.882006727405944" lon="9.157318673825145"><ele>257.75</ele><time>2026-04-19T11:11:35Z</time></trkpt><trkpt lat="45.88186712963409" lon="9.157372479083353"><ele>258.0</ele><time>2026-04-19T11:11:36Z</time></trkpt><trkpt lat="45.88173702483095" lon="9.157456816298982"><ele>258.0</ele><time>2026-04-19T11:11:37Z</time></trkpt><trkpt lat="45.88163320621573" lon="9.157562583175086"><ele>258.0</ele><time>2026-04-19T11:11:38Z</time></trkpt><trkpt lat="45.88155493013987" lon="9.157702677994253"><ele>258.0</ele><time>2026-04-19T11:11:39Z</time></trkpt><trkpt lat="45.88148921161345" lon="9.157836669905052"><ele>258.0</ele><time>2026-04-19T11:11:40Z</time></trkpt><trkpt lat="45.88141730025647" lon="9.157915537039557"><ele>258.0</ele><time>2026-04-19T11:11:41Z</time></trkpt><trkpt lat="45.88134493749086" lon="9.157893279896916"><ele>258.0</ele><time>2026-04-19T11:11:42Z</time></trkpt><trkpt lat="45.881255971525384" lon="9.157874864489731"><ele>258.0</ele><time>2026-04-19T11:11:43Z</time></trkpt><trkpt lat="45.881131660013146" lon="9.157898547449642"><ele>258.0</ele><time>2026-04-19T11:11:44Z</time></trkpt><trkpt lat="45.881009823858186" lon="9.157830479678061"><ele>258.0</ele><time>2026-04-19T11:11:45Z</time></trkpt><trkpt lat="45.880886086567415" lon="9.157750411554172"><ele>256.6666666666667</ele><time>2026-04-19T11:11:46Z</time></trkpt><trkpt lat="45.88074953003396" lon="9.157671120349422"><ele>255.33333333333334</ele><time>2026-04-19T11:11:46.999Z</time></trkpt><trkpt lat="45.88060530608375" lon="9.15759876871448"><ele>254.0</ele><time>2026-04-19T11:11:47.999Z</time></trkpt><trkpt lat="45.88043716761688" lon="9.157593082284194"><ele>254.0</ele><time>2026-04-19T11:11:48.999Z</time></trkpt><trkpt lat="45.880267918950295" lon="9.15758594652283"><ele>254.0</ele><time>2026-04-19T11:11:49.999Z</time></trkpt><trkpt lat="45.8801222670874" lon="9.1575787764546"><ele>254.0</ele><time>2026-04-19T11:11:50.999Z</time></trkpt><trkpt lat="45.87987476942479" lon="9.157600854726567"><ele>254.75</ele><time>2026-04-19T11:11:52.999Z</time></trkpt><trkpt lat="45.879751221604344" lon="9.15762852671764"><ele>255.5</ele><time>2026-04-19T11:11:53.999Z</time></trkpt><trkpt lat="45.87961728770599" lon="9.157715847402493"><ele>256.25</ele><time>2026-04-19T11:11:54.999Z</time></trkpt><trkpt lat="45.87948266012733" lon="9.157777178028706"><ele>257.0</ele><time>2026-04-19T11:11:55.999Z</time></trkpt><trkpt lat="45.87933157829552" lon="9.157846830011257"><ele>256.25</ele><time>2026-04-19T11:11:56.999Z</time></trkpt><trkpt lat="45.879178833105335" lon="9.15790816318082"><ele>255.5</ele><time>2026-04-19T11:11:57.999Z</time></trkpt><trkpt lat="45.87903855968161" lon="9.157955114377192"><ele>254.75</ele><time>2026-04-19T11:11:58.999Z</time></trkpt><trkpt lat="45.87890840572421" lon="9.157959382077054"><ele>254.0</ele><time>2026-04-19T11:11:59.999Z</time></trkpt><trkpt lat="45.87880915546506" lon="9.15796386913504"><ele>254.0</ele><time>2026-04-19T11:12:00.999Z</time></trkpt><trkpt lat="45.878695578888454" lon="9.157952004389493"><ele>254.0</ele><time>2026-04-19T11:12:01.999Z</time></trkpt><trkpt lat="45.87856531217399" lon="9.157946018003306"><ele>254.0</ele><time>2026-04-19T11:12:02.999Z</time></trkpt><trkpt lat="45.87841619081672" lon="9.15789057700986"><ele>254.0</ele><time>2026-04-19T11:12:03.999Z</time></trkpt><trkpt lat="45.878259224614084" lon="9.157854755128152"><ele>255.33333333333334</ele><time>2026-04-19T11:12:04.999Z</time></trkpt><trkpt lat="45.87807430802345" lon="9.157792463439534"><ele>256.6666666666667</ele><time>2026-04-19T11:12:05.999Z</time></trkpt><trkpt lat="45.877921814860755" lon="9.157707785720216"><ele>258.0</ele><time>2026-04-19T11:12:06.999Z</time></trkpt><trkpt lat="45.87778404047017" lon="9.157693596343037"><ele>258.0</ele><time>2026-04-19T11:12:07.999Z</time></trkpt><trkpt lat="45.87765864920172" lon="9.157680596759379"><ele>258.0</ele><time>2026-04-19T11:12:08.999Z</time></trkpt><trkpt lat="45.877536117023396" lon="9.15771174712116"><ele>258.0</ele><time>2026-04-19T11:12:09.999Z</time></trkpt><trkpt lat="45.877415570718675" lon="9.157786527332423"><ele>258.0</ele><time>2026-04-19T11:12:10.999Z</time></trkpt><trkpt lat="45.87730142188814" lon="9.157922672268878"><ele>259.25</ele><time>2026-04-19T11:12:11.999Z</time></trkpt><trkpt lat="45.87708105928223" lon="9.158154245693476"><ele>260.5</ele><time>2026-04-19T11:12:13.999Z</time></trkpt><trkpt lat="45.876996794193936" lon="9.15819420269239"><ele>261.75</ele><time>2026-04-19T11:12:14.999Z</time></trkpt><trkpt lat="45.876931912813305" lon="9.158181407714046"><ele>263.0</ele><time>2026-04-19T11:12:15.999Z</time></trkpt><trkpt lat="45.87686254169217" lon="9.158115052759058"><ele>263.0</ele><time>2026-04-19T11:12:16.999Z</time></trkpt><trkpt lat="45.876798414594546" lon="9.158003071974314"><ele>263.0</ele><time>2026-04-19T11:12:17.999Z</time></trkpt><trkpt lat="45.876784168689305" lon="9.157861007291011"><ele>263.0</ele><time>2026-04-19T11:12:18.999Z</time></trkpt><trkpt lat="45.87677194464785" lon="9.157671957230312"><ele>263.0</ele><time>2026-04-19T11:12:19.999Z</time></trkpt><trkpt lat="45.876722406407836" lon="9.15747061600726"><ele>261.33333333333337</ele><time>2026-04-19T11:12:20.999Z</time></trkpt><trkpt lat="45.87662448844551" lon="9.157277666824026"><ele>259.6666666666667</ele><time>2026-04-19T11:12:21.999Z</time></trkpt><trkpt lat="45.87650696497552" lon="9.157138612441356"><ele>258.0</ele><time>2026-04-19T11:12:22.999Z</time></trkpt><trkpt lat="45.876358816648406" lon="9.15703873134155"><ele>258.0</ele><time>2026-04-19T11:12:23.999Z</time></trkpt><trkpt lat="45.87621343740255" lon="9.15698867978552"><ele>258.0</ele><time>2026-04-19T11:12:24.999Z</time></trkpt><trkpt lat="45.876071175746574" lon="9.156961135143394"><ele>258.0</ele><time>2026-04-19T11:12:25.999Z</time></trkpt><trkpt lat="45.8759386054976" lon="9.156953235802167"><ele>258.0</ele><time>2026-04-19T11:12:26.999Z</time></trkpt><trkpt lat="45.875815824533944" lon="9.156967959004959"><ele>262.0</ele><time>2026-04-19T11:12:27.999Z</time></trkpt><trkpt lat="45.87567867320112" lon="9.157018949377697"><ele>266.0</ele><time>2026-04-19T11:12:28.999Z</time></trkpt><trkpt lat="45.87552309498557" lon="9.157089621307197"><ele>270.0</ele><time>2026-04-19T11:12:29.999Z</time></trkpt><trkpt lat="45.87538435240234" lon="9.157154938479698"><ele>270.0</ele><time>2026-04-19T11:12:30.999Z</time></trkpt><trkpt lat="45.87524613315291" lon="9.157219813578424"><ele>270.0</ele><time>2026-04-19T11:12:31.999Z</time></trkpt><trkpt lat="45.875105032416236" lon="9.157285589350305"><ele>270.0</ele><time>2026-04-19T11:12:32.999Z</time></trkpt><trkpt lat="45.8748590349706" lon="9.157489398222472"><ele>273.25</ele><time>2026-04-19T11:12:34.999Z</time></trkpt><trkpt lat="45.8747654919257" lon="9.157622529156209"><ele>276.5</ele><time>2026-04-19T11:12:35.999Z</time></trkpt><trkpt lat="45.87467302008482" lon="9.157771893785045"><ele>279.75</ele><time>2026-04-19T11:12:36.999Z</time></trkpt><trkpt lat="45.87458948518711" lon="9.15789887391893"><ele>283.0</ele><time>2026-04-19T11:12:37.999Z</time></trkpt><trkpt lat="45.874500823802165" lon="9.15794052779563"><ele>283.0</ele><time>2026-04-19T11:12:38.999Z</time></trkpt><trkpt lat="45.874381150823986" lon="9.15796596580475"><ele>283.0</ele><time>2026-04-19T11:12:39.999Z</time></trkpt><trkpt lat="45.874275570822086" lon="9.157898717554342"><ele>283.0</ele><time>2026-04-19T11:12:40.999Z</time></trkpt><trkpt lat="45.87415480200979" lon="9.157834054259494"><ele>283.0</ele><time>2026-04-19T11:12:41.999Z</time></trkpt><trkpt lat="45.87402368620986" lon="9.157796518162824"><ele>277.75</ele><time>2026-04-19T11:12:42.999Z</time></trkpt><trkpt lat="45.873896213662306" lon="9.157789571202207"><ele>272.5</ele><time>2026-04-19T11:12:43.999Z</time></trkpt><trkpt lat="45.87376103212767" lon="9.157813826645366"><ele>267.25</ele><time>2026-04-19T11:12:44.999Z</time></trkpt><trkpt lat="45.87361982970647" lon="9.157848473665606"><ele>262.0</ele><time>2026-04-19T11:12:45.999Z</time></trkpt><trkpt lat="45.87347609996299" lon="9.157885059428757"><ele>262.25</ele><time>2026-04-19T11:12:46.999Z</time></trkpt><trkpt lat="45.873322811269595" lon="9.157921291661978"><ele>262.5</ele><time>2026-04-19T11:12:47.999Z</time></trkpt><trkpt lat="45.873177410811856" lon="9.157950826705706"><ele>262.75</ele><time>2026-04-19T11:12:48.999Z</time></trkpt><trkpt lat="45.873035001413974" lon="9.157969168265211"><ele>263.0</ele><time>2026-04-19T11:12:49.999Z</time></trkpt><trkpt lat="45.8728982140014" lon="9.157982292736827"><ele>263.0</ele><time>2026-04-19T11:12:50.999Z</time></trkpt><trkpt lat="45.87274546548098" lon="9.157994884473274"><ele>263.0</ele><time>2026-04-19T11:12:51.998Z</time></trkpt><trkpt lat="45.87260662371937" lon="9.158000908589512"><ele>263.0</ele><time>2026-04-19T11:12:52.998Z</time></trkpt><trkpt lat="45.872475846835684" lon="9.15803003315999"><ele>263.0</ele><time>2026-04-19T11:12:53.998Z</time></trkpt><trkpt lat="45.872247317918145" lon="9.158157892138604"><ele>269.2</ele><time>2026-04-19T11:12:55.998Z</time></trkpt><trkpt lat="45.872151846512594" lon="9.158280205005292"><ele>275.4</ele><time>2026-04-19T11:12:56.998Z</time></trkpt><trkpt lat="45.87206366059841" lon="9.158366830282414"><ele>281.59999999999997</ele><time>2026-04-19T11:12:57.998Z</time></trkpt><trkpt lat="45.87197523416789" lon="9.158384580540682"><ele>287.8</ele><time>2026-04-19T11:12:58.998Z</time></trkpt><trkpt lat="45.87188851906388" lon="9.158363229685895"><ele>294.0</ele><time>2026-04-19T11:12:59.998Z</time></trkpt><trkpt lat="45.871795910588716" lon="9.158264836731167"><ele>294.5</ele><time>2026-04-19T11:13:00.998Z</time></trkpt><trkpt lat="45.87168996233256" lon="9.158201816491067"><ele>295.0</ele><time>2026-04-19T11:13:01.998Z</time></trkpt><trkpt lat="45.871563889298166" lon="9.158127938102947"><ele>295.5</ele><time>2026-04-19T11:13:02.998Z</time></trkpt><trkpt lat="45.871401298234666" lon="9.158048807926985"><ele>296.0</ele><time>2026-04-19T11:13:03.998Z</time></trkpt><trkpt lat="45.87122182463598" lon="9.157978330183905"><ele>290.33333333333337</ele><time>2026-04-19T11:13:04.998Z</time></trkpt><trkpt lat="45.87104302359616" lon="9.157912059251837"><ele>284.6666666666667</ele><time>2026-04-19T11:13:05.998Z</time></trkpt><trkpt lat="45.8708811810507" lon="9.157877203745368"><ele>279.0</ele><time>2026-04-19T11:13:07Z</time></trkpt><trkpt lat="45.87073729782522" lon="9.157834165640176"><ele>279.0</ele><time>2026-04-19T11:13:08Z</time></trkpt><trkpt lat="45.870602086538064" lon="9.15780790645412"><ele>279.0</ele><time>2026-04-19T11:13:09Z</time></trkpt><trkpt lat="45.87046358268073" lon="9.157790217126937"><ele>279.0</ele><time>2026-04-19T11:13:10Z</time></trkpt><trkpt lat="45.87032559569576" lon="9.157809123983931"><ele>279.0</ele><time>2026-04-19T11:13:11Z</time></trkpt><trkpt lat="45.87019775263828" lon="9.157827205033009"><ele>283.0</ele><time>2026-04-19T11:13:12Z</time></trkpt><trkpt lat="45.87008972684978" lon="9.157778774248301"><ele>287.0</ele><time>2026-04-19T11:13:13Z</time></trkpt><trkpt lat="45.86997857714769" lon="9.157695553385999"><ele>291.0</ele><time>2026-04-19T11:13:14Z</time></trkpt><trkpt lat="45.86986014698893" lon="9.157656689303531"><ele>295.0</ele><time>2026-04-19T11:13:15Z</time></trkpt><trkpt lat="45.86962022784313" lon="9.157700088969538"><ele>295.0</ele><time>2026-04-19T11:13:17Z</time></trkpt><trkpt lat="45.869520457601276" lon="9.157729006378947"><ele>295.0</ele><time>2026-04-19T11:13:18Z</time></trkpt><trkpt lat="45.869419384083734" lon="9.157659858412892"><ele>295.0</ele><time>2026-04-19T11:13:19Z</time></trkpt><trkpt lat="45.8693431416459" lon="9.157543958407453"><ele>295.0</ele><time>2026-04-19T11:13:20Z</time></trkpt><trkpt lat="45.86929603307536" lon="9.157391271436762"><ele>295.0</ele><time>2026-04-19T11:13:21Z</time></trkpt><trkpt lat="45.869254403595754" lon="9.157230157893178"><ele>290.75</ele><time>2026-04-19T11:13:22Z</time></trkpt><trkpt lat="45.869156520175856" lon="9.157082215844312"><ele>286.5</ele><time>2026-04-19T11:13:23Z</time></trkpt><trkpt lat="45.86903043109929" lon="9.156986594965653"><ele>282.25</ele><time>2026-04-19T11:13:24Z</time></trkpt><trkpt lat="45.868893695640054" lon="9.156945968290772"><ele>278.0</ele><time>2026-04-19T11:13:25Z</time></trkpt><trkpt lat="45.868754873823505" lon="9.15689202848783"><ele>278.0</ele><time>2026-04-19T11:13:26Z</time></trkpt><trkpt lat="45.86862874355294" lon="9.15682749346709"><ele>278.0</ele><time>2026-04-19T11:13:27Z</time></trkpt><trkpt lat="45.86854541383106" lon="9.156658925273998"><ele>278.0</ele><time>2026-04-19T11:13:28Z</time></trkpt><trkpt lat="45.86843027293414" lon="9.156533881380737"><ele>278.0</ele><time>2026-04-19T11:13:29Z</time></trkpt><trkpt lat="45.86829949898004" lon="9.156429724665562"><ele>275.25</ele><time>2026-04-19T11:13:30Z</time></trkpt><trkpt lat="45.868168521625805" lon="9.156344902334986"><ele>272.5</ele><time>2026-04-19T11:13:31Z</time></trkpt><trkpt lat="45.86803906068421" lon="9.15623677122486"><ele>269.75</ele><time>2026-04-19T11:13:32Z</time></trkpt><trkpt lat="45.867909947655676" lon="9.156123624949158"><ele>267.0</ele><time>2026-04-19T11:13:33Z</time></trkpt><trkpt lat="45.867804269331636" lon="9.155949007230145"><ele>267.0</ele><time>2026-04-19T11:13:34Z</time></trkpt><trkpt lat="45.867679358107914" lon="9.155809503763917"><ele>267.0</ele><time>2026-04-19T11:13:35Z</time></trkpt><trkpt lat="45.86755243292084" lon="9.155666944384722"><ele>267.0</ele><time>2026-04-19T11:13:36Z</time></trkpt><trkpt lat="45.86731192693703" lon="9.155381486935264"><ele>265.3333333333333</ele><time>2026-04-19T11:13:38Z</time></trkpt><trkpt lat="45.867185947999126" lon="9.155240228964429"><ele>263.66666666666663</ele><time>2026-04-19T11:13:39Z</time></trkpt><trkpt lat="45.867065677890984" lon="9.155119672859044"><ele>262.0</ele><time>2026-04-19T11:13:40Z</time></trkpt><trkpt lat="45.866936031420224" lon="9.155012770619726"><ele>262.0</ele><time>2026-04-19T11:13:41Z</time></trkpt><trkpt lat="45.86680190720646" lon="9.154907553643223"><ele>262.0</ele><time>2026-04-19T11:13:42Z</time></trkpt><trkpt lat="45.866677184223796" lon="9.154810894793865"><ele>262.0</ele><time>2026-04-19T11:13:43Z</time></trkpt><trkpt lat="45.86655896112808" lon="9.154717648032557"><ele>262.0</ele><time>2026-04-19T11:13:44Z</time></trkpt><trkpt lat="45.86643326344673" lon="9.15461402799629"><ele>258.75</ele><time>2026-04-19T11:13:45Z</time></trkpt><trkpt lat="45.86629375404618" lon="9.154535251906529"><ele>255.5</ele><time>2026-04-19T11:13:46Z</time></trkpt><trkpt lat="45.86616883406703" lon="9.154416757802775"><ele>252.25</ele><time>2026-04-19T11:13:47Z</time></trkpt><trkpt lat="45.86605052473702" lon="9.15428802741862"><ele>249.0</ele><time>2026-04-19T11:13:48Z</time></trkpt><trkpt lat="45.86593577985925" lon="9.154152138743187"><ele>250.25</ele><time>2026-04-19T11:13:49Z</time></trkpt><trkpt lat="45.865830026035155" lon="9.154018724552879"><ele>251.5</ele><time>2026-04-19T11:13:50Z</time></trkpt><trkpt lat="45.86573174258854" lon="9.153868143566893"><ele>252.75</ele><time>2026-04-19T11:13:51Z</time></trkpt><trkpt lat="45.86563048612823" lon="9.153735029016879"><ele>254.0</ele><time>2026-04-19T11:13:52Z</time></trkpt><trkpt lat="45.86552945677856" lon="9.153603437521012"><ele>254.0</ele><time>2026-04-19T11:13:53Z</time></trkpt><trkpt lat="45.86541827667165" lon="9.153526580624993"><ele>253.99999999999997</ele><time>2026-04-19T11:13:54Z</time></trkpt><trkpt lat="45.86530957512028" lon="9.153484498799692"><ele>253.99999999999997</ele><time>2026-04-19T11:13:54.999Z</time></trkpt><trkpt lat="45.86523860655002" lon="9.15340320519326"><ele>254.0</ele><time>2026-04-19T11:13:55.999Z</time></trkpt><trkpt lat="45.865187076070505" lon="9.153278664805468"><ele>254.0</ele><time>2026-04-19T11:13:56.999Z</time></trkpt><trkpt lat="45.86502185436385" lon="9.153009425249785"><ele>254.5</ele><time>2026-04-19T11:13:58.999Z</time></trkpt><trkpt lat="45.864891098087256" lon="9.152945677017037"><ele>255.0</ele><time>2026-04-19T11:13:59.999Z</time></trkpt><trkpt lat="45.86475115071024" lon="9.152869154221415"><ele>255.5</ele><time>2026-04-19T11:14:00.999Z</time></trkpt><trkpt lat="45.864626637576116" lon="9.152805803878701"><ele>256.0</ele><time>2026-04-19T11:14:01.999Z</time></trkpt><trkpt lat="45.86452542158394" lon="9.152719958424658"><ele>256.0</ele><time>2026-04-19T11:14:02.999Z</time></trkpt><trkpt lat="45.864447717270146" lon="9.15260769629405"><ele>256.0</ele><time>2026-04-19T11:14:03.999Z</time></trkpt><trkpt lat="45.86438143151777" lon="9.152472461970138"><ele>256.0</ele><time>2026-04-19T11:14:04.999Z</time></trkpt><trkpt lat="45.86434671509106" lon="9.152300308832832"><ele>256.0</ele><time>2026-04-19T11:14:05.999Z</time></trkpt><trkpt lat="45.86430078100027" lon="9.152127488322098"><ele>257.25</ele><time>2026-04-19T11:14:06.999Z</time></trkpt><trkpt lat="45.86425072707823" lon="9.151988720170761"><ele>258.5</ele><time>2026-04-19T11:14:07.999Z</time></trkpt><trkpt lat="45.86415316090881" lon="9.151890162445278"><ele>259.75</ele><time>2026-04-19T11:14:08.999Z</time></trkpt><trkpt lat="45.86404542200469" lon="9.151745149431184"><ele>261.0</ele><time>2026-04-19T11:14:09.999Z</time></trkpt><trkpt lat="45.863937251018335" lon="9.15154893815362"><ele>252.0</ele><time>2026-04-19T11:14:10.999Z</time></trkpt><trkpt lat="45.8638024273926" lon="9.151376723616206"><ele>243.0</ele><time>2026-04-19T11:14:11.999Z</time></trkpt><trkpt lat="45.86369021156766" lon="9.151252068122504"><ele>234.0</ele><time>2026-04-19T11:14:12.999Z</time></trkpt><trkpt lat="45.863579759081546" lon="9.151129121780267"><ele>234.0</ele><time>2026-04-19T11:14:13.999Z</time></trkpt><trkpt lat="45.86347284350271" lon="9.151008451589544"><ele>234.0</ele><time>2026-04-19T11:14:14.999Z</time></trkpt><trkpt lat="45.863363621817044" lon="9.15088214918827"><ele>234.0</ele><time>2026-04-19T11:14:15.999Z</time></trkpt><trkpt lat="45.86324055351978" lon="9.150749345046222"><ele>234.0</ele><time>2026-04-19T11:14:16.999Z</time></trkpt><trkpt lat="45.863125947504955" lon="9.150624441048551"><ele>237.0</ele><time>2026-04-19T11:14:17.999Z</time></trkpt><trkpt lat="45.86292239614224" lon="9.15036040871442"><ele>240.0</ele><time>2026-04-19T11:14:19.999Z</time></trkpt><trkpt lat="45.86284106680528" lon="9.150207837255698"><ele>243.0</ele><time>2026-04-19T11:14:20.999Z</time></trkpt><trkpt lat="45.86277050670456" lon="9.150072006345582"><ele>243.0</ele><time>2026-04-19T11:14:21.999Z</time></trkpt><trkpt lat="45.86270477205576" lon="9.149954840482591"><ele>243.0</ele><time>2026-04-19T11:14:22.999Z</time></trkpt><trkpt lat="45.86264112390018" lon="9.14985159494059"><ele>243.0</ele><time>2026-04-19T11:14:23.999Z</time></trkpt><trkpt lat="45.86257159160257" lon="9.149778898642712"><ele>243.0</ele><time>2026-04-19T11:14:24.999Z</time></trkpt><trkpt lat="45.86252419906264" lon="9.149686880876844"><ele>243.0</ele><time>2026-04-19T11:14:25.999Z</time></trkpt><trkpt lat="45.86246933620375" lon="9.149601233834128"><ele>243.0</ele><time>2026-04-19T11:14:26.999Z</time></trkpt><trkpt lat="45.86242655488536" lon="9.149500450342387"><ele>243.4</ele><time>2026-04-19T11:14:27.999Z</time></trkpt><trkpt lat="45.862392565434334" lon="9.149371353488398"><ele>243.8</ele><time>2026-04-19T11:14:28.999Z</time></trkpt><trkpt lat="45.862356366068546" lon="9.149234614967499"><ele>244.2</ele><time>2026-04-19T11:14:29.999Z</time></trkpt><trkpt lat="45.86232143433591" lon="9.149105419142792"><ele>244.6</ele><time>2026-04-19T11:14:30.999Z</time></trkpt><trkpt lat="45.862280981684265" lon="9.14897351916373"><ele>245.0</ele><time>2026-04-19T11:14:31.999Z</time></trkpt><trkpt lat="45.86221614762992" lon="9.148864986011011"><ele>245.00000000000003</ele><time>2026-04-19T11:14:32.999Z</time></trkpt><trkpt lat="45.86215432212321" lon="9.1487813906462"><ele>245.0</ele><time>2026-04-19T11:14:33.999Z</time></trkpt><trkpt lat="45.86209129855747" lon="9.14869557659791"><ele>245.0</ele><time>2026-04-19T11:14:34.999Z</time></trkpt><trkpt lat="45.862033678197164" lon="9.148591715326324"><ele>245.0</ele><time>2026-04-19T11:14:35.999Z</time></trkpt><trkpt lat="45.86199669519146" lon="9.148483003574627"><ele>245.00000000000003</ele><time>2026-04-19T11:14:36.999Z</time></trkpt><trkpt lat="45.861976371198246" lon="9.148357402520771"><ele>245.0</ele><time>2026-04-19T11:14:37.999Z</time></trkpt><trkpt lat="45.86195368509093" lon="9.148221863928478"><ele>241.8</ele><time>2026-04-19T11:14:38.999Z</time></trkpt><trkpt lat="45.86191035071325" lon="9.14796693345361"><ele>238.6</ele><time>2026-04-19T11:14:40.999Z</time></trkpt><trkpt lat="45.86188914374951" lon="9.147845740072993"><ele>235.39999999999998</ele><time>2026-04-19T11:14:41.999Z</time></trkpt><trkpt lat="45.8618668866478" lon="9.147721127454481"><ele>232.2</ele><time>2026-04-19T11:14:42.999Z</time></trkpt><trkpt lat="45.8618369409627" lon="9.147610347828182"><ele>229.0</ele><time>2026-04-19T11:14:43.999Z</time></trkpt><trkpt lat="45.86176683902382" lon="9.14751947437771"><ele>233.25</ele><time>2026-04-19T11:14:44.999Z</time></trkpt><trkpt lat="45.86169349877227" lon="9.147415369072817"><ele>237.5</ele><time>2026-04-19T11:14:45.999Z</time></trkpt><trkpt lat="45.86160204294813" lon="9.147304993795467"><ele>241.75</ele><time>2026-04-19T11:14:46.999Z</time></trkpt><trkpt lat="45.86150240911674" lon="9.147164852839406"><ele>246.0</ele><time>2026-04-19T11:14:47.999Z</time></trkpt><trkpt lat="45.861374180900086" lon="9.147006382834622"><ele>246.0</ele><time>2026-04-19T11:14:48.999Z</time></trkpt><trkpt lat="45.86125253167471" lon="9.146853403406896"><ele>246.0</ele><time>2026-04-19T11:14:49.999Z</time></trkpt><trkpt lat="45.86117025253804" lon="9.146685750616706"><ele>246.0</ele><time>2026-04-19T11:14:50.999Z</time></trkpt><trkpt lat="45.861072658733775" lon="9.146546049926968"><ele>246.0</ele><time>2026-04-19T11:14:51.999Z</time></trkpt><trkpt lat="45.86097606086777" lon="9.146397760581497"><ele>250.0</ele><time>2026-04-19T11:14:52.999Z</time></trkpt><trkpt lat="45.86087201491675" lon="9.146261767040532"><ele>254.0</ele><time>2026-04-19T11:14:53.999Z</time></trkpt><trkpt lat="45.860738341044964" lon="9.14616502716791"><ele>258.0</ele><time>2026-04-19T11:14:54.999Z</time></trkpt><trkpt lat="45.860605110255484" lon="9.146086720099659"><ele>262.0</ele><time>2026-04-19T11:14:55.999Z</time></trkpt><trkpt lat="45.86048672975699" lon="9.146013831181918"><ele>262.0</ele><time>2026-04-19T11:14:56.999Z</time></trkpt><trkpt lat="45.86038245851499" lon="9.145896123001126"><ele>262.0</ele><time>2026-04-19T11:14:57.999Z</time></trkpt><trkpt lat="45.860265695922365" lon="9.145732221141627"><ele>262.0</ele><time>2026-04-19T11:14:58.999Z</time></trkpt><trkpt lat="45.86013076010766" lon="9.145546250617231"><ele>268.5</ele><time>2026-04-19T11:14:59.999Z</time></trkpt><trkpt lat="45.85987547127906" lon="9.145196069215956"><ele>275.0</ele><time>2026-04-19T11:15:01.998Z</time></trkpt><trkpt lat="45.85977814265472" lon="9.145057465904452"><ele>275.0</ele><time>2026-04-19T11:15:02.998Z</time></trkpt><trkpt lat="45.85967633664775" lon="9.144890681939142"><ele>275.0</ele><time>2026-04-19T11:15:03.998Z</time></trkpt><trkpt lat="45.85958091953989" lon="9.144709245942472"><ele>275.0</ele><time>2026-04-19T11:15:04.998Z</time></trkpt><trkpt lat="45.859493804385046" lon="9.144525935715272"><ele>274.0</ele><time>2026-04-19T11:15:05.998Z</time></trkpt><trkpt lat="45.859404487922255" lon="9.144339553990752"><ele>273.0</ele><time>2026-04-19T11:15:06.998Z</time></trkpt><trkpt lat="45.859323085817856" lon="9.144154039499856"><ele>272.0</ele><time>2026-04-19T11:15:07.998Z</time></trkpt><trkpt lat="45.85924190497907" lon="9.143977820607185"><ele>272.0</ele><time>2026-04-19T11:15:08.998Z</time></trkpt><trkpt lat="45.859148589398174" lon="9.143804231377102"><ele>272.0</ele><time>2026-04-19T11:15:09.998Z</time></trkpt><trkpt lat="45.8590504066334" lon="9.143650007031287"><ele>272.0</ele><time>2026-04-19T11:15:10.998Z</time></trkpt><trkpt lat="45.85894736396611" lon="9.143499773485923"><ele>272.0</ele><time>2026-04-19T11:15:11.998Z</time></trkpt><trkpt lat="45.858835771426556" lon="9.143342594216833"><ele>257.33333333333337</ele><time>2026-04-19T11:15:13Z</time></trkpt><trkpt lat="45.85871738243038" lon="9.143175881791658"><ele>242.66666666666669</ele><time>2026-04-19T11:15:14Z</time></trkpt><trkpt lat="45.85860788699636" lon="9.143010422660078"><ele>228.0</ele><time>2026-04-19T11:15:15Z</time></trkpt><trkpt lat="45.85851306089898" lon="9.142870791137327"><ele>239.75</ele><time>2026-04-19T11:15:16Z</time></trkpt><trkpt lat="45.85843930185278" lon="9.142741010849454"><ele>251.5</ele><time>2026-04-19T11:15:17Z</time></trkpt><trkpt lat="45.858389440210104" lon="9.142595929567632"><ele>263.25</ele><time>2026-04-19T11:15:18Z</time></trkpt><trkpt lat="45.85835135841651" lon="9.142430124269332"><ele>275.0</ele><time>2026-04-19T11:15:19Z</time></trkpt><trkpt lat="45.85830966219329" lon="9.142266362132167"><ele>275.0</ele><time>2026-04-19T11:15:20Z</time></trkpt><trkpt lat="45.85826345916681" lon="9.142135085700586"><ele>275.0</ele><time>2026-04-19T11:15:21Z</time></trkpt><trkpt lat="45.85812168560912" lon="9.141852380890562"><ele>275.0</ele><time>2026-04-19T11:15:23Z</time></trkpt><trkpt lat="45.85802574724648" lon="9.141715019186101"><ele>275.0</ele><time>2026-04-19T11:15:24Z</time></trkpt><trkpt lat="45.85793252321793" lon="9.141579261746221"><ele>275.0</ele><time>2026-04-19T11:15:25Z</time></trkpt><trkpt lat="45.85783241330343" lon="9.141431955111608"><ele>275.0</ele><time>2026-04-19T11:15:26Z</time></trkpt><trkpt lat="45.85773987069689" lon="9.141298640578476"><ele>275.0</ele><time>2026-04-19T11:15:27Z</time></trkpt><trkpt lat="45.85765553173815" lon="9.141180646119667"><ele>282.0</ele><time>2026-04-19T11:15:28Z</time></trkpt><trkpt lat="45.85757188303055" lon="9.141063619534366"><ele>289.0</ele><time>2026-04-19T11:15:29Z</time></trkpt><trkpt lat="45.85749898534667" lon="9.140956791502246"><ele>296.0</ele><time>2026-04-19T11:15:30Z</time></trkpt><trkpt lat="45.857409272666" lon="9.14089319820552"><ele>303.0</ele><time>2026-04-19T11:15:31Z</time></trkpt><trkpt lat="45.8573155089942" lon="9.140849928796058"><ele>310.0</ele><time>2026-04-19T11:15:32Z</time></trkpt><trkpt lat="45.85719448984958" lon="9.140868445247198"><ele>310.0</ele><time>2026-04-19T11:15:33Z</time></trkpt><trkpt lat="45.85708932343927" lon="9.140886088978313"><ele>310.0</ele><time>2026-04-19T11:15:34Z</time></trkpt><trkpt lat="45.856985549921646" lon="9.14089618145714"><ele>310.0</ele><time>2026-04-19T11:15:36Z</time></trkpt><trkpt lat="45.85685476833594" lon="9.140818507153897"><ele>310.0</ele><time>2026-04-19T11:15:38Z</time></trkpt><trkpt lat="45.85685041505772" lon="9.140718053031284"><ele>310.0</ele><time>2026-04-19T11:15:39Z</time></trkpt><trkpt lat="45.85684694811436" lon="9.140619308588004"><ele>301.25</ele><time>2026-04-19T11:15:40Z</time></trkpt><trkpt lat="45.856878566559054" lon="9.140495745104834"><ele>292.5</ele><time>2026-04-19T11:15:41Z</time></trkpt><trkpt lat="45.85690143420152" lon="9.140332486995772"><ele>283.75</ele><time>2026-04-19T11:15:42Z</time></trkpt><trkpt lat="45.85693230977064" lon="9.140034059820218"><ele>275.0</ele><time>2026-04-19T11:15:44Z</time></trkpt><trkpt lat="45.856920828484114" lon="9.139852447937427"><ele>274.0</ele><time>2026-04-19T11:15:45Z</time></trkpt><trkpt lat="45.85689699418667" lon="9.13968219149446"><ele>273.0</ele><time>2026-04-19T11:15:46Z</time></trkpt><trkpt lat="45.85687329814689" lon="9.13949986030467"><ele>272.0</ele><time>2026-04-19T11:15:47Z</time></trkpt><trkpt lat="45.85686429838456" lon="9.1393119922696"><ele>271.0</ele><time>2026-04-19T11:15:48Z</time></trkpt><trkpt lat="45.85688038965646" lon="9.139137606602082"><ele>270.75</ele><time>2026-04-19T11:15:49Z</time></trkpt><trkpt lat="45.856899036864085" lon="9.138965115554496"><ele>270.5</ele><time>2026-04-19T11:15:50Z</time></trkpt><trkpt lat="45.85691518908103" lon="9.13881826336023"><ele>270.25</ele><time>2026-04-19T11:15:51Z</time></trkpt><trkpt lat="45.85692690912645" lon="9.138660362380335"><ele>270.0</ele><time>2026-04-19T11:15:52Z</time></trkpt><trkpt lat="45.85692053514655" lon="9.138480235857084"><ele>270.0</ele><time>2026-04-19T11:15:53Z</time></trkpt><trkpt lat="45.85689658908911" lon="9.138285224857777"><ele>270.0</ele><time>2026-04-19T11:15:54Z</time></trkpt><trkpt lat="45.85687652030577" lon="9.138078924831408"><ele>270.0</ele><time>2026-04-19T11:15:55Z</time></trkpt><trkpt lat="45.856852396704895" lon="9.137864511117856"><ele>270.0</ele><time>2026-04-19T11:15:56Z</time></trkpt><trkpt lat="45.85682173179227" lon="9.137643149478063"><ele>290.0</ele><time>2026-04-19T11:15:57Z</time></trkpt><trkpt lat="45.85677195904125" lon="9.137414140047643"><ele>310.0</ele><time>2026-04-19T11:15:58Z</time></trkpt><trkpt lat="45.85678534727678" lon="9.137170492545552"><ele>330.0</ele><time>2026-04-19T11:15:59Z</time></trkpt><trkpt lat="45.85674917012739" lon="9.136955215906552"><ele>330.0</ele><time>2026-04-19T11:16:00Z</time></trkpt><trkpt lat="45.85671845435743" lon="9.136722014696204"><ele>330.0</ele><time>2026-04-19T11:16:01Z</time></trkpt><trkpt lat="45.85669241026924" lon="9.136494380510268"><ele>330.0</ele><time>2026-04-19T11:16:02Z</time></trkpt><trkpt lat="45.856679515761485" lon="9.13628222858732"><ele>326.0</ele><time>2026-04-19T11:16:03Z</time></trkpt><trkpt lat="45.85662769019263" lon="9.135845305949566"><ele>322.0</ele><time>2026-04-19T11:16:04.999Z</time></trkpt><trkpt lat="45.85660535338956" lon="9.135598284668994"><ele>322.0</ele><time>2026-04-19T11:16:05.999Z</time></trkpt><trkpt lat="45.85662114862097" lon="9.13537028042143"><ele>322.0</ele><time>2026-04-19T11:16:06.999Z</time></trkpt><trkpt lat="45.85667588093233" lon="9.135170170522727"><ele>322.0</ele><time>2026-04-19T11:16:07.999Z</time></trkpt><trkpt lat="45.85670601995035" lon="9.13489559902415"><ele>319.66666666666663</ele><time>2026-04-19T11:16:08.999Z</time></trkpt><trkpt lat="45.856722954197025" lon="9.134661025939435"><ele>317.3333333333333</ele><time>2026-04-19T11:16:09.999Z</time></trkpt><trkpt lat="45.85671258178434" lon="9.134429956131093"><ele>315.0</ele><time>2026-04-19T11:16:10.999Z</time></trkpt><trkpt lat="45.85667294407265" lon="9.134191239414214"><ele>313.6666666666667</ele><time>2026-04-19T11:16:11.999Z</time></trkpt><trkpt lat="45.856610043381835" lon="9.133924641241101"><ele>312.33333333333337</ele><time>2026-04-19T11:16:12.999Z</time></trkpt><trkpt lat="45.8565669930926" lon="9.133701947197983"><ele>311.0</ele><time>2026-04-19T11:16:13.999Z</time></trkpt><trkpt lat="45.85654408114753" lon="9.133467775023433"><ele>311.0</ele><time>2026-04-19T11:16:14.999Z</time></trkpt><trkpt lat="45.856508402551796" lon="9.133261783877817"><ele>311.0</ele><time>2026-04-19T11:16:15.999Z</time></trkpt><trkpt lat="45.85648633078133" lon="9.133052688628508"><ele>311.0</ele><time>2026-04-19T11:16:16.999Z</time></trkpt><trkpt lat="45.856457887838005" lon="9.132843914221427"><ele>311.0</ele><time>2026-04-19T11:16:17.999Z</time></trkpt><trkpt lat="45.856431390671546" lon="9.132646540002053"><ele>308.75</ele><time>2026-04-19T11:16:18.999Z</time></trkpt><trkpt lat="45.856409223328335" lon="9.132462478517853"><ele>306.5</ele><time>2026-04-19T11:16:19.999Z</time></trkpt><trkpt lat="45.856386170531486" lon="9.13227523549304"><ele>304.25</ele><time>2026-04-19T11:16:20.999Z</time></trkpt><trkpt lat="45.85637415755126" lon="9.132111868838065"><ele>302.0</ele><time>2026-04-19T11:16:21.999Z</time></trkpt><trkpt lat="45.85639743506367" lon="9.13194666211367"><ele>302.0</ele><time>2026-04-19T11:16:22.999Z</time></trkpt><trkpt lat="45.856450685432506" lon="9.131798561317112"><ele>302.0</ele><time>2026-04-19T11:16:23.999Z</time></trkpt><trkpt lat="45.856631973021564" lon="9.131586727805075"><ele>302.0</ele><time>2026-04-19T11:16:25.999Z</time></trkpt><trkpt lat="45.85674161836306" lon="9.131507545589567"><ele>293.5</ele><time>2026-04-19T11:16:26.999Z</time></trkpt><trkpt lat="45.85682330139982" lon="9.131373806524874"><ele>285.0</ele><time>2026-04-19T11:16:27.999Z</time></trkpt><trkpt lat="45.856871530017386" lon="9.131199147487932"><ele>276.5</ele><time>2026-04-19T11:16:28.999Z</time></trkpt><trkpt lat="45.85691859367999" lon="9.131010547164172"><ele>268.0</ele><time>2026-04-19T11:16:29.999Z</time></trkpt><trkpt lat="45.856975907145596" lon="9.130803572348382"><ele>274.66666666666663</ele><time>2026-04-19T11:16:30.999Z</time></trkpt><trkpt lat="45.85704299032501" lon="9.130602960100031"><ele>281.3333333333333</ele><time>2026-04-19T11:16:31.999Z</time></trkpt><trkpt lat="45.857122367796066" lon="9.130414297886263"><ele>288.0</ele><time>2026-04-19T11:16:32.999Z</time></trkpt><trkpt lat="45.85720029315416" lon="9.130227434879458"><ele>288.0</ele><time>2026-04-19T11:16:33.999Z</time></trkpt><trkpt lat="45.85727977427099" lon="9.130039870895404"><ele>288.0</ele><time>2026-04-19T11:16:34.999Z</time></trkpt><trkpt lat="45.857356395176986" lon="9.12985586508778"><ele>288.0</ele><time>2026-04-19T11:16:35.999Z</time></trkpt><trkpt lat="45.85741471156714" lon="9.129667271395624"><ele>288.0</ele><time>2026-04-19T11:16:36.999Z</time></trkpt><trkpt lat="45.85748873311535" lon="9.129502843147446"><ele>292.5</ele><time>2026-04-19T11:16:37.999Z</time></trkpt><trkpt lat="45.85755443058716" lon="9.129340115154502"><ele>297.0</ele><time>2026-04-19T11:16:38.999Z</time></trkpt><trkpt lat="45.857628452026745" lon="9.129193790671673"><ele>301.5</ele><time>2026-04-19T11:16:39.999Z</time></trkpt><trkpt lat="45.857687785519516" lon="9.12904805327527"><ele>306.0</ele><time>2026-04-19T11:16:40.999Z</time></trkpt><trkpt lat="45.85773030111934" lon="9.128892463322138"><ele>292.75</ele><time>2026-04-19T11:16:41.999Z</time></trkpt><trkpt lat="45.857778960971906" lon="9.128726151197489"><ele>279.5</ele><time>2026-04-19T11:16:42.999Z</time></trkpt><trkpt lat="45.85780485581598" lon="9.128548001404306"><ele>266.25</ele><time>2026-04-19T11:16:43.999Z</time></trkpt><trkpt lat="45.857818982661286" lon="9.128357508447584"><ele>253.0</ele><time>2026-04-19T11:16:44.999Z</time></trkpt><trkpt lat="45.857762458964515" lon="9.12795276223271"><ele>251.8</ele><time>2026-04-19T11:16:46.999Z</time></trkpt><trkpt lat="45.857741206879965" lon="9.127750842672883"><ele>250.60000000000002</ele><time>2026-04-19T11:16:47.999Z</time></trkpt><trkpt lat="45.8577155194698" lon="9.127587265063045"><ele>249.39999999999998</ele><time>2026-04-19T11:16:48.999Z</time></trkpt><trkpt lat="45.85769537839977" lon="9.127457344052548"><ele>248.2</ele><time>2026-04-19T11:16:49.999Z</time></trkpt><trkpt lat="45.857679769596544" lon="9.127358259835544"><ele>247.0</ele><time>2026-04-19T11:16:50.999Z</time></trkpt><trkpt lat="45.857659373073744" lon="9.127254811933119"><ele>245.2</ele><time>2026-04-19T11:16:52.999Z</time></trkpt><trkpt lat="45.857624668629285" lon="9.12717695829615"><ele>243.39999999999998</ele><time>2026-04-19T11:19:55.999Z</time></trkpt><trkpt lat="45.85757163633572" lon="9.127056078876452"><ele>241.60000000000002</ele><time>2026-04-19T11:19:58.999Z</time></trkpt><trkpt lat="45.85755428517196" lon="9.126868757810888"><ele>239.8</ele><time>2026-04-19T11:20:00.999Z</time></trkpt><trkpt lat="45.85760120259634" lon="9.126742046386244"><ele>238.0</ele><time>2026-04-19T11:20:01.999Z</time></trkpt><trkpt lat="45.85759594180877" lon="9.12661552037836"><ele>235.60000000000002</ele><time>2026-04-19T11:20:02.999Z</time></trkpt><trkpt lat="45.85760392212318" lon="9.126481521553822"><ele>233.20000000000002</ele><time>2026-04-19T11:20:03.999Z</time></trkpt><trkpt lat="45.85762818935898" lon="9.126353485528105"><ele>230.8</ele><time>2026-04-19T11:20:04.999Z</time></trkpt><trkpt lat="45.85765634354158" lon="9.126191259666186"><ele>228.4</ele><time>2026-04-19T11:20:05.999Z</time></trkpt><trkpt lat="45.857679048506455" lon="9.126036711091862"><ele>226.0</ele><time>2026-04-19T11:20:06.999Z</time></trkpt><trkpt lat="45.85769872088449" lon="9.125863945459917"><ele>225.75</ele><time>2026-04-19T11:20:07.999Z</time></trkpt><trkpt lat="45.857713999151436" lon="9.125680009316854"><ele>225.5</ele><time>2026-04-19T11:20:08.999Z</time></trkpt><trkpt lat="45.85766595001532" lon="9.125488130824234"><ele>225.25</ele><time>2026-04-19T11:20:09.999Z</time></trkpt><trkpt lat="45.8576321461829" lon="9.125268123807574"><ele>225.0</ele><time>2026-04-19T11:20:10.999Z</time></trkpt><trkpt lat="45.85763334997986" lon="9.125049180584499"><ele>234.4</ele><time>2026-04-19T11:20:11.999Z</time></trkpt><trkpt lat="45.85760602020005" lon="9.124872963819334"><ele>243.8</ele><time>2026-04-19T11:20:12.999Z</time></trkpt><trkpt lat="45.85757762972504" lon="9.124709783971864"><ele>253.2</ele><time>2026-04-19T11:20:13.999Z</time></trkpt><trkpt lat="45.85755940691251" lon="9.124578236244435"><ele>262.6</ele><time>2026-04-19T11:20:14.999Z</time></trkpt><trkpt lat="45.85755614049983" lon="9.124460253705143"><ele>272.0</ele><time>2026-04-19T11:20:15.999Z</time></trkpt><trkpt lat="45.857576002792115" lon="9.124352122199092"><ele>272.0</ele><time>2026-04-19T11:20:16.999Z</time></trkpt><trkpt lat="45.85761080794554" lon="9.124244422962336"><ele>272.0</ele><time>2026-04-19T11:20:17.999Z</time></trkpt><trkpt lat="45.857645605498284" lon="9.124101032161688"><ele>272.0</ele><time>2026-04-19T11:20:18.999Z</time></trkpt><trkpt lat="45.857685403708416" lon="9.123937248262276"><ele>272.0</ele><time>2026-04-19T11:20:19.999Z</time></trkpt><trkpt lat="45.85776470086334" lon="9.123610065311738"><ele>262.25</ele><time>2026-04-19T11:20:21.999Z</time></trkpt><trkpt lat="45.857796993040274" lon="9.123456552800679"><ele>252.5</ele><time>2026-04-19T11:20:22.999Z</time></trkpt><trkpt lat="45.85781055418203" lon="9.123287438233902"><ele>242.75</ele><time>2026-04-19T11:20:23.999Z</time></trkpt><trkpt lat="45.857795020590025" lon="9.123106901483192"><ele>233.0</ele><time>2026-04-19T11:20:24.999Z</time></trkpt><trkpt lat="45.85776375379129" lon="9.12293049401264"><ele>233.0</ele><time>2026-04-19T11:20:25.999Z</time></trkpt><trkpt lat="45.85773597815478" lon="9.122780608950343"><ele>233.0</ele><time>2026-04-19T11:20:26.999Z</time></trkpt><trkpt lat="45.857706396216834" lon="9.122622012375132"><ele>233.0</ele><time>2026-04-19T11:20:27.999Z</time></trkpt><trkpt lat="45.85768104170861" lon="9.122477775599224"><ele>233.0</ele><time>2026-04-19T11:20:28.999Z</time></trkpt><trkpt lat="45.85767177724198" lon="9.122339359035669"><ele>233.0</ele><time>2026-04-19T11:20:29.999Z</time></trkpt><trkpt lat="45.8577037943516" lon="9.122196887369048"><ele>233.5</ele><time>2026-04-19T11:20:30.999Z</time></trkpt><trkpt lat="45.85775188569114" lon="9.122046888582329"><ele>234.0</ele><time>2026-04-19T11:20:31.999Z</time></trkpt><trkpt lat="45.857804077136116" lon="9.1218877839323"><ele>234.5</ele><time>2026-04-19T11:20:32.999Z</time></trkpt><trkpt lat="45.8578583050773" lon="9.121721450249142"><ele>235.0</ele><time>2026-04-19T11:20:33.999Z</time></trkpt><trkpt lat="45.85790124949447" lon="9.121555156806378"><ele>235.5</ele><time>2026-04-19T11:20:34.999Z</time></trkpt><trkpt lat="45.85791291954125" lon="9.121364323831722"><ele>236.0</ele><time>2026-04-19T11:20:35.999Z</time></trkpt><trkpt lat="45.857895520700204" lon="9.121178338522569"><ele>236.5</ele><time>2026-04-19T11:20:36.999Z</time></trkpt><trkpt lat="45.857876766369706" lon="9.121023197415873"><ele>237.0</ele><time>2026-04-19T11:20:37.999Z</time></trkpt><trkpt lat="45.85786172771389" lon="9.120873976830621"><ele>238.25</ele><time>2026-04-19T11:20:38.999Z</time></trkpt><trkpt lat="45.857829587489476" lon="9.120712485495455"><ele>239.5</ele><time>2026-04-19T11:20:39.999Z</time></trkpt><trkpt lat="45.85779289397406" lon="9.120563717983192"><ele>240.75</ele><time>2026-04-19T11:20:40.999Z</time></trkpt><trkpt lat="45.8577953814036" lon="9.12025901403173"><ele>242.0</ele><time>2026-04-19T11:20:42.999Z</time></trkpt><trkpt lat="45.857829614301906" lon="9.120105005411816"><ele>242.0</ele><time>2026-04-19T11:20:43.999Z</time></trkpt><trkpt lat="45.85786554073254" lon="9.119951340869576"><ele>242.0</ele><time>2026-04-19T11:20:44.999Z</time></trkpt><trkpt lat="45.857890674350074" lon="9.11979955559182"><ele>242.0</ele><time>2026-04-19T11:20:45.999Z</time></trkpt><trkpt lat="45.857919793946216" lon="9.11964823869281"><ele>242.0</ele><time>2026-04-19T11:20:46.999Z</time></trkpt><trkpt lat="45.85796097094117" lon="9.119495579887301"><ele>242.0</ele><time>2026-04-19T11:20:47.999Z</time></trkpt><trkpt lat="45.857991139803204" lon="9.119340185827852"><ele>242.39999999999998</ele><time>2026-04-19T11:20:48.999Z</time></trkpt><trkpt lat="45.8580189551508" lon="9.119185202961809"><ele>242.79999999999998</ele><time>2026-04-19T11:20:49.999Z</time></trkpt><trkpt lat="45.8580576283618" lon="9.119029406664042"><ele>243.2</ele><time>2026-04-19T11:20:50.999Z</time></trkpt><trkpt lat="45.858108932769" lon="9.11888979116742"><ele>243.6</ele><time>2026-04-19T11:20:51.999Z</time></trkpt><trkpt lat="45.85813922364401" lon="9.11875632745161"><ele>244.0</ele><time>2026-04-19T11:20:52.999Z</time></trkpt><trkpt lat="45.85811050997111" lon="9.118603674912771"><ele>242.2</ele><time>2026-04-19T11:20:53.999Z</time></trkpt><trkpt lat="45.858053761149385" lon="9.118456206574232"><ele>240.39999999999998</ele><time>2026-04-19T11:20:54.999Z</time></trkpt><trkpt lat="45.85801624453288" lon="9.118327412046783"><ele>238.6</ele><time>2026-04-19T11:20:55.999Z</time></trkpt><trkpt lat="45.8579968057044" lon="9.118199539543236"><ele>236.8</ele><time>2026-04-19T11:20:56.999Z</time></trkpt><trkpt lat="45.85802218594712" lon="9.118083844748334"><ele>235.0</ele><time>2026-04-19T11:20:57.999Z</time></trkpt><trkpt lat="45.8580773452332" lon="9.117982449069062"><ele>232.0</ele><time>2026-04-19T11:20:58.999Z</time></trkpt><trkpt lat="45.85812323552171" lon="9.117865931130678"><ele>229.0</ele><time>2026-04-19T11:20:59.999Z</time></trkpt><trkpt lat="45.85816038334841" lon="9.117718616823854"><ele>226.0</ele><time>2026-04-19T11:21:00.999Z</time></trkpt><trkpt lat="45.858122466841614" lon="9.117562986243096"><ele>223.0</ele><time>2026-04-19T11:21:01.999Z</time></trkpt><trkpt lat="45.85806392370069" lon="9.117226347619898"><ele>221.5</ele><time>2026-04-19T11:21:03.999Z</time></trkpt><trkpt lat="45.85802593613218" lon="9.117053676670732"><ele>220.0</ele><time>2026-04-19T11:21:04.999Z</time></trkpt><trkpt lat="45.857976515059185" lon="9.116901915050526"><ele>218.5</ele><time>2026-04-19T11:21:05.999Z</time></trkpt><trkpt lat="45.85791648951155" lon="9.116768242354317"><ele>217.0</ele><time>2026-04-19T11:21:06.999Z</time></trkpt><trkpt lat="45.85785549538605" lon="9.11663837445957"><ele>216.6</ele><time>2026-04-19T11:21:07.999Z</time></trkpt><trkpt lat="45.857796852742915" lon="9.116513437204762"><ele>216.2</ele><time>2026-04-19T11:21:08.999Z</time></trkpt><trkpt lat="45.8577383085118" lon="9.116390280870304"><ele>215.8</ele><time>2026-04-19T11:21:09.999Z</time></trkpt><trkpt lat="45.857679166538105" lon="9.11626804575642"><ele>215.4</ele><time>2026-04-19T11:21:10.999Z</time></trkpt><trkpt lat="45.85762343169482" lon="9.116155103255302"><ele>215.0</ele><time>2026-04-19T11:21:11.999Z</time></trkpt><trkpt lat="45.85756175074676" lon="9.116043919463335"><ele>217.75</ele><time>2026-04-19T11:21:12.999Z</time></trkpt><trkpt lat="45.857484182616346" lon="9.115936603707322"><ele>220.5</ele><time>2026-04-19T11:21:13.999Z</time></trkpt><trkpt lat="45.85739824913541" lon="9.11584716741289"><ele>223.25</ele><time>2026-04-19T11:21:14.999Z</time></trkpt><trkpt lat="45.857308116761885" lon="9.115752941014504"><ele>226.0</ele><time>2026-04-19T11:21:15.999Z</time></trkpt><trkpt lat="45.85717153119755" lon="9.115759663890264"><ele>226.0</ele><time>2026-04-19T11:21:16.998Z</time></trkpt><trkpt lat="45.85706903247123" lon="9.115696237131626"><ele>226.00000000000003</ele><time>2026-04-19T11:21:17.998Z</time></trkpt><trkpt lat="45.856955179016495" lon="9.115646573135027"><ele>226.00000000000003</ele><time>2026-04-19T11:21:18.998Z</time></trkpt><trkpt lat="45.85685028871104" lon="9.115605787689839"><ele>226.0</ele><time>2026-04-19T11:21:19.998Z</time></trkpt><trkpt lat="45.856768983592" lon="9.115531061374039"><ele>226.0</ele><time>2026-04-19T11:21:20.998Z</time></trkpt><trkpt lat="45.856669573031375" lon="9.115446219300555"><ele>226.0</ele><time>2026-04-19T11:21:21.998Z</time></trkpt><trkpt lat="45.856586341816126" lon="9.11534409316351"><ele>226.0</ele><time>2026-04-19T11:21:22.998Z</time></trkpt><trkpt lat="45.856421270455314" lon="9.115195876573756"><ele>226.0</ele><time>2026-04-19T11:21:24.998Z</time></trkpt><trkpt lat="45.85634462996976" lon="9.115129279299028"><ele>226.0</ele><time>2026-04-19T11:21:25.998Z</time></trkpt><trkpt lat="45.856265933084686" lon="9.11507165641204"><ele>226.0</ele><time>2026-04-19T11:21:26.998Z</time></trkpt><trkpt lat="45.856187231491226" lon="9.115028184020959"><ele>226.0</ele><time>2026-04-19T11:21:27.998Z</time></trkpt><trkpt lat="45.856112576541335" lon="9.115004782781025"><ele>226.0</ele><time>2026-04-19T11:21:28.998Z</time></trkpt><trkpt lat="45.85604490013131" lon="9.11499006366824"><ele>226.0</ele><time>2026-04-19T11:21:29.998Z</time></trkpt><trkpt lat="45.85597666311118" lon="9.114983427500237"><ele>226.0</ele><time>2026-04-19T11:21:31Z</time></trkpt><trkpt lat="45.85591064086584" lon="9.114982979252668"><ele>226.0</ele><time>2026-04-19T11:21:32Z</time></trkpt><trkpt lat="45.85584452122848" lon="9.114985934393527"><ele>226.0</ele><time>2026-04-19T11:21:33Z</time></trkpt><trkpt lat="45.855717956920195" lon="9.114989672721835"><ele>227.60000000000002</ele><time>2026-04-19T11:21:35Z</time></trkpt><trkpt lat="45.855641088016135" lon="9.11497510854521"><ele>229.20000000000002</ele><time>2026-04-19T11:21:36Z</time></trkpt><trkpt lat="45.855557603242396" lon="9.114916944994329"><ele>230.79999999999998</ele><time>2026-04-19T11:21:37Z</time></trkpt><trkpt lat="45.855464767032004" lon="9.11485079743361"><ele>232.39999999999998</ele><time>2026-04-19T11:21:38Z</time></trkpt><trkpt lat="45.85537861087464" lon="9.114789409496922"><ele>234.0</ele><time>2026-04-19T11:21:39Z</time></trkpt><trkpt lat="45.85528043811998" lon="9.114719459475976"><ele>231.6</ele><time>2026-04-19T11:21:40Z</time></trkpt><trkpt lat="45.85519452282278" lon="9.114658242763397"><ele>229.2</ele><time>2026-04-19T11:21:41Z</time></trkpt><trkpt lat="45.85509289095761" lon="9.114589117879467"><ele>226.79999999999998</ele><time>2026-04-19T11:21:42Z</time></trkpt><trkpt lat="45.854983304206144" lon="9.114524628470258"><ele>224.39999999999998</ele><time>2026-04-19T11:21:43Z</time></trkpt><trkpt lat="45.854869183855406" lon="9.114503387364344"><ele>222.0</ele><time>2026-04-19T11:21:44Z</time></trkpt><trkpt lat="45.85466294954431" lon="9.114441886075085"><ele>222.0</ele><time>2026-04-19T11:21:46Z</time></trkpt><trkpt lat="45.854552615027835" lon="9.114446263790555"><ele>222.0</ele><time>2026-04-19T11:21:47Z</time></trkpt><trkpt lat="45.854435013772274" lon="9.114484704906975"><ele>222.0</ele><time>2026-04-19T11:21:48Z</time></trkpt><trkpt lat="45.854314835614616" lon="9.114499876986628"><ele>222.0</ele><time>2026-04-19T11:21:49Z</time></trkpt><trkpt lat="45.85418908102759" lon="9.114536410902346"><ele>233.0</ele><time>2026-04-19T11:21:50Z</time></trkpt><trkpt lat="45.85406162452733" lon="9.114575285996557"><ele>244.0</ele><time>2026-04-19T11:21:51Z</time></trkpt><trkpt lat="45.85394128327947" lon="9.11461199289589"><ele>255.0</ele><time>2026-04-19T11:21:52.011Z</time></trkpt><trkpt lat="45.85382076908289" lon="9.114647617759971"><ele>266.0</ele><time>2026-04-19T11:21:53.016Z</time></trkpt><trkpt lat="45.85369999413871" lon="9.114683181319958"><ele>266.0</ele><time>2026-04-19T11:21:54.017Z</time></trkpt><trkpt lat="45.8535782654448" lon="9.114719025720687"><ele>266.0</ele><time>2026-04-19T11:21:55.015Z</time></trkpt><trkpt lat="45.85345695512938" lon="9.114755364185704"><ele>266.0</ele><time>2026-04-19T11:21:56.016Z</time></trkpt><trkpt lat="45.85150550214199" lon="9.114312648924058"><ele>278.5</ele><time>2026-04-19T11:22:00.557Z</time></trkpt><trkpt lat="45.851103138774675" lon="9.114029348750655"><ele>291.0</ele><time>2026-04-19T11:22:01.554Z</time></trkpt><trkpt lat="45.850749169752746" lon="9.113631081769828"><ele>286.5</ele><time>2026-04-19T11:22:02.558Z</time></trkpt><trkpt lat="45.850482915384696" lon="9.11311588303767"><ele>282.0</ele><time>2026-04-19T11:22:03.557Z</time></trkpt><trkpt lat="45.85031414035058" lon="9.112520306538277"><ele>251.0</ele><time>2026-04-19T11:22:04.557Z</time></trkpt><trkpt lat="45.850000166113816" lon="9.111030186112687"><ele>240.33333333333334</ele><time>2026-04-19T11:22:24.999Z</time></trkpt><trkpt lat="45.84989782233907" lon="9.11070378929397"><ele>229.66666666666669</ele><time>2026-04-19T11:22:26.999Z</time></trkpt><trkpt lat="45.84982717448505" lon="9.110595984716737"><ele>219.0</ele><time>2026-04-19T11:22:27.999Z</time></trkpt><trkpt lat="45.849707180684156" lon="9.110447638063631"><ele>219.0</ele><time>2026-04-19T11:22:28.999Z</time></trkpt><trkpt lat="45.8495641855441" lon="9.110322973290728"><ele>219.0</ele><time>2026-04-19T11:22:29.999Z</time></trkpt><trkpt lat="45.849444634140724" lon="9.11022196311532"><ele>219.0</ele><time>2026-04-19T11:22:30.999Z</time></trkpt><trkpt lat="45.8493243570451" lon="9.11011672505"><ele>219.0</ele><time>2026-04-19T11:22:31.999Z</time></trkpt><trkpt lat="45.84922191692716" lon="9.110000368464323"><ele>222.75</ele><time>2026-04-19T11:22:32.999Z</time></trkpt><trkpt lat="45.849125434209995" lon="9.10985502458584"><ele>226.5</ele><time>2026-04-19T11:22:33.999Z</time></trkpt><trkpt lat="45.84903311875034" lon="9.109702997911555"><ele>230.25</ele><time>2026-04-19T11:22:34.999Z</time></trkpt><trkpt lat="45.848932364165044" lon="9.10953537841372"><ele>234.0</ele><time>2026-04-19T11:22:35.999Z</time></trkpt><trkpt lat="45.84884499555687" lon="9.109385857574562"><ele>234.0</ele><time>2026-04-19T11:22:36.999Z</time></trkpt><trkpt lat="45.848765355021044" lon="9.109236154481485"><ele>234.0</ele><time>2026-04-19T11:22:37.999Z</time></trkpt><trkpt lat="45.84871056901322" lon="9.109070885117607"><ele>234.0</ele><time>2026-04-19T11:22:38.999Z</time></trkpt><trkpt lat="45.848646440924206" lon="9.108881862662107"><ele>234.0</ele><time>2026-04-19T11:22:39.999Z</time></trkpt><trkpt lat="45.84859159208406" lon="9.10869729395282"><ele>235.6</ele><time>2026-04-19T11:22:40.999Z</time></trkpt><trkpt lat="45.84853381224995" lon="9.108543114362291"><ele>237.2</ele><time>2026-04-19T11:22:41.999Z</time></trkpt><trkpt lat="45.848487886001365" lon="9.108398132412434"><ele>238.79999999999998</ele><time>2026-04-19T11:22:42.999Z</time></trkpt><trkpt lat="45.848430362717785" lon="9.108245843124624"><ele>240.39999999999998</ele><time>2026-04-19T11:22:43.999Z</time></trkpt><trkpt lat="45.84839384776565" lon="9.108137298963983"><ele>242.0</ele><time>2026-04-19T11:22:44.999Z</time></trkpt><trkpt lat="45.848344889200106" lon="9.107985393893468"><ele>242.0</ele><time>2026-04-19T11:22:45.999Z</time></trkpt><trkpt lat="45.848225097704365" lon="9.107761402965636"><ele>242.0</ele><time>2026-04-19T11:22:47.999Z</time></trkpt><trkpt lat="45.848163770210206" lon="9.10765271603934"><ele>242.0</ele><time>2026-04-19T11:22:48.999Z</time></trkpt><trkpt lat="45.848087117616245" lon="9.107544792245365"><ele>242.0</ele><time>2026-04-19T11:22:49.999Z</time></trkpt><trkpt lat="45.84800621089312" lon="9.107435805721634"><ele>239.75</ele><time>2026-04-19T11:22:50.999Z</time></trkpt><trkpt lat="45.84791797232564" lon="9.107319914951571"><ele>237.5</ele><time>2026-04-19T11:22:51.999Z</time></trkpt><trkpt lat="45.847824999796465" lon="9.107239919772843"><ele>235.25</ele><time>2026-04-19T11:22:52.999Z</time></trkpt><trkpt lat="45.84772802809968" lon="9.107170121509768"><ele>233.0</ele><time>2026-04-19T11:22:53.999Z</time></trkpt><trkpt lat="45.847606872889784" lon="9.107152478460801"><ele>233.0</ele><time>2026-04-19T11:22:54.999Z</time></trkpt><trkpt lat="45.84747645344554" lon="9.107141109072003"><ele>233.0</ele><time>2026-04-19T11:22:55.999Z</time></trkpt><trkpt lat="45.84738548080602" lon="9.107092225902106"><ele>233.0</ele><time>2026-04-19T11:22:56.999Z</time></trkpt><trkpt lat="45.847300003321685" lon="9.10702014460984"><ele>233.0</ele><time>2026-04-19T11:22:57.999Z</time></trkpt><trkpt lat="45.84719272720222" lon="9.10692566657195"><ele>233.0</ele><time>2026-04-19T11:22:58.999Z</time></trkpt><trkpt lat="45.84708495849074" lon="9.10684903563984"><ele>233.0</ele><time>2026-04-19T11:22:59.999Z</time></trkpt><trkpt lat="45.84696193879368" lon="9.10683764698096"><ele>233.0</ele><time>2026-04-19T11:23:00.999Z</time></trkpt><trkpt lat="45.84683664417751" lon="9.106816861648594"><ele>233.0</ele><time>2026-04-19T11:23:01.999Z</time></trkpt><trkpt lat="45.8467401539677" lon="9.106813803517902"><ele>235.60000000000002</ele><time>2026-04-19T11:23:02.999Z</time></trkpt><trkpt lat="45.84663720114942" lon="9.10679563776026"><ele>238.20000000000002</ele><time>2026-04-19T11:23:03.999Z</time></trkpt><trkpt lat="45.84653750650789" lon="9.106730530385382"><ele>240.8</ele><time>2026-04-19T11:23:04.999Z</time></trkpt><trkpt lat="45.84644150251468" lon="9.106646372885617"><ele>243.4</ele><time>2026-04-19T11:23:05.999Z</time></trkpt><trkpt lat="45.84633938078124" lon="9.106547921615439"><ele>246.0</ele><time>2026-04-19T11:23:06.999Z</time></trkpt><trkpt lat="45.846136414851394" lon="9.106441018500222"><ele>239.75</ele><time>2026-04-19T11:23:08.999Z</time></trkpt><trkpt lat="45.846037264393" lon="9.106414181567274"><ele>233.5</ele><time>2026-04-19T11:23:09.999Z</time></trkpt><trkpt lat="45.84591078383083" lon="9.10645230593219"><ele>227.25</ele><time>2026-04-19T11:23:10.999Z</time></trkpt><trkpt lat="45.84579950537362" lon="9.106486392271515"><ele>221.0</ele><time>2026-04-19T11:23:11.999Z</time></trkpt><trkpt lat="45.845685482337615" lon="9.106513595406764"><ele>221.0</ele><time>2026-04-19T11:23:12.999Z</time></trkpt><trkpt lat="45.845568096861456" lon="9.10650877647537"><ele>221.0</ele><time>2026-04-19T11:23:13.999Z</time></trkpt><trkpt lat="45.84547390912034" lon="9.106379234614693"><ele>221.0</ele><time>2026-04-19T11:23:14.999Z</time></trkpt><trkpt lat="45.8453487275692" lon="9.10629687052049"><ele>221.0</ele><time>2026-04-19T11:23:15.999Z</time></trkpt><trkpt lat="45.8452361239987" lon="9.106220984079547"><ele>223.0</ele><time>2026-04-19T11:23:16.999Z</time></trkpt><trkpt lat="45.84511584302352" lon="9.106166863520134"><ele>225.0</ele><time>2026-04-19T11:23:17.999Z</time></trkpt><trkpt lat="45.84498804097197" lon="9.106136223345931"><ele>227.0</ele><time>2026-04-19T11:23:18.999Z</time></trkpt><trkpt lat="45.844858155337285" lon="9.106164710946322"><ele>229.0</ele><time>2026-04-19T11:23:19.999Z</time></trkpt><trkpt lat="45.844741307082806" lon="9.106130994153723"><ele>229.0</ele><time>2026-04-19T11:23:20.999Z</time></trkpt><trkpt lat="45.844622687427" lon="9.10610024154884"><ele>229.0</ele><time>2026-04-19T11:23:21.999Z</time></trkpt><trkpt lat="45.84448923825038" lon="9.106026768975736"><ele>229.0</ele><time>2026-04-19T11:23:22.999Z</time></trkpt><trkpt lat="45.8443776300901" lon="9.10593220287304"><ele>229.0</ele><time>2026-04-19T11:23:23.999Z</time></trkpt><trkpt lat="45.84425735354938" lon="9.105819680979112"><ele>226.75</ele><time>2026-04-19T11:23:24.999Z</time></trkpt><trkpt lat="45.84413358757655" lon="9.105704754964755"><ele>224.5</ele><time>2026-04-19T11:23:25.999Z</time></trkpt><trkpt lat="45.844011254569004" lon="9.105591034656877"><ele>222.25</ele><time>2026-04-19T11:23:26.999Z</time></trkpt><trkpt lat="45.843888141428685" lon="9.105481254227694"><ele>220.0</ele><time>2026-04-19T11:23:27.999Z</time></trkpt><trkpt lat="45.84359919528945" lon="9.105248604467885"><ele>219.33333333333331</ele><time>2026-04-19T11:23:29.999Z</time></trkpt><trkpt lat="45.84343528033296" lon="9.105127359356059"><ele>218.66666666666669</ele><time>2026-04-19T11:23:30.999Z</time></trkpt><trkpt lat="45.84326209645834" lon="9.104999788363964"><ele>218.0</ele><time>2026-04-19T11:23:31.999Z</time></trkpt><trkpt lat="45.84310531930917" lon="9.10487965887386"><ele>218.0</ele><time>2026-04-19T11:23:32.999Z</time></trkpt><trkpt lat="45.842960876744705" lon="9.104762553996862"><ele>218.0</ele><time>2026-04-19T11:23:33.999Z</time></trkpt><trkpt lat="45.84284525196557" lon="9.104638029306493"><ele>218.0</ele><time>2026-04-19T11:23:34.999Z</time></trkpt><trkpt lat="45.84270198457705" lon="9.104578878284267"><ele>221.8</ele><time>2026-04-19T11:23:35.999Z</time></trkpt><trkpt lat="45.842577176099375" lon="9.104542846185746"><ele>225.60000000000002</ele><time>2026-04-19T11:23:37Z</time></trkpt><trkpt lat="45.84247746565135" lon="9.104552077699395"><ele>229.39999999999998</ele><time>2026-04-19T11:23:38Z</time></trkpt><trkpt lat="45.84240339633498" lon="9.104567870151177"><ele>233.2</ele><time>2026-04-19T11:23:39Z</time></trkpt><trkpt lat="45.8423399616642" lon="9.104519580615829"><ele>237.0</ele><time>2026-04-19T11:23:40Z</time></trkpt><trkpt lat="45.84226351831237" lon="9.104514229496255"><ele>237.0</ele><time>2026-04-19T11:23:42Z</time></trkpt><trkpt lat="45.84218765964104" lon="9.104501832474904"><ele>237.0</ele><time>2026-04-19T11:24:07Z</time></trkpt><trkpt lat="45.841984146686166" lon="9.104453928956532"><ele>237.0</ele><time>2026-04-19T11:24:10Z</time></trkpt><trkpt lat="45.84189809340168" lon="9.104424299363554"><ele>237.0</ele><time>2026-04-19T11:24:11Z</time></trkpt><trkpt lat="45.84180164715231" lon="9.104374919434354"><ele>238.2</ele><time>2026-04-19T11:24:12Z</time></trkpt><trkpt lat="45.8416953696478" lon="9.104312849579964"><ele>239.39999999999998</ele><time>2026-04-19T11:24:13Z</time></trkpt><trkpt lat="45.84160533995723" lon="9.104252043967392"><ele>240.60000000000002</ele><time>2026-04-19T11:24:14Z</time></trkpt><trkpt lat="45.84150911695511" lon="9.104209258329423"><ele>241.8</ele><time>2026-04-19T11:24:15Z</time></trkpt><trkpt lat="45.8414358884026" lon="9.10418689866047"><ele>243.0</ele><time>2026-04-19T11:24:16Z</time></trkpt><trkpt lat="45.841320279727405" lon="9.10424856913227"><ele>243.0</ele><time>2026-04-19T11:24:17Z</time></trkpt><trkpt lat="45.841228615337144" lon="9.10426063566071"><ele>243.0</ele><time>2026-04-19T11:24:18Z</time></trkpt><trkpt lat="45.84112906769712" lon="9.10427849857641"><ele>243.0</ele><time>2026-04-19T11:24:19Z</time></trkpt><trkpt lat="45.841024079442256" lon="9.104288754027825"><ele>243.0</ele><time>2026-04-19T11:24:20Z</time></trkpt><trkpt lat="45.84093722957504" lon="9.104280206776352"><ele>243.0</ele><time>2026-04-19T11:24:21Z</time></trkpt><trkpt lat="45.84084727070867" lon="9.104252612677612"><ele>245.8</ele><time>2026-04-19T11:24:22Z</time></trkpt><trkpt lat="45.84078841029673" lon="9.104202269890498"><ele>248.60000000000002</ele><time>2026-04-19T11:24:23Z</time></trkpt><trkpt lat="45.84071402613976" lon="9.104090544095463"><ele>251.39999999999998</ele><time>2026-04-19T11:24:24Z</time></trkpt><trkpt lat="45.84063433102038" lon="9.104003520563005"><ele>254.2</ele><time>2026-04-19T11:24:25Z</time></trkpt><trkpt lat="45.84054956823192" lon="9.103918819137858"><ele>257.0</ele><time>2026-04-19T11:24:26Z</time></trkpt><trkpt lat="45.84046733469526" lon="9.10386800751311"><ele>251.0</ele><time>2026-04-19T11:24:27Z</time></trkpt><trkpt lat="45.84037652080801" lon="9.103858545463485"><ele>245.0</ele><time>2026-04-19T11:24:28Z</time></trkpt><trkpt lat="45.840187277196144" lon="9.103902454262885"><ele>239.0</ele><time>2026-04-19T11:24:30Z</time></trkpt><trkpt lat="45.840090831693786" lon="9.103924949501865"><ele>233.0</ele><time>2026-04-19T11:24:31Z</time></trkpt><trkpt lat="45.83998497915182" lon="9.103943903348876"><ele>233.0</ele><time>2026-04-19T11:24:32Z</time></trkpt><trkpt lat="45.83988048555943" lon="9.103949881971063"><ele>233.0</ele><time>2026-04-19T11:24:32.999Z</time></trkpt><trkpt lat="45.83978399454277" lon="9.103906978968451"><ele>233.0</ele><time>2026-04-19T11:24:33.999Z</time></trkpt><trkpt lat="45.83968442775226" lon="9.103835654269576"><ele>233.0</ele><time>2026-04-19T11:24:34.999Z</time></trkpt><trkpt lat="45.83960354635469" lon="9.10371185886085"><ele>233.0</ele><time>2026-04-19T11:24:35.999Z</time></trkpt><trkpt lat="45.83951993404707" lon="9.103584345914074"><ele>233.0</ele><time>2026-04-19T11:24:36.999Z</time></trkpt><trkpt lat="45.839425738985824" lon="9.103468487749732"><ele>233.0</ele><time>2026-04-19T11:24:37.999Z</time></trkpt><trkpt lat="45.83934757010656" lon="9.10337854968119"><ele>233.0</ele><time>2026-04-19T11:24:38.999Z</time></trkpt><trkpt lat="45.8392348316863" lon="9.103330696885077"><ele>233.0</ele><time>2026-04-19T11:24:39.999Z</time></trkpt><trkpt lat="45.83910362070621" lon="9.10331957283565"><ele>232.60000000000002</ele><time>2026-04-19T11:24:40.999Z</time></trkpt><trkpt lat="45.83899270257709" lon="9.103304998726067"><ele>232.20000000000002</ele><time>2026-04-19T11:24:41.999Z</time></trkpt><trkpt lat="45.838891063481924" lon="9.10327532066285"><ele>231.8</ele><time>2026-04-19T11:24:42.999Z</time></trkpt><trkpt lat="45.83879274896237" lon="9.103222464632369"><ele>231.4</ele><time>2026-04-19T11:24:43.999Z</time></trkpt><trkpt lat="45.83871512991595" lon="9.103110859662644"><ele>231.0</ele><time>2026-04-19T11:24:44.999Z</time></trkpt><trkpt lat="45.83861575616767" lon="9.103002608755547"><ele>231.0</ele><time>2026-04-19T11:24:45.999Z</time></trkpt><trkpt lat="45.83852241980482" lon="9.102928929468533"><ele>231.00000000000003</ele><time>2026-04-19T11:24:46.999Z</time></trkpt><trkpt lat="45.838442052475976" lon="9.102874211629086"><ele>231.00000000000003</ele><time>2026-04-19T11:24:47.999Z</time></trkpt><trkpt lat="45.83837291138403" lon="9.102884645774266"><ele>231.0</ele><time>2026-04-19T11:24:48.999Z</time></trkpt><trkpt lat="45.8382341088027" lon="9.102788185478236"><ele>231.0</ele><time>2026-04-19T11:24:50.999Z</time></trkpt><trkpt lat="45.83816870650035" lon="9.10274547922708"><ele>229.8</ele><time>2026-04-19T11:24:51.999Z</time></trkpt><trkpt lat="45.83813052943332" lon="9.102659863366092"><ele>228.60000000000002</ele><time>2026-04-19T11:24:52.999Z</time></trkpt><trkpt lat="45.83812700313908" lon="9.102525138387794"><ele>227.4</ele><time>2026-04-19T11:24:53.999Z</time></trkpt><trkpt lat="45.83811401387503" lon="9.102376221539698"><ele>226.2</ele><time>2026-04-19T11:24:54.999Z</time></trkpt><trkpt lat="45.83808872126467" lon="9.102237210831076"><ele>225.0</ele><time>2026-04-19T11:24:55.999Z</time></trkpt><trkpt lat="45.83805538428478" lon="9.102122136638615"><ele>225.0</ele><time>2026-04-19T11:24:56.999Z</time></trkpt><trkpt lat="45.83800585232372" lon="9.10202603309374"><ele>225.0</ele><time>2026-04-19T11:24:57.999Z</time></trkpt><trkpt lat="45.83792578788172" lon="9.101955455848591"><ele>225.0</ele><time>2026-04-19T11:24:58.999Z</time></trkpt><trkpt lat="45.83783096733529" lon="9.101917467267208"><ele>225.0</ele><time>2026-04-19T11:24:59.999Z</time></trkpt><trkpt lat="45.83772838373107" lon="9.101912900792529"><ele>225.0</ele><time>2026-04-19T11:25:00.999Z</time></trkpt><trkpt lat="45.83762456905491" lon="9.101942444483527"><ele>228.6</ele><time>2026-04-19T11:25:01.999Z</time></trkpt><trkpt lat="45.837530191056835" lon="9.101954335354252"><ele>232.2</ele><time>2026-04-19T11:25:02.999Z</time></trkpt><trkpt lat="45.83741786298352" lon="9.101998923558721"><ele>235.8</ele><time>2026-04-19T11:25:03.999Z</time></trkpt><trkpt lat="45.83733157804821" lon="9.102025115725448"><ele>239.4</ele><time>2026-04-19T11:25:04.999Z</time></trkpt><trkpt lat="45.83721295788703" lon="9.102064330915521"><ele>243.0</ele><time>2026-04-19T11:25:05.999Z</time></trkpt><trkpt lat="45.83711590990171" lon="9.10205259445104"><ele>243.0</ele><time>2026-04-19T11:25:06.999Z</time></trkpt><trkpt lat="45.83701336274988" lon="9.101969830244164"><ele>243.0</ele><time>2026-04-19T11:25:07.999Z</time></trkpt><trkpt lat="45.83692645551121" lon="9.10187810606844"><ele>243.0</ele><time>2026-04-19T11:25:08.999Z</time></trkpt><trkpt lat="45.836822171365476" lon="9.101780416003924"><ele>243.0</ele><time>2026-04-19T11:25:09.999Z</time></trkpt><trkpt lat="45.83662073808446" lon="9.101545694838267"><ele>239.5</ele><time>2026-04-19T11:25:11.999Z</time></trkpt><trkpt lat="45.83650294851592" lon="9.101472891025251"><ele>236.0</ele><time>2026-04-19T11:25:12.999Z</time></trkpt><trkpt lat="45.83638770372234" lon="9.101451371003952"><ele>232.5</ele><time>2026-04-19T11:25:13.999Z</time></trkpt><trkpt lat="45.836268882927506" lon="9.101389204413762"><ele>229.0</ele><time>2026-04-19T11:25:14.999Z</time></trkpt><trkpt lat="45.83615768149112" lon="9.101328264084746"><ele>229.0</ele><time>2026-04-19T11:25:15.999Z</time></trkpt><trkpt lat="45.836053121124465" lon="9.10121935838874"><ele>229.0</ele><time>2026-04-19T11:25:16.999Z</time></trkpt><trkpt lat="45.8359716827029" lon="9.101091560034641"><ele>229.0</ele><time>2026-04-19T11:25:17.999Z</time></trkpt><trkpt lat="45.83594783159113" lon="9.100951711270003"><ele>229.0</ele><time>2026-04-19T11:25:18.999Z</time></trkpt><trkpt lat="45.83587932821886" lon="9.100825245968904"><ele>236.75</ele><time>2026-04-19T11:25:19.999Z</time></trkpt><trkpt lat="45.83586797209958" lon="9.100660491979639"><ele>244.5</ele><time>2026-04-19T11:25:20.999Z</time></trkpt><trkpt lat="45.835828321245046" lon="9.100491464729004"><ele>252.25</ele><time>2026-04-19T11:25:21.999Z</time></trkpt><trkpt lat="45.835779385582434" lon="9.100324551407573"><ele>260.0</ele><time>2026-04-19T11:25:22.999Z</time></trkpt><trkpt lat="45.83572835759945" lon="9.100139926437176"><ele>260.0</ele><time>2026-04-19T11:25:23.999Z</time></trkpt><trkpt lat="45.83567660449326" lon="9.099920377337641"><ele>260.0</ele><time>2026-04-19T11:25:24.999Z</time></trkpt><trkpt lat="45.83564856633202" lon="9.099669026853663"><ele>260.0</ele><time>2026-04-19T11:25:25.999Z</time></trkpt><trkpt lat="45.83560958217936" lon="9.099444390678176"><ele>255.33333333333334</ele><time>2026-04-19T11:25:26.999Z</time></trkpt><trkpt lat="45.835522355322446" lon="9.099234856694089"><ele>250.66666666666669</ele><time>2026-04-19T11:25:27.999Z</time></trkpt><trkpt lat="45.83539821013964" lon="9.099031324520704"><ele>246.0</ele><time>2026-04-19T11:25:28.999Z</time></trkpt><trkpt lat="45.83526976156685" lon="9.098837159669419"><ele>241.0</ele><time>2026-04-19T11:25:29.999Z</time></trkpt><trkpt lat="45.835195628233585" lon="9.09861773576468"><ele>236.0</ele><time>2026-04-19T11:25:30.999Z</time></trkpt><trkpt lat="45.83504644484739" lon="9.098274880212946"><ele>241.25</ele><time>2026-04-19T11:25:32.999Z</time></trkpt><trkpt lat="45.83499898512808" lon="9.098104427302275"><ele>246.5</ele><time>2026-04-19T11:25:33.999Z</time></trkpt><trkpt lat="45.834944184538685" lon="9.097944181488645"><ele>251.75</ele><time>2026-04-19T11:25:34.999Z</time></trkpt><trkpt lat="45.834931452343106" lon="9.097744591264243"><ele>257.0</ele><time>2026-04-19T11:25:35.999Z</time></trkpt><trkpt lat="45.83488342436306" lon="9.09759110292127"><ele>257.0</ele><time>2026-04-19T11:25:36.999Z</time></trkpt><trkpt lat="45.83481180730251" lon="9.097447947935027"><ele>257.0</ele><time>2026-04-19T11:25:37.999Z</time></trkpt><trkpt lat="45.83472724422424" lon="9.097327749696904"><ele>257.0</ele><time>2026-04-19T11:25:38.999Z</time></trkpt><trkpt lat="45.834634155249944" lon="9.097213597307924"><ele>257.0</ele><time>2026-04-19T11:25:39.999Z</time></trkpt><trkpt lat="45.83453742589142" lon="9.097103917889061"><ele>261.0</ele><time>2026-04-19T11:25:40.999Z</time></trkpt><trkpt lat="45.834426851756845" lon="9.096988378638011"><ele>265.0</ele><time>2026-04-19T11:25:41.999Z</time></trkpt><trkpt lat="45.8343202596649" lon="9.096897792207804"><ele>269.0</ele><time>2026-04-19T11:25:43Z</time></trkpt><trkpt lat="45.83420303892641" lon="9.096803583904283"><ele>273.0</ele><time>2026-04-19T11:25:44Z</time></trkpt><trkpt lat="45.834086483910134" lon="9.0967162868602"><ele>273.0</ele><time>2026-04-19T11:25:45Z</time></trkpt><trkpt lat="45.83397800755494" lon="9.096594974819196"><ele>273.0</ele><time>2026-04-19T11:25:46Z</time></trkpt><trkpt lat="45.833851913527695" lon="9.096466309466336"><ele>273.0</ele><time>2026-04-19T11:25:47.016Z</time></trkpt><trkpt lat="45.833726509716314" lon="9.096336275145978"><ele>273.0</ele><time>2026-04-19T11:25:48.015Z</time></trkpt><trkpt lat="45.83359771013536" lon="9.09621967043825"><ele>266.6666666666667</ele><time>2026-04-19T11:25:49.015Z</time></trkpt><trkpt lat="45.833439867626524" lon="9.096090666224788"><ele>260.33333333333337</ele><time>2026-04-19T11:25:50.011Z</time></trkpt><trkpt lat="45.83333543636123" lon="9.096081392232383"><ele>254.0</ele><time>2026-04-19T11:25:51.016Z</time></trkpt><trkpt lat="45.833147973796194" lon="9.09598524683071"><ele>254.0</ele><time>2026-04-19T11:25:52Z</time></trkpt><trkpt lat="45.83285416990928" lon="9.095782289957477"><ele>254.0</ele><time>2026-04-19T11:25:54Z</time></trkpt><trkpt lat="45.83266588459647" lon="9.095604561235378"><ele>250.0</ele><time>2026-04-19T11:25:55Z</time></trkpt><trkpt lat="45.83240205822238" lon="9.095386206764939"><ele>246.0</ele><time>2026-04-19T11:25:56Z</time></trkpt><trkpt lat="45.83221123507528" lon="9.09523925741724"><ele>246.0</ele><time>2026-04-19T11:25:57Z</time></trkpt><trkpt lat="45.83202240934067" lon="9.095087077866683"><ele>246.0</ele><time>2026-04-19T11:25:58Z</time></trkpt><trkpt lat="45.8318318610394" lon="9.09493638595864"><ele>246.0</ele><time>2026-04-19T11:25:59Z</time></trkpt><trkpt lat="45.831628231668056" lon="9.094782569470752"><ele>245.33333333333331</ele><time>2026-04-19T11:26:00Z</time></trkpt><trkpt lat="45.831419580746626" lon="9.094652581458865"><ele>244.66666666666666</ele><time>2026-04-19T11:26:01Z</time></trkpt><trkpt lat="45.831224996093276" lon="9.094523323505939"><ele>244.0</ele><time>2026-04-19T11:26:02Z</time></trkpt><trkpt lat="45.83102586218626" lon="9.09438308973332"><ele>246.33333333333331</ele><time>2026-04-19T11:26:03Z</time></trkpt><trkpt lat="45.830834728986524" lon="9.094219792698793"><ele>248.66666666666669</ele><time>2026-04-19T11:26:04.011Z</time></trkpt><trkpt lat="45.83064260993616" lon="9.094069555800214"><ele>251.0</ele><time>2026-04-19T11:26:05.015Z</time></trkpt><trkpt lat="45.83044945289522" lon="9.09391769650318"><ele>251.0</ele><time>2026-04-19T11:26:06.016Z</time></trkpt><trkpt lat="45.830255715795424" lon="9.093765381042672"><ele>251.0</ele><time>2026-04-19T11:26:07.015Z</time></trkpt><trkpt lat="45.82840311224321" lon="9.091163285301738"><ele>248.0</ele><time>2026-04-19T11:26:11.554Z</time></trkpt><trkpt lat="45.82811979471822" lon="9.090359538755111"><ele>220.0</ele><time>2026-04-19T11:26:12.553Z</time></trkpt><trkpt lat="45.82772820499038" lon="9.089257527608797"><ele>220.0</ele><time>2026-04-19T11:26:27Z</time></trkpt><trkpt lat="45.82768257281562" lon="9.089110688063215"><ele>220.0</ele><time>2026-04-19T11:26:28Z</time></trkpt><trkpt lat="45.82755874007828" lon="9.088934261420548"><ele>220.0</ele><time>2026-04-19T11:26:29Z</time></trkpt><trkpt lat="45.82742859946975" lon="9.088750272545756"><ele>218.66666666666666</ele><time>2026-04-19T11:26:30Z</time></trkpt><trkpt lat="45.82728295875137" lon="9.088520369668569"><ele>217.33333333333331</ele><time>2026-04-19T11:26:31Z</time></trkpt><trkpt lat="45.82715508633744" lon="9.088294001549293"><ele>216.0</ele><time>2026-04-19T11:26:32Z</time></trkpt><trkpt lat="45.827034209530076" lon="9.088067656932694"><ele>230.5</ele><time>2026-04-19T11:26:33Z</time></trkpt><trkpt lat="45.82678656614332" lon="9.087593967440352"><ele>245.0</ele><time>2026-04-19T11:26:35Z</time></trkpt><trkpt lat="45.82669635794001" lon="9.087388724880453"><ele>245.0</ele><time>2026-04-19T11:26:36Z</time></trkpt><trkpt lat="45.826593261063636" lon="9.087139878201667"><ele>245.0</ele><time>2026-04-19T11:26:37Z</time></trkpt><trkpt lat="45.826498382317276" lon="9.086907241589266"><ele>245.0</ele><time>2026-04-19T11:26:38Z</time></trkpt><trkpt lat="45.826406035415545" lon="9.086667299673053"><ele>240.33333333333334</ele><time>2026-04-19T11:26:39Z</time></trkpt><trkpt lat="45.82632682218978" lon="9.086444951908668"><ele>235.66666666666669</ele><time>2026-04-19T11:26:40Z</time></trkpt><trkpt lat="45.826252304821224" lon="9.086225077838003"><ele>231.0</ele><time>2026-04-19T11:26:41Z</time></trkpt><trkpt lat="45.82618610781257" lon="9.08601858060904"><ele>231.0</ele><time>2026-04-19T11:26:42Z</time></trkpt><trkpt lat="45.82613161927819" lon="9.085842891732046"><ele>231.0</ele><time>2026-04-19T11:26:42.999Z</time></trkpt><trkpt lat="45.82611186198143" lon="9.085666365531914"><ele>231.0</ele><time>2026-04-19T11:26:43.999Z</time></trkpt><trkpt lat="45.826125302309634" lon="9.08546048270694"><ele>231.0</ele><time>2026-04-19T11:26:44.999Z</time></trkpt><trkpt lat="45.82615398665274" lon="9.085252994393647"><ele>229.66666666666669</ele><time>2026-04-19T11:26:45.999Z</time></trkpt><trkpt lat="45.826179396389875" lon="9.085001577864817"><ele>228.33333333333334</ele><time>2026-04-19T11:26:46.999Z</time></trkpt><trkpt lat="45.826184043803096" lon="9.084746226459886"><ele>227.0</ele><time>2026-04-19T11:26:47.999Z</time></trkpt><trkpt lat="45.8261665671453" lon="9.084509581793409"><ele>225.33333333333334</ele><time>2026-04-19T11:26:48.999Z</time></trkpt><trkpt lat="45.82612944594858" lon="9.08427456428696"><ele>223.66666666666669</ele><time>2026-04-19T11:26:49.999Z</time></trkpt><trkpt lat="45.82608172552268" lon="9.084033707384535"><ele>222.0</ele><time>2026-04-19T11:26:50.999Z</time></trkpt><trkpt lat="45.82602135601859" lon="9.083773999457595"><ele>231.33333333333331</ele><time>2026-04-19T11:26:51.999Z</time></trkpt><trkpt lat="45.82596204239138" lon="9.083528882974083"><ele>240.66666666666666</ele><time>2026-04-19T11:26:52.999Z</time></trkpt><trkpt lat="45.82592338516846" lon="9.0832886330538"><ele>250.0</ele><time>2026-04-19T11:26:53.999Z</time></trkpt><trkpt lat="45.825851389588095" lon="9.082788192940766"><ele>250.0</ele><time>2026-04-19T11:26:55.999Z</time></trkpt><trkpt lat="45.825791196307186" lon="9.082515566441524"><ele>250.0</ele><time>2026-04-19T11:26:56.999Z</time></trkpt><trkpt lat="45.82571836744986" lon="9.082259978706682"><ele>250.0</ele><time>2026-04-19T11:26:57.999Z</time></trkpt><trkpt lat="45.82564475673288" lon="9.082002417328408"><ele>243.0</ele><time>2026-04-19T11:26:58.999Z</time></trkpt><trkpt lat="45.825571629361555" lon="9.08177612888923"><ele>236.0</ele><time>2026-04-19T11:26:59.999Z</time></trkpt><trkpt lat="45.82548198686614" lon="9.081560599111576"><ele>229.0</ele><time>2026-04-19T11:27:00.999Z</time></trkpt><trkpt lat="45.82536977997878" lon="9.081370190029393"><ele>224.0</ele><time>2026-04-19T11:27:01.999Z</time></trkpt><trkpt lat="45.825238758373715" lon="9.081161157199237"><ele>219.0</ele><time>2026-04-19T11:27:02.999Z</time></trkpt><trkpt lat="45.82515153302281" lon="9.080984813928982"><ele>214.0</ele><time>2026-04-19T11:27:03.999Z</time></trkpt><trkpt lat="45.82509601789633" lon="9.08078406683819"><ele>218.0</ele><time>2026-04-19T11:27:04.999Z</time></trkpt><trkpt lat="45.82502913960581" lon="9.080585064103923"><ele>222.0</ele><time>2026-04-19T11:27:05.999Z</time></trkpt><trkpt lat="45.82492686938214" lon="9.080414752134441"><ele>226.0</ele><time>2026-04-19T11:27:06.999Z</time></trkpt><trkpt lat="45.82480825576102" lon="9.080278810049569"><ele>226.0</ele><time>2026-04-19T11:27:07.999Z</time></trkpt><trkpt lat="45.82466386698227" lon="9.080205780079345"><ele>226.0</ele><time>2026-04-19T11:27:08.999Z</time></trkpt><trkpt lat="45.824519848269624" lon="9.080115130267805"><ele>226.0</ele><time>2026-04-19T11:27:09.999Z</time></trkpt><trkpt lat="45.824352071755776" lon="9.080032028051722"><ele>226.5</ele><time>2026-04-19T11:27:10.999Z</time></trkpt><trkpt lat="45.824238921480664" lon="9.079968226240194"><ele>227.0</ele><time>2026-04-19T11:27:11.999Z</time></trkpt><trkpt lat="45.82410730831379" lon="9.079857132378843"><ele>227.5</ele><time>2026-04-19T11:27:12.999Z</time></trkpt><trkpt lat="45.82399685789465" lon="9.079688892479087"><ele>228.0</ele><time>2026-04-19T11:27:13.999Z</time></trkpt><trkpt lat="45.823881191787045" lon="9.079516299856826"><ele>228.0</ele><time>2026-04-19T11:27:14.999Z</time></trkpt><trkpt lat="45.82366224280343" lon="9.079152016006988"><ele>228.0</ele><time>2026-04-19T11:27:16.999Z</time></trkpt><trkpt lat="45.823547456073555" lon="9.079027874084685"><ele>223.33333333333331</ele><time>2026-04-19T11:27:17.999Z</time></trkpt><trkpt lat="45.823420501534905" lon="9.078922443562028"><ele>218.66666666666666</ele><time>2026-04-19T11:27:18.999Z</time></trkpt><trkpt lat="45.82325955867366" lon="9.078886029083405"><ele>214.0</ele><time>2026-04-19T11:27:19.999Z</time></trkpt><trkpt lat="45.823082474608206" lon="9.078870479393862"><ele>214.0</ele><time>2026-04-19T11:27:20.999Z</time></trkpt><trkpt lat="45.822921109819426" lon="9.078859471655395"><ele>214.0</ele><time>2026-04-19T11:27:21.999Z</time></trkpt><trkpt lat="45.82275914966633" lon="9.078851616856916"><ele>214.0</ele><time>2026-04-19T11:27:22.999Z</time></trkpt><trkpt lat="45.82260780200642" lon="9.078879855103748"><ele>213.25</ele><time>2026-04-19T11:27:23.999Z</time></trkpt><trkpt lat="45.822467197435955" lon="9.078869519821598"><ele>212.5</ele><time>2026-04-19T11:27:24.999Z</time></trkpt><trkpt lat="45.82233045141651" lon="9.078885729921398"><ele>211.75</ele><time>2026-04-19T11:27:25.999Z</time></trkpt><trkpt lat="45.8222204017352" lon="9.078940603161293"><ele>211.0</ele><time>2026-04-19T11:27:26.999Z</time></trkpt><trkpt lat="45.82211233330411" lon="9.079029458816429"><ele>221.25</ele><time>2026-04-19T11:27:27.999Z</time></trkpt><trkpt lat="45.82203180781722" lon="9.079151116647154"><ele>231.5</ele><time>2026-04-19T11:27:28.999Z</time></trkpt><trkpt lat="45.82197035980727" lon="9.079314025737224"><ele>241.75</ele><time>2026-04-19T11:27:29.999Z</time></trkpt><trkpt lat="45.82190080921557" lon="9.079433726184067"><ele>252.0</ele><time>2026-04-19T11:27:30.999Z</time></trkpt><trkpt lat="45.821841593921185" lon="9.079544249867622"><ele>252.0</ele><time>2026-04-19T11:27:31.999Z</time></trkpt><trkpt lat="45.821789750002274" lon="9.079630022359904"><ele>252.0</ele><time>2026-04-19T11:27:32.999Z</time></trkpt><trkpt lat="45.82171067123138" lon="9.079712336095836"><ele>252.0</ele><time>2026-04-19T11:27:38.999Z</time></trkpt><trkpt lat="45.821553335204044" lon="9.079848652346461"><ele>252.0</ele><time>2026-04-19T11:27:42.999Z</time></trkpt><trkpt lat="45.82150684782457" lon="9.079932991646828"><ele>252.0</ele><time>2026-04-19T11:27:47.999Z</time></trkpt><trkpt lat="45.82145270599152" lon="9.080006256078189"><ele>252.0</ele><time>2026-04-19T11:28:01Z</time></trkpt><trkpt lat="45.82133455230495" lon="9.080164447909159"><ele>252.0</ele><time>2026-04-19T11:28:07Z</time></trkpt><trkpt lat="45.82129629861382" lon="9.080236643831189"><ele>252.0</ele><time>2026-04-19T11:28:11Z</time></trkpt><trkpt lat="45.82122875049848" lon="9.08033084774952"><ele>252.0</ele><time>2026-04-19T11:28:16Z</time></trkpt><trkpt lat="45.82116426456917" lon="9.080380394194217"><ele>252.0</ele><time>2026-04-19T11:28:19Z</time></trkpt><trkpt lat="45.82111224124944" lon="9.080458814525622"><ele>249.75</ele><time>2026-04-19T11:28:22Z</time></trkpt><trkpt lat="45.82093524615116" lon="9.08065543972578"><ele>247.5</ele><time>2026-04-19T11:28:27Z</time></trkpt><trkpt lat="45.82087965170023" lon="9.080703406885599"><ele>245.25</ele><time>2026-04-19T11:28:28Z</time></trkpt><trkpt lat="45.82077599989853" lon="9.08079254481312"><ele>243.0</ele><time>2026-04-19T11:28:30Z</time></trkpt><trkpt lat="45.82071952444415" lon="9.080832609570201"><ele>243.0</ele><time>2026-04-19T11:28:31Z</time></trkpt><trkpt lat="45.82067607569901" lon="9.080906869571836"><ele>243.0</ele><time>2026-04-19T11:28:32Z</time></trkpt><trkpt lat="45.820591475794025" lon="9.081003764712065"><ele>243.0</ele><time>2026-04-19T11:28:34Z</time></trkpt><trkpt lat="45.82048950348032" lon="9.081087027436348"><ele>243.0</ele><time>2026-04-19T11:28:36Z</time></trkpt><trkpt lat="45.82037467927229" lon="9.081164191293313"><ele>243.0</ele><time>2026-04-19T11:28:38Z</time></trkpt><trkpt lat="45.820307445402236" lon="9.081227151788125"><ele>243.0</ele><time>2026-04-19T11:28:39Z</time></trkpt><trkpt lat="45.82021737031453" lon="9.08125444476636"><ele>243.0</ele><time>2026-04-19T11:28:40Z</time></trkpt><trkpt lat="45.82014751608613" lon="9.081288818873263"><ele>243.0</ele><time>2026-04-19T11:28:41Z</time></trkpt><trkpt lat="45.820040493636974" lon="9.081345507793072"><ele>243.0</ele><time>2026-04-19T11:28:43Z</time></trkpt><trkpt lat="45.819873197633484" lon="9.081441767626343"><ele>243.2</ele><time>2026-04-19T11:28:45.999Z</time></trkpt><trkpt lat="45.81976275109344" lon="9.081551369284034"><ele>243.4</ele><time>2026-04-19T11:28:47.999Z</time></trkpt><trkpt lat="45.819695958082065" lon="9.08161916982066"><ele>243.59999999999997</ele><time>2026-04-19T11:28:48.999Z</time></trkpt><trkpt lat="45.819591194372514" lon="9.08167242097866"><ele>243.79999999999998</ele><time>2026-04-19T11:28:49.999Z</time></trkpt><trkpt lat="45.81950865189094" lon="9.081697269513487"><ele>244.0</ele><time>2026-04-19T11:28:50.999Z</time></trkpt><trkpt lat="45.81943151935565" lon="9.081734493057407"><ele>243.99999999999997</ele><time>2026-04-19T11:28:51.999Z</time></trkpt><trkpt lat="45.81936981446581" lon="9.081779865138664"><ele>244.0</ele><time>2026-04-19T11:28:52.999Z</time></trkpt><trkpt lat="45.81930938094531" lon="9.081837372794059"><ele>244.0</ele><time>2026-04-19T11:28:53.999Z</time></trkpt><trkpt lat="45.81924602712985" lon="9.081903879193128"><ele>244.0</ele><time>2026-04-19T11:28:54.999Z</time></trkpt><trkpt lat="45.81917918925638" lon="9.081983804791168"><ele>243.99999999999997</ele><time>2026-04-19T11:28:55.999Z</time></trkpt><trkpt lat="45.819107869006395" lon="9.08207856963177"><ele>244.0</ele><time>2026-04-19T11:28:56.999Z</time></trkpt><trkpt lat="45.81904195262336" lon="9.082173907787283"><ele>243.79999999999998</ele><time>2026-04-19T11:28:57.999Z</time></trkpt><trkpt lat="45.81898384681289" lon="9.082264499743168"><ele>243.59999999999997</ele><time>2026-04-19T11:28:58.999Z</time></trkpt><trkpt lat="45.818934295797575" lon="9.082374130999902"><ele>243.4</ele><time>2026-04-19T11:28:59.999Z</time></trkpt><trkpt lat="45.81886881150746" lon="9.082467610995634"><ele>243.2</ele><time>2026-04-19T11:29:00.999Z</time></trkpt><trkpt lat="45.818796893454504" lon="9.082564223938123"><ele>243.0</ele><time>2026-04-19T11:29:01.999Z</time></trkpt><trkpt lat="45.818732951806716" lon="9.082669648238042"><ele>243.0</ele><time>2026-04-19T11:29:02.999Z</time></trkpt><trkpt lat="45.818670636331206" lon="9.082771827688456"><ele>243.0</ele><time>2026-04-19T11:29:03.999Z</time></trkpt><trkpt lat="45.818540782533404" lon="9.082963153094603"><ele>243.0</ele><time>2026-04-19T11:29:05.999Z</time></trkpt><trkpt lat="45.8184495554387" lon="9.083060768828998"><ele>243.0</ele><time>2026-04-19T11:29:06.999Z</time></trkpt><trkpt lat="45.818336003959296" lon="9.083124982497457"><ele>240.4</ele><time>2026-04-19T11:29:07.999Z</time></trkpt><trkpt lat="45.81824934242986" lon="9.083209734402892"><ele>237.8</ele><time>2026-04-19T11:29:08.999Z</time></trkpt><trkpt lat="45.81815283521694" lon="9.08327968740098"><ele>235.2</ele><time>2026-04-19T11:29:09.999Z</time></trkpt><trkpt lat="45.818058709745614" lon="9.083354016938163"><ele>232.6</ele><time>2026-04-19T11:29:10.999Z</time></trkpt><trkpt lat="45.817963343438656" lon="9.083439572434882"><ele>230.0</ele><time>2026-04-19T11:29:11.999Z</time></trkpt><trkpt lat="45.817871105740394" lon="9.083537731667532"><ele>230.0</ele><time>2026-04-19T11:29:12.999Z</time></trkpt><trkpt lat="45.817777419796336" lon="9.08363913832636"><ele>230.0</ele><time>2026-04-19T11:29:13.999Z</time></trkpt><trkpt lat="45.81768363936097" lon="9.083720434974179"><ele>230.0</ele><time>2026-04-19T11:29:14.999Z</time></trkpt><trkpt lat="45.81758464447237" lon="9.083810533158125"><ele>230.0</ele><time>2026-04-19T11:29:15.999Z</time></trkpt><trkpt lat="45.81748992045233" lon="9.08387710664613"><ele>229.0</ele><time>2026-04-19T11:29:16.999Z</time></trkpt><trkpt lat="45.81739087065194" lon="9.083961330396258"><ele>228.0</ele><time>2026-04-19T11:29:17.999Z</time></trkpt><trkpt lat="45.817297396345104" lon="9.08403228048315"><ele>227.0</ele><time>2026-04-19T11:29:18.999Z</time></trkpt><trkpt lat="45.81720685489503" lon="9.084104299957533"><ele>226.0</ele><time>2026-04-19T11:29:19.999Z</time></trkpt><trkpt lat="45.81711609692773" lon="9.084158597080373"><ele>225.0</ele><time>2026-04-19T11:29:20.999Z</time></trkpt><trkpt lat="45.8170386339509" lon="9.084195937696634"><ele>225.0</ele><time>2026-04-19T11:29:21.999Z</time></trkpt><trkpt lat="45.81696720482041" lon="9.084228395819785"><ele>225.0</ele><time>2026-04-19T11:29:22.999Z</time></trkpt><trkpt lat="45.81688541329758" lon="9.084264640701496"><ele>225.0</ele><time>2026-04-19T11:29:23.999Z</time></trkpt><trkpt lat="45.816815391982985" lon="9.084290817695459"><ele>225.0</ele><time>2026-04-19T11:29:24.999Z</time></trkpt><trkpt lat="45.816675127736836" lon="9.08435283233625"><ele>225.0</ele><time>2026-04-19T11:29:26.999Z</time></trkpt><trkpt lat="45.8165992180674" lon="9.084392000874464"><ele>222.4</ele><time>2026-04-19T11:29:27.999Z</time></trkpt><trkpt lat="45.81652664287962" lon="9.084432684152423"><ele>219.8</ele><time>2026-04-19T11:29:28.999Z</time></trkpt><trkpt lat="45.81640851977798" lon="9.08449420759472"><ele>217.2</ele><time>2026-04-19T11:29:30.999Z</time></trkpt><trkpt lat="45.816305750609274" lon="9.084544929999236"><ele>214.6</ele><time>2026-04-19T11:29:32.999Z</time></trkpt><trkpt lat="45.81623320219168" lon="9.084570448319552"><ele>212.0</ele><time>2026-04-19T11:29:33.999Z</time></trkpt><trkpt lat="45.81611390065193" lon="9.084623242724476"><ele>212.0</ele><time>2026-04-19T11:29:35.999Z</time></trkpt><trkpt lat="45.81605125180717" lon="9.084639946775713"><ele>212.0</ele><time>2026-04-19T11:29:36.999Z</time></trkpt><trkpt lat="45.8159963987552" lon="9.084688496146034"><ele>212.0</ele><time>2026-04-19T11:29:37.999Z</time></trkpt><trkpt lat="45.81594667277226" lon="9.084600117706474"><ele>212.0</ele><time>2026-04-19T11:29:38.999Z</time></trkpt><trkpt lat="45.81587821075319" lon="9.084576585932174"><ele>212.0</ele><time>2026-04-19T11:29:39.999Z</time></trkpt><trkpt lat="45.81580512438887" lon="9.084551195086659"><ele>212.0</ele><time>2026-04-19T11:29:40.999Z</time></trkpt><trkpt lat="45.81573731160423" lon="9.084527636329312"><ele>212.0</ele><time>2026-04-19T11:29:41.999Z</time></trkpt><trkpt lat="45.81567517105725" lon="9.084508075908191"><ele>211.5</ele><time>2026-04-19T11:29:42.999Z</time></trkpt><trkpt lat="45.815605965266954" lon="9.084496773153754"><ele>211.0</ele><time>2026-04-19T11:29:43.999Z</time></trkpt><trkpt lat="45.81549379136286" lon="9.084557188405316"><ele>210.5</ele><time>2026-04-19T11:29:45.999Z</time></trkpt><trkpt lat="45.81530055868093" lon="9.0844853248992"><ele>210.0</ele><time>2026-04-19T11:29:49.999Z</time></trkpt><trkpt lat="45.81525190322961" lon="9.084413850792776"><ele>210.0</ele><time>2026-04-19T11:29:51.999Z</time></trkpt><trkpt lat="45.81516343197532" lon="9.0842992440154"><ele>210.0</ele><time>2026-04-19T11:29:55Z</time></trkpt><trkpt lat="45.81509781883239" lon="9.084206826674945"><ele>210.0</ele><time>2026-04-19T11:29:57Z</time></trkpt><trkpt lat="45.81505646146458" lon="9.084133106106757"><ele>210.0</ele><time>2026-04-19T11:29:58Z</time></trkpt><trkpt lat="45.81497594112198" lon="9.084056983870378"><ele>210.0</ele><time>2026-04-19T11:30:00Z</time></trkpt><trkpt lat="45.81492761195224" lon="9.083998776275903"><ele>210.0</ele><time>2026-04-19T11:30:01Z</time></trkpt><trkpt lat="45.81487632574565" lon="9.083858010664256"><ele>208.6</ele><time>2026-04-19T11:30:03Z</time></trkpt><trkpt lat="45.814887562420815" lon="9.083738072326915"><ele>207.2</ele><time>2026-04-19T11:30:04Z</time></trkpt><trkpt lat="45.81492068849656" lon="9.083659004798307"><ele>205.8</ele><time>2026-04-19T11:30:05Z</time></trkpt><trkpt lat="45.81498862877866" lon="9.08352393826854"><ele>204.4</ele><time>2026-04-19T11:30:07Z</time></trkpt><trkpt lat="45.81497438895268" lon="9.083335944411628"><ele>203.0</ele><time>2026-04-19T11:30:09Z</time></trkpt><trkpt lat="45.81494195995351" lon="9.083234475094233"><ele>202.33333333333334</ele><time>2026-04-19T11:30:10Z</time></trkpt><trkpt lat="45.814898145081536" lon="9.083151251656613"><ele>201.66666666666669</ele><time>2026-04-19T11:30:11Z</time></trkpt><trkpt lat="45.814846725865856" lon="9.083066857436746"><ele>201.0</ele><time>2026-04-19T11:30:12Z</time></trkpt><trkpt lat="45.814784941116024" lon="9.082985711457772"><ele>200.33333333333331</ele><time>2026-04-19T11:30:13Z</time></trkpt><trkpt lat="45.8147242369087" lon="9.082884909621422"><ele>199.66666666666666</ele><time>2026-04-19T11:30:14Z</time></trkpt><trkpt lat="45.81465769801662" lon="9.08278724809185"><ele>199.0</ele><time>2026-04-19T11:30:15Z</time></trkpt><trkpt lat="45.81459783780539" lon="9.082697014186584"><ele>199.0</ele><time>2026-04-19T11:30:16Z</time></trkpt><trkpt lat="45.81453542576355" lon="9.082601061100508"><ele>199.0</ele><time>2026-04-19T11:30:17Z</time></trkpt><trkpt lat="45.81447211509775" lon="9.082504141694331"><ele>199.0</ele><time>2026-04-19T11:30:18Z</time></trkpt><trkpt lat="45.814404423261095" lon="9.082402299022618"><ele>199.0</ele><time>2026-04-19T11:30:19Z</time></trkpt><trkpt lat="45.814338868433936" lon="9.08230447137332"><ele>199.0</ele><time>2026-04-19T11:30:20Z</time></trkpt><trkpt lat="45.81427173323627" lon="9.08220935057279"><ele>198.79999999999998</ele><time>2026-04-19T11:30:21Z</time></trkpt><trkpt lat="45.81419550268268" lon="9.082096756906628"><ele>198.6</ele><time>2026-04-19T11:30:22Z</time></trkpt><trkpt lat="45.814118392997415" lon="9.081987882541322"><ele>198.4</ele><time>2026-04-19T11:30:23Z</time></trkpt><trkpt lat="45.81404955072347" lon="9.081877978129432"><ele>198.2</ele><time>2026-04-19T11:30:24Z</time></trkpt><trkpt lat="45.81396914036463" lon="9.081762157241164"><ele>198.0</ele><time>2026-04-19T11:30:25Z</time></trkpt><trkpt lat="45.813896142588895" lon="9.081654753258283"><ele>198.0</ele><time>2026-04-19T11:30:26Z</time></trkpt><trkpt lat="45.813828434672494" lon="9.081553683981554"><ele>198.0</ele><time>2026-04-19T11:30:27Z</time></trkpt><trkpt lat="45.81376382919276" lon="9.081461353121416"><ele>198.0</ele><time>2026-04-19T11:30:28Z</time></trkpt><trkpt lat="45.81363612278501" lon="9.081263294558928"><ele>198.0</ele><time>2026-04-19T11:30:30Z</time></trkpt><trkpt lat="45.8135650971898" lon="9.081159633989408"><ele>198.0</ele><time>2026-04-19T11:30:31Z</time></trkpt><trkpt lat="45.81349248400942" lon="9.081049632574935"><ele>198.0</ele><time>2026-04-19T11:30:32Z</time></trkpt><trkpt lat="45.81342154544687" lon="9.08093060553456"><ele>198.0</ele><time>2026-04-19T11:30:33Z</time></trkpt><trkpt lat="45.81335772929928" lon="9.080820386944728"><ele>198.0</ele><time>2026-04-19T11:30:34Z</time></trkpt><trkpt lat="45.81330068187335" lon="9.080711247349504"><ele>198.0</ele><time>2026-04-19T11:30:35Z</time></trkpt><trkpt lat="45.81325687021915" lon="9.080610143328148"><ele>198.0</ele><time>2026-04-19T11:30:36Z</time></trkpt><trkpt lat="45.81322033775036" lon="9.08052340053973"><ele>198.0</ele><time>2026-04-19T11:30:37Z</time></trkpt><trkpt lat="45.813178806626716" lon="9.080377736814542"><ele>198.0</ele><time>2026-04-19T11:30:39Z</time></trkpt><trkpt lat="45.81315227972589" lon="9.080280175488408"><ele>198.0</ele><time>2026-04-19T11:30:41Z</time></trkpt><trkpt lat="45.813132491651466" lon="9.08019388317504"><ele>198.0</ele><time>2026-04-19T11:30:47.999Z</time></trkpt><trkpt lat="45.813103683488485" lon="9.080073727843676"><ele>198.0</ele><time>2026-04-19T11:30:58.999Z</time></trkpt><trkpt lat="45.81304459466811" lon="9.07981087860537"><ele>197.16666666666666</ele><time>2026-04-19T11:31:01.999Z</time></trkpt><trkpt lat="45.81304324193888" lon="9.079699361008421"><ele>196.33333333333331</ele><time>2026-04-19T11:31:02.999Z</time></trkpt><trkpt lat="45.81301497780583" lon="9.079602455027738"><ele>195.5</ele><time>2026-04-19T11:31:03.999Z</time></trkpt><trkpt lat="45.813007478524064" lon="9.079500528935913"><ele>194.66666666666666</ele><time>2026-04-19T11:31:04.999Z</time></trkpt><trkpt lat="45.81299869131468" lon="9.079408847035973"><ele>193.83333333333331</ele><time>2026-04-19T11:31:05.999Z</time></trkpt><trkpt lat="45.81299187744304" lon="9.079269026812819"><ele>193.0</ele><time>2026-04-19T11:31:07.999Z</time></trkpt><trkpt lat="45.812982515668736" lon="9.079164863656601"><ele>193.8</ele><time>2026-04-19T11:31:10.999Z</time></trkpt><trkpt lat="45.81303910436887" lon="9.079061316111703"><ele>194.60000000000002</ele><time>2026-04-19T11:31:13.999Z</time></trkpt><trkpt lat="45.813029051253714" lon="9.078928987811969"><ele>195.39999999999998</ele><time>2026-04-19T11:31:15.999Z</time></trkpt><trkpt lat="45.813015408709745" lon="9.078753908370336"><ele>196.2</ele><time>2026-04-19T11:31:17.999Z</time></trkpt><trkpt lat="45.8130062454196" lon="9.078636312957391"><ele>197.0</ele><time>2026-04-19T11:31:18.999Z</time></trkpt><trkpt lat="45.812996929702614" lon="9.078516761182831"><ele>197.5</ele><time>2026-04-19T11:31:19.999Z</time></trkpt><trkpt lat="45.81297828676148" lon="9.078266350201504"><ele>198.0</ele><time>2026-04-19T11:31:21.999Z</time></trkpt><trkpt lat="45.812969044545554" lon="9.078137976976851"><ele>198.5</ele><time>2026-04-19T11:31:22.999Z</time></trkpt><trkpt lat="45.81295826323714" lon="9.07798822587835"><ele>199.0</ele><time>2026-04-19T11:31:23.999Z</time></trkpt><trkpt lat="45.81294710622003" lon="9.077838126436875"><ele>199.0</ele><time>2026-04-19T11:31:24.999Z</time></trkpt><trkpt lat="45.81293603918373" lon="9.077695978591601"><ele>199.0</ele><time>2026-04-19T11:31:25.999Z</time></trkpt><trkpt lat="45.81292385969845" lon="9.077541724105098"><ele>199.0</ele><time>2026-04-19T11:31:26.999Z</time></trkpt><trkpt lat="45.81291190415578" lon="9.077377712383296"><ele>199.0</ele><time>2026-04-19T11:31:27.999Z</time></trkpt><trkpt lat="45.81290098511979" lon="9.077219601434585"><ele>199.0</ele><time>2026-04-19T11:31:28.999Z</time></trkpt><trkpt lat="45.812891300682566" lon="9.077074805655098"><ele>199.2</ele><time>2026-04-19T11:31:29.999Z</time></trkpt><trkpt lat="45.81287952951192" lon="9.076930268420622"><ele>199.39999999999998</ele><time>2026-04-19T11:31:30.999Z</time></trkpt><trkpt lat="45.812868980723294" lon="9.076800741223874"><ele>199.6</ele><time>2026-04-19T11:31:31.999Z</time></trkpt><trkpt lat="45.81286043634128" lon="9.076695825745809"><ele>199.8</ele><time>2026-04-19T11:31:32.999Z</time></trkpt><trkpt lat="45.812849048845706" lon="9.076550681504248"><ele>200.0</ele><time>2026-04-19T11:31:34.999Z</time></trkpt><trkpt lat="45.81283269634278" lon="9.076311809386773"><ele>201.0</ele><time>2026-04-19T11:32:14Z</time></trkpt><trkpt lat="45.81281728187319" lon="9.07605330615495"><ele>202.0</ele><time>2026-04-19T11:32:17Z</time></trkpt><trkpt lat="45.81281192522879" lon="9.075941073422428"><ele>203.0</ele><time>2026-04-19T11:32:18Z</time></trkpt><trkpt lat="45.81280442311915" lon="9.075811469938976"><ele>204.0</ele><time>2026-04-19T11:32:19Z</time></trkpt><trkpt lat="45.812796523536434" lon="9.07567723733477"><ele>205.0</ele><time>2026-04-19T11:32:20Z</time></trkpt><trkpt lat="45.81278648331272" lon="9.07553234527513"><ele>205.0</ele><time>2026-04-19T11:32:21Z</time></trkpt><trkpt lat="45.81277587202948" lon="9.0753870973954"><ele>205.0</ele><time>2026-04-19T11:32:22Z</time></trkpt><trkpt lat="45.812764957515896" lon="9.075241007372385"><ele>205.0</ele><time>2026-04-19T11:32:23Z</time></trkpt><trkpt lat="45.812754634683536" lon="9.075107834878958"><ele>205.0</ele><time>2026-04-19T11:32:24Z</time></trkpt><trkpt lat="45.812745547041615" lon="9.074990597411933"><ele>205.0</ele><time>2026-04-19T11:32:25Z</time></trkpt><trkpt lat="45.81273702349346" lon="9.074880691353364"><ele>204.8</ele><time>2026-04-19T11:32:26Z</time></trkpt><trkpt lat="45.81272863779168" lon="9.074772619223795"><ele>204.6</ele><time>2026-04-19T11:32:27Z</time></trkpt><trkpt lat="45.812721084214566" lon="9.074675983592563"><ele>204.39999999999998</ele><time>2026-04-19T11:32:28Z</time></trkpt><trkpt lat="45.81271039753482" lon="9.07454163122982"><ele>204.2</ele><time>2026-04-19T11:32:30Z</time></trkpt><trkpt lat="45.812702139292554" lon="9.07443780888384"><ele>204.0</ele><time>2026-04-19T11:32:32Z</time></trkpt><trkpt lat="45.812678568963165" lon="9.074136354162816"><ele>205.25</ele><time>2026-04-19T11:32:43Z</time></trkpt><trkpt lat="45.81261042887004" lon="9.073913936525459"><ele>206.5</ele><time>2026-04-19T11:32:45Z</time></trkpt><trkpt lat="45.81259874138651" lon="9.073766962533377"><ele>207.75</ele><time>2026-04-19T11:32:46Z</time></trkpt><trkpt lat="45.812586787744955" lon="9.07361584490386"><ele>209.0</ele><time>2026-04-19T11:32:47Z</time></trkpt><trkpt lat="45.812574338960886" lon="9.073453042970382"><ele>209.25</ele><time>2026-04-19T11:32:48Z</time></trkpt><trkpt lat="45.812548413021" lon="9.073269365056674"><ele>209.5</ele><time>2026-04-19T11:32:48.999Z</time></trkpt><trkpt lat="45.812539887468255" lon="9.07309076493288"><ele>209.75</ele><time>2026-04-19T11:32:49.999Z</time></trkpt><trkpt lat="45.81252472564177" lon="9.072913381551261"><ele>210.0</ele><time>2026-04-19T11:32:50.999Z</time></trkpt><trkpt lat="45.81250169922594" lon="9.072722244164991"><ele>210.0</ele><time>2026-04-19T11:32:51.999Z</time></trkpt><trkpt lat="45.81248922631131" lon="9.072518680935476"><ele>210.0</ele><time>2026-04-19T11:32:52.999Z</time></trkpt><trkpt lat="45.81247396092238" lon="9.072307900569541"><ele>210.0</ele><time>2026-04-19T11:32:53.999Z</time></trkpt><trkpt lat="45.812463702471184" lon="9.072102556651942"><ele>210.0</ele><time>2026-04-19T11:32:54.999Z</time></trkpt><trkpt lat="45.81244936847256" lon="9.071894598539522"><ele>209.0</ele><time>2026-04-19T11:32:55.999Z</time></trkpt><trkpt lat="45.81246968941163" lon="9.071658067350407"><ele>208.0</ele><time>2026-04-19T11:32:56.999Z</time></trkpt><trkpt lat="45.81247460043996" lon="9.071400952599694"><ele>207.0</ele><time>2026-04-19T11:32:57.999Z</time></trkpt><trkpt lat="45.81244883468465" lon="9.071170033220989"><ele>207.0</ele><time>2026-04-19T11:32:58.999Z</time></trkpt><trkpt lat="45.812425949357745" lon="9.07096492894308"><ele>207.0</ele><time>2026-04-19T11:32:59.999Z</time></trkpt><trkpt lat="45.81238319091981" lon="9.070778866621126"><ele>207.0</ele><time>2026-04-19T11:33:00.999Z</time></trkpt><trkpt lat="45.81237161780247" lon="9.070595722810557"><ele>207.0</ele><time>2026-04-19T11:33:01.999Z</time></trkpt><trkpt lat="45.81235807850424" lon="9.070435436457961"><ele>207.0</ele><time>2026-04-19T11:33:02.999Z</time></trkpt><trkpt lat="45.812346241130165" lon="9.070292670570423"><ele>207.0</ele><time>2026-04-19T11:33:03.999Z</time></trkpt><trkpt lat="45.81233104061456" lon="9.070094498244513"><ele>207.0</ele><time>2026-04-19T11:33:05.999Z</time></trkpt><trkpt lat="45.812356446901106" lon="9.069952403539297"><ele>207.0</ele><time>2026-04-19T11:33:07.999Z</time></trkpt><trkpt lat="45.81225676130927" lon="9.069833700660789"><ele>207.16666666666666</ele><time>2026-04-19T11:33:09.999Z</time></trkpt><trkpt lat="45.81219861799616" lon="9.069788636465333"><ele>207.33333333333331</ele><time>2026-04-19T11:33:10.999Z</time></trkpt><trkpt lat="45.81212335366708" lon="9.069728725566216"><ele>207.5</ele><time>2026-04-19T11:33:11.999Z</time></trkpt><trkpt lat="45.812052116543605" lon="9.069657608638975"><ele>207.66666666666666</ele><time>2026-04-19T11:33:12.999Z</time></trkpt><trkpt lat="45.81199797713511" lon="9.069553104203774"><ele>207.83333333333331</ele><time>2026-04-19T11:33:13.999Z</time></trkpt><trkpt lat="45.81192242174068" lon="9.069480926200432"><ele>208.0</ele><time>2026-04-19T11:33:14.999Z</time></trkpt><trkpt lat="45.81186524873255" lon="9.06937561127981"><ele>208.0</ele><time>2026-04-19T11:33:15.999Z</time></trkpt><trkpt lat="45.81186373985866" lon="9.069229156036416"><ele>208.0</ele><time>2026-04-19T11:33:16.999Z</time></trkpt><trkpt lat="45.81183054032477" lon="9.06910603300882"><ele>208.0</ele><time>2026-04-19T11:33:17.999Z</time></trkpt><trkpt lat="45.8118082402682" lon="9.068983233517017"><ele>208.0</ele><time>2026-04-19T11:33:18.999Z</time></trkpt><trkpt lat="45.811840895480486" lon="9.06888333106595"><ele>208.0</ele><time>2026-04-19T11:33:19.999Z</time></trkpt><trkpt lat="45.81194174203352" lon="9.06866159959492"><ele>210.0</ele><time>2026-04-19T11:33:21.999Z</time></trkpt><trkpt lat="45.81201426491786" lon="9.068532273157262"><ele>212.0</ele><time>2026-04-19T11:33:22.999Z</time></trkpt><trkpt lat="45.8120960136206" lon="9.068389266796444"><ele>214.0</ele><time>2026-04-19T11:33:23.999Z</time></trkpt><trkpt lat="45.81219786083741" lon="9.068225220924436"><ele>216.0</ele><time>2026-04-19T11:33:24.999Z</time></trkpt><trkpt lat="45.8123723980281" lon="9.067885567517868"><ele>217.0</ele><time>2026-04-19T11:33:26.999Z</time></trkpt><trkpt lat="45.81247221784531" lon="9.067717467752914"><ele>218.0</ele><time>2026-04-19T11:33:27.999Z</time></trkpt><trkpt lat="45.81256187108345" lon="9.0675499454221"><ele>219.0</ele><time>2026-04-19T11:33:28.999Z</time></trkpt><trkpt lat="45.812669424111895" lon="9.06734892386577"><ele>219.0</ele><time>2026-04-19T11:33:29.999Z</time></trkpt><trkpt lat="45.8127773364324" lon="9.067146254648728"><ele>219.0</ele><time>2026-04-19T11:33:30.999Z</time></trkpt><trkpt lat="45.81288508296885" lon="9.066943896901062"><ele>219.0</ele><time>2026-04-19T11:33:31.999Z</time></trkpt><trkpt lat="45.81299560487356" lon="9.066736326638079"><ele>226.0</ele><time>2026-04-19T11:33:32.999Z</time></trkpt><trkpt lat="45.81310545468234" lon="9.066529161592054"><ele>233.0</ele><time>2026-04-19T11:33:33.999Z</time></trkpt><trkpt lat="45.81320217324727" lon="9.066349215771139"><ele>240.0</ele><time>2026-04-19T11:33:34.999Z</time></trkpt><trkpt lat="45.81329827971701" lon="9.06617613239922"><ele>240.0</ele><time>2026-04-19T11:33:35.999Z</time></trkpt><trkpt lat="45.81339436120345" lon="9.066009009250468"><ele>240.0</ele><time>2026-04-19T11:33:36.999Z</time></trkpt><trkpt lat="45.813485745620895" lon="9.065818195767282"><ele>240.0</ele><time>2026-04-19T11:33:37.999Z</time></trkpt><trkpt lat="45.81359140006809" lon="9.065646005472939"><ele>237.75</ele><time>2026-04-19T11:33:38.999Z</time></trkpt><trkpt lat="45.8136913324923" lon="9.065482812167483"><ele>235.5</ele><time>2026-04-19T11:33:39.999Z</time></trkpt><trkpt lat="45.81379215847408" lon="9.065324988017332"><ele>233.25</ele><time>2026-04-19T11:33:40.999Z</time></trkpt><trkpt lat="45.81389324506099" lon="9.065168914657855"><ele>231.0</ele><time>2026-04-19T11:33:41.999Z</time></trkpt><trkpt lat="45.813989075019684" lon="9.064989351359923"><ele>240.33333333333331</ele><time>2026-04-19T11:33:42.999Z</time></trkpt><trkpt lat="45.814102675380916" lon="9.06482639472498"><ele>249.66666666666666</ele><time>2026-04-19T11:33:43.999Z</time></trkpt><trkpt lat="45.81420380021688" lon="9.064632384915459"><ele>259.0</ele><time>2026-04-19T11:33:44.999Z</time></trkpt><trkpt lat="45.81429392171087" lon="9.064472294665832"><ele>253.0</ele><time>2026-04-19T11:33:45.999Z</time></trkpt><trkpt lat="45.81454527382057" lon="9.06435304219887"><ele>247.0</ele><time>2026-04-19T11:33:47.999Z</time></trkpt><trkpt lat="45.81470202836023" lon="9.064295801280078"><ele>241.0</ele><time>2026-04-19T11:33:48.999Z</time></trkpt><trkpt lat="45.814851053442354" lon="9.064195901918499"><ele>241.0</ele><time>2026-04-19T11:33:49.999Z</time></trkpt><trkpt lat="45.814980716969615" lon="9.064013440937021"><ele>241.0</ele><time>2026-04-19T11:33:50.999Z</time></trkpt><trkpt lat="45.81512177320344" lon="9.063838788814207"><ele>241.0</ele><time>2026-04-19T11:33:51.999Z</time></trkpt><trkpt lat="45.8152593925609" lon="9.063646983084467"><ele>241.0</ele><time>2026-04-19T11:33:52.999Z</time></trkpt><trkpt lat="45.81537921343022" lon="9.063478571922603"><ele>241.0</ele><time>2026-04-19T11:33:53.998Z</time></trkpt><trkpt lat="45.815492599697464" lon="9.06332782022565"><ele>241.0</ele><time>2026-04-19T11:33:54.998Z</time></trkpt><trkpt lat="45.81561928579531" lon="9.063185625028513"><ele>242.25</ele><time>2026-04-19T11:33:55.998Z</time></trkpt><trkpt lat="45.8157412137796" lon="9.063055806680808"><ele>243.5</ele><time>2026-04-19T11:33:56.998Z</time></trkpt><trkpt lat="45.81585136974937" lon="9.06294074618736"><ele>244.75</ele><time>2026-04-19T11:33:57.998Z</time></trkpt><trkpt lat="45.815969936404905" lon="9.062828969143602"><ele>246.0</ele><time>2026-04-19T11:33:58.998Z</time></trkpt><trkpt lat="45.816102321488565" lon="9.062729367941634"><ele>246.0</ele><time>2026-04-19T11:33:59.998Z</time></trkpt><trkpt lat="45.81623417209529" lon="9.062650296340651"><ele>246.0</ele><time>2026-04-19T11:34:00.998Z</time></trkpt><trkpt lat="45.81635195891305" lon="9.062581908093097"><ele>246.0</ele><time>2026-04-19T11:34:01.998Z</time></trkpt><trkpt lat="45.81646743248273" lon="9.062514281392282"><ele>246.0</ele><time>2026-04-19T11:34:02.998Z</time></trkpt><trkpt lat="45.81657971633172" lon="9.062443340660119"><ele>244.5</ele><time>2026-04-19T11:34:03.998Z</time></trkpt><trkpt lat="45.8166801467755" lon="9.062350998204444"><ele>243.0</ele><time>2026-04-19T11:34:04.998Z</time></trkpt><trkpt lat="45.81675263603733" lon="9.062201907258384"><ele>241.5</ele><time>2026-04-19T11:34:05.998Z</time></trkpt><trkpt lat="45.81681923321318" lon="9.062044062171816"><ele>240.0</ele><time>2026-04-19T11:34:07Z</time></trkpt><trkpt lat="45.81690014850272" lon="9.061712189970308"><ele>245.0</ele><time>2026-04-19T11:34:09Z</time></trkpt><trkpt lat="45.81697770531383" lon="9.061565075698503"><ele>250.0</ele><time>2026-04-19T11:34:10Z</time></trkpt><trkpt lat="45.81702809292428" lon="9.061392002866556"><ele>255.0</ele><time>2026-04-19T11:34:11Z</time></trkpt><trkpt lat="45.81710653939417" lon="9.061232495970536"><ele>260.0</ele><time>2026-04-19T11:34:12Z</time></trkpt><trkpt lat="45.81719836788327" lon="9.061086320660454"><ele>260.0</ele><time>2026-04-19T11:34:13Z</time></trkpt><trkpt lat="45.817274135217126" lon="9.060920632291458"><ele>260.0</ele><time>2026-04-19T11:34:14Z</time></trkpt><trkpt lat="45.81735427806482" lon="9.06077389413855"><ele>260.0</ele><time>2026-04-19T11:34:15Z</time></trkpt><trkpt lat="45.81743984995371" lon="9.060649005083723"><ele>260.0</ele><time>2026-04-19T11:34:16Z</time></trkpt><trkpt lat="45.81751083947881" lon="9.060504884582107"><ele>262.2</ele><time>2026-04-19T11:34:17Z</time></trkpt><trkpt lat="45.817584261156334" lon="9.060373801886808"><ele>264.4</ele><time>2026-04-19T11:34:18Z</time></trkpt><trkpt lat="45.81765292816635" lon="9.060244797614077"><ele>266.6</ele><time>2026-04-19T11:34:19Z</time></trkpt><trkpt lat="45.81771389367776" lon="9.060124694381683"><ele>268.8</ele><time>2026-04-19T11:34:20Z</time></trkpt><trkpt lat="45.81779833722994" lon="9.060058963043458"><ele>271.0</ele><time>2026-04-19T11:34:21Z</time></trkpt><trkpt lat="45.817896891265214" lon="9.06001809096695"><ele>271.0</ele><time>2026-04-19T11:34:22Z</time></trkpt><trkpt lat="45.817995484908906" lon="9.060026501986686"><ele>271.0</ele><time>2026-04-19T11:34:23Z</time></trkpt><trkpt lat="45.81809399086583" lon="9.060046773954749"><ele>271.0</ele><time>2026-04-19T11:34:24Z</time></trkpt><trkpt lat="45.81819532567812" lon="9.060085756475102"><ele>271.0</ele><time>2026-04-19T11:34:25Z</time></trkpt><trkpt lat="45.81827368682866" lon="9.060082041820356"><ele>271.0</ele><time>2026-04-19T11:34:26Z</time></trkpt><trkpt lat="45.818359067122316" lon="9.060030229544607"><ele>271.0</ele><time>2026-04-19T11:34:27Z</time></trkpt><trkpt lat="45.818445100029045" lon="9.05996639534327"><ele>271.0</ele><time>2026-04-19T11:34:28Z</time></trkpt><trkpt lat="45.818639241800064" lon="9.059856495343762"><ele>271.0</ele><time>2026-04-19T11:34:30Z</time></trkpt><trkpt lat="45.818727524205435" lon="9.059791830846688"><ele>271.0</ele><time>2026-04-19T11:34:31Z</time></trkpt><trkpt lat="45.8187999549297" lon="9.059705096086692"><ele>270.6</ele><time>2026-04-19T11:34:32Z</time></trkpt><trkpt lat="45.818847468514996" lon="9.059582510105376"><ele>270.20000000000005</ele><time>2026-04-19T11:34:33Z</time></trkpt><trkpt lat="45.81886296179533" lon="9.059430134861651"><ele>269.79999999999995</ele><time>2026-04-19T11:34:34Z</time></trkpt><trkpt lat="45.81884534259621" lon="9.059266677428898"><ele>269.4</ele><time>2026-04-19T11:34:35Z</time></trkpt><trkpt lat="45.81882740721236" lon="9.059120265151648"><ele>269.0</ele><time>2026-04-19T11:34:36Z</time></trkpt><trkpt lat="45.818837305004074" lon="9.058980996639253"><ele>273.0</ele><time>2026-04-19T11:34:37Z</time></trkpt><trkpt lat="45.81886768794073" lon="9.058838083558024"><ele>277.0</ele><time>2026-04-19T11:34:38Z</time></trkpt><trkpt lat="45.818921362643195" lon="9.058696962612908"><ele>281.0</ele><time>2026-04-19T11:34:39Z</time></trkpt><trkpt lat="45.819013430351994" lon="9.058619548013384"><ele>285.0</ele><time>2026-04-19T11:34:40Z</time></trkpt><trkpt lat="45.81910028872603" lon="9.058541509392569"><ele>289.0</ele><time>2026-04-19T11:34:41Z</time></trkpt><trkpt lat="45.819181852453305" lon="9.058486156797224"><ele>289.0</ele><time>2026-04-19T11:34:42Z</time></trkpt><trkpt lat="45.81927691586734" lon="9.058389586709932"><ele>289.0</ele><time>2026-04-19T11:34:43Z</time></trkpt><trkpt lat="45.81936684200884" lon="9.058302773283357"><ele>289.0</ele><time>2026-04-19T11:34:44Z</time></trkpt><trkpt lat="45.819448917927964" lon="9.058220145371502"><ele>289.0</ele><time>2026-04-19T11:34:45Z</time></trkpt><trkpt lat="45.8195414638539" lon="9.058128974429053"><ele>289.0</ele><time>2026-04-19T11:34:46Z</time></trkpt><trkpt lat="45.819632197958825" lon="9.058045810343469"><ele>290.66666666666663</ele><time>2026-04-19T11:34:47Z</time></trkpt><trkpt lat="45.81972893986165" lon="9.057965202272477"><ele>292.3333333333333</ele><time>2026-04-19T11:34:48Z</time></trkpt><trkpt lat="45.819815105685656" lon="9.057863331084548"><ele>294.0</ele><time>2026-04-19T11:34:49Z</time></trkpt><trkpt lat="45.82000583183962" lon="9.057683315734964"><ele>294.0</ele><time>2026-04-19T11:34:51Z</time></trkpt><trkpt lat="45.820114637161424" lon="9.057599153467898"><ele>294.0</ele><time>2026-04-19T11:34:52Z</time></trkpt><trkpt lat="45.8202029163558" lon="9.057465990125461"><ele>294.0</ele><time>2026-04-19T11:34:52.999Z</time></trkpt><trkpt lat="45.82027933916772" lon="9.057290516501752"><ele>294.0</ele><time>2026-04-19T11:34:53.999Z</time></trkpt><trkpt lat="45.82033779722729" lon="9.057126409622756"><ele>294.0</ele><time>2026-04-19T11:34:54.999Z</time></trkpt><trkpt lat="45.82040189681303" lon="9.056965664313665"><ele>294.0</ele><time>2026-04-19T11:34:55.999Z</time></trkpt><trkpt lat="45.820479184453966" lon="9.056794373530213"><ele>294.0</ele><time>2026-04-19T11:34:56.999Z</time></trkpt><trkpt lat="45.82055139320314" lon="9.056627513863182"><ele>294.0</ele><time>2026-04-19T11:34:57.999Z</time></trkpt><trkpt lat="45.820620590391925" lon="9.05648502936629"><ele>296.5</ele><time>2026-04-19T11:34:58.999Z</time></trkpt><trkpt lat="45.8206837559964" lon="9.056363074811268"><ele>299.0</ele><time>2026-04-19T11:34:59.999Z</time></trkpt><trkpt lat="45.82074436016694" lon="9.056216769735428"><ele>301.5</ele><time>2026-04-19T11:35:00.999Z</time></trkpt><trkpt lat="45.82080589713659" lon="9.05606417497224"><ele>304.0</ele><time>2026-04-19T11:35:01.999Z</time></trkpt><trkpt lat="45.82090607780726" lon="9.05595122278669"><ele>303.75</ele><time>2026-04-19T11:35:02.999Z</time></trkpt><trkpt lat="45.82101115354196" lon="9.055823201691984"><ele>303.5</ele><time>2026-04-19T11:35:03.999Z</time></trkpt><trkpt lat="45.821110278053965" lon="9.055703034613574"><ele>303.25</ele><time>2026-04-19T11:35:04.999Z</time></trkpt><trkpt lat="45.821188437031815" lon="9.055578574946377"><ele>303.0</ele><time>2026-04-19T11:35:05.999Z</time></trkpt><trkpt lat="45.82127459156364" lon="9.055474637241518"><ele>303.0</ele><time>2026-04-19T11:35:06.999Z</time></trkpt><trkpt lat="45.82135765464813" lon="9.05536651254245"><ele>303.0</ele><time>2026-04-19T11:35:07.999Z</time></trkpt><trkpt lat="45.82143603305344" lon="9.05527773065667"><ele>303.0</ele><time>2026-04-19T11:35:08.999Z</time></trkpt><trkpt lat="45.82151325384363" lon="9.055183211831093"><ele>303.0</ele><time>2026-04-19T11:35:09.999Z</time></trkpt><trkpt lat="45.82165571737383" lon="9.055042988929992"><ele>303.0</ele><time>2026-04-19T11:35:11.999Z</time></trkpt><trkpt lat="45.82169174534683" lon="9.05496565745699"><ele>303.0</ele><time>2026-04-19T11:35:12.999Z</time></trkpt><trkpt lat="45.82175118647074" lon="9.05490575676079"><ele>303.0</ele><time>2026-04-19T11:35:13.999Z</time></trkpt><trkpt lat="45.82180490389534" lon="9.054848760101345"><ele>303.0</ele><time>2026-04-19T11:35:14.999Z</time></trkpt><trkpt lat="45.82185440275747" lon="9.054784953121459"><ele>303.0</ele><time>2026-04-19T11:35:15.999Z</time></trkpt><trkpt lat="45.82187891703289" lon="9.054694789212416"><ele>303.0</ele><time>2026-04-19T11:35:16.999Z</time></trkpt><trkpt lat="45.821792708463825" lon="9.054550344351522"><ele>305.2</ele><time>2026-04-19T11:35:18.999Z</time></trkpt><trkpt lat="45.82169975149811" lon="9.05452811118479"><ele>307.4</ele><time>2026-04-19T11:35:19.999Z</time></trkpt><trkpt lat="45.82160241575619" lon="9.054545413756319"><ele>309.59999999999997</ele><time>2026-04-19T11:35:20.999Z</time></trkpt><trkpt lat="45.82148239346152" lon="9.054596719714901"><ele>311.8</ele><time>2026-04-19T11:35:21.999Z</time></trkpt><trkpt lat="45.8213557659268" lon="9.054637048336927"><ele>314.0</ele><time>2026-04-19T11:35:22.999Z</time></trkpt><trkpt lat="45.82121763642805" lon="9.054680521586747"><ele>314.0</ele><time>2026-04-19T11:35:23.999Z</time></trkpt><trkpt lat="45.82107677559429" lon="9.05471747002074"><ele>314.0</ele><time>2026-04-19T11:35:24.999Z</time></trkpt><trkpt lat="45.82091847016122" lon="9.054771651597354"><ele>314.0</ele><time>2026-04-19T11:35:25.999Z</time></trkpt><trkpt lat="45.820785623844344" lon="9.0548337809333"><ele>314.0</ele><time>2026-04-19T11:35:26.999Z</time></trkpt><trkpt lat="45.82067708575424" lon="9.054923448445901"><ele>313.75</ele><time>2026-04-19T11:35:27.999Z</time></trkpt><trkpt lat="45.82058415183009" lon="9.055057039777417"><ele>313.5</ele><time>2026-04-19T11:35:28.999Z</time></trkpt><trkpt lat="45.82051227903378" lon="9.055241838216613"><ele>313.25</ele><time>2026-04-19T11:35:29.999Z</time></trkpt><trkpt lat="45.820473774533795" lon="9.055413207834063"><ele>313.0</ele><time>2026-04-19T11:35:30.999Z</time></trkpt><trkpt lat="45.82036457681924" lon="9.055723142567645"><ele>310.75</ele><time>2026-04-19T11:35:32.999Z</time></trkpt><trkpt lat="45.82028983335537" lon="9.055874197097179"><ele>308.5</ele><time>2026-04-19T11:35:33.999Z</time></trkpt><trkpt lat="45.82020150957686" lon="9.05602753247442"><ele>306.25</ele><time>2026-04-19T11:35:34.999Z</time></trkpt><trkpt lat="45.820097619636975" lon="9.056180614736427"><ele>304.0</ele><time>2026-04-19T11:35:35.999Z</time></trkpt><trkpt lat="45.81997235730953" lon="9.056325817649778"><ele>305.66666666666663</ele><time>2026-04-19T11:35:36.999Z</time></trkpt><trkpt lat="45.81985160767069" lon="9.056495094272044"><ele>307.3333333333333</ele><time>2026-04-19T11:35:37.999Z</time></trkpt><trkpt lat="45.819723869287415" lon="9.056672988253041"><ele>309.0</ele><time>2026-04-19T11:35:38.999Z</time></trkpt><trkpt lat="45.81959427739406" lon="9.056869007978253"><ele>309.0</ele><time>2026-04-19T11:35:39.999Z</time></trkpt><trkpt lat="45.81944450186781" lon="9.05706257718105"><ele>309.0</ele><time>2026-04-19T11:35:40.999Z</time></trkpt><trkpt lat="45.81929846143639" lon="9.057258401461716"><ele>309.0</ele><time>2026-04-19T11:35:41.999Z</time></trkpt><trkpt lat="45.8191520034197" lon="9.057425525381026"><ele>314.0</ele><time>2026-04-19T11:35:42.999Z</time></trkpt><trkpt lat="45.81899457884975" lon="9.05754839727064"><ele>319.0</ele><time>2026-04-19T11:35:43.999Z</time></trkpt><trkpt lat="45.81883073780813" lon="9.057670398195253"><ele>324.0</ele><time>2026-04-19T11:35:44.999Z</time></trkpt><trkpt lat="45.81867687029534" lon="9.057769761650036"><ele>324.0</ele><time>2026-04-19T11:35:45.999Z</time></trkpt><trkpt lat="45.818504779262696" lon="9.057885516312137"><ele>324.0</ele><time>2026-04-19T11:35:46.999Z</time></trkpt><trkpt lat="45.81832614207633" lon="9.05802380426929"><ele>324.0</ele><time>2026-04-19T11:35:47.999Z</time></trkpt><trkpt lat="45.81815238202854" lon="9.058152316985375"><ele>323.3333333333333</ele><time>2026-04-19T11:35:48.999Z</time></trkpt><trkpt lat="45.81799004414321" lon="9.05827329694852"><ele>322.66666666666663</ele><time>2026-04-19T11:35:49.999Z</time></trkpt><trkpt lat="45.81783931945233" lon="9.058355850982407"><ele>322.0</ele><time>2026-04-19T11:35:50.999Z</time></trkpt><trkpt lat="45.81768925648777" lon="9.058418246179546"><ele>334.5</ele><time>2026-04-19T11:35:51.999Z</time></trkpt><trkpt lat="45.81741584688755" lon="9.058620421019148"><ele>347.0</ele><time>2026-04-19T11:35:53.999Z</time></trkpt><trkpt lat="45.817310093591196" lon="9.05875750565964"><ele>347.0</ele><time>2026-04-19T11:35:54.999Z</time></trkpt><trkpt lat="45.81719966367827" lon="9.058827790488259"><ele>347.0</ele><time>2026-04-19T11:35:55.999Z</time></trkpt><trkpt lat="45.81707278476442" lon="9.058805734024654"><ele>347.0</ele><time>2026-04-19T11:35:56.999Z</time></trkpt><trkpt lat="45.816938950483966" lon="9.0587676244093"><ele>347.0</ele><time>2026-04-19T11:35:57.999Z</time></trkpt><trkpt lat="45.816795018761376" lon="9.058717336521553"><ele>347.6666666666667</ele><time>2026-04-19T11:35:58.998Z</time></trkpt><trkpt lat="45.816643475683634" lon="9.058664017864224"><ele>348.3333333333333</ele><time>2026-04-19T11:35:59.998Z</time></trkpt><trkpt lat="45.81648563530355" lon="9.058630209504436"><ele>349.0</ele><time>2026-04-19T11:36:00.998Z</time></trkpt><trkpt lat="45.816323928681975" lon="9.05866191097312"><ele>349.0</ele><time>2026-04-19T11:36:01.998Z</time></trkpt><trkpt lat="45.81617306475793" lon="9.058754299610564"><ele>349.0</ele><time>2026-04-19T11:36:02.998Z</time></trkpt><trkpt lat="45.816034063516135" lon="9.058842712025818"><ele>349.0</ele><time>2026-04-19T11:36:03.998Z</time></trkpt><trkpt lat="45.81587970500342" lon="9.058914420522182"><ele>352.0</ele><time>2026-04-19T11:36:04.998Z</time></trkpt><trkpt lat="45.8157139638441" lon="9.058921249515604"><ele>355.0</ele><time>2026-04-19T11:36:05.998Z</time></trkpt><trkpt lat="45.815527233575146" lon="9.058921996207806"><ele>358.0</ele><time>2026-04-19T11:36:06.998Z</time></trkpt><trkpt lat="45.81534280801937" lon="9.058923941742377"><ele>358.0</ele><time>2026-04-19T11:36:07.998Z</time></trkpt><trkpt lat="45.81516074038276" lon="9.058942337704979"><ele>358.0</ele><time>2026-04-19T11:36:08.998Z</time></trkpt><trkpt lat="45.81499441004108" lon="9.059039841206534"><ele>358.0</ele><time>2026-04-19T11:36:09.998Z</time></trkpt><trkpt lat="45.81485153993885" lon="9.059198126814417"><ele>355.66666666666663</ele><time>2026-04-19T11:36:10.998Z</time></trkpt><trkpt lat="45.814747977844455" lon="9.059401270671119"><ele>353.3333333333333</ele><time>2026-04-19T11:36:11.998Z</time></trkpt><trkpt lat="45.81467689317201" lon="9.05963893315356"><ele>351.0</ele><time>2026-04-19T11:36:13Z</time></trkpt><trkpt lat="45.81457090264918" lon="9.060071677957817"><ele>353.75</ele><time>2026-04-19T11:36:15Z</time></trkpt><trkpt lat="45.81452409485911" lon="9.060248459086685"><ele>356.5</ele><time>2026-04-19T11:36:16Z</time></trkpt><trkpt lat="45.81446634793562" lon="9.060400666449082"><ele>359.25</ele><time>2026-04-19T11:36:17Z</time></trkpt><trkpt lat="45.814379067029385" lon="9.060503278167628"><ele>362.0</ele><time>2026-04-19T11:36:18Z</time></trkpt><trkpt lat="45.8142695068833" lon="9.060553086541653"><ele>362.0</ele><time>2026-04-19T11:36:19Z</time></trkpt><trkpt lat="45.8141462081723" lon="9.06055079370913"><ele>362.0</ele><time>2026-04-19T11:36:20Z</time></trkpt><trkpt lat="45.81402998534656" lon="9.060487252520707"><ele>362.0</ele><time>2026-04-19T11:36:21Z</time></trkpt><trkpt lat="45.813938153544385" lon="9.060364059569341"><ele>362.0</ele><time>2026-04-19T11:36:22Z</time></trkpt><trkpt lat="45.81385650988389" lon="9.060220430665366"><ele>362.0</ele><time>2026-04-19T11:36:23Z</time></trkpt><trkpt lat="45.81378607120869" lon="9.060078494974764"><ele>362.0</ele><time>2026-04-19T11:36:24Z</time></trkpt><trkpt lat="45.81372000054551" lon="9.059958972939004"><ele>362.0</ele><time>2026-04-19T11:36:25Z</time></trkpt><trkpt lat="45.81366496983242" lon="9.0598339536115"><ele>362.0</ele><time>2026-04-19T11:36:26Z</time></trkpt><trkpt lat="45.813601307589984" lon="9.059723663904231"><ele>362.0</ele><time>2026-04-19T11:36:27Z</time></trkpt><trkpt lat="45.813538294972695" lon="9.059611044769058"><ele>368.75</ele><time>2026-04-19T11:36:28Z</time></trkpt><trkpt lat="45.81344753568583" lon="9.05953899252137"><ele>375.5</ele><time>2026-04-19T11:36:29Z</time></trkpt><trkpt lat="45.81331446406928" lon="9.059499432948266"><ele>382.25</ele><time>2026-04-19T11:36:30Z</time></trkpt><trkpt lat="45.81318364791369" lon="9.059523861993634"><ele>389.0</ele><time>2026-04-19T11:36:31Z</time></trkpt><trkpt lat="45.81306548220883" lon="9.059535741121692"><ele>389.0</ele><time>2026-04-19T11:36:32Z</time></trkpt><trkpt lat="45.81296173249877" lon="9.05954865750613"><ele>389.0</ele><time>2026-04-19T11:36:33Z</time></trkpt><trkpt lat="45.81286146445685" lon="9.059553664390531"><ele>389.0</ele><time>2026-04-19T11:36:34Z</time></trkpt><trkpt lat="45.812669140207305" lon="9.059554439496567"><ele>389.0</ele><time>2026-04-19T11:36:36Z</time></trkpt><trkpt lat="45.812574540808534" lon="9.059563385891654"><ele>388.0</ele><time>2026-04-19T11:36:37Z</time></trkpt><trkpt lat="45.81248223639239" lon="9.059541810594075"><ele>387.0</ele><time>2026-04-19T11:36:38Z</time></trkpt><trkpt lat="45.812397394272274" lon="9.059483525833082"><ele>386.0</ele><time>2026-04-19T11:36:39Z</time></trkpt><trkpt lat="45.81232603986997" lon="9.059385361574813"><ele>385.0</ele><time>2026-04-19T11:36:40Z</time></trkpt><trkpt lat="45.812288077579936" lon="9.059267798082859"><ele>384.0</ele><time>2026-04-19T11:36:41Z</time></trkpt><trkpt lat="45.81228960432524" lon="9.059148579734776"><ele>387.2</ele><time>2026-04-19T11:36:42Z</time></trkpt><trkpt lat="45.812261428241975" lon="9.059039845404813"><ele>390.4</ele><time>2026-04-19T11:36:43Z</time></trkpt><trkpt lat="45.812250651944915" lon="9.058925503806151"><ele>393.6</ele><time>2026-04-19T11:36:44Z</time></trkpt><trkpt lat="45.81217749292406" lon="9.058825152887874"><ele>396.8</ele><time>2026-04-19T11:36:45Z</time></trkpt><trkpt lat="45.81209938542044" lon="9.058741864286997"><ele>400.0</ele><time>2026-04-19T11:36:46Z</time></trkpt><trkpt lat="45.81200384749342" lon="9.058686248158475"><ele>400.0</ele><time>2026-04-19T11:36:47Z</time></trkpt><trkpt lat="45.811886766678946" lon="9.058660848804651"><ele>400.0</ele><time>2026-04-19T11:36:48Z</time></trkpt><trkpt lat="45.81177704172975" lon="9.058669777434893"><ele>400.0</ele><time>2026-04-19T11:36:49Z</time></trkpt><trkpt lat="45.811675374303135" lon="9.058687342508803"><ele>400.0</ele><time>2026-04-19T11:36:50Z</time></trkpt><trkpt lat="45.81157031947849" lon="9.058711149484225"><ele>400.0</ele><time>2026-04-19T11:36:51Z</time></trkpt><trkpt lat="45.81147386534629" lon="9.058734563418277"><ele>400.2</ele><time>2026-04-19T11:36:52Z</time></trkpt><trkpt lat="45.81137943147485" lon="9.058750635500317"><ele>400.4</ele><time>2026-04-19T11:36:53Z</time></trkpt><trkpt lat="45.81129646469978" lon="9.058769260166429"><ele>400.6</ele><time>2026-04-19T11:36:54Z</time></trkpt><trkpt lat="45.811211061725466" lon="9.058789291816689"><ele>400.8</ele><time>2026-04-19T11:36:55Z</time></trkpt><trkpt lat="45.81104843340204" lon="9.058814995601058"><ele>401.0</ele><time>2026-04-19T11:36:57Z</time></trkpt><trkpt lat="45.81096987602205" lon="9.058792301137176"><ele>401.0</ele><time>2026-04-19T11:36:57.999Z</time></trkpt><trkpt lat="45.81089734560265" lon="9.058722881505801"><ele>401.0</ele><time>2026-04-19T11:36:59.011Z</time></trkpt><trkpt lat="45.81084005722212" lon="9.05862222477538"><ele>401.0</ele><time>2026-04-19T11:37:00.015Z</time></trkpt><trkpt lat="45.81077331960985" lon="9.058505304198167"><ele>401.0</ele><time>2026-04-19T11:37:01.013Z</time></trkpt><trkpt lat="45.81075176756934" lon="9.058331226609079"><ele>401.0</ele><time>2026-04-19T11:37:01.999Z</time></trkpt><trkpt lat="45.81068453090605" lon="9.058257522964572"><ele>401.0</ele><time>2026-04-19T11:37:02.999Z</time></trkpt><trkpt lat="45.810659242488015" lon="9.058076840778654"><ele>401.0</ele><time>2026-04-19T11:37:04.999Z</time></trkpt><trkpt lat="45.81063922865686" lon="9.057946216222787"><ele>401.0</ele><time>2026-04-19T11:37:05.999Z</time></trkpt><trkpt lat="45.81063662205708" lon="9.057832249389556"><ele>401.0</ele><time>2026-04-19T11:37:06.999Z</time></trkpt><trkpt lat="45.81061125407691" lon="9.057710138837699"><ele>401.0</ele><time>2026-04-19T11:37:07.999Z</time></trkpt><trkpt lat="45.81059955268829" lon="9.057582896427078"><ele>401.0</ele><time>2026-04-19T11:37:08.999Z</time></trkpt><trkpt lat="45.810570848625424" lon="9.057465389487408"><ele>401.0</ele><time>2026-04-19T11:37:09.999Z</time></trkpt><trkpt lat="45.810535836906986" lon="9.057339425502649"><ele>401.0</ele><time>2026-04-19T11:37:10.999Z</time></trkpt><trkpt lat="45.81043429550259" lon="9.057227869825661"><ele>401.0</ele><time>2026-04-19T11:37:11.999Z</time></trkpt><trkpt lat="45.810332024361216" lon="9.057189461855844"><ele>401.0</ele><time>2026-04-19T11:37:12.999Z</time></trkpt><trkpt lat="45.81023874213532" lon="9.05714771462431"><ele>400.0</ele><time>2026-04-19T11:37:13.999Z</time></trkpt><trkpt lat="45.81015502596415" lon="9.057112818216062"><ele>399.0</ele><time>2026-04-19T11:37:14.999Z</time></trkpt><trkpt lat="45.81007757541475" lon="9.057066269678577"><ele>398.0</ele><time>2026-04-19T11:37:15.999Z</time></trkpt><trkpt lat="45.809939354370954" lon="9.056910007449709"><ele>397.0</ele><time>2026-04-19T11:37:17.999Z</time></trkpt><trkpt lat="45.809910049672894" lon="9.05677839941421"><ele>396.0</ele><time>2026-04-19T11:37:18.999Z</time></trkpt><trkpt lat="45.80990042803181" lon="9.056586720998496"><ele>396.0</ele><time>2026-04-19T11:37:19.999Z</time></trkpt><trkpt lat="45.809922220939605" lon="9.056472121942397"><ele>396.0</ele><time>2026-04-19T11:37:20.999Z</time></trkpt><trkpt lat="45.81000289123445" lon="9.056323296191945"><ele>396.0</ele><time>2026-04-19T11:37:21.999Z</time></trkpt><trkpt lat="45.810026590057575" lon="9.05621143356109"><ele>396.0</ele><time>2026-04-19T11:37:22.999Z</time></trkpt><trkpt lat="45.81006218493597" lon="9.056121104428497"><ele>396.0</ele><time>2026-04-19T11:37:23.999Z</time></trkpt><trkpt lat="45.81007160711548" lon="9.055999083917571"><ele>396.0</ele><time>2026-04-19T11:37:24.999Z</time></trkpt><trkpt lat="45.81004396282549" lon="9.05587979304969"><ele>396.0</ele><time>2026-04-19T11:37:25.999Z</time></trkpt><trkpt lat="45.809996606202276" lon="9.055752224271982"><ele>396.0</ele><time>2026-04-19T11:37:26.999Z</time></trkpt><trkpt lat="45.809926377652566" lon="9.05564055778711"><ele>396.0</ele><time>2026-04-19T11:37:27.999Z</time></trkpt><trkpt lat="45.809864913046326" lon="9.055533051260422"><ele>396.0</ele><time>2026-04-19T11:37:28.999Z</time></trkpt><trkpt lat="45.80985546498137" lon="9.055397154300215"><ele>397.4</ele><time>2026-04-19T11:37:29.999Z</time></trkpt><trkpt lat="45.80989223070423" lon="9.055292079048929"><ele>398.8</ele><time>2026-04-19T11:37:30.999Z</time></trkpt><trkpt lat="45.809910364232756" lon="9.05520440885229"><ele>400.2</ele><time>2026-04-19T11:37:31.999Z</time></trkpt><trkpt lat="45.80993083729549" lon="9.055081582791388"><ele>401.59999999999997</ele><time>2026-04-19T11:37:33.999Z</time></trkpt><trkpt lat="45.80993458021684" lon="9.054955233334978"><ele>403.0</ele><time>2026-04-19T11:37:36.999Z</time></trkpt><trkpt lat="45.80989741937107" lon="9.054745350768417"><ele>404.6666666666667</ele><time>2026-04-19T11:37:57.999Z</time></trkpt><trkpt lat="45.809820771384054" lon="9.054444409770971"><ele>406.33333333333337</ele><time>2026-04-19T11:38:01.999Z</time></trkpt><trkpt lat="45.80978138895634" lon="9.054290521248836"><ele>408.0</ele><time>2026-04-19T11:38:02.998Z</time></trkpt><trkpt lat="45.80973400650698" lon="9.054105371797416"><ele>408.0</ele><time>2026-04-19T11:38:03.998Z</time></trkpt><trkpt lat="45.80968108629776" lon="9.053898583618421"><ele>408.0</ele><time>2026-04-19T11:38:04.998Z</time></trkpt><trkpt lat="45.80962837055629" lon="9.053689660866532"><ele>408.0</ele><time>2026-04-19T11:38:05.998Z</time></trkpt><trkpt lat="45.80957771882573" lon="9.053488395833748"><ele>408.0</ele><time>2026-04-19T11:38:06.998Z</time></trkpt><trkpt lat="45.8095308685846" lon="9.053302236367047"><ele>408.0</ele><time>2026-04-19T11:38:07.998Z</time></trkpt><trkpt lat="45.809487309505954" lon="9.053129153967785"><ele>408.0</ele><time>2026-04-19T11:38:08.998Z</time></trkpt><trkpt lat="45.80944756093012" lon="9.052971217081787"><ele>408.0</ele><time>2026-04-19T11:38:09.998Z</time></trkpt><trkpt lat="45.80940249495467" lon="9.05282124988762"><ele>407.59999999999997</ele><time>2026-04-19T11:38:10.998Z</time></trkpt><trkpt lat="45.809357527565346" lon="9.052686427402275"><ele>407.2</ele><time>2026-04-19T11:38:11.998Z</time></trkpt><trkpt lat="45.809335118145995" lon="9.052543249880054"><ele>406.8</ele><time>2026-04-19T11:38:12.998Z</time></trkpt><trkpt lat="45.80929830614938" lon="9.052428929426693"><ele>406.4</ele><time>2026-04-19T11:38:13.998Z</time></trkpt><trkpt lat="45.80924949196583" lon="9.052335214997635"><ele>406.0</ele><time>2026-04-19T11:38:14.998Z</time></trkpt><trkpt lat="45.809213634326454" lon="9.052207468546872"><ele>406.0</ele><time>2026-04-19T11:38:15.998Z</time></trkpt><trkpt lat="45.809175618701104" lon="9.052050264203128"><ele>406.0</ele><time>2026-04-19T11:38:16.998Z</time></trkpt><trkpt lat="45.809143990435" lon="9.051891878466586"><ele>406.0</ele><time>2026-04-19T11:38:17.998Z</time></trkpt><trkpt lat="45.80910829316716" lon="9.051727523129614"><ele>406.0</ele><time>2026-04-19T11:38:19Z</time></trkpt><trkpt lat="45.80897732219469" lon="9.051459884569931"><ele>406.00000000000006</ele><time>2026-04-19T11:38:21Z</time></trkpt><trkpt lat="45.80890289684038" lon="9.05137225712508"><ele>406.0</ele><time>2026-04-19T11:38:22Z</time></trkpt><trkpt lat="45.808842858568084" lon="9.051288872483994"><ele>406.0</ele><time>2026-04-19T11:38:23Z</time></trkpt><trkpt lat="45.808787578300475" lon="9.051211856798018"><ele>406.0</ele><time>2026-04-19T11:38:24Z</time></trkpt><trkpt lat="45.80872799488166" lon="9.051138042129564"><ele>406.00000000000006</ele><time>2026-04-19T11:38:25Z</time></trkpt><trkpt lat="45.808664485543794" lon="9.051059038552147"><ele>406.0</ele><time>2026-04-19T11:38:26Z</time></trkpt><trkpt lat="45.808597506405846" lon="9.050959475479583"><ele>406.00000000000006</ele><time>2026-04-19T11:38:27Z</time></trkpt><trkpt lat="45.80853293390602" lon="9.050865320238417"><ele>406.0</ele><time>2026-04-19T11:38:28Z</time></trkpt><trkpt lat="45.80847149887997" lon="9.050781951097258"><ele>406.0</ele><time>2026-04-19T11:38:29Z</time></trkpt><trkpt lat="45.80841159014678" lon="9.05069205472528"><ele>406.0</ele><time>2026-04-19T11:38:30Z</time></trkpt><trkpt lat="45.808358500416915" lon="9.050592128421895"><ele>406.00000000000006</ele><time>2026-04-19T11:38:31Z</time></trkpt><trkpt lat="45.8083230979763" lon="9.050488770645348"><ele>406.0</ele><time>2026-04-19T11:38:32Z</time></trkpt><trkpt lat="45.808306392322066" lon="9.050377209716276"><ele>405.1666666666667</ele><time>2026-04-19T11:38:33Z</time></trkpt><trkpt lat="45.808324919294165" lon="9.050268908503895"><ele>404.33333333333337</ele><time>2026-04-19T11:38:34Z</time></trkpt><trkpt lat="45.80833954834488" lon="9.050157374825382"><ele>403.5</ele><time>2026-04-19T11:38:35Z</time></trkpt><trkpt lat="45.80836117864408" lon="9.050050633096125"><ele>402.66666666666663</ele><time>2026-04-19T11:38:36Z</time></trkpt><trkpt lat="45.808386110351734" lon="9.049936911016745"><ele>401.8333333333333</ele><time>2026-04-19T11:38:37Z</time></trkpt><trkpt lat="45.80841245517946" lon="9.049825498586776"><ele>401.0</ele><time>2026-04-19T11:38:38Z</time></trkpt><trkpt lat="45.808436336092946" lon="9.049722219619408"><ele>400.75</ele><time>2026-04-19T11:38:39Z</time></trkpt><trkpt lat="45.80844283951829" lon="9.049620101089854"><ele>400.5</ele><time>2026-04-19T11:38:40Z</time></trkpt><trkpt lat="45.80851331587941" lon="9.049366936621501"><ele>400.25</ele><time>2026-04-19T11:38:43Z</time></trkpt><trkpt lat="45.808534558409995" lon="9.049281044936105"><ele>400.0</ele><time>2026-04-19T11:38:44Z</time></trkpt><trkpt lat="45.80857296318862" lon="9.0490987962133"><ele>401.0</ele><time>2026-04-19T11:38:46Z</time></trkpt><trkpt lat="45.808595844198486" lon="9.049007423462813"><ele>402.0</ele><time>2026-04-19T11:38:47Z</time></trkpt><trkpt lat="45.80864222111264" lon="9.048829937453625"><ele>403.0</ele><time>2026-04-19T11:38:49Z</time></trkpt><trkpt lat="45.80868050293547" lon="9.048722597776187"><ele>404.0</ele><time>2026-04-19T11:38:50Z</time></trkpt><trkpt lat="45.808736842015605" lon="9.048608145445359"><ele>405.0</ele><time>2026-04-19T11:38:51Z</time></trkpt><trkpt lat="45.80880049219813" lon="9.048500336757437"><ele>405.0</ele><time>2026-04-19T11:38:52Z</time></trkpt><trkpt lat="45.80888074430946" lon="9.04841888462648"><ele>405.0</ele><time>2026-04-19T11:38:53Z</time></trkpt><trkpt lat="45.80894124408986" lon="9.048295879283897"><ele>405.0</ele><time>2026-04-19T11:38:54Z</time></trkpt><trkpt lat="45.8090163282385" lon="9.048194383772202"><ele>405.0</ele><time>2026-04-19T11:38:55Z</time></trkpt><trkpt lat="45.809081591243164" lon="9.048098637414075"><ele>405.0</ele><time>2026-04-19T11:38:56Z</time></trkpt><trkpt lat="45.80914608091456" lon="9.047961774054105"><ele>404.0</ele><time>2026-04-19T11:38:57Z</time></trkpt><trkpt lat="45.8092295350475" lon="9.04784081643115"><ele>403.0</ele><time>2026-04-19T11:38:58Z</time></trkpt><trkpt lat="45.809299038284706" lon="9.047725762869582"><ele>402.0</ele><time>2026-04-19T11:38:59Z</time></trkpt><trkpt lat="45.8093722325511" lon="9.047604599329686"><ele>401.0</ele><time>2026-04-19T11:39:00Z</time></trkpt><trkpt lat="45.809436234729375" lon="9.0474986521509"><ele>400.0</ele><time>2026-04-19T11:39:01Z</time></trkpt><trkpt lat="45.80957303260779" lon="9.047277517077664"><ele>398.5</ele><time>2026-04-19T11:39:03Z</time></trkpt><trkpt lat="45.80963588680183" lon="9.047166883875914"><ele>397.0</ele><time>2026-04-19T11:39:03.999Z</time></trkpt><trkpt lat="45.80968089168109" lon="9.047028132892358"><ele>395.5</ele><time>2026-04-19T11:39:04.999Z</time></trkpt><trkpt lat="45.8097873721222" lon="9.046944971706235"><ele>394.0</ele><time>2026-04-19T11:39:05.999Z</time></trkpt><trkpt lat="45.80991159472749" lon="9.04688615907442"><ele>391.0</ele><time>2026-04-19T11:39:06.999Z</time></trkpt><trkpt lat="45.8099293982416" lon="9.046588649323253"><ele>388.0</ele><time>2026-04-19T11:39:07.999Z</time></trkpt><trkpt lat="45.81003272497547" lon="9.046395928249098"><ele>385.0</ele><time>2026-04-19T11:39:08.999Z</time></trkpt><trkpt lat="45.81014898854887" lon="9.046194140422903"><ele>388.0</ele><time>2026-04-19T11:39:09.999Z</time></trkpt><trkpt lat="45.810279068451045" lon="9.045972184195502"><ele>391.0</ele><time>2026-04-19T11:39:10.999Z</time></trkpt><trkpt lat="45.810424103323214" lon="9.045744904720099"><ele>394.0</ele><time>2026-04-19T11:39:11.999Z</time></trkpt><trkpt lat="45.81055467872735" lon="9.045487942738355"><ele>394.0</ele><time>2026-04-19T11:39:12.999Z</time></trkpt><trkpt lat="45.810663844545736" lon="9.045273125823185"><ele>394.0</ele><time>2026-04-19T11:39:13.999Z</time></trkpt><trkpt lat="45.81076185061653" lon="9.045080275212198"><ele>394.0</ele><time>2026-04-19T11:39:14.999Z</time></trkpt><trkpt lat="45.810863879566924" lon="9.044876970417906"><ele>395.6666666666667</ele><time>2026-04-19T11:39:15.999Z</time></trkpt><trkpt lat="45.81096249239807" lon="9.044668209353075"><ele>397.33333333333337</ele><time>2026-04-19T11:39:16.999Z</time></trkpt><trkpt lat="45.81102842427662" lon="9.044438458125363"><ele>399.0</ele><time>2026-04-19T11:39:17.999Z</time></trkpt><trkpt lat="45.81107625224568" lon="9.044204483599538"><ele>400.33333333333337</ele><time>2026-04-19T11:39:18.999Z</time></trkpt><trkpt lat="45.81107905228935" lon="9.043935261627654"><ele>401.6666666666667</ele><time>2026-04-19T11:39:19.999Z</time></trkpt><trkpt lat="45.811069123102065" lon="9.04367581506467"><ele>403.0</ele><time>2026-04-19T11:39:20.999Z</time></trkpt><trkpt lat="45.81106992446122" lon="9.043433075969737"><ele>403.5</ele><time>2026-04-19T11:39:21.999Z</time></trkpt><trkpt lat="45.81098380397202" lon="9.043035800791957"><ele>404.0</ele><time>2026-04-19T11:39:23.999Z</time></trkpt><trkpt lat="45.81086497299289" lon="9.042841276945765"><ele>404.0</ele><time>2026-04-19T11:39:24.999Z</time></trkpt><trkpt lat="45.81072559500414" lon="9.04267025716724"><ele>404.0</ele><time>2026-04-19T11:39:25.999Z</time></trkpt><trkpt lat="45.81062822788039" lon="9.042501337190773"><ele>404.0</ele><time>2026-04-19T11:39:26.999Z</time></trkpt><trkpt lat="45.81055304218687" lon="9.042345256855059"><ele>404.5</ele><time>2026-04-19T11:39:27.999Z</time></trkpt><trkpt lat="45.810483837505515" lon="9.042194223103422"><ele>405.0</ele><time>2026-04-19T11:39:28.999Z</time></trkpt><trkpt lat="45.81050163729633" lon="9.042004177405865"><ele>405.5</ele><time>2026-04-19T11:39:29.999Z</time></trkpt><trkpt lat="45.81056221517716" lon="9.041807822921932"><ele>406.0</ele><time>2026-04-19T11:39:30.999Z</time></trkpt><trkpt lat="45.81064816842529" lon="9.041588850642139"><ele>403.33333333333337</ele><time>2026-04-19T11:39:31.999Z</time></trkpt><trkpt lat="45.81075157294239" lon="9.04136781467758"><ele>400.66666666666663</ele><time>2026-04-19T11:39:32.999Z</time></trkpt><trkpt lat="45.81082780252591" lon="9.041130784685631"><ele>398.0</ele><time>2026-04-19T11:39:33.999Z</time></trkpt><trkpt lat="45.810899506233206" lon="9.040906361717632"><ele>398.0</ele><time>2026-04-19T11:39:34.999Z</time></trkpt><trkpt lat="45.810949879281395" lon="9.040682349482177"><ele>398.0</ele><time>2026-04-19T11:39:35.999Z</time></trkpt><trkpt lat="45.81099290853234" lon="9.040467568207756"><ele>398.0</ele><time>2026-04-19T11:39:36.999Z</time></trkpt><trkpt lat="45.81097927360632" lon="9.040236178075443"><ele>398.0</ele><time>2026-04-19T11:39:37.999Z</time></trkpt><trkpt lat="45.81090467698444" lon="9.039991571372013"><ele>398.0</ele><time>2026-04-19T11:39:38.999Z</time></trkpt><trkpt lat="45.81077894202656" lon="9.039765743418805"><ele>398.0</ele><time>2026-04-19T11:39:39.999Z</time></trkpt><trkpt lat="45.81073352916867" lon="9.039530361627563"><ele>396.66666666666663</ele><time>2026-04-19T11:39:40.999Z</time></trkpt><trkpt lat="45.810709784705175" lon="9.039305646045875"><ele>395.33333333333337</ele><time>2026-04-19T11:39:41.999Z</time></trkpt><trkpt lat="45.81074912975632" lon="9.039083170878024"><ele>394.0</ele><time>2026-04-19T11:39:42.999Z</time></trkpt><trkpt lat="45.810894999515455" lon="9.038654683285753"><ele>396.33333333333337</ele><time>2026-04-19T11:39:44.999Z</time></trkpt><trkpt lat="45.81101571030086" lon="9.038461896436583"><ele>398.66666666666663</ele><time>2026-04-19T11:39:45.999Z</time></trkpt><trkpt lat="45.81113702186031" lon="9.038219150334735"><ele>401.0</ele><time>2026-04-19T11:39:46.999Z</time></trkpt><trkpt lat="45.81125331472368" lon="9.037972200846635"><ele>401.0</ele><time>2026-04-19T11:39:47.999Z</time></trkpt><trkpt lat="45.81137659129375" lon="9.03773749534557"><ele>401.0</ele><time>2026-04-19T11:39:48.999Z</time></trkpt><trkpt lat="45.811531352394276" lon="9.03752010868516"><ele>401.0</ele><time>2026-04-19T11:39:49.999Z</time></trkpt><trkpt lat="45.811668647464735" lon="9.037290130290963"><ele>401.66666666666663</ele><time>2026-04-19T11:39:50.999Z</time></trkpt><trkpt lat="45.811805318267346" lon="9.037068379980187"><ele>402.33333333333337</ele><time>2026-04-19T11:39:51.999Z</time></trkpt><trkpt lat="45.81194636469763" lon="9.036857482814606"><ele>403.0</ele><time>2026-04-19T11:39:52.999Z</time></trkpt><trkpt lat="45.812101133791344" lon="9.036670695470564"><ele>399.6666666666667</ele><time>2026-04-19T11:39:53.999Z</time></trkpt><trkpt lat="45.81226284337783" lon="9.03648218411288"><ele>396.33333333333337</ele><time>2026-04-19T11:39:54.999Z</time></trkpt><trkpt lat="45.812421711230854" lon="9.036267092156573"><ele>393.0</ele><time>2026-04-19T11:39:55.999Z</time></trkpt><trkpt lat="45.812554656256424" lon="9.035992241470069"><ele>395.0</ele><time>2026-04-19T11:39:56.999Z</time></trkpt><trkpt lat="45.812689933071574" lon="9.03572244181475"><ele>397.0</ele><time>2026-04-19T11:39:57.999Z</time></trkpt><trkpt lat="45.812817104177725" lon="9.03546162974382"><ele>397.0</ele><time>2026-04-19T11:39:58.999Z</time></trkpt><trkpt lat="45.81294274476017" lon="9.035220314234946"><ele>397.0</ele><time>2026-04-19T11:39:59.999Z</time></trkpt><trkpt lat="45.813079366234554" lon="9.03494600121348"><ele>397.0</ele><time>2026-04-19T11:40:00.999Z</time></trkpt><trkpt lat="45.813222744340806" lon="9.034662918319253"><ele>396.0</ele><time>2026-04-19T11:40:01.999Z</time></trkpt><trkpt lat="45.813367744678374" lon="9.034377532264648"><ele>395.0</ele><time>2026-04-19T11:40:02.999Z</time></trkpt><trkpt lat="45.81350291431306" lon="9.034102399857247"><ele>399.0</ele><time>2026-04-19T11:40:03.999Z</time></trkpt><trkpt lat="45.81375957074574" lon="9.033652505229462"><ele>403.0</ele><time>2026-04-19T11:40:05.999Z</time></trkpt><trkpt lat="45.813871989639296" lon="9.03341741161693"><ele>403.0</ele><time>2026-04-19T11:40:06.999Z</time></trkpt><trkpt lat="45.81396259591665" lon="9.033177370167236"><ele>403.0</ele><time>2026-04-19T11:40:07.999Z</time></trkpt><trkpt lat="45.81407603198417" lon="9.03297034623127"><ele>403.0</ele><time>2026-04-19T11:40:08.999Z</time></trkpt><trkpt lat="45.814162289684106" lon="9.032775900034496"><ele>403.0</ele><time>2026-04-19T11:40:09.999Z</time></trkpt><trkpt lat="45.81423421647958" lon="9.032577151880135"><ele>403.0</ele><time>2026-04-19T11:40:10.998Z</time></trkpt><trkpt lat="45.81427862399456" lon="9.032401914563698"><ele>403.0</ele><time>2026-04-19T11:40:11.998Z</time></trkpt><trkpt lat="45.814342603881606" lon="9.032242039579295"><ele>403.0</ele><time>2026-04-19T11:40:12.998Z</time></trkpt><trkpt lat="45.81443322389635" lon="9.032123532021023"><ele>404.5</ele><time>2026-04-19T11:40:13.998Z</time></trkpt><trkpt lat="45.814543733718594" lon="9.032043975680258"><ele>406.0</ele><time>2026-04-19T11:40:14.998Z</time></trkpt><trkpt lat="45.81466142552725" lon="9.03198250911888"><ele>407.5</ele><time>2026-04-19T11:40:15.998Z</time></trkpt><trkpt lat="45.81477851736211" lon="9.03193568500986"><ele>409.0</ele><time>2026-04-19T11:40:16.998Z</time></trkpt><trkpt lat="45.814886265254174" lon="9.031875785430412"><ele>409.0</ele><time>2026-04-19T11:40:17.998Z</time></trkpt><trkpt lat="45.81497336245167" lon="9.03176514110191"><ele>409.0</ele><time>2026-04-19T11:40:18.998Z</time></trkpt><trkpt lat="45.81503239441405" lon="9.031615070540727"><ele>409.0</ele><time>2026-04-19T11:40:19.998Z</time></trkpt><trkpt lat="45.815064157261" lon="9.031467334620622"><ele>409.0</ele><time>2026-04-19T11:40:20.998Z</time></trkpt><trkpt lat="45.815072544584964" lon="9.031313804419089"><ele>409.75</ele><time>2026-04-19T11:40:21.998Z</time></trkpt><trkpt lat="45.81506699501227" lon="9.031139759371351"><ele>410.5</ele><time>2026-04-19T11:40:22.998Z</time></trkpt><trkpt lat="45.815039472969744" lon="9.030969254686658"><ele>411.25</ele><time>2026-04-19T11:40:23.998Z</time></trkpt><trkpt lat="45.81499370696247" lon="9.030824615462665"><ele>412.0</ele><time>2026-04-19T11:40:25Z</time></trkpt><trkpt lat="45.814879694973435" lon="9.030509464036616"><ele>413.75</ele><time>2026-04-19T11:40:27Z</time></trkpt><trkpt lat="45.81482392936819" lon="9.030343189996113"><ele>415.5</ele><time>2026-04-19T11:40:28Z</time></trkpt><trkpt lat="45.81477109744832" lon="9.030171653635131"><ele>417.25</ele><time>2026-04-19T11:40:29Z</time></trkpt><trkpt lat="45.814715334179354" lon="9.030007758673898"><ele>419.0</ele><time>2026-04-19T11:40:30Z</time></trkpt><trkpt lat="45.81466266036075" lon="9.0298384032812"><ele>421.0</ele><time>2026-04-19T11:40:31Z</time></trkpt><trkpt lat="45.814609543170185" lon="9.029674087237803"><ele>423.0</ele><time>2026-04-19T11:40:32Z</time></trkpt><trkpt lat="45.81455773781166" lon="9.02951435862789"><ele>425.0</ele><time>2026-04-19T11:40:33Z</time></trkpt><trkpt lat="45.81450981324259" lon="9.029357356431474"><ele>427.0</ele><time>2026-04-19T11:40:34Z</time></trkpt><trkpt lat="45.8144649412596" lon="9.029188873300836"><ele>427.5</ele><time>2026-04-19T11:40:35Z</time></trkpt><trkpt lat="45.81444503269131" lon="9.02900996430231"><ele>428.0</ele><time>2026-04-19T11:40:36Z</time></trkpt><trkpt lat="45.81444750928914" lon="9.028833355804847"><ele>428.5</ele><time>2026-04-19T11:40:37Z</time></trkpt><trkpt lat="45.81449421578066" lon="9.028669777628323"><ele>429.0</ele><time>2026-04-19T11:40:38Z</time></trkpt><trkpt lat="45.81453392943077" lon="9.028475569026032"><ele>429.0</ele><time>2026-04-19T11:40:39Z</time></trkpt><trkpt lat="45.81457039375197" lon="9.028257111273033"><ele>429.0</ele><time>2026-04-19T11:40:40Z</time></trkpt><trkpt lat="45.814637268100505" lon="9.02801971538787"><ele>429.0</ele><time>2026-04-19T11:40:41Z</time></trkpt><trkpt lat="45.81469356654443" lon="9.027748037406536"><ele>429.66666666666663</ele><time>2026-04-19T11:40:42Z</time></trkpt><trkpt lat="45.81476842675974" lon="9.027472942773278"><ele>430.3333333333333</ele><time>2026-04-19T11:40:43Z</time></trkpt><trkpt lat="45.81483324017613" lon="9.027240269551227"><ele>431.0</ele><time>2026-04-19T11:40:44Z</time></trkpt><trkpt lat="45.81488729356447" lon="9.027038517763922"><ele>431.0</ele><time>2026-04-19T11:40:45Z</time></trkpt><trkpt lat="45.81491404882665" lon="9.026822895435705"><ele>431.0</ele><time>2026-04-19T11:40:46Z</time></trkpt><trkpt lat="45.814800759920665" lon="9.026420435816071"><ele>432.5</ele><time>2026-04-19T11:40:48Z</time></trkpt><trkpt lat="45.81469022706634" lon="9.026252394405594"><ele>434.0</ele><time>2026-04-19T11:40:49Z</time></trkpt><trkpt lat="45.81459034960301" lon="9.026112583482428"><ele>435.5</ele><time>2026-04-19T11:40:50Z</time></trkpt><trkpt lat="45.81451530042819" lon="9.025974441559898"><ele>437.0</ele><time>2026-04-19T11:40:51Z</time></trkpt><trkpt lat="45.81445886861018" lon="9.025839008739455"><ele>436.0</ele><time>2026-04-19T11:40:52Z</time></trkpt><trkpt lat="45.814408576144395" lon="9.025723347620909"><ele>435.00000000000006</ele><time>2026-04-19T11:40:53Z</time></trkpt><trkpt lat="45.814364915706086" lon="9.025563822484491"><ele>434.00000000000006</ele><time>2026-04-19T11:40:54Z</time></trkpt><trkpt lat="45.81431225209745" lon="9.025410193442342"><ele>433.0</ele><time>2026-04-19T11:40:55Z</time></trkpt><trkpt lat="45.814266094071876" lon="9.025269254860708"><ele>432.0</ele><time>2026-04-19T11:40:56Z</time></trkpt><trkpt lat="45.81421460866298" lon="9.025138973236409"><ele>432.0</ele><time>2026-04-19T11:40:57Z</time></trkpt><trkpt lat="45.81416251905267" lon="9.025009726645344"><ele>432.00000000000006</ele><time>2026-04-19T11:40:58Z</time></trkpt><trkpt lat="45.814099509384356" lon="9.024880208413446"><ele>432.00000000000006</ele><time>2026-04-19T11:40:59Z</time></trkpt><trkpt lat="45.81400506456384" lon="9.024776813169824"><ele>432.0</ele><time>2026-04-19T11:41:00Z</time></trkpt><trkpt lat="45.81390912549534" lon="9.024705042604113"><ele>432.0</ele><time>2026-04-19T11:41:01Z</time></trkpt><trkpt lat="45.813818321727695" lon="9.024631062878202"><ele>432.8</ele><time>2026-04-19T11:41:02Z</time></trkpt><trkpt lat="45.813727763103515" lon="9.024553584735017"><ele>433.6</ele><time>2026-04-19T11:41:03Z</time></trkpt><trkpt lat="45.81363498318095" lon="9.024477138049637"><ele>434.40000000000003</ele><time>2026-04-19T11:41:04Z</time></trkpt><trkpt lat="45.8135368240992" lon="9.024394438020254"><ele>435.20000000000005</ele><time>2026-04-19T11:41:05Z</time></trkpt><trkpt lat="45.81344711149724" lon="9.024313637285372"><ele>436.0</ele><time>2026-04-19T11:41:06Z</time></trkpt><trkpt lat="45.81336140280294" lon="9.024235115331653"><ele>439.75</ele><time>2026-04-19T11:41:07Z</time></trkpt><trkpt lat="45.813190994315086" lon="9.024085724615997"><ele>443.5</ele><time>2026-04-19T11:41:08.999Z</time></trkpt><trkpt lat="45.813112175910135" lon="9.023987320979474"><ele>447.25</ele><time>2026-04-19T11:41:09.999Z</time></trkpt><trkpt lat="45.813043008739115" lon="9.02386982979174"><ele>451.0</ele><time>2026-04-19T11:41:10.999Z</time></trkpt><trkpt lat="45.81298127322052" lon="9.023742592428734"><ele>451.0</ele><time>2026-04-19T11:41:11.999Z</time></trkpt><trkpt lat="45.812933820698504" lon="9.023607193833971"><ele>451.0</ele><time>2026-04-19T11:41:12.999Z</time></trkpt><trkpt lat="45.8128933567676" lon="9.023466320023081"><ele>451.0</ele><time>2026-04-19T11:41:13.999Z</time></trkpt><trkpt lat="45.8128515068689" lon="9.023327372861795"><ele>451.0</ele><time>2026-04-19T11:41:14.999Z</time></trkpt><trkpt lat="45.81280740680046" lon="9.023181129281516"><ele>451.0</ele><time>2026-04-19T11:41:15.999Z</time></trkpt><trkpt lat="45.812765584522005" lon="9.023032008428482"><ele>451.75</ele><time>2026-04-19T11:41:16.999Z</time></trkpt><trkpt lat="45.81272022634353" lon="9.02287879090827"><ele>452.5</ele><time>2026-04-19T11:41:17.999Z</time></trkpt><trkpt lat="45.812678042263926" lon="9.022725376988848"><ele>453.25</ele><time>2026-04-19T11:41:18.999Z</time></trkpt><trkpt lat="45.812635193558016" lon="9.022571413249572"><ele>454.0</ele><time>2026-04-19T11:41:19.999Z</time></trkpt><trkpt lat="45.81259031321882" lon="9.022419285319058"><ele>450.5</ele><time>2026-04-19T11:41:20.999Z</time></trkpt><trkpt lat="45.8125539372258" lon="9.022268902820295"><ele>447.0</ele><time>2026-04-19T11:41:21.999Z</time></trkpt><trkpt lat="45.81251253693569" lon="9.022123972348174"><ele>443.5</ele><time>2026-04-19T11:41:22.999Z</time></trkpt><trkpt lat="45.81247304655064" lon="9.021975076518762"><ele>440.0</ele><time>2026-04-19T11:41:23.999Z</time></trkpt><trkpt lat="45.8124315871941" lon="9.02181262761507"><ele>439.25</ele><time>2026-04-19T11:41:24.999Z</time></trkpt><trkpt lat="45.812401088063865" lon="9.021645763311968"><ele>438.5</ele><time>2026-04-19T11:41:25.999Z</time></trkpt><trkpt lat="45.81238153675676" lon="9.021475579819606"><ele>437.75</ele><time>2026-04-19T11:41:26.999Z</time></trkpt><trkpt lat="45.81236959916556" lon="9.02130787128225"><ele>437.0</ele><time>2026-04-19T11:41:27.999Z</time></trkpt><trkpt lat="45.81234641090106" lon="9.020978663941728"><ele>437.0</ele><time>2026-04-19T11:41:29.999Z</time></trkpt><trkpt lat="45.81233472797181" lon="9.020822636832234"><ele>437.0</ele><time>2026-04-19T11:41:30.999Z</time></trkpt><trkpt lat="45.812321548715694" lon="9.020655440575158"><ele>437.0</ele><time>2026-04-19T11:41:31.999Z</time></trkpt><trkpt lat="45.81231079896329" lon="9.020480898648415"><ele>437.0</ele><time>2026-04-19T11:41:32.999Z</time></trkpt><trkpt lat="45.81230199247602" lon="9.020301205364449"><ele>436.5</ele><time>2026-04-19T11:41:33.999Z</time></trkpt><trkpt lat="45.812290619552186" lon="9.020125819525463"><ele>436.0</ele><time>2026-04-19T11:41:34.999Z</time></trkpt><trkpt lat="45.81228156547042" lon="9.019961023855975"><ele>435.5</ele><time>2026-04-19T11:41:35.999Z</time></trkpt><trkpt lat="45.81227312210033" lon="9.01979814879868"><ele>435.0</ele><time>2026-04-19T11:41:36.999Z</time></trkpt><trkpt lat="45.81226385968153" lon="9.019630451571613"><ele>434.2</ele><time>2026-04-19T11:41:37.999Z</time></trkpt><trkpt lat="45.81225334988359" lon="9.019457983707836"><ele>433.4</ele><time>2026-04-19T11:41:38.999Z</time></trkpt><trkpt lat="45.81224141228645" lon="9.01930037241922"><ele>432.6</ele><time>2026-04-19T11:41:39.999Z</time></trkpt><trkpt lat="45.81222993382636" lon="9.019144575352405"><ele>431.8</ele><time>2026-04-19T11:41:40.999Z</time></trkpt><trkpt lat="45.81222080235418" lon="9.018995986393465"><ele>431.0</ele><time>2026-04-19T11:41:41.999Z</time></trkpt><trkpt lat="45.812214590221686" lon="9.018841219753819"><ele>430.4</ele><time>2026-04-19T11:41:42.999Z</time></trkpt><trkpt lat="45.81221602347523" lon="9.018693560450131"><ele>429.8</ele><time>2026-04-19T11:41:43.999Z</time></trkpt><trkpt lat="45.81222886280311" lon="9.018549579159938"><ele>429.19999999999993</ele><time>2026-04-19T11:41:44.999Z</time></trkpt><trkpt lat="45.81225699174675" lon="9.018422504612992"><ele>428.59999999999997</ele><time>2026-04-19T11:41:45.999Z</time></trkpt><trkpt lat="45.81228787714001" lon="9.018296427619457"><ele>428.0</ele><time>2026-04-19T11:41:46.999Z</time></trkpt><trkpt lat="45.81231315394004" lon="9.018182782741363"><ele>427.59999999999997</ele><time>2026-04-19T11:41:47.999Z</time></trkpt><trkpt lat="45.81231423991507" lon="9.018067409113169"><ele>427.19999999999993</ele><time>2026-04-19T11:41:48.999Z</time></trkpt><trkpt lat="45.81219418670696" lon="9.017894607007822"><ele>426.8</ele><time>2026-04-19T11:41:50.999Z</time></trkpt><trkpt lat="45.81214829712604" lon="9.017804012357825"><ele>426.4</ele><time>2026-04-19T11:41:51.999Z</time></trkpt><trkpt lat="45.81212598746418" lon="9.017678198441045"><ele>426.0</ele><time>2026-04-19T11:41:52.999Z</time></trkpt><trkpt lat="45.81214846643886" lon="9.017505032120727"><ele>426.0</ele><time>2026-04-19T11:41:53.999Z</time></trkpt><trkpt lat="45.812136714502564" lon="9.01731376268586"><ele>426.0</ele><time>2026-04-19T11:41:54.999Z</time></trkpt><trkpt lat="45.81212365896133" lon="9.017101281651371"><ele>426.0</ele><time>2026-04-19T11:41:55.999Z</time></trkpt><trkpt lat="45.81211009055366" lon="9.016849165567882"><ele>426.0</ele><time>2026-04-19T11:41:56.999Z</time></trkpt><trkpt lat="45.81209452693608" lon="9.016569820718868"><ele>426.0</ele><time>2026-04-19T11:41:57.999Z</time></trkpt><trkpt lat="45.812078651265935" lon="9.016291600441523"><ele>426.0</ele><time>2026-04-19T11:41:58.999Z</time></trkpt><trkpt lat="45.81205879027917" lon="9.015998572512474"><ele>426.33333333333337</ele><time>2026-04-19T11:41:59.999Z</time></trkpt><trkpt lat="45.81201156188717" lon="9.015695067708434"><ele>426.6666666666667</ele><time>2026-04-19T11:42:00.999Z</time></trkpt><trkpt lat="45.811977905285964" lon="9.015423163328197"><ele>427.0</ele><time>2026-04-19T11:42:01.999Z</time></trkpt><trkpt lat="45.811953330636065" lon="9.015158425970887"><ele>427.6666666666667</ele><time>2026-04-19T11:42:02.999Z</time></trkpt><trkpt lat="45.81192106248402" lon="9.014921623895374"><ele>428.33333333333337</ele><time>2026-04-19T11:42:03.999Z</time></trkpt><trkpt lat="45.81188924059345" lon="9.014690998306882"><ele>429.0</ele><time>2026-04-19T11:42:04.999Z</time></trkpt><trkpt lat="45.81185908947928" lon="9.014482033024317"><ele>429.0</ele><time>2026-04-19T11:42:05.999Z</time></trkpt><trkpt lat="45.81182480858421" lon="9.014277472309216"><ele>429.0</ele><time>2026-04-19T11:42:06.999Z</time></trkpt><trkpt lat="45.81177747440192" lon="9.014084165378963"><ele>429.0</ele><time>2026-04-19T11:42:07.999Z</time></trkpt><trkpt lat="45.81170188321074" lon="9.013925092633075"><ele>429.0</ele><time>2026-04-19T11:42:08.999Z</time></trkpt><trkpt lat="45.81163988393704" lon="9.013773641169095"><ele>426.33333333333337</ele><time>2026-04-19T11:42:09.999Z</time></trkpt><trkpt lat="45.81155992824263" lon="9.013485244211397"><ele>423.6666666666667</ele><time>2026-04-19T11:42:11.999Z</time></trkpt><trkpt lat="45.81153743338464" lon="9.013334087246445"><ele>421.0</ele><time>2026-04-19T11:42:12.999Z</time></trkpt><trkpt lat="45.81142774418424" lon="9.013233587728555"><ele>421.0</ele><time>2026-04-19T11:42:13.999Z</time></trkpt><trkpt lat="45.81131084068808" lon="9.01316154170729"><ele>421.0</ele><time>2026-04-19T11:42:14.998Z</time></trkpt><trkpt lat="45.811179512723385" lon="9.013041129199852"><ele>421.0</ele><time>2026-04-19T11:42:15.998Z</time></trkpt><trkpt lat="45.81106001082095" lon="9.012863567654954"><ele>419.33333333333337</ele><time>2026-04-19T11:42:16.998Z</time></trkpt><trkpt lat="45.8109299035412" lon="9.012663965208207"><ele>417.66666666666663</ele><time>2026-04-19T11:42:17.998Z</time></trkpt><trkpt lat="45.81080101087475" lon="9.012477520400132"><ele>416.0</ele><time>2026-04-19T11:42:18.998Z</time></trkpt><trkpt lat="45.810692353518625" lon="9.012288347035835"><ele>415.3333333333333</ele><time>2026-04-19T11:42:19.998Z</time></trkpt><trkpt lat="45.81057440894346" lon="9.01211806173278"><ele>414.66666666666663</ele><time>2026-04-19T11:42:20.998Z</time></trkpt><trkpt lat="45.81046934849318" lon="9.0119473887363"><ele>414.0</ele><time>2026-04-19T11:42:21.998Z</time></trkpt><trkpt lat="45.810385281848085" lon="9.011772949214965"><ele>414.0</ele><time>2026-04-19T11:42:22.998Z</time></trkpt><trkpt lat="45.81031615300907" lon="9.011587224667055"><ele>414.0</ele><time>2026-04-19T11:42:23.998Z</time></trkpt><trkpt lat="45.81025013705015" lon="9.011378343108468"><ele>414.0</ele><time>2026-04-19T11:42:24.998Z</time></trkpt><trkpt lat="45.81021301494681" lon="9.011148366832995"><ele>414.0</ele><time>2026-04-19T11:42:25.998Z</time></trkpt><trkpt lat="45.8101921642469" lon="9.010918030015755"><ele>414.0</ele><time>2026-04-19T11:42:26.998Z</time></trkpt><trkpt lat="45.81019170092741" lon="9.010695368464798"><ele>414.0</ele><time>2026-04-19T11:42:27.998Z</time></trkpt><trkpt lat="45.81020711828322" lon="9.010477026194783"><ele>414.33333333333337</ele><time>2026-04-19T11:42:28.998Z</time></trkpt><trkpt lat="45.81022183826944" lon="9.010246596873845"><ele>414.6666666666667</ele><time>2026-04-19T11:42:29.998Z</time></trkpt><trkpt lat="45.810265583959044" lon="9.010012527420347"><ele>415.0</ele><time>2026-04-19T11:42:31Z</time></trkpt><trkpt lat="45.81032241363702" lon="9.009508061834708"><ele>415.0</ele><time>2026-04-19T11:42:33Z</time></trkpt><trkpt lat="45.810352141474965" lon="9.00927170696788"><ele>415.0</ele><time>2026-04-19T11:42:34Z</time></trkpt><trkpt lat="45.81033971609465" lon="9.009039740819858"><ele>415.0</ele><time>2026-04-19T11:42:35Z</time></trkpt><trkpt lat="45.81030904068118" lon="9.008804205686447"><ele>415.0</ele><time>2026-04-19T11:42:36Z</time></trkpt><trkpt lat="45.81024225832477" lon="9.0085841486204"><ele>415.0</ele><time>2026-04-19T11:42:37Z</time></trkpt><trkpt lat="45.81017994768884" lon="9.008365659981385"><ele>415.0</ele><time>2026-04-19T11:42:38Z</time></trkpt><trkpt lat="45.810099693845835" lon="9.008166697264459"><ele>412.6666666666667</ele><time>2026-04-19T11:42:39Z</time></trkpt><trkpt lat="45.810004846283654" lon="9.007989674872308"><ele>410.33333333333337</ele><time>2026-04-19T11:42:40Z</time></trkpt><trkpt lat="45.809893009488675" lon="9.007845024728974"><ele>408.0</ele><time>2026-04-19T11:42:41Z</time></trkpt><trkpt lat="45.80978549693515" lon="9.007700509194855"><ele>408.0</ele><time>2026-04-19T11:42:42Z</time></trkpt><trkpt lat="45.809653102117885" lon="9.007604701293221"><ele>408.0</ele><time>2026-04-19T11:42:43Z</time></trkpt><trkpt lat="45.809537367782816" lon="9.007502314226961"><ele>408.0</ele><time>2026-04-19T11:42:44Z</time></trkpt><trkpt lat="45.80943524532761" lon="9.007378398397956"><ele>408.0</ele><time>2026-04-19T11:42:45Z</time></trkpt><trkpt lat="45.80933786925521" lon="9.007254471950086"><ele>406.5</ele><time>2026-04-19T11:42:46Z</time></trkpt><trkpt lat="45.80925338700189" lon="9.007099426840165"><ele>405.0</ele><time>2026-04-19T11:42:47Z</time></trkpt><trkpt lat="45.8091858486821" lon="9.006924969600446"><ele>403.5</ele><time>2026-04-19T11:42:48Z</time></trkpt><trkpt lat="45.80913833667242" lon="9.006744085777527"><ele>402.0</ele><time>2026-04-19T11:42:49Z</time></trkpt><trkpt lat="45.809108437980356" lon="9.006548285097779"><ele>399.66666666666663</ele><time>2026-04-19T11:42:50Z</time></trkpt><trkpt lat="45.80906630988002" lon="9.006367597032359"><ele>397.3333333333333</ele><time>2026-04-19T11:42:51Z</time></trkpt><trkpt lat="45.809100269603945" lon="9.006187917654463"><ele>395.0</ele><time>2026-04-19T11:42:52Z</time></trkpt><trkpt lat="45.80914383396181" lon="9.005832370314486"><ele>394.25</ele><time>2026-04-19T11:42:54Z</time></trkpt><trkpt lat="45.80917768386995" lon="9.005660125473387"><ele>393.5</ele><time>2026-04-19T11:42:55Z</time></trkpt><trkpt lat="45.809210840599306" lon="9.005485133501317"><ele>392.75</ele><time>2026-04-19T11:42:56Z</time></trkpt><trkpt lat="45.80924729082754" lon="9.005311476667572"><ele>392.0</ele><time>2026-04-19T11:42:57Z</time></trkpt><trkpt lat="45.80928036496414" lon="9.005137571059741"><ele>392.25</ele><time>2026-04-19T11:42:58Z</time></trkpt><trkpt lat="45.809305905220256" lon="9.004969763581974"><ele>392.5</ele><time>2026-04-19T11:42:59Z</time></trkpt><trkpt lat="45.80933320221251" lon="9.0048114695052"><ele>392.75</ele><time>2026-04-19T11:43:00Z</time></trkpt><trkpt lat="45.809364144809386" lon="9.004646657330795"><ele>393.0</ele><time>2026-04-19T11:43:01Z</time></trkpt><trkpt lat="45.80939383083829" lon="9.004482280558074"><ele>393.4</ele><time>2026-04-19T11:43:02Z</time></trkpt><trkpt lat="45.80942186924616" lon="9.004326242021119"><ele>393.79999999999995</ele><time>2026-04-19T11:43:03Z</time></trkpt><trkpt lat="45.809460326055934" lon="9.004183655601665"><ele>394.2</ele><time>2026-04-19T11:43:04Z</time></trkpt><trkpt lat="45.80948746968812" lon="9.004052823336494"><ele>394.6</ele><time>2026-04-19T11:43:05Z</time></trkpt><trkpt lat="45.809533727540696" lon="9.003934613152694"><ele>395.0</ele><time>2026-04-19T11:43:06Z</time></trkpt><trkpt lat="45.80960485168682" lon="9.003832849065581"><ele>393.6</ele><time>2026-04-19T11:43:07Z</time></trkpt><trkpt lat="45.809621098678925" lon="9.003684298649459"><ele>392.2</ele><time>2026-04-19T11:43:08Z</time></trkpt><trkpt lat="45.80960892856268" lon="9.003532161381889"><ele>390.79999999999995</ele><time>2026-04-19T11:43:09Z</time></trkpt><trkpt lat="45.809550002756886" lon="9.003399397198908"><ele>389.4</ele><time>2026-04-19T11:43:10Z</time></trkpt><trkpt lat="45.809461579404584" lon="9.003279494272974"><ele>388.0</ele><time>2026-04-19T11:43:11Z</time></trkpt><trkpt lat="45.8093712559319" lon="9.003153609753612"><ele>389.33333333333337</ele><time>2026-04-19T11:43:12Z</time></trkpt><trkpt lat="45.80929769745085" lon="9.003009407589687"><ele>390.66666666666663</ele><time>2026-04-19T11:43:13Z</time></trkpt><trkpt lat="45.80912361479527" lon="9.002649304326102"><ele>392.0</ele><time>2026-04-19T11:43:15Z</time></trkpt><trkpt lat="45.80902953070374" lon="9.002435745605505"><ele>393.0</ele><time>2026-04-19T11:43:16Z</time></trkpt><trkpt lat="45.80890201452595" lon="9.002247589913862"><ele>394.0</ele><time>2026-04-19T11:43:17Z</time></trkpt><trkpt lat="45.808757444803746" lon="9.002090455822021"><ele>395.0</ele><time>2026-04-19T11:43:18Z</time></trkpt><trkpt lat="45.808591593597825" lon="9.001960468331053"><ele>394.66666666666663</ele><time>2026-04-19T11:43:19Z</time></trkpt><trkpt lat="45.80841165615876" lon="9.001837197486852"><ele>394.33333333333337</ele><time>2026-04-19T11:43:20Z</time></trkpt><trkpt lat="45.80822111814931" lon="9.001724768806621"><ele>394.0</ele><time>2026-04-19T11:43:20.999Z</time></trkpt><trkpt lat="45.80802657674318" lon="9.001613441117613"><ele>394.0</ele><time>2026-04-19T11:43:21.999Z</time></trkpt><trkpt lat="45.80783032159991" lon="9.001507252801906"><ele>394.0</ele><time>2026-04-19T11:43:22.999Z</time></trkpt><trkpt lat="45.807626709462454" lon="9.001412663019094"><ele>394.0</ele><time>2026-04-19T11:43:23.999Z</time></trkpt><trkpt lat="45.807419985715505" lon="9.001317615473729"><ele>392.33333333333337</ele><time>2026-04-19T11:43:24.999Z</time></trkpt><trkpt lat="45.80721322755928" lon="9.001220616623257"><ele>390.66666666666663</ele><time>2026-04-19T11:43:25.999Z</time></trkpt><trkpt lat="45.80700307406881" lon="9.001126324426327"><ele>389.0</ele><time>2026-04-19T11:43:26.999Z</time></trkpt><trkpt lat="45.80679197419788" lon="9.001028012799285"><ele>387.5</ele><time>2026-04-19T11:43:27.999Z</time></trkpt><trkpt lat="45.806576085495145" lon="9.000923380027857"><ele>386.0</ele><time>2026-04-19T11:43:28.999Z</time></trkpt><trkpt lat="45.80635916912824" lon="9.00081644449087"><ele>385.5</ele><time>2026-04-19T11:43:29.999Z</time></trkpt><trkpt lat="45.80613550011753" lon="9.000705163065051"><ele>385.0</ele><time>2026-04-19T11:43:30.999Z</time></trkpt><trkpt lat="45.80590671267617" lon="9.00059949239872"><ele>383.0</ele><time>2026-04-19T11:43:31.999Z</time></trkpt><trkpt lat="45.80566401989148" lon="9.000489757612355"><ele>381.0</ele><time>2026-04-19T11:43:32.999Z</time></trkpt><trkpt lat="45.8054329672026" lon="9.000356483851952"><ele>382.0</ele><time>2026-04-19T11:43:33.999Z</time></trkpt><trkpt lat="45.80501131446871" lon="9.000143183797777"><ele>383.0</ele><time>2026-04-19T11:43:35.999Z</time></trkpt><trkpt lat="45.80481358868761" lon="9.00006328989161"><ele>383.0</ele><time>2026-04-19T11:43:36.999Z</time></trkpt><trkpt lat="45.8046338470606" lon="8.999966075933338"><ele>383.0</ele><time>2026-04-19T11:43:37.999Z</time></trkpt><trkpt lat="45.80448168674446" lon="8.999827371840581"><ele>383.0</ele><time>2026-04-19T11:43:38.999Z</time></trkpt><trkpt lat="45.80436125746993" lon="8.999690398806267"><ele>383.33333333333337</ele><time>2026-04-19T11:43:39.999Z</time></trkpt><trkpt lat="45.804290625084505" lon="8.99956784012522"><ele>383.6666666666667</ele><time>2026-04-19T11:43:40.999Z</time></trkpt><trkpt lat="45.80424952454004" lon="8.999488143802957"><ele>384.0</ele><time>2026-04-19T11:43:41.999Z</time></trkpt><trkpt lat="45.804211630582735" lon="8.999382474663426"><ele>384.33333333333337</ele><time>2026-04-19T11:43:43.999Z</time></trkpt><trkpt lat="45.80419135818652" lon="8.999286804041839"><ele>384.6666666666667</ele><time>2026-04-19T11:43:44.999Z</time></trkpt><trkpt lat="45.804140632534846" lon="8.999181330516812"><ele>385.0</ele><time>2026-04-19T11:43:45.999Z</time></trkpt><trkpt lat="45.80406628678279" lon="8.999056280539783"><ele>382.75</ele><time>2026-04-19T11:43:46.999Z</time></trkpt><trkpt lat="45.80399142940745" lon="8.998904085305703"><ele>380.5</ele><time>2026-04-19T11:43:47.999Z</time></trkpt><trkpt lat="45.80391947272262" lon="8.998720677334507"><ele>378.25</ele><time>2026-04-19T11:43:48.999Z</time></trkpt><trkpt lat="45.803838034516595" lon="8.998529019319092"><ele>376.0</ele><time>2026-04-19T11:43:49.999Z</time></trkpt><trkpt lat="45.80375529369034" lon="8.998300964881677"><ele>376.0</ele><time>2026-04-19T11:43:50.999Z</time></trkpt><trkpt lat="45.8036377672473" lon="8.998087001353886"><ele>376.0</ele><time>2026-04-19T11:43:51.999Z</time></trkpt><trkpt lat="45.8035401029067" lon="8.99785691302022"><ele>376.0</ele><time>2026-04-19T11:43:52.999Z</time></trkpt><trkpt lat="45.80346531158391" lon="8.997641014652114"><ele>378.3333333333333</ele><time>2026-04-19T11:43:53.999Z</time></trkpt><trkpt lat="45.8033864914083" lon="8.997457390160116"><ele>380.6666666666667</ele><time>2026-04-19T11:43:54.999Z</time></trkpt><trkpt lat="45.803238836736774" lon="8.997112593710755"><ele>383.0</ele><time>2026-04-19T11:43:56.999Z</time></trkpt><trkpt lat="45.80316102365736" lon="8.99693554687867"><ele>383.0</ele><time>2026-04-19T11:43:57.999Z</time></trkpt><trkpt lat="45.80308925143581" lon="8.996771913205913"><ele>383.0</ele><time>2026-04-19T11:43:58.999Z</time></trkpt><trkpt lat="45.80301170967573" lon="8.996647161721787"><ele>383.0</ele><time>2026-04-19T11:43:59.999Z</time></trkpt><trkpt lat="45.80295427294305" lon="8.996535490629922"><ele>383.0</ele><time>2026-04-19T11:44:00.999Z</time></trkpt><trkpt lat="45.80291688550672" lon="8.996386704982806"><ele>383.5</ele><time>2026-04-19T11:44:01.999Z</time></trkpt><trkpt lat="45.802848547554454" lon="8.996233753505903"><ele>384.0</ele><time>2026-04-19T11:44:02.999Z</time></trkpt><trkpt lat="45.802753292312346" lon="8.996089817715676"><ele>384.5</ele><time>2026-04-19T11:44:03.999Z</time></trkpt><trkpt lat="45.80268025052912" lon="8.995896333240097"><ele>385.0</ele><time>2026-04-19T11:44:04.999Z</time></trkpt><trkpt lat="45.80262633613952" lon="8.995672478795791"><ele>386.33333333333337</ele><time>2026-04-19T11:44:05.999Z</time></trkpt><trkpt lat="45.80254689534151" lon="8.995454341976549"><ele>387.66666666666663</ele><time>2026-04-19T11:44:06.999Z</time></trkpt><trkpt lat="45.80243890185973" lon="8.995232360745977"><ele>389.0</ele><time>2026-04-19T11:44:07.999Z</time></trkpt><trkpt lat="45.802329543019916" lon="8.994993065352261"><ele>391.66666666666663</ele><time>2026-04-19T11:44:08.999Z</time></trkpt><trkpt lat="45.802198594307164" lon="8.994752731776941"><ele>394.33333333333337</ele><time>2026-04-19T11:44:09.999Z</time></trkpt><trkpt lat="45.80208124263225" lon="8.994513724732709"><ele>397.0</ele><time>2026-04-19T11:44:10.999Z</time></trkpt><trkpt lat="45.80197326246513" lon="8.994313211136026"><ele>396.6666666666667</ele><time>2026-04-19T11:44:11.999Z</time></trkpt><trkpt lat="45.80185471576132" lon="8.994127221838964"><ele>396.33333333333337</ele><time>2026-04-19T11:44:12.999Z</time></trkpt><trkpt lat="45.801750499597496" lon="8.993929009285502"><ele>396.0</ele><time>2026-04-19T11:44:13.999Z</time></trkpt><trkpt lat="45.801645407771325" lon="8.993728356739403"><ele>396.0</ele><time>2026-04-19T11:44:14.999Z</time></trkpt><trkpt lat="45.801539701287396" lon="8.993531827505162"><ele>396.0</ele><time>2026-04-19T11:44:15.999Z</time></trkpt><trkpt lat="45.80134049143334" lon="8.993157143934726"><ele>396.0</ele><time>2026-04-19T11:44:17.999Z</time></trkpt><trkpt lat="45.80124851910653" lon="8.992983718965093"><ele>396.0</ele><time>2026-04-19T11:44:18.999Z</time></trkpt><trkpt lat="45.801153926950654" lon="8.992813591083285"><ele>396.0</ele><time>2026-04-19T11:44:19.999Z</time></trkpt><trkpt lat="45.801066913495916" lon="8.992640810280307"><ele>395.25</ele><time>2026-04-19T11:44:20.999Z</time></trkpt><trkpt lat="45.80098437349571" lon="8.992466740106968"><ele>394.5</ele><time>2026-04-19T11:44:21.999Z</time></trkpt><trkpt lat="45.8009108961977" lon="8.992315745390082"><ele>393.75</ele><time>2026-04-19T11:44:22.999Z</time></trkpt><trkpt lat="45.80082779853271" lon="8.992154829940485"><ele>393.0</ele><time>2026-04-19T11:44:23.999Z</time></trkpt><trkpt lat="45.80076196580234" lon="8.991973461922015"><ele>393.0</ele><time>2026-04-19T11:44:24.999Z</time></trkpt><trkpt lat="45.8007216849756" lon="8.991763429462035"><ele>393.0</ele><time>2026-04-19T11:44:25.999Z</time></trkpt><trkpt lat="45.80071075666709" lon="8.991542958189864"><ele>393.0</ele><time>2026-04-19T11:44:26.999Z</time></trkpt><trkpt lat="45.800729593701284" lon="8.991320802337821"><ele>391.5</ele><time>2026-04-19T11:44:27.998Z</time></trkpt><trkpt lat="45.80075357729518" lon="8.991108912520863"><ele>390.0</ele><time>2026-04-19T11:44:28.998Z</time></trkpt><trkpt lat="45.80077781771382" lon="8.990911062386337"><ele>388.5</ele><time>2026-04-19T11:44:29.998Z</time></trkpt><trkpt lat="45.8008108267928" lon="8.99071776726882"><ele>387.0</ele><time>2026-04-19T11:44:30.998Z</time></trkpt><trkpt lat="45.80085207084933" lon="8.990523814046302"><ele>387.0</ele><time>2026-04-19T11:44:31.998Z</time></trkpt><trkpt lat="45.80090709946378" lon="8.990336350213411"><ele>387.0</ele><time>2026-04-19T11:44:32.998Z</time></trkpt><trkpt lat="45.80096157202506" lon="8.990147012092244"><ele>387.0</ele><time>2026-04-19T11:44:33.998Z</time></trkpt><trkpt lat="45.80101720160974" lon="8.9899666521195"><ele>387.0</ele><time>2026-04-19T11:44:34.998Z</time></trkpt><trkpt lat="45.80107009396295" lon="8.98978714929024"><ele>387.0</ele><time>2026-04-19T11:44:35.998Z</time></trkpt><trkpt lat="45.80112491328663" lon="8.989590753203867"><ele>387.0</ele><time>2026-04-19T11:44:37Z</time></trkpt><trkpt lat="45.80124169982047" lon="8.989154958021977"><ele>384.0</ele><time>2026-04-19T11:44:39Z</time></trkpt><trkpt lat="45.801302050664454" lon="8.988896444460877"><ele>381.0</ele><time>2026-04-19T11:44:40Z</time></trkpt><trkpt lat="45.80136735134954" lon="8.988610638771297"><ele>378.0</ele><time>2026-04-19T11:44:41Z</time></trkpt><trkpt lat="45.80143760583484" lon="8.988300074643716"><ele>376.0</ele><time>2026-04-19T11:44:42Z</time></trkpt><trkpt lat="45.801507495541024" lon="8.98799070884944"><ele>374.0</ele><time>2026-04-19T11:44:43Z</time></trkpt><trkpt lat="45.80157323123792" lon="8.987703021579009"><ele>372.0</ele><time>2026-04-19T11:44:44Z</time></trkpt><trkpt lat="45.80163616090618" lon="8.987421967493981"><ele>370.6666666666667</ele><time>2026-04-19T11:44:45Z</time></trkpt><trkpt lat="45.801696182400825" lon="8.987154413339203"><ele>369.33333333333337</ele><time>2026-04-19T11:44:46Z</time></trkpt><trkpt lat="45.80173926399955" lon="8.986895211591216"><ele>368.0</ele><time>2026-04-19T11:44:47Z</time></trkpt><trkpt lat="45.80180860211233" lon="8.98666815721267"><ele>366.75</ele><time>2026-04-19T11:44:48Z</time></trkpt><trkpt lat="45.80185889551846" lon="8.986450902957744"><ele>365.5</ele><time>2026-04-19T11:44:49Z</time></trkpt><trkpt lat="45.80190241448262" lon="8.98625081148162"><ele>364.25</ele><time>2026-04-19T11:44:50Z</time></trkpt><trkpt lat="45.801929395420636" lon="8.986070877204694"><ele>363.0</ele><time>2026-04-19T11:44:51Z</time></trkpt><trkpt lat="45.801976871392135" lon="8.985915686372099"><ele>363.5</ele><time>2026-04-19T11:44:52Z</time></trkpt><trkpt lat="45.802047283785214" lon="8.985795305407542"><ele>364.0</ele><time>2026-04-19T11:44:53Z</time></trkpt><trkpt lat="45.80202138005716" lon="8.985606840257834"><ele>364.5</ele><time>2026-04-19T11:44:54Z</time></trkpt><trkpt lat="45.802013405760796" lon="8.98540806440239"><ele>365.0</ele><time>2026-04-19T11:44:55Z</time></trkpt><trkpt lat="45.8020090418373" lon="8.985194457055002"><ele>365.33333333333337</ele><time>2026-04-19T11:44:56Z</time></trkpt><trkpt lat="45.80198994570827" lon="8.984963533632317"><ele>365.6666666666667</ele><time>2026-04-19T11:44:57Z</time></trkpt><trkpt lat="45.8019696197581" lon="8.984716269954568"><ele>366.0</ele><time>2026-04-19T11:44:58Z</time></trkpt><trkpt lat="45.80192589399509" lon="8.984152500984715"><ele>366.0</ele><time>2026-04-19T11:45:00Z</time></trkpt><trkpt lat="45.801904510418645" lon="8.983870687114708"><ele>366.0</ele><time>2026-04-19T11:45:01Z</time></trkpt><trkpt lat="45.80188296997313" lon="8.98360376994501"><ele>366.0</ele><time>2026-04-19T11:45:02Z</time></trkpt><trkpt lat="45.80186240406895" lon="8.983348612573606"><ele>367.0</ele><time>2026-04-19T11:45:03Z</time></trkpt><trkpt lat="45.801843964036934" lon="8.983119300921787"><ele>368.0</ele><time>2026-04-19T11:45:04Z</time></trkpt><trkpt lat="45.801823746964025" lon="8.982915984596463"><ele>369.0</ele><time>2026-04-19T11:45:05Z</time></trkpt><trkpt lat="45.801797839557764" lon="8.982705765100626"><ele>369.4</ele><time>2026-04-19T11:45:06Z</time></trkpt><trkpt lat="45.80177131630143" lon="8.982523823753034"><ele>369.79999999999995</ele><time>2026-04-19T11:45:07Z</time></trkpt><trkpt lat="45.80174499435847" lon="8.982380471754416"><ele>370.20000000000005</ele><time>2026-04-19T11:45:08Z</time></trkpt><trkpt lat="45.80172458762788" lon="8.9822737101784"><ele>370.6</ele><time>2026-04-19T11:45:09Z</time></trkpt><trkpt lat="45.801691660928334" lon="8.982101451456488"><ele>371.0</ele><time>2026-04-19T11:45:11Z</time></trkpt><trkpt lat="45.80166710865034" lon="8.981970681124004"><ele>371.25</ele><time>2026-04-19T11:45:12Z</time></trkpt><trkpt lat="45.80163658581792" lon="8.981805773716793"><ele>371.5</ele><time>2026-04-19T11:45:13Z</time></trkpt><trkpt lat="45.80160653113912" lon="8.981643402160637"><ele>371.75</ele><time>2026-04-19T11:45:14Z</time></trkpt><trkpt lat="45.80157669229157" lon="8.981463823797862"><ele>372.0</ele><time>2026-04-19T11:45:15Z</time></trkpt><trkpt lat="45.80154135672153" lon="8.98126654822535"><ele>372.3333333333333</ele><time>2026-04-19T11:45:16Z</time></trkpt><trkpt lat="45.80150304466973" lon="8.981055587284708"><ele>372.66666666666663</ele><time>2026-04-19T11:45:17Z</time></trkpt><trkpt lat="45.80146545409264" lon="8.980844366574498"><ele>373.0</ele><time>2026-04-19T11:45:18Z</time></trkpt><trkpt lat="45.80141936987622" lon="8.980622374982799"><ele>373.0</ele><time>2026-04-19T11:45:19Z</time></trkpt><trkpt lat="45.80134374637952" lon="8.980138288049538"><ele>373.0</ele><time>2026-04-19T11:45:21Z</time></trkpt><trkpt lat="45.80129421648688" lon="8.979894913479997"><ele>371.66666666666663</ele><time>2026-04-19T11:45:22Z</time></trkpt><trkpt lat="45.80124328081881" lon="8.97963971731056"><ele>370.3333333333333</ele><time>2026-04-19T11:45:22.999Z</time></trkpt><trkpt lat="45.80119087512493" lon="8.979384057100352"><ele>369.0</ele><time>2026-04-19T11:45:23.999Z</time></trkpt><trkpt lat="45.80114073033384" lon="8.979107448256173"><ele>368.0</ele><time>2026-04-19T11:45:24.999Z</time></trkpt><trkpt lat="45.80110630578786" lon="8.978817239770995"><ele>367.0</ele><time>2026-04-19T11:45:25.999Z</time></trkpt><trkpt lat="45.801055025895586" lon="8.978534737474387"><ele>366.0</ele><time>2026-04-19T11:45:26.999Z</time></trkpt><trkpt lat="45.801002269025695" lon="8.978268811702911"><ele>369.3333333333333</ele><time>2026-04-19T11:45:27.999Z</time></trkpt><trkpt lat="45.80094541005688" lon="8.978023203450341"><ele>372.66666666666663</ele><time>2026-04-19T11:45:28.999Z</time></trkpt><trkpt lat="45.80086794215998" lon="8.977805627448387"><ele>376.0</ele><time>2026-04-19T11:45:29.999Z</time></trkpt><trkpt lat="45.800828504739165" lon="8.977572156248296"><ele>375.0</ele><time>2026-04-19T11:45:30.999Z</time></trkpt><trkpt lat="45.80077998546297" lon="8.977356260774865"><ele>374.0</ele><time>2026-04-19T11:45:31.999Z</time></trkpt><trkpt lat="45.80071816187458" lon="8.977150334485414"><ele>373.0</ele><time>2026-04-19T11:45:32.999Z</time></trkpt><trkpt lat="45.80066966218081" lon="8.976946311920129"><ele>373.0</ele><time>2026-04-19T11:45:33.999Z</time></trkpt><trkpt lat="45.80064218271622" lon="8.976739833875172"><ele>373.0</ele><time>2026-04-19T11:45:34.999Z</time></trkpt><trkpt lat="45.80062520384685" lon="8.976529063585714"><ele>373.0</ele><time>2026-04-19T11:45:35.999Z</time></trkpt><trkpt lat="45.800532565445046" lon="8.97636185399101"><ele>373.0</ele><time>2026-04-19T11:45:36.999Z</time></trkpt><trkpt lat="45.800451639790246" lon="8.9762177172063"><ele>372.0</ele><time>2026-04-19T11:45:37.999Z</time></trkpt><trkpt lat="45.800380424628614" lon="8.9760595149561"><ele>371.0</ele><time>2026-04-19T11:45:38.999Z</time></trkpt><trkpt lat="45.80024484301912" lon="8.975981425565793"><ele>370.0</ele><time>2026-04-19T11:45:39.999Z</time></trkpt><trkpt lat="45.8000238297147" lon="8.975856343807328"><ele>372.0</ele><time>2026-04-19T11:45:41.999Z</time></trkpt><trkpt lat="45.79994321862407" lon="8.97576211383674"><ele>374.0</ele><time>2026-04-19T11:45:42.999Z</time></trkpt><trkpt lat="45.79986573655055" lon="8.975654427744924"><ele>376.0</ele><time>2026-04-19T11:45:43.999Z</time></trkpt><trkpt lat="45.79978211400217" lon="8.975527814202557"><ele>378.0</ele><time>2026-04-19T11:45:44.999Z</time></trkpt><trkpt lat="45.79971510773084" lon="8.975371129861445"><ele>378.0</ele><time>2026-04-19T11:45:45.999Z</time></trkpt><trkpt lat="45.799649027847906" lon="8.975205201822753"><ele>378.0</ele><time>2026-04-19T11:45:46.999Z</time></trkpt><trkpt lat="45.79959040613498" lon="8.975048274806356"><ele>378.0</ele><time>2026-04-19T11:45:47.999Z</time></trkpt><trkpt lat="45.79953286520078" lon="8.974890492865265"><ele>378.0</ele><time>2026-04-19T11:45:48.999Z</time></trkpt><trkpt lat="45.79947654055766" lon="8.97473052802072"><ele>378.0</ele><time>2026-04-19T11:45:49.999Z</time></trkpt><trkpt lat="45.79941675574468" lon="8.97456295973541"><ele>378.0</ele><time>2026-04-19T11:45:50.999Z</time></trkpt><trkpt lat="45.799356775202796" lon="8.97439418066655"><ele>378.0</ele><time>2026-04-19T11:45:51.999Z</time></trkpt><trkpt lat="45.79929468382647" lon="8.974219321140882"><ele>378.0</ele><time>2026-04-19T11:45:52.999Z</time></trkpt><trkpt lat="45.79923331082986" lon="8.97404901264035"><ele>378.0</ele><time>2026-04-19T11:45:53.999Z</time></trkpt><trkpt lat="45.799171113044075" lon="8.97387719896806"><ele>378.0</ele><time>2026-04-19T11:45:54.999Z</time></trkpt><trkpt lat="45.79909197465597" lon="8.97369356883026"><ele>378.0</ele><time>2026-04-19T11:45:55.999Z</time></trkpt><trkpt lat="45.799029786483196" lon="8.973510446837508"><ele>378.0</ele><time>2026-04-19T11:45:56.999Z</time></trkpt><trkpt lat="45.79897525983831" lon="8.973338222544259"><ele>378.0</ele><time>2026-04-19T11:45:57.999Z</time></trkpt><trkpt lat="45.79892629880745" lon="8.9731584238965"><ele>378.0</ele><time>2026-04-19T11:45:58.999Z</time></trkpt><trkpt lat="45.79888193182213" lon="8.97296683547277"><ele>378.0</ele><time>2026-04-19T11:45:59.999Z</time></trkpt><trkpt lat="45.798835738861875" lon="8.972778133034367"><ele>378.0</ele><time>2026-04-19T11:46:00.999Z</time></trkpt><trkpt lat="45.79872629295893" lon="8.972386538261945"><ele>378.0</ele><time>2026-04-19T11:46:02.999Z</time></trkpt><trkpt lat="45.79864296445335" lon="8.97220786348577"><ele>378.0</ele><time>2026-04-19T11:46:03.999Z</time></trkpt><trkpt lat="45.79855346482767" lon="8.97205326981161"><ele>378.0</ele><time>2026-04-19T11:46:04.999Z</time></trkpt><trkpt lat="45.798448140281124" lon="8.971909972791114"><ele>378.0</ele><time>2026-04-19T11:46:05.999Z</time></trkpt><trkpt lat="45.79833868723051" lon="8.971781162607337"><ele>379.0</ele><time>2026-04-19T11:46:06.999Z</time></trkpt><trkpt lat="45.798232096551985" lon="8.971650754619647"><ele>380.0</ele><time>2026-04-19T11:46:07.999Z</time></trkpt><trkpt lat="45.79811710586715" lon="8.97150891645783"><ele>381.0</ele><time>2026-04-19T11:46:08.999Z</time></trkpt><trkpt lat="45.79800707287305" lon="8.971358114695821"><ele>382.0</ele><time>2026-04-19T11:46:09.999Z</time></trkpt><trkpt lat="45.797904773230776" lon="8.971201130235077"><ele>382.0</ele><time>2026-04-19T11:46:10.999Z</time></trkpt><trkpt lat="45.79780426364489" lon="8.971046735615126"><ele>382.0</ele><time>2026-04-19T11:46:11.999Z</time></trkpt><trkpt lat="45.79770164670726" lon="8.970897444538322"><ele>382.0</ele><time>2026-04-19T11:46:12.999Z</time></trkpt><trkpt lat="45.797600034593145" lon="8.970755551003506"><ele>382.0</ele><time>2026-04-19T11:46:13.999Z</time></trkpt><trkpt lat="45.79749991617018" lon="8.970615540403948"><ele>381.5</ele><time>2026-04-19T11:46:14.999Z</time></trkpt><trkpt lat="45.79739895399225" lon="8.97047253339548"><ele>381.0</ele><time>2026-04-19T11:46:15.999Z</time></trkpt><trkpt lat="45.797302984153795" lon="8.970333276320227"><ele>380.5</ele><time>2026-04-19T11:46:16.999Z</time></trkpt><trkpt lat="45.797213150074356" lon="8.970194382748108"><ele>380.0</ele><time>2026-04-19T11:46:17.999Z</time></trkpt><trkpt lat="45.79712641809433" lon="8.970089707868587"><ele>380.0</ele><time>2026-04-19T11:46:18.999Z</time></trkpt><trkpt lat="45.79703795025277" lon="8.97002421673521"><ele>380.0</ele><time>2026-04-19T11:46:19.999Z</time></trkpt><trkpt lat="45.79695288820795" lon="8.969956722144909"><ele>380.0</ele><time>2026-04-19T11:46:20.999Z</time></trkpt><trkpt lat="45.79688117561975" lon="8.969854111228791"><ele>380.0</ele><time>2026-04-19T11:46:21.999Z</time></trkpt><trkpt lat="45.796777834135895" lon="8.969626573368805"><ele>379.5</ele><time>2026-04-19T11:46:23.999Z</time></trkpt><trkpt lat="45.7966790606966" lon="8.969535570169548"><ele>379.0</ele><time>2026-04-19T11:46:24.999Z</time></trkpt><trkpt lat="45.79661708878292" lon="8.969355679978214"><ele>378.5</ele><time>2026-04-19T11:46:25.999Z</time></trkpt><trkpt lat="45.79659039431801" lon="8.96915137353278"><ele>378.0</ele><time>2026-04-19T11:46:26.999Z</time></trkpt><trkpt lat="45.79654639921539" lon="8.96893405656953"><ele>377.3333333333333</ele><time>2026-04-19T11:46:27.999Z</time></trkpt><trkpt lat="45.79653718136083" lon="8.968683168853"><ele>376.66666666666663</ele><time>2026-04-19T11:46:28.998Z</time></trkpt><trkpt lat="45.79654615643799" lon="8.968430764639654"><ele>376.0</ele><time>2026-04-19T11:46:29.998Z</time></trkpt><trkpt lat="45.79657517662014" lon="8.968179981882157"><ele>378.0</ele><time>2026-04-19T11:46:30.998Z</time></trkpt><trkpt lat="45.796627121427356" lon="8.967918355459966"><ele>380.0</ele><time>2026-04-19T11:46:31.998Z</time></trkpt><trkpt lat="45.79671270301638" lon="8.967661464239951"><ele>382.0</ele><time>2026-04-19T11:46:32.998Z</time></trkpt><trkpt lat="45.796827096145975" lon="8.967410236202634"><ele>379.0</ele><time>2026-04-19T11:46:33.998Z</time></trkpt><trkpt lat="45.79695215721264" lon="8.967176145392362"><ele>376.0</ele><time>2026-04-19T11:46:34.998Z</time></trkpt><trkpt lat="45.797099087148844" lon="8.96695797602309"><ele>373.0</ele><time>2026-04-19T11:46:35.998Z</time></trkpt><trkpt lat="45.7972347665354" lon="8.966719008319386"><ele>376.5</ele><time>2026-04-19T11:46:36.998Z</time></trkpt><trkpt lat="45.79737874934907" lon="8.966468547609553"><ele>380.0</ele><time>2026-04-19T11:46:37.998Z</time></trkpt><trkpt lat="45.79752649147777" lon="8.966209651651797"><ele>379.5</ele><time>2026-04-19T11:46:38.998Z</time></trkpt><trkpt lat="45.797677279140494" lon="8.96593043342648"><ele>379.0</ele><time>2026-04-19T11:46:39.998Z</time></trkpt><trkpt lat="45.797790999089905" lon="8.96563442801549"><ele>379.0</ele><time>2026-04-19T11:46:40.998Z</time></trkpt><trkpt lat="45.79789182252576" lon="8.9653583775211"><ele>379.0</ele><time>2026-04-19T11:46:41.998Z</time></trkpt><trkpt lat="45.79797348944109" lon="8.965067274057686"><ele>379.0</ele><time>2026-04-19T11:46:43Z</time></trkpt><trkpt lat="45.798081742458514" lon="8.964446019788197"><ele>380.0</ele><time>2026-04-19T11:46:45Z</time></trkpt><trkpt lat="45.798129014821136" lon="8.96413152707838"><ele>381.0</ele><time>2026-04-19T11:46:46Z</time></trkpt><trkpt lat="45.79818304476085" lon="8.963817922952039"><ele>382.0</ele><time>2026-04-19T11:46:47Z</time></trkpt><trkpt lat="45.79823594482016" lon="8.963504189028292"><ele>383.5</ele><time>2026-04-19T11:46:48Z</time></trkpt><trkpt lat="45.79829170435255" lon="8.9631868546871"><ele>385.0</ele><time>2026-04-19T11:46:49Z</time></trkpt><trkpt lat="45.798351306767664" lon="8.962870432143594"><ele>385.0</ele><time>2026-04-19T11:46:50Z</time></trkpt><trkpt lat="45.798412740381515" lon="8.96255296737855"><ele>385.0</ele><time>2026-04-19T11:46:51Z</time></trkpt><trkpt lat="45.79846918758947" lon="8.962230058885357"><ele>381.5</ele><time>2026-04-19T11:46:52Z</time></trkpt><trkpt lat="45.79852623264953" lon="8.961908425739432"><ele>378.0</ele><time>2026-04-19T11:46:53Z</time></trkpt><trkpt lat="45.79860988132253" lon="8.961596238354423"><ele>377.6666666666667</ele><time>2026-04-19T11:46:54Z</time></trkpt><trkpt lat="45.79870233239342" lon="8.961302215679083"><ele>377.33333333333337</ele><time>2026-04-19T11:46:55Z</time></trkpt><trkpt lat="45.798810982030965" lon="8.961022274120676"><ele>377.0</ele><time>2026-04-19T11:46:56Z</time></trkpt><trkpt lat="45.7989345980705" lon="8.96074428516971"><ele>376.5</ele><time>2026-04-19T11:46:57Z</time></trkpt><trkpt lat="45.799049186623485" lon="8.96046672523413"><ele>376.0</ele><time>2026-04-19T11:46:58Z</time></trkpt><trkpt lat="45.79918414943008" lon="8.960196605079284"><ele>377.0</ele><time>2026-04-19T11:46:59Z</time></trkpt><trkpt lat="45.79931363276165" lon="8.959930380055273"><ele>378.0</ele><time>2026-04-19T11:47:00Z</time></trkpt><trkpt lat="45.79944042571821" lon="8.959653741542128"><ele>378.5</ele><time>2026-04-19T11:47:01Z</time></trkpt><trkpt lat="45.799567584758876" lon="8.959378720313186"><ele>379.0</ele><time>2026-04-19T11:47:02Z</time></trkpt><trkpt lat="45.799696410088636" lon="8.959104927876885"><ele>380.5</ele><time>2026-04-19T11:47:03Z</time></trkpt><trkpt lat="45.79982809763099" lon="8.958834697484855"><ele>382.0</ele><time>2026-04-19T11:47:04Z</time></trkpt><trkpt lat="45.80006079007734" lon="8.958275385973938"><ele>385.0</ele><time>2026-04-19T11:47:06Z</time></trkpt><trkpt lat="45.80013717812291" lon="8.957976068861779"><ele>388.0</ele><time>2026-04-19T11:47:07Z</time></trkpt><trkpt lat="45.80020309287826" lon="8.957661066913323"><ele>390.0</ele><time>2026-04-19T11:47:08Z</time></trkpt><trkpt lat="45.80024951105405" lon="8.957347548741168"><ele>392.0</ele><time>2026-04-19T11:47:09Z</time></trkpt><trkpt lat="45.800278304078255" lon="8.957023498288718"><ele>393.5</ele><time>2026-04-19T11:47:10Z</time></trkpt><trkpt lat="45.80028998554585" lon="8.956690554082998"><ele>395.0</ele><time>2026-04-19T11:47:11Z</time></trkpt><trkpt lat="45.80029401605021" lon="8.956365279474367"><ele>395.0</ele><time>2026-04-19T11:47:12Z</time></trkpt><trkpt lat="45.80029440759208" lon="8.956070988083868"><ele>395.0</ele><time>2026-04-19T11:47:13Z</time></trkpt><trkpt lat="45.80029937898516" lon="8.955801516290306"><ele>395.0</ele><time>2026-04-19T11:47:14Z</time></trkpt><trkpt lat="45.80030305127086" lon="8.955533256653437"><ele>396.0</ele><time>2026-04-19T11:47:15Z</time></trkpt><trkpt lat="45.80030953991903" lon="8.95528604346913"><ele>397.0</ele><time>2026-04-19T11:47:16Z</time></trkpt><trkpt lat="45.80031693883972" lon="8.955047083647464"><ele>398.0</ele><time>2026-04-19T11:47:17Z</time></trkpt><trkpt lat="45.800334396117584" lon="8.954832714545079"><ele>398.25</ele><time>2026-04-19T11:47:18Z</time></trkpt><trkpt lat="45.80032406444248" lon="8.954632298747255"><ele>398.5</ele><time>2026-04-19T11:47:19Z</time></trkpt><trkpt lat="45.80033406996993" lon="8.954471829322651"><ele>398.75</ele><time>2026-04-19T11:47:20Z</time></trkpt><trkpt lat="45.80034222950748" lon="8.954319633260576"><ele>399.0</ele><time>2026-04-19T11:47:21Z</time></trkpt><trkpt lat="45.800351616755506" lon="8.95418461380949"><ele>399.0</ele><time>2026-04-19T11:47:22Z</time></trkpt><trkpt lat="45.80036764021759" lon="8.954050157482222"><ele>399.0</ele><time>2026-04-19T11:47:23Z</time></trkpt><trkpt lat="45.80040015686675" lon="8.953939746021478"><ele>399.0</ele><time>2026-04-19T11:47:24Z</time></trkpt><trkpt lat="45.80044924369098" lon="8.953830931504573"><ele>399.0</ele><time>2026-04-19T11:47:25Z</time></trkpt><trkpt lat="45.800569978286106" lon="8.95357348032552"><ele>399.0</ele><time>2026-04-19T11:47:26.999Z</time></trkpt><trkpt lat="45.800656122052146" lon="8.95342414798727"><ele>399.0</ele><time>2026-04-19T11:47:27.999Z</time></trkpt><trkpt lat="45.80076734766096" lon="8.95331030637659"><ele>399.0</ele><time>2026-04-19T11:47:28.999Z</time></trkpt><trkpt lat="45.80090735515292" lon="8.953253486904906"><ele>399.0</ele><time>2026-04-19T11:47:29.999Z</time></trkpt><trkpt lat="45.80105236312741" lon="8.953170610968117"><ele>398.25</ele><time>2026-04-19T11:47:30.999Z</time></trkpt><trkpt lat="45.801205347304894" lon="8.953127709672833"><ele>397.5</ele><time>2026-04-19T11:47:31.999Z</time></trkpt><trkpt lat="45.801348733658024" lon="8.953113874689423"><ele>396.75</ele><time>2026-04-19T11:47:32.999Z</time></trkpt><trkpt lat="45.8014858258404" lon="8.953097747003286"><ele>396.0</ele><time>2026-04-19T11:47:33.999Z</time></trkpt><trkpt lat="45.8016336848564" lon="8.953100687090801"><ele>396.0</ele><time>2026-04-19T11:47:34.999Z</time></trkpt><trkpt lat="45.80178695855665" lon="8.953110378258398"><ele>396.0</ele><time>2026-04-19T11:47:35.999Z</time></trkpt><trkpt lat="45.80195050861307" lon="8.953125124616403"><ele>396.0</ele><time>2026-04-19T11:47:36.999Z</time></trkpt><trkpt lat="45.802096464751656" lon="8.953132814530466"><ele>395.5</ele><time>2026-04-19T11:47:37.999Z</time></trkpt><trkpt lat="45.80223446654175" lon="8.953154539367377"><ele>395.0</ele><time>2026-04-19T11:47:38.999Z</time></trkpt><trkpt lat="45.80238397438019" lon="8.953185951353182"><ele>394.5</ele><time>2026-04-19T11:47:39.999Z</time></trkpt><trkpt lat="45.80253384240112" lon="8.953239592440223"><ele>394.0</ele><time>2026-04-19T11:47:40.999Z</time></trkpt><trkpt lat="45.80267367217363" lon="8.953294512564835"><ele>393.6666666666667</ele><time>2026-04-19T11:47:41.999Z</time></trkpt><trkpt lat="45.802823233257314" lon="8.953359799512741"><ele>393.33333333333337</ele><time>2026-04-19T11:47:42.999Z</time></trkpt><trkpt lat="45.80297123384577" lon="8.953440723372497"><ele>393.0</ele><time>2026-04-19T11:47:43.999Z</time></trkpt><trkpt lat="45.80311258433371" lon="8.953500704710377"><ele>393.0</ele><time>2026-04-19T11:47:44.999Z</time></trkpt><trkpt lat="45.803258325479774" lon="8.953531087244219"><ele>393.0</ele><time>2026-04-19T11:47:45.999Z</time></trkpt><trkpt lat="45.80358955163895" lon="8.95354862539694"><ele>394.0</ele><time>2026-04-19T11:47:47.999Z</time></trkpt><trkpt lat="45.80377926127589" lon="8.953543222550634"><ele>395.0</ele><time>2026-04-19T11:47:48.999Z</time></trkpt><trkpt lat="45.80398581987067" lon="8.953555758149243"><ele>396.0</ele><time>2026-04-19T11:47:49.999Z</time></trkpt><trkpt lat="45.80416415353189" lon="8.953583771386704"><ele>396.0</ele><time>2026-04-19T11:47:50.999Z</time></trkpt><trkpt lat="45.804329390524785" lon="8.953620854095062"><ele>396.0</ele><time>2026-04-19T11:47:51.999Z</time></trkpt><trkpt lat="45.80449007569767" lon="8.953647427210084"><ele>396.0</ele><time>2026-04-19T11:47:52.999Z</time></trkpt><trkpt lat="45.8046431071345" lon="8.953690702740973"><ele>396.0</ele><time>2026-04-19T11:47:53.999Z</time></trkpt><trkpt lat="45.804804976480014" lon="8.953718282684688"><ele>396.0</ele><time>2026-04-19T11:47:54.999Z</time></trkpt><trkpt lat="45.80496114138848" lon="8.953769303480836"><ele>396.0</ele><time>2026-04-19T11:47:55.999Z</time></trkpt><trkpt lat="45.80510957152607" lon="8.953802402479445"><ele>395.5</ele><time>2026-04-19T11:47:56.999Z</time></trkpt><trkpt lat="45.805252980997786" lon="8.9538241387746"><ele>395.0</ele><time>2026-04-19T11:47:57.999Z</time></trkpt><trkpt lat="45.80539270433827" lon="8.95385672366776"><ele>394.5</ele><time>2026-04-19T11:47:58.999Z</time></trkpt><trkpt lat="45.80553265495441" lon="8.953883362682776"><ele>394.0</ele><time>2026-04-19T11:47:59.999Z</time></trkpt><trkpt lat="45.80567387258789" lon="8.953908300997568"><ele>394.0</ele><time>2026-04-19T11:48:00.999Z</time></trkpt><trkpt lat="45.805811020331966" lon="8.953923973423626"><ele>394.0</ele><time>2026-04-19T11:48:01.999Z</time></trkpt><trkpt lat="45.80595744983494" lon="8.953956506009453"><ele>394.0</ele><time>2026-04-19T11:48:02.999Z</time></trkpt><trkpt lat="45.806095734638156" lon="8.95398710859338"><ele>394.0</ele><time>2026-04-19T11:48:03.999Z</time></trkpt><trkpt lat="45.806230115913074" lon="8.954006738198574"><ele>393.0</ele><time>2026-04-19T11:48:04.999Z</time></trkpt><trkpt lat="45.80636789531106" lon="8.954035295066639"><ele>392.0</ele><time>2026-04-19T11:48:05.999Z</time></trkpt><trkpt lat="45.806507185728584" lon="8.954061763723574"><ele>391.0</ele><time>2026-04-19T11:48:06.999Z</time></trkpt><trkpt lat="45.806801503331066" lon="8.954122247421914"><ele>391.5</ele><time>2026-04-19T11:48:08.999Z</time></trkpt><trkpt lat="45.806941312255745" lon="8.95414948592377"><ele>392.0</ele><time>2026-04-19T11:48:09.999Z</time></trkpt><trkpt lat="45.807072743135954" lon="8.954176556997188"><ele>392.5</ele><time>2026-04-19T11:48:10.999Z</time></trkpt><trkpt lat="45.80719968016706" lon="8.954203360936207"><ele>393.0</ele><time>2026-04-19T11:48:11.999Z</time></trkpt><trkpt lat="45.80733402630905" lon="8.954225035864022"><ele>393.5</ele><time>2026-04-19T11:48:12.999Z</time></trkpt><trkpt lat="45.807470053982584" lon="8.954276515201517"><ele>394.0</ele><time>2026-04-19T11:48:13.999Z</time></trkpt><trkpt lat="45.80761691987732" lon="8.954307045323823"><ele>394.5</ele><time>2026-04-19T11:48:14.999Z</time></trkpt><trkpt lat="45.807774004165076" lon="8.954339699683667"><ele>395.0</ele><time>2026-04-19T11:48:15.999Z</time></trkpt><trkpt lat="45.807933639961185" lon="8.954372884371011"><ele>393.3333333333333</ele><time>2026-04-19T11:48:16.999Z</time></trkpt><trkpt lat="45.808108565006464" lon="8.954409247277315"><ele>391.66666666666663</ele><time>2026-04-19T11:48:17.999Z</time></trkpt><trkpt lat="45.80829141018897" lon="8.954447646192975"><ele>390.0</ele><time>2026-04-19T11:48:18.999Z</time></trkpt><trkpt lat="45.8084837505986" lon="8.95445170690251"><ele>390.0</ele><time>2026-04-19T11:48:19.999Z</time></trkpt><trkpt lat="45.80867141849777" lon="8.95446642833497"><ele>390.0</ele><time>2026-04-19T11:48:20.999Z</time></trkpt><trkpt lat="45.808869347829706" lon="8.9544530299245"><ele>390.0</ele><time>2026-04-19T11:48:21.999Z</time></trkpt><trkpt lat="45.80906931751851" lon="8.954416166106538"><ele>390.0</ele><time>2026-04-19T11:48:22.999Z</time></trkpt><trkpt lat="45.80926604271646" lon="8.954374995905797"><ele>390.0</ele><time>2026-04-19T11:48:23.999Z</time></trkpt><trkpt lat="45.80946053756119" lon="8.954293320761254"><ele>390.0</ele><time>2026-04-19T11:48:24.999Z</time></trkpt><trkpt lat="45.80964154465298" lon="8.954202503500474"><ele>390.33333333333337</ele><time>2026-04-19T11:48:25.999Z</time></trkpt><trkpt lat="45.80982612613588" lon="8.954107131382742"><ele>390.6666666666667</ele><time>2026-04-19T11:48:26.999Z</time></trkpt><trkpt lat="45.810012135072576" lon="8.954008447575022"><ele>391.0</ele><time>2026-04-19T11:48:27.999Z</time></trkpt><trkpt lat="45.81037042581447" lon="8.953818387702608"><ele>391.6666666666667</ele><time>2026-04-19T11:48:29.999Z</time></trkpt><trkpt lat="45.81054728222281" lon="8.953724608306533"><ele>392.33333333333337</ele><time>2026-04-19T11:48:30.999Z</time></trkpt><trkpt lat="45.810713894925094" lon="8.953636319037523"><ele>393.0</ele><time>2026-04-19T11:48:31.999Z</time></trkpt><trkpt lat="45.810870188541394" lon="8.953553250345461"><ele>393.0</ele><time>2026-04-19T11:48:32.998Z</time></trkpt><trkpt lat="45.81101707612892" lon="8.953475005441259"><ele>393.0</ele><time>2026-04-19T11:48:33.998Z</time></trkpt><trkpt lat="45.811164637682694" lon="8.95339640159097"><ele>393.0</ele><time>2026-04-19T11:48:34.998Z</time></trkpt><trkpt lat="45.81131580833992" lon="8.953316013840798"><ele>393.0</ele><time>2026-04-19T11:48:35.998Z</time></trkpt><trkpt lat="45.81146566046121" lon="8.95323658927322"><ele>393.0</ele><time>2026-04-19T11:48:36.998Z</time></trkpt><trkpt lat="45.81161387426478" lon="8.95315803304495"><ele>393.0</ele><time>2026-04-19T11:48:37.998Z</time></trkpt><trkpt lat="45.81176004344616" lon="8.953080560323233"><ele>393.66666666666663</ele><time>2026-04-19T11:48:38.998Z</time></trkpt><trkpt lat="45.8119024263791" lon="8.953005094520192"><ele>394.3333333333333</ele><time>2026-04-19T11:48:39.998Z</time></trkpt><trkpt lat="45.81204684696103" lon="8.952929284947174"><ele>395.0</ele><time>2026-04-19T11:48:40.998Z</time></trkpt><trkpt lat="45.812195022388416" lon="8.952851560097029"><ele>395.0</ele><time>2026-04-19T11:48:41.998Z</time></trkpt><trkpt lat="45.812339980154505" lon="8.95277552304417"><ele>395.0</ele><time>2026-04-19T11:48:42.998Z</time></trkpt><trkpt lat="45.81248359944111" lon="8.952700188156134"><ele>395.0</ele><time>2026-04-19T11:48:43.998Z</time></trkpt><trkpt lat="45.812632194000614" lon="8.952622243449959"><ele>395.3333333333333</ele><time>2026-04-19T11:48:44.998Z</time></trkpt><trkpt lat="45.812793589633245" lon="8.952537584012312"><ele>395.66666666666663</ele><time>2026-04-19T11:48:45.998Z</time></trkpt><trkpt lat="45.81296277360846" lon="8.952448941972714"><ele>396.0</ele><time>2026-04-19T11:48:46.998Z</time></trkpt><trkpt lat="45.81314514103719" lon="8.952353670266378"><ele>396.0</ele><time>2026-04-19T11:48:47.998Z</time></trkpt><trkpt lat="45.813332680530955" lon="8.952255696502165"><ele>396.0</ele><time>2026-04-19T11:48:49Z</time></trkpt><trkpt lat="45.813712925819814" lon="8.95205694978361"><ele>395.66666666666663</ele><time>2026-04-19T11:48:51Z</time></trkpt><trkpt lat="45.813899411128936" lon="8.951959441983405"><ele>395.3333333333333</ele><time>2026-04-19T11:48:52Z</time></trkpt><trkpt lat="45.81408647858014" lon="8.951861629801463"><ele>395.0</ele><time>2026-04-19T11:48:53Z</time></trkpt><trkpt lat="45.81427521868124" lon="8.951767620644798"><ele>396.0</ele><time>2026-04-19T11:48:54Z</time></trkpt><trkpt lat="45.81447149940855" lon="8.951686634257333"><ele>397.0</ele><time>2026-04-19T11:48:55Z</time></trkpt><trkpt lat="45.81467777063287" lon="8.95163143624259"><ele>398.0</ele><time>2026-04-19T11:48:56Z</time></trkpt><trkpt lat="45.814889139130855" lon="8.951595681713163"><ele>398.0</ele><time>2026-04-19T11:48:57Z</time></trkpt><trkpt lat="45.8151090872178" lon="8.951585835043897"><ele>398.0</ele><time>2026-04-19T11:48:58Z</time></trkpt><trkpt lat="45.81534384511726" lon="8.951584421525617"><ele>397.0</ele><time>2026-04-19T11:48:59Z</time></trkpt><trkpt lat="45.8155900085033" lon="8.951583948558016"><ele>396.0</ele><time>2026-04-19T11:49:00Z</time></trkpt><trkpt lat="45.81582056850331" lon="8.95156386623399"><ele>397.0</ele><time>2026-04-19T11:49:01Z</time></trkpt><trkpt lat="45.81603222965687" lon="8.951582589891418"><ele>398.0</ele><time>2026-04-19T11:49:02Z</time></trkpt><trkpt lat="45.816236397519226" lon="8.951581018783179"><ele>399.0</ele><time>2026-04-19T11:49:03Z</time></trkpt><trkpt lat="45.8164338357234" lon="8.951556866346278"><ele>399.0</ele><time>2026-04-19T11:49:04Z</time></trkpt><trkpt lat="45.81663226373666" lon="8.951557848947282"><ele>399.0</ele><time>2026-04-19T11:49:05Z</time></trkpt><trkpt lat="45.81683339750578" lon="8.951556051432052"><ele>399.0</ele><time>2026-04-19T11:49:06Z</time></trkpt><trkpt lat="45.817033559819144" lon="8.951563886815515"><ele>398.66666666666663</ele><time>2026-04-19T11:49:07Z</time></trkpt><trkpt lat="45.81723663098514" lon="8.951563833614845"><ele>398.3333333333333</ele><time>2026-04-19T11:49:08Z</time></trkpt><trkpt lat="45.81743456072412" lon="8.951567327966151"><ele>398.0</ele><time>2026-04-19T11:49:09Z</time></trkpt><trkpt lat="45.81764062645324" lon="8.951566419432506"><ele>397.5</ele><time>2026-04-19T11:49:10Z</time></trkpt><trkpt lat="45.81804424782893" lon="8.951564639881667"><ele>397.0</ele><time>2026-04-19T11:49:12Z</time></trkpt><trkpt lat="45.81822657835845" lon="8.951540210631093"><ele>397.0</ele><time>2026-04-19T11:49:13Z</time></trkpt><trkpt lat="45.818388852241455" lon="8.951541237594027"><ele>397.0</ele><time>2026-04-19T11:49:14Z</time></trkpt><trkpt lat="45.81854036151273" lon="8.951562452540971"><ele>397.0</ele><time>2026-04-19T11:49:15Z</time></trkpt><trkpt lat="45.81867873905469" lon="8.951561972947289"><ele>396.75</ele><time>2026-04-19T11:49:16Z</time></trkpt><trkpt lat="45.8188057395236" lon="8.95154014912774"><ele>396.5</ele><time>2026-04-19T11:49:17Z</time></trkpt><trkpt lat="45.81893386477589" lon="8.95153854630811"><ele>396.25</ele><time>2026-04-19T11:49:18Z</time></trkpt><trkpt lat="45.81904638984661" lon="8.9515437636076"><ele>396.0</ele><time>2026-04-19T11:49:19Z</time></trkpt><trkpt lat="45.819143473804665" lon="8.951543287284606"><ele>396.0</ele><time>2026-04-19T11:49:20Z</time></trkpt><trkpt lat="45.819233417865966" lon="8.9515567340961"><ele>396.0</ele><time>2026-04-19T11:49:21Z</time></trkpt><trkpt lat="45.81931168092231" lon="8.951552262163267"><ele>396.0</ele><time>2026-04-19T11:49:22Z</time></trkpt><trkpt lat="45.81942770897708" lon="8.95156505941734"><ele>396.0</ele><time>2026-04-19T11:49:24Z</time></trkpt><trkpt lat="45.81955353111593" lon="8.951606082782046"><ele>396.0</ele><time>2026-04-19T11:49:26Z</time></trkpt><trkpt lat="45.81961850645163" lon="8.951637887255183"><ele>396.0</ele><time>2026-04-19T11:49:27Z</time></trkpt><trkpt lat="45.81968626480608" lon="8.95166165776986"><ele>396.0</ele><time>2026-04-19T11:49:28Z</time></trkpt><trkpt lat="45.81975977390276" lon="8.951654166533258"><ele>396.0</ele><time>2026-04-19T11:49:29Z</time></trkpt><trkpt lat="45.81982405190631" lon="8.951615059530033"><ele>396.0</ele><time>2026-04-19T11:49:30Z</time></trkpt><trkpt lat="45.81989410047118" lon="8.951572799170995"><ele>396.0</ele><time>2026-04-19T11:49:31Z</time></trkpt><trkpt lat="45.8200653796865" lon="8.951525919035099"><ele>396.6</ele><time>2026-04-19T11:49:32.999Z</time></trkpt><trkpt lat="45.82016048065715" lon="8.951555502265377"><ele>397.20000000000005</ele><time>2026-04-19T11:49:33.999Z</time></trkpt><trkpt lat="45.82024415343866" lon="8.951555706976253"><ele>397.79999999999995</ele><time>2026-04-19T11:49:34.999Z</time></trkpt><trkpt lat="45.820332049856994" lon="8.95155597445059"><ele>398.4</ele><time>2026-04-19T11:49:35.999Z</time></trkpt><trkpt lat="45.82042416978227" lon="8.951540854337361"><ele>399.0</ele><time>2026-04-19T11:49:36.999Z</time></trkpt><trkpt lat="45.82052618683658" lon="8.95154593531497"><ele>399.0</ele><time>2026-04-19T11:49:37.999Z</time></trkpt><trkpt lat="45.82063776157438" lon="8.951544222440297"><ele>399.0</ele><time>2026-04-19T11:49:38.999Z</time></trkpt><trkpt lat="45.82075989276093" lon="8.951545042391608"><ele>399.0</ele><time>2026-04-19T11:49:39.999Z</time></trkpt><trkpt lat="45.82088288717107" lon="8.95154319017048"><ele>399.0</ele><time>2026-04-19T11:49:40.999Z</time></trkpt><trkpt lat="45.8210032713253" lon="8.951541087837677"><ele>399.5</ele><time>2026-04-19T11:49:41.999Z</time></trkpt><trkpt lat="45.82111704490373" lon="8.951549770591754"><ele>400.0</ele><time>2026-04-19T11:49:42.999Z</time></trkpt><trkpt lat="45.82123329952259" lon="8.951548350637673"><ele>400.5</ele><time>2026-04-19T11:49:43.999Z</time></trkpt><trkpt lat="45.82134965520935" lon="8.951549077413853"><ele>401.0</ele><time>2026-04-19T11:49:44.999Z</time></trkpt><trkpt lat="45.82146740442941" lon="8.951548340010076"><ele>401.0</ele><time>2026-04-19T11:49:45.999Z</time></trkpt><trkpt lat="45.8215906737662" lon="8.951548156776033"><ele>401.0</ele><time>2026-04-19T11:49:46.999Z</time></trkpt><trkpt lat="45.821700190204574" lon="8.951540577905089"><ele>401.0</ele><time>2026-04-19T11:49:47.999Z</time></trkpt><trkpt lat="45.82181963404994" lon="8.951539415372496"><ele>401.0</ele><time>2026-04-19T11:49:48.999Z</time></trkpt><trkpt lat="45.82194032468891" lon="8.951538973057104"><ele>401.3333333333333</ele><time>2026-04-19T11:49:49.999Z</time></trkpt><trkpt lat="45.82206673321855" lon="8.951526402442394"><ele>401.66666666666663</ele><time>2026-04-19T11:49:50.999Z</time></trkpt><trkpt lat="45.82218543514574" lon="8.951521159724008"><ele>402.0</ele><time>2026-04-19T11:49:51.999Z</time></trkpt><trkpt lat="45.82240368803408" lon="8.951445262390795"><ele>402.0</ele><time>2026-04-19T11:49:53.999Z</time></trkpt><trkpt lat="45.822515251451215" lon="8.951402557757165"><ele>402.0</ele><time>2026-04-19T11:49:54.999Z</time></trkpt><trkpt lat="45.82262367432476" lon="8.951361451068117"><ele>402.0</ele><time>2026-04-19T11:49:55.999Z</time></trkpt><trkpt lat="45.82272475785767" lon="8.95131706203519"><ele>402.0</ele><time>2026-04-19T11:49:56.999Z</time></trkpt><trkpt lat="45.82282114432303" lon="8.951284607810202"><ele>402.0</ele><time>2026-04-19T11:49:57.999Z</time></trkpt><trkpt lat="45.822904054390065" lon="8.951259389340958"><ele>402.0</ele><time>2026-04-19T11:49:58.999Z</time></trkpt><trkpt lat="45.82298050098051" lon="8.951226879438057"><ele>402.0</ele><time>2026-04-19T11:49:59.999Z</time></trkpt><trkpt lat="45.823073857161816" lon="8.951186291653437"><ele>402.0</ele><time>2026-04-19T11:50:01.999Z</time></trkpt><trkpt lat="45.82314145091683" lon="8.95118847935622"><ele>402.0</ele><time>2026-04-19T11:50:03.999Z</time></trkpt><trkpt lat="45.823239219749574" lon="8.951191305079753"><ele>402.0</ele><time>2026-04-19T11:50:06.999Z</time></trkpt><trkpt lat="45.823306258713835" lon="8.95123970634101"><ele>402.0</ele><time>2026-04-19T11:50:07.999Z</time></trkpt><trkpt lat="45.82338338612637" lon="8.951248076559006"><ele>402.0</ele><time>2026-04-19T11:50:08.999Z</time></trkpt><trkpt lat="45.823451466381165" lon="8.951223706924846"><ele>402.0</ele><time>2026-04-19T11:50:09.999Z</time></trkpt><trkpt lat="45.82347020461306" lon="8.951076750918649"><ele>402.0</ele><time>2026-04-19T11:50:10.999Z</time></trkpt><trkpt lat="45.82341242673728" lon="8.950877819040286"><ele>402.0</ele><time>2026-04-19T11:50:12.999Z</time></trkpt><trkpt lat="45.82325386396394" lon="8.950821746380656"><ele>402.0</ele><time>2026-04-19T11:50:14.999Z</time></trkpt><trkpt lat="45.82318455415694" lon="8.950689824187773"><ele>402.0</ele><time>2026-04-19T11:50:15.999Z</time></trkpt><trkpt lat="45.82311057306521" lon="8.95061301111201"><ele>402.0</ele><time>2026-04-19T11:50:16.999Z</time></trkpt><trkpt lat="45.823045480229105" lon="8.950543563014634"><ele>402.0</ele><time>2026-04-19T11:50:17.999Z</time></trkpt><trkpt lat="45.822999805986946" lon="8.950472898856686"><ele>402.0</ele><time>2026-04-19T11:50:18.999Z</time></trkpt><trkpt lat="45.82294168502037" lon="8.950378715003238"><ele>402.0</ele><time>2026-04-19T11:50:20.999Z</time></trkpt><trkpt lat="45.82300045321464" lon="8.950187788599193"><ele>402.0</ele><time>2026-04-19T11:50:23.999Z</time></trkpt><trkpt lat="45.82310421436079" lon="8.950370192131011"><ele>402.0</ele><time>2026-04-19T11:50:24.999Z</time></trkpt><trkpt lat="45.823191913952954" lon="8.950480857957192"><ele>402.0</ele><time>2026-04-19T11:50:26.999Z</time></trkpt><trkpt lat="45.82324931574496" lon="8.950556840796347"><ele>402.0</ele><time>2026-04-19T11:50:27.999Z</time></trkpt><trkpt lat="45.82329469543006" lon="8.950632671585256"><ele>402.0</ele><time>2026-04-19T11:50:28.999Z</time></trkpt><trkpt lat="45.82339974015616" lon="8.950704020348587"><ele>402.0</ele><time>2026-04-19T11:50:30.999Z</time></trkpt><trkpt lat="45.82352480435256" lon="8.950699809729901"><ele>402.0</ele><time>2026-04-19T11:50:32.999Z</time></trkpt><trkpt lat="45.823626543830855" lon="8.950690900110432"><ele>402.0</ele><time>2026-04-19T11:50:34.999Z</time></trkpt><trkpt lat="45.82346739230523" lon="8.95053377515945"><ele>402.0</ele><time>2026-04-19T11:52:49.998Z</time></trkpt><trkpt lat="45.82340448358371" lon="8.95045245523045"><ele>402.0</ele><time>2026-04-19T11:52:51.998Z</time></trkpt><trkpt lat="45.823361437783824" lon="8.950274703364785"><ele>402.0</ele><time>2026-04-19T11:54:04.999Z</time></trkpt><trkpt lat="45.823355121529794" lon="8.950166346995452"><ele>402.0</ele><time>2026-04-19T11:54:10.999Z</time></trkpt><trkpt lat="45.82332070505624" lon="8.95013205794368"><ele>402.0</ele><time>2026-04-19T11:55:37Z</time></trkpt><trkpt lat="45.823387898566686" lon="8.950241760050506"><ele>402.0</ele><time>2026-04-19T11:55:44Z</time></trkpt><trkpt lat="45.82346009638197" lon="8.950352172005049"><ele>402.0</ele><time>2026-04-19T11:56:02.999Z</time></trkpt><trkpt lat="45.82353187729243" lon="8.950469875716557"><ele>402.0</ele><time>2026-04-19T11:58:40.999Z</time></trkpt><trkpt lat="45.82340983182381" lon="8.950384432458605"><ele>402.0</ele><time>2026-04-19T11:58:43.999Z</time></trkpt><trkpt lat="45.82355796496144" lon="8.950146504913606"><ele>402.0</ele><time>2026-04-19T11:58:58.999Z</time></trkpt><trkpt lat="45.82353971202899" lon="8.950243194113074"><ele>402.0</ele><time>2026-04-19T11:59:00.999Z</time></trkpt><trkpt lat="45.82352430807721" lon="8.950352857410868"><ele>402.0</ele><time>2026-04-19T11:59:05.999Z</time></trkpt><trkpt lat="45.82333730852384" lon="8.95026981063509"><ele>402.0</ele><time>2026-04-19T12:01:15.999Z</time></trkpt><trkpt lat="45.823393801968514" lon="8.950393703671017"><ele>402.0</ele><time>2026-04-19T12:01:38Z</time></trkpt><trkpt lat="45.82339416345507" lon="8.950248050829886"><ele>402.0</ele><time>2026-04-19T12:03:26.999Z</time></trkpt><trkpt lat="45.82352524270657" lon="8.950357516464386"><ele>402.0</ele><time>2026-04-19T12:09:11.999Z</time></trkpt><trkpt lat="45.82349354071246" lon="8.950474707522549"><ele>402.0</ele><time>2026-04-19T12:09:23.999Z</time></trkpt><trkpt lat="45.823517447672955" lon="8.950581203305793"><ele>402.0</ele><time>2026-04-19T12:09:33.999Z</time></trkpt><trkpt lat="45.82355735600158" lon="8.950652644095694"><ele>402.0</ele><time>2026-04-19T12:09:42.999Z</time></trkpt><trkpt lat="45.82363082447857" lon="8.950729161276227"><ele>402.0</ele><time>2026-04-19T12:10:35.999Z</time></trkpt><trkpt lat="45.82334918851729" lon="8.950653243740764"><ele>402.0</ele><time>2026-04-19T12:11:29.999Z</time></trkpt><trkpt lat="45.823287294621146" lon="8.950579284035518"><ele>402.0</ele><time>2026-04-19T12:11:30.999Z</time></trkpt><trkpt lat="45.823222262273916" lon="8.950487129599422"><ele>402.0</ele><time>2026-04-19T12:11:31.999Z</time></trkpt><trkpt lat="45.823166761401446" lon="8.95041538606802"><ele>402.0</ele><time>2026-04-19T12:11:32.999Z</time></trkpt><trkpt lat="45.823085444987484" lon="8.95030694192997"><ele>402.0</ele><time>2026-04-19T12:11:34.999Z</time></trkpt><trkpt lat="45.82302895974041" lon="8.950238377107055"><ele>402.0</ele><time>2026-04-19T12:11:36.999Z</time></trkpt><trkpt lat="45.822958299222684" lon="8.950228854062503"><ele>402.0</ele><time>2026-04-19T12:11:39.999Z</time></trkpt><trkpt lat="45.82289675276078" lon="8.95027699978517"><ele>402.0</ele><time>2026-04-19T12:11:41.999Z</time></trkpt><trkpt lat="45.82296556119399" lon="8.950505163745767"><ele>402.0</ele><time>2026-04-19T12:11:50.999Z</time></trkpt><trkpt lat="45.82315612672514" lon="8.950702187295704"><ele>402.0</ele><time>2026-04-19T12:11:54.999Z</time></trkpt><trkpt lat="45.82321370126982" lon="8.95083094822588"><ele>402.0</ele><time>2026-04-19T12:11:56.999Z</time></trkpt><trkpt lat="45.82315107462122" lon="8.951086511354276"><ele>402.0</ele><time>2026-04-19T12:12:07Z</time></trkpt><trkpt lat="45.82306152713607" lon="8.951145676468794"><ele>402.0</ele><time>2026-04-19T12:12:08Z</time></trkpt><trkpt lat="45.82293903196493" lon="8.951200994322791"><ele>402.0</ele><time>2026-04-19T12:12:09Z</time></trkpt><trkpt lat="45.822799062328656" lon="8.951254450021725"><ele>402.0</ele><time>2026-04-19T12:12:10Z</time></trkpt><trkpt lat="45.822648101758546" lon="8.951305283370676"><ele>402.0</ele><time>2026-04-19T12:12:11Z</time></trkpt><trkpt lat="45.82251220020325" lon="8.951352058797717"><ele>402.0</ele><time>2026-04-19T12:12:12Z</time></trkpt><trkpt lat="45.8222496384463" lon="8.951443111010166"><ele>402.0</ele><time>2026-04-19T12:12:14Z</time></trkpt><trkpt lat="45.82210481824398" lon="8.95148081683094"><ele>402.0</ele><time>2026-04-19T12:12:15Z</time></trkpt><trkpt lat="45.82195942624257" lon="8.951505686782385"><ele>402.0</ele><time>2026-04-19T12:12:16Z</time></trkpt><trkpt lat="45.82181270982942" lon="8.951513023709225"><ele>402.0</ele><time>2026-04-19T12:12:17Z</time></trkpt><trkpt lat="45.82165792996738" lon="8.951509744783786"><ele>402.0</ele><time>2026-04-19T12:12:18Z</time></trkpt><trkpt lat="45.82150521816652" lon="8.951510731890728"><ele>401.75</ele><time>2026-04-19T12:12:19Z</time></trkpt><trkpt lat="45.821355088605415" lon="8.951502306098735"><ele>401.5</ele><time>2026-04-19T12:12:20Z</time></trkpt><trkpt lat="45.82121451209439" lon="8.951500861911468"><ele>401.25</ele><time>2026-04-19T12:12:21Z</time></trkpt><trkpt lat="45.82108217186987" lon="8.951507314974657"><ele>401.0</ele><time>2026-04-19T12:12:22Z</time></trkpt><trkpt lat="45.82095580292838" lon="8.951516118074895"><ele>400.5</ele><time>2026-04-19T12:12:23Z</time></trkpt><trkpt lat="45.820828542845334" lon="8.951520551426409"><ele>400.0</ele><time>2026-04-19T12:12:24Z</time></trkpt><trkpt lat="45.82070806262264" lon="8.951523210555449"><ele>399.5</ele><time>2026-04-19T12:12:25Z</time></trkpt><trkpt lat="45.820593540524186" lon="8.951517732354414"><ele>399.0</ele><time>2026-04-19T12:12:26Z</time></trkpt><trkpt lat="45.8204874989028" lon="8.951513447340387"><ele>399.0</ele><time>2026-04-19T12:12:27Z</time></trkpt><trkpt lat="45.820390910589076" lon="8.95151402740291"><ele>399.0</ele><time>2026-04-19T12:12:28Z</time></trkpt><trkpt lat="45.82029432583717" lon="8.951514171999138"><ele>399.0</ele><time>2026-04-19T12:12:29Z</time></trkpt><trkpt lat="45.82020318905791" lon="8.951515784575772"><ele>399.0</ele><time>2026-04-19T12:12:30Z</time></trkpt><trkpt lat="45.82013200569308" lon="8.951517361724534"><ele>399.0</ele><time>2026-04-19T12:12:31Z</time></trkpt><trkpt lat="45.82002622335306" lon="8.951516833543527"><ele>398.0</ele><time>2026-04-19T12:12:33Z</time></trkpt><trkpt lat="45.81981162879473" lon="8.951471526784452"><ele>397.0</ele><time>2026-04-19T12:12:36.999Z</time></trkpt><trkpt lat="45.81974171550049" lon="8.951354376636875"><ele>396.0</ele><time>2026-04-19T12:12:38.999Z</time></trkpt><trkpt lat="45.81972567658116" lon="8.951118830325344"><ele>396.0</ele><time>2026-04-19T12:12:40.999Z</time></trkpt><trkpt lat="45.81971496377773" lon="8.950983595998883"><ele>396.0</ele><time>2026-04-19T12:12:41.999Z</time></trkpt><trkpt lat="45.8196992648469" lon="8.95081671535604"><ele>396.0</ele><time>2026-04-19T12:12:42.999Z</time></trkpt><trkpt lat="45.81967987571603" lon="8.950640676536192"><ele>396.0</ele><time>2026-04-19T12:12:43.999Z</time></trkpt><trkpt lat="45.81965946665557" lon="8.950457817122972"><ele>397.0</ele><time>2026-04-19T12:12:44.999Z</time></trkpt><trkpt lat="45.819629364659235" lon="8.950269005938607"><ele>398.0</ele><time>2026-04-19T12:12:45.999Z</time></trkpt><trkpt lat="45.819568447874126" lon="8.950084451829909"><ele>399.0</ele><time>2026-04-19T12:12:46.999Z</time></trkpt><trkpt lat="45.819503067651944" lon="8.94989284816355"><ele>400.0</ele><time>2026-04-19T12:12:47.999Z</time></trkpt><trkpt lat="45.81944757339343" lon="8.949699887414411"><ele>400.25</ele><time>2026-04-19T12:12:48.999Z</time></trkpt><trkpt lat="45.81941252704685" lon="8.949507667180661"><ele>400.5</ele><time>2026-04-19T12:12:49.999Z</time></trkpt><trkpt lat="45.81936259815204" lon="8.949300032347722"><ele>400.75</ele><time>2026-04-19T12:12:50.999Z</time></trkpt><trkpt lat="45.81934769512572" lon="8.949088838442883"><ele>401.0</ele><time>2026-04-19T12:12:51.999Z</time></trkpt><trkpt lat="45.81932824935017" lon="8.948867074086733"><ele>401.0</ele><time>2026-04-19T12:12:52.999Z</time></trkpt><trkpt lat="45.819284207724145" lon="8.948633539230174"><ele>401.0</ele><time>2026-04-19T12:12:53.999Z</time></trkpt><trkpt lat="45.819104835409426" lon="8.94817675844825"><ele>401.0</ele><time>2026-04-19T12:12:55.999Z</time></trkpt><trkpt lat="45.818988029193655" lon="8.947937316939312"><ele>401.0</ele><time>2026-04-19T12:12:56.999Z</time></trkpt><trkpt lat="45.818873656217626" lon="8.947698931863894"><ele>401.0</ele><time>2026-04-19T12:12:57.999Z</time></trkpt><trkpt lat="45.81878675285144" lon="8.947470854393377"><ele>400.0</ele><time>2026-04-19T12:12:58.999Z</time></trkpt><trkpt lat="45.81869158060418" lon="8.947294350221203"><ele>399.0</ele><time>2026-04-19T12:12:59.999Z</time></trkpt><trkpt lat="45.81861689802977" lon="8.947074846809503"><ele>398.0</ele><time>2026-04-19T12:13:00.999Z</time></trkpt><trkpt lat="45.81853377636622" lon="8.946871653825363"><ele>397.0</ele><time>2026-04-19T12:13:01.999Z</time></trkpt><trkpt lat="45.81844704059632" lon="8.946659625989588"><ele>396.0</ele><time>2026-04-19T12:13:02.999Z</time></trkpt><trkpt lat="45.818353715790415" lon="8.946462880436254"><ele>395.0</ele><time>2026-04-19T12:13:03.999Z</time></trkpt><trkpt lat="45.81827239770562" lon="8.946266722277723"><ele>395.0</ele><time>2026-04-19T12:13:04.999Z</time></trkpt><trkpt lat="45.818192580182135" lon="8.946068579452522"><ele>395.0</ele><time>2026-04-19T12:13:05.999Z</time></trkpt><trkpt lat="45.81810469901946" lon="8.945859198476422"><ele>395.0</ele><time>2026-04-19T12:13:06.999Z</time></trkpt><trkpt lat="45.81801911972466" lon="8.945640567564306"><ele>395.66666666666663</ele><time>2026-04-19T12:13:07.999Z</time></trkpt><trkpt lat="45.81794214416962" lon="8.945427253923596"><ele>396.33333333333337</ele><time>2026-04-19T12:13:08.999Z</time></trkpt><trkpt lat="45.817882272743084" lon="8.945212443817033"><ele>397.0</ele><time>2026-04-19T12:13:09.999Z</time></trkpt><trkpt lat="45.81785558099286" lon="8.944982018367194"><ele>397.33333333333337</ele><time>2026-04-19T12:13:10.999Z</time></trkpt><trkpt lat="45.8178432404822" lon="8.944744550279886"><ele>397.66666666666663</ele><time>2026-04-19T12:13:11.999Z</time></trkpt><trkpt lat="45.817833227727256" lon="8.94452592726958"><ele>398.0</ele><time>2026-04-19T12:13:12.999Z</time></trkpt><trkpt lat="45.817825535810876" lon="8.94431093863785"><ele>398.5</ele><time>2026-04-19T12:13:13.999Z</time></trkpt><trkpt lat="45.817821106534616" lon="8.944095244622623"><ele>399.0</ele><time>2026-04-19T12:13:14.999Z</time></trkpt><trkpt lat="45.817801527522995" lon="8.943657137778635"><ele>399.0</ele><time>2026-04-19T12:13:16.999Z</time></trkpt><trkpt lat="45.81778828065168" lon="8.943452632561762"><ele>399.0</ele><time>2026-04-19T12:13:17.999Z</time></trkpt><trkpt lat="45.81777257346814" lon="8.943227831103824"><ele>399.0</ele><time>2026-04-19T12:13:18.999Z</time></trkpt><trkpt lat="45.81773568593883" lon="8.943001367679562"><ele>398.66666666666663</ele><time>2026-04-19T12:13:19.999Z</time></trkpt><trkpt lat="45.81766550680846" lon="8.942761500213452"><ele>398.3333333333333</ele><time>2026-04-19T12:13:20.999Z</time></trkpt><trkpt lat="45.817579348244124" lon="8.942521424618041"><ele>398.0</ele><time>2026-04-19T12:13:21.999Z</time></trkpt><trkpt lat="45.817496830891336" lon="8.942298205496478"><ele>398.66666666666663</ele><time>2026-04-19T12:13:22.999Z</time></trkpt><trkpt lat="45.81741094516842" lon="8.94207317842825"><ele>399.33333333333337</ele><time>2026-04-19T12:13:23.999Z</time></trkpt><trkpt lat="45.81732898607739" lon="8.941851836999996"><ele>400.0</ele><time>2026-04-19T12:13:24.999Z</time></trkpt><trkpt lat="45.81724897622403" lon="8.941635361710555"><ele>402.33333333333337</ele><time>2026-04-19T12:13:25.999Z</time></trkpt><trkpt lat="45.81716844896263" lon="8.941422207791014"><ele>404.66666666666663</ele><time>2026-04-19T12:13:26.999Z</time></trkpt><trkpt lat="45.817083234090276" lon="8.94121468202463"><ele>407.0</ele><time>2026-04-19T12:13:27.999Z</time></trkpt><trkpt lat="45.81699324303273" lon="8.941027152258503"><ele>411.3333333333333</ele><time>2026-04-19T12:13:28.999Z</time></trkpt><trkpt lat="45.81689980839574" lon="8.940846239149842"><ele>415.66666666666663</ele><time>2026-04-19T12:13:29.999Z</time></trkpt><trkpt lat="45.816808824742" lon="8.940670435090025"><ele>420.0</ele><time>2026-04-19T12:13:30.999Z</time></trkpt><trkpt lat="45.816724040109925" lon="8.94050365275784"><ele>420.0</ele><time>2026-04-19T12:13:31.999Z</time></trkpt><trkpt lat="45.81664811866724" lon="8.940346644207201"><ele>420.0</ele><time>2026-04-19T12:13:32.999Z</time></trkpt><trkpt lat="45.816575604228724" lon="8.940206401495535"><ele>420.0</ele><time>2026-04-19T12:13:33.999Z</time></trkpt><trkpt lat="45.81651035315214" lon="8.94007790668409"><ele>420.0</ele><time>2026-04-19T12:13:34.999Z</time></trkpt><trkpt lat="45.81643803736787" lon="8.939943560672713"><ele>422.33333333333337</ele><time>2026-04-19T12:13:35.999Z</time></trkpt><trkpt lat="45.81628054596974" lon="8.93963961092948"><ele>424.6666666666667</ele><time>2026-04-19T12:13:37.999Z</time></trkpt><trkpt lat="45.81619429077733" lon="8.93947273425242"><ele>427.0</ele><time>2026-04-19T12:13:38.999Z</time></trkpt><trkpt lat="45.81610555822022" lon="8.939292197357759"><ele>428.0</ele><time>2026-04-19T12:13:39.999Z</time></trkpt><trkpt lat="45.81601904142255" lon="8.939107682551406"><ele>429.0</ele><time>2026-04-19T12:13:40.999Z</time></trkpt><trkpt lat="45.81594932578536" lon="8.93892339749526"><ele>430.0</ele><time>2026-04-19T12:13:41.999Z</time></trkpt><trkpt lat="45.81589838340018" lon="8.938752583856758"><ele>431.0</ele><time>2026-04-19T12:13:42.999Z</time></trkpt><trkpt lat="45.81584219834103" lon="8.938567310427217"><ele>428.75</ele><time>2026-04-19T12:13:43.999Z</time></trkpt><trkpt lat="45.81578769233276" lon="8.938375571934582"><ele>426.5</ele><time>2026-04-19T12:13:44.999Z</time></trkpt><trkpt lat="45.815736838772935" lon="8.938187384837809"><ele>424.25</ele><time>2026-04-19T12:13:45.999Z</time></trkpt><trkpt lat="45.8156898240088" lon="8.938010603515965"><ele>422.0</ele><time>2026-04-19T12:13:46.999Z</time></trkpt><trkpt lat="45.81562771761616" lon="8.937839564132934"><ele>422.0</ele><time>2026-04-19T12:13:47.999Z</time></trkpt><trkpt lat="45.81557757693133" lon="8.937669451753104"><ele>422.0</ele><time>2026-04-19T12:13:48.999Z</time></trkpt><trkpt lat="45.81553173340547" lon="8.93750370663865"><ele>422.0</ele><time>2026-04-19T12:13:49.999Z</time></trkpt><trkpt lat="45.81548874584109" lon="8.9373496098462"><ele>422.0</ele><time>2026-04-19T12:13:50.999Z</time></trkpt><trkpt lat="45.81543480502774" lon="8.937189002878446"><ele>422.0</ele><time>2026-04-19T12:13:51.999Z</time></trkpt><trkpt lat="45.81538349874254" lon="8.937023408937776"><ele>422.0</ele><time>2026-04-19T12:13:52.999Z</time></trkpt><trkpt lat="45.81533382155324" lon="8.936861254714016"><ele>422.0</ele><time>2026-04-19T12:13:53.999Z</time></trkpt><trkpt lat="45.81528389661457" lon="8.93670340860395"><ele>422.0</ele><time>2026-04-19T12:13:54.999Z</time></trkpt><trkpt lat="45.815240795602946" lon="8.936546401998596"><ele>421.6</ele><time>2026-04-19T12:13:55.999Z</time></trkpt><trkpt lat="45.815199277471535" lon="8.936396719720145"><ele>421.20000000000005</ele><time>2026-04-19T12:13:56.999Z</time></trkpt><trkpt lat="45.8151338074374" lon="8.936183165728611"><ele>420.8</ele><time>2026-04-19T12:13:58.999Z</time></trkpt><trkpt lat="45.815130959597376" lon="8.936090947048843"><ele>420.4</ele><time>2026-04-19T12:13:59.999Z</time></trkpt><trkpt lat="45.81516438845714" lon="8.936000287572496"><ele>420.0</ele><time>2026-04-19T12:14:03Z</time></trkpt><trkpt lat="45.815327762283346" lon="8.936034478512953"><ele>420.0</ele><time>2026-04-19T12:14:09Z</time></trkpt><trkpt lat="45.815413598416846" lon="8.936059778840756"><ele>420.0</ele><time>2026-04-19T12:14:11Z</time></trkpt><trkpt lat="45.815487722703665" lon="8.936063614619178"><ele>420.0</ele><time>2026-04-19T12:14:14Z</time></trkpt><trkpt lat="45.81554918207113" lon="8.93608877555932"><ele>420.0</ele><time>2026-04-19T12:14:40Z</time></trkpt><trkpt lat="45.81553847533288" lon="8.936170097448805"><ele>420.0</ele><time>2026-04-19T12:15:55.999Z</time></trkpt><trkpt lat="45.81566805955591" lon="8.935809675612427"><ele>416.0</ele><time>2026-04-19T12:16:15Z</time></trkpt><trkpt lat="45.815672340501926" lon="8.936104376299236"><ele>420.0</ele><time>2026-04-19T12:17:48.019Z</time></trkpt><trkpt lat="45.8156276617382" lon="8.93617798550265"><ele>420.0</ele><time>2026-04-19T12:18:56Z</time></trkpt></trkseg></trk></gpx>